<?xml version="1.0" encoding="UTF-8" standalone="no" ?>
<gpx xmlns="http://www.topografix.com/GPX/1/1" xmlns:xsi="http://www.w3.org/2001/XMLSchema-instance" xsi:schemaLocation="http://www.topografix.com/GPX/1/1 http://www.topografix.com/GPX/1/1/gpx.xsd" version="1.1" creator="VisuGPX - https://www.visugpx.com">
  <metadata>
    <name>Poulainville</name>
    <desc><![CDATA[10km et non pas 21
29 pax
Cœur et santé
Bug oubli d'arrêter l'enregistrement. 75]]></desc>
  </metadata>
  <trk>
    <name><![CDATA[Poulainville_1]]></name>
    <trkseg>
      <trkpt lat="49.95091" lon="2.31457">
        <ele>72.6</ele>
        <time>2023-12-27T12:53:35Z</time>
      </trkpt>
      <trkpt lat="49.95091" lon="2.31457">
        <ele>72.6</ele>
        <time>2023-12-27T12:53:36Z</time>
      </trkpt>
      <trkpt lat="49.95091" lon="2.31457">
        <ele>72.6</ele>
        <time>2023-12-27T12:53:37Z</time>
      </trkpt>
      <trkpt lat="49.95091" lon="2.31457">
        <ele>72.6</ele>
        <time>2023-12-27T12:53:38Z</time>
      </trkpt>
      <trkpt lat="49.95091" lon="2.31457">
        <ele>72.6</ele>
        <time>2023-12-27T12:53:39Z</time>
      </trkpt>
      <trkpt lat="49.95091" lon="2.31457">
        <ele>72.6</ele>
        <time>2023-12-27T12:53:40Z</time>
      </trkpt>
      <trkpt lat="49.95091" lon="2.31457">
        <ele>72.6</ele>
        <time>2023-12-27T12:53:41Z</time>
      </trkpt>
      <trkpt lat="49.95091" lon="2.31457">
        <ele>72.6</ele>
        <time>2023-12-27T12:53:42Z</time>
      </trkpt>
      <trkpt lat="49.95091" lon="2.31457">
        <ele>72.6</ele>
        <time>2023-12-27T12:53:43Z</time>
      </trkpt>
      <trkpt lat="49.95091" lon="2.31457">
        <ele>72.6</ele>
        <time>2023-12-27T12:53:44Z</time>
      </trkpt>
      <trkpt lat="49.95091" lon="2.31457">
        <ele>72.6</ele>
        <time>2023-12-27T12:53:45Z</time>
      </trkpt>
      <trkpt lat="49.95088" lon="2.31458">
        <ele>72.5</ele>
        <time>2023-12-27T13:00:54Z</time>
      </trkpt>
      <trkpt lat="49.95087" lon="2.31458">
        <ele>72.5</ele>
        <time>2023-12-27T13:00:55Z</time>
      </trkpt>
      <trkpt lat="49.95087" lon="2.31458">
        <ele>72.5</ele>
        <time>2023-12-27T13:00:56Z</time>
      </trkpt>
      <trkpt lat="49.95086" lon="2.31458">
        <ele>72.5</ele>
        <time>2023-12-27T13:00:57Z</time>
      </trkpt>
      <trkpt lat="49.95085" lon="2.31458">
        <ele>72.5</ele>
        <time>2023-12-27T13:00:58Z</time>
      </trkpt>
      <trkpt lat="49.95084" lon="2.31458">
        <ele>72.4</ele>
        <time>2023-12-27T13:00:59Z</time>
      </trkpt>
      <trkpt lat="49.95083" lon="2.31458">
        <ele>72.4</ele>
        <time>2023-12-27T13:01:00Z</time>
      </trkpt>
      <trkpt lat="49.95083" lon="2.31458">
        <ele>72.4</ele>
        <time>2023-12-27T13:01:01Z</time>
      </trkpt>
      <trkpt lat="49.95082" lon="2.31458">
        <ele>72.4</ele>
        <time>2023-12-27T13:01:02Z</time>
      </trkpt>
      <trkpt lat="49.95081" lon="2.31458">
        <ele>72.4</ele>
        <time>2023-12-27T13:01:03Z</time>
      </trkpt>
      <trkpt lat="49.9508" lon="2.31458">
        <ele>72.4</ele>
        <time>2023-12-27T13:01:04Z</time>
      </trkpt>
      <trkpt lat="49.95079" lon="2.31458">
        <ele>72.3</ele>
        <time>2023-12-27T13:01:05Z</time>
      </trkpt>
      <trkpt lat="49.95078" lon="2.31458">
        <ele>72.3</ele>
        <time>2023-12-27T13:01:06Z</time>
      </trkpt>
      <trkpt lat="49.95077" lon="2.31458">
        <ele>72.3</ele>
        <time>2023-12-27T13:01:07Z</time>
      </trkpt>
      <trkpt lat="49.95076" lon="2.31457">
        <ele>72.3</ele>
        <time>2023-12-27T13:01:08Z</time>
      </trkpt>
      <trkpt lat="49.95075" lon="2.31457">
        <ele>72.3</ele>
        <time>2023-12-27T13:01:09Z</time>
      </trkpt>
      <trkpt lat="49.95074" lon="2.31457">
        <ele>72.3</ele>
        <time>2023-12-27T13:01:10Z</time>
      </trkpt>
      <trkpt lat="49.95073" lon="2.31457">
        <ele>72.3</ele>
        <time>2023-12-27T13:01:11Z</time>
      </trkpt>
      <trkpt lat="49.95072" lon="2.31457">
        <ele>72.2</ele>
        <time>2023-12-27T13:01:12Z</time>
      </trkpt>
      <trkpt lat="49.95071" lon="2.31456">
        <ele>72.2</ele>
        <time>2023-12-27T13:01:13Z</time>
      </trkpt>
      <trkpt lat="49.95069" lon="2.31456">
        <ele>72.2</ele>
        <time>2023-12-27T13:01:14Z</time>
      </trkpt>
      <trkpt lat="49.95069" lon="2.31456">
        <ele>72.2</ele>
        <time>2023-12-27T13:01:15Z</time>
      </trkpt>
      <trkpt lat="49.95068" lon="2.31455">
        <ele>72.2</ele>
        <time>2023-12-27T13:01:16Z</time>
      </trkpt>
      <trkpt lat="49.95066" lon="2.31455">
        <ele>72.2</ele>
        <time>2023-12-27T13:01:17Z</time>
      </trkpt>
      <trkpt lat="49.95065" lon="2.31455">
        <ele>72.2</ele>
        <time>2023-12-27T13:01:19Z</time>
      </trkpt>
      <trkpt lat="49.95062" lon="2.31455">
        <ele>72.1</ele>
        <time>2023-12-27T13:01:20Z</time>
      </trkpt>
      <trkpt lat="49.9506" lon="2.31455">
        <ele>72.1</ele>
        <time>2023-12-27T13:01:22Z</time>
      </trkpt>
      <trkpt lat="49.95058" lon="2.31455">
        <ele>72.1</ele>
        <time>2023-12-27T13:01:23Z</time>
      </trkpt>
      <trkpt lat="49.95057" lon="2.31455">
        <ele>72.1</ele>
        <time>2023-12-27T13:01:24Z</time>
      </trkpt>
      <trkpt lat="49.95056" lon="2.31455">
        <ele>72.1</ele>
        <time>2023-12-27T13:01:25Z</time>
      </trkpt>
      <trkpt lat="49.95055" lon="2.31456">
        <ele>72.1</ele>
        <time>2023-12-27T13:01:26Z</time>
      </trkpt>
      <trkpt lat="49.95053" lon="2.31456">
        <ele>72.1</ele>
        <time>2023-12-27T13:01:27Z</time>
      </trkpt>
      <trkpt lat="49.95052" lon="2.31456">
        <ele>72.1</ele>
        <time>2023-12-27T13:01:29Z</time>
      </trkpt>
      <trkpt lat="49.95051" lon="2.31457">
        <ele>72.1</ele>
        <time>2023-12-27T13:01:30Z</time>
      </trkpt>
      <trkpt lat="49.9505" lon="2.31457">
        <ele>72</ele>
        <time>2023-12-27T13:01:31Z</time>
      </trkpt>
      <trkpt lat="49.95048" lon="2.31457">
        <ele>72</ele>
        <time>2023-12-27T13:01:33Z</time>
      </trkpt>
      <trkpt lat="49.95047" lon="2.31457">
        <ele>72</ele>
        <time>2023-12-27T13:01:34Z</time>
      </trkpt>
      <trkpt lat="49.95046" lon="2.31457">
        <ele>72</ele>
        <time>2023-12-27T13:01:35Z</time>
      </trkpt>
      <trkpt lat="49.95045" lon="2.31458">
        <ele>72</ele>
        <time>2023-12-27T13:01:36Z</time>
      </trkpt>
      <trkpt lat="49.95044" lon="2.31458">
        <ele>71.9</ele>
        <time>2023-12-27T13:01:37Z</time>
      </trkpt>
      <trkpt lat="49.95043" lon="2.31458">
        <ele>71.9</ele>
        <time>2023-12-27T13:01:39Z</time>
      </trkpt>
      <trkpt lat="49.95042" lon="2.31458">
        <ele>71.9</ele>
        <time>2023-12-27T13:01:40Z</time>
      </trkpt>
      <trkpt lat="49.9504" lon="2.31457">
        <ele>71.9</ele>
        <time>2023-12-27T13:01:41Z</time>
      </trkpt>
      <trkpt lat="49.95039" lon="2.31457">
        <ele>71.8</ele>
        <time>2023-12-27T13:01:42Z</time>
      </trkpt>
      <trkpt lat="49.95038" lon="2.31456">
        <ele>71.8</ele>
        <time>2023-12-27T13:01:43Z</time>
      </trkpt>
      <trkpt lat="49.95036" lon="2.31456">
        <ele>71.8</ele>
        <time>2023-12-27T13:01:44Z</time>
      </trkpt>
      <trkpt lat="49.95035" lon="2.31456">
        <ele>71.8</ele>
        <time>2023-12-27T13:01:46Z</time>
      </trkpt>
      <trkpt lat="49.95033" lon="2.31456">
        <ele>71.7</ele>
        <time>2023-12-27T13:01:47Z</time>
      </trkpt>
      <trkpt lat="49.95032" lon="2.31456">
        <ele>71.7</ele>
        <time>2023-12-27T13:01:48Z</time>
      </trkpt>
      <trkpt lat="49.9503" lon="2.31455">
        <ele>71.7</ele>
        <time>2023-12-27T13:01:49Z</time>
      </trkpt>
      <trkpt lat="49.95029" lon="2.31455">
        <ele>71.7</ele>
        <time>2023-12-27T13:01:50Z</time>
      </trkpt>
      <trkpt lat="49.95027" lon="2.31454">
        <ele>71.7</ele>
        <time>2023-12-27T13:01:51Z</time>
      </trkpt>
      <trkpt lat="49.95026" lon="2.31454">
        <ele>71.6</ele>
        <time>2023-12-27T13:01:52Z</time>
      </trkpt>
      <trkpt lat="49.95024" lon="2.31453">
        <ele>71.6</ele>
        <time>2023-12-27T13:01:54Z</time>
      </trkpt>
      <trkpt lat="49.95023" lon="2.31452">
        <ele>71.6</ele>
        <time>2023-12-27T13:01:55Z</time>
      </trkpt>
      <trkpt lat="49.95022" lon="2.31452">
        <ele>71.6</ele>
        <time>2023-12-27T13:01:56Z</time>
      </trkpt>
      <trkpt lat="49.95021" lon="2.31451">
        <ele>71.6</ele>
        <time>2023-12-27T13:01:57Z</time>
      </trkpt>
      <trkpt lat="49.9502" lon="2.31449">
        <ele>71.5</ele>
        <time>2023-12-27T13:01:58Z</time>
      </trkpt>
      <trkpt lat="49.95019" lon="2.31448">
        <ele>71.5</ele>
        <time>2023-12-27T13:02:00Z</time>
      </trkpt>
      <trkpt lat="49.95018" lon="2.31446">
        <ele>71.5</ele>
        <time>2023-12-27T13:02:01Z</time>
      </trkpt>
      <trkpt lat="49.95017" lon="2.31445">
        <ele>71.5</ele>
        <time>2023-12-27T13:02:02Z</time>
      </trkpt>
      <trkpt lat="49.95017" lon="2.31444">
        <ele>71.5</ele>
        <time>2023-12-27T13:02:03Z</time>
      </trkpt>
      <trkpt lat="49.95016" lon="2.31443">
        <ele>71.4</ele>
        <time>2023-12-27T13:02:04Z</time>
      </trkpt>
      <trkpt lat="49.95015" lon="2.31442">
        <ele>71.4</ele>
        <time>2023-12-27T13:02:05Z</time>
      </trkpt>
      <trkpt lat="49.95014" lon="2.31441">
        <ele>71.4</ele>
        <time>2023-12-27T13:02:06Z</time>
      </trkpt>
      <trkpt lat="49.95013" lon="2.3144">
        <ele>71.4</ele>
        <time>2023-12-27T13:02:08Z</time>
      </trkpt>
      <trkpt lat="49.95012" lon="2.31438">
        <ele>71.4</ele>
        <time>2023-12-27T13:02:09Z</time>
      </trkpt>
      <trkpt lat="49.95011" lon="2.31437">
        <ele>71.3</ele>
        <time>2023-12-27T13:02:10Z</time>
      </trkpt>
      <trkpt lat="49.9501" lon="2.31436">
        <ele>71.3</ele>
        <time>2023-12-27T13:02:11Z</time>
      </trkpt>
      <trkpt lat="49.9501" lon="2.31435">
        <ele>71.3</ele>
        <time>2023-12-27T13:02:12Z</time>
      </trkpt>
      <trkpt lat="49.95008" lon="2.31434">
        <ele>71.3</ele>
        <time>2023-12-27T13:02:13Z</time>
      </trkpt>
      <trkpt lat="49.95008" lon="2.31434">
        <ele>71.3</ele>
        <time>2023-12-27T13:02:15Z</time>
      </trkpt>
      <trkpt lat="49.95007" lon="2.31433">
        <ele>71.2</ele>
        <time>2023-12-27T13:02:16Z</time>
      </trkpt>
      <trkpt lat="49.95006" lon="2.31432">
        <ele>71.2</ele>
        <time>2023-12-27T13:02:17Z</time>
      </trkpt>
      <trkpt lat="49.95005" lon="2.31431">
        <ele>71.2</ele>
        <time>2023-12-27T13:02:18Z</time>
      </trkpt>
      <trkpt lat="49.95004" lon="2.3143">
        <ele>71.2</ele>
        <time>2023-12-27T13:02:19Z</time>
      </trkpt>
      <trkpt lat="49.95003" lon="2.31429">
        <ele>71.2</ele>
        <time>2023-12-27T13:02:20Z</time>
      </trkpt>
      <trkpt lat="49.95002" lon="2.31428">
        <ele>71.1</ele>
        <time>2023-12-27T13:02:22Z</time>
      </trkpt>
      <trkpt lat="49.95001" lon="2.31427">
        <ele>71.1</ele>
        <time>2023-12-27T13:02:23Z</time>
      </trkpt>
      <trkpt lat="49.95" lon="2.31427">
        <ele>71.1</ele>
        <time>2023-12-27T13:02:24Z</time>
      </trkpt>
      <trkpt lat="49.94999" lon="2.31426">
        <ele>71.1</ele>
        <time>2023-12-27T13:02:25Z</time>
      </trkpt>
      <trkpt lat="49.94998" lon="2.31426">
        <ele>71.1</ele>
        <time>2023-12-27T13:02:26Z</time>
      </trkpt>
      <trkpt lat="49.94997" lon="2.31425">
        <ele>71</ele>
        <time>2023-12-27T13:02:28Z</time>
      </trkpt>
      <trkpt lat="49.94996" lon="2.31425">
        <ele>71</ele>
        <time>2023-12-27T13:02:29Z</time>
      </trkpt>
      <trkpt lat="49.94995" lon="2.31424">
        <ele>71</ele>
        <time>2023-12-27T13:02:30Z</time>
      </trkpt>
      <trkpt lat="49.94994" lon="2.31423">
        <ele>71</ele>
        <time>2023-12-27T13:02:31Z</time>
      </trkpt>
      <trkpt lat="49.94993" lon="2.31423">
        <ele>71</ele>
        <time>2023-12-27T13:02:32Z</time>
      </trkpt>
      <trkpt lat="49.94992" lon="2.31422">
        <ele>71</ele>
        <time>2023-12-27T13:02:34Z</time>
      </trkpt>
      <trkpt lat="49.9499" lon="2.31421">
        <ele>70.9</ele>
        <time>2023-12-27T13:02:35Z</time>
      </trkpt>
      <trkpt lat="49.94989" lon="2.3142">
        <ele>70.9</ele>
        <time>2023-12-27T13:02:36Z</time>
      </trkpt>
      <trkpt lat="49.94988" lon="2.31419">
        <ele>70.9</ele>
        <time>2023-12-27T13:02:37Z</time>
      </trkpt>
      <trkpt lat="49.94987" lon="2.31419">
        <ele>70.9</ele>
        <time>2023-12-27T13:02:38Z</time>
      </trkpt>
      <trkpt lat="49.94986" lon="2.31418">
        <ele>70.9</ele>
        <time>2023-12-27T13:02:40Z</time>
      </trkpt>
      <trkpt lat="49.94985" lon="2.31418">
        <ele>70.9</ele>
        <time>2023-12-27T13:02:41Z</time>
      </trkpt>
      <trkpt lat="49.94984" lon="2.31417">
        <ele>70.8</ele>
        <time>2023-12-27T13:02:42Z</time>
      </trkpt>
      <trkpt lat="49.94982" lon="2.31416">
        <ele>70.8</ele>
        <time>2023-12-27T13:02:43Z</time>
      </trkpt>
      <trkpt lat="49.94981" lon="2.31416">
        <ele>70.8</ele>
        <time>2023-12-27T13:02:44Z</time>
      </trkpt>
      <trkpt lat="49.9498" lon="2.31416">
        <ele>70.8</ele>
        <time>2023-12-27T13:02:45Z</time>
      </trkpt>
      <trkpt lat="49.94978" lon="2.31415">
        <ele>70.8</ele>
        <time>2023-12-27T13:02:47Z</time>
      </trkpt>
      <trkpt lat="49.94977" lon="2.31414">
        <ele>70.7</ele>
        <time>2023-12-27T13:02:48Z</time>
      </trkpt>
      <trkpt lat="49.94976" lon="2.31414">
        <ele>70.7</ele>
        <time>2023-12-27T13:02:49Z</time>
      </trkpt>
      <trkpt lat="49.94975" lon="2.31413">
        <ele>70.7</ele>
        <time>2023-12-27T13:02:50Z</time>
      </trkpt>
      <trkpt lat="49.94974" lon="2.31412">
        <ele>70.7</ele>
        <time>2023-12-27T13:02:51Z</time>
      </trkpt>
      <trkpt lat="49.94972" lon="2.31411">
        <ele>70.7</ele>
        <time>2023-12-27T13:02:52Z</time>
      </trkpt>
      <trkpt lat="49.94971" lon="2.31411">
        <ele>70.7</ele>
        <time>2023-12-27T13:02:54Z</time>
      </trkpt>
      <trkpt lat="49.9497" lon="2.3141">
        <ele>70.6</ele>
        <time>2023-12-27T13:02:55Z</time>
      </trkpt>
      <trkpt lat="49.94968" lon="2.31409">
        <ele>70.6</ele>
        <time>2023-12-27T13:02:56Z</time>
      </trkpt>
      <trkpt lat="49.94967" lon="2.31409">
        <ele>70.6</ele>
        <time>2023-12-27T13:02:57Z</time>
      </trkpt>
      <trkpt lat="49.94966" lon="2.31409">
        <ele>70.6</ele>
        <time>2023-12-27T13:02:58Z</time>
      </trkpt>
      <trkpt lat="49.94965" lon="2.31408">
        <ele>70.6</ele>
        <time>2023-12-27T13:02:59Z</time>
      </trkpt>
      <trkpt lat="49.94964" lon="2.31408">
        <ele>70.6</ele>
        <time>2023-12-27T13:03:00Z</time>
      </trkpt>
      <trkpt lat="49.94963" lon="2.31407">
        <ele>70.6</ele>
        <time>2023-12-27T13:03:02Z</time>
      </trkpt>
      <trkpt lat="49.94961" lon="2.31406">
        <ele>70.6</ele>
        <time>2023-12-27T13:03:03Z</time>
      </trkpt>
      <trkpt lat="49.9496" lon="2.31405">
        <ele>70.6</ele>
        <time>2023-12-27T13:03:04Z</time>
      </trkpt>
      <trkpt lat="49.94959" lon="2.31405">
        <ele>70.6</ele>
        <time>2023-12-27T13:03:05Z</time>
      </trkpt>
      <trkpt lat="49.94958" lon="2.31404">
        <ele>70.6</ele>
        <time>2023-12-27T13:03:06Z</time>
      </trkpt>
      <trkpt lat="49.94957" lon="2.31404">
        <ele>70.6</ele>
        <time>2023-12-27T13:03:08Z</time>
      </trkpt>
      <trkpt lat="49.94956" lon="2.31403">
        <ele>70.6</ele>
        <time>2023-12-27T13:03:09Z</time>
      </trkpt>
      <trkpt lat="49.94955" lon="2.31402">
        <ele>70.6</ele>
        <time>2023-12-27T13:03:10Z</time>
      </trkpt>
      <trkpt lat="49.94954" lon="2.31401">
        <ele>70.6</ele>
        <time>2023-12-27T13:03:11Z</time>
      </trkpt>
      <trkpt lat="49.94953" lon="2.314">
        <ele>70.6</ele>
        <time>2023-12-27T13:03:12Z</time>
      </trkpt>
      <trkpt lat="49.94952" lon="2.31398">
        <ele>70.6</ele>
        <time>2023-12-27T13:03:13Z</time>
      </trkpt>
      <trkpt lat="49.94952" lon="2.31397">
        <ele>70.6</ele>
        <time>2023-12-27T13:03:15Z</time>
      </trkpt>
      <trkpt lat="49.94951" lon="2.31395">
        <ele>70.6</ele>
        <time>2023-12-27T13:03:16Z</time>
      </trkpt>
      <trkpt lat="49.94951" lon="2.31394">
        <ele>70.6</ele>
        <time>2023-12-27T13:03:17Z</time>
      </trkpt>
      <trkpt lat="49.94951" lon="2.31393">
        <ele>70.6</ele>
        <time>2023-12-27T13:03:18Z</time>
      </trkpt>
      <trkpt lat="49.9495" lon="2.31391">
        <ele>70.7</ele>
        <time>2023-12-27T13:03:19Z</time>
      </trkpt>
      <trkpt lat="49.9495" lon="2.31389">
        <ele>70.7</ele>
        <time>2023-12-27T13:03:21Z</time>
      </trkpt>
      <trkpt lat="49.94949" lon="2.31387">
        <ele>70.7</ele>
        <time>2023-12-27T13:03:22Z</time>
      </trkpt>
      <trkpt lat="49.94949" lon="2.31385">
        <ele>70.7</ele>
        <time>2023-12-27T13:03:23Z</time>
      </trkpt>
      <trkpt lat="49.94948" lon="2.31382">
        <ele>70.7</ele>
        <time>2023-12-27T13:03:24Z</time>
      </trkpt>
      <trkpt lat="49.94948" lon="2.31381">
        <ele>70.7</ele>
        <time>2023-12-27T13:03:25Z</time>
      </trkpt>
      <trkpt lat="49.94947" lon="2.31379">
        <ele>70.7</ele>
        <time>2023-12-27T13:03:26Z</time>
      </trkpt>
      <trkpt lat="49.94947" lon="2.31376">
        <ele>70.7</ele>
        <time>2023-12-27T13:03:28Z</time>
      </trkpt>
      <trkpt lat="49.94946" lon="2.31375">
        <ele>70.7</ele>
        <time>2023-12-27T13:03:29Z</time>
      </trkpt>
      <trkpt lat="49.94946" lon="2.31374">
        <ele>70.7</ele>
        <time>2023-12-27T13:03:30Z</time>
      </trkpt>
      <trkpt lat="49.94945" lon="2.31372">
        <ele>70.7</ele>
        <time>2023-12-27T13:03:31Z</time>
      </trkpt>
      <trkpt lat="49.94945" lon="2.3137">
        <ele>70.7</ele>
        <time>2023-12-27T13:03:32Z</time>
      </trkpt>
      <trkpt lat="49.94944" lon="2.31367">
        <ele>70.8</ele>
        <time>2023-12-27T13:03:33Z</time>
      </trkpt>
      <trkpt lat="49.94943" lon="2.31365">
        <ele>70.8</ele>
        <time>2023-12-27T13:03:35Z</time>
      </trkpt>
      <trkpt lat="49.94943" lon="2.31364">
        <ele>70.8</ele>
        <time>2023-12-27T13:03:36Z</time>
      </trkpt>
      <trkpt lat="49.94942" lon="2.31361">
        <ele>70.8</ele>
        <time>2023-12-27T13:03:37Z</time>
      </trkpt>
      <trkpt lat="49.94942" lon="2.3136">
        <ele>70.8</ele>
        <time>2023-12-27T13:03:38Z</time>
      </trkpt>
      <trkpt lat="49.94942" lon="2.31359">
        <ele>70.8</ele>
        <time>2023-12-27T13:03:39Z</time>
      </trkpt>
      <trkpt lat="49.94941" lon="2.31357">
        <ele>70.8</ele>
        <time>2023-12-27T13:03:40Z</time>
      </trkpt>
      <trkpt lat="49.9494" lon="2.31356">
        <ele>70.8</ele>
        <time>2023-12-27T13:03:41Z</time>
      </trkpt>
      <trkpt lat="49.9494" lon="2.31354">
        <ele>70.8</ele>
        <time>2023-12-27T13:03:43Z</time>
      </trkpt>
      <trkpt lat="49.9494" lon="2.31353">
        <ele>70.8</ele>
        <time>2023-12-27T13:03:44Z</time>
      </trkpt>
      <trkpt lat="49.94939" lon="2.31351">
        <ele>70.8</ele>
        <time>2023-12-27T13:03:45Z</time>
      </trkpt>
      <trkpt lat="49.94939" lon="2.31349">
        <ele>70.8</ele>
        <time>2023-12-27T13:03:46Z</time>
      </trkpt>
      <trkpt lat="49.94938" lon="2.31348">
        <ele>70.8</ele>
        <time>2023-12-27T13:03:47Z</time>
      </trkpt>
      <trkpt lat="49.94938" lon="2.31346">
        <ele>70.8</ele>
        <time>2023-12-27T13:03:48Z</time>
      </trkpt>
      <trkpt lat="49.94937" lon="2.31344">
        <ele>70.8</ele>
        <time>2023-12-27T13:03:50Z</time>
      </trkpt>
      <trkpt lat="49.94937" lon="2.31343">
        <ele>70.8</ele>
        <time>2023-12-27T13:03:51Z</time>
      </trkpt>
      <trkpt lat="49.94936" lon="2.31341">
        <ele>70.8</ele>
        <time>2023-12-27T13:03:52Z</time>
      </trkpt>
      <trkpt lat="49.94935" lon="2.3134">
        <ele>70.8</ele>
        <time>2023-12-27T13:03:53Z</time>
      </trkpt>
      <trkpt lat="49.94934" lon="2.31337">
        <ele>70.8</ele>
        <time>2023-12-27T13:03:54Z</time>
      </trkpt>
      <trkpt lat="49.94934" lon="2.31336">
        <ele>70.8</ele>
        <time>2023-12-27T13:03:55Z</time>
      </trkpt>
      <trkpt lat="49.94933" lon="2.31335">
        <ele>70.8</ele>
        <time>2023-12-27T13:03:56Z</time>
      </trkpt>
      <trkpt lat="49.94932" lon="2.31332">
        <ele>70.8</ele>
        <time>2023-12-27T13:03:57Z</time>
      </trkpt>
      <trkpt lat="49.94932" lon="2.31331">
        <ele>70.8</ele>
        <time>2023-12-27T13:03:59Z</time>
      </trkpt>
      <trkpt lat="49.94931" lon="2.3133">
        <ele>70.8</ele>
        <time>2023-12-27T13:04:00Z</time>
      </trkpt>
      <trkpt lat="49.9493" lon="2.31328">
        <ele>70.8</ele>
        <time>2023-12-27T13:04:01Z</time>
      </trkpt>
      <trkpt lat="49.94929" lon="2.31327">
        <ele>70.8</ele>
        <time>2023-12-27T13:04:02Z</time>
      </trkpt>
      <trkpt lat="49.94929" lon="2.31326">
        <ele>70.8</ele>
        <time>2023-12-27T13:04:03Z</time>
      </trkpt>
      <trkpt lat="49.94927" lon="2.31323">
        <ele>70.8</ele>
        <time>2023-12-27T13:04:04Z</time>
      </trkpt>
      <trkpt lat="49.94927" lon="2.31322">
        <ele>70.8</ele>
        <time>2023-12-27T13:04:05Z</time>
      </trkpt>
      <trkpt lat="49.94926" lon="2.31321">
        <ele>70.8</ele>
        <time>2023-12-27T13:04:06Z</time>
      </trkpt>
      <trkpt lat="49.94926" lon="2.31319">
        <ele>70.8</ele>
        <time>2023-12-27T13:04:08Z</time>
      </trkpt>
      <trkpt lat="49.94925" lon="2.31318">
        <ele>70.8</ele>
        <time>2023-12-27T13:04:09Z</time>
      </trkpt>
      <trkpt lat="49.94924" lon="2.31317">
        <ele>70.8</ele>
        <time>2023-12-27T13:04:10Z</time>
      </trkpt>
      <trkpt lat="49.94923" lon="2.31316">
        <ele>70.8</ele>
        <time>2023-12-27T13:04:11Z</time>
      </trkpt>
      <trkpt lat="49.94922" lon="2.31314">
        <ele>70.8</ele>
        <time>2023-12-27T13:04:12Z</time>
      </trkpt>
      <trkpt lat="49.94921" lon="2.31313">
        <ele>70.8</ele>
        <time>2023-12-27T13:04:13Z</time>
      </trkpt>
      <trkpt lat="49.94919" lon="2.31313">
        <ele>70.8</ele>
        <time>2023-12-27T13:04:15Z</time>
      </trkpt>
      <trkpt lat="49.94919" lon="2.31313">
        <ele>70.8</ele>
        <time>2023-12-27T13:04:16Z</time>
      </trkpt>
      <trkpt lat="49.94918" lon="2.31313">
        <ele>70.8</ele>
        <time>2023-12-27T13:04:17Z</time>
      </trkpt>
      <trkpt lat="49.94915" lon="2.31313">
        <ele>70.8</ele>
        <time>2023-12-27T13:04:18Z</time>
      </trkpt>
      <trkpt lat="49.94915" lon="2.31313">
        <ele>70.8</ele>
        <time>2023-12-27T13:04:19Z</time>
      </trkpt>
      <trkpt lat="49.94914" lon="2.31313">
        <ele>70.8</ele>
        <time>2023-12-27T13:04:20Z</time>
      </trkpt>
      <trkpt lat="49.94912" lon="2.31312">
        <ele>70.8</ele>
        <time>2023-12-27T13:04:21Z</time>
      </trkpt>
      <trkpt lat="49.94911" lon="2.31312">
        <ele>70.8</ele>
        <time>2023-12-27T13:04:22Z</time>
      </trkpt>
      <trkpt lat="49.9491" lon="2.31311">
        <ele>70.8</ele>
        <time>2023-12-27T13:04:24Z</time>
      </trkpt>
      <trkpt lat="49.94909" lon="2.3131">
        <ele>70.8</ele>
        <time>2023-12-27T13:04:25Z</time>
      </trkpt>
      <trkpt lat="49.94908" lon="2.31309">
        <ele>70.8</ele>
        <time>2023-12-27T13:04:26Z</time>
      </trkpt>
      <trkpt lat="49.94907" lon="2.31308">
        <ele>70.8</ele>
        <time>2023-12-27T13:04:27Z</time>
      </trkpt>
      <trkpt lat="49.94906" lon="2.31307">
        <ele>70.8</ele>
        <time>2023-12-27T13:04:28Z</time>
      </trkpt>
      <trkpt lat="49.94905" lon="2.31307">
        <ele>70.8</ele>
        <time>2023-12-27T13:04:29Z</time>
      </trkpt>
      <trkpt lat="49.94904" lon="2.31306">
        <ele>70.8</ele>
        <time>2023-12-27T13:04:30Z</time>
      </trkpt>
      <trkpt lat="49.94903" lon="2.31305">
        <ele>70.8</ele>
        <time>2023-12-27T13:04:32Z</time>
      </trkpt>
      <trkpt lat="49.94902" lon="2.31304">
        <ele>70.8</ele>
        <time>2023-12-27T13:04:33Z</time>
      </trkpt>
      <trkpt lat="49.94901" lon="2.31304">
        <ele>70.8</ele>
        <time>2023-12-27T13:04:34Z</time>
      </trkpt>
      <trkpt lat="49.949" lon="2.31303">
        <ele>70.8</ele>
        <time>2023-12-27T13:04:35Z</time>
      </trkpt>
      <trkpt lat="49.94899" lon="2.31303">
        <ele>70.8</ele>
        <time>2023-12-27T13:04:36Z</time>
      </trkpt>
      <trkpt lat="49.94898" lon="2.31303">
        <ele>70.8</ele>
        <time>2023-12-27T13:04:37Z</time>
      </trkpt>
      <trkpt lat="49.94897" lon="2.31303">
        <ele>70.8</ele>
        <time>2023-12-27T13:04:38Z</time>
      </trkpt>
      <trkpt lat="49.94895" lon="2.31303">
        <ele>70.8</ele>
        <time>2023-12-27T13:04:40Z</time>
      </trkpt>
      <trkpt lat="49.94894" lon="2.31303">
        <ele>70.8</ele>
        <time>2023-12-27T13:04:41Z</time>
      </trkpt>
      <trkpt lat="49.94893" lon="2.31303">
        <ele>70.7</ele>
        <time>2023-12-27T13:04:42Z</time>
      </trkpt>
      <trkpt lat="49.94892" lon="2.31303">
        <ele>70.7</ele>
        <time>2023-12-27T13:04:43Z</time>
      </trkpt>
      <trkpt lat="49.94891" lon="2.31304">
        <ele>70.7</ele>
        <time>2023-12-27T13:04:44Z</time>
      </trkpt>
      <trkpt lat="49.94889" lon="2.31304">
        <ele>70.7</ele>
        <time>2023-12-27T13:04:45Z</time>
      </trkpt>
      <trkpt lat="49.94888" lon="2.31305">
        <ele>70.7</ele>
        <time>2023-12-27T13:04:47Z</time>
      </trkpt>
      <trkpt lat="49.94887" lon="2.31306">
        <ele>70.7</ele>
        <time>2023-12-27T13:04:48Z</time>
      </trkpt>
      <trkpt lat="49.94886" lon="2.31306">
        <ele>70.7</ele>
        <time>2023-12-27T13:04:49Z</time>
      </trkpt>
      <trkpt lat="49.94885" lon="2.31307">
        <ele>70.7</ele>
        <time>2023-12-27T13:04:50Z</time>
      </trkpt>
      <trkpt lat="49.94884" lon="2.31308">
        <ele>70.7</ele>
        <time>2023-12-27T13:04:51Z</time>
      </trkpt>
      <trkpt lat="49.94883" lon="2.31309">
        <ele>70.6</ele>
        <time>2023-12-27T13:04:53Z</time>
      </trkpt>
      <trkpt lat="49.94882" lon="2.31309">
        <ele>70.6</ele>
        <time>2023-12-27T13:04:54Z</time>
      </trkpt>
      <trkpt lat="49.94881" lon="2.3131">
        <ele>70.6</ele>
        <time>2023-12-27T13:04:55Z</time>
      </trkpt>
      <trkpt lat="49.9488" lon="2.3131">
        <ele>70.6</ele>
        <time>2023-12-27T13:04:56Z</time>
      </trkpt>
      <trkpt lat="49.94879" lon="2.31309">
        <ele>70.6</ele>
        <time>2023-12-27T13:04:58Z</time>
      </trkpt>
      <trkpt lat="49.94878" lon="2.31309">
        <ele>70.6</ele>
        <time>2023-12-27T13:04:59Z</time>
      </trkpt>
      <trkpt lat="49.94878" lon="2.31309">
        <ele>70.6</ele>
        <time>2023-12-27T13:05:00Z</time>
      </trkpt>
      <trkpt lat="49.94877" lon="2.31309">
        <ele>70.6</ele>
        <time>2023-12-27T13:05:01Z</time>
      </trkpt>
      <trkpt lat="49.94876" lon="2.31309">
        <ele>70.6</ele>
        <time>2023-12-27T13:05:02Z</time>
      </trkpt>
      <trkpt lat="49.94875" lon="2.31306">
        <ele>70.5</ele>
        <time>2023-12-27T13:05:03Z</time>
      </trkpt>
      <trkpt lat="49.94875" lon="2.31305">
        <ele>70.5</ele>
        <time>2023-12-27T13:05:04Z</time>
      </trkpt>
      <trkpt lat="49.94874" lon="2.31304">
        <ele>70.5</ele>
        <time>2023-12-27T13:05:05Z</time>
      </trkpt>
      <trkpt lat="49.94874" lon="2.31302">
        <ele>70.5</ele>
        <time>2023-12-27T13:05:06Z</time>
      </trkpt>
      <trkpt lat="49.94873" lon="2.313">
        <ele>70.5</ele>
        <time>2023-12-27T13:05:07Z</time>
      </trkpt>
      <trkpt lat="49.94872" lon="2.31297">
        <ele>70.5</ele>
        <time>2023-12-27T13:05:09Z</time>
      </trkpt>
      <trkpt lat="49.94872" lon="2.31296">
        <ele>70.5</ele>
        <time>2023-12-27T13:05:10Z</time>
      </trkpt>
      <trkpt lat="49.94871" lon="2.31294">
        <ele>70.5</ele>
        <time>2023-12-27T13:05:11Z</time>
      </trkpt>
      <trkpt lat="49.94871" lon="2.31292">
        <ele>70.5</ele>
        <time>2023-12-27T13:05:12Z</time>
      </trkpt>
      <trkpt lat="49.9487" lon="2.31291">
        <ele>70.4</ele>
        <time>2023-12-27T13:05:13Z</time>
      </trkpt>
      <trkpt lat="49.94869" lon="2.31288">
        <ele>70.4</ele>
        <time>2023-12-27T13:05:14Z</time>
      </trkpt>
      <trkpt lat="49.94868" lon="2.31287">
        <ele>70.4</ele>
        <time>2023-12-27T13:05:16Z</time>
      </trkpt>
      <trkpt lat="49.94867" lon="2.31287">
        <ele>70.4</ele>
        <time>2023-12-27T13:05:17Z</time>
      </trkpt>
      <trkpt lat="49.94866" lon="2.31286">
        <ele>70.3</ele>
        <time>2023-12-27T13:05:18Z</time>
      </trkpt>
      <trkpt lat="49.94865" lon="2.31285">
        <ele>70.3</ele>
        <time>2023-12-27T13:05:19Z</time>
      </trkpt>
      <trkpt lat="49.94864" lon="2.31284">
        <ele>70.3</ele>
        <time>2023-12-27T13:05:20Z</time>
      </trkpt>
      <trkpt lat="49.94863" lon="2.31284">
        <ele>70.2</ele>
        <time>2023-12-27T13:05:22Z</time>
      </trkpt>
      <trkpt lat="49.94862" lon="2.31284">
        <ele>70.2</ele>
        <time>2023-12-27T13:05:23Z</time>
      </trkpt>
      <trkpt lat="49.9486" lon="2.31283">
        <ele>70.2</ele>
        <time>2023-12-27T13:05:24Z</time>
      </trkpt>
      <trkpt lat="49.94858" lon="2.31282">
        <ele>70.1</ele>
        <time>2023-12-27T13:05:25Z</time>
      </trkpt>
      <trkpt lat="49.94858" lon="2.31282">
        <ele>70.1</ele>
        <time>2023-12-27T13:05:26Z</time>
      </trkpt>
      <trkpt lat="49.94857" lon="2.31282">
        <ele>70</ele>
        <time>2023-12-27T13:05:27Z</time>
      </trkpt>
      <trkpt lat="49.94855" lon="2.31281">
        <ele>70</ele>
        <time>2023-12-27T13:05:28Z</time>
      </trkpt>
      <trkpt lat="49.94854" lon="2.31281">
        <ele>69.9</ele>
        <time>2023-12-27T13:05:29Z</time>
      </trkpt>
      <trkpt lat="49.94853" lon="2.31281">
        <ele>69.9</ele>
        <time>2023-12-27T13:05:31Z</time>
      </trkpt>
      <trkpt lat="49.94852" lon="2.3128">
        <ele>69.9</ele>
        <time>2023-12-27T13:05:32Z</time>
      </trkpt>
      <trkpt lat="49.94851" lon="2.3128">
        <ele>69.9</ele>
        <time>2023-12-27T13:05:33Z</time>
      </trkpt>
      <trkpt lat="49.9485" lon="2.3128">
        <ele>69.8</ele>
        <time>2023-12-27T13:05:34Z</time>
      </trkpt>
      <trkpt lat="49.94847" lon="2.31279">
        <ele>69.8</ele>
        <time>2023-12-27T13:05:35Z</time>
      </trkpt>
      <trkpt lat="49.94847" lon="2.31279">
        <ele>69.7</ele>
        <time>2023-12-27T13:05:36Z</time>
      </trkpt>
      <trkpt lat="49.94846" lon="2.31279">
        <ele>69.7</ele>
        <time>2023-12-27T13:05:37Z</time>
      </trkpt>
      <trkpt lat="49.94844" lon="2.31279">
        <ele>69.7</ele>
        <time>2023-12-27T13:05:38Z</time>
      </trkpt>
      <trkpt lat="49.94843" lon="2.31278">
        <ele>69.6</ele>
        <time>2023-12-27T13:05:40Z</time>
      </trkpt>
      <trkpt lat="49.94842" lon="2.31278">
        <ele>69.6</ele>
        <time>2023-12-27T13:05:41Z</time>
      </trkpt>
      <trkpt lat="49.9484" lon="2.31278">
        <ele>69.5</ele>
        <time>2023-12-27T13:05:42Z</time>
      </trkpt>
      <trkpt lat="49.94839" lon="2.31277">
        <ele>69.5</ele>
        <time>2023-12-27T13:05:43Z</time>
      </trkpt>
      <trkpt lat="49.94839" lon="2.31277">
        <ele>69.5</ele>
        <time>2023-12-27T13:05:44Z</time>
      </trkpt>
      <trkpt lat="49.94837" lon="2.31276">
        <ele>69.4</ele>
        <time>2023-12-27T13:05:45Z</time>
      </trkpt>
      <trkpt lat="49.94836" lon="2.31276">
        <ele>69.4</ele>
        <time>2023-12-27T13:05:46Z</time>
      </trkpt>
      <trkpt lat="49.94835" lon="2.31276">
        <ele>69.4</ele>
        <time>2023-12-27T13:05:47Z</time>
      </trkpt>
      <trkpt lat="49.94833" lon="2.31275">
        <ele>69.3</ele>
        <time>2023-12-27T13:05:49Z</time>
      </trkpt>
      <trkpt lat="49.94832" lon="2.31275">
        <ele>69.3</ele>
        <time>2023-12-27T13:05:50Z</time>
      </trkpt>
      <trkpt lat="49.94831" lon="2.31274">
        <ele>69.3</ele>
        <time>2023-12-27T13:05:51Z</time>
      </trkpt>
      <trkpt lat="49.94829" lon="2.31273">
        <ele>69.2</ele>
        <time>2023-12-27T13:05:52Z</time>
      </trkpt>
      <trkpt lat="49.94828" lon="2.31273">
        <ele>69.2</ele>
        <time>2023-12-27T13:05:53Z</time>
      </trkpt>
      <trkpt lat="49.94828" lon="2.31272">
        <ele>69.2</ele>
        <time>2023-12-27T13:05:54Z</time>
      </trkpt>
      <trkpt lat="49.94825" lon="2.31271">
        <ele>69.1</ele>
        <time>2023-12-27T13:05:56Z</time>
      </trkpt>
      <trkpt lat="49.94824" lon="2.31271">
        <ele>69</ele>
        <time>2023-12-27T13:05:57Z</time>
      </trkpt>
      <trkpt lat="49.94822" lon="2.3127">
        <ele>69</ele>
        <time>2023-12-27T13:05:58Z</time>
      </trkpt>
      <trkpt lat="49.94821" lon="2.31269">
        <ele>69</ele>
        <time>2023-12-27T13:06:00Z</time>
      </trkpt>
      <trkpt lat="49.9482" lon="2.31269">
        <ele>68.9</ele>
        <time>2023-12-27T13:06:01Z</time>
      </trkpt>
      <trkpt lat="49.94818" lon="2.31269">
        <ele>68.9</ele>
        <time>2023-12-27T13:06:02Z</time>
      </trkpt>
      <trkpt lat="49.94817" lon="2.31269">
        <ele>68.8</ele>
        <time>2023-12-27T13:06:03Z</time>
      </trkpt>
      <trkpt lat="49.94817" lon="2.31268">
        <ele>68.8</ele>
        <time>2023-12-27T13:06:04Z</time>
      </trkpt>
      <trkpt lat="49.94815" lon="2.31268">
        <ele>68.8</ele>
        <time>2023-12-27T13:06:05Z</time>
      </trkpt>
      <trkpt lat="49.94814" lon="2.31268">
        <ele>68.7</ele>
        <time>2023-12-27T13:06:06Z</time>
      </trkpt>
      <trkpt lat="49.94813" lon="2.31268">
        <ele>68.7</ele>
        <time>2023-12-27T13:06:07Z</time>
      </trkpt>
      <trkpt lat="49.94812" lon="2.31267">
        <ele>68.7</ele>
        <time>2023-12-27T13:06:08Z</time>
      </trkpt>
      <trkpt lat="49.94811" lon="2.31267">
        <ele>68.6</ele>
        <time>2023-12-27T13:06:10Z</time>
      </trkpt>
      <trkpt lat="49.94809" lon="2.31267">
        <ele>68.6</ele>
        <time>2023-12-27T13:06:11Z</time>
      </trkpt>
      <trkpt lat="49.94807" lon="2.31266">
        <ele>68.6</ele>
        <time>2023-12-27T13:06:12Z</time>
      </trkpt>
      <trkpt lat="49.94807" lon="2.31266">
        <ele>68.5</ele>
        <time>2023-12-27T13:06:13Z</time>
      </trkpt>
      <trkpt lat="49.94806" lon="2.31265">
        <ele>68.5</ele>
        <time>2023-12-27T13:06:14Z</time>
      </trkpt>
      <trkpt lat="49.94803" lon="2.31265">
        <ele>68.4</ele>
        <time>2023-12-27T13:06:15Z</time>
      </trkpt>
      <trkpt lat="49.94802" lon="2.31264">
        <ele>68.4</ele>
        <time>2023-12-27T13:06:17Z</time>
      </trkpt>
      <trkpt lat="49.94801" lon="2.31264">
        <ele>68.4</ele>
        <time>2023-12-27T13:06:18Z</time>
      </trkpt>
      <trkpt lat="49.948" lon="2.31263">
        <ele>68.4</ele>
        <time>2023-12-27T13:06:19Z</time>
      </trkpt>
      <trkpt lat="49.94799" lon="2.31263">
        <ele>68.3</ele>
        <time>2023-12-27T13:06:20Z</time>
      </trkpt>
      <trkpt lat="49.94798" lon="2.31263">
        <ele>68.3</ele>
        <time>2023-12-27T13:06:21Z</time>
      </trkpt>
      <trkpt lat="49.94796" lon="2.31262">
        <ele>68.3</ele>
        <time>2023-12-27T13:06:22Z</time>
      </trkpt>
      <trkpt lat="49.94794" lon="2.31261">
        <ele>68.2</ele>
        <time>2023-12-27T13:06:23Z</time>
      </trkpt>
      <trkpt lat="49.94794" lon="2.31261">
        <ele>68.2</ele>
        <time>2023-12-27T13:06:24Z</time>
      </trkpt>
      <trkpt lat="49.94793" lon="2.31261">
        <ele>68.2</ele>
        <time>2023-12-27T13:06:25Z</time>
      </trkpt>
      <trkpt lat="49.94791" lon="2.3126">
        <ele>68.1</ele>
        <time>2023-12-27T13:06:27Z</time>
      </trkpt>
      <trkpt lat="49.9479" lon="2.31259">
        <ele>68.1</ele>
        <time>2023-12-27T13:06:28Z</time>
      </trkpt>
      <trkpt lat="49.94789" lon="2.31259">
        <ele>68.1</ele>
        <time>2023-12-27T13:06:29Z</time>
      </trkpt>
      <trkpt lat="49.94787" lon="2.31258">
        <ele>68.1</ele>
        <time>2023-12-27T13:06:30Z</time>
      </trkpt>
      <trkpt lat="49.94787" lon="2.31258">
        <ele>68.1</ele>
        <time>2023-12-27T13:06:32Z</time>
      </trkpt>
      <trkpt lat="49.94786" lon="2.31258">
        <ele>68</ele>
        <time>2023-12-27T13:06:33Z</time>
      </trkpt>
      <trkpt lat="49.94784" lon="2.31257">
        <ele>68</ele>
        <time>2023-12-27T13:06:34Z</time>
      </trkpt>
      <trkpt lat="49.94783" lon="2.31257">
        <ele>68</ele>
        <time>2023-12-27T13:06:35Z</time>
      </trkpt>
      <trkpt lat="49.94782" lon="2.31256">
        <ele>68</ele>
        <time>2023-12-27T13:06:36Z</time>
      </trkpt>
      <trkpt lat="49.9478" lon="2.31256">
        <ele>67.9</ele>
        <time>2023-12-27T13:06:37Z</time>
      </trkpt>
      <trkpt lat="49.94779" lon="2.31255">
        <ele>67.9</ele>
        <time>2023-12-27T13:06:38Z</time>
      </trkpt>
      <trkpt lat="49.94779" lon="2.31255">
        <ele>67.9</ele>
        <time>2023-12-27T13:06:39Z</time>
      </trkpt>
      <trkpt lat="49.94778" lon="2.31254">
        <ele>67.9</ele>
        <time>2023-12-27T13:06:40Z</time>
      </trkpt>
      <trkpt lat="49.94776" lon="2.31254">
        <ele>67.9</ele>
        <time>2023-12-27T13:06:41Z</time>
      </trkpt>
      <trkpt lat="49.94775" lon="2.31253">
        <ele>67.9</ele>
        <time>2023-12-27T13:06:43Z</time>
      </trkpt>
      <trkpt lat="49.94773" lon="2.31252">
        <ele>67.8</ele>
        <time>2023-12-27T13:06:44Z</time>
      </trkpt>
      <trkpt lat="49.94772" lon="2.31252">
        <ele>67.8</ele>
        <time>2023-12-27T13:06:45Z</time>
      </trkpt>
      <trkpt lat="49.94771" lon="2.31251">
        <ele>67.8</ele>
        <time>2023-12-27T13:06:46Z</time>
      </trkpt>
      <trkpt lat="49.94769" lon="2.3125">
        <ele>67.8</ele>
        <time>2023-12-27T13:06:47Z</time>
      </trkpt>
      <trkpt lat="49.94768" lon="2.3125">
        <ele>67.7</ele>
        <time>2023-12-27T13:06:48Z</time>
      </trkpt>
      <trkpt lat="49.94767" lon="2.3125">
        <ele>67.7</ele>
        <time>2023-12-27T13:06:49Z</time>
      </trkpt>
      <trkpt lat="49.94765" lon="2.31249">
        <ele>67.7</ele>
        <time>2023-12-27T13:06:50Z</time>
      </trkpt>
      <trkpt lat="49.94765" lon="2.31248">
        <ele>67.7</ele>
        <time>2023-12-27T13:06:52Z</time>
      </trkpt>
      <trkpt lat="49.94764" lon="2.31248">
        <ele>67.7</ele>
        <time>2023-12-27T13:06:53Z</time>
      </trkpt>
      <trkpt lat="49.94763" lon="2.31247">
        <ele>67.6</ele>
        <time>2023-12-27T13:06:54Z</time>
      </trkpt>
      <trkpt lat="49.94761" lon="2.31246">
        <ele>67.6</ele>
        <time>2023-12-27T13:06:55Z</time>
      </trkpt>
      <trkpt lat="49.94759" lon="2.31245">
        <ele>67.6</ele>
        <time>2023-12-27T13:06:56Z</time>
      </trkpt>
      <trkpt lat="49.94759" lon="2.31245">
        <ele>67.6</ele>
        <time>2023-12-27T13:06:57Z</time>
      </trkpt>
      <trkpt lat="49.94758" lon="2.31244">
        <ele>67.6</ele>
        <time>2023-12-27T13:06:58Z</time>
      </trkpt>
      <trkpt lat="49.94756" lon="2.31244">
        <ele>67.5</ele>
        <time>2023-12-27T13:06:59Z</time>
      </trkpt>
      <trkpt lat="49.94755" lon="2.31243">
        <ele>67.5</ele>
        <time>2023-12-27T13:07:00Z</time>
      </trkpt>
      <trkpt lat="49.94754" lon="2.31243">
        <ele>67.5</ele>
        <time>2023-12-27T13:07:01Z</time>
      </trkpt>
      <trkpt lat="49.94752" lon="2.31242">
        <ele>67.5</ele>
        <time>2023-12-27T13:07:02Z</time>
      </trkpt>
      <trkpt lat="49.94751" lon="2.31242">
        <ele>67.5</ele>
        <time>2023-12-27T13:07:04Z</time>
      </trkpt>
      <trkpt lat="49.9475" lon="2.31241">
        <ele>67.4</ele>
        <time>2023-12-27T13:07:05Z</time>
      </trkpt>
      <trkpt lat="49.94749" lon="2.3124">
        <ele>67.4</ele>
        <time>2023-12-27T13:07:06Z</time>
      </trkpt>
      <trkpt lat="49.94746" lon="2.3124">
        <ele>67.3</ele>
        <time>2023-12-27T13:07:07Z</time>
      </trkpt>
      <trkpt lat="49.94745" lon="2.31239">
        <ele>67.3</ele>
        <time>2023-12-27T13:07:09Z</time>
      </trkpt>
      <trkpt lat="49.94744" lon="2.31239">
        <ele>67.3</ele>
        <time>2023-12-27T13:07:10Z</time>
      </trkpt>
      <trkpt lat="49.94743" lon="2.31239">
        <ele>67.3</ele>
        <time>2023-12-27T13:07:11Z</time>
      </trkpt>
      <trkpt lat="49.94742" lon="2.31238">
        <ele>67.3</ele>
        <time>2023-12-27T13:07:12Z</time>
      </trkpt>
      <trkpt lat="49.94741" lon="2.31237">
        <ele>67.2</ele>
        <time>2023-12-27T13:07:13Z</time>
      </trkpt>
      <trkpt lat="49.9474" lon="2.31237">
        <ele>67.2</ele>
        <time>2023-12-27T13:07:14Z</time>
      </trkpt>
      <trkpt lat="49.94739" lon="2.31236">
        <ele>67.2</ele>
        <time>2023-12-27T13:07:15Z</time>
      </trkpt>
      <trkpt lat="49.94738" lon="2.31235">
        <ele>67.2</ele>
        <time>2023-12-27T13:07:16Z</time>
      </trkpt>
      <trkpt lat="49.94737" lon="2.31235">
        <ele>67.2</ele>
        <time>2023-12-27T13:07:18Z</time>
      </trkpt>
      <trkpt lat="49.94736" lon="2.31234">
        <ele>67.1</ele>
        <time>2023-12-27T13:07:19Z</time>
      </trkpt>
      <trkpt lat="49.94734" lon="2.31232">
        <ele>67.1</ele>
        <time>2023-12-27T13:07:20Z</time>
      </trkpt>
      <trkpt lat="49.94734" lon="2.31231">
        <ele>67.1</ele>
        <time>2023-12-27T13:07:21Z</time>
      </trkpt>
      <trkpt lat="49.94733" lon="2.3123">
        <ele>67.1</ele>
        <time>2023-12-27T13:07:22Z</time>
      </trkpt>
      <trkpt lat="49.94731" lon="2.31228">
        <ele>67.1</ele>
        <time>2023-12-27T13:07:23Z</time>
      </trkpt>
      <trkpt lat="49.94731" lon="2.31228">
        <ele>67.1</ele>
        <time>2023-12-27T13:07:24Z</time>
      </trkpt>
      <trkpt lat="49.9473" lon="2.31227">
        <ele>67</ele>
        <time>2023-12-27T13:07:25Z</time>
      </trkpt>
      <trkpt lat="49.94729" lon="2.31226">
        <ele>67</ele>
        <time>2023-12-27T13:07:26Z</time>
      </trkpt>
      <trkpt lat="49.94728" lon="2.31225">
        <ele>67</ele>
        <time>2023-12-27T13:07:27Z</time>
      </trkpt>
      <trkpt lat="49.94727" lon="2.31224">
        <ele>67</ele>
        <time>2023-12-27T13:07:28Z</time>
      </trkpt>
      <trkpt lat="49.94726" lon="2.31223">
        <ele>67</ele>
        <time>2023-12-27T13:07:30Z</time>
      </trkpt>
      <trkpt lat="49.94725" lon="2.31223">
        <ele>67</ele>
        <time>2023-12-27T13:07:31Z</time>
      </trkpt>
      <trkpt lat="49.94725" lon="2.31222">
        <ele>67</ele>
        <time>2023-12-27T13:07:32Z</time>
      </trkpt>
      <trkpt lat="49.94724" lon="2.31221">
        <ele>67</ele>
        <time>2023-12-27T13:07:33Z</time>
      </trkpt>
      <trkpt lat="49.94723" lon="2.31219">
        <ele>67</ele>
        <time>2023-12-27T13:07:35Z</time>
      </trkpt>
      <trkpt lat="49.94722" lon="2.31218">
        <ele>67</ele>
        <time>2023-12-27T13:07:36Z</time>
      </trkpt>
      <trkpt lat="49.94721" lon="2.31217">
        <ele>67</ele>
        <time>2023-12-27T13:07:37Z</time>
      </trkpt>
      <trkpt lat="49.9472" lon="2.31215">
        <ele>67</ele>
        <time>2023-12-27T13:07:38Z</time>
      </trkpt>
      <trkpt lat="49.9472" lon="2.31214">
        <ele>66.9</ele>
        <time>2023-12-27T13:07:39Z</time>
      </trkpt>
      <trkpt lat="49.94719" lon="2.31213">
        <ele>66.9</ele>
        <time>2023-12-27T13:07:41Z</time>
      </trkpt>
      <trkpt lat="49.94718" lon="2.31212">
        <ele>66.9</ele>
        <time>2023-12-27T13:07:42Z</time>
      </trkpt>
      <trkpt lat="49.94717" lon="2.31211">
        <ele>66.9</ele>
        <time>2023-12-27T13:07:43Z</time>
      </trkpt>
      <trkpt lat="49.94715" lon="2.3121">
        <ele>66.9</ele>
        <time>2023-12-27T13:07:44Z</time>
      </trkpt>
      <trkpt lat="49.94714" lon="2.31209">
        <ele>66.9</ele>
        <time>2023-12-27T13:07:45Z</time>
      </trkpt>
      <trkpt lat="49.94713" lon="2.31209">
        <ele>66.9</ele>
        <time>2023-12-27T13:07:46Z</time>
      </trkpt>
      <trkpt lat="49.94712" lon="2.31208">
        <ele>66.9</ele>
        <time>2023-12-27T13:07:47Z</time>
      </trkpt>
      <trkpt lat="49.9471" lon="2.31207">
        <ele>66.9</ele>
        <time>2023-12-27T13:07:48Z</time>
      </trkpt>
      <trkpt lat="49.94709" lon="2.31206">
        <ele>66.8</ele>
        <time>2023-12-27T13:07:50Z</time>
      </trkpt>
      <trkpt lat="49.94708" lon="2.31206">
        <ele>66.8</ele>
        <time>2023-12-27T13:07:51Z</time>
      </trkpt>
      <trkpt lat="49.94705" lon="2.31206">
        <ele>66.8</ele>
        <time>2023-12-27T13:07:52Z</time>
      </trkpt>
      <trkpt lat="49.94705" lon="2.31205">
        <ele>66.8</ele>
        <time>2023-12-27T13:07:53Z</time>
      </trkpt>
      <trkpt lat="49.94704" lon="2.31205">
        <ele>66.8</ele>
        <time>2023-12-27T13:07:54Z</time>
      </trkpt>
      <trkpt lat="49.94702" lon="2.31205">
        <ele>66.7</ele>
        <time>2023-12-27T13:07:56Z</time>
      </trkpt>
      <trkpt lat="49.947" lon="2.31205">
        <ele>66.7</ele>
        <time>2023-12-27T13:07:57Z</time>
      </trkpt>
      <trkpt lat="49.94699" lon="2.31205">
        <ele>66.7</ele>
        <time>2023-12-27T13:07:58Z</time>
      </trkpt>
      <trkpt lat="49.94697" lon="2.31206">
        <ele>66.7</ele>
        <time>2023-12-27T13:07:59Z</time>
      </trkpt>
      <trkpt lat="49.94696" lon="2.31206">
        <ele>66.6</ele>
        <time>2023-12-27T13:08:00Z</time>
      </trkpt>
      <trkpt lat="49.94695" lon="2.31206">
        <ele>66.6</ele>
        <time>2023-12-27T13:08:01Z</time>
      </trkpt>
      <trkpt lat="49.94693" lon="2.31207">
        <ele>66.6</ele>
        <time>2023-12-27T13:08:03Z</time>
      </trkpt>
      <trkpt lat="49.94692" lon="2.31207">
        <ele>66.6</ele>
        <time>2023-12-27T13:08:04Z</time>
      </trkpt>
      <trkpt lat="49.94691" lon="2.31208">
        <ele>66.5</ele>
        <time>2023-12-27T13:08:05Z</time>
      </trkpt>
      <trkpt lat="49.94689" lon="2.31208">
        <ele>66.5</ele>
        <time>2023-12-27T13:08:06Z</time>
      </trkpt>
      <trkpt lat="49.94688" lon="2.31208">
        <ele>66.5</ele>
        <time>2023-12-27T13:08:07Z</time>
      </trkpt>
      <trkpt lat="49.94687" lon="2.31209">
        <ele>66.5</ele>
        <time>2023-12-27T13:08:08Z</time>
      </trkpt>
      <trkpt lat="49.94685" lon="2.31209">
        <ele>66.4</ele>
        <time>2023-12-27T13:08:09Z</time>
      </trkpt>
      <trkpt lat="49.94684" lon="2.3121">
        <ele>66.4</ele>
        <time>2023-12-27T13:08:10Z</time>
      </trkpt>
      <trkpt lat="49.94683" lon="2.3121">
        <ele>66.4</ele>
        <time>2023-12-27T13:08:11Z</time>
      </trkpt>
      <trkpt lat="49.94681" lon="2.31211">
        <ele>66.3</ele>
        <time>2023-12-27T13:08:12Z</time>
      </trkpt>
      <trkpt lat="49.9468" lon="2.31211">
        <ele>66.3</ele>
        <time>2023-12-27T13:08:14Z</time>
      </trkpt>
      <trkpt lat="49.9468" lon="2.31212">
        <ele>66.2</ele>
        <time>2023-12-27T13:08:15Z</time>
      </trkpt>
      <trkpt lat="49.94678" lon="2.31213">
        <ele>66.2</ele>
        <time>2023-12-27T13:08:16Z</time>
      </trkpt>
      <trkpt lat="49.94677" lon="2.31214">
        <ele>66.2</ele>
        <time>2023-12-27T13:08:17Z</time>
      </trkpt>
      <trkpt lat="49.94676" lon="2.31214">
        <ele>66.1</ele>
        <time>2023-12-27T13:08:18Z</time>
      </trkpt>
      <trkpt lat="49.94675" lon="2.31216">
        <ele>66.1</ele>
        <time>2023-12-27T13:08:19Z</time>
      </trkpt>
      <trkpt lat="49.94674" lon="2.31217">
        <ele>66.1</ele>
        <time>2023-12-27T13:08:20Z</time>
      </trkpt>
      <trkpt lat="49.94672" lon="2.31218">
        <ele>66</ele>
        <time>2023-12-27T13:08:21Z</time>
      </trkpt>
      <trkpt lat="49.94671" lon="2.31219">
        <ele>66</ele>
        <time>2023-12-27T13:08:22Z</time>
      </trkpt>
      <trkpt lat="49.9467" lon="2.31221">
        <ele>65.9</ele>
        <time>2023-12-27T13:08:23Z</time>
      </trkpt>
      <trkpt lat="49.94669" lon="2.31222">
        <ele>65.9</ele>
        <time>2023-12-27T13:08:25Z</time>
      </trkpt>
      <trkpt lat="49.94668" lon="2.31223">
        <ele>65.9</ele>
        <time>2023-12-27T13:08:26Z</time>
      </trkpt>
      <trkpt lat="49.94667" lon="2.31224">
        <ele>65.9</ele>
        <time>2023-12-27T13:08:27Z</time>
      </trkpt>
      <trkpt lat="49.94666" lon="2.31225">
        <ele>65.9</ele>
        <time>2023-12-27T13:08:28Z</time>
      </trkpt>
      <trkpt lat="49.94665" lon="2.31225">
        <ele>65.8</ele>
        <time>2023-12-27T13:08:29Z</time>
      </trkpt>
      <trkpt lat="49.94664" lon="2.31226">
        <ele>65.8</ele>
        <time>2023-12-27T13:08:30Z</time>
      </trkpt>
      <trkpt lat="49.94662" lon="2.31226">
        <ele>65.8</ele>
        <time>2023-12-27T13:08:31Z</time>
      </trkpt>
      <trkpt lat="49.94661" lon="2.31227">
        <ele>65.8</ele>
        <time>2023-12-27T13:08:32Z</time>
      </trkpt>
      <trkpt lat="49.9466" lon="2.31227">
        <ele>65.7</ele>
        <time>2023-12-27T13:08:34Z</time>
      </trkpt>
      <trkpt lat="49.94658" lon="2.31228">
        <ele>65.7</ele>
        <time>2023-12-27T13:08:35Z</time>
      </trkpt>
      <trkpt lat="49.94657" lon="2.31228">
        <ele>65.7</ele>
        <time>2023-12-27T13:08:36Z</time>
      </trkpt>
      <trkpt lat="49.94655" lon="2.31228">
        <ele>65.6</ele>
        <time>2023-12-27T13:08:37Z</time>
      </trkpt>
      <trkpt lat="49.94654" lon="2.31229">
        <ele>65.6</ele>
        <time>2023-12-27T13:08:38Z</time>
      </trkpt>
      <trkpt lat="49.94653" lon="2.31229">
        <ele>65.6</ele>
        <time>2023-12-27T13:08:39Z</time>
      </trkpt>
      <trkpt lat="49.94651" lon="2.3123">
        <ele>65.5</ele>
        <time>2023-12-27T13:08:40Z</time>
      </trkpt>
      <trkpt lat="49.9465" lon="2.3123">
        <ele>65.5</ele>
        <time>2023-12-27T13:08:41Z</time>
      </trkpt>
      <trkpt lat="49.94649" lon="2.3123">
        <ele>65.5</ele>
        <time>2023-12-27T13:08:42Z</time>
      </trkpt>
      <trkpt lat="49.94647" lon="2.31231">
        <ele>65.4</ele>
        <time>2023-12-27T13:08:43Z</time>
      </trkpt>
      <trkpt lat="49.94646" lon="2.31231">
        <ele>65.4</ele>
        <time>2023-12-27T13:08:45Z</time>
      </trkpt>
      <trkpt lat="49.94645" lon="2.31231">
        <ele>65.4</ele>
        <time>2023-12-27T13:08:46Z</time>
      </trkpt>
      <trkpt lat="49.94644" lon="2.31232">
        <ele>65.3</ele>
        <time>2023-12-27T13:08:47Z</time>
      </trkpt>
      <trkpt lat="49.94643" lon="2.31233">
        <ele>65.3</ele>
        <time>2023-12-27T13:08:48Z</time>
      </trkpt>
      <trkpt lat="49.94642" lon="2.31234">
        <ele>65.3</ele>
        <time>2023-12-27T13:08:49Z</time>
      </trkpt>
      <trkpt lat="49.9464" lon="2.31235">
        <ele>65.2</ele>
        <time>2023-12-27T13:08:50Z</time>
      </trkpt>
      <trkpt lat="49.94639" lon="2.31236">
        <ele>65.2</ele>
        <time>2023-12-27T13:08:51Z</time>
      </trkpt>
      <trkpt lat="49.94639" lon="2.31236">
        <ele>65.2</ele>
        <time>2023-12-27T13:08:52Z</time>
      </trkpt>
      <trkpt lat="49.94637" lon="2.31237">
        <ele>65.2</ele>
        <time>2023-12-27T13:08:53Z</time>
      </trkpt>
      <trkpt lat="49.94636" lon="2.31238">
        <ele>65.1</ele>
        <time>2023-12-27T13:08:54Z</time>
      </trkpt>
      <trkpt lat="49.94635" lon="2.31239">
        <ele>65.1</ele>
        <time>2023-12-27T13:08:56Z</time>
      </trkpt>
      <trkpt lat="49.94634" lon="2.31242">
        <ele>65.1</ele>
        <time>2023-12-27T13:08:57Z</time>
      </trkpt>
      <trkpt lat="49.94633" lon="2.31243">
        <ele>65.1</ele>
        <time>2023-12-27T13:08:58Z</time>
      </trkpt>
      <trkpt lat="49.94633" lon="2.31244">
        <ele>65.1</ele>
        <time>2023-12-27T13:08:59Z</time>
      </trkpt>
      <trkpt lat="49.94632" lon="2.31246">
        <ele>65</ele>
        <time>2023-12-27T13:09:00Z</time>
      </trkpt>
      <trkpt lat="49.94631" lon="2.31247">
        <ele>65</ele>
        <time>2023-12-27T13:09:01Z</time>
      </trkpt>
      <trkpt lat="49.9463" lon="2.31248">
        <ele>65</ele>
        <time>2023-12-27T13:09:02Z</time>
      </trkpt>
      <trkpt lat="49.9463" lon="2.3125">
        <ele>64.9</ele>
        <time>2023-12-27T13:09:03Z</time>
      </trkpt>
      <trkpt lat="49.94629" lon="2.31251">
        <ele>64.9</ele>
        <time>2023-12-27T13:09:04Z</time>
      </trkpt>
      <trkpt lat="49.94627" lon="2.31252">
        <ele>64.9</ele>
        <time>2023-12-27T13:09:06Z</time>
      </trkpt>
      <trkpt lat="49.94626" lon="2.31253">
        <ele>64.8</ele>
        <time>2023-12-27T13:09:07Z</time>
      </trkpt>
      <trkpt lat="49.94625" lon="2.31255">
        <ele>64.8</ele>
        <time>2023-12-27T13:09:08Z</time>
      </trkpt>
      <trkpt lat="49.94624" lon="2.31256">
        <ele>64.8</ele>
        <time>2023-12-27T13:09:09Z</time>
      </trkpt>
      <trkpt lat="49.94623" lon="2.31257">
        <ele>64.7</ele>
        <time>2023-12-27T13:09:10Z</time>
      </trkpt>
      <trkpt lat="49.94622" lon="2.31258">
        <ele>64.7</ele>
        <time>2023-12-27T13:09:11Z</time>
      </trkpt>
      <trkpt lat="49.9462" lon="2.31259">
        <ele>64.7</ele>
        <time>2023-12-27T13:09:12Z</time>
      </trkpt>
      <trkpt lat="49.94619" lon="2.3126">
        <ele>64.6</ele>
        <time>2023-12-27T13:09:13Z</time>
      </trkpt>
      <trkpt lat="49.94618" lon="2.31261">
        <ele>64.6</ele>
        <time>2023-12-27T13:09:14Z</time>
      </trkpt>
      <trkpt lat="49.94616" lon="2.31262">
        <ele>64.6</ele>
        <time>2023-12-27T13:09:16Z</time>
      </trkpt>
      <trkpt lat="49.94615" lon="2.31263">
        <ele>64.5</ele>
        <time>2023-12-27T13:09:17Z</time>
      </trkpt>
      <trkpt lat="49.94614" lon="2.31264">
        <ele>64.5</ele>
        <time>2023-12-27T13:09:18Z</time>
      </trkpt>
      <trkpt lat="49.94612" lon="2.31265">
        <ele>64.5</ele>
        <time>2023-12-27T13:09:19Z</time>
      </trkpt>
      <trkpt lat="49.94611" lon="2.31265">
        <ele>64.5</ele>
        <time>2023-12-27T13:09:20Z</time>
      </trkpt>
      <trkpt lat="49.9461" lon="2.31266">
        <ele>64.4</ele>
        <time>2023-12-27T13:09:21Z</time>
      </trkpt>
      <trkpt lat="49.94609" lon="2.31267">
        <ele>64.4</ele>
        <time>2023-12-27T13:09:22Z</time>
      </trkpt>
      <trkpt lat="49.94608" lon="2.31268">
        <ele>64.4</ele>
        <time>2023-12-27T13:09:23Z</time>
      </trkpt>
      <trkpt lat="49.94607" lon="2.31269">
        <ele>64.4</ele>
        <time>2023-12-27T13:09:24Z</time>
      </trkpt>
      <trkpt lat="49.94606" lon="2.3127">
        <ele>64.3</ele>
        <time>2023-12-27T13:09:25Z</time>
      </trkpt>
      <trkpt lat="49.94604" lon="2.31271">
        <ele>64.3</ele>
        <time>2023-12-27T13:09:26Z</time>
      </trkpt>
      <trkpt lat="49.94603" lon="2.31271">
        <ele>64.3</ele>
        <time>2023-12-27T13:09:28Z</time>
      </trkpt>
      <trkpt lat="49.94602" lon="2.31272">
        <ele>64.3</ele>
        <time>2023-12-27T13:09:29Z</time>
      </trkpt>
      <trkpt lat="49.94601" lon="2.31273">
        <ele>64.2</ele>
        <time>2023-12-27T13:09:30Z</time>
      </trkpt>
      <trkpt lat="49.946" lon="2.31274">
        <ele>64.2</ele>
        <time>2023-12-27T13:09:31Z</time>
      </trkpt>
      <trkpt lat="49.94599" lon="2.31274">
        <ele>64.2</ele>
        <time>2023-12-27T13:09:32Z</time>
      </trkpt>
      <trkpt lat="49.94598" lon="2.31276">
        <ele>64.2</ele>
        <time>2023-12-27T13:09:33Z</time>
      </trkpt>
      <trkpt lat="49.94596" lon="2.31279">
        <ele>64.1</ele>
        <time>2023-12-27T13:09:34Z</time>
      </trkpt>
      <trkpt lat="49.94595" lon="2.3128">
        <ele>64.1</ele>
        <time>2023-12-27T13:09:36Z</time>
      </trkpt>
      <trkpt lat="49.94594" lon="2.31281">
        <ele>64.1</ele>
        <time>2023-12-27T13:09:37Z</time>
      </trkpt>
      <trkpt lat="49.94594" lon="2.31282">
        <ele>64.1</ele>
        <time>2023-12-27T13:09:38Z</time>
      </trkpt>
      <trkpt lat="49.94593" lon="2.31283">
        <ele>64</ele>
        <time>2023-12-27T13:09:39Z</time>
      </trkpt>
      <trkpt lat="49.94592" lon="2.31284">
        <ele>64</ele>
        <time>2023-12-27T13:09:40Z</time>
      </trkpt>
      <trkpt lat="49.9459" lon="2.31285">
        <ele>64</ele>
        <time>2023-12-27T13:09:41Z</time>
      </trkpt>
      <trkpt lat="49.94589" lon="2.31287">
        <ele>63.9</ele>
        <time>2023-12-27T13:09:43Z</time>
      </trkpt>
      <trkpt lat="49.94587" lon="2.31288">
        <ele>63.9</ele>
        <time>2023-12-27T13:09:44Z</time>
      </trkpt>
      <trkpt lat="49.94586" lon="2.31289">
        <ele>63.9</ele>
        <time>2023-12-27T13:09:45Z</time>
      </trkpt>
      <trkpt lat="49.94585" lon="2.3129">
        <ele>63.9</ele>
        <time>2023-12-27T13:09:46Z</time>
      </trkpt>
      <trkpt lat="49.94584" lon="2.31291">
        <ele>63.8</ele>
        <time>2023-12-27T13:09:47Z</time>
      </trkpt>
      <trkpt lat="49.94582" lon="2.31293">
        <ele>63.8</ele>
        <time>2023-12-27T13:09:48Z</time>
      </trkpt>
      <trkpt lat="49.94581" lon="2.31294">
        <ele>63.8</ele>
        <time>2023-12-27T13:09:49Z</time>
      </trkpt>
      <trkpt lat="49.9458" lon="2.31295">
        <ele>63.7</ele>
        <time>2023-12-27T13:09:51Z</time>
      </trkpt>
      <trkpt lat="49.94578" lon="2.31296">
        <ele>63.7</ele>
        <time>2023-12-27T13:09:52Z</time>
      </trkpt>
      <trkpt lat="49.94577" lon="2.31298">
        <ele>63.6</ele>
        <time>2023-12-27T13:09:53Z</time>
      </trkpt>
      <trkpt lat="49.94576" lon="2.31299">
        <ele>63.6</ele>
        <time>2023-12-27T13:09:54Z</time>
      </trkpt>
      <trkpt lat="49.94575" lon="2.31301">
        <ele>63.6</ele>
        <time>2023-12-27T13:09:55Z</time>
      </trkpt>
      <trkpt lat="49.94575" lon="2.31303">
        <ele>63.5</ele>
        <time>2023-12-27T13:09:56Z</time>
      </trkpt>
      <trkpt lat="49.94574" lon="2.31305">
        <ele>63.5</ele>
        <time>2023-12-27T13:09:57Z</time>
      </trkpt>
      <trkpt lat="49.94573" lon="2.31307">
        <ele>63.4</ele>
        <time>2023-12-27T13:09:58Z</time>
      </trkpt>
      <trkpt lat="49.94572" lon="2.31309">
        <ele>63.4</ele>
        <time>2023-12-27T13:09:59Z</time>
      </trkpt>
      <trkpt lat="49.94572" lon="2.31312">
        <ele>63.3</ele>
        <time>2023-12-27T13:10:00Z</time>
      </trkpt>
      <trkpt lat="49.94572" lon="2.31313">
        <ele>63.3</ele>
        <time>2023-12-27T13:10:02Z</time>
      </trkpt>
      <trkpt lat="49.94571" lon="2.31315">
        <ele>63.3</ele>
        <time>2023-12-27T13:10:03Z</time>
      </trkpt>
      <trkpt lat="49.94571" lon="2.31316">
        <ele>63.3</ele>
        <time>2023-12-27T13:10:04Z</time>
      </trkpt>
      <trkpt lat="49.9457" lon="2.31318">
        <ele>63.2</ele>
        <time>2023-12-27T13:10:05Z</time>
      </trkpt>
      <trkpt lat="49.9457" lon="2.3132">
        <ele>63.2</ele>
        <time>2023-12-27T13:10:06Z</time>
      </trkpt>
      <trkpt lat="49.9457" lon="2.31323">
        <ele>63.1</ele>
        <time>2023-12-27T13:10:07Z</time>
      </trkpt>
      <trkpt lat="49.9457" lon="2.31324">
        <ele>63</ele>
        <time>2023-12-27T13:10:08Z</time>
      </trkpt>
      <trkpt lat="49.94571" lon="2.31325">
        <ele>63</ele>
        <time>2023-12-27T13:10:09Z</time>
      </trkpt>
      <trkpt lat="49.94571" lon="2.31328">
        <ele>62.9</ele>
        <time>2023-12-27T13:10:11Z</time>
      </trkpt>
      <trkpt lat="49.94571" lon="2.3133">
        <ele>62.8</ele>
        <time>2023-12-27T13:10:12Z</time>
      </trkpt>
      <trkpt lat="49.94571" lon="2.31332">
        <ele>62.7</ele>
        <time>2023-12-27T13:10:13Z</time>
      </trkpt>
      <trkpt lat="49.94571" lon="2.31334">
        <ele>62.6</ele>
        <time>2023-12-27T13:10:14Z</time>
      </trkpt>
      <trkpt lat="49.94571" lon="2.31336">
        <ele>62.5</ele>
        <time>2023-12-27T13:10:15Z</time>
      </trkpt>
      <trkpt lat="49.9457" lon="2.31339">
        <ele>62.4</ele>
        <time>2023-12-27T13:10:16Z</time>
      </trkpt>
      <trkpt lat="49.9457" lon="2.3134">
        <ele>62.4</ele>
        <time>2023-12-27T13:10:17Z</time>
      </trkpt>
      <trkpt lat="49.9457" lon="2.31341">
        <ele>62.3</ele>
        <time>2023-12-27T13:10:18Z</time>
      </trkpt>
      <trkpt lat="49.9457" lon="2.31343">
        <ele>62.2</ele>
        <time>2023-12-27T13:10:19Z</time>
      </trkpt>
      <trkpt lat="49.9457" lon="2.31345">
        <ele>62.2</ele>
        <time>2023-12-27T13:10:21Z</time>
      </trkpt>
      <trkpt lat="49.9457" lon="2.31346">
        <ele>62.1</ele>
        <time>2023-12-27T13:10:22Z</time>
      </trkpt>
      <trkpt lat="49.9457" lon="2.31348">
        <ele>62.1</ele>
        <time>2023-12-27T13:10:23Z</time>
      </trkpt>
      <trkpt lat="49.9457" lon="2.31349">
        <ele>62</ele>
        <time>2023-12-27T13:10:24Z</time>
      </trkpt>
      <trkpt lat="49.9457" lon="2.3135">
        <ele>62</ele>
        <time>2023-12-27T13:10:25Z</time>
      </trkpt>
      <trkpt lat="49.9457" lon="2.31351">
        <ele>61.9</ele>
        <time>2023-12-27T13:10:26Z</time>
      </trkpt>
      <trkpt lat="49.94569" lon="2.31353">
        <ele>61.9</ele>
        <time>2023-12-27T13:10:27Z</time>
      </trkpt>
      <trkpt lat="49.94569" lon="2.31354">
        <ele>61.8</ele>
        <time>2023-12-27T13:10:28Z</time>
      </trkpt>
      <trkpt lat="49.94568" lon="2.31356">
        <ele>61.7</ele>
        <time>2023-12-27T13:10:29Z</time>
      </trkpt>
      <trkpt lat="49.94567" lon="2.31359">
        <ele>61.6</ele>
        <time>2023-12-27T13:10:30Z</time>
      </trkpt>
      <trkpt lat="49.94567" lon="2.3136">
        <ele>61.6</ele>
        <time>2023-12-27T13:10:31Z</time>
      </trkpt>
      <trkpt lat="49.94566" lon="2.31361">
        <ele>61.5</ele>
        <time>2023-12-27T13:10:32Z</time>
      </trkpt>
      <trkpt lat="49.94566" lon="2.31363">
        <ele>61.4</ele>
        <time>2023-12-27T13:10:34Z</time>
      </trkpt>
      <trkpt lat="49.94565" lon="2.31365">
        <ele>61.4</ele>
        <time>2023-12-27T13:10:35Z</time>
      </trkpt>
      <trkpt lat="49.94564" lon="2.31367">
        <ele>61.3</ele>
        <time>2023-12-27T13:10:36Z</time>
      </trkpt>
      <trkpt lat="49.94563" lon="2.31369">
        <ele>61.2</ele>
        <time>2023-12-27T13:10:37Z</time>
      </trkpt>
      <trkpt lat="49.94562" lon="2.31371">
        <ele>61.1</ele>
        <time>2023-12-27T13:10:38Z</time>
      </trkpt>
      <trkpt lat="49.94562" lon="2.31373">
        <ele>61.1</ele>
        <time>2023-12-27T13:10:39Z</time>
      </trkpt>
      <trkpt lat="49.94561" lon="2.31375">
        <ele>61</ele>
        <time>2023-12-27T13:10:40Z</time>
      </trkpt>
      <trkpt lat="49.9456" lon="2.31377">
        <ele>60.9</ele>
        <time>2023-12-27T13:10:42Z</time>
      </trkpt>
      <trkpt lat="49.9456" lon="2.31379">
        <ele>60.8</ele>
        <time>2023-12-27T13:10:43Z</time>
      </trkpt>
      <trkpt lat="49.94559" lon="2.31381">
        <ele>60.8</ele>
        <time>2023-12-27T13:10:44Z</time>
      </trkpt>
      <trkpt lat="49.94558" lon="2.31383">
        <ele>60.7</ele>
        <time>2023-12-27T13:10:45Z</time>
      </trkpt>
      <trkpt lat="49.94558" lon="2.31385">
        <ele>60.6</ele>
        <time>2023-12-27T13:10:46Z</time>
      </trkpt>
      <trkpt lat="49.94557" lon="2.31387">
        <ele>60.5</ele>
        <time>2023-12-27T13:10:48Z</time>
      </trkpt>
      <trkpt lat="49.94557" lon="2.31389">
        <ele>60.4</ele>
        <time>2023-12-27T13:10:49Z</time>
      </trkpt>
      <trkpt lat="49.94556" lon="2.31391">
        <ele>60.4</ele>
        <time>2023-12-27T13:10:50Z</time>
      </trkpt>
      <trkpt lat="49.94555" lon="2.31393">
        <ele>60.3</ele>
        <time>2023-12-27T13:10:51Z</time>
      </trkpt>
      <trkpt lat="49.94555" lon="2.31396">
        <ele>60.2</ele>
        <time>2023-12-27T13:10:52Z</time>
      </trkpt>
      <trkpt lat="49.94554" lon="2.31398">
        <ele>60.1</ele>
        <time>2023-12-27T13:10:53Z</time>
      </trkpt>
      <trkpt lat="49.94554" lon="2.314">
        <ele>60.1</ele>
        <time>2023-12-27T13:10:54Z</time>
      </trkpt>
      <trkpt lat="49.94554" lon="2.31401">
        <ele>60</ele>
        <time>2023-12-27T13:10:56Z</time>
      </trkpt>
      <trkpt lat="49.94554" lon="2.31403">
        <ele>59.9</ele>
        <time>2023-12-27T13:10:57Z</time>
      </trkpt>
      <trkpt lat="49.94554" lon="2.31404">
        <ele>59.9</ele>
        <time>2023-12-27T13:10:58Z</time>
      </trkpt>
      <trkpt lat="49.94554" lon="2.31405">
        <ele>59.8</ele>
        <time>2023-12-27T13:10:59Z</time>
      </trkpt>
      <trkpt lat="49.94553" lon="2.31407">
        <ele>59.8</ele>
        <time>2023-12-27T13:11:01Z</time>
      </trkpt>
      <trkpt lat="49.94554" lon="2.31408">
        <ele>59.7</ele>
        <time>2023-12-27T13:11:02Z</time>
      </trkpt>
      <trkpt lat="49.94554" lon="2.31409">
        <ele>59.7</ele>
        <time>2023-12-27T13:11:03Z</time>
      </trkpt>
      <trkpt lat="49.94553" lon="2.31411">
        <ele>59.6</ele>
        <time>2023-12-27T13:11:05Z</time>
      </trkpt>
      <trkpt lat="49.94553" lon="2.31413">
        <ele>59.5</ele>
        <time>2023-12-27T13:11:06Z</time>
      </trkpt>
      <trkpt lat="49.94553" lon="2.31414">
        <ele>59.5</ele>
        <time>2023-12-27T13:11:07Z</time>
      </trkpt>
      <trkpt lat="49.94553" lon="2.31415">
        <ele>59.4</ele>
        <time>2023-12-27T13:11:08Z</time>
      </trkpt>
      <trkpt lat="49.94552" lon="2.31418">
        <ele>59.3</ele>
        <time>2023-12-27T13:11:09Z</time>
      </trkpt>
      <trkpt lat="49.94552" lon="2.31419">
        <ele>59.3</ele>
        <time>2023-12-27T13:11:10Z</time>
      </trkpt>
      <trkpt lat="49.94552" lon="2.31421">
        <ele>59.2</ele>
        <time>2023-12-27T13:11:12Z</time>
      </trkpt>
      <trkpt lat="49.94552" lon="2.31422">
        <ele>59.1</ele>
        <time>2023-12-27T13:11:13Z</time>
      </trkpt>
      <trkpt lat="49.94552" lon="2.31423">
        <ele>59.1</ele>
        <time>2023-12-27T13:11:14Z</time>
      </trkpt>
      <trkpt lat="49.94551" lon="2.31424">
        <ele>59</ele>
        <time>2023-12-27T13:11:15Z</time>
      </trkpt>
      <trkpt lat="49.94551" lon="2.31425">
        <ele>59</ele>
        <time>2023-12-27T13:11:16Z</time>
      </trkpt>
      <trkpt lat="49.94551" lon="2.31425">
        <ele>59</ele>
        <time>2023-12-27T13:11:18Z</time>
      </trkpt>
      <trkpt lat="49.9455" lon="2.31425">
        <ele>59</ele>
        <time>2023-12-27T13:11:19Z</time>
      </trkpt>
      <trkpt lat="49.94551" lon="2.31424">
        <ele>58.9</ele>
        <time>2023-12-27T13:11:20Z</time>
      </trkpt>
      <trkpt lat="49.9455" lon="2.31424">
        <ele>58.9</ele>
        <time>2023-12-27T13:11:21Z</time>
      </trkpt>
      <trkpt lat="49.9455" lon="2.31424">
        <ele>58.9</ele>
        <time>2023-12-27T13:11:22Z</time>
      </trkpt>
      <trkpt lat="49.9455" lon="2.31424">
        <ele>58.9</ele>
        <time>2023-12-27T13:11:24Z</time>
      </trkpt>
      <trkpt lat="49.9455" lon="2.31425">
        <ele>58.9</ele>
        <time>2023-12-27T13:11:25Z</time>
      </trkpt>
      <trkpt lat="49.9455" lon="2.31425">
        <ele>58.9</ele>
        <time>2023-12-27T13:11:26Z</time>
      </trkpt>
      <trkpt lat="49.9455" lon="2.31426">
        <ele>58.8</ele>
        <time>2023-12-27T13:11:28Z</time>
      </trkpt>
      <trkpt lat="49.9455" lon="2.31427">
        <ele>58.8</ele>
        <time>2023-12-27T13:11:29Z</time>
      </trkpt>
      <trkpt lat="49.9455" lon="2.31427">
        <ele>58.8</ele>
        <time>2023-12-27T13:11:30Z</time>
      </trkpt>
      <trkpt lat="49.9455" lon="2.31427">
        <ele>58.8</ele>
        <time>2023-12-27T13:11:31Z</time>
      </trkpt>
      <trkpt lat="49.94549" lon="2.31428">
        <ele>58.7</ele>
        <time>2023-12-27T13:11:33Z</time>
      </trkpt>
      <trkpt lat="49.94549" lon="2.31429">
        <ele>58.7</ele>
        <time>2023-12-27T13:11:34Z</time>
      </trkpt>
      <trkpt lat="49.94548" lon="2.31429">
        <ele>58.6</ele>
        <time>2023-12-27T13:11:35Z</time>
      </trkpt>
      <trkpt lat="49.94548" lon="2.3143">
        <ele>58.6</ele>
        <time>2023-12-27T13:11:36Z</time>
      </trkpt>
      <trkpt lat="49.94547" lon="2.31431">
        <ele>58.5</ele>
        <time>2023-12-27T13:11:37Z</time>
      </trkpt>
      <trkpt lat="49.94546" lon="2.31432">
        <ele>58.4</ele>
        <time>2023-12-27T13:11:38Z</time>
      </trkpt>
      <trkpt lat="49.94545" lon="2.31433">
        <ele>58.4</ele>
        <time>2023-12-27T13:11:39Z</time>
      </trkpt>
      <trkpt lat="49.94543" lon="2.31433">
        <ele>58.3</ele>
        <time>2023-12-27T13:11:40Z</time>
      </trkpt>
      <trkpt lat="49.94542" lon="2.31435">
        <ele>58.2</ele>
        <time>2023-12-27T13:11:42Z</time>
      </trkpt>
      <trkpt lat="49.9454" lon="2.31436">
        <ele>58.1</ele>
        <time>2023-12-27T13:11:43Z</time>
      </trkpt>
      <trkpt lat="49.94539" lon="2.31437">
        <ele>58</ele>
        <time>2023-12-27T13:11:44Z</time>
      </trkpt>
      <trkpt lat="49.94536" lon="2.31439">
        <ele>57.8</ele>
        <time>2023-12-27T13:11:45Z</time>
      </trkpt>
      <trkpt lat="49.94536" lon="2.3144">
        <ele>57.8</ele>
        <time>2023-12-27T13:11:46Z</time>
      </trkpt>
      <trkpt lat="49.94534" lon="2.31441">
        <ele>57.7</ele>
        <time>2023-12-27T13:11:47Z</time>
      </trkpt>
      <trkpt lat="49.94533" lon="2.31443">
        <ele>57.6</ele>
        <time>2023-12-27T13:11:48Z</time>
      </trkpt>
      <trkpt lat="49.94531" lon="2.31445">
        <ele>57.5</ele>
        <time>2023-12-27T13:11:50Z</time>
      </trkpt>
      <trkpt lat="49.94531" lon="2.31447">
        <ele>57.4</ele>
        <time>2023-12-27T13:11:51Z</time>
      </trkpt>
      <trkpt lat="49.9453" lon="2.31449">
        <ele>57.3</ele>
        <time>2023-12-27T13:11:52Z</time>
      </trkpt>
      <trkpt lat="49.94529" lon="2.31451">
        <ele>57.3</ele>
        <time>2023-12-27T13:11:53Z</time>
      </trkpt>
      <trkpt lat="49.94528" lon="2.31453">
        <ele>57.2</ele>
        <time>2023-12-27T13:11:55Z</time>
      </trkpt>
      <trkpt lat="49.94527" lon="2.31454">
        <ele>57.1</ele>
        <time>2023-12-27T13:11:56Z</time>
      </trkpt>
      <trkpt lat="49.94526" lon="2.31456">
        <ele>57.1</ele>
        <time>2023-12-27T13:11:57Z</time>
      </trkpt>
      <trkpt lat="49.94525" lon="2.31457">
        <ele>57</ele>
        <time>2023-12-27T13:11:58Z</time>
      </trkpt>
      <trkpt lat="49.94524" lon="2.31458">
        <ele>57</ele>
        <time>2023-12-27T13:11:59Z</time>
      </trkpt>
      <trkpt lat="49.94523" lon="2.3146">
        <ele>57</ele>
        <time>2023-12-27T13:12:00Z</time>
      </trkpt>
      <trkpt lat="49.94521" lon="2.31461">
        <ele>56.9</ele>
        <time>2023-12-27T13:12:02Z</time>
      </trkpt>
      <trkpt lat="49.9452" lon="2.31462">
        <ele>56.9</ele>
        <time>2023-12-27T13:12:03Z</time>
      </trkpt>
      <trkpt lat="49.94519" lon="2.31462">
        <ele>56.9</ele>
        <time>2023-12-27T13:12:04Z</time>
      </trkpt>
      <trkpt lat="49.94517" lon="2.31464">
        <ele>56.9</ele>
        <time>2023-12-27T13:12:05Z</time>
      </trkpt>
      <trkpt lat="49.94517" lon="2.31464">
        <ele>56.9</ele>
        <time>2023-12-27T13:12:06Z</time>
      </trkpt>
      <trkpt lat="49.94516" lon="2.31464">
        <ele>56.9</ele>
        <time>2023-12-27T13:12:07Z</time>
      </trkpt>
      <trkpt lat="49.94515" lon="2.31465">
        <ele>56.9</ele>
        <time>2023-12-27T13:12:08Z</time>
      </trkpt>
      <trkpt lat="49.94514" lon="2.31466">
        <ele>56.9</ele>
        <time>2023-12-27T13:12:10Z</time>
      </trkpt>
      <trkpt lat="49.94513" lon="2.31467">
        <ele>56.9</ele>
        <time>2023-12-27T13:12:11Z</time>
      </trkpt>
      <trkpt lat="49.94511" lon="2.31469">
        <ele>56.8</ele>
        <time>2023-12-27T13:12:12Z</time>
      </trkpt>
      <trkpt lat="49.94511" lon="2.3147">
        <ele>56.8</ele>
        <time>2023-12-27T13:12:13Z</time>
      </trkpt>
      <trkpt lat="49.9451" lon="2.31471">
        <ele>56.8</ele>
        <time>2023-12-27T13:12:14Z</time>
      </trkpt>
      <trkpt lat="49.94509" lon="2.31472">
        <ele>56.8</ele>
        <time>2023-12-27T13:12:15Z</time>
      </trkpt>
      <trkpt lat="49.94508" lon="2.31473">
        <ele>56.8</ele>
        <time>2023-12-27T13:12:16Z</time>
      </trkpt>
      <trkpt lat="49.94507" lon="2.31474">
        <ele>56.9</ele>
        <time>2023-12-27T13:12:17Z</time>
      </trkpt>
      <trkpt lat="49.94506" lon="2.31475">
        <ele>56.9</ele>
        <time>2023-12-27T13:12:18Z</time>
      </trkpt>
      <trkpt lat="49.94506" lon="2.31476">
        <ele>56.9</ele>
        <time>2023-12-27T13:12:19Z</time>
      </trkpt>
      <trkpt lat="49.94505" lon="2.31478">
        <ele>56.9</ele>
        <time>2023-12-27T13:12:21Z</time>
      </trkpt>
      <trkpt lat="49.94504" lon="2.31479">
        <ele>56.9</ele>
        <time>2023-12-27T13:12:22Z</time>
      </trkpt>
      <trkpt lat="49.94503" lon="2.3148">
        <ele>56.9</ele>
        <time>2023-12-27T13:12:23Z</time>
      </trkpt>
      <trkpt lat="49.94502" lon="2.31481">
        <ele>56.9</ele>
        <time>2023-12-27T13:12:24Z</time>
      </trkpt>
      <trkpt lat="49.94501" lon="2.31482">
        <ele>56.9</ele>
        <time>2023-12-27T13:12:25Z</time>
      </trkpt>
      <trkpt lat="49.945" lon="2.31483">
        <ele>56.9</ele>
        <time>2023-12-27T13:12:26Z</time>
      </trkpt>
      <trkpt lat="49.945" lon="2.31484">
        <ele>56.9</ele>
        <time>2023-12-27T13:12:27Z</time>
      </trkpt>
      <trkpt lat="49.94499" lon="2.31485">
        <ele>56.9</ele>
        <time>2023-12-27T13:12:28Z</time>
      </trkpt>
      <trkpt lat="49.94498" lon="2.31486">
        <ele>56.9</ele>
        <time>2023-12-27T13:12:30Z</time>
      </trkpt>
      <trkpt lat="49.94497" lon="2.31487">
        <ele>56.9</ele>
        <time>2023-12-27T13:12:31Z</time>
      </trkpt>
      <trkpt lat="49.94496" lon="2.31487">
        <ele>56.9</ele>
        <time>2023-12-27T13:12:32Z</time>
      </trkpt>
      <trkpt lat="49.94495" lon="2.31488">
        <ele>56.9</ele>
        <time>2023-12-27T13:12:33Z</time>
      </trkpt>
      <trkpt lat="49.94494" lon="2.31489">
        <ele>56.9</ele>
        <time>2023-12-27T13:12:34Z</time>
      </trkpt>
      <trkpt lat="49.94492" lon="2.31491">
        <ele>57</ele>
        <time>2023-12-27T13:12:35Z</time>
      </trkpt>
      <trkpt lat="49.94491" lon="2.31491">
        <ele>57</ele>
        <time>2023-12-27T13:12:36Z</time>
      </trkpt>
      <trkpt lat="49.94491" lon="2.31492">
        <ele>57</ele>
        <time>2023-12-27T13:12:37Z</time>
      </trkpt>
      <trkpt lat="49.9449" lon="2.31493">
        <ele>57</ele>
        <time>2023-12-27T13:12:38Z</time>
      </trkpt>
      <trkpt lat="49.94488" lon="2.31494">
        <ele>57</ele>
        <time>2023-12-27T13:12:39Z</time>
      </trkpt>
      <trkpt lat="49.94487" lon="2.31495">
        <ele>57</ele>
        <time>2023-12-27T13:12:41Z</time>
      </trkpt>
      <trkpt lat="49.94486" lon="2.31496">
        <ele>57</ele>
        <time>2023-12-27T13:12:42Z</time>
      </trkpt>
      <trkpt lat="49.94485" lon="2.31498">
        <ele>57.1</ele>
        <time>2023-12-27T13:12:43Z</time>
      </trkpt>
      <trkpt lat="49.94484" lon="2.31499">
        <ele>57.1</ele>
        <time>2023-12-27T13:12:44Z</time>
      </trkpt>
      <trkpt lat="49.94483" lon="2.31501">
        <ele>57.1</ele>
        <time>2023-12-27T13:12:45Z</time>
      </trkpt>
      <trkpt lat="49.94481" lon="2.31502">
        <ele>57.2</ele>
        <time>2023-12-27T13:12:46Z</time>
      </trkpt>
      <trkpt lat="49.94481" lon="2.31503">
        <ele>57.2</ele>
        <time>2023-12-27T13:12:47Z</time>
      </trkpt>
      <trkpt lat="49.9448" lon="2.31504">
        <ele>57.2</ele>
        <time>2023-12-27T13:12:48Z</time>
      </trkpt>
      <trkpt lat="49.94478" lon="2.31506">
        <ele>57.3</ele>
        <time>2023-12-27T13:12:50Z</time>
      </trkpt>
      <trkpt lat="49.94478" lon="2.31507">
        <ele>57.3</ele>
        <time>2023-12-27T13:12:51Z</time>
      </trkpt>
      <trkpt lat="49.94477" lon="2.31508">
        <ele>57.3</ele>
        <time>2023-12-27T13:12:52Z</time>
      </trkpt>
      <trkpt lat="49.94476" lon="2.3151">
        <ele>57.4</ele>
        <time>2023-12-27T13:12:53Z</time>
      </trkpt>
      <trkpt lat="49.94475" lon="2.31511">
        <ele>57.4</ele>
        <time>2023-12-27T13:12:54Z</time>
      </trkpt>
      <trkpt lat="49.94474" lon="2.31512">
        <ele>57.5</ele>
        <time>2023-12-27T13:12:55Z</time>
      </trkpt>
      <trkpt lat="49.94473" lon="2.31513">
        <ele>57.5</ele>
        <time>2023-12-27T13:12:56Z</time>
      </trkpt>
      <trkpt lat="49.94472" lon="2.31514">
        <ele>57.6</ele>
        <time>2023-12-27T13:12:58Z</time>
      </trkpt>
      <trkpt lat="49.94471" lon="2.31514">
        <ele>57.6</ele>
        <time>2023-12-27T13:12:59Z</time>
      </trkpt>
      <trkpt lat="49.94469" lon="2.31516">
        <ele>57.7</ele>
        <time>2023-12-27T13:13:00Z</time>
      </trkpt>
      <trkpt lat="49.94468" lon="2.31517">
        <ele>57.7</ele>
        <time>2023-12-27T13:13:02Z</time>
      </trkpt>
      <trkpt lat="49.94467" lon="2.31518">
        <ele>57.8</ele>
        <time>2023-12-27T13:13:03Z</time>
      </trkpt>
      <trkpt lat="49.94467" lon="2.31519">
        <ele>57.8</ele>
        <time>2023-12-27T13:13:04Z</time>
      </trkpt>
      <trkpt lat="49.94466" lon="2.3152">
        <ele>57.9</ele>
        <time>2023-12-27T13:13:05Z</time>
      </trkpt>
      <trkpt lat="49.94465" lon="2.3152">
        <ele>57.9</ele>
        <time>2023-12-27T13:13:06Z</time>
      </trkpt>
      <trkpt lat="49.94463" lon="2.31521">
        <ele>58</ele>
        <time>2023-12-27T13:13:07Z</time>
      </trkpt>
      <trkpt lat="49.94462" lon="2.31521">
        <ele>58.1</ele>
        <time>2023-12-27T13:13:08Z</time>
      </trkpt>
      <trkpt lat="49.9446" lon="2.31521">
        <ele>58.2</ele>
        <time>2023-12-27T13:13:09Z</time>
      </trkpt>
      <trkpt lat="49.94459" lon="2.31521">
        <ele>58.2</ele>
        <time>2023-12-27T13:13:11Z</time>
      </trkpt>
      <trkpt lat="49.94458" lon="2.31521">
        <ele>58.2</ele>
        <time>2023-12-27T13:13:12Z</time>
      </trkpt>
      <trkpt lat="49.94456" lon="2.31521">
        <ele>58.3</ele>
        <time>2023-12-27T13:13:13Z</time>
      </trkpt>
      <trkpt lat="49.94455" lon="2.31521">
        <ele>58.4</ele>
        <time>2023-12-27T13:13:14Z</time>
      </trkpt>
      <trkpt lat="49.94454" lon="2.31522">
        <ele>58.4</ele>
        <time>2023-12-27T13:13:15Z</time>
      </trkpt>
      <trkpt lat="49.94452" lon="2.31522">
        <ele>58.5</ele>
        <time>2023-12-27T13:13:16Z</time>
      </trkpt>
      <trkpt lat="49.94452" lon="2.31523">
        <ele>58.6</ele>
        <time>2023-12-27T13:13:17Z</time>
      </trkpt>
      <trkpt lat="49.94451" lon="2.31523">
        <ele>58.6</ele>
        <time>2023-12-27T13:13:18Z</time>
      </trkpt>
      <trkpt lat="49.9445" lon="2.31524">
        <ele>58.7</ele>
        <time>2023-12-27T13:13:20Z</time>
      </trkpt>
      <trkpt lat="49.94449" lon="2.31525">
        <ele>58.7</ele>
        <time>2023-12-27T13:13:21Z</time>
      </trkpt>
      <trkpt lat="49.94448" lon="2.31526">
        <ele>58.8</ele>
        <time>2023-12-27T13:13:22Z</time>
      </trkpt>
      <trkpt lat="49.94447" lon="2.31527">
        <ele>58.9</ele>
        <time>2023-12-27T13:13:23Z</time>
      </trkpt>
      <trkpt lat="49.94446" lon="2.31528">
        <ele>58.9</ele>
        <time>2023-12-27T13:13:24Z</time>
      </trkpt>
      <trkpt lat="49.94446" lon="2.3153">
        <ele>59</ele>
        <time>2023-12-27T13:13:25Z</time>
      </trkpt>
      <trkpt lat="49.94444" lon="2.31532">
        <ele>59.2</ele>
        <time>2023-12-27T13:13:27Z</time>
      </trkpt>
      <trkpt lat="49.94444" lon="2.31533">
        <ele>59.2</ele>
        <time>2023-12-27T13:13:28Z</time>
      </trkpt>
      <trkpt lat="49.94443" lon="2.31534">
        <ele>59.3</ele>
        <time>2023-12-27T13:13:29Z</time>
      </trkpt>
      <trkpt lat="49.94441" lon="2.31536">
        <ele>59.4</ele>
        <time>2023-12-27T13:13:30Z</time>
      </trkpt>
      <trkpt lat="49.94441" lon="2.31536">
        <ele>59.5</ele>
        <time>2023-12-27T13:13:31Z</time>
      </trkpt>
      <trkpt lat="49.9444" lon="2.31537">
        <ele>59.5</ele>
        <time>2023-12-27T13:13:32Z</time>
      </trkpt>
      <trkpt lat="49.94438" lon="2.31538">
        <ele>59.7</ele>
        <time>2023-12-27T13:13:33Z</time>
      </trkpt>
      <trkpt lat="49.94437" lon="2.31539">
        <ele>59.8</ele>
        <time>2023-12-27T13:13:35Z</time>
      </trkpt>
      <trkpt lat="49.94436" lon="2.31539">
        <ele>59.8</ele>
        <time>2023-12-27T13:13:36Z</time>
      </trkpt>
      <trkpt lat="49.94435" lon="2.3154">
        <ele>59.9</ele>
        <time>2023-12-27T13:13:37Z</time>
      </trkpt>
      <trkpt lat="49.94434" lon="2.3154">
        <ele>60</ele>
        <time>2023-12-27T13:13:38Z</time>
      </trkpt>
      <trkpt lat="49.94432" lon="2.31541">
        <ele>60.1</ele>
        <time>2023-12-27T13:13:39Z</time>
      </trkpt>
      <trkpt lat="49.94431" lon="2.31542">
        <ele>60.2</ele>
        <time>2023-12-27T13:13:40Z</time>
      </trkpt>
      <trkpt lat="49.9443" lon="2.31543">
        <ele>60.3</ele>
        <time>2023-12-27T13:13:42Z</time>
      </trkpt>
      <trkpt lat="49.94429" lon="2.31543">
        <ele>60.4</ele>
        <time>2023-12-27T13:13:43Z</time>
      </trkpt>
      <trkpt lat="49.94428" lon="2.31544">
        <ele>60.5</ele>
        <time>2023-12-27T13:13:44Z</time>
      </trkpt>
      <trkpt lat="49.94427" lon="2.31545">
        <ele>60.5</ele>
        <time>2023-12-27T13:13:45Z</time>
      </trkpt>
      <trkpt lat="49.94425" lon="2.31546">
        <ele>60.7</ele>
        <time>2023-12-27T13:13:46Z</time>
      </trkpt>
      <trkpt lat="49.94424" lon="2.31547">
        <ele>60.8</ele>
        <time>2023-12-27T13:13:48Z</time>
      </trkpt>
      <trkpt lat="49.94423" lon="2.31547">
        <ele>60.8</ele>
        <time>2023-12-27T13:13:49Z</time>
      </trkpt>
      <trkpt lat="49.94422" lon="2.31548">
        <ele>60.9</ele>
        <time>2023-12-27T13:13:50Z</time>
      </trkpt>
      <trkpt lat="49.94421" lon="2.31548">
        <ele>61</ele>
        <time>2023-12-27T13:13:51Z</time>
      </trkpt>
      <trkpt lat="49.9442" lon="2.31549">
        <ele>61.1</ele>
        <time>2023-12-27T13:13:52Z</time>
      </trkpt>
      <trkpt lat="49.94419" lon="2.31549">
        <ele>61.2</ele>
        <time>2023-12-27T13:13:54Z</time>
      </trkpt>
      <trkpt lat="49.94418" lon="2.31549">
        <ele>61.3</ele>
        <time>2023-12-27T13:13:55Z</time>
      </trkpt>
      <trkpt lat="49.94417" lon="2.3155">
        <ele>61.3</ele>
        <time>2023-12-27T13:13:56Z</time>
      </trkpt>
      <trkpt lat="49.94416" lon="2.3155">
        <ele>61.4</ele>
        <time>2023-12-27T13:13:57Z</time>
      </trkpt>
      <trkpt lat="49.94414" lon="2.3155">
        <ele>61.5</ele>
        <time>2023-12-27T13:13:58Z</time>
      </trkpt>
      <trkpt lat="49.94413" lon="2.3155">
        <ele>61.6</ele>
        <time>2023-12-27T13:13:59Z</time>
      </trkpt>
      <trkpt lat="49.94411" lon="2.31551">
        <ele>61.8</ele>
        <time>2023-12-27T13:14:01Z</time>
      </trkpt>
      <trkpt lat="49.9441" lon="2.31551">
        <ele>61.8</ele>
        <time>2023-12-27T13:14:02Z</time>
      </trkpt>
      <trkpt lat="49.9441" lon="2.31552">
        <ele>61.9</ele>
        <time>2023-12-27T13:14:03Z</time>
      </trkpt>
      <trkpt lat="49.94408" lon="2.31553">
        <ele>62</ele>
        <time>2023-12-27T13:14:04Z</time>
      </trkpt>
      <trkpt lat="49.94407" lon="2.31554">
        <ele>62.1</ele>
        <time>2023-12-27T13:14:05Z</time>
      </trkpt>
      <trkpt lat="49.94406" lon="2.31555">
        <ele>62.2</ele>
        <time>2023-12-27T13:14:07Z</time>
      </trkpt>
      <trkpt lat="49.94404" lon="2.31556">
        <ele>62.3</ele>
        <time>2023-12-27T13:14:08Z</time>
      </trkpt>
      <trkpt lat="49.94403" lon="2.31557">
        <ele>62.4</ele>
        <time>2023-12-27T13:14:09Z</time>
      </trkpt>
      <trkpt lat="49.94403" lon="2.31558">
        <ele>62.4</ele>
        <time>2023-12-27T13:14:10Z</time>
      </trkpt>
      <trkpt lat="49.94401" lon="2.31559">
        <ele>62.5</ele>
        <time>2023-12-27T13:14:11Z</time>
      </trkpt>
      <trkpt lat="49.944" lon="2.3156">
        <ele>62.6</ele>
        <time>2023-12-27T13:14:13Z</time>
      </trkpt>
      <trkpt lat="49.94399" lon="2.31561">
        <ele>62.7</ele>
        <time>2023-12-27T13:14:14Z</time>
      </trkpt>
      <trkpt lat="49.94399" lon="2.31561">
        <ele>62.7</ele>
        <time>2023-12-27T13:14:15Z</time>
      </trkpt>
      <trkpt lat="49.94398" lon="2.31562">
        <ele>62.8</ele>
        <time>2023-12-27T13:14:16Z</time>
      </trkpt>
      <trkpt lat="49.94396" lon="2.31563">
        <ele>62.8</ele>
        <time>2023-12-27T13:14:17Z</time>
      </trkpt>
      <trkpt lat="49.94394" lon="2.31564">
        <ele>62.9</ele>
        <time>2023-12-27T13:14:18Z</time>
      </trkpt>
      <trkpt lat="49.94394" lon="2.31564">
        <ele>63</ele>
        <time>2023-12-27T13:14:20Z</time>
      </trkpt>
      <trkpt lat="49.94393" lon="2.31565">
        <ele>63</ele>
        <time>2023-12-27T13:14:21Z</time>
      </trkpt>
      <trkpt lat="49.94391" lon="2.31567">
        <ele>63.1</ele>
        <time>2023-12-27T13:14:22Z</time>
      </trkpt>
      <trkpt lat="49.9439" lon="2.31567">
        <ele>63.1</ele>
        <time>2023-12-27T13:14:23Z</time>
      </trkpt>
      <trkpt lat="49.9439" lon="2.31568">
        <ele>63.2</ele>
        <time>2023-12-27T13:14:24Z</time>
      </trkpt>
      <trkpt lat="49.94389" lon="2.31569">
        <ele>63.2</ele>
        <time>2023-12-27T13:14:25Z</time>
      </trkpt>
      <trkpt lat="49.94387" lon="2.31571">
        <ele>63.3</ele>
        <time>2023-12-27T13:14:27Z</time>
      </trkpt>
      <trkpt lat="49.94386" lon="2.31572">
        <ele>63.4</ele>
        <time>2023-12-27T13:14:28Z</time>
      </trkpt>
      <trkpt lat="49.94385" lon="2.31573">
        <ele>63.5</ele>
        <time>2023-12-27T13:14:29Z</time>
      </trkpt>
      <trkpt lat="49.94384" lon="2.31574">
        <ele>63.5</ele>
        <time>2023-12-27T13:14:30Z</time>
      </trkpt>
      <trkpt lat="49.94382" lon="2.31576">
        <ele>63.6</ele>
        <time>2023-12-27T13:14:31Z</time>
      </trkpt>
      <trkpt lat="49.94381" lon="2.31577">
        <ele>63.7</ele>
        <time>2023-12-27T13:14:32Z</time>
      </trkpt>
      <trkpt lat="49.9438" lon="2.31578">
        <ele>63.7</ele>
        <time>2023-12-27T13:14:33Z</time>
      </trkpt>
      <trkpt lat="49.94378" lon="2.3158">
        <ele>63.9</ele>
        <time>2023-12-27T13:14:35Z</time>
      </trkpt>
      <trkpt lat="49.94378" lon="2.31581">
        <ele>63.9</ele>
        <time>2023-12-27T13:14:36Z</time>
      </trkpt>
      <trkpt lat="49.94377" lon="2.31582">
        <ele>63.9</ele>
        <time>2023-12-27T13:14:37Z</time>
      </trkpt>
      <trkpt lat="49.94377" lon="2.31583">
        <ele>64</ele>
        <time>2023-12-27T13:14:38Z</time>
      </trkpt>
      <trkpt lat="49.94376" lon="2.31584">
        <ele>64.1</ele>
        <time>2023-12-27T13:14:39Z</time>
      </trkpt>
      <trkpt lat="49.94375" lon="2.31585">
        <ele>64.1</ele>
        <time>2023-12-27T13:14:41Z</time>
      </trkpt>
      <trkpt lat="49.94374" lon="2.31586">
        <ele>64.2</ele>
        <time>2023-12-27T13:14:42Z</time>
      </trkpt>
      <trkpt lat="49.94373" lon="2.31587">
        <ele>64.2</ele>
        <time>2023-12-27T13:14:43Z</time>
      </trkpt>
      <trkpt lat="49.94372" lon="2.31588">
        <ele>64.3</ele>
        <time>2023-12-27T13:14:44Z</time>
      </trkpt>
      <trkpt lat="49.9437" lon="2.3159">
        <ele>64.4</ele>
        <time>2023-12-27T13:14:45Z</time>
      </trkpt>
      <trkpt lat="49.94369" lon="2.31591">
        <ele>64.4</ele>
        <time>2023-12-27T13:14:46Z</time>
      </trkpt>
      <trkpt lat="49.94369" lon="2.31591">
        <ele>64.4</ele>
        <time>2023-12-27T13:14:47Z</time>
      </trkpt>
      <trkpt lat="49.94368" lon="2.31592">
        <ele>64.5</ele>
        <time>2023-12-27T13:14:49Z</time>
      </trkpt>
      <trkpt lat="49.94367" lon="2.31593">
        <ele>64.5</ele>
        <time>2023-12-27T13:14:50Z</time>
      </trkpt>
      <trkpt lat="49.94366" lon="2.31594">
        <ele>64.6</ele>
        <time>2023-12-27T13:14:51Z</time>
      </trkpt>
      <trkpt lat="49.94365" lon="2.31595">
        <ele>64.6</ele>
        <time>2023-12-27T13:14:52Z</time>
      </trkpt>
      <trkpt lat="49.94364" lon="2.31596">
        <ele>64.7</ele>
        <time>2023-12-27T13:14:53Z</time>
      </trkpt>
      <trkpt lat="49.94363" lon="2.31597">
        <ele>64.7</ele>
        <time>2023-12-27T13:14:54Z</time>
      </trkpt>
      <trkpt lat="49.94361" lon="2.31598">
        <ele>64.8</ele>
        <time>2023-12-27T13:14:56Z</time>
      </trkpt>
      <trkpt lat="49.94361" lon="2.31599">
        <ele>64.8</ele>
        <time>2023-12-27T13:14:57Z</time>
      </trkpt>
      <trkpt lat="49.9436" lon="2.31599">
        <ele>64.8</ele>
        <time>2023-12-27T13:14:58Z</time>
      </trkpt>
      <trkpt lat="49.94358" lon="2.31601">
        <ele>64.9</ele>
        <time>2023-12-27T13:14:59Z</time>
      </trkpt>
      <trkpt lat="49.94357" lon="2.31602">
        <ele>64.9</ele>
        <time>2023-12-27T13:15:00Z</time>
      </trkpt>
      <trkpt lat="49.94357" lon="2.31602">
        <ele>64.9</ele>
        <time>2023-12-27T13:15:01Z</time>
      </trkpt>
      <trkpt lat="49.94355" lon="2.31604">
        <ele>65</ele>
        <time>2023-12-27T13:15:02Z</time>
      </trkpt>
      <trkpt lat="49.94354" lon="2.31604">
        <ele>65</ele>
        <time>2023-12-27T13:15:04Z</time>
      </trkpt>
      <trkpt lat="49.94354" lon="2.31605">
        <ele>65</ele>
        <time>2023-12-27T13:15:05Z</time>
      </trkpt>
      <trkpt lat="49.94353" lon="2.31606">
        <ele>65</ele>
        <time>2023-12-27T13:15:06Z</time>
      </trkpt>
      <trkpt lat="49.94352" lon="2.31607">
        <ele>65.1</ele>
        <time>2023-12-27T13:15:07Z</time>
      </trkpt>
      <trkpt lat="49.94351" lon="2.31608">
        <ele>65.1</ele>
        <time>2023-12-27T13:15:08Z</time>
      </trkpt>
      <trkpt lat="49.94349" lon="2.31609">
        <ele>65.1</ele>
        <time>2023-12-27T13:15:09Z</time>
      </trkpt>
      <trkpt lat="49.94348" lon="2.3161">
        <ele>65.1</ele>
        <time>2023-12-27T13:15:11Z</time>
      </trkpt>
      <trkpt lat="49.94347" lon="2.31611">
        <ele>65.2</ele>
        <time>2023-12-27T13:15:12Z</time>
      </trkpt>
      <trkpt lat="49.94346" lon="2.31611">
        <ele>65.2</ele>
        <time>2023-12-27T13:15:13Z</time>
      </trkpt>
      <trkpt lat="49.94345" lon="2.31612">
        <ele>65.2</ele>
        <time>2023-12-27T13:15:14Z</time>
      </trkpt>
      <trkpt lat="49.94344" lon="2.31613">
        <ele>65.2</ele>
        <time>2023-12-27T13:15:15Z</time>
      </trkpt>
      <trkpt lat="49.94343" lon="2.31615">
        <ele>65.2</ele>
        <time>2023-12-27T13:15:16Z</time>
      </trkpt>
      <trkpt lat="49.94342" lon="2.31616">
        <ele>65.2</ele>
        <time>2023-12-27T13:15:17Z</time>
      </trkpt>
      <trkpt lat="49.94341" lon="2.31617">
        <ele>65.2</ele>
        <time>2023-12-27T13:15:19Z</time>
      </trkpt>
      <trkpt lat="49.9434" lon="2.31618">
        <ele>65.2</ele>
        <time>2023-12-27T13:15:20Z</time>
      </trkpt>
      <trkpt lat="49.94339" lon="2.3162">
        <ele>65.3</ele>
        <time>2023-12-27T13:15:21Z</time>
      </trkpt>
      <trkpt lat="49.94338" lon="2.31622">
        <ele>65.3</ele>
        <time>2023-12-27T13:15:22Z</time>
      </trkpt>
      <trkpt lat="49.94337" lon="2.31623">
        <ele>65.3</ele>
        <time>2023-12-27T13:15:23Z</time>
      </trkpt>
      <trkpt lat="49.94337" lon="2.31624">
        <ele>65.3</ele>
        <time>2023-12-27T13:15:24Z</time>
      </trkpt>
      <trkpt lat="49.94336" lon="2.31625">
        <ele>65.3</ele>
        <time>2023-12-27T13:15:25Z</time>
      </trkpt>
      <trkpt lat="49.94335" lon="2.31627">
        <ele>65.3</ele>
        <time>2023-12-27T13:15:26Z</time>
      </trkpt>
      <trkpt lat="49.94333" lon="2.31628">
        <ele>65.2</ele>
        <time>2023-12-27T13:15:28Z</time>
      </trkpt>
      <trkpt lat="49.94332" lon="2.3163">
        <ele>65.2</ele>
        <time>2023-12-27T13:15:29Z</time>
      </trkpt>
      <trkpt lat="49.94331" lon="2.31631">
        <ele>65.2</ele>
        <time>2023-12-27T13:15:30Z</time>
      </trkpt>
      <trkpt lat="49.94331" lon="2.31632">
        <ele>65.2</ele>
        <time>2023-12-27T13:15:31Z</time>
      </trkpt>
      <trkpt lat="49.94329" lon="2.31634">
        <ele>65.2</ele>
        <time>2023-12-27T13:15:32Z</time>
      </trkpt>
      <trkpt lat="49.94328" lon="2.31635">
        <ele>65.2</ele>
        <time>2023-12-27T13:15:33Z</time>
      </trkpt>
      <trkpt lat="49.94328" lon="2.31636">
        <ele>65.2</ele>
        <time>2023-12-27T13:15:34Z</time>
      </trkpt>
      <trkpt lat="49.94327" lon="2.31638">
        <ele>65.2</ele>
        <time>2023-12-27T13:15:35Z</time>
      </trkpt>
      <trkpt lat="49.94326" lon="2.31639">
        <ele>65.2</ele>
        <time>2023-12-27T13:15:37Z</time>
      </trkpt>
      <trkpt lat="49.94325" lon="2.3164">
        <ele>65.2</ele>
        <time>2023-12-27T13:15:38Z</time>
      </trkpt>
      <trkpt lat="49.94323" lon="2.31643">
        <ele>65.1</ele>
        <time>2023-12-27T13:15:39Z</time>
      </trkpt>
      <trkpt lat="49.94323" lon="2.31644">
        <ele>65.1</ele>
        <time>2023-12-27T13:15:41Z</time>
      </trkpt>
      <trkpt lat="49.94322" lon="2.31645">
        <ele>65.1</ele>
        <time>2023-12-27T13:15:42Z</time>
      </trkpt>
      <trkpt lat="49.94321" lon="2.31646">
        <ele>65.1</ele>
        <time>2023-12-27T13:15:43Z</time>
      </trkpt>
      <trkpt lat="49.9432" lon="2.31648">
        <ele>65.1</ele>
        <time>2023-12-27T13:15:44Z</time>
      </trkpt>
      <trkpt lat="49.94319" lon="2.3165">
        <ele>65</ele>
        <time>2023-12-27T13:15:45Z</time>
      </trkpt>
      <trkpt lat="49.94318" lon="2.31652">
        <ele>65</ele>
        <time>2023-12-27T13:15:47Z</time>
      </trkpt>
      <trkpt lat="49.94317" lon="2.31653">
        <ele>65</ele>
        <time>2023-12-27T13:15:48Z</time>
      </trkpt>
      <trkpt lat="49.94317" lon="2.31654">
        <ele>65</ele>
        <time>2023-12-27T13:15:49Z</time>
      </trkpt>
      <trkpt lat="49.94316" lon="2.31655">
        <ele>65</ele>
        <time>2023-12-27T13:15:50Z</time>
      </trkpt>
      <trkpt lat="49.94315" lon="2.31657">
        <ele>64.9</ele>
        <time>2023-12-27T13:15:51Z</time>
      </trkpt>
      <trkpt lat="49.94314" lon="2.31658">
        <ele>64.9</ele>
        <time>2023-12-27T13:15:52Z</time>
      </trkpt>
      <trkpt lat="49.94313" lon="2.3166">
        <ele>64.9</ele>
        <time>2023-12-27T13:15:53Z</time>
      </trkpt>
      <trkpt lat="49.94312" lon="2.31661">
        <ele>64.8</ele>
        <time>2023-12-27T13:15:54Z</time>
      </trkpt>
      <trkpt lat="49.94311" lon="2.31663">
        <ele>64.8</ele>
        <time>2023-12-27T13:15:56Z</time>
      </trkpt>
      <trkpt lat="49.9431" lon="2.31665">
        <ele>64.8</ele>
        <time>2023-12-27T13:15:57Z</time>
      </trkpt>
      <trkpt lat="49.94308" lon="2.31666">
        <ele>64.7</ele>
        <time>2023-12-27T13:15:58Z</time>
      </trkpt>
      <trkpt lat="49.94307" lon="2.31667">
        <ele>64.7</ele>
        <time>2023-12-27T13:15:59Z</time>
      </trkpt>
      <trkpt lat="49.94307" lon="2.31668">
        <ele>64.7</ele>
        <time>2023-12-27T13:16:00Z</time>
      </trkpt>
      <trkpt lat="49.94306" lon="2.3167">
        <ele>64.7</ele>
        <time>2023-12-27T13:16:01Z</time>
      </trkpt>
      <trkpt lat="49.94304" lon="2.31672">
        <ele>64.6</ele>
        <time>2023-12-27T13:16:03Z</time>
      </trkpt>
      <trkpt lat="49.94303" lon="2.31673">
        <ele>64.6</ele>
        <time>2023-12-27T13:16:04Z</time>
      </trkpt>
      <trkpt lat="49.94303" lon="2.31675">
        <ele>64.6</ele>
        <time>2023-12-27T13:16:05Z</time>
      </trkpt>
      <trkpt lat="49.94302" lon="2.31678">
        <ele>64.5</ele>
        <time>2023-12-27T13:16:07Z</time>
      </trkpt>
      <trkpt lat="49.94301" lon="2.31679">
        <ele>64.5</ele>
        <time>2023-12-27T13:16:08Z</time>
      </trkpt>
      <trkpt lat="49.94301" lon="2.3168">
        <ele>64.5</ele>
        <time>2023-12-27T13:16:09Z</time>
      </trkpt>
      <trkpt lat="49.943" lon="2.31682">
        <ele>64.5</ele>
        <time>2023-12-27T13:16:10Z</time>
      </trkpt>
      <trkpt lat="49.94301" lon="2.31683">
        <ele>64.5</ele>
        <time>2023-12-27T13:16:11Z</time>
      </trkpt>
      <trkpt lat="49.94301" lon="2.31684">
        <ele>64.5</ele>
        <time>2023-12-27T13:16:13Z</time>
      </trkpt>
      <trkpt lat="49.94302" lon="2.31685">
        <ele>64.5</ele>
        <time>2023-12-27T13:16:14Z</time>
      </trkpt>
      <trkpt lat="49.94303" lon="2.31686">
        <ele>64.5</ele>
        <time>2023-12-27T13:16:16Z</time>
      </trkpt>
      <trkpt lat="49.94303" lon="2.31686">
        <ele>64.5</ele>
        <time>2023-12-27T13:16:17Z</time>
      </trkpt>
      <trkpt lat="49.94303" lon="2.31686">
        <ele>64.5</ele>
        <time>2023-12-27T13:16:19Z</time>
      </trkpt>
      <trkpt lat="49.94303" lon="2.31686">
        <ele>64.5</ele>
        <time>2023-12-27T13:16:20Z</time>
      </trkpt>
      <trkpt lat="49.94303" lon="2.31685">
        <ele>64.5</ele>
        <time>2023-12-27T13:16:22Z</time>
      </trkpt>
      <trkpt lat="49.94303" lon="2.31685">
        <ele>64.5</ele>
        <time>2023-12-27T13:16:23Z</time>
      </trkpt>
      <trkpt lat="49.94303" lon="2.31685">
        <ele>64.5</ele>
        <time>2023-12-27T13:16:25Z</time>
      </trkpt>
      <trkpt lat="49.94303" lon="2.31685">
        <ele>64.5</ele>
        <time>2023-12-27T13:16:26Z</time>
      </trkpt>
      <trkpt lat="49.94303" lon="2.31684">
        <ele>64.5</ele>
        <time>2023-12-27T13:16:27Z</time>
      </trkpt>
      <trkpt lat="49.94303" lon="2.31684">
        <ele>64.5</ele>
        <time>2023-12-27T13:16:29Z</time>
      </trkpt>
      <trkpt lat="49.94303" lon="2.31684">
        <ele>64.5</ele>
        <time>2023-12-27T13:16:30Z</time>
      </trkpt>
      <trkpt lat="49.94302" lon="2.31683">
        <ele>64.5</ele>
        <time>2023-12-27T13:16:31Z</time>
      </trkpt>
      <trkpt lat="49.94302" lon="2.31682">
        <ele>64.5</ele>
        <time>2023-12-27T13:16:32Z</time>
      </trkpt>
      <trkpt lat="49.94302" lon="2.31682">
        <ele>64.5</ele>
        <time>2023-12-27T13:16:33Z</time>
      </trkpt>
      <trkpt lat="49.94302" lon="2.31682">
        <ele>64.5</ele>
        <time>2023-12-27T13:16:34Z</time>
      </trkpt>
      <trkpt lat="49.94302" lon="2.31681">
        <ele>64.5</ele>
        <time>2023-12-27T13:16:35Z</time>
      </trkpt>
      <trkpt lat="49.94302" lon="2.31681">
        <ele>64.5</ele>
        <time>2023-12-27T13:16:36Z</time>
      </trkpt>
      <trkpt lat="49.94302" lon="2.31681">
        <ele>64.5</ele>
        <time>2023-12-27T13:16:37Z</time>
      </trkpt>
      <trkpt lat="49.94304" lon="2.31681">
        <ele>64.5</ele>
        <time>2023-12-27T13:17:05Z</time>
      </trkpt>
      <trkpt lat="49.94305" lon="2.31682">
        <ele>64.5</ele>
        <time>2023-12-27T13:17:06Z</time>
      </trkpt>
      <trkpt lat="49.94307" lon="2.31683">
        <ele>64.5</ele>
        <time>2023-12-27T13:17:08Z</time>
      </trkpt>
      <trkpt lat="49.94309" lon="2.31684">
        <ele>64.5</ele>
        <time>2023-12-27T13:17:09Z</time>
      </trkpt>
      <trkpt lat="49.9431" lon="2.31685">
        <ele>64.5</ele>
        <time>2023-12-27T13:17:10Z</time>
      </trkpt>
      <trkpt lat="49.94312" lon="2.31688">
        <ele>64.5</ele>
        <time>2023-12-27T13:17:11Z</time>
      </trkpt>
      <trkpt lat="49.94312" lon="2.31689">
        <ele>64.5</ele>
        <time>2023-12-27T13:17:12Z</time>
      </trkpt>
      <trkpt lat="49.94313" lon="2.3169">
        <ele>64.5</ele>
        <time>2023-12-27T13:17:13Z</time>
      </trkpt>
      <trkpt lat="49.94314" lon="2.31692">
        <ele>64.5</ele>
        <time>2023-12-27T13:17:15Z</time>
      </trkpt>
      <trkpt lat="49.94315" lon="2.31694">
        <ele>64.5</ele>
        <time>2023-12-27T13:17:16Z</time>
      </trkpt>
      <trkpt lat="49.94315" lon="2.31695">
        <ele>64.5</ele>
        <time>2023-12-27T13:17:17Z</time>
      </trkpt>
      <trkpt lat="49.94316" lon="2.31696">
        <ele>64.5</ele>
        <time>2023-12-27T13:17:18Z</time>
      </trkpt>
      <trkpt lat="49.94317" lon="2.31698">
        <ele>64.6</ele>
        <time>2023-12-27T13:17:19Z</time>
      </trkpt>
      <trkpt lat="49.94318" lon="2.31699">
        <ele>64.6</ele>
        <time>2023-12-27T13:17:20Z</time>
      </trkpt>
      <trkpt lat="49.94319" lon="2.31702">
        <ele>64.6</ele>
        <time>2023-12-27T13:17:21Z</time>
      </trkpt>
      <trkpt lat="49.9432" lon="2.31704">
        <ele>64.6</ele>
        <time>2023-12-27T13:17:22Z</time>
      </trkpt>
      <trkpt lat="49.94322" lon="2.31706">
        <ele>64.6</ele>
        <time>2023-12-27T13:17:24Z</time>
      </trkpt>
      <trkpt lat="49.94324" lon="2.31709">
        <ele>64.6</ele>
        <time>2023-12-27T13:17:25Z</time>
      </trkpt>
      <trkpt lat="49.94324" lon="2.3171">
        <ele>64.6</ele>
        <time>2023-12-27T13:17:26Z</time>
      </trkpt>
      <trkpt lat="49.94326" lon="2.31714">
        <ele>64.6</ele>
        <time>2023-12-27T13:17:27Z</time>
      </trkpt>
      <trkpt lat="49.94327" lon="2.31714">
        <ele>64.7</ele>
        <time>2023-12-27T13:17:28Z</time>
      </trkpt>
      <trkpt lat="49.94328" lon="2.31716">
        <ele>64.7</ele>
        <time>2023-12-27T13:17:29Z</time>
      </trkpt>
      <trkpt lat="49.94329" lon="2.31718">
        <ele>64.7</ele>
        <time>2023-12-27T13:17:30Z</time>
      </trkpt>
      <trkpt lat="49.9433" lon="2.3172">
        <ele>64.7</ele>
        <time>2023-12-27T13:17:32Z</time>
      </trkpt>
      <trkpt lat="49.94331" lon="2.31721">
        <ele>64.7</ele>
        <time>2023-12-27T13:17:33Z</time>
      </trkpt>
      <trkpt lat="49.94332" lon="2.31722">
        <ele>64.7</ele>
        <time>2023-12-27T13:17:34Z</time>
      </trkpt>
      <trkpt lat="49.94333" lon="2.31723">
        <ele>64.7</ele>
        <time>2023-12-27T13:17:35Z</time>
      </trkpt>
      <trkpt lat="49.94334" lon="2.31724">
        <ele>64.8</ele>
        <time>2023-12-27T13:17:36Z</time>
      </trkpt>
      <trkpt lat="49.94336" lon="2.31726">
        <ele>64.8</ele>
        <time>2023-12-27T13:17:37Z</time>
      </trkpt>
      <trkpt lat="49.94336" lon="2.31727">
        <ele>64.8</ele>
        <time>2023-12-27T13:17:38Z</time>
      </trkpt>
      <trkpt lat="49.94337" lon="2.31727">
        <ele>64.8</ele>
        <time>2023-12-27T13:17:39Z</time>
      </trkpt>
      <trkpt lat="49.94338" lon="2.31729">
        <ele>64.8</ele>
        <time>2023-12-27T13:17:40Z</time>
      </trkpt>
      <trkpt lat="49.94338" lon="2.31731">
        <ele>64.9</ele>
        <time>2023-12-27T13:17:41Z</time>
      </trkpt>
      <trkpt lat="49.94339" lon="2.31732">
        <ele>64.9</ele>
        <time>2023-12-27T13:17:43Z</time>
      </trkpt>
      <trkpt lat="49.9434" lon="2.31735">
        <ele>64.9</ele>
        <time>2023-12-27T13:17:44Z</time>
      </trkpt>
      <trkpt lat="49.9434" lon="2.31737">
        <ele>64.9</ele>
        <time>2023-12-27T13:17:45Z</time>
      </trkpt>
      <trkpt lat="49.94341" lon="2.31738">
        <ele>65</ele>
        <time>2023-12-27T13:17:46Z</time>
      </trkpt>
      <trkpt lat="49.94341" lon="2.3174">
        <ele>65</ele>
        <time>2023-12-27T13:17:47Z</time>
      </trkpt>
      <trkpt lat="49.94342" lon="2.31741">
        <ele>65</ele>
        <time>2023-12-27T13:17:48Z</time>
      </trkpt>
      <trkpt lat="49.94342" lon="2.31742">
        <ele>65</ele>
        <time>2023-12-27T13:17:49Z</time>
      </trkpt>
      <trkpt lat="49.94344" lon="2.31745">
        <ele>65.1</ele>
        <time>2023-12-27T13:17:51Z</time>
      </trkpt>
      <trkpt lat="49.94344" lon="2.31746">
        <ele>65.1</ele>
        <time>2023-12-27T13:17:52Z</time>
      </trkpt>
      <trkpt lat="49.94345" lon="2.31747">
        <ele>65.1</ele>
        <time>2023-12-27T13:17:53Z</time>
      </trkpt>
      <trkpt lat="49.94346" lon="2.3175">
        <ele>65.1</ele>
        <time>2023-12-27T13:17:54Z</time>
      </trkpt>
      <trkpt lat="49.94346" lon="2.31751">
        <ele>65.1</ele>
        <time>2023-12-27T13:17:55Z</time>
      </trkpt>
      <trkpt lat="49.94347" lon="2.31752">
        <ele>65.2</ele>
        <time>2023-12-27T13:17:56Z</time>
      </trkpt>
      <trkpt lat="49.94348" lon="2.31753">
        <ele>65.2</ele>
        <time>2023-12-27T13:17:57Z</time>
      </trkpt>
      <trkpt lat="49.94349" lon="2.31755">
        <ele>65.2</ele>
        <time>2023-12-27T13:17:58Z</time>
      </trkpt>
      <trkpt lat="49.9435" lon="2.31758">
        <ele>65.2</ele>
        <time>2023-12-27T13:18:00Z</time>
      </trkpt>
      <trkpt lat="49.94351" lon="2.31759">
        <ele>65.2</ele>
        <time>2023-12-27T13:18:01Z</time>
      </trkpt>
      <trkpt lat="49.94351" lon="2.3176">
        <ele>65.3</ele>
        <time>2023-12-27T13:18:02Z</time>
      </trkpt>
      <trkpt lat="49.94352" lon="2.31762">
        <ele>65.3</ele>
        <time>2023-12-27T13:18:03Z</time>
      </trkpt>
      <trkpt lat="49.94353" lon="2.31764">
        <ele>65.3</ele>
        <time>2023-12-27T13:18:05Z</time>
      </trkpt>
      <trkpt lat="49.94354" lon="2.31766">
        <ele>65.3</ele>
        <time>2023-12-27T13:18:06Z</time>
      </trkpt>
      <trkpt lat="49.94354" lon="2.31767">
        <ele>65.3</ele>
        <time>2023-12-27T13:18:07Z</time>
      </trkpt>
      <trkpt lat="49.94355" lon="2.31768">
        <ele>65.3</ele>
        <time>2023-12-27T13:18:08Z</time>
      </trkpt>
      <trkpt lat="49.94356" lon="2.3177">
        <ele>65.4</ele>
        <time>2023-12-27T13:18:09Z</time>
      </trkpt>
      <trkpt lat="49.94357" lon="2.31772">
        <ele>65.4</ele>
        <time>2023-12-27T13:18:10Z</time>
      </trkpt>
      <trkpt lat="49.94358" lon="2.31774">
        <ele>65.4</ele>
        <time>2023-12-27T13:18:11Z</time>
      </trkpt>
      <trkpt lat="49.94359" lon="2.31775">
        <ele>65.4</ele>
        <time>2023-12-27T13:18:12Z</time>
      </trkpt>
      <trkpt lat="49.94359" lon="2.31776">
        <ele>65.5</ele>
        <time>2023-12-27T13:18:13Z</time>
      </trkpt>
      <trkpt lat="49.94361" lon="2.31778">
        <ele>65.5</ele>
        <time>2023-12-27T13:18:14Z</time>
      </trkpt>
      <trkpt lat="49.94362" lon="2.31778">
        <ele>65.5</ele>
        <time>2023-12-27T13:18:15Z</time>
      </trkpt>
      <trkpt lat="49.94362" lon="2.31779">
        <ele>65.5</ele>
        <time>2023-12-27T13:18:16Z</time>
      </trkpt>
      <trkpt lat="49.94364" lon="2.31781">
        <ele>65.6</ele>
        <time>2023-12-27T13:18:18Z</time>
      </trkpt>
      <trkpt lat="49.94365" lon="2.31782">
        <ele>65.6</ele>
        <time>2023-12-27T13:18:19Z</time>
      </trkpt>
      <trkpt lat="49.94366" lon="2.31783">
        <ele>65.6</ele>
        <time>2023-12-27T13:18:20Z</time>
      </trkpt>
      <trkpt lat="49.94367" lon="2.31784">
        <ele>65.7</ele>
        <time>2023-12-27T13:18:21Z</time>
      </trkpt>
      <trkpt lat="49.94368" lon="2.31785">
        <ele>65.7</ele>
        <time>2023-12-27T13:18:22Z</time>
      </trkpt>
      <trkpt lat="49.94369" lon="2.31786">
        <ele>65.7</ele>
        <time>2023-12-27T13:18:23Z</time>
      </trkpt>
      <trkpt lat="49.94371" lon="2.31788">
        <ele>65.8</ele>
        <time>2023-12-27T13:18:25Z</time>
      </trkpt>
      <trkpt lat="49.94372" lon="2.31789">
        <ele>65.8</ele>
        <time>2023-12-27T13:18:26Z</time>
      </trkpt>
      <trkpt lat="49.94373" lon="2.3179">
        <ele>65.8</ele>
        <time>2023-12-27T13:18:27Z</time>
      </trkpt>
      <trkpt lat="49.94374" lon="2.31792">
        <ele>65.9</ele>
        <time>2023-12-27T13:18:28Z</time>
      </trkpt>
      <trkpt lat="49.94375" lon="2.31793">
        <ele>65.9</ele>
        <time>2023-12-27T13:18:29Z</time>
      </trkpt>
      <trkpt lat="49.94376" lon="2.31795">
        <ele>65.9</ele>
        <time>2023-12-27T13:18:30Z</time>
      </trkpt>
      <trkpt lat="49.94377" lon="2.31796">
        <ele>65.9</ele>
        <time>2023-12-27T13:18:31Z</time>
      </trkpt>
      <trkpt lat="49.94378" lon="2.31798">
        <ele>66</ele>
        <time>2023-12-27T13:18:32Z</time>
      </trkpt>
      <trkpt lat="49.94379" lon="2.31799">
        <ele>66</ele>
        <time>2023-12-27T13:18:33Z</time>
      </trkpt>
      <trkpt lat="49.9438" lon="2.31801">
        <ele>66</ele>
        <time>2023-12-27T13:18:34Z</time>
      </trkpt>
      <trkpt lat="49.94382" lon="2.31803">
        <ele>66</ele>
        <time>2023-12-27T13:18:36Z</time>
      </trkpt>
      <trkpt lat="49.94383" lon="2.31804">
        <ele>66.1</ele>
        <time>2023-12-27T13:18:37Z</time>
      </trkpt>
      <trkpt lat="49.94384" lon="2.31806">
        <ele>66.1</ele>
        <time>2023-12-27T13:18:38Z</time>
      </trkpt>
      <trkpt lat="49.94385" lon="2.31808">
        <ele>66.1</ele>
        <time>2023-12-27T13:18:39Z</time>
      </trkpt>
      <trkpt lat="49.94386" lon="2.3181">
        <ele>66.1</ele>
        <time>2023-12-27T13:18:40Z</time>
      </trkpt>
      <trkpt lat="49.94386" lon="2.31811">
        <ele>66.2</ele>
        <time>2023-12-27T13:18:41Z</time>
      </trkpt>
      <trkpt lat="49.94388" lon="2.31813">
        <ele>66.2</ele>
        <time>2023-12-27T13:18:43Z</time>
      </trkpt>
      <trkpt lat="49.94388" lon="2.31814">
        <ele>66.3</ele>
        <time>2023-12-27T13:18:44Z</time>
      </trkpt>
      <trkpt lat="49.94389" lon="2.31816">
        <ele>66.3</ele>
        <time>2023-12-27T13:18:45Z</time>
      </trkpt>
      <trkpt lat="49.94389" lon="2.31817">
        <ele>66.3</ele>
        <time>2023-12-27T13:18:46Z</time>
      </trkpt>
      <trkpt lat="49.9439" lon="2.31819">
        <ele>66.4</ele>
        <time>2023-12-27T13:18:47Z</time>
      </trkpt>
      <trkpt lat="49.94391" lon="2.31821">
        <ele>66.4</ele>
        <time>2023-12-27T13:18:48Z</time>
      </trkpt>
      <trkpt lat="49.94392" lon="2.31822">
        <ele>66.5</ele>
        <time>2023-12-27T13:18:49Z</time>
      </trkpt>
      <trkpt lat="49.94393" lon="2.31824">
        <ele>66.6</ele>
        <time>2023-12-27T13:18:51Z</time>
      </trkpt>
      <trkpt lat="49.94394" lon="2.31826">
        <ele>66.6</ele>
        <time>2023-12-27T13:18:52Z</time>
      </trkpt>
      <trkpt lat="49.94395" lon="2.31828">
        <ele>66.7</ele>
        <time>2023-12-27T13:18:53Z</time>
      </trkpt>
      <trkpt lat="49.94396" lon="2.31829">
        <ele>66.7</ele>
        <time>2023-12-27T13:18:54Z</time>
      </trkpt>
      <trkpt lat="49.94396" lon="2.3183">
        <ele>66.8</ele>
        <time>2023-12-27T13:18:55Z</time>
      </trkpt>
      <trkpt lat="49.94397" lon="2.31833">
        <ele>66.8</ele>
        <time>2023-12-27T13:18:56Z</time>
      </trkpt>
      <trkpt lat="49.94398" lon="2.31834">
        <ele>66.9</ele>
        <time>2023-12-27T13:18:57Z</time>
      </trkpt>
      <trkpt lat="49.94398" lon="2.31835">
        <ele>66.9</ele>
        <time>2023-12-27T13:18:58Z</time>
      </trkpt>
      <trkpt lat="49.94399" lon="2.31837">
        <ele>67</ele>
        <time>2023-12-27T13:18:59Z</time>
      </trkpt>
      <trkpt lat="49.944" lon="2.31839">
        <ele>67</ele>
        <time>2023-12-27T13:19:00Z</time>
      </trkpt>
      <trkpt lat="49.944" lon="2.31841">
        <ele>67.1</ele>
        <time>2023-12-27T13:19:02Z</time>
      </trkpt>
      <trkpt lat="49.94401" lon="2.31843">
        <ele>67.1</ele>
        <time>2023-12-27T13:19:03Z</time>
      </trkpt>
      <trkpt lat="49.94402" lon="2.31844">
        <ele>67.2</ele>
        <time>2023-12-27T13:19:04Z</time>
      </trkpt>
      <trkpt lat="49.94403" lon="2.31846">
        <ele>67.2</ele>
        <time>2023-12-27T13:19:05Z</time>
      </trkpt>
      <trkpt lat="49.94403" lon="2.31847">
        <ele>67.3</ele>
        <time>2023-12-27T13:19:06Z</time>
      </trkpt>
      <trkpt lat="49.94404" lon="2.31849">
        <ele>67.3</ele>
        <time>2023-12-27T13:19:07Z</time>
      </trkpt>
      <trkpt lat="49.94405" lon="2.3185">
        <ele>67.4</ele>
        <time>2023-12-27T13:19:08Z</time>
      </trkpt>
      <trkpt lat="49.94406" lon="2.31852">
        <ele>67.4</ele>
        <time>2023-12-27T13:19:10Z</time>
      </trkpt>
      <trkpt lat="49.94408" lon="2.31854">
        <ele>67.5</ele>
        <time>2023-12-27T13:19:11Z</time>
      </trkpt>
      <trkpt lat="49.94408" lon="2.31855">
        <ele>67.6</ele>
        <time>2023-12-27T13:19:12Z</time>
      </trkpt>
      <trkpt lat="49.94409" lon="2.31856">
        <ele>67.6</ele>
        <time>2023-12-27T13:19:13Z</time>
      </trkpt>
      <trkpt lat="49.9441" lon="2.31858">
        <ele>67.6</ele>
        <time>2023-12-27T13:19:14Z</time>
      </trkpt>
      <trkpt lat="49.94411" lon="2.31859">
        <ele>67.7</ele>
        <time>2023-12-27T13:19:15Z</time>
      </trkpt>
      <trkpt lat="49.94411" lon="2.31861">
        <ele>67.7</ele>
        <time>2023-12-27T13:19:17Z</time>
      </trkpt>
      <trkpt lat="49.94413" lon="2.31864">
        <ele>67.8</ele>
        <time>2023-12-27T13:19:18Z</time>
      </trkpt>
      <trkpt lat="49.94413" lon="2.31865">
        <ele>67.8</ele>
        <time>2023-12-27T13:19:19Z</time>
      </trkpt>
      <trkpt lat="49.94414" lon="2.31866">
        <ele>67.8</ele>
        <time>2023-12-27T13:19:20Z</time>
      </trkpt>
      <trkpt lat="49.94415" lon="2.31869">
        <ele>67.9</ele>
        <time>2023-12-27T13:19:21Z</time>
      </trkpt>
      <trkpt lat="49.94416" lon="2.3187">
        <ele>67.9</ele>
        <time>2023-12-27T13:19:22Z</time>
      </trkpt>
      <trkpt lat="49.94416" lon="2.3187">
        <ele>67.9</ele>
        <time>2023-12-27T13:19:23Z</time>
      </trkpt>
      <trkpt lat="49.94418" lon="2.31873">
        <ele>68</ele>
        <time>2023-12-27T13:19:24Z</time>
      </trkpt>
      <trkpt lat="49.94418" lon="2.31874">
        <ele>68</ele>
        <time>2023-12-27T13:19:26Z</time>
      </trkpt>
      <trkpt lat="49.94418" lon="2.31875">
        <ele>68</ele>
        <time>2023-12-27T13:19:27Z</time>
      </trkpt>
      <trkpt lat="49.9442" lon="2.31878">
        <ele>68</ele>
        <time>2023-12-27T13:19:28Z</time>
      </trkpt>
      <trkpt lat="49.9442" lon="2.31879">
        <ele>68.1</ele>
        <time>2023-12-27T13:19:29Z</time>
      </trkpt>
      <trkpt lat="49.94421" lon="2.3188">
        <ele>68.1</ele>
        <time>2023-12-27T13:19:30Z</time>
      </trkpt>
      <trkpt lat="49.94422" lon="2.31882">
        <ele>68.1</ele>
        <time>2023-12-27T13:19:32Z</time>
      </trkpt>
      <trkpt lat="49.94423" lon="2.31884">
        <ele>68.1</ele>
        <time>2023-12-27T13:19:33Z</time>
      </trkpt>
      <trkpt lat="49.94424" lon="2.31886">
        <ele>68.2</ele>
        <time>2023-12-27T13:19:34Z</time>
      </trkpt>
      <trkpt lat="49.94425" lon="2.31887">
        <ele>68.2</ele>
        <time>2023-12-27T13:19:35Z</time>
      </trkpt>
      <trkpt lat="49.94425" lon="2.31888">
        <ele>68.2</ele>
        <time>2023-12-27T13:19:36Z</time>
      </trkpt>
      <trkpt lat="49.94426" lon="2.3189">
        <ele>68.2</ele>
        <time>2023-12-27T13:19:37Z</time>
      </trkpt>
      <trkpt lat="49.94427" lon="2.31892">
        <ele>68.3</ele>
        <time>2023-12-27T13:19:38Z</time>
      </trkpt>
      <trkpt lat="49.94428" lon="2.31893">
        <ele>68.3</ele>
        <time>2023-12-27T13:19:39Z</time>
      </trkpt>
      <trkpt lat="49.94429" lon="2.31895">
        <ele>68.4</ele>
        <time>2023-12-27T13:19:41Z</time>
      </trkpt>
      <trkpt lat="49.9443" lon="2.31897">
        <ele>68.4</ele>
        <time>2023-12-27T13:19:42Z</time>
      </trkpt>
      <trkpt lat="49.94431" lon="2.31898">
        <ele>68.5</ele>
        <time>2023-12-27T13:19:43Z</time>
      </trkpt>
      <trkpt lat="49.94432" lon="2.31901">
        <ele>68.5</ele>
        <time>2023-12-27T13:19:44Z</time>
      </trkpt>
      <trkpt lat="49.94433" lon="2.31902">
        <ele>68.6</ele>
        <time>2023-12-27T13:19:45Z</time>
      </trkpt>
      <trkpt lat="49.94433" lon="2.31903">
        <ele>68.6</ele>
        <time>2023-12-27T13:19:46Z</time>
      </trkpt>
      <trkpt lat="49.94435" lon="2.31905">
        <ele>68.7</ele>
        <time>2023-12-27T13:19:47Z</time>
      </trkpt>
      <trkpt lat="49.94435" lon="2.31906">
        <ele>68.7</ele>
        <time>2023-12-27T13:19:48Z</time>
      </trkpt>
      <trkpt lat="49.94436" lon="2.31907">
        <ele>68.7</ele>
        <time>2023-12-27T13:19:49Z</time>
      </trkpt>
      <trkpt lat="49.94437" lon="2.31909">
        <ele>68.8</ele>
        <time>2023-12-27T13:19:51Z</time>
      </trkpt>
      <trkpt lat="49.94438" lon="2.3191">
        <ele>68.8</ele>
        <time>2023-12-27T13:19:52Z</time>
      </trkpt>
      <trkpt lat="49.94439" lon="2.31913">
        <ele>68.9</ele>
        <time>2023-12-27T13:19:53Z</time>
      </trkpt>
      <trkpt lat="49.9444" lon="2.31914">
        <ele>68.9</ele>
        <time>2023-12-27T13:19:54Z</time>
      </trkpt>
      <trkpt lat="49.9444" lon="2.31914">
        <ele>69</ele>
        <time>2023-12-27T13:19:55Z</time>
      </trkpt>
      <trkpt lat="49.94441" lon="2.31916">
        <ele>69</ele>
        <time>2023-12-27T13:19:56Z</time>
      </trkpt>
      <trkpt lat="49.94442" lon="2.31917">
        <ele>69.1</ele>
        <time>2023-12-27T13:19:57Z</time>
      </trkpt>
      <trkpt lat="49.94444" lon="2.3192">
        <ele>69.2</ele>
        <time>2023-12-27T13:19:58Z</time>
      </trkpt>
      <trkpt lat="49.94445" lon="2.3192">
        <ele>69.2</ele>
        <time>2023-12-27T13:20:00Z</time>
      </trkpt>
      <trkpt lat="49.94445" lon="2.31921">
        <ele>69.2</ele>
        <time>2023-12-27T13:20:01Z</time>
      </trkpt>
      <trkpt lat="49.94446" lon="2.31922">
        <ele>69.3</ele>
        <time>2023-12-27T13:20:02Z</time>
      </trkpt>
      <trkpt lat="49.94447" lon="2.31923">
        <ele>69.3</ele>
        <time>2023-12-27T13:20:03Z</time>
      </trkpt>
      <trkpt lat="49.94449" lon="2.31924">
        <ele>69.4</ele>
        <time>2023-12-27T13:20:04Z</time>
      </trkpt>
      <trkpt lat="49.9445" lon="2.31925">
        <ele>69.4</ele>
        <time>2023-12-27T13:20:05Z</time>
      </trkpt>
      <trkpt lat="49.94451" lon="2.31926">
        <ele>69.5</ele>
        <time>2023-12-27T13:20:06Z</time>
      </trkpt>
      <trkpt lat="49.94452" lon="2.31927">
        <ele>69.5</ele>
        <time>2023-12-27T13:20:07Z</time>
      </trkpt>
      <trkpt lat="49.94453" lon="2.31929">
        <ele>69.6</ele>
        <time>2023-12-27T13:20:08Z</time>
      </trkpt>
      <trkpt lat="49.94454" lon="2.3193">
        <ele>69.6</ele>
        <time>2023-12-27T13:20:10Z</time>
      </trkpt>
      <trkpt lat="49.94455" lon="2.31931">
        <ele>69.6</ele>
        <time>2023-12-27T13:20:11Z</time>
      </trkpt>
      <trkpt lat="49.94456" lon="2.31932">
        <ele>69.7</ele>
        <time>2023-12-27T13:20:12Z</time>
      </trkpt>
      <trkpt lat="49.94456" lon="2.31933">
        <ele>69.7</ele>
        <time>2023-12-27T13:20:13Z</time>
      </trkpt>
      <trkpt lat="49.94457" lon="2.31934">
        <ele>69.7</ele>
        <time>2023-12-27T13:20:14Z</time>
      </trkpt>
      <trkpt lat="49.94459" lon="2.31937">
        <ele>69.8</ele>
        <time>2023-12-27T13:20:15Z</time>
      </trkpt>
      <trkpt lat="49.94459" lon="2.31938">
        <ele>69.8</ele>
        <time>2023-12-27T13:20:16Z</time>
      </trkpt>
      <trkpt lat="49.9446" lon="2.31938">
        <ele>69.8</ele>
        <time>2023-12-27T13:20:17Z</time>
      </trkpt>
      <trkpt lat="49.94461" lon="2.3194">
        <ele>69.8</ele>
        <time>2023-12-27T13:20:18Z</time>
      </trkpt>
      <trkpt lat="49.94462" lon="2.31942">
        <ele>69.9</ele>
        <time>2023-12-27T13:20:20Z</time>
      </trkpt>
      <trkpt lat="49.94462" lon="2.31944">
        <ele>69.9</ele>
        <time>2023-12-27T13:20:21Z</time>
      </trkpt>
      <trkpt lat="49.94463" lon="2.31945">
        <ele>69.9</ele>
        <time>2023-12-27T13:20:22Z</time>
      </trkpt>
      <trkpt lat="49.94465" lon="2.31948">
        <ele>70</ele>
        <time>2023-12-27T13:20:23Z</time>
      </trkpt>
      <trkpt lat="49.94465" lon="2.31948">
        <ele>70</ele>
        <time>2023-12-27T13:20:24Z</time>
      </trkpt>
      <trkpt lat="49.94466" lon="2.31949">
        <ele>70</ele>
        <time>2023-12-27T13:20:25Z</time>
      </trkpt>
      <trkpt lat="49.94467" lon="2.31951">
        <ele>70.1</ele>
        <time>2023-12-27T13:20:26Z</time>
      </trkpt>
      <trkpt lat="49.94468" lon="2.31952">
        <ele>70.1</ele>
        <time>2023-12-27T13:20:27Z</time>
      </trkpt>
      <trkpt lat="49.94469" lon="2.31954">
        <ele>70.1</ele>
        <time>2023-12-27T13:20:29Z</time>
      </trkpt>
      <trkpt lat="49.9447" lon="2.31955">
        <ele>70.2</ele>
        <time>2023-12-27T13:20:30Z</time>
      </trkpt>
      <trkpt lat="49.94471" lon="2.31957">
        <ele>70.2</ele>
        <time>2023-12-27T13:20:31Z</time>
      </trkpt>
      <trkpt lat="49.94472" lon="2.31959">
        <ele>70.3</ele>
        <time>2023-12-27T13:20:32Z</time>
      </trkpt>
      <trkpt lat="49.94473" lon="2.31961">
        <ele>70.3</ele>
        <time>2023-12-27T13:20:33Z</time>
      </trkpt>
      <trkpt lat="49.94474" lon="2.31962">
        <ele>70.4</ele>
        <time>2023-12-27T13:20:35Z</time>
      </trkpt>
      <trkpt lat="49.94474" lon="2.31963">
        <ele>70.4</ele>
        <time>2023-12-27T13:20:36Z</time>
      </trkpt>
      <trkpt lat="49.94476" lon="2.31965">
        <ele>70.5</ele>
        <time>2023-12-27T13:20:37Z</time>
      </trkpt>
      <trkpt lat="49.94477" lon="2.31966">
        <ele>70.5</ele>
        <time>2023-12-27T13:20:38Z</time>
      </trkpt>
      <trkpt lat="49.94477" lon="2.31967">
        <ele>70.5</ele>
        <time>2023-12-27T13:20:39Z</time>
      </trkpt>
      <trkpt lat="49.94479" lon="2.3197">
        <ele>70.6</ele>
        <time>2023-12-27T13:20:40Z</time>
      </trkpt>
      <trkpt lat="49.9448" lon="2.31971">
        <ele>70.6</ele>
        <time>2023-12-27T13:20:41Z</time>
      </trkpt>
      <trkpt lat="49.9448" lon="2.31972">
        <ele>70.7</ele>
        <time>2023-12-27T13:20:42Z</time>
      </trkpt>
      <trkpt lat="49.94482" lon="2.31974">
        <ele>70.7</ele>
        <time>2023-12-27T13:20:43Z</time>
      </trkpt>
      <trkpt lat="49.94483" lon="2.31975">
        <ele>70.7</ele>
        <time>2023-12-27T13:20:44Z</time>
      </trkpt>
      <trkpt lat="49.94483" lon="2.31976">
        <ele>70.8</ele>
        <time>2023-12-27T13:20:46Z</time>
      </trkpt>
      <trkpt lat="49.94484" lon="2.31977">
        <ele>70.8</ele>
        <time>2023-12-27T13:20:47Z</time>
      </trkpt>
      <trkpt lat="49.94485" lon="2.31978">
        <ele>70.8</ele>
        <time>2023-12-27T13:20:48Z</time>
      </trkpt>
      <trkpt lat="49.94485" lon="2.31979">
        <ele>70.8</ele>
        <time>2023-12-27T13:20:49Z</time>
      </trkpt>
      <trkpt lat="49.94486" lon="2.31981">
        <ele>70.9</ele>
        <time>2023-12-27T13:20:50Z</time>
      </trkpt>
      <trkpt lat="49.94487" lon="2.31982">
        <ele>70.9</ele>
        <time>2023-12-27T13:20:51Z</time>
      </trkpt>
      <trkpt lat="49.94487" lon="2.31984">
        <ele>70.9</ele>
        <time>2023-12-27T13:20:52Z</time>
      </trkpt>
      <trkpt lat="49.94488" lon="2.31986">
        <ele>71</ele>
        <time>2023-12-27T13:20:54Z</time>
      </trkpt>
      <trkpt lat="49.94489" lon="2.31987">
        <ele>71</ele>
        <time>2023-12-27T13:20:55Z</time>
      </trkpt>
      <trkpt lat="49.94489" lon="2.31988">
        <ele>71</ele>
        <time>2023-12-27T13:20:56Z</time>
      </trkpt>
      <trkpt lat="49.94491" lon="2.31991">
        <ele>71.1</ele>
        <time>2023-12-27T13:20:57Z</time>
      </trkpt>
      <trkpt lat="49.94491" lon="2.31992">
        <ele>71.1</ele>
        <time>2023-12-27T13:20:58Z</time>
      </trkpt>
      <trkpt lat="49.94492" lon="2.31993">
        <ele>71.1</ele>
        <time>2023-12-27T13:20:59Z</time>
      </trkpt>
      <trkpt lat="49.94493" lon="2.31996">
        <ele>71.2</ele>
        <time>2023-12-27T13:21:00Z</time>
      </trkpt>
      <trkpt lat="49.94494" lon="2.31997">
        <ele>71.2</ele>
        <time>2023-12-27T13:21:01Z</time>
      </trkpt>
      <trkpt lat="49.94494" lon="2.31998">
        <ele>71.2</ele>
        <time>2023-12-27T13:21:02Z</time>
      </trkpt>
      <trkpt lat="49.94496" lon="2.32">
        <ele>71.2</ele>
        <time>2023-12-27T13:21:04Z</time>
      </trkpt>
      <trkpt lat="49.94496" lon="2.32002">
        <ele>71.3</ele>
        <time>2023-12-27T13:21:05Z</time>
      </trkpt>
      <trkpt lat="49.94497" lon="2.32003">
        <ele>71.3</ele>
        <time>2023-12-27T13:21:06Z</time>
      </trkpt>
      <trkpt lat="49.94498" lon="2.32005">
        <ele>71.3</ele>
        <time>2023-12-27T13:21:07Z</time>
      </trkpt>
      <trkpt lat="49.94499" lon="2.32007">
        <ele>71.3</ele>
        <time>2023-12-27T13:21:08Z</time>
      </trkpt>
      <trkpt lat="49.945" lon="2.32008">
        <ele>71.4</ele>
        <time>2023-12-27T13:21:09Z</time>
      </trkpt>
      <trkpt lat="49.94501" lon="2.3201">
        <ele>71.4</ele>
        <time>2023-12-27T13:21:10Z</time>
      </trkpt>
      <trkpt lat="49.94502" lon="2.32011">
        <ele>71.4</ele>
        <time>2023-12-27T13:21:11Z</time>
      </trkpt>
      <trkpt lat="49.94502" lon="2.32012">
        <ele>71.4</ele>
        <time>2023-12-27T13:21:12Z</time>
      </trkpt>
      <trkpt lat="49.94504" lon="2.32015">
        <ele>71.5</ele>
        <time>2023-12-27T13:21:14Z</time>
      </trkpt>
      <trkpt lat="49.94504" lon="2.32016">
        <ele>71.5</ele>
        <time>2023-12-27T13:21:15Z</time>
      </trkpt>
      <trkpt lat="49.94505" lon="2.32017">
        <ele>71.5</ele>
        <time>2023-12-27T13:21:16Z</time>
      </trkpt>
      <trkpt lat="49.94506" lon="2.3202">
        <ele>71.6</ele>
        <time>2023-12-27T13:21:17Z</time>
      </trkpt>
      <trkpt lat="49.94507" lon="2.3202">
        <ele>71.6</ele>
        <time>2023-12-27T13:21:18Z</time>
      </trkpt>
      <trkpt lat="49.94508" lon="2.32021">
        <ele>71.6</ele>
        <time>2023-12-27T13:21:19Z</time>
      </trkpt>
      <trkpt lat="49.94509" lon="2.32023">
        <ele>71.6</ele>
        <time>2023-12-27T13:21:20Z</time>
      </trkpt>
      <trkpt lat="49.9451" lon="2.32024">
        <ele>71.7</ele>
        <time>2023-12-27T13:21:21Z</time>
      </trkpt>
      <trkpt lat="49.9451" lon="2.32026">
        <ele>71.7</ele>
        <time>2023-12-27T13:21:22Z</time>
      </trkpt>
      <trkpt lat="49.94511" lon="2.32027">
        <ele>71.8</ele>
        <time>2023-12-27T13:21:24Z</time>
      </trkpt>
      <trkpt lat="49.94512" lon="2.32029">
        <ele>71.8</ele>
        <time>2023-12-27T13:21:25Z</time>
      </trkpt>
      <trkpt lat="49.94513" lon="2.32031">
        <ele>71.9</ele>
        <time>2023-12-27T13:21:26Z</time>
      </trkpt>
      <trkpt lat="49.94514" lon="2.32032">
        <ele>71.9</ele>
        <time>2023-12-27T13:21:27Z</time>
      </trkpt>
      <trkpt lat="49.94515" lon="2.32033">
        <ele>71.9</ele>
        <time>2023-12-27T13:21:28Z</time>
      </trkpt>
      <trkpt lat="49.94515" lon="2.32035">
        <ele>72</ele>
        <time>2023-12-27T13:21:29Z</time>
      </trkpt>
      <trkpt lat="49.94516" lon="2.32037">
        <ele>72</ele>
        <time>2023-12-27T13:21:30Z</time>
      </trkpt>
      <trkpt lat="49.94517" lon="2.32038">
        <ele>72</ele>
        <time>2023-12-27T13:21:32Z</time>
      </trkpt>
      <trkpt lat="49.94518" lon="2.3204">
        <ele>72.1</ele>
        <time>2023-12-27T13:21:33Z</time>
      </trkpt>
      <trkpt lat="49.94518" lon="2.32041">
        <ele>72.1</ele>
        <time>2023-12-27T13:21:34Z</time>
      </trkpt>
      <trkpt lat="49.94519" lon="2.32042">
        <ele>72.1</ele>
        <time>2023-12-27T13:21:35Z</time>
      </trkpt>
      <trkpt lat="49.9452" lon="2.32043">
        <ele>72.1</ele>
        <time>2023-12-27T13:21:36Z</time>
      </trkpt>
      <trkpt lat="49.94521" lon="2.32045">
        <ele>72.2</ele>
        <time>2023-12-27T13:21:37Z</time>
      </trkpt>
      <trkpt lat="49.94523" lon="2.32047">
        <ele>72.2</ele>
        <time>2023-12-27T13:21:38Z</time>
      </trkpt>
      <trkpt lat="49.94523" lon="2.32048">
        <ele>72.2</ele>
        <time>2023-12-27T13:21:39Z</time>
      </trkpt>
      <trkpt lat="49.94524" lon="2.32049">
        <ele>72.3</ele>
        <time>2023-12-27T13:21:40Z</time>
      </trkpt>
      <trkpt lat="49.94525" lon="2.32051">
        <ele>72.3</ele>
        <time>2023-12-27T13:21:41Z</time>
      </trkpt>
      <trkpt lat="49.94526" lon="2.32052">
        <ele>72.3</ele>
        <time>2023-12-27T13:21:43Z</time>
      </trkpt>
      <trkpt lat="49.94527" lon="2.32053">
        <ele>72.3</ele>
        <time>2023-12-27T13:21:44Z</time>
      </trkpt>
      <trkpt lat="49.94528" lon="2.32054">
        <ele>72.4</ele>
        <time>2023-12-27T13:21:45Z</time>
      </trkpt>
      <trkpt lat="49.94529" lon="2.32055">
        <ele>72.4</ele>
        <time>2023-12-27T13:21:46Z</time>
      </trkpt>
      <trkpt lat="49.9453" lon="2.32058">
        <ele>72.5</ele>
        <time>2023-12-27T13:21:47Z</time>
      </trkpt>
      <trkpt lat="49.94531" lon="2.32059">
        <ele>72.5</ele>
        <time>2023-12-27T13:21:48Z</time>
      </trkpt>
      <trkpt lat="49.94532" lon="2.3206">
        <ele>72.5</ele>
        <time>2023-12-27T13:21:50Z</time>
      </trkpt>
      <trkpt lat="49.94532" lon="2.32062">
        <ele>72.6</ele>
        <time>2023-12-27T13:21:51Z</time>
      </trkpt>
      <trkpt lat="49.94533" lon="2.32063">
        <ele>72.6</ele>
        <time>2023-12-27T13:21:52Z</time>
      </trkpt>
      <trkpt lat="49.94534" lon="2.32064">
        <ele>72.6</ele>
        <time>2023-12-27T13:21:53Z</time>
      </trkpt>
      <trkpt lat="49.94534" lon="2.32066">
        <ele>72.7</ele>
        <time>2023-12-27T13:21:54Z</time>
      </trkpt>
      <trkpt lat="49.94535" lon="2.32068">
        <ele>72.7</ele>
        <time>2023-12-27T13:21:55Z</time>
      </trkpt>
      <trkpt lat="49.94535" lon="2.32069">
        <ele>72.8</ele>
        <time>2023-12-27T13:21:57Z</time>
      </trkpt>
      <trkpt lat="49.94537" lon="2.32072">
        <ele>72.8</ele>
        <time>2023-12-27T13:21:58Z</time>
      </trkpt>
      <trkpt lat="49.94537" lon="2.32073">
        <ele>72.9</ele>
        <time>2023-12-27T13:21:59Z</time>
      </trkpt>
      <trkpt lat="49.94538" lon="2.32074">
        <ele>72.9</ele>
        <time>2023-12-27T13:22:00Z</time>
      </trkpt>
      <trkpt lat="49.94539" lon="2.32076">
        <ele>72.9</ele>
        <time>2023-12-27T13:22:01Z</time>
      </trkpt>
      <trkpt lat="49.9454" lon="2.32077">
        <ele>73</ele>
        <time>2023-12-27T13:22:02Z</time>
      </trkpt>
      <trkpt lat="49.94541" lon="2.32078">
        <ele>73</ele>
        <time>2023-12-27T13:22:03Z</time>
      </trkpt>
      <trkpt lat="49.94541" lon="2.32079">
        <ele>73</ele>
        <time>2023-12-27T13:22:05Z</time>
      </trkpt>
      <trkpt lat="49.94542" lon="2.32081">
        <ele>73</ele>
        <time>2023-12-27T13:22:06Z</time>
      </trkpt>
      <trkpt lat="49.94543" lon="2.32082">
        <ele>73</ele>
        <time>2023-12-27T13:22:07Z</time>
      </trkpt>
      <trkpt lat="49.94544" lon="2.32084">
        <ele>73.1</ele>
        <time>2023-12-27T13:22:08Z</time>
      </trkpt>
      <trkpt lat="49.94545" lon="2.32085">
        <ele>73.1</ele>
        <time>2023-12-27T13:22:09Z</time>
      </trkpt>
      <trkpt lat="49.94545" lon="2.32086">
        <ele>73.1</ele>
        <time>2023-12-27T13:22:10Z</time>
      </trkpt>
      <trkpt lat="49.94546" lon="2.32087">
        <ele>73.1</ele>
        <time>2023-12-27T13:22:11Z</time>
      </trkpt>
      <trkpt lat="49.94547" lon="2.32088">
        <ele>73.2</ele>
        <time>2023-12-27T13:22:13Z</time>
      </trkpt>
      <trkpt lat="49.94548" lon="2.3209">
        <ele>73.2</ele>
        <time>2023-12-27T13:22:14Z</time>
      </trkpt>
      <trkpt lat="49.94549" lon="2.32092">
        <ele>73.2</ele>
        <time>2023-12-27T13:22:15Z</time>
      </trkpt>
      <trkpt lat="49.9455" lon="2.32093">
        <ele>73.2</ele>
        <time>2023-12-27T13:22:16Z</time>
      </trkpt>
      <trkpt lat="49.94551" lon="2.32094">
        <ele>73.3</ele>
        <time>2023-12-27T13:22:17Z</time>
      </trkpt>
      <trkpt lat="49.94552" lon="2.32095">
        <ele>73.3</ele>
        <time>2023-12-27T13:22:18Z</time>
      </trkpt>
      <trkpt lat="49.94553" lon="2.32097">
        <ele>73.3</ele>
        <time>2023-12-27T13:22:19Z</time>
      </trkpt>
      <trkpt lat="49.94553" lon="2.32098">
        <ele>73.4</ele>
        <time>2023-12-27T13:22:21Z</time>
      </trkpt>
      <trkpt lat="49.94555" lon="2.321">
        <ele>73.4</ele>
        <time>2023-12-27T13:22:22Z</time>
      </trkpt>
      <trkpt lat="49.94555" lon="2.32101">
        <ele>73.4</ele>
        <time>2023-12-27T13:22:23Z</time>
      </trkpt>
      <trkpt lat="49.94556" lon="2.32102">
        <ele>73.4</ele>
        <time>2023-12-27T13:22:24Z</time>
      </trkpt>
      <trkpt lat="49.94557" lon="2.32104">
        <ele>73.5</ele>
        <time>2023-12-27T13:22:25Z</time>
      </trkpt>
      <trkpt lat="49.94558" lon="2.32105">
        <ele>73.5</ele>
        <time>2023-12-27T13:22:26Z</time>
      </trkpt>
      <trkpt lat="49.94558" lon="2.32107">
        <ele>73.5</ele>
        <time>2023-12-27T13:22:28Z</time>
      </trkpt>
      <trkpt lat="49.94559" lon="2.32108">
        <ele>73.6</ele>
        <time>2023-12-27T13:22:29Z</time>
      </trkpt>
      <trkpt lat="49.9456" lon="2.32109">
        <ele>73.6</ele>
        <time>2023-12-27T13:22:30Z</time>
      </trkpt>
      <trkpt lat="49.94561" lon="2.3211">
        <ele>73.6</ele>
        <time>2023-12-27T13:22:31Z</time>
      </trkpt>
      <trkpt lat="49.94562" lon="2.32111">
        <ele>73.6</ele>
        <time>2023-12-27T13:22:33Z</time>
      </trkpt>
      <trkpt lat="49.94562" lon="2.32113">
        <ele>73.6</ele>
        <time>2023-12-27T13:22:34Z</time>
      </trkpt>
      <trkpt lat="49.94563" lon="2.32114">
        <ele>73.7</ele>
        <time>2023-12-27T13:22:35Z</time>
      </trkpt>
      <trkpt lat="49.94564" lon="2.32115">
        <ele>73.7</ele>
        <time>2023-12-27T13:22:36Z</time>
      </trkpt>
      <trkpt lat="49.94565" lon="2.32116">
        <ele>73.7</ele>
        <time>2023-12-27T13:22:37Z</time>
      </trkpt>
      <trkpt lat="49.94565" lon="2.32117">
        <ele>73.7</ele>
        <time>2023-12-27T13:22:38Z</time>
      </trkpt>
      <trkpt lat="49.94566" lon="2.32118">
        <ele>73.7</ele>
        <time>2023-12-27T13:22:39Z</time>
      </trkpt>
      <trkpt lat="49.94567" lon="2.32119">
        <ele>73.7</ele>
        <time>2023-12-27T13:22:40Z</time>
      </trkpt>
      <trkpt lat="49.94568" lon="2.32121">
        <ele>73.8</ele>
        <time>2023-12-27T13:22:41Z</time>
      </trkpt>
      <trkpt lat="49.94569" lon="2.32123">
        <ele>73.8</ele>
        <time>2023-12-27T13:22:43Z</time>
      </trkpt>
      <trkpt lat="49.9457" lon="2.32124">
        <ele>73.8</ele>
        <time>2023-12-27T13:22:44Z</time>
      </trkpt>
      <trkpt lat="49.94571" lon="2.32124">
        <ele>73.8</ele>
        <time>2023-12-27T13:22:45Z</time>
      </trkpt>
      <trkpt lat="49.94572" lon="2.32127">
        <ele>73.9</ele>
        <time>2023-12-27T13:22:46Z</time>
      </trkpt>
      <trkpt lat="49.94573" lon="2.32128">
        <ele>73.9</ele>
        <time>2023-12-27T13:22:47Z</time>
      </trkpt>
      <trkpt lat="49.94573" lon="2.32129">
        <ele>73.9</ele>
        <time>2023-12-27T13:22:48Z</time>
      </trkpt>
      <trkpt lat="49.94575" lon="2.32131">
        <ele>74</ele>
        <time>2023-12-27T13:22:50Z</time>
      </trkpt>
      <trkpt lat="49.94575" lon="2.32132">
        <ele>74</ele>
        <time>2023-12-27T13:22:51Z</time>
      </trkpt>
      <trkpt lat="49.94576" lon="2.32133">
        <ele>74</ele>
        <time>2023-12-27T13:22:52Z</time>
      </trkpt>
      <trkpt lat="49.94576" lon="2.32135">
        <ele>74</ele>
        <time>2023-12-27T13:22:53Z</time>
      </trkpt>
      <trkpt lat="49.94577" lon="2.32136">
        <ele>74</ele>
        <time>2023-12-27T13:22:54Z</time>
      </trkpt>
      <trkpt lat="49.94577" lon="2.32138">
        <ele>74</ele>
        <time>2023-12-27T13:22:55Z</time>
      </trkpt>
      <trkpt lat="49.94578" lon="2.32141">
        <ele>74.1</ele>
        <time>2023-12-27T13:22:57Z</time>
      </trkpt>
      <trkpt lat="49.94578" lon="2.32142">
        <ele>74.1</ele>
        <time>2023-12-27T13:22:58Z</time>
      </trkpt>
      <trkpt lat="49.94579" lon="2.32143">
        <ele>74.1</ele>
        <time>2023-12-27T13:22:59Z</time>
      </trkpt>
      <trkpt lat="49.94579" lon="2.32145">
        <ele>74.1</ele>
        <time>2023-12-27T13:23:00Z</time>
      </trkpt>
      <trkpt lat="49.9458" lon="2.32146">
        <ele>74.1</ele>
        <time>2023-12-27T13:23:01Z</time>
      </trkpt>
      <trkpt lat="49.9458" lon="2.32148">
        <ele>74.1</ele>
        <time>2023-12-27T13:23:02Z</time>
      </trkpt>
      <trkpt lat="49.94581" lon="2.32151">
        <ele>74.1</ele>
        <time>2023-12-27T13:23:04Z</time>
      </trkpt>
      <trkpt lat="49.94581" lon="2.32152">
        <ele>74.1</ele>
        <time>2023-12-27T13:23:05Z</time>
      </trkpt>
      <trkpt lat="49.94582" lon="2.32153">
        <ele>74.1</ele>
        <time>2023-12-27T13:23:06Z</time>
      </trkpt>
      <trkpt lat="49.94583" lon="2.32156">
        <ele>74.2</ele>
        <time>2023-12-27T13:23:07Z</time>
      </trkpt>
      <trkpt lat="49.94583" lon="2.32157">
        <ele>74.2</ele>
        <time>2023-12-27T13:23:08Z</time>
      </trkpt>
      <trkpt lat="49.94584" lon="2.32158">
        <ele>74.2</ele>
        <time>2023-12-27T13:23:09Z</time>
      </trkpt>
      <trkpt lat="49.94585" lon="2.32161">
        <ele>74.2</ele>
        <time>2023-12-27T13:23:11Z</time>
      </trkpt>
      <trkpt lat="49.94585" lon="2.32163">
        <ele>74.2</ele>
        <time>2023-12-27T13:23:12Z</time>
      </trkpt>
      <trkpt lat="49.94585" lon="2.32164">
        <ele>74.2</ele>
        <time>2023-12-27T13:23:13Z</time>
      </trkpt>
      <trkpt lat="49.94587" lon="2.32166">
        <ele>74.2</ele>
        <time>2023-12-27T13:23:14Z</time>
      </trkpt>
      <trkpt lat="49.94587" lon="2.32168">
        <ele>74.3</ele>
        <time>2023-12-27T13:23:15Z</time>
      </trkpt>
      <trkpt lat="49.94588" lon="2.32169">
        <ele>74.3</ele>
        <time>2023-12-27T13:23:16Z</time>
      </trkpt>
      <trkpt lat="49.94588" lon="2.32171">
        <ele>74.3</ele>
        <time>2023-12-27T13:23:17Z</time>
      </trkpt>
      <trkpt lat="49.94589" lon="2.32173">
        <ele>74.3</ele>
        <time>2023-12-27T13:23:19Z</time>
      </trkpt>
      <trkpt lat="49.9459" lon="2.32174">
        <ele>74.4</ele>
        <time>2023-12-27T13:23:20Z</time>
      </trkpt>
      <trkpt lat="49.9459" lon="2.32176">
        <ele>74.4</ele>
        <time>2023-12-27T13:23:21Z</time>
      </trkpt>
      <trkpt lat="49.94591" lon="2.32177">
        <ele>74.4</ele>
        <time>2023-12-27T13:23:22Z</time>
      </trkpt>
      <trkpt lat="49.94592" lon="2.32179">
        <ele>74.5</ele>
        <time>2023-12-27T13:23:23Z</time>
      </trkpt>
      <trkpt lat="49.94592" lon="2.32181">
        <ele>74.5</ele>
        <time>2023-12-27T13:23:24Z</time>
      </trkpt>
      <trkpt lat="49.94593" lon="2.32182">
        <ele>74.5</ele>
        <time>2023-12-27T13:23:26Z</time>
      </trkpt>
      <trkpt lat="49.94594" lon="2.32185">
        <ele>74.6</ele>
        <time>2023-12-27T13:23:27Z</time>
      </trkpt>
      <trkpt lat="49.94595" lon="2.32186">
        <ele>74.6</ele>
        <time>2023-12-27T13:23:28Z</time>
      </trkpt>
      <trkpt lat="49.94595" lon="2.32187">
        <ele>74.6</ele>
        <time>2023-12-27T13:23:29Z</time>
      </trkpt>
      <trkpt lat="49.94596" lon="2.3219">
        <ele>74.6</ele>
        <time>2023-12-27T13:23:30Z</time>
      </trkpt>
      <trkpt lat="49.94597" lon="2.32191">
        <ele>74.7</ele>
        <time>2023-12-27T13:23:31Z</time>
      </trkpt>
      <trkpt lat="49.94597" lon="2.32192">
        <ele>74.7</ele>
        <time>2023-12-27T13:23:32Z</time>
      </trkpt>
      <trkpt lat="49.94598" lon="2.32194">
        <ele>74.7</ele>
        <time>2023-12-27T13:23:34Z</time>
      </trkpt>
      <trkpt lat="49.94599" lon="2.32196">
        <ele>74.7</ele>
        <time>2023-12-27T13:23:35Z</time>
      </trkpt>
      <trkpt lat="49.946" lon="2.32198">
        <ele>74.7</ele>
        <time>2023-12-27T13:23:36Z</time>
      </trkpt>
      <trkpt lat="49.94601" lon="2.32199">
        <ele>74.7</ele>
        <time>2023-12-27T13:23:37Z</time>
      </trkpt>
      <trkpt lat="49.94601" lon="2.322">
        <ele>74.8</ele>
        <time>2023-12-27T13:23:38Z</time>
      </trkpt>
      <trkpt lat="49.94603" lon="2.32203">
        <ele>74.8</ele>
        <time>2023-12-27T13:23:39Z</time>
      </trkpt>
      <trkpt lat="49.94603" lon="2.32204">
        <ele>74.8</ele>
        <time>2023-12-27T13:23:41Z</time>
      </trkpt>
      <trkpt lat="49.94604" lon="2.32205">
        <ele>74.8</ele>
        <time>2023-12-27T13:23:42Z</time>
      </trkpt>
      <trkpt lat="49.94605" lon="2.32207">
        <ele>74.8</ele>
        <time>2023-12-27T13:23:43Z</time>
      </trkpt>
      <trkpt lat="49.94605" lon="2.32208">
        <ele>74.8</ele>
        <time>2023-12-27T13:23:44Z</time>
      </trkpt>
      <trkpt lat="49.94606" lon="2.3221">
        <ele>74.8</ele>
        <time>2023-12-27T13:23:45Z</time>
      </trkpt>
      <trkpt lat="49.94606" lon="2.32212">
        <ele>74.8</ele>
        <time>2023-12-27T13:23:46Z</time>
      </trkpt>
      <trkpt lat="49.94606" lon="2.32213">
        <ele>74.8</ele>
        <time>2023-12-27T13:23:47Z</time>
      </trkpt>
      <trkpt lat="49.94607" lon="2.32215">
        <ele>74.9</ele>
        <time>2023-12-27T13:23:49Z</time>
      </trkpt>
      <trkpt lat="49.94608" lon="2.32217">
        <ele>74.9</ele>
        <time>2023-12-27T13:23:50Z</time>
      </trkpt>
      <trkpt lat="49.94608" lon="2.32218">
        <ele>74.9</ele>
        <time>2023-12-27T13:23:51Z</time>
      </trkpt>
      <trkpt lat="49.94609" lon="2.3222">
        <ele>74.9</ele>
        <time>2023-12-27T13:23:52Z</time>
      </trkpt>
      <trkpt lat="49.94609" lon="2.32221">
        <ele>74.9</ele>
        <time>2023-12-27T13:23:53Z</time>
      </trkpt>
      <trkpt lat="49.9461" lon="2.32223">
        <ele>74.9</ele>
        <time>2023-12-27T13:23:54Z</time>
      </trkpt>
      <trkpt lat="49.94611" lon="2.32224">
        <ele>74.9</ele>
        <time>2023-12-27T13:23:55Z</time>
      </trkpt>
      <trkpt lat="49.94611" lon="2.32227">
        <ele>74.9</ele>
        <time>2023-12-27T13:23:57Z</time>
      </trkpt>
      <trkpt lat="49.94612" lon="2.32228">
        <ele>75</ele>
        <time>2023-12-27T13:23:58Z</time>
      </trkpt>
      <trkpt lat="49.94612" lon="2.32229">
        <ele>75</ele>
        <time>2023-12-27T13:23:59Z</time>
      </trkpt>
      <trkpt lat="49.94613" lon="2.32232">
        <ele>75</ele>
        <time>2023-12-27T13:24:00Z</time>
      </trkpt>
      <trkpt lat="49.94613" lon="2.32233">
        <ele>75</ele>
        <time>2023-12-27T13:24:01Z</time>
      </trkpt>
      <trkpt lat="49.94614" lon="2.32234">
        <ele>75</ele>
        <time>2023-12-27T13:24:02Z</time>
      </trkpt>
      <trkpt lat="49.94615" lon="2.32236">
        <ele>75</ele>
        <time>2023-12-27T13:24:03Z</time>
      </trkpt>
      <trkpt lat="49.94616" lon="2.32238">
        <ele>75</ele>
        <time>2023-12-27T13:24:05Z</time>
      </trkpt>
      <trkpt lat="49.94617" lon="2.3224">
        <ele>75.1</ele>
        <time>2023-12-27T13:24:06Z</time>
      </trkpt>
      <trkpt lat="49.94617" lon="2.32241">
        <ele>75.1</ele>
        <time>2023-12-27T13:24:07Z</time>
      </trkpt>
      <trkpt lat="49.94619" lon="2.32244">
        <ele>75.1</ele>
        <time>2023-12-27T13:24:08Z</time>
      </trkpt>
      <trkpt lat="49.94619" lon="2.32245">
        <ele>75.1</ele>
        <time>2023-12-27T13:24:09Z</time>
      </trkpt>
      <trkpt lat="49.9462" lon="2.32247">
        <ele>75.1</ele>
        <time>2023-12-27T13:24:10Z</time>
      </trkpt>
      <trkpt lat="49.94621" lon="2.32249">
        <ele>75.1</ele>
        <time>2023-12-27T13:24:11Z</time>
      </trkpt>
      <trkpt lat="49.94621" lon="2.3225">
        <ele>75.1</ele>
        <time>2023-12-27T13:24:13Z</time>
      </trkpt>
      <trkpt lat="49.94622" lon="2.32252">
        <ele>75.2</ele>
        <time>2023-12-27T13:24:14Z</time>
      </trkpt>
      <trkpt lat="49.94622" lon="2.32253">
        <ele>75.2</ele>
        <time>2023-12-27T13:24:15Z</time>
      </trkpt>
      <trkpt lat="49.94623" lon="2.32255">
        <ele>75.2</ele>
        <time>2023-12-27T13:24:16Z</time>
      </trkpt>
      <trkpt lat="49.94624" lon="2.32256">
        <ele>75.2</ele>
        <time>2023-12-27T13:24:17Z</time>
      </trkpt>
      <trkpt lat="49.94625" lon="2.32259">
        <ele>75.2</ele>
        <time>2023-12-27T13:24:18Z</time>
      </trkpt>
      <trkpt lat="49.94625" lon="2.32261">
        <ele>75.3</ele>
        <time>2023-12-27T13:24:20Z</time>
      </trkpt>
      <trkpt lat="49.94625" lon="2.32262">
        <ele>75.3</ele>
        <time>2023-12-27T13:24:21Z</time>
      </trkpt>
      <trkpt lat="49.94626" lon="2.32264">
        <ele>75.3</ele>
        <time>2023-12-27T13:24:22Z</time>
      </trkpt>
      <trkpt lat="49.94626" lon="2.32265">
        <ele>75.3</ele>
        <time>2023-12-27T13:24:23Z</time>
      </trkpt>
      <trkpt lat="49.94627" lon="2.32268">
        <ele>75.4</ele>
        <time>2023-12-27T13:24:24Z</time>
      </trkpt>
      <trkpt lat="49.94627" lon="2.32269">
        <ele>75.4</ele>
        <time>2023-12-27T13:24:25Z</time>
      </trkpt>
      <trkpt lat="49.94628" lon="2.3227">
        <ele>75.4</ele>
        <time>2023-12-27T13:24:26Z</time>
      </trkpt>
      <trkpt lat="49.94629" lon="2.32272">
        <ele>75.5</ele>
        <time>2023-12-27T13:24:27Z</time>
      </trkpt>
      <trkpt lat="49.94629" lon="2.32274">
        <ele>75.5</ele>
        <time>2023-12-27T13:24:29Z</time>
      </trkpt>
      <trkpt lat="49.9463" lon="2.32276">
        <ele>75.5</ele>
        <time>2023-12-27T13:24:30Z</time>
      </trkpt>
      <trkpt lat="49.94631" lon="2.32277">
        <ele>75.5</ele>
        <time>2023-12-27T13:24:31Z</time>
      </trkpt>
      <trkpt lat="49.94631" lon="2.32279">
        <ele>75.6</ele>
        <time>2023-12-27T13:24:32Z</time>
      </trkpt>
      <trkpt lat="49.94632" lon="2.32281">
        <ele>75.6</ele>
        <time>2023-12-27T13:24:33Z</time>
      </trkpt>
      <trkpt lat="49.94633" lon="2.32283">
        <ele>75.6</ele>
        <time>2023-12-27T13:24:34Z</time>
      </trkpt>
      <trkpt lat="49.94633" lon="2.32284">
        <ele>75.6</ele>
        <time>2023-12-27T13:24:35Z</time>
      </trkpt>
      <trkpt lat="49.94635" lon="2.32286">
        <ele>75.7</ele>
        <time>2023-12-27T13:24:37Z</time>
      </trkpt>
      <trkpt lat="49.94635" lon="2.32287">
        <ele>75.7</ele>
        <time>2023-12-27T13:24:38Z</time>
      </trkpt>
      <trkpt lat="49.94636" lon="2.32288">
        <ele>75.7</ele>
        <time>2023-12-27T13:24:39Z</time>
      </trkpt>
      <trkpt lat="49.94637" lon="2.3229">
        <ele>75.7</ele>
        <time>2023-12-27T13:24:40Z</time>
      </trkpt>
      <trkpt lat="49.94638" lon="2.32291">
        <ele>75.7</ele>
        <time>2023-12-27T13:24:41Z</time>
      </trkpt>
      <trkpt lat="49.94638" lon="2.32292">
        <ele>75.8</ele>
        <time>2023-12-27T13:24:42Z</time>
      </trkpt>
      <trkpt lat="49.94639" lon="2.32295">
        <ele>75.8</ele>
        <time>2023-12-27T13:24:43Z</time>
      </trkpt>
      <trkpt lat="49.9464" lon="2.32296">
        <ele>75.8</ele>
        <time>2023-12-27T13:24:45Z</time>
      </trkpt>
      <trkpt lat="49.9464" lon="2.32297">
        <ele>75.8</ele>
        <time>2023-12-27T13:24:46Z</time>
      </trkpt>
      <trkpt lat="49.94642" lon="2.323">
        <ele>75.9</ele>
        <time>2023-12-27T13:24:47Z</time>
      </trkpt>
      <trkpt lat="49.94642" lon="2.32301">
        <ele>75.9</ele>
        <time>2023-12-27T13:24:48Z</time>
      </trkpt>
      <trkpt lat="49.94642" lon="2.32302">
        <ele>75.9</ele>
        <time>2023-12-27T13:24:49Z</time>
      </trkpt>
      <trkpt lat="49.94643" lon="2.32304">
        <ele>75.9</ele>
        <time>2023-12-27T13:24:50Z</time>
      </trkpt>
      <trkpt lat="49.94644" lon="2.32305">
        <ele>75.9</ele>
        <time>2023-12-27T13:24:51Z</time>
      </trkpt>
      <trkpt lat="49.94645" lon="2.32307">
        <ele>76</ele>
        <time>2023-12-27T13:24:53Z</time>
      </trkpt>
      <trkpt lat="49.94646" lon="2.32308">
        <ele>76</ele>
        <time>2023-12-27T13:24:54Z</time>
      </trkpt>
      <trkpt lat="49.94646" lon="2.3231">
        <ele>76</ele>
        <time>2023-12-27T13:24:55Z</time>
      </trkpt>
      <trkpt lat="49.94646" lon="2.32312">
        <ele>76</ele>
        <time>2023-12-27T13:24:56Z</time>
      </trkpt>
      <trkpt lat="49.94647" lon="2.32314">
        <ele>76.1</ele>
        <time>2023-12-27T13:24:57Z</time>
      </trkpt>
      <trkpt lat="49.94648" lon="2.32315">
        <ele>76.1</ele>
        <time>2023-12-27T13:24:58Z</time>
      </trkpt>
      <trkpt lat="49.94648" lon="2.32317">
        <ele>76.1</ele>
        <time>2023-12-27T13:24:59Z</time>
      </trkpt>
      <trkpt lat="49.94649" lon="2.32318">
        <ele>76.1</ele>
        <time>2023-12-27T13:25:01Z</time>
      </trkpt>
      <trkpt lat="49.94649" lon="2.3232">
        <ele>76.1</ele>
        <time>2023-12-27T13:25:02Z</time>
      </trkpt>
      <trkpt lat="49.9465" lon="2.32321">
        <ele>76.1</ele>
        <time>2023-12-27T13:25:03Z</time>
      </trkpt>
      <trkpt lat="49.9465" lon="2.32323">
        <ele>76.1</ele>
        <time>2023-12-27T13:25:04Z</time>
      </trkpt>
      <trkpt lat="49.94651" lon="2.32324">
        <ele>76.2</ele>
        <time>2023-12-27T13:25:05Z</time>
      </trkpt>
      <trkpt lat="49.94651" lon="2.32326">
        <ele>76.2</ele>
        <time>2023-12-27T13:25:06Z</time>
      </trkpt>
      <trkpt lat="49.94652" lon="2.32328">
        <ele>76.2</ele>
        <time>2023-12-27T13:25:08Z</time>
      </trkpt>
      <trkpt lat="49.94653" lon="2.3233">
        <ele>76.2</ele>
        <time>2023-12-27T13:25:09Z</time>
      </trkpt>
      <trkpt lat="49.94654" lon="2.32332">
        <ele>76.2</ele>
        <time>2023-12-27T13:25:10Z</time>
      </trkpt>
      <trkpt lat="49.94655" lon="2.32333">
        <ele>76.2</ele>
        <time>2023-12-27T13:25:11Z</time>
      </trkpt>
      <trkpt lat="49.94655" lon="2.32334">
        <ele>76.2</ele>
        <time>2023-12-27T13:25:12Z</time>
      </trkpt>
      <trkpt lat="49.94656" lon="2.32336">
        <ele>76.2</ele>
        <time>2023-12-27T13:25:13Z</time>
      </trkpt>
      <trkpt lat="49.94656" lon="2.32338">
        <ele>76.2</ele>
        <time>2023-12-27T13:25:14Z</time>
      </trkpt>
      <trkpt lat="49.94657" lon="2.3234">
        <ele>76.3</ele>
        <time>2023-12-27T13:25:16Z</time>
      </trkpt>
      <trkpt lat="49.94658" lon="2.32343">
        <ele>76.3</ele>
        <time>2023-12-27T13:25:17Z</time>
      </trkpt>
      <trkpt lat="49.94658" lon="2.32344">
        <ele>76.3</ele>
        <time>2023-12-27T13:25:18Z</time>
      </trkpt>
      <trkpt lat="49.94658" lon="2.32346">
        <ele>76.3</ele>
        <time>2023-12-27T13:25:19Z</time>
      </trkpt>
      <trkpt lat="49.94659" lon="2.32347">
        <ele>76.3</ele>
        <time>2023-12-27T13:25:20Z</time>
      </trkpt>
      <trkpt lat="49.94659" lon="2.32349">
        <ele>76.3</ele>
        <time>2023-12-27T13:25:21Z</time>
      </trkpt>
      <trkpt lat="49.9466" lon="2.32351">
        <ele>76.4</ele>
        <time>2023-12-27T13:25:23Z</time>
      </trkpt>
      <trkpt lat="49.9466" lon="2.32353">
        <ele>76.4</ele>
        <time>2023-12-27T13:25:24Z</time>
      </trkpt>
      <trkpt lat="49.94661" lon="2.32355">
        <ele>76.4</ele>
        <time>2023-12-27T13:25:25Z</time>
      </trkpt>
      <trkpt lat="49.94661" lon="2.32356">
        <ele>76.4</ele>
        <time>2023-12-27T13:25:26Z</time>
      </trkpt>
      <trkpt lat="49.94662" lon="2.32358">
        <ele>76.4</ele>
        <time>2023-12-27T13:25:27Z</time>
      </trkpt>
      <trkpt lat="49.94663" lon="2.3236">
        <ele>76.5</ele>
        <time>2023-12-27T13:25:28Z</time>
      </trkpt>
      <trkpt lat="49.94663" lon="2.32362">
        <ele>76.5</ele>
        <time>2023-12-27T13:25:30Z</time>
      </trkpt>
      <trkpt lat="49.94664" lon="2.32365">
        <ele>76.5</ele>
        <time>2023-12-27T13:25:31Z</time>
      </trkpt>
      <trkpt lat="49.94665" lon="2.32366">
        <ele>76.5</ele>
        <time>2023-12-27T13:25:32Z</time>
      </trkpt>
      <trkpt lat="49.94665" lon="2.32367">
        <ele>76.5</ele>
        <time>2023-12-27T13:25:33Z</time>
      </trkpt>
      <trkpt lat="49.94666" lon="2.3237">
        <ele>76.6</ele>
        <time>2023-12-27T13:25:34Z</time>
      </trkpt>
      <trkpt lat="49.94667" lon="2.32371">
        <ele>76.6</ele>
        <time>2023-12-27T13:25:35Z</time>
      </trkpt>
      <trkpt lat="49.94667" lon="2.32372">
        <ele>76.6</ele>
        <time>2023-12-27T13:25:36Z</time>
      </trkpt>
      <trkpt lat="49.94668" lon="2.32374">
        <ele>76.6</ele>
        <time>2023-12-27T13:25:38Z</time>
      </trkpt>
      <trkpt lat="49.94668" lon="2.32376">
        <ele>76.7</ele>
        <time>2023-12-27T13:25:39Z</time>
      </trkpt>
      <trkpt lat="49.94669" lon="2.32377">
        <ele>76.7</ele>
        <time>2023-12-27T13:25:40Z</time>
      </trkpt>
      <trkpt lat="49.9467" lon="2.32379">
        <ele>76.7</ele>
        <time>2023-12-27T13:25:41Z</time>
      </trkpt>
      <trkpt lat="49.9467" lon="2.3238">
        <ele>76.8</ele>
        <time>2023-12-27T13:25:42Z</time>
      </trkpt>
      <trkpt lat="49.94672" lon="2.32383">
        <ele>76.8</ele>
        <time>2023-12-27T13:25:43Z</time>
      </trkpt>
      <trkpt lat="49.94672" lon="2.32384">
        <ele>76.8</ele>
        <time>2023-12-27T13:25:45Z</time>
      </trkpt>
      <trkpt lat="49.94673" lon="2.32386">
        <ele>76.9</ele>
        <time>2023-12-27T13:25:46Z</time>
      </trkpt>
      <trkpt lat="49.94674" lon="2.32389">
        <ele>76.9</ele>
        <time>2023-12-27T13:25:47Z</time>
      </trkpt>
      <trkpt lat="49.94674" lon="2.3239">
        <ele>76.9</ele>
        <time>2023-12-27T13:25:48Z</time>
      </trkpt>
      <trkpt lat="49.94675" lon="2.32391">
        <ele>76.9</ele>
        <time>2023-12-27T13:25:49Z</time>
      </trkpt>
      <trkpt lat="49.94675" lon="2.32392">
        <ele>77</ele>
        <time>2023-12-27T13:25:50Z</time>
      </trkpt>
      <trkpt lat="49.94676" lon="2.32394">
        <ele>77</ele>
        <time>2023-12-27T13:25:51Z</time>
      </trkpt>
      <trkpt lat="49.94677" lon="2.32396">
        <ele>77</ele>
        <time>2023-12-27T13:25:53Z</time>
      </trkpt>
      <trkpt lat="49.94677" lon="2.32398">
        <ele>77.1</ele>
        <time>2023-12-27T13:25:54Z</time>
      </trkpt>
      <trkpt lat="49.94678" lon="2.32399">
        <ele>77.1</ele>
        <time>2023-12-27T13:25:55Z</time>
      </trkpt>
      <trkpt lat="49.94679" lon="2.324">
        <ele>77.1</ele>
        <time>2023-12-27T13:25:56Z</time>
      </trkpt>
      <trkpt lat="49.9468" lon="2.32402">
        <ele>77.1</ele>
        <time>2023-12-27T13:25:57Z</time>
      </trkpt>
      <trkpt lat="49.9468" lon="2.32403">
        <ele>77.2</ele>
        <time>2023-12-27T13:25:58Z</time>
      </trkpt>
      <trkpt lat="49.94681" lon="2.32404">
        <ele>77.2</ele>
        <time>2023-12-27T13:26:00Z</time>
      </trkpt>
      <trkpt lat="49.94682" lon="2.32406">
        <ele>77.2</ele>
        <time>2023-12-27T13:26:01Z</time>
      </trkpt>
      <trkpt lat="49.94682" lon="2.32408">
        <ele>77.2</ele>
        <time>2023-12-27T13:26:02Z</time>
      </trkpt>
      <trkpt lat="49.94683" lon="2.32409">
        <ele>77.3</ele>
        <time>2023-12-27T13:26:03Z</time>
      </trkpt>
      <trkpt lat="49.94684" lon="2.3241">
        <ele>77.3</ele>
        <time>2023-12-27T13:26:04Z</time>
      </trkpt>
      <trkpt lat="49.94685" lon="2.32412">
        <ele>77.3</ele>
        <time>2023-12-27T13:26:05Z</time>
      </trkpt>
      <trkpt lat="49.94685" lon="2.32413">
        <ele>77.3</ele>
        <time>2023-12-27T13:26:07Z</time>
      </trkpt>
      <trkpt lat="49.94686" lon="2.32416">
        <ele>77.4</ele>
        <time>2023-12-27T13:26:08Z</time>
      </trkpt>
      <trkpt lat="49.94687" lon="2.32417">
        <ele>77.4</ele>
        <time>2023-12-27T13:26:09Z</time>
      </trkpt>
      <trkpt lat="49.94687" lon="2.32418">
        <ele>77.4</ele>
        <time>2023-12-27T13:26:10Z</time>
      </trkpt>
      <trkpt lat="49.94688" lon="2.3242">
        <ele>77.4</ele>
        <time>2023-12-27T13:26:11Z</time>
      </trkpt>
      <trkpt lat="49.94689" lon="2.32422">
        <ele>77.4</ele>
        <time>2023-12-27T13:26:12Z</time>
      </trkpt>
      <trkpt lat="49.9469" lon="2.32425">
        <ele>77.5</ele>
        <time>2023-12-27T13:26:14Z</time>
      </trkpt>
      <trkpt lat="49.9469" lon="2.32426">
        <ele>77.5</ele>
        <time>2023-12-27T13:26:15Z</time>
      </trkpt>
      <trkpt lat="49.94691" lon="2.32427">
        <ele>77.5</ele>
        <time>2023-12-27T13:26:16Z</time>
      </trkpt>
      <trkpt lat="49.94692" lon="2.3243">
        <ele>77.6</ele>
        <time>2023-12-27T13:26:17Z</time>
      </trkpt>
      <trkpt lat="49.94692" lon="2.32431">
        <ele>77.6</ele>
        <time>2023-12-27T13:26:18Z</time>
      </trkpt>
      <trkpt lat="49.94692" lon="2.32432">
        <ele>77.6</ele>
        <time>2023-12-27T13:26:19Z</time>
      </trkpt>
      <trkpt lat="49.94693" lon="2.32434">
        <ele>77.6</ele>
        <time>2023-12-27T13:26:20Z</time>
      </trkpt>
      <trkpt lat="49.94693" lon="2.32436">
        <ele>77.6</ele>
        <time>2023-12-27T13:26:22Z</time>
      </trkpt>
      <trkpt lat="49.94694" lon="2.32438">
        <ele>77.7</ele>
        <time>2023-12-27T13:26:23Z</time>
      </trkpt>
      <trkpt lat="49.94695" lon="2.3244">
        <ele>77.7</ele>
        <time>2023-12-27T13:26:24Z</time>
      </trkpt>
      <trkpt lat="49.94695" lon="2.32443">
        <ele>77.7</ele>
        <time>2023-12-27T13:26:25Z</time>
      </trkpt>
      <trkpt lat="49.94696" lon="2.32445">
        <ele>77.7</ele>
        <time>2023-12-27T13:26:26Z</time>
      </trkpt>
      <trkpt lat="49.94696" lon="2.32446">
        <ele>77.7</ele>
        <time>2023-12-27T13:26:27Z</time>
      </trkpt>
      <trkpt lat="49.94697" lon="2.32449">
        <ele>77.8</ele>
        <time>2023-12-27T13:26:28Z</time>
      </trkpt>
      <trkpt lat="49.94698" lon="2.3245">
        <ele>77.8</ele>
        <time>2023-12-27T13:26:30Z</time>
      </trkpt>
      <trkpt lat="49.94698" lon="2.32451">
        <ele>77.8</ele>
        <time>2023-12-27T13:26:31Z</time>
      </trkpt>
      <trkpt lat="49.94698" lon="2.32452">
        <ele>77.8</ele>
        <time>2023-12-27T13:26:32Z</time>
      </trkpt>
      <trkpt lat="49.94699" lon="2.32454">
        <ele>77.8</ele>
        <time>2023-12-27T13:26:33Z</time>
      </trkpt>
      <trkpt lat="49.947" lon="2.32455">
        <ele>77.9</ele>
        <time>2023-12-27T13:26:34Z</time>
      </trkpt>
      <trkpt lat="49.94701" lon="2.32458">
        <ele>77.9</ele>
        <time>2023-12-27T13:26:35Z</time>
      </trkpt>
      <trkpt lat="49.94702" lon="2.32459">
        <ele>77.9</ele>
        <time>2023-12-27T13:26:37Z</time>
      </trkpt>
      <trkpt lat="49.94702" lon="2.3246">
        <ele>77.9</ele>
        <time>2023-12-27T13:26:38Z</time>
      </trkpt>
      <trkpt lat="49.94703" lon="2.32463">
        <ele>78</ele>
        <time>2023-12-27T13:26:39Z</time>
      </trkpt>
      <trkpt lat="49.94704" lon="2.32464">
        <ele>78</ele>
        <time>2023-12-27T13:26:40Z</time>
      </trkpt>
      <trkpt lat="49.94704" lon="2.32465">
        <ele>78</ele>
        <time>2023-12-27T13:26:41Z</time>
      </trkpt>
      <trkpt lat="49.94705" lon="2.32466">
        <ele>78</ele>
        <time>2023-12-27T13:26:42Z</time>
      </trkpt>
      <trkpt lat="49.94705" lon="2.32468">
        <ele>78.1</ele>
        <time>2023-12-27T13:26:44Z</time>
      </trkpt>
      <trkpt lat="49.94706" lon="2.3247">
        <ele>78.1</ele>
        <time>2023-12-27T13:26:45Z</time>
      </trkpt>
      <trkpt lat="49.94706" lon="2.32471">
        <ele>78.1</ele>
        <time>2023-12-27T13:26:46Z</time>
      </trkpt>
      <trkpt lat="49.94707" lon="2.32472">
        <ele>78.1</ele>
        <time>2023-12-27T13:26:47Z</time>
      </trkpt>
      <trkpt lat="49.94708" lon="2.32474">
        <ele>78.2</ele>
        <time>2023-12-27T13:26:48Z</time>
      </trkpt>
      <trkpt lat="49.94709" lon="2.32477">
        <ele>78.2</ele>
        <time>2023-12-27T13:26:49Z</time>
      </trkpt>
      <trkpt lat="49.94709" lon="2.32478">
        <ele>78.2</ele>
        <time>2023-12-27T13:26:51Z</time>
      </trkpt>
      <trkpt lat="49.9471" lon="2.3248">
        <ele>78.3</ele>
        <time>2023-12-27T13:26:52Z</time>
      </trkpt>
      <trkpt lat="49.9471" lon="2.32481">
        <ele>78.3</ele>
        <time>2023-12-27T13:26:53Z</time>
      </trkpt>
      <trkpt lat="49.94711" lon="2.32483">
        <ele>78.3</ele>
        <time>2023-12-27T13:26:54Z</time>
      </trkpt>
      <trkpt lat="49.94712" lon="2.32486">
        <ele>78.3</ele>
        <time>2023-12-27T13:26:55Z</time>
      </trkpt>
      <trkpt lat="49.94713" lon="2.32487">
        <ele>78.4</ele>
        <time>2023-12-27T13:26:56Z</time>
      </trkpt>
      <trkpt lat="49.94713" lon="2.32488">
        <ele>78.4</ele>
        <time>2023-12-27T13:26:57Z</time>
      </trkpt>
      <trkpt lat="49.94714" lon="2.32491">
        <ele>78.4</ele>
        <time>2023-12-27T13:26:59Z</time>
      </trkpt>
      <trkpt lat="49.94714" lon="2.32492">
        <ele>78.4</ele>
        <time>2023-12-27T13:27:00Z</time>
      </trkpt>
      <trkpt lat="49.94715" lon="2.32494">
        <ele>78.5</ele>
        <time>2023-12-27T13:27:01Z</time>
      </trkpt>
      <trkpt lat="49.94716" lon="2.32496">
        <ele>78.5</ele>
        <time>2023-12-27T13:27:02Z</time>
      </trkpt>
      <trkpt lat="49.94716" lon="2.32498">
        <ele>78.5</ele>
        <time>2023-12-27T13:27:03Z</time>
      </trkpt>
      <trkpt lat="49.94716" lon="2.32499">
        <ele>78.5</ele>
        <time>2023-12-27T13:27:04Z</time>
      </trkpt>
      <trkpt lat="49.94717" lon="2.32501">
        <ele>78.5</ele>
        <time>2023-12-27T13:27:05Z</time>
      </trkpt>
      <trkpt lat="49.94718" lon="2.32503">
        <ele>78.6</ele>
        <time>2023-12-27T13:27:07Z</time>
      </trkpt>
      <trkpt lat="49.94718" lon="2.32505">
        <ele>78.6</ele>
        <time>2023-12-27T13:27:08Z</time>
      </trkpt>
      <trkpt lat="49.94719" lon="2.32507">
        <ele>78.6</ele>
        <time>2023-12-27T13:27:10Z</time>
      </trkpt>
      <trkpt lat="49.9472" lon="2.32509">
        <ele>78.6</ele>
        <time>2023-12-27T13:27:11Z</time>
      </trkpt>
      <trkpt lat="49.9472" lon="2.32511">
        <ele>78.6</ele>
        <time>2023-12-27T13:27:12Z</time>
      </trkpt>
      <trkpt lat="49.94721" lon="2.32512">
        <ele>78.7</ele>
        <time>2023-12-27T13:27:13Z</time>
      </trkpt>
      <trkpt lat="49.94722" lon="2.32515">
        <ele>78.7</ele>
        <time>2023-12-27T13:27:14Z</time>
      </trkpt>
      <trkpt lat="49.94722" lon="2.32516">
        <ele>78.7</ele>
        <time>2023-12-27T13:27:15Z</time>
      </trkpt>
      <trkpt lat="49.94723" lon="2.32517">
        <ele>78.7</ele>
        <time>2023-12-27T13:27:16Z</time>
      </trkpt>
      <trkpt lat="49.94724" lon="2.3252">
        <ele>78.8</ele>
        <time>2023-12-27T13:27:18Z</time>
      </trkpt>
      <trkpt lat="49.94724" lon="2.32521">
        <ele>78.8</ele>
        <time>2023-12-27T13:27:19Z</time>
      </trkpt>
      <trkpt lat="49.94724" lon="2.32522">
        <ele>78.8</ele>
        <time>2023-12-27T13:27:20Z</time>
      </trkpt>
      <trkpt lat="49.94726" lon="2.32525">
        <ele>78.8</ele>
        <time>2023-12-27T13:27:21Z</time>
      </trkpt>
      <trkpt lat="49.94726" lon="2.32526">
        <ele>78.9</ele>
        <time>2023-12-27T13:27:22Z</time>
      </trkpt>
      <trkpt lat="49.94727" lon="2.32527">
        <ele>78.9</ele>
        <time>2023-12-27T13:27:23Z</time>
      </trkpt>
      <trkpt lat="49.94728" lon="2.3253">
        <ele>78.9</ele>
        <time>2023-12-27T13:27:24Z</time>
      </trkpt>
      <trkpt lat="49.94728" lon="2.32531">
        <ele>78.9</ele>
        <time>2023-12-27T13:27:26Z</time>
      </trkpt>
      <trkpt lat="49.94729" lon="2.32532">
        <ele>78.9</ele>
        <time>2023-12-27T13:27:27Z</time>
      </trkpt>
      <trkpt lat="49.9473" lon="2.32535">
        <ele>79</ele>
        <time>2023-12-27T13:27:28Z</time>
      </trkpt>
      <trkpt lat="49.94731" lon="2.32536">
        <ele>79</ele>
        <time>2023-12-27T13:27:29Z</time>
      </trkpt>
      <trkpt lat="49.94731" lon="2.32538">
        <ele>79</ele>
        <time>2023-12-27T13:27:30Z</time>
      </trkpt>
      <trkpt lat="49.94732" lon="2.32539">
        <ele>79</ele>
        <time>2023-12-27T13:27:31Z</time>
      </trkpt>
      <trkpt lat="49.94732" lon="2.32541">
        <ele>79</ele>
        <time>2023-12-27T13:27:32Z</time>
      </trkpt>
      <trkpt lat="49.94733" lon="2.32542">
        <ele>79.1</ele>
        <time>2023-12-27T13:27:34Z</time>
      </trkpt>
      <trkpt lat="49.94734" lon="2.32545">
        <ele>79.1</ele>
        <time>2023-12-27T13:27:35Z</time>
      </trkpt>
      <trkpt lat="49.94735" lon="2.32546">
        <ele>79.1</ele>
        <time>2023-12-27T13:27:36Z</time>
      </trkpt>
      <trkpt lat="49.94735" lon="2.32548">
        <ele>79.1</ele>
        <time>2023-12-27T13:27:37Z</time>
      </trkpt>
      <trkpt lat="49.94736" lon="2.3255">
        <ele>79.1</ele>
        <time>2023-12-27T13:27:38Z</time>
      </trkpt>
      <trkpt lat="49.94736" lon="2.32552">
        <ele>79.1</ele>
        <time>2023-12-27T13:27:39Z</time>
      </trkpt>
      <trkpt lat="49.94738" lon="2.32555">
        <ele>79.2</ele>
        <time>2023-12-27T13:27:40Z</time>
      </trkpt>
      <trkpt lat="49.94738" lon="2.32556">
        <ele>79.2</ele>
        <time>2023-12-27T13:27:42Z</time>
      </trkpt>
      <trkpt lat="49.94738" lon="2.32557">
        <ele>79.2</ele>
        <time>2023-12-27T13:27:43Z</time>
      </trkpt>
      <trkpt lat="49.9474" lon="2.3256">
        <ele>79.2</ele>
        <time>2023-12-27T13:27:44Z</time>
      </trkpt>
      <trkpt lat="49.9474" lon="2.32561">
        <ele>79.2</ele>
        <time>2023-12-27T13:27:45Z</time>
      </trkpt>
      <trkpt lat="49.94741" lon="2.32562">
        <ele>79.2</ele>
        <time>2023-12-27T13:27:46Z</time>
      </trkpt>
      <trkpt lat="49.94741" lon="2.32564">
        <ele>79.3</ele>
        <time>2023-12-27T13:27:47Z</time>
      </trkpt>
      <trkpt lat="49.94742" lon="2.32566">
        <ele>79.3</ele>
        <time>2023-12-27T13:27:48Z</time>
      </trkpt>
      <trkpt lat="49.94743" lon="2.32569">
        <ele>79.3</ele>
        <time>2023-12-27T13:27:50Z</time>
      </trkpt>
      <trkpt lat="49.94744" lon="2.3257">
        <ele>79.4</ele>
        <time>2023-12-27T13:27:51Z</time>
      </trkpt>
      <trkpt lat="49.94744" lon="2.32571">
        <ele>79.4</ele>
        <time>2023-12-27T13:27:52Z</time>
      </trkpt>
      <trkpt lat="49.94745" lon="2.32573">
        <ele>79.4</ele>
        <time>2023-12-27T13:27:53Z</time>
      </trkpt>
      <trkpt lat="49.94745" lon="2.32575">
        <ele>79.5</ele>
        <time>2023-12-27T13:27:54Z</time>
      </trkpt>
      <trkpt lat="49.94747" lon="2.32577">
        <ele>79.5</ele>
        <time>2023-12-27T13:27:55Z</time>
      </trkpt>
      <trkpt lat="49.94747" lon="2.32578">
        <ele>79.5</ele>
        <time>2023-12-27T13:27:57Z</time>
      </trkpt>
      <trkpt lat="49.94748" lon="2.32579">
        <ele>79.5</ele>
        <time>2023-12-27T13:27:58Z</time>
      </trkpt>
      <trkpt lat="49.94749" lon="2.32582">
        <ele>79.6</ele>
        <time>2023-12-27T13:27:59Z</time>
      </trkpt>
      <trkpt lat="49.94749" lon="2.32583">
        <ele>79.6</ele>
        <time>2023-12-27T13:28:00Z</time>
      </trkpt>
      <trkpt lat="49.9475" lon="2.32584">
        <ele>79.6</ele>
        <time>2023-12-27T13:28:01Z</time>
      </trkpt>
      <trkpt lat="49.9475" lon="2.32586">
        <ele>79.6</ele>
        <time>2023-12-27T13:28:02Z</time>
      </trkpt>
      <trkpt lat="49.94751" lon="2.32588">
        <ele>79.7</ele>
        <time>2023-12-27T13:28:03Z</time>
      </trkpt>
      <trkpt lat="49.94752" lon="2.32589">
        <ele>79.7</ele>
        <time>2023-12-27T13:28:05Z</time>
      </trkpt>
      <trkpt lat="49.94752" lon="2.3259">
        <ele>79.7</ele>
        <time>2023-12-27T13:28:06Z</time>
      </trkpt>
      <trkpt lat="49.94753" lon="2.32592">
        <ele>79.7</ele>
        <time>2023-12-27T13:28:07Z</time>
      </trkpt>
      <trkpt lat="49.94754" lon="2.32593">
        <ele>79.7</ele>
        <time>2023-12-27T13:28:08Z</time>
      </trkpt>
      <trkpt lat="49.94754" lon="2.32595">
        <ele>79.8</ele>
        <time>2023-12-27T13:28:09Z</time>
      </trkpt>
      <trkpt lat="49.94755" lon="2.32596">
        <ele>79.8</ele>
        <time>2023-12-27T13:28:10Z</time>
      </trkpt>
      <trkpt lat="49.94756" lon="2.32598">
        <ele>79.8</ele>
        <time>2023-12-27T13:28:12Z</time>
      </trkpt>
      <trkpt lat="49.94757" lon="2.32601">
        <ele>79.8</ele>
        <time>2023-12-27T13:28:13Z</time>
      </trkpt>
      <trkpt lat="49.94757" lon="2.32602">
        <ele>79.8</ele>
        <time>2023-12-27T13:28:14Z</time>
      </trkpt>
      <trkpt lat="49.94758" lon="2.32603">
        <ele>79.8</ele>
        <time>2023-12-27T13:28:15Z</time>
      </trkpt>
      <trkpt lat="49.94758" lon="2.32605">
        <ele>79.9</ele>
        <time>2023-12-27T13:28:16Z</time>
      </trkpt>
      <trkpt lat="49.94759" lon="2.32607">
        <ele>79.9</ele>
        <time>2023-12-27T13:28:17Z</time>
      </trkpt>
      <trkpt lat="49.94759" lon="2.32608">
        <ele>79.9</ele>
        <time>2023-12-27T13:28:19Z</time>
      </trkpt>
      <trkpt lat="49.9476" lon="2.32611">
        <ele>79.9</ele>
        <time>2023-12-27T13:28:20Z</time>
      </trkpt>
      <trkpt lat="49.94761" lon="2.32612">
        <ele>79.9</ele>
        <time>2023-12-27T13:28:21Z</time>
      </trkpt>
      <trkpt lat="49.94761" lon="2.32614">
        <ele>79.9</ele>
        <time>2023-12-27T13:28:22Z</time>
      </trkpt>
      <trkpt lat="49.94762" lon="2.32616">
        <ele>79.9</ele>
        <time>2023-12-27T13:28:23Z</time>
      </trkpt>
      <trkpt lat="49.94762" lon="2.32617">
        <ele>80</ele>
        <time>2023-12-27T13:28:24Z</time>
      </trkpt>
      <trkpt lat="49.94763" lon="2.32619">
        <ele>80</ele>
        <time>2023-12-27T13:28:26Z</time>
      </trkpt>
      <trkpt lat="49.94764" lon="2.32622">
        <ele>80</ele>
        <time>2023-12-27T13:28:27Z</time>
      </trkpt>
      <trkpt lat="49.94764" lon="2.32623">
        <ele>80</ele>
        <time>2023-12-27T13:28:28Z</time>
      </trkpt>
      <trkpt lat="49.94765" lon="2.32624">
        <ele>80</ele>
        <time>2023-12-27T13:28:29Z</time>
      </trkpt>
      <trkpt lat="49.94766" lon="2.32627">
        <ele>80</ele>
        <time>2023-12-27T13:28:30Z</time>
      </trkpt>
      <trkpt lat="49.94766" lon="2.32629">
        <ele>80</ele>
        <time>2023-12-27T13:28:31Z</time>
      </trkpt>
      <trkpt lat="49.94767" lon="2.3263">
        <ele>80.1</ele>
        <time>2023-12-27T13:28:33Z</time>
      </trkpt>
      <trkpt lat="49.94768" lon="2.32631">
        <ele>80.1</ele>
        <time>2023-12-27T13:28:34Z</time>
      </trkpt>
      <trkpt lat="49.94768" lon="2.32632">
        <ele>80.1</ele>
        <time>2023-12-27T13:28:35Z</time>
      </trkpt>
      <trkpt lat="49.94769" lon="2.32634">
        <ele>80.1</ele>
        <time>2023-12-27T13:28:36Z</time>
      </trkpt>
      <trkpt lat="49.94769" lon="2.32636">
        <ele>80.1</ele>
        <time>2023-12-27T13:28:37Z</time>
      </trkpt>
      <trkpt lat="49.9477" lon="2.32637">
        <ele>80.1</ele>
        <time>2023-12-27T13:28:38Z</time>
      </trkpt>
      <trkpt lat="49.94771" lon="2.3264">
        <ele>80.1</ele>
        <time>2023-12-27T13:28:40Z</time>
      </trkpt>
      <trkpt lat="49.94771" lon="2.32641">
        <ele>80.1</ele>
        <time>2023-12-27T13:28:41Z</time>
      </trkpt>
      <trkpt lat="49.94772" lon="2.32643">
        <ele>80.1</ele>
        <time>2023-12-27T13:28:42Z</time>
      </trkpt>
      <trkpt lat="49.94772" lon="2.32644">
        <ele>80.1</ele>
        <time>2023-12-27T13:28:43Z</time>
      </trkpt>
      <trkpt lat="49.94773" lon="2.32646">
        <ele>80.2</ele>
        <time>2023-12-27T13:28:44Z</time>
      </trkpt>
      <trkpt lat="49.94774" lon="2.32647">
        <ele>80.2</ele>
        <time>2023-12-27T13:28:45Z</time>
      </trkpt>
      <trkpt lat="49.94774" lon="2.32649">
        <ele>80.2</ele>
        <time>2023-12-27T13:28:46Z</time>
      </trkpt>
      <trkpt lat="49.94775" lon="2.32651">
        <ele>80.2</ele>
        <time>2023-12-27T13:28:48Z</time>
      </trkpt>
      <trkpt lat="49.94775" lon="2.32652">
        <ele>80.2</ele>
        <time>2023-12-27T13:28:49Z</time>
      </trkpt>
      <trkpt lat="49.94776" lon="2.32655">
        <ele>80.2</ele>
        <time>2023-12-27T13:28:50Z</time>
      </trkpt>
      <trkpt lat="49.94777" lon="2.32656">
        <ele>80.2</ele>
        <time>2023-12-27T13:28:51Z</time>
      </trkpt>
      <trkpt lat="49.94777" lon="2.32658">
        <ele>80.2</ele>
        <time>2023-12-27T13:28:52Z</time>
      </trkpt>
      <trkpt lat="49.94778" lon="2.3266">
        <ele>80.2</ele>
        <time>2023-12-27T13:28:53Z</time>
      </trkpt>
      <trkpt lat="49.94778" lon="2.32662">
        <ele>80.2</ele>
        <time>2023-12-27T13:28:55Z</time>
      </trkpt>
      <trkpt lat="49.94779" lon="2.32663">
        <ele>80.2</ele>
        <time>2023-12-27T13:28:56Z</time>
      </trkpt>
      <trkpt lat="49.9478" lon="2.32666">
        <ele>80.2</ele>
        <time>2023-12-27T13:28:57Z</time>
      </trkpt>
      <trkpt lat="49.94781" lon="2.32667">
        <ele>80.2</ele>
        <time>2023-12-27T13:28:58Z</time>
      </trkpt>
      <trkpt lat="49.94781" lon="2.32668">
        <ele>80.2</ele>
        <time>2023-12-27T13:28:59Z</time>
      </trkpt>
      <trkpt lat="49.94782" lon="2.32671">
        <ele>80.2</ele>
        <time>2023-12-27T13:29:00Z</time>
      </trkpt>
      <trkpt lat="49.94783" lon="2.32672">
        <ele>80.2</ele>
        <time>2023-12-27T13:29:02Z</time>
      </trkpt>
      <trkpt lat="49.94784" lon="2.32673">
        <ele>80.2</ele>
        <time>2023-12-27T13:29:03Z</time>
      </trkpt>
      <trkpt lat="49.94785" lon="2.32675">
        <ele>80.3</ele>
        <time>2023-12-27T13:29:04Z</time>
      </trkpt>
      <trkpt lat="49.94785" lon="2.32676">
        <ele>80.3</ele>
        <time>2023-12-27T13:29:05Z</time>
      </trkpt>
      <trkpt lat="49.94786" lon="2.32677">
        <ele>80.3</ele>
        <time>2023-12-27T13:29:06Z</time>
      </trkpt>
      <trkpt lat="49.94787" lon="2.3268">
        <ele>80.3</ele>
        <time>2023-12-27T13:29:07Z</time>
      </trkpt>
      <trkpt lat="49.94787" lon="2.32681">
        <ele>80.3</ele>
        <time>2023-12-27T13:29:09Z</time>
      </trkpt>
      <trkpt lat="49.94788" lon="2.32682">
        <ele>80.3</ele>
        <time>2023-12-27T13:29:10Z</time>
      </trkpt>
      <trkpt lat="49.94789" lon="2.32685">
        <ele>80.3</ele>
        <time>2023-12-27T13:29:11Z</time>
      </trkpt>
      <trkpt lat="49.9479" lon="2.32686">
        <ele>80.3</ele>
        <time>2023-12-27T13:29:12Z</time>
      </trkpt>
      <trkpt lat="49.9479" lon="2.32687">
        <ele>80.3</ele>
        <time>2023-12-27T13:29:13Z</time>
      </trkpt>
      <trkpt lat="49.94791" lon="2.32689">
        <ele>80.3</ele>
        <time>2023-12-27T13:29:14Z</time>
      </trkpt>
      <trkpt lat="49.94792" lon="2.32691">
        <ele>80.3</ele>
        <time>2023-12-27T13:29:15Z</time>
      </trkpt>
      <trkpt lat="49.94793" lon="2.32692">
        <ele>80.4</ele>
        <time>2023-12-27T13:29:17Z</time>
      </trkpt>
      <trkpt lat="49.94794" lon="2.32695">
        <ele>80.4</ele>
        <time>2023-12-27T13:29:18Z</time>
      </trkpt>
      <trkpt lat="49.94794" lon="2.32696">
        <ele>80.4</ele>
        <time>2023-12-27T13:29:19Z</time>
      </trkpt>
      <trkpt lat="49.94795" lon="2.32697">
        <ele>80.4</ele>
        <time>2023-12-27T13:29:20Z</time>
      </trkpt>
      <trkpt lat="49.94796" lon="2.32699">
        <ele>80.5</ele>
        <time>2023-12-27T13:29:21Z</time>
      </trkpt>
      <trkpt lat="49.94797" lon="2.327">
        <ele>80.5</ele>
        <time>2023-12-27T13:29:22Z</time>
      </trkpt>
      <trkpt lat="49.94797" lon="2.32702">
        <ele>80.5</ele>
        <time>2023-12-27T13:29:24Z</time>
      </trkpt>
      <trkpt lat="49.94798" lon="2.32704">
        <ele>80.6</ele>
        <time>2023-12-27T13:29:25Z</time>
      </trkpt>
      <trkpt lat="49.94799" lon="2.32705">
        <ele>80.6</ele>
        <time>2023-12-27T13:29:26Z</time>
      </trkpt>
      <trkpt lat="49.94799" lon="2.32706">
        <ele>80.6</ele>
        <time>2023-12-27T13:29:27Z</time>
      </trkpt>
      <trkpt lat="49.948" lon="2.32708">
        <ele>80.7</ele>
        <time>2023-12-27T13:29:28Z</time>
      </trkpt>
      <trkpt lat="49.948" lon="2.3271">
        <ele>80.7</ele>
        <time>2023-12-27T13:29:29Z</time>
      </trkpt>
      <trkpt lat="49.94801" lon="2.32711">
        <ele>80.7</ele>
        <time>2023-12-27T13:29:31Z</time>
      </trkpt>
      <trkpt lat="49.94801" lon="2.32713">
        <ele>80.8</ele>
        <time>2023-12-27T13:29:32Z</time>
      </trkpt>
      <trkpt lat="49.94802" lon="2.32714">
        <ele>80.8</ele>
        <time>2023-12-27T13:29:33Z</time>
      </trkpt>
      <trkpt lat="49.94802" lon="2.32716">
        <ele>80.8</ele>
        <time>2023-12-27T13:29:34Z</time>
      </trkpt>
      <trkpt lat="49.94803" lon="2.32718">
        <ele>80.9</ele>
        <time>2023-12-27T13:29:35Z</time>
      </trkpt>
      <trkpt lat="49.94803" lon="2.3272">
        <ele>80.9</ele>
        <time>2023-12-27T13:29:37Z</time>
      </trkpt>
      <trkpt lat="49.94804" lon="2.32721">
        <ele>80.9</ele>
        <time>2023-12-27T13:29:38Z</time>
      </trkpt>
      <trkpt lat="49.94805" lon="2.32724">
        <ele>81</ele>
        <time>2023-12-27T13:29:39Z</time>
      </trkpt>
      <trkpt lat="49.94805" lon="2.32725">
        <ele>81</ele>
        <time>2023-12-27T13:29:40Z</time>
      </trkpt>
      <trkpt lat="49.94806" lon="2.32726">
        <ele>81</ele>
        <time>2023-12-27T13:29:41Z</time>
      </trkpt>
      <trkpt lat="49.94806" lon="2.32728">
        <ele>81</ele>
        <time>2023-12-27T13:29:43Z</time>
      </trkpt>
      <trkpt lat="49.94807" lon="2.32728">
        <ele>81</ele>
        <time>2023-12-27T13:29:44Z</time>
      </trkpt>
      <trkpt lat="49.94808" lon="2.32729">
        <ele>81.1</ele>
        <time>2023-12-27T13:29:45Z</time>
      </trkpt>
      <trkpt lat="49.9481" lon="2.32729">
        <ele>81.1</ele>
        <time>2023-12-27T13:29:47Z</time>
      </trkpt>
      <trkpt lat="49.9481" lon="2.32728">
        <ele>81.1</ele>
        <time>2023-12-27T13:29:48Z</time>
      </trkpt>
      <trkpt lat="49.94811" lon="2.32727">
        <ele>81.1</ele>
        <time>2023-12-27T13:29:49Z</time>
      </trkpt>
      <trkpt lat="49.94811" lon="2.32726">
        <ele>81.1</ele>
        <time>2023-12-27T13:29:51Z</time>
      </trkpt>
      <trkpt lat="49.94811" lon="2.32726">
        <ele>81.1</ele>
        <time>2023-12-27T13:29:52Z</time>
      </trkpt>
      <trkpt lat="49.94811" lon="2.32725">
        <ele>81.1</ele>
        <time>2023-12-27T13:29:54Z</time>
      </trkpt>
      <trkpt lat="49.94811" lon="2.32725">
        <ele>81.1</ele>
        <time>2023-12-27T13:29:55Z</time>
      </trkpt>
      <trkpt lat="49.94811" lon="2.32725">
        <ele>81.1</ele>
        <time>2023-12-27T13:29:57Z</time>
      </trkpt>
      <trkpt lat="49.94811" lon="2.32725">
        <ele>81.1</ele>
        <time>2023-12-27T13:29:58Z</time>
      </trkpt>
      <trkpt lat="49.94811" lon="2.32725">
        <ele>81.1</ele>
        <time>2023-12-27T13:29:59Z</time>
      </trkpt>
      <trkpt lat="49.94811" lon="2.32725">
        <ele>81.1</ele>
        <time>2023-12-27T13:30:01Z</time>
      </trkpt>
      <trkpt lat="49.94811" lon="2.32725">
        <ele>81.1</ele>
        <time>2023-12-27T13:30:02Z</time>
      </trkpt>
      <trkpt lat="49.9481" lon="2.32725">
        <ele>81.1</ele>
        <time>2023-12-27T13:30:04Z</time>
      </trkpt>
      <trkpt lat="49.9481" lon="2.32725">
        <ele>81.1</ele>
        <time>2023-12-27T13:30:05Z</time>
      </trkpt>
      <trkpt lat="49.9481" lon="2.32725">
        <ele>81.1</ele>
        <time>2023-12-27T13:30:06Z</time>
      </trkpt>
      <trkpt lat="49.9481" lon="2.32725">
        <ele>81.1</ele>
        <time>2023-12-27T13:30:07Z</time>
      </trkpt>
      <trkpt lat="49.9481" lon="2.32725">
        <ele>81.1</ele>
        <time>2023-12-27T13:30:08Z</time>
      </trkpt>
      <trkpt lat="49.9481" lon="2.32729">
        <ele>81.2</ele>
        <time>2023-12-27T13:31:07Z</time>
      </trkpt>
      <trkpt lat="49.94812" lon="2.32731">
        <ele>81.2</ele>
        <time>2023-12-27T13:31:08Z</time>
      </trkpt>
      <trkpt lat="49.94813" lon="2.32732">
        <ele>81.2</ele>
        <time>2023-12-27T13:31:10Z</time>
      </trkpt>
      <trkpt lat="49.94815" lon="2.32733">
        <ele>81.2</ele>
        <time>2023-12-27T13:31:11Z</time>
      </trkpt>
      <trkpt lat="49.94816" lon="2.32734">
        <ele>81.2</ele>
        <time>2023-12-27T13:31:12Z</time>
      </trkpt>
      <trkpt lat="49.94817" lon="2.32734">
        <ele>81.2</ele>
        <time>2023-12-27T13:31:13Z</time>
      </trkpt>
      <trkpt lat="49.94818" lon="2.32734">
        <ele>81.3</ele>
        <time>2023-12-27T13:31:14Z</time>
      </trkpt>
      <trkpt lat="49.94819" lon="2.32735">
        <ele>81.3</ele>
        <time>2023-12-27T13:31:15Z</time>
      </trkpt>
      <trkpt lat="49.94821" lon="2.32735">
        <ele>81.3</ele>
        <time>2023-12-27T13:31:17Z</time>
      </trkpt>
      <trkpt lat="49.94823" lon="2.32735">
        <ele>81.3</ele>
        <time>2023-12-27T13:31:18Z</time>
      </trkpt>
      <trkpt lat="49.94824" lon="2.32735">
        <ele>81.3</ele>
        <time>2023-12-27T13:31:19Z</time>
      </trkpt>
      <trkpt lat="49.94824" lon="2.32735">
        <ele>81.3</ele>
        <time>2023-12-27T13:31:20Z</time>
      </trkpt>
      <trkpt lat="49.94826" lon="2.32734">
        <ele>81.4</ele>
        <time>2023-12-27T13:31:21Z</time>
      </trkpt>
      <trkpt lat="49.94827" lon="2.32734">
        <ele>81.4</ele>
        <time>2023-12-27T13:31:22Z</time>
      </trkpt>
      <trkpt lat="49.94828" lon="2.32734">
        <ele>81.4</ele>
        <time>2023-12-27T13:31:24Z</time>
      </trkpt>
      <trkpt lat="49.9483" lon="2.32734">
        <ele>81.4</ele>
        <time>2023-12-27T13:31:25Z</time>
      </trkpt>
      <trkpt lat="49.94831" lon="2.32733">
        <ele>81.4</ele>
        <time>2023-12-27T13:31:26Z</time>
      </trkpt>
      <trkpt lat="49.94832" lon="2.32732">
        <ele>81.5</ele>
        <time>2023-12-27T13:31:27Z</time>
      </trkpt>
      <trkpt lat="49.94833" lon="2.32732">
        <ele>81.5</ele>
        <time>2023-12-27T13:31:28Z</time>
      </trkpt>
      <trkpt lat="49.94834" lon="2.32731">
        <ele>81.5</ele>
        <time>2023-12-27T13:31:30Z</time>
      </trkpt>
      <trkpt lat="49.94835" lon="2.32731">
        <ele>81.5</ele>
        <time>2023-12-27T13:31:31Z</time>
      </trkpt>
      <trkpt lat="49.94836" lon="2.32731">
        <ele>81.5</ele>
        <time>2023-12-27T13:31:32Z</time>
      </trkpt>
      <trkpt lat="49.94837" lon="2.3273">
        <ele>81.6</ele>
        <time>2023-12-27T13:31:33Z</time>
      </trkpt>
      <trkpt lat="49.94838" lon="2.3273">
        <ele>81.6</ele>
        <time>2023-12-27T13:31:34Z</time>
      </trkpt>
      <trkpt lat="49.94839" lon="2.3273">
        <ele>81.6</ele>
        <time>2023-12-27T13:31:35Z</time>
      </trkpt>
      <trkpt lat="49.94841" lon="2.32731">
        <ele>81.6</ele>
        <time>2023-12-27T13:31:37Z</time>
      </trkpt>
      <trkpt lat="49.94842" lon="2.32731">
        <ele>81.7</ele>
        <time>2023-12-27T13:31:38Z</time>
      </trkpt>
      <trkpt lat="49.94843" lon="2.32732">
        <ele>81.7</ele>
        <time>2023-12-27T13:31:39Z</time>
      </trkpt>
      <trkpt lat="49.94844" lon="2.32732">
        <ele>81.7</ele>
        <time>2023-12-27T13:31:40Z</time>
      </trkpt>
      <trkpt lat="49.94845" lon="2.32733">
        <ele>81.7</ele>
        <time>2023-12-27T13:31:41Z</time>
      </trkpt>
      <trkpt lat="49.94846" lon="2.32733">
        <ele>81.7</ele>
        <time>2023-12-27T13:31:42Z</time>
      </trkpt>
      <trkpt lat="49.94848" lon="2.32733">
        <ele>81.8</ele>
        <time>2023-12-27T13:31:43Z</time>
      </trkpt>
      <trkpt lat="49.94849" lon="2.32733">
        <ele>81.8</ele>
        <time>2023-12-27T13:31:45Z</time>
      </trkpt>
      <trkpt lat="49.9485" lon="2.32733">
        <ele>81.8</ele>
        <time>2023-12-27T13:31:46Z</time>
      </trkpt>
      <trkpt lat="49.94851" lon="2.32733">
        <ele>81.8</ele>
        <time>2023-12-27T13:31:47Z</time>
      </trkpt>
      <trkpt lat="49.94852" lon="2.32733">
        <ele>81.8</ele>
        <time>2023-12-27T13:31:48Z</time>
      </trkpt>
      <trkpt lat="49.94853" lon="2.32733">
        <ele>81.9</ele>
        <time>2023-12-27T13:31:49Z</time>
      </trkpt>
      <trkpt lat="49.94855" lon="2.32734">
        <ele>81.9</ele>
        <time>2023-12-27T13:31:50Z</time>
      </trkpt>
      <trkpt lat="49.94856" lon="2.32734">
        <ele>81.9</ele>
        <time>2023-12-27T13:31:51Z</time>
      </trkpt>
      <trkpt lat="49.94858" lon="2.32734">
        <ele>81.9</ele>
        <time>2023-12-27T13:31:52Z</time>
      </trkpt>
      <trkpt lat="49.94859" lon="2.32734">
        <ele>81.9</ele>
        <time>2023-12-27T13:31:54Z</time>
      </trkpt>
      <trkpt lat="49.9486" lon="2.32735">
        <ele>81.9</ele>
        <time>2023-12-27T13:31:55Z</time>
      </trkpt>
      <trkpt lat="49.94861" lon="2.32735">
        <ele>82</ele>
        <time>2023-12-27T13:31:56Z</time>
      </trkpt>
      <trkpt lat="49.94862" lon="2.32735">
        <ele>82</ele>
        <time>2023-12-27T13:31:57Z</time>
      </trkpt>
      <trkpt lat="49.94863" lon="2.32735">
        <ele>82</ele>
        <time>2023-12-27T13:31:58Z</time>
      </trkpt>
      <trkpt lat="49.94865" lon="2.32736">
        <ele>82</ele>
        <time>2023-12-27T13:31:59Z</time>
      </trkpt>
      <trkpt lat="49.94866" lon="2.32736">
        <ele>82</ele>
        <time>2023-12-27T13:32:01Z</time>
      </trkpt>
      <trkpt lat="49.94866" lon="2.32736">
        <ele>82</ele>
        <time>2023-12-27T13:32:02Z</time>
      </trkpt>
      <trkpt lat="49.94867" lon="2.32737">
        <ele>82</ele>
        <time>2023-12-27T13:32:03Z</time>
      </trkpt>
      <trkpt lat="49.94869" lon="2.32737">
        <ele>82.1</ele>
        <time>2023-12-27T13:32:05Z</time>
      </trkpt>
      <trkpt lat="49.9487" lon="2.32737">
        <ele>82.1</ele>
        <time>2023-12-27T13:32:06Z</time>
      </trkpt>
      <trkpt lat="49.94871" lon="2.32737">
        <ele>82.1</ele>
        <time>2023-12-27T13:32:07Z</time>
      </trkpt>
      <trkpt lat="49.94872" lon="2.32738">
        <ele>82.1</ele>
        <time>2023-12-27T13:32:09Z</time>
      </trkpt>
      <trkpt lat="49.94872" lon="2.32738">
        <ele>82.1</ele>
        <time>2023-12-27T13:32:10Z</time>
      </trkpt>
      <trkpt lat="49.94872" lon="2.32738">
        <ele>82.1</ele>
        <time>2023-12-27T13:32:12Z</time>
      </trkpt>
      <trkpt lat="49.94871" lon="2.32738">
        <ele>82.1</ele>
        <time>2023-12-27T13:32:13Z</time>
      </trkpt>
      <trkpt lat="49.94871" lon="2.32738">
        <ele>82.1</ele>
        <time>2023-12-27T13:32:15Z</time>
      </trkpt>
      <trkpt lat="49.94871" lon="2.32738">
        <ele>82.1</ele>
        <time>2023-12-27T13:32:16Z</time>
      </trkpt>
      <trkpt lat="49.94871" lon="2.32738">
        <ele>82.1</ele>
        <time>2023-12-27T13:32:18Z</time>
      </trkpt>
      <trkpt lat="49.9487" lon="2.32738">
        <ele>82.1</ele>
        <time>2023-12-27T13:32:19Z</time>
      </trkpt>
      <trkpt lat="49.9487" lon="2.32738">
        <ele>82.1</ele>
        <time>2023-12-27T13:32:20Z</time>
      </trkpt>
      <trkpt lat="49.9487" lon="2.32738">
        <ele>82.1</ele>
        <time>2023-12-27T13:32:22Z</time>
      </trkpt>
      <trkpt lat="49.9487" lon="2.32738">
        <ele>82.1</ele>
        <time>2023-12-27T13:32:23Z</time>
      </trkpt>
      <trkpt lat="49.9487" lon="2.32738">
        <ele>82.1</ele>
        <time>2023-12-27T13:32:25Z</time>
      </trkpt>
      <trkpt lat="49.9487" lon="2.32738">
        <ele>82.1</ele>
        <time>2023-12-27T13:32:26Z</time>
      </trkpt>
      <trkpt lat="49.94867" lon="2.32739">
        <ele>82.2</ele>
        <time>2023-12-27T13:32:36Z</time>
      </trkpt>
      <trkpt lat="49.94867" lon="2.32739">
        <ele>82.2</ele>
        <time>2023-12-27T13:32:37Z</time>
      </trkpt>
      <trkpt lat="49.94867" lon="2.3274">
        <ele>82.2</ele>
        <time>2023-12-27T13:32:38Z</time>
      </trkpt>
      <trkpt lat="49.94869" lon="2.32738">
        <ele>82.2</ele>
        <time>2023-12-27T13:32:39Z</time>
      </trkpt>
      <trkpt lat="49.9487" lon="2.32737">
        <ele>82.2</ele>
        <time>2023-12-27T13:32:40Z</time>
      </trkpt>
      <trkpt lat="49.9487" lon="2.32737">
        <ele>82.2</ele>
        <time>2023-12-27T13:32:41Z</time>
      </trkpt>
      <trkpt lat="49.94871" lon="2.32737">
        <ele>82.2</ele>
        <time>2023-12-27T13:32:43Z</time>
      </trkpt>
      <trkpt lat="49.94873" lon="2.32737">
        <ele>82.2</ele>
        <time>2023-12-27T13:32:44Z</time>
      </trkpt>
      <trkpt lat="49.94874" lon="2.32738">
        <ele>82.2</ele>
        <time>2023-12-27T13:32:45Z</time>
      </trkpt>
      <trkpt lat="49.94875" lon="2.32738">
        <ele>82.2</ele>
        <time>2023-12-27T13:32:46Z</time>
      </trkpt>
      <trkpt lat="49.94876" lon="2.32738">
        <ele>82.2</ele>
        <time>2023-12-27T13:32:47Z</time>
      </trkpt>
      <trkpt lat="49.94878" lon="2.32739">
        <ele>82.2</ele>
        <time>2023-12-27T13:32:48Z</time>
      </trkpt>
      <trkpt lat="49.94878" lon="2.32739">
        <ele>82.2</ele>
        <time>2023-12-27T13:32:49Z</time>
      </trkpt>
      <trkpt lat="49.94879" lon="2.3274">
        <ele>82.2</ele>
        <time>2023-12-27T13:32:50Z</time>
      </trkpt>
      <trkpt lat="49.9488" lon="2.3274">
        <ele>82.2</ele>
        <time>2023-12-27T13:32:52Z</time>
      </trkpt>
      <trkpt lat="49.94881" lon="2.32741">
        <ele>82.2</ele>
        <time>2023-12-27T13:32:53Z</time>
      </trkpt>
      <trkpt lat="49.94882" lon="2.32741">
        <ele>82.2</ele>
        <time>2023-12-27T13:32:54Z</time>
      </trkpt>
      <trkpt lat="49.94883" lon="2.32741">
        <ele>82.2</ele>
        <time>2023-12-27T13:32:55Z</time>
      </trkpt>
      <trkpt lat="49.94884" lon="2.32741">
        <ele>82.2</ele>
        <time>2023-12-27T13:32:56Z</time>
      </trkpt>
      <trkpt lat="49.94885" lon="2.32741">
        <ele>82.2</ele>
        <time>2023-12-27T13:32:57Z</time>
      </trkpt>
      <trkpt lat="49.94886" lon="2.32741">
        <ele>82.1</ele>
        <time>2023-12-27T13:32:58Z</time>
      </trkpt>
      <trkpt lat="49.94887" lon="2.32741">
        <ele>82.1</ele>
        <time>2023-12-27T13:33:00Z</time>
      </trkpt>
      <trkpt lat="49.94888" lon="2.3274">
        <ele>82.1</ele>
        <time>2023-12-27T13:33:01Z</time>
      </trkpt>
      <trkpt lat="49.94889" lon="2.3274">
        <ele>82.1</ele>
        <time>2023-12-27T13:33:02Z</time>
      </trkpt>
      <trkpt lat="49.9489" lon="2.3274">
        <ele>82.1</ele>
        <time>2023-12-27T13:33:03Z</time>
      </trkpt>
      <trkpt lat="49.94891" lon="2.3274">
        <ele>82.1</ele>
        <time>2023-12-27T13:33:04Z</time>
      </trkpt>
      <trkpt lat="49.94892" lon="2.3274">
        <ele>82.1</ele>
        <time>2023-12-27T13:33:06Z</time>
      </trkpt>
      <trkpt lat="49.94893" lon="2.3274">
        <ele>82</ele>
        <time>2023-12-27T13:33:07Z</time>
      </trkpt>
      <trkpt lat="49.94894" lon="2.3274">
        <ele>82</ele>
        <time>2023-12-27T13:33:08Z</time>
      </trkpt>
      <trkpt lat="49.94895" lon="2.3274">
        <ele>82</ele>
        <time>2023-12-27T13:33:09Z</time>
      </trkpt>
      <trkpt lat="49.94896" lon="2.3274">
        <ele>82</ele>
        <time>2023-12-27T13:33:11Z</time>
      </trkpt>
      <trkpt lat="49.94897" lon="2.3274">
        <ele>82</ele>
        <time>2023-12-27T13:33:12Z</time>
      </trkpt>
      <trkpt lat="49.94897" lon="2.3274">
        <ele>82</ele>
        <time>2023-12-27T13:33:13Z</time>
      </trkpt>
      <trkpt lat="49.94898" lon="2.3274">
        <ele>82</ele>
        <time>2023-12-27T13:33:14Z</time>
      </trkpt>
      <trkpt lat="49.94899" lon="2.3274">
        <ele>81.9</ele>
        <time>2023-12-27T13:33:16Z</time>
      </trkpt>
      <trkpt lat="49.949" lon="2.32739">
        <ele>81.9</ele>
        <time>2023-12-27T13:33:17Z</time>
      </trkpt>
      <trkpt lat="49.949" lon="2.32739">
        <ele>81.9</ele>
        <time>2023-12-27T13:33:18Z</time>
      </trkpt>
      <trkpt lat="49.94901" lon="2.32739">
        <ele>81.9</ele>
        <time>2023-12-27T13:33:19Z</time>
      </trkpt>
      <trkpt lat="49.94902" lon="2.32739">
        <ele>81.9</ele>
        <time>2023-12-27T13:33:20Z</time>
      </trkpt>
      <trkpt lat="49.94903" lon="2.3274">
        <ele>81.9</ele>
        <time>2023-12-27T13:33:21Z</time>
      </trkpt>
      <trkpt lat="49.94904" lon="2.3274">
        <ele>81.8</ele>
        <time>2023-12-27T13:33:22Z</time>
      </trkpt>
      <trkpt lat="49.94905" lon="2.32741">
        <ele>81.8</ele>
        <time>2023-12-27T13:33:24Z</time>
      </trkpt>
      <trkpt lat="49.94907" lon="2.32741">
        <ele>81.8</ele>
        <time>2023-12-27T13:33:25Z</time>
      </trkpt>
      <trkpt lat="49.94908" lon="2.32742">
        <ele>81.8</ele>
        <time>2023-12-27T13:33:26Z</time>
      </trkpt>
      <trkpt lat="49.94909" lon="2.32742">
        <ele>81.8</ele>
        <time>2023-12-27T13:33:27Z</time>
      </trkpt>
      <trkpt lat="49.9491" lon="2.32742">
        <ele>81.7</ele>
        <time>2023-12-27T13:33:29Z</time>
      </trkpt>
      <trkpt lat="49.94911" lon="2.32742">
        <ele>81.7</ele>
        <time>2023-12-27T13:33:30Z</time>
      </trkpt>
      <trkpt lat="49.94912" lon="2.32743">
        <ele>81.7</ele>
        <time>2023-12-27T13:33:31Z</time>
      </trkpt>
      <trkpt lat="49.94912" lon="2.32743">
        <ele>81.7</ele>
        <time>2023-12-27T13:33:32Z</time>
      </trkpt>
      <trkpt lat="49.94913" lon="2.32743">
        <ele>81.7</ele>
        <time>2023-12-27T13:33:33Z</time>
      </trkpt>
      <trkpt lat="49.94916" lon="2.32743">
        <ele>81.7</ele>
        <time>2023-12-27T13:33:34Z</time>
      </trkpt>
      <trkpt lat="49.94917" lon="2.32743">
        <ele>81.6</ele>
        <time>2023-12-27T13:33:36Z</time>
      </trkpt>
      <trkpt lat="49.94918" lon="2.32743">
        <ele>81.6</ele>
        <time>2023-12-27T13:33:37Z</time>
      </trkpt>
      <trkpt lat="49.94919" lon="2.32743">
        <ele>81.6</ele>
        <time>2023-12-27T13:33:38Z</time>
      </trkpt>
      <trkpt lat="49.9492" lon="2.32743">
        <ele>81.6</ele>
        <time>2023-12-27T13:33:39Z</time>
      </trkpt>
      <trkpt lat="49.94921" lon="2.32743">
        <ele>81.6</ele>
        <time>2023-12-27T13:33:40Z</time>
      </trkpt>
      <trkpt lat="49.94923" lon="2.32744">
        <ele>81.5</ele>
        <time>2023-12-27T13:33:41Z</time>
      </trkpt>
      <trkpt lat="49.94924" lon="2.32744">
        <ele>81.5</ele>
        <time>2023-12-27T13:33:42Z</time>
      </trkpt>
      <trkpt lat="49.94926" lon="2.32744">
        <ele>81.5</ele>
        <time>2023-12-27T13:33:44Z</time>
      </trkpt>
      <trkpt lat="49.94927" lon="2.32745">
        <ele>81.5</ele>
        <time>2023-12-27T13:33:45Z</time>
      </trkpt>
      <trkpt lat="49.94929" lon="2.32745">
        <ele>81.4</ele>
        <time>2023-12-27T13:33:46Z</time>
      </trkpt>
      <trkpt lat="49.9493" lon="2.32746">
        <ele>81.4</ele>
        <time>2023-12-27T13:33:47Z</time>
      </trkpt>
      <trkpt lat="49.94931" lon="2.32746">
        <ele>81.4</ele>
        <time>2023-12-27T13:33:48Z</time>
      </trkpt>
      <trkpt lat="49.94933" lon="2.32746">
        <ele>81.4</ele>
        <time>2023-12-27T13:33:49Z</time>
      </trkpt>
      <trkpt lat="49.94934" lon="2.32746">
        <ele>81.4</ele>
        <time>2023-12-27T13:33:50Z</time>
      </trkpt>
      <trkpt lat="49.94937" lon="2.32746">
        <ele>81.3</ele>
        <time>2023-12-27T13:33:51Z</time>
      </trkpt>
      <trkpt lat="49.94938" lon="2.32746">
        <ele>81.3</ele>
        <time>2023-12-27T13:33:53Z</time>
      </trkpt>
      <trkpt lat="49.94939" lon="2.32746">
        <ele>81.3</ele>
        <time>2023-12-27T13:33:54Z</time>
      </trkpt>
      <trkpt lat="49.9494" lon="2.32746">
        <ele>81.3</ele>
        <time>2023-12-27T13:33:55Z</time>
      </trkpt>
      <trkpt lat="49.94941" lon="2.32746">
        <ele>81.3</ele>
        <time>2023-12-27T13:33:56Z</time>
      </trkpt>
      <trkpt lat="49.94943" lon="2.32747">
        <ele>81.3</ele>
        <time>2023-12-27T13:33:57Z</time>
      </trkpt>
      <trkpt lat="49.94944" lon="2.32747">
        <ele>81.3</ele>
        <time>2023-12-27T13:33:58Z</time>
      </trkpt>
      <trkpt lat="49.94946" lon="2.32747">
        <ele>81.3</ele>
        <time>2023-12-27T13:33:59Z</time>
      </trkpt>
      <trkpt lat="49.94947" lon="2.32747">
        <ele>81.2</ele>
        <time>2023-12-27T13:34:00Z</time>
      </trkpt>
      <trkpt lat="49.94949" lon="2.32747">
        <ele>81.2</ele>
        <time>2023-12-27T13:34:02Z</time>
      </trkpt>
      <trkpt lat="49.9495" lon="2.32747">
        <ele>81.2</ele>
        <time>2023-12-27T13:34:03Z</time>
      </trkpt>
      <trkpt lat="49.94952" lon="2.32747">
        <ele>81.2</ele>
        <time>2023-12-27T13:34:04Z</time>
      </trkpt>
      <trkpt lat="49.94953" lon="2.32747">
        <ele>81.2</ele>
        <time>2023-12-27T13:34:05Z</time>
      </trkpt>
      <trkpt lat="49.94954" lon="2.32747">
        <ele>81.2</ele>
        <time>2023-12-27T13:34:06Z</time>
      </trkpt>
      <trkpt lat="49.94956" lon="2.32747">
        <ele>81.2</ele>
        <time>2023-12-27T13:34:07Z</time>
      </trkpt>
      <trkpt lat="49.94957" lon="2.32747">
        <ele>81.1</ele>
        <time>2023-12-27T13:34:08Z</time>
      </trkpt>
      <trkpt lat="49.94959" lon="2.32748">
        <ele>81.1</ele>
        <time>2023-12-27T13:34:09Z</time>
      </trkpt>
      <trkpt lat="49.9496" lon="2.32748">
        <ele>81.1</ele>
        <time>2023-12-27T13:34:11Z</time>
      </trkpt>
      <trkpt lat="49.94961" lon="2.32748">
        <ele>81.1</ele>
        <time>2023-12-27T13:34:12Z</time>
      </trkpt>
      <trkpt lat="49.94963" lon="2.32749">
        <ele>81.1</ele>
        <time>2023-12-27T13:34:13Z</time>
      </trkpt>
      <trkpt lat="49.94964" lon="2.32749">
        <ele>81.1</ele>
        <time>2023-12-27T13:34:14Z</time>
      </trkpt>
      <trkpt lat="49.94965" lon="2.32749">
        <ele>81.1</ele>
        <time>2023-12-27T13:34:15Z</time>
      </trkpt>
      <trkpt lat="49.94967" lon="2.3275">
        <ele>81</ele>
        <time>2023-12-27T13:34:16Z</time>
      </trkpt>
      <trkpt lat="49.94968" lon="2.3275">
        <ele>81</ele>
        <time>2023-12-27T13:34:17Z</time>
      </trkpt>
      <trkpt lat="49.94969" lon="2.3275">
        <ele>81</ele>
        <time>2023-12-27T13:34:18Z</time>
      </trkpt>
      <trkpt lat="49.94971" lon="2.3275">
        <ele>81</ele>
        <time>2023-12-27T13:34:20Z</time>
      </trkpt>
      <trkpt lat="49.94972" lon="2.3275">
        <ele>81</ele>
        <time>2023-12-27T13:34:21Z</time>
      </trkpt>
      <trkpt lat="49.94972" lon="2.3275">
        <ele>81</ele>
        <time>2023-12-27T13:34:22Z</time>
      </trkpt>
      <trkpt lat="49.94973" lon="2.32751">
        <ele>80.9</ele>
        <time>2023-12-27T13:34:23Z</time>
      </trkpt>
      <trkpt lat="49.94975" lon="2.32751">
        <ele>80.9</ele>
        <time>2023-12-27T13:34:24Z</time>
      </trkpt>
      <trkpt lat="49.94976" lon="2.32751">
        <ele>80.9</ele>
        <time>2023-12-27T13:34:25Z</time>
      </trkpt>
      <trkpt lat="49.94977" lon="2.32751">
        <ele>80.9</ele>
        <time>2023-12-27T13:34:26Z</time>
      </trkpt>
      <trkpt lat="49.94978" lon="2.32751">
        <ele>80.9</ele>
        <time>2023-12-27T13:34:27Z</time>
      </trkpt>
      <trkpt lat="49.94979" lon="2.32752">
        <ele>80.9</ele>
        <time>2023-12-27T13:34:29Z</time>
      </trkpt>
      <trkpt lat="49.9498" lon="2.32752">
        <ele>80.9</ele>
        <time>2023-12-27T13:34:30Z</time>
      </trkpt>
      <trkpt lat="49.94982" lon="2.32752">
        <ele>80.8</ele>
        <time>2023-12-27T13:34:31Z</time>
      </trkpt>
      <trkpt lat="49.94983" lon="2.32753">
        <ele>80.8</ele>
        <time>2023-12-27T13:34:32Z</time>
      </trkpt>
      <trkpt lat="49.94985" lon="2.32752">
        <ele>80.8</ele>
        <time>2023-12-27T13:34:33Z</time>
      </trkpt>
      <trkpt lat="49.94986" lon="2.32752">
        <ele>80.8</ele>
        <time>2023-12-27T13:34:34Z</time>
      </trkpt>
      <trkpt lat="49.94987" lon="2.32752">
        <ele>80.8</ele>
        <time>2023-12-27T13:34:35Z</time>
      </trkpt>
      <trkpt lat="49.94988" lon="2.32752">
        <ele>80.7</ele>
        <time>2023-12-27T13:34:36Z</time>
      </trkpt>
      <trkpt lat="49.94989" lon="2.32752">
        <ele>80.7</ele>
        <time>2023-12-27T13:34:37Z</time>
      </trkpt>
      <trkpt lat="49.94991" lon="2.32752">
        <ele>80.7</ele>
        <time>2023-12-27T13:34:39Z</time>
      </trkpt>
      <trkpt lat="49.94993" lon="2.32752">
        <ele>80.7</ele>
        <time>2023-12-27T13:34:40Z</time>
      </trkpt>
      <trkpt lat="49.94994" lon="2.32752">
        <ele>80.6</ele>
        <time>2023-12-27T13:34:41Z</time>
      </trkpt>
      <trkpt lat="49.94994" lon="2.32752">
        <ele>80.6</ele>
        <time>2023-12-27T13:34:42Z</time>
      </trkpt>
      <trkpt lat="49.94996" lon="2.32752">
        <ele>80.6</ele>
        <time>2023-12-27T13:34:43Z</time>
      </trkpt>
      <trkpt lat="49.94997" lon="2.32753">
        <ele>80.6</ele>
        <time>2023-12-27T13:34:44Z</time>
      </trkpt>
      <trkpt lat="49.94998" lon="2.32753">
        <ele>80.6</ele>
        <time>2023-12-27T13:34:45Z</time>
      </trkpt>
      <trkpt lat="49.95" lon="2.32753">
        <ele>80.5</ele>
        <time>2023-12-27T13:34:46Z</time>
      </trkpt>
      <trkpt lat="49.95002" lon="2.32754">
        <ele>80.5</ele>
        <time>2023-12-27T13:34:47Z</time>
      </trkpt>
      <trkpt lat="49.95003" lon="2.32754">
        <ele>80.5</ele>
        <time>2023-12-27T13:34:49Z</time>
      </trkpt>
      <trkpt lat="49.95004" lon="2.32754">
        <ele>80.5</ele>
        <time>2023-12-27T13:34:50Z</time>
      </trkpt>
      <trkpt lat="49.95005" lon="2.32755">
        <ele>80.4</ele>
        <time>2023-12-27T13:34:51Z</time>
      </trkpt>
      <trkpt lat="49.95006" lon="2.32755">
        <ele>80.4</ele>
        <time>2023-12-27T13:34:52Z</time>
      </trkpt>
      <trkpt lat="49.95007" lon="2.32755">
        <ele>80.4</ele>
        <time>2023-12-27T13:34:53Z</time>
      </trkpt>
      <trkpt lat="49.95009" lon="2.32755">
        <ele>80.4</ele>
        <time>2023-12-27T13:34:54Z</time>
      </trkpt>
      <trkpt lat="49.9501" lon="2.32755">
        <ele>80.3</ele>
        <time>2023-12-27T13:34:56Z</time>
      </trkpt>
      <trkpt lat="49.95012" lon="2.32755">
        <ele>80.3</ele>
        <time>2023-12-27T13:34:57Z</time>
      </trkpt>
      <trkpt lat="49.95013" lon="2.32755">
        <ele>80.3</ele>
        <time>2023-12-27T13:34:58Z</time>
      </trkpt>
      <trkpt lat="49.95014" lon="2.32755">
        <ele>80.2</ele>
        <time>2023-12-27T13:34:59Z</time>
      </trkpt>
      <trkpt lat="49.95016" lon="2.32755">
        <ele>80.2</ele>
        <time>2023-12-27T13:35:00Z</time>
      </trkpt>
      <trkpt lat="49.95017" lon="2.32755">
        <ele>80.2</ele>
        <time>2023-12-27T13:35:01Z</time>
      </trkpt>
      <trkpt lat="49.95018" lon="2.32755">
        <ele>80.1</ele>
        <time>2023-12-27T13:35:02Z</time>
      </trkpt>
      <trkpt lat="49.9502" lon="2.32756">
        <ele>80.1</ele>
        <time>2023-12-27T13:35:04Z</time>
      </trkpt>
      <trkpt lat="49.95021" lon="2.32756">
        <ele>80.1</ele>
        <time>2023-12-27T13:35:05Z</time>
      </trkpt>
      <trkpt lat="49.95022" lon="2.32756">
        <ele>80</ele>
        <time>2023-12-27T13:35:06Z</time>
      </trkpt>
      <trkpt lat="49.95025" lon="2.32756">
        <ele>80</ele>
        <time>2023-12-27T13:35:08Z</time>
      </trkpt>
      <trkpt lat="49.95026" lon="2.32757">
        <ele>79.9</ele>
        <time>2023-12-27T13:35:09Z</time>
      </trkpt>
      <trkpt lat="49.95027" lon="2.32757">
        <ele>79.9</ele>
        <time>2023-12-27T13:35:10Z</time>
      </trkpt>
      <trkpt lat="49.95028" lon="2.32757">
        <ele>79.9</ele>
        <time>2023-12-27T13:35:11Z</time>
      </trkpt>
      <trkpt lat="49.95029" lon="2.32758">
        <ele>79.8</ele>
        <time>2023-12-27T13:35:12Z</time>
      </trkpt>
      <trkpt lat="49.95031" lon="2.32758">
        <ele>79.8</ele>
        <time>2023-12-27T13:35:13Z</time>
      </trkpt>
      <trkpt lat="49.95032" lon="2.32758">
        <ele>79.8</ele>
        <time>2023-12-27T13:35:14Z</time>
      </trkpt>
      <trkpt lat="49.95033" lon="2.32758">
        <ele>79.7</ele>
        <time>2023-12-27T13:35:15Z</time>
      </trkpt>
      <trkpt lat="49.95035" lon="2.32759">
        <ele>79.7</ele>
        <time>2023-12-27T13:35:16Z</time>
      </trkpt>
      <trkpt lat="49.95036" lon="2.32759">
        <ele>79.6</ele>
        <time>2023-12-27T13:35:18Z</time>
      </trkpt>
      <trkpt lat="49.95037" lon="2.32759">
        <ele>79.6</ele>
        <time>2023-12-27T13:35:19Z</time>
      </trkpt>
      <trkpt lat="49.9504" lon="2.32758">
        <ele>79.5</ele>
        <time>2023-12-27T13:35:20Z</time>
      </trkpt>
      <trkpt lat="49.95041" lon="2.32758">
        <ele>79.5</ele>
        <time>2023-12-27T13:35:21Z</time>
      </trkpt>
      <trkpt lat="49.95042" lon="2.32758">
        <ele>79.5</ele>
        <time>2023-12-27T13:35:22Z</time>
      </trkpt>
      <trkpt lat="49.95044" lon="2.32758">
        <ele>79.4</ele>
        <time>2023-12-27T13:35:24Z</time>
      </trkpt>
      <trkpt lat="49.95045" lon="2.32758">
        <ele>79.4</ele>
        <time>2023-12-27T13:35:25Z</time>
      </trkpt>
      <trkpt lat="49.95045" lon="2.32758">
        <ele>79.4</ele>
        <time>2023-12-27T13:35:26Z</time>
      </trkpt>
      <trkpt lat="49.95047" lon="2.32759">
        <ele>79.3</ele>
        <time>2023-12-27T13:35:27Z</time>
      </trkpt>
      <trkpt lat="49.95048" lon="2.3276">
        <ele>79.3</ele>
        <time>2023-12-27T13:35:28Z</time>
      </trkpt>
      <trkpt lat="49.95049" lon="2.3276">
        <ele>79.3</ele>
        <time>2023-12-27T13:35:29Z</time>
      </trkpt>
      <trkpt lat="49.9505" lon="2.32761">
        <ele>79.3</ele>
        <time>2023-12-27T13:35:30Z</time>
      </trkpt>
      <trkpt lat="49.95052" lon="2.32762">
        <ele>79.2</ele>
        <time>2023-12-27T13:35:31Z</time>
      </trkpt>
      <trkpt lat="49.95054" lon="2.32762">
        <ele>79.2</ele>
        <time>2023-12-27T13:35:33Z</time>
      </trkpt>
      <trkpt lat="49.95055" lon="2.32763">
        <ele>79.2</ele>
        <time>2023-12-27T13:35:35Z</time>
      </trkpt>
      <trkpt lat="49.95056" lon="2.32763">
        <ele>79.2</ele>
        <time>2023-12-27T13:35:36Z</time>
      </trkpt>
      <trkpt lat="49.95058" lon="2.32763">
        <ele>79.1</ele>
        <time>2023-12-27T13:35:37Z</time>
      </trkpt>
      <trkpt lat="49.95059" lon="2.32763">
        <ele>79.1</ele>
        <time>2023-12-27T13:35:38Z</time>
      </trkpt>
      <trkpt lat="49.95061" lon="2.32763">
        <ele>79.1</ele>
        <time>2023-12-27T13:35:39Z</time>
      </trkpt>
      <trkpt lat="49.95062" lon="2.32763">
        <ele>79</ele>
        <time>2023-12-27T13:35:40Z</time>
      </trkpt>
      <trkpt lat="49.95064" lon="2.32764">
        <ele>79</ele>
        <time>2023-12-27T13:35:41Z</time>
      </trkpt>
      <trkpt lat="49.95065" lon="2.32764">
        <ele>79</ele>
        <time>2023-12-27T13:35:42Z</time>
      </trkpt>
      <trkpt lat="49.95066" lon="2.32764">
        <ele>79</ele>
        <time>2023-12-27T13:35:43Z</time>
      </trkpt>
      <trkpt lat="49.95068" lon="2.32764">
        <ele>78.9</ele>
        <time>2023-12-27T13:35:45Z</time>
      </trkpt>
      <trkpt lat="49.95069" lon="2.32765">
        <ele>78.9</ele>
        <time>2023-12-27T13:35:46Z</time>
      </trkpt>
      <trkpt lat="49.9507" lon="2.32765">
        <ele>78.9</ele>
        <time>2023-12-27T13:35:47Z</time>
      </trkpt>
      <trkpt lat="49.95072" lon="2.32765">
        <ele>78.8</ele>
        <time>2023-12-27T13:35:48Z</time>
      </trkpt>
      <trkpt lat="49.95073" lon="2.32765">
        <ele>78.8</ele>
        <time>2023-12-27T13:35:49Z</time>
      </trkpt>
      <trkpt lat="49.95073" lon="2.32766">
        <ele>78.8</ele>
        <time>2023-12-27T13:35:50Z</time>
      </trkpt>
      <trkpt lat="49.95076" lon="2.32765">
        <ele>78.7</ele>
        <time>2023-12-27T13:35:51Z</time>
      </trkpt>
      <trkpt lat="49.95076" lon="2.32765">
        <ele>78.7</ele>
        <time>2023-12-27T13:35:53Z</time>
      </trkpt>
      <trkpt lat="49.95077" lon="2.32765">
        <ele>78.6</ele>
        <time>2023-12-27T13:35:54Z</time>
      </trkpt>
      <trkpt lat="49.95079" lon="2.32765">
        <ele>78.6</ele>
        <time>2023-12-27T13:35:55Z</time>
      </trkpt>
      <trkpt lat="49.9508" lon="2.32765">
        <ele>78.5</ele>
        <time>2023-12-27T13:35:56Z</time>
      </trkpt>
      <trkpt lat="49.95081" lon="2.32765">
        <ele>78.5</ele>
        <time>2023-12-27T13:35:57Z</time>
      </trkpt>
      <trkpt lat="49.95083" lon="2.32766">
        <ele>78.4</ele>
        <time>2023-12-27T13:35:59Z</time>
      </trkpt>
      <trkpt lat="49.95084" lon="2.32766">
        <ele>78.4</ele>
        <time>2023-12-27T13:36:00Z</time>
      </trkpt>
      <trkpt lat="49.95085" lon="2.32766">
        <ele>78.4</ele>
        <time>2023-12-27T13:36:01Z</time>
      </trkpt>
      <trkpt lat="49.95086" lon="2.32766">
        <ele>78.3</ele>
        <time>2023-12-27T13:36:02Z</time>
      </trkpt>
      <trkpt lat="49.95087" lon="2.32765">
        <ele>78.3</ele>
        <time>2023-12-27T13:36:03Z</time>
      </trkpt>
      <trkpt lat="49.95088" lon="2.32765">
        <ele>78.2</ele>
        <time>2023-12-27T13:36:04Z</time>
      </trkpt>
      <trkpt lat="49.95089" lon="2.32764">
        <ele>78.2</ele>
        <time>2023-12-27T13:36:05Z</time>
      </trkpt>
      <trkpt lat="49.9509" lon="2.32764">
        <ele>78.1</ele>
        <time>2023-12-27T13:36:07Z</time>
      </trkpt>
      <trkpt lat="49.95091" lon="2.32765">
        <ele>78.1</ele>
        <time>2023-12-27T13:36:08Z</time>
      </trkpt>
      <trkpt lat="49.95092" lon="2.32765">
        <ele>78</ele>
        <time>2023-12-27T13:36:09Z</time>
      </trkpt>
      <trkpt lat="49.95093" lon="2.32766">
        <ele>78</ele>
        <time>2023-12-27T13:36:10Z</time>
      </trkpt>
      <trkpt lat="49.95093" lon="2.32766">
        <ele>77.9</ele>
        <time>2023-12-27T13:36:11Z</time>
      </trkpt>
      <trkpt lat="49.95094" lon="2.32767">
        <ele>77.9</ele>
        <time>2023-12-27T13:36:12Z</time>
      </trkpt>
      <trkpt lat="49.95095" lon="2.32768">
        <ele>77.9</ele>
        <time>2023-12-27T13:36:14Z</time>
      </trkpt>
      <trkpt lat="49.95096" lon="2.32768">
        <ele>77.8</ele>
        <time>2023-12-27T13:36:15Z</time>
      </trkpt>
      <trkpt lat="49.95097" lon="2.32769">
        <ele>77.8</ele>
        <time>2023-12-27T13:36:16Z</time>
      </trkpt>
      <trkpt lat="49.95097" lon="2.32769">
        <ele>77.7</ele>
        <time>2023-12-27T13:36:17Z</time>
      </trkpt>
      <trkpt lat="49.95098" lon="2.3277">
        <ele>77.7</ele>
        <time>2023-12-27T13:36:18Z</time>
      </trkpt>
      <trkpt lat="49.95099" lon="2.3277">
        <ele>77.6</ele>
        <time>2023-12-27T13:36:19Z</time>
      </trkpt>
      <trkpt lat="49.95101" lon="2.3277">
        <ele>77.6</ele>
        <time>2023-12-27T13:36:20Z</time>
      </trkpt>
      <trkpt lat="49.95102" lon="2.32771">
        <ele>77.5</ele>
        <time>2023-12-27T13:36:22Z</time>
      </trkpt>
      <trkpt lat="49.95103" lon="2.32771">
        <ele>77.5</ele>
        <time>2023-12-27T13:36:23Z</time>
      </trkpt>
      <trkpt lat="49.95104" lon="2.32772">
        <ele>77.4</ele>
        <time>2023-12-27T13:36:24Z</time>
      </trkpt>
      <trkpt lat="49.95105" lon="2.32772">
        <ele>77.4</ele>
        <time>2023-12-27T13:36:25Z</time>
      </trkpt>
      <trkpt lat="49.95106" lon="2.32773">
        <ele>77.3</ele>
        <time>2023-12-27T13:36:26Z</time>
      </trkpt>
      <trkpt lat="49.95108" lon="2.32773">
        <ele>77.3</ele>
        <time>2023-12-27T13:36:27Z</time>
      </trkpt>
      <trkpt lat="49.95109" lon="2.32774">
        <ele>77.2</ele>
        <time>2023-12-27T13:36:28Z</time>
      </trkpt>
      <trkpt lat="49.9511" lon="2.32775">
        <ele>77.1</ele>
        <time>2023-12-27T13:36:30Z</time>
      </trkpt>
      <trkpt lat="49.95111" lon="2.32775">
        <ele>77.1</ele>
        <time>2023-12-27T13:36:31Z</time>
      </trkpt>
      <trkpt lat="49.95112" lon="2.32775">
        <ele>77</ele>
        <time>2023-12-27T13:36:32Z</time>
      </trkpt>
      <trkpt lat="49.95113" lon="2.32776">
        <ele>77</ele>
        <time>2023-12-27T13:36:33Z</time>
      </trkpt>
      <trkpt lat="49.95115" lon="2.32777">
        <ele>76.9</ele>
        <time>2023-12-27T13:36:34Z</time>
      </trkpt>
      <trkpt lat="49.95116" lon="2.32777">
        <ele>76.9</ele>
        <time>2023-12-27T13:36:35Z</time>
      </trkpt>
      <trkpt lat="49.95117" lon="2.32777">
        <ele>76.8</ele>
        <time>2023-12-27T13:36:36Z</time>
      </trkpt>
      <trkpt lat="49.95119" lon="2.32778">
        <ele>76.7</ele>
        <time>2023-12-27T13:36:37Z</time>
      </trkpt>
      <trkpt lat="49.9512" lon="2.32779">
        <ele>76.7</ele>
        <time>2023-12-27T13:36:39Z</time>
      </trkpt>
      <trkpt lat="49.95121" lon="2.32779">
        <ele>76.6</ele>
        <time>2023-12-27T13:36:40Z</time>
      </trkpt>
      <trkpt lat="49.95122" lon="2.3278">
        <ele>76.6</ele>
        <time>2023-12-27T13:36:41Z</time>
      </trkpt>
      <trkpt lat="49.95123" lon="2.3278">
        <ele>76.5</ele>
        <time>2023-12-27T13:36:42Z</time>
      </trkpt>
      <trkpt lat="49.95125" lon="2.32781">
        <ele>76.4</ele>
        <time>2023-12-27T13:36:43Z</time>
      </trkpt>
      <trkpt lat="49.95126" lon="2.32781">
        <ele>76.4</ele>
        <time>2023-12-27T13:36:44Z</time>
      </trkpt>
      <trkpt lat="49.95127" lon="2.32782">
        <ele>76.4</ele>
        <time>2023-12-27T13:36:45Z</time>
      </trkpt>
      <trkpt lat="49.95129" lon="2.32782">
        <ele>76.3</ele>
        <time>2023-12-27T13:36:47Z</time>
      </trkpt>
      <trkpt lat="49.9513" lon="2.32783">
        <ele>76.2</ele>
        <time>2023-12-27T13:36:48Z</time>
      </trkpt>
      <trkpt lat="49.95131" lon="2.32783">
        <ele>76.2</ele>
        <time>2023-12-27T13:36:49Z</time>
      </trkpt>
      <trkpt lat="49.95133" lon="2.32784">
        <ele>76.1</ele>
        <time>2023-12-27T13:36:50Z</time>
      </trkpt>
      <trkpt lat="49.95134" lon="2.32784">
        <ele>76.1</ele>
        <time>2023-12-27T13:36:51Z</time>
      </trkpt>
      <trkpt lat="49.95134" lon="2.32785">
        <ele>76.1</ele>
        <time>2023-12-27T13:36:52Z</time>
      </trkpt>
      <trkpt lat="49.95136" lon="2.32785">
        <ele>76</ele>
        <time>2023-12-27T13:36:53Z</time>
      </trkpt>
      <trkpt lat="49.95137" lon="2.32786">
        <ele>76</ele>
        <time>2023-12-27T13:36:54Z</time>
      </trkpt>
      <trkpt lat="49.95139" lon="2.32787">
        <ele>75.9</ele>
        <time>2023-12-27T13:36:56Z</time>
      </trkpt>
      <trkpt lat="49.9514" lon="2.32787">
        <ele>75.9</ele>
        <time>2023-12-27T13:36:57Z</time>
      </trkpt>
      <trkpt lat="49.95141" lon="2.32787">
        <ele>75.8</ele>
        <time>2023-12-27T13:36:58Z</time>
      </trkpt>
      <trkpt lat="49.95143" lon="2.32788">
        <ele>75.8</ele>
        <time>2023-12-27T13:36:59Z</time>
      </trkpt>
      <trkpt lat="49.95144" lon="2.32788">
        <ele>75.7</ele>
        <time>2023-12-27T13:37:00Z</time>
      </trkpt>
      <trkpt lat="49.95145" lon="2.32789">
        <ele>75.7</ele>
        <time>2023-12-27T13:37:01Z</time>
      </trkpt>
      <trkpt lat="49.95146" lon="2.32789">
        <ele>75.6</ele>
        <time>2023-12-27T13:37:02Z</time>
      </trkpt>
      <trkpt lat="49.95148" lon="2.3279">
        <ele>75.6</ele>
        <time>2023-12-27T13:37:04Z</time>
      </trkpt>
      <trkpt lat="49.95149" lon="2.3279">
        <ele>75.5</ele>
        <time>2023-12-27T13:37:05Z</time>
      </trkpt>
      <trkpt lat="49.95151" lon="2.32791">
        <ele>75.5</ele>
        <time>2023-12-27T13:37:06Z</time>
      </trkpt>
      <trkpt lat="49.95152" lon="2.32792">
        <ele>75.4</ele>
        <time>2023-12-27T13:37:07Z</time>
      </trkpt>
      <trkpt lat="49.95153" lon="2.32793">
        <ele>75.4</ele>
        <time>2023-12-27T13:37:08Z</time>
      </trkpt>
      <trkpt lat="49.95155" lon="2.32794">
        <ele>75.3</ele>
        <time>2023-12-27T13:37:09Z</time>
      </trkpt>
      <trkpt lat="49.95156" lon="2.32794">
        <ele>75.3</ele>
        <time>2023-12-27T13:37:10Z</time>
      </trkpt>
      <trkpt lat="49.95159" lon="2.32796">
        <ele>75.2</ele>
        <time>2023-12-27T13:37:11Z</time>
      </trkpt>
      <trkpt lat="49.9516" lon="2.32797">
        <ele>75.2</ele>
        <time>2023-12-27T13:37:13Z</time>
      </trkpt>
      <trkpt lat="49.95161" lon="2.32798">
        <ele>75.2</ele>
        <time>2023-12-27T13:37:14Z</time>
      </trkpt>
      <trkpt lat="49.95162" lon="2.32798">
        <ele>75.1</ele>
        <time>2023-12-27T13:37:15Z</time>
      </trkpt>
      <trkpt lat="49.95163" lon="2.32799">
        <ele>75.1</ele>
        <time>2023-12-27T13:37:16Z</time>
      </trkpt>
      <trkpt lat="49.95164" lon="2.328">
        <ele>75.1</ele>
        <time>2023-12-27T13:37:17Z</time>
      </trkpt>
      <trkpt lat="49.95165" lon="2.32801">
        <ele>75.1</ele>
        <time>2023-12-27T13:37:18Z</time>
      </trkpt>
      <trkpt lat="49.95166" lon="2.32803">
        <ele>75</ele>
        <time>2023-12-27T13:37:19Z</time>
      </trkpt>
      <trkpt lat="49.95167" lon="2.32804">
        <ele>75</ele>
        <time>2023-12-27T13:37:20Z</time>
      </trkpt>
      <trkpt lat="49.95168" lon="2.32805">
        <ele>75</ele>
        <time>2023-12-27T13:37:22Z</time>
      </trkpt>
      <trkpt lat="49.95169" lon="2.32807">
        <ele>75</ele>
        <time>2023-12-27T13:37:23Z</time>
      </trkpt>
      <trkpt lat="49.9517" lon="2.32809">
        <ele>74.9</ele>
        <time>2023-12-27T13:37:24Z</time>
      </trkpt>
      <trkpt lat="49.95171" lon="2.3281">
        <ele>74.9</ele>
        <time>2023-12-27T13:37:25Z</time>
      </trkpt>
      <trkpt lat="49.95172" lon="2.32813">
        <ele>74.9</ele>
        <time>2023-12-27T13:37:26Z</time>
      </trkpt>
      <trkpt lat="49.95173" lon="2.32814">
        <ele>74.9</ele>
        <time>2023-12-27T13:37:27Z</time>
      </trkpt>
      <trkpt lat="49.95174" lon="2.32815">
        <ele>74.8</ele>
        <time>2023-12-27T13:37:28Z</time>
      </trkpt>
      <trkpt lat="49.95175" lon="2.32816">
        <ele>74.8</ele>
        <time>2023-12-27T13:37:29Z</time>
      </trkpt>
      <trkpt lat="49.95176" lon="2.32818">
        <ele>74.8</ele>
        <time>2023-12-27T13:37:30Z</time>
      </trkpt>
      <trkpt lat="49.95177" lon="2.3282">
        <ele>74.8</ele>
        <time>2023-12-27T13:37:32Z</time>
      </trkpt>
      <trkpt lat="49.95178" lon="2.32821">
        <ele>74.8</ele>
        <time>2023-12-27T13:37:33Z</time>
      </trkpt>
      <trkpt lat="49.95179" lon="2.32824">
        <ele>74.7</ele>
        <time>2023-12-27T13:37:34Z</time>
      </trkpt>
      <trkpt lat="49.95179" lon="2.32825">
        <ele>74.7</ele>
        <time>2023-12-27T13:37:35Z</time>
      </trkpt>
      <trkpt lat="49.9518" lon="2.32826">
        <ele>74.7</ele>
        <time>2023-12-27T13:37:36Z</time>
      </trkpt>
      <trkpt lat="49.95181" lon="2.32828">
        <ele>74.7</ele>
        <time>2023-12-27T13:37:37Z</time>
      </trkpt>
      <trkpt lat="49.95181" lon="2.32829">
        <ele>74.7</ele>
        <time>2023-12-27T13:37:38Z</time>
      </trkpt>
      <trkpt lat="49.95182" lon="2.32831">
        <ele>74.7</ele>
        <time>2023-12-27T13:37:39Z</time>
      </trkpt>
      <trkpt lat="49.95183" lon="2.32833">
        <ele>74.7</ele>
        <time>2023-12-27T13:37:41Z</time>
      </trkpt>
      <trkpt lat="49.95184" lon="2.32834">
        <ele>74.7</ele>
        <time>2023-12-27T13:37:42Z</time>
      </trkpt>
      <trkpt lat="49.95184" lon="2.32835">
        <ele>74.7</ele>
        <time>2023-12-27T13:37:43Z</time>
      </trkpt>
      <trkpt lat="49.95185" lon="2.32836">
        <ele>74.7</ele>
        <time>2023-12-27T13:37:44Z</time>
      </trkpt>
      <trkpt lat="49.95185" lon="2.32838">
        <ele>74.7</ele>
        <time>2023-12-27T13:37:45Z</time>
      </trkpt>
      <trkpt lat="49.95186" lon="2.32839">
        <ele>74.7</ele>
        <time>2023-12-27T13:37:46Z</time>
      </trkpt>
      <trkpt lat="49.95188" lon="2.32842">
        <ele>74.7</ele>
        <time>2023-12-27T13:37:47Z</time>
      </trkpt>
      <trkpt lat="49.95188" lon="2.32843">
        <ele>74.7</ele>
        <time>2023-12-27T13:37:49Z</time>
      </trkpt>
      <trkpt lat="49.95189" lon="2.32844">
        <ele>74.7</ele>
        <time>2023-12-27T13:37:50Z</time>
      </trkpt>
      <trkpt lat="49.9519" lon="2.32845">
        <ele>74.7</ele>
        <time>2023-12-27T13:37:51Z</time>
      </trkpt>
      <trkpt lat="49.9519" lon="2.32846">
        <ele>74.7</ele>
        <time>2023-12-27T13:37:53Z</time>
      </trkpt>
      <trkpt lat="49.95191" lon="2.32847">
        <ele>74.7</ele>
        <time>2023-12-27T13:37:54Z</time>
      </trkpt>
      <trkpt lat="49.95193" lon="2.3285">
        <ele>74.7</ele>
        <time>2023-12-27T13:37:55Z</time>
      </trkpt>
      <trkpt lat="49.95193" lon="2.32851">
        <ele>74.7</ele>
        <time>2023-12-27T13:37:56Z</time>
      </trkpt>
      <trkpt lat="49.95194" lon="2.32852">
        <ele>74.7</ele>
        <time>2023-12-27T13:37:57Z</time>
      </trkpt>
      <trkpt lat="49.95195" lon="2.32854">
        <ele>74.7</ele>
        <time>2023-12-27T13:37:58Z</time>
      </trkpt>
      <trkpt lat="49.95196" lon="2.32855">
        <ele>74.7</ele>
        <time>2023-12-27T13:37:59Z</time>
      </trkpt>
      <trkpt lat="49.95197" lon="2.32858">
        <ele>74.7</ele>
        <time>2023-12-27T13:38:01Z</time>
      </trkpt>
      <trkpt lat="49.95198" lon="2.32859">
        <ele>74.7</ele>
        <time>2023-12-27T13:38:02Z</time>
      </trkpt>
      <trkpt lat="49.95198" lon="2.3286">
        <ele>74.7</ele>
        <time>2023-12-27T13:38:03Z</time>
      </trkpt>
      <trkpt lat="49.95199" lon="2.32861">
        <ele>74.7</ele>
        <time>2023-12-27T13:38:04Z</time>
      </trkpt>
      <trkpt lat="49.952" lon="2.32862">
        <ele>74.7</ele>
        <time>2023-12-27T13:38:05Z</time>
      </trkpt>
      <trkpt lat="49.95201" lon="2.32864">
        <ele>74.7</ele>
        <time>2023-12-27T13:38:06Z</time>
      </trkpt>
      <trkpt lat="49.95203" lon="2.32865">
        <ele>74.7</ele>
        <time>2023-12-27T13:38:07Z</time>
      </trkpt>
      <trkpt lat="49.95204" lon="2.32866">
        <ele>74.7</ele>
        <time>2023-12-27T13:38:09Z</time>
      </trkpt>
      <trkpt lat="49.95206" lon="2.32867">
        <ele>74.7</ele>
        <time>2023-12-27T13:38:10Z</time>
      </trkpt>
      <trkpt lat="49.95207" lon="2.32868">
        <ele>74.7</ele>
        <time>2023-12-27T13:38:11Z</time>
      </trkpt>
      <trkpt lat="49.95208" lon="2.32868">
        <ele>74.7</ele>
        <time>2023-12-27T13:38:12Z</time>
      </trkpt>
      <trkpt lat="49.9521" lon="2.32869">
        <ele>74.7</ele>
        <time>2023-12-27T13:38:13Z</time>
      </trkpt>
      <trkpt lat="49.95211" lon="2.32869">
        <ele>74.7</ele>
        <time>2023-12-27T13:38:14Z</time>
      </trkpt>
      <trkpt lat="49.95211" lon="2.32869">
        <ele>74.7</ele>
        <time>2023-12-27T13:38:15Z</time>
      </trkpt>
      <trkpt lat="49.95213" lon="2.3287">
        <ele>74.7</ele>
        <time>2023-12-27T13:38:17Z</time>
      </trkpt>
      <trkpt lat="49.95214" lon="2.3287">
        <ele>74.7</ele>
        <time>2023-12-27T13:38:18Z</time>
      </trkpt>
      <trkpt lat="49.95215" lon="2.3287">
        <ele>74.7</ele>
        <time>2023-12-27T13:38:19Z</time>
      </trkpt>
      <trkpt lat="49.95217" lon="2.3287">
        <ele>74.7</ele>
        <time>2023-12-27T13:38:20Z</time>
      </trkpt>
      <trkpt lat="49.95218" lon="2.3287">
        <ele>74.7</ele>
        <time>2023-12-27T13:38:21Z</time>
      </trkpt>
      <trkpt lat="49.95219" lon="2.32871">
        <ele>74.7</ele>
        <time>2023-12-27T13:38:22Z</time>
      </trkpt>
      <trkpt lat="49.95221" lon="2.32871">
        <ele>74.7</ele>
        <time>2023-12-27T13:38:23Z</time>
      </trkpt>
      <trkpt lat="49.95222" lon="2.32871">
        <ele>74.8</ele>
        <time>2023-12-27T13:38:25Z</time>
      </trkpt>
      <trkpt lat="49.95223" lon="2.32871">
        <ele>74.8</ele>
        <time>2023-12-27T13:38:26Z</time>
      </trkpt>
      <trkpt lat="49.95224" lon="2.32872">
        <ele>74.8</ele>
        <time>2023-12-27T13:38:27Z</time>
      </trkpt>
      <trkpt lat="49.95225" lon="2.32872">
        <ele>74.8</ele>
        <time>2023-12-27T13:38:28Z</time>
      </trkpt>
      <trkpt lat="49.95227" lon="2.32872">
        <ele>74.8</ele>
        <time>2023-12-27T13:38:29Z</time>
      </trkpt>
      <trkpt lat="49.95228" lon="2.32872">
        <ele>74.8</ele>
        <time>2023-12-27T13:38:30Z</time>
      </trkpt>
      <trkpt lat="49.9523" lon="2.32873">
        <ele>74.9</ele>
        <time>2023-12-27T13:38:32Z</time>
      </trkpt>
      <trkpt lat="49.95231" lon="2.32873">
        <ele>74.9</ele>
        <time>2023-12-27T13:38:33Z</time>
      </trkpt>
      <trkpt lat="49.95232" lon="2.32873">
        <ele>74.9</ele>
        <time>2023-12-27T13:38:34Z</time>
      </trkpt>
      <trkpt lat="49.95234" lon="2.32873">
        <ele>75</ele>
        <time>2023-12-27T13:38:35Z</time>
      </trkpt>
      <trkpt lat="49.95235" lon="2.32873">
        <ele>75</ele>
        <time>2023-12-27T13:38:36Z</time>
      </trkpt>
      <trkpt lat="49.95236" lon="2.32873">
        <ele>75</ele>
        <time>2023-12-27T13:38:37Z</time>
      </trkpt>
      <trkpt lat="49.95237" lon="2.32873">
        <ele>75</ele>
        <time>2023-12-27T13:38:38Z</time>
      </trkpt>
      <trkpt lat="49.95238" lon="2.32873">
        <ele>75</ele>
        <time>2023-12-27T13:38:40Z</time>
      </trkpt>
      <trkpt lat="49.95239" lon="2.32874">
        <ele>75.1</ele>
        <time>2023-12-27T13:38:41Z</time>
      </trkpt>
      <trkpt lat="49.9524" lon="2.32874">
        <ele>75.1</ele>
        <time>2023-12-27T13:38:42Z</time>
      </trkpt>
      <trkpt lat="49.95241" lon="2.32874">
        <ele>75.1</ele>
        <time>2023-12-27T13:38:43Z</time>
      </trkpt>
      <trkpt lat="49.95242" lon="2.32874">
        <ele>75.1</ele>
        <time>2023-12-27T13:38:44Z</time>
      </trkpt>
      <trkpt lat="49.95244" lon="2.32874">
        <ele>75.1</ele>
        <time>2023-12-27T13:38:45Z</time>
      </trkpt>
      <trkpt lat="49.95245" lon="2.32874">
        <ele>75.2</ele>
        <time>2023-12-27T13:38:47Z</time>
      </trkpt>
      <trkpt lat="49.95246" lon="2.32874">
        <ele>75.2</ele>
        <time>2023-12-27T13:38:48Z</time>
      </trkpt>
      <trkpt lat="49.95248" lon="2.32874">
        <ele>75.2</ele>
        <time>2023-12-27T13:38:49Z</time>
      </trkpt>
      <trkpt lat="49.95249" lon="2.32874">
        <ele>75.2</ele>
        <time>2023-12-27T13:38:50Z</time>
      </trkpt>
      <trkpt lat="49.9525" lon="2.32874">
        <ele>75.2</ele>
        <time>2023-12-27T13:38:51Z</time>
      </trkpt>
      <trkpt lat="49.95252" lon="2.32874">
        <ele>75.3</ele>
        <time>2023-12-27T13:38:52Z</time>
      </trkpt>
      <trkpt lat="49.95253" lon="2.32874">
        <ele>75.3</ele>
        <time>2023-12-27T13:38:54Z</time>
      </trkpt>
      <trkpt lat="49.95254" lon="2.32874">
        <ele>75.3</ele>
        <time>2023-12-27T13:38:55Z</time>
      </trkpt>
      <trkpt lat="49.95256" lon="2.32874">
        <ele>75.4</ele>
        <time>2023-12-27T13:38:56Z</time>
      </trkpt>
      <trkpt lat="49.95257" lon="2.32873">
        <ele>75.4</ele>
        <time>2023-12-27T13:38:57Z</time>
      </trkpt>
      <trkpt lat="49.95258" lon="2.32873">
        <ele>75.4</ele>
        <time>2023-12-27T13:38:58Z</time>
      </trkpt>
      <trkpt lat="49.95259" lon="2.32873">
        <ele>75.4</ele>
        <time>2023-12-27T13:38:59Z</time>
      </trkpt>
      <trkpt lat="49.9526" lon="2.32873">
        <ele>75.5</ele>
        <time>2023-12-27T13:39:00Z</time>
      </trkpt>
      <trkpt lat="49.95261" lon="2.32873">
        <ele>75.5</ele>
        <time>2023-12-27T13:39:02Z</time>
      </trkpt>
      <trkpt lat="49.95264" lon="2.32873">
        <ele>75.6</ele>
        <time>2023-12-27T13:39:03Z</time>
      </trkpt>
      <trkpt lat="49.95264" lon="2.32873">
        <ele>75.6</ele>
        <time>2023-12-27T13:39:04Z</time>
      </trkpt>
      <trkpt lat="49.95265" lon="2.32873">
        <ele>75.6</ele>
        <time>2023-12-27T13:39:05Z</time>
      </trkpt>
      <trkpt lat="49.95267" lon="2.32873">
        <ele>75.6</ele>
        <time>2023-12-27T13:39:06Z</time>
      </trkpt>
      <trkpt lat="49.95268" lon="2.32873">
        <ele>75.7</ele>
        <time>2023-12-27T13:39:07Z</time>
      </trkpt>
      <trkpt lat="49.95269" lon="2.32873">
        <ele>75.7</ele>
        <time>2023-12-27T13:39:09Z</time>
      </trkpt>
      <trkpt lat="49.95271" lon="2.32873">
        <ele>75.7</ele>
        <time>2023-12-27T13:39:10Z</time>
      </trkpt>
      <trkpt lat="49.95272" lon="2.32873">
        <ele>75.8</ele>
        <time>2023-12-27T13:39:11Z</time>
      </trkpt>
      <trkpt lat="49.95273" lon="2.32873">
        <ele>75.8</ele>
        <time>2023-12-27T13:39:12Z</time>
      </trkpt>
      <trkpt lat="49.95275" lon="2.32872">
        <ele>75.8</ele>
        <time>2023-12-27T13:39:14Z</time>
      </trkpt>
      <trkpt lat="49.95276" lon="2.32872">
        <ele>75.9</ele>
        <time>2023-12-27T13:39:15Z</time>
      </trkpt>
      <trkpt lat="49.95278" lon="2.32871">
        <ele>75.9</ele>
        <time>2023-12-27T13:39:16Z</time>
      </trkpt>
      <trkpt lat="49.95279" lon="2.32871">
        <ele>75.9</ele>
        <time>2023-12-27T13:39:17Z</time>
      </trkpt>
      <trkpt lat="49.9528" lon="2.32871">
        <ele>75.9</ele>
        <time>2023-12-27T13:39:18Z</time>
      </trkpt>
      <trkpt lat="49.95282" lon="2.32869">
        <ele>76</ele>
        <time>2023-12-27T13:39:19Z</time>
      </trkpt>
      <trkpt lat="49.95283" lon="2.32869">
        <ele>76</ele>
        <time>2023-12-27T13:39:21Z</time>
      </trkpt>
      <trkpt lat="49.95284" lon="2.32868">
        <ele>76</ele>
        <time>2023-12-27T13:39:22Z</time>
      </trkpt>
      <trkpt lat="49.95285" lon="2.32868">
        <ele>76.1</ele>
        <time>2023-12-27T13:39:23Z</time>
      </trkpt>
      <trkpt lat="49.95286" lon="2.32867">
        <ele>76.1</ele>
        <time>2023-12-27T13:39:24Z</time>
      </trkpt>
      <trkpt lat="49.95288" lon="2.32866">
        <ele>76.2</ele>
        <time>2023-12-27T13:39:25Z</time>
      </trkpt>
      <trkpt lat="49.95289" lon="2.32865">
        <ele>76.2</ele>
        <time>2023-12-27T13:39:27Z</time>
      </trkpt>
      <trkpt lat="49.9529" lon="2.32865">
        <ele>76.2</ele>
        <time>2023-12-27T13:39:28Z</time>
      </trkpt>
      <trkpt lat="49.95291" lon="2.32863">
        <ele>76.3</ele>
        <time>2023-12-27T13:39:29Z</time>
      </trkpt>
      <trkpt lat="49.95292" lon="2.32863">
        <ele>76.3</ele>
        <time>2023-12-27T13:39:30Z</time>
      </trkpt>
      <trkpt lat="49.95293" lon="2.32862">
        <ele>76.3</ele>
        <time>2023-12-27T13:39:31Z</time>
      </trkpt>
      <trkpt lat="49.95294" lon="2.32861">
        <ele>76.3</ele>
        <time>2023-12-27T13:39:32Z</time>
      </trkpt>
      <trkpt lat="49.95295" lon="2.3286">
        <ele>76.4</ele>
        <time>2023-12-27T13:39:33Z</time>
      </trkpt>
      <trkpt lat="49.95298" lon="2.3286">
        <ele>76.4</ele>
        <time>2023-12-27T13:39:35Z</time>
      </trkpt>
      <trkpt lat="49.95298" lon="2.32859">
        <ele>76.5</ele>
        <time>2023-12-27T13:39:36Z</time>
      </trkpt>
      <trkpt lat="49.95299" lon="2.32859">
        <ele>76.5</ele>
        <time>2023-12-27T13:39:37Z</time>
      </trkpt>
      <trkpt lat="49.953" lon="2.32859">
        <ele>76.5</ele>
        <time>2023-12-27T13:39:38Z</time>
      </trkpt>
      <trkpt lat="49.95301" lon="2.32858">
        <ele>76.5</ele>
        <time>2023-12-27T13:39:39Z</time>
      </trkpt>
      <trkpt lat="49.95303" lon="2.32858">
        <ele>76.6</ele>
        <time>2023-12-27T13:39:40Z</time>
      </trkpt>
      <trkpt lat="49.95305" lon="2.32857">
        <ele>76.6</ele>
        <time>2023-12-27T13:39:42Z</time>
      </trkpt>
      <trkpt lat="49.95305" lon="2.32857">
        <ele>76.7</ele>
        <time>2023-12-27T13:39:43Z</time>
      </trkpt>
      <trkpt lat="49.95306" lon="2.32857">
        <ele>76.7</ele>
        <time>2023-12-27T13:39:44Z</time>
      </trkpt>
      <trkpt lat="49.95307" lon="2.32856">
        <ele>76.7</ele>
        <time>2023-12-27T13:39:45Z</time>
      </trkpt>
      <trkpt lat="49.95308" lon="2.32856">
        <ele>76.8</ele>
        <time>2023-12-27T13:39:46Z</time>
      </trkpt>
      <trkpt lat="49.9531" lon="2.32855">
        <ele>76.8</ele>
        <time>2023-12-27T13:39:47Z</time>
      </trkpt>
      <trkpt lat="49.95312" lon="2.32854">
        <ele>76.9</ele>
        <time>2023-12-27T13:39:48Z</time>
      </trkpt>
      <trkpt lat="49.95312" lon="2.32854">
        <ele>76.9</ele>
        <time>2023-12-27T13:39:50Z</time>
      </trkpt>
      <trkpt lat="49.95313" lon="2.32853">
        <ele>76.9</ele>
        <time>2023-12-27T13:39:51Z</time>
      </trkpt>
      <trkpt lat="49.95314" lon="2.32853">
        <ele>77</ele>
        <time>2023-12-27T13:39:52Z</time>
      </trkpt>
      <trkpt lat="49.95315" lon="2.32853">
        <ele>77</ele>
        <time>2023-12-27T13:39:53Z</time>
      </trkpt>
      <trkpt lat="49.95317" lon="2.32852">
        <ele>77</ele>
        <time>2023-12-27T13:39:54Z</time>
      </trkpt>
      <trkpt lat="49.95318" lon="2.32852">
        <ele>77.1</ele>
        <time>2023-12-27T13:39:56Z</time>
      </trkpt>
      <trkpt lat="49.95319" lon="2.32851">
        <ele>77.1</ele>
        <time>2023-12-27T13:39:57Z</time>
      </trkpt>
      <trkpt lat="49.9532" lon="2.32851">
        <ele>77.1</ele>
        <time>2023-12-27T13:39:58Z</time>
      </trkpt>
      <trkpt lat="49.95321" lon="2.3285">
        <ele>77.2</ele>
        <time>2023-12-27T13:39:59Z</time>
      </trkpt>
      <trkpt lat="49.95322" lon="2.32849">
        <ele>77.2</ele>
        <time>2023-12-27T13:40:00Z</time>
      </trkpt>
      <trkpt lat="49.95323" lon="2.32849">
        <ele>77.3</ele>
        <time>2023-12-27T13:40:01Z</time>
      </trkpt>
      <trkpt lat="49.95324" lon="2.32848">
        <ele>77.3</ele>
        <time>2023-12-27T13:40:03Z</time>
      </trkpt>
      <trkpt lat="49.95325" lon="2.32847">
        <ele>77.3</ele>
        <time>2023-12-27T13:40:04Z</time>
      </trkpt>
      <trkpt lat="49.95326" lon="2.32846">
        <ele>77.4</ele>
        <time>2023-12-27T13:40:05Z</time>
      </trkpt>
      <trkpt lat="49.95327" lon="2.32845">
        <ele>77.4</ele>
        <time>2023-12-27T13:40:06Z</time>
      </trkpt>
      <trkpt lat="49.95328" lon="2.32844">
        <ele>77.4</ele>
        <time>2023-12-27T13:40:07Z</time>
      </trkpt>
      <trkpt lat="49.95329" lon="2.32843">
        <ele>77.5</ele>
        <time>2023-12-27T13:40:08Z</time>
      </trkpt>
      <trkpt lat="49.9533" lon="2.32843">
        <ele>77.5</ele>
        <time>2023-12-27T13:40:10Z</time>
      </trkpt>
      <trkpt lat="49.95331" lon="2.32842">
        <ele>77.6</ele>
        <time>2023-12-27T13:40:11Z</time>
      </trkpt>
      <trkpt lat="49.95332" lon="2.32841">
        <ele>77.6</ele>
        <time>2023-12-27T13:40:12Z</time>
      </trkpt>
      <trkpt lat="49.95334" lon="2.3284">
        <ele>77.7</ele>
        <time>2023-12-27T13:40:13Z</time>
      </trkpt>
      <trkpt lat="49.95335" lon="2.3284">
        <ele>77.7</ele>
        <time>2023-12-27T13:40:15Z</time>
      </trkpt>
      <trkpt lat="49.95336" lon="2.32839">
        <ele>77.8</ele>
        <time>2023-12-27T13:40:16Z</time>
      </trkpt>
      <trkpt lat="49.95337" lon="2.32839">
        <ele>77.9</ele>
        <time>2023-12-27T13:40:17Z</time>
      </trkpt>
      <trkpt lat="49.95338" lon="2.32838">
        <ele>77.9</ele>
        <time>2023-12-27T13:40:18Z</time>
      </trkpt>
      <trkpt lat="49.95339" lon="2.32837">
        <ele>78</ele>
        <time>2023-12-27T13:40:19Z</time>
      </trkpt>
      <trkpt lat="49.9534" lon="2.32837">
        <ele>78.1</ele>
        <time>2023-12-27T13:40:21Z</time>
      </trkpt>
      <trkpt lat="49.95342" lon="2.32836">
        <ele>78.2</ele>
        <time>2023-12-27T13:40:22Z</time>
      </trkpt>
      <trkpt lat="49.95343" lon="2.32835">
        <ele>78.3</ele>
        <time>2023-12-27T13:40:23Z</time>
      </trkpt>
      <trkpt lat="49.95345" lon="2.32835">
        <ele>78.4</ele>
        <time>2023-12-27T13:40:24Z</time>
      </trkpt>
      <trkpt lat="49.95346" lon="2.32834">
        <ele>78.5</ele>
        <time>2023-12-27T13:40:25Z</time>
      </trkpt>
      <trkpt lat="49.95347" lon="2.32834">
        <ele>78.5</ele>
        <time>2023-12-27T13:40:26Z</time>
      </trkpt>
      <trkpt lat="49.95348" lon="2.32833">
        <ele>78.6</ele>
        <time>2023-12-27T13:40:28Z</time>
      </trkpt>
      <trkpt lat="49.95349" lon="2.32833">
        <ele>78.7</ele>
        <time>2023-12-27T13:40:29Z</time>
      </trkpt>
      <trkpt lat="49.9535" lon="2.32832">
        <ele>78.8</ele>
        <time>2023-12-27T13:40:30Z</time>
      </trkpt>
      <trkpt lat="49.95351" lon="2.32832">
        <ele>78.8</ele>
        <time>2023-12-27T13:40:31Z</time>
      </trkpt>
      <trkpt lat="49.95353" lon="2.32831">
        <ele>78.9</ele>
        <time>2023-12-27T13:40:32Z</time>
      </trkpt>
      <trkpt lat="49.95354" lon="2.32831">
        <ele>79</ele>
        <time>2023-12-27T13:40:34Z</time>
      </trkpt>
      <trkpt lat="49.95357" lon="2.32829">
        <ele>79.2</ele>
        <time>2023-12-27T13:40:35Z</time>
      </trkpt>
      <trkpt lat="49.95358" lon="2.32828">
        <ele>79.3</ele>
        <time>2023-12-27T13:40:37Z</time>
      </trkpt>
      <trkpt lat="49.95359" lon="2.32828">
        <ele>79.3</ele>
        <time>2023-12-27T13:40:38Z</time>
      </trkpt>
      <trkpt lat="49.9536" lon="2.32827">
        <ele>79.4</ele>
        <time>2023-12-27T13:40:39Z</time>
      </trkpt>
      <trkpt lat="49.95361" lon="2.32827">
        <ele>79.4</ele>
        <time>2023-12-27T13:40:40Z</time>
      </trkpt>
      <trkpt lat="49.95362" lon="2.32826">
        <ele>79.5</ele>
        <time>2023-12-27T13:40:41Z</time>
      </trkpt>
      <trkpt lat="49.95363" lon="2.32825">
        <ele>79.5</ele>
        <time>2023-12-27T13:40:43Z</time>
      </trkpt>
      <trkpt lat="49.95364" lon="2.32824">
        <ele>79.6</ele>
        <time>2023-12-27T13:40:44Z</time>
      </trkpt>
      <trkpt lat="49.95365" lon="2.32824">
        <ele>79.7</ele>
        <time>2023-12-27T13:40:45Z</time>
      </trkpt>
      <trkpt lat="49.95366" lon="2.32823">
        <ele>79.7</ele>
        <time>2023-12-27T13:40:46Z</time>
      </trkpt>
      <trkpt lat="49.95367" lon="2.32823">
        <ele>79.8</ele>
        <time>2023-12-27T13:40:47Z</time>
      </trkpt>
      <trkpt lat="49.95368" lon="2.32822">
        <ele>79.8</ele>
        <time>2023-12-27T13:40:48Z</time>
      </trkpt>
      <trkpt lat="49.95369" lon="2.32822">
        <ele>79.9</ele>
        <time>2023-12-27T13:40:50Z</time>
      </trkpt>
      <trkpt lat="49.9537" lon="2.32822">
        <ele>79.9</ele>
        <time>2023-12-27T13:40:51Z</time>
      </trkpt>
      <trkpt lat="49.95372" lon="2.32821">
        <ele>80</ele>
        <time>2023-12-27T13:40:52Z</time>
      </trkpt>
      <trkpt lat="49.95373" lon="2.32821">
        <ele>80</ele>
        <time>2023-12-27T13:40:53Z</time>
      </trkpt>
      <trkpt lat="49.95374" lon="2.3282">
        <ele>80.1</ele>
        <time>2023-12-27T13:40:54Z</time>
      </trkpt>
      <trkpt lat="49.95376" lon="2.32819">
        <ele>80.2</ele>
        <time>2023-12-27T13:40:56Z</time>
      </trkpt>
      <trkpt lat="49.95377" lon="2.32819">
        <ele>80.2</ele>
        <time>2023-12-27T13:40:57Z</time>
      </trkpt>
      <trkpt lat="49.95377" lon="2.32818">
        <ele>80.2</ele>
        <time>2023-12-27T13:40:58Z</time>
      </trkpt>
      <trkpt lat="49.95379" lon="2.32818">
        <ele>80.3</ele>
        <time>2023-12-27T13:40:59Z</time>
      </trkpt>
      <trkpt lat="49.9538" lon="2.32818">
        <ele>80.4</ele>
        <time>2023-12-27T13:41:00Z</time>
      </trkpt>
      <trkpt lat="49.95382" lon="2.32817">
        <ele>80.4</ele>
        <time>2023-12-27T13:41:02Z</time>
      </trkpt>
      <trkpt lat="49.95383" lon="2.32816">
        <ele>80.5</ele>
        <time>2023-12-27T13:41:03Z</time>
      </trkpt>
      <trkpt lat="49.95385" lon="2.32816">
        <ele>80.5</ele>
        <time>2023-12-27T13:41:04Z</time>
      </trkpt>
      <trkpt lat="49.95386" lon="2.32815">
        <ele>80.6</ele>
        <time>2023-12-27T13:41:05Z</time>
      </trkpt>
      <trkpt lat="49.95388" lon="2.32814">
        <ele>80.7</ele>
        <time>2023-12-27T13:41:06Z</time>
      </trkpt>
      <trkpt lat="49.95389" lon="2.32813">
        <ele>80.8</ele>
        <time>2023-12-27T13:41:07Z</time>
      </trkpt>
      <trkpt lat="49.95391" lon="2.32813">
        <ele>80.8</ele>
        <time>2023-12-27T13:41:08Z</time>
      </trkpt>
      <trkpt lat="49.95392" lon="2.32812">
        <ele>80.9</ele>
        <time>2023-12-27T13:41:09Z</time>
      </trkpt>
      <trkpt lat="49.95393" lon="2.32811">
        <ele>81</ele>
        <time>2023-12-27T13:41:11Z</time>
      </trkpt>
      <trkpt lat="49.95395" lon="2.32811">
        <ele>81</ele>
        <time>2023-12-27T13:41:12Z</time>
      </trkpt>
      <trkpt lat="49.95396" lon="2.3281">
        <ele>81.1</ele>
        <time>2023-12-27T13:41:13Z</time>
      </trkpt>
      <trkpt lat="49.95397" lon="2.3281">
        <ele>81.1</ele>
        <time>2023-12-27T13:41:14Z</time>
      </trkpt>
      <trkpt lat="49.95398" lon="2.32809">
        <ele>81.2</ele>
        <time>2023-12-27T13:41:15Z</time>
      </trkpt>
      <trkpt lat="49.95399" lon="2.32809">
        <ele>81.2</ele>
        <time>2023-12-27T13:41:16Z</time>
      </trkpt>
      <trkpt lat="49.954" lon="2.32809">
        <ele>81.3</ele>
        <time>2023-12-27T13:41:17Z</time>
      </trkpt>
      <trkpt lat="49.95401" lon="2.32808">
        <ele>81.3</ele>
        <time>2023-12-27T13:41:18Z</time>
      </trkpt>
      <trkpt lat="49.95402" lon="2.32808">
        <ele>81.4</ele>
        <time>2023-12-27T13:41:20Z</time>
      </trkpt>
      <trkpt lat="49.95403" lon="2.32807">
        <ele>81.4</ele>
        <time>2023-12-27T13:41:21Z</time>
      </trkpt>
      <trkpt lat="49.95404" lon="2.32807">
        <ele>81.5</ele>
        <time>2023-12-27T13:41:22Z</time>
      </trkpt>
      <trkpt lat="49.95405" lon="2.32806">
        <ele>81.5</ele>
        <time>2023-12-27T13:41:23Z</time>
      </trkpt>
      <trkpt lat="49.95405" lon="2.32805">
        <ele>81.6</ele>
        <time>2023-12-27T13:41:24Z</time>
      </trkpt>
      <trkpt lat="49.95406" lon="2.32805">
        <ele>81.6</ele>
        <time>2023-12-27T13:41:26Z</time>
      </trkpt>
      <trkpt lat="49.95407" lon="2.32805">
        <ele>81.7</ele>
        <time>2023-12-27T13:41:27Z</time>
      </trkpt>
      <trkpt lat="49.95408" lon="2.32805">
        <ele>81.7</ele>
        <time>2023-12-27T13:41:28Z</time>
      </trkpt>
      <trkpt lat="49.95409" lon="2.32804">
        <ele>81.7</ele>
        <time>2023-12-27T13:41:29Z</time>
      </trkpt>
      <trkpt lat="49.95409" lon="2.32804">
        <ele>81.8</ele>
        <time>2023-12-27T13:41:30Z</time>
      </trkpt>
      <trkpt lat="49.9541" lon="2.32804">
        <ele>81.8</ele>
        <time>2023-12-27T13:41:31Z</time>
      </trkpt>
      <trkpt lat="49.95411" lon="2.32803">
        <ele>81.9</ele>
        <time>2023-12-27T13:41:32Z</time>
      </trkpt>
      <trkpt lat="49.95412" lon="2.32803">
        <ele>81.9</ele>
        <time>2023-12-27T13:41:34Z</time>
      </trkpt>
      <trkpt lat="49.95414" lon="2.32802">
        <ele>82</ele>
        <time>2023-12-27T13:41:35Z</time>
      </trkpt>
      <trkpt lat="49.95414" lon="2.32802">
        <ele>82</ele>
        <time>2023-12-27T13:41:36Z</time>
      </trkpt>
      <trkpt lat="49.95415" lon="2.32801">
        <ele>82.1</ele>
        <time>2023-12-27T13:41:37Z</time>
      </trkpt>
      <trkpt lat="49.95417" lon="2.32801">
        <ele>82.2</ele>
        <time>2023-12-27T13:41:38Z</time>
      </trkpt>
      <trkpt lat="49.95418" lon="2.32801">
        <ele>82.2</ele>
        <time>2023-12-27T13:41:40Z</time>
      </trkpt>
      <trkpt lat="49.95419" lon="2.32801">
        <ele>82.3</ele>
        <time>2023-12-27T13:41:41Z</time>
      </trkpt>
      <trkpt lat="49.9542" lon="2.328">
        <ele>82.3</ele>
        <time>2023-12-27T13:41:42Z</time>
      </trkpt>
      <trkpt lat="49.95421" lon="2.328">
        <ele>82.4</ele>
        <time>2023-12-27T13:41:43Z</time>
      </trkpt>
      <trkpt lat="49.95422" lon="2.328">
        <ele>82.5</ele>
        <time>2023-12-27T13:41:44Z</time>
      </trkpt>
      <trkpt lat="49.95424" lon="2.328">
        <ele>82.6</ele>
        <time>2023-12-27T13:41:46Z</time>
      </trkpt>
      <trkpt lat="49.95425" lon="2.32799">
        <ele>82.6</ele>
        <time>2023-12-27T13:41:47Z</time>
      </trkpt>
      <trkpt lat="49.95426" lon="2.32799">
        <ele>82.6</ele>
        <time>2023-12-27T13:41:48Z</time>
      </trkpt>
      <trkpt lat="49.95427" lon="2.32799">
        <ele>82.7</ele>
        <time>2023-12-27T13:41:49Z</time>
      </trkpt>
      <trkpt lat="49.95428" lon="2.32798">
        <ele>82.8</ele>
        <time>2023-12-27T13:41:50Z</time>
      </trkpt>
      <trkpt lat="49.95429" lon="2.32798">
        <ele>82.8</ele>
        <time>2023-12-27T13:41:52Z</time>
      </trkpt>
      <trkpt lat="49.95431" lon="2.32798">
        <ele>82.9</ele>
        <time>2023-12-27T13:41:53Z</time>
      </trkpt>
      <trkpt lat="49.95432" lon="2.32797">
        <ele>82.9</ele>
        <time>2023-12-27T13:41:54Z</time>
      </trkpt>
      <trkpt lat="49.95433" lon="2.32797">
        <ele>83</ele>
        <time>2023-12-27T13:41:55Z</time>
      </trkpt>
      <trkpt lat="49.95434" lon="2.32796">
        <ele>83.1</ele>
        <time>2023-12-27T13:41:56Z</time>
      </trkpt>
      <trkpt lat="49.95435" lon="2.32796">
        <ele>83.1</ele>
        <time>2023-12-27T13:41:58Z</time>
      </trkpt>
      <trkpt lat="49.95437" lon="2.32795">
        <ele>83.2</ele>
        <time>2023-12-27T13:41:59Z</time>
      </trkpt>
      <trkpt lat="49.95438" lon="2.32795">
        <ele>83.2</ele>
        <time>2023-12-27T13:42:00Z</time>
      </trkpt>
      <trkpt lat="49.95439" lon="2.32795">
        <ele>83.3</ele>
        <time>2023-12-27T13:42:01Z</time>
      </trkpt>
      <trkpt lat="49.95441" lon="2.32794">
        <ele>83.4</ele>
        <time>2023-12-27T13:42:02Z</time>
      </trkpt>
      <trkpt lat="49.95441" lon="2.32794">
        <ele>83.4</ele>
        <time>2023-12-27T13:42:03Z</time>
      </trkpt>
      <trkpt lat="49.95442" lon="2.32793">
        <ele>83.5</ele>
        <time>2023-12-27T13:42:04Z</time>
      </trkpt>
      <trkpt lat="49.95444" lon="2.32792">
        <ele>83.6</ele>
        <time>2023-12-27T13:42:05Z</time>
      </trkpt>
      <trkpt lat="49.95445" lon="2.32792">
        <ele>83.6</ele>
        <time>2023-12-27T13:42:07Z</time>
      </trkpt>
      <trkpt lat="49.95446" lon="2.32791">
        <ele>83.6</ele>
        <time>2023-12-27T13:42:08Z</time>
      </trkpt>
      <trkpt lat="49.95448" lon="2.3279">
        <ele>83.7</ele>
        <time>2023-12-27T13:42:09Z</time>
      </trkpt>
      <trkpt lat="49.95448" lon="2.3279">
        <ele>83.8</ele>
        <time>2023-12-27T13:42:10Z</time>
      </trkpt>
      <trkpt lat="49.95449" lon="2.32789">
        <ele>83.8</ele>
        <time>2023-12-27T13:42:11Z</time>
      </trkpt>
      <trkpt lat="49.9545" lon="2.32788">
        <ele>83.8</ele>
        <time>2023-12-27T13:42:13Z</time>
      </trkpt>
      <trkpt lat="49.95451" lon="2.32788">
        <ele>83.9</ele>
        <time>2023-12-27T13:42:14Z</time>
      </trkpt>
      <trkpt lat="49.95452" lon="2.32787">
        <ele>83.9</ele>
        <time>2023-12-27T13:42:15Z</time>
      </trkpt>
      <trkpt lat="49.95453" lon="2.32786">
        <ele>84</ele>
        <time>2023-12-27T13:42:16Z</time>
      </trkpt>
      <trkpt lat="49.95454" lon="2.32786">
        <ele>84.1</ele>
        <time>2023-12-27T13:42:17Z</time>
      </trkpt>
      <trkpt lat="49.95456" lon="2.32785">
        <ele>84.1</ele>
        <time>2023-12-27T13:42:19Z</time>
      </trkpt>
      <trkpt lat="49.95457" lon="2.32785">
        <ele>84.2</ele>
        <time>2023-12-27T13:42:20Z</time>
      </trkpt>
      <trkpt lat="49.95458" lon="2.32784">
        <ele>84.2</ele>
        <time>2023-12-27T13:42:21Z</time>
      </trkpt>
      <trkpt lat="49.95458" lon="2.32784">
        <ele>84.2</ele>
        <time>2023-12-27T13:42:22Z</time>
      </trkpt>
      <trkpt lat="49.95459" lon="2.32783">
        <ele>84.3</ele>
        <time>2023-12-27T13:42:23Z</time>
      </trkpt>
      <trkpt lat="49.9546" lon="2.32783">
        <ele>84.3</ele>
        <time>2023-12-27T13:42:24Z</time>
      </trkpt>
      <trkpt lat="49.95461" lon="2.32782">
        <ele>84.4</ele>
        <time>2023-12-27T13:42:25Z</time>
      </trkpt>
      <trkpt lat="49.95462" lon="2.32781">
        <ele>84.4</ele>
        <time>2023-12-27T13:42:27Z</time>
      </trkpt>
      <trkpt lat="49.95463" lon="2.32781">
        <ele>84.5</ele>
        <time>2023-12-27T13:42:28Z</time>
      </trkpt>
      <trkpt lat="49.95464" lon="2.3278">
        <ele>84.5</ele>
        <time>2023-12-27T13:42:29Z</time>
      </trkpt>
      <trkpt lat="49.95465" lon="2.3278">
        <ele>84.5</ele>
        <time>2023-12-27T13:42:30Z</time>
      </trkpt>
      <trkpt lat="49.95466" lon="2.32779">
        <ele>84.6</ele>
        <time>2023-12-27T13:42:31Z</time>
      </trkpt>
      <trkpt lat="49.95467" lon="2.32779">
        <ele>84.6</ele>
        <time>2023-12-27T13:42:32Z</time>
      </trkpt>
      <trkpt lat="49.95468" lon="2.32778">
        <ele>84.7</ele>
        <time>2023-12-27T13:42:33Z</time>
      </trkpt>
      <trkpt lat="49.95468" lon="2.32778">
        <ele>84.7</ele>
        <time>2023-12-27T13:42:35Z</time>
      </trkpt>
      <trkpt lat="49.95469" lon="2.32777">
        <ele>84.7</ele>
        <time>2023-12-27T13:42:36Z</time>
      </trkpt>
      <trkpt lat="49.9547" lon="2.32777">
        <ele>84.8</ele>
        <time>2023-12-27T13:42:37Z</time>
      </trkpt>
      <trkpt lat="49.95471" lon="2.32776">
        <ele>84.8</ele>
        <time>2023-12-27T13:42:38Z</time>
      </trkpt>
      <trkpt lat="49.95472" lon="2.32776">
        <ele>84.9</ele>
        <time>2023-12-27T13:42:39Z</time>
      </trkpt>
      <trkpt lat="49.95474" lon="2.32776">
        <ele>85</ele>
        <time>2023-12-27T13:42:41Z</time>
      </trkpt>
      <trkpt lat="49.95475" lon="2.32775">
        <ele>85</ele>
        <time>2023-12-27T13:42:42Z</time>
      </trkpt>
      <trkpt lat="49.95477" lon="2.32775">
        <ele>85.1</ele>
        <time>2023-12-27T13:42:44Z</time>
      </trkpt>
      <trkpt lat="49.95478" lon="2.32774">
        <ele>85.1</ele>
        <time>2023-12-27T13:42:45Z</time>
      </trkpt>
      <trkpt lat="49.95479" lon="2.32774">
        <ele>85.1</ele>
        <time>2023-12-27T13:42:46Z</time>
      </trkpt>
      <trkpt lat="49.9548" lon="2.32773">
        <ele>85.2</ele>
        <time>2023-12-27T13:42:47Z</time>
      </trkpt>
      <trkpt lat="49.95481" lon="2.32772">
        <ele>85.2</ele>
        <time>2023-12-27T13:42:48Z</time>
      </trkpt>
      <trkpt lat="49.95482" lon="2.32771">
        <ele>85.3</ele>
        <time>2023-12-27T13:42:49Z</time>
      </trkpt>
      <trkpt lat="49.95483" lon="2.32771">
        <ele>85.3</ele>
        <time>2023-12-27T13:42:50Z</time>
      </trkpt>
      <trkpt lat="49.95484" lon="2.3277">
        <ele>85.4</ele>
        <time>2023-12-27T13:42:52Z</time>
      </trkpt>
      <trkpt lat="49.95485" lon="2.32769">
        <ele>85.4</ele>
        <time>2023-12-27T13:42:53Z</time>
      </trkpt>
      <trkpt lat="49.95486" lon="2.32769">
        <ele>85.5</ele>
        <time>2023-12-27T13:42:54Z</time>
      </trkpt>
      <trkpt lat="49.95487" lon="2.32768">
        <ele>85.5</ele>
        <time>2023-12-27T13:42:55Z</time>
      </trkpt>
      <trkpt lat="49.95488" lon="2.32768">
        <ele>85.6</ele>
        <time>2023-12-27T13:42:56Z</time>
      </trkpt>
      <trkpt lat="49.95488" lon="2.32767">
        <ele>85.6</ele>
        <time>2023-12-27T13:42:57Z</time>
      </trkpt>
      <trkpt lat="49.9549" lon="2.32767">
        <ele>85.7</ele>
        <time>2023-12-27T13:42:58Z</time>
      </trkpt>
      <trkpt lat="49.95491" lon="2.32766">
        <ele>85.7</ele>
        <time>2023-12-27T13:43:00Z</time>
      </trkpt>
      <trkpt lat="49.95492" lon="2.32765">
        <ele>85.8</ele>
        <time>2023-12-27T13:43:01Z</time>
      </trkpt>
      <trkpt lat="49.95493" lon="2.32765">
        <ele>85.8</ele>
        <time>2023-12-27T13:43:02Z</time>
      </trkpt>
      <trkpt lat="49.95494" lon="2.32764">
        <ele>85.8</ele>
        <time>2023-12-27T13:43:03Z</time>
      </trkpt>
      <trkpt lat="49.95494" lon="2.32764">
        <ele>85.9</ele>
        <time>2023-12-27T13:43:04Z</time>
      </trkpt>
      <trkpt lat="49.95496" lon="2.32764">
        <ele>85.9</ele>
        <time>2023-12-27T13:43:06Z</time>
      </trkpt>
      <trkpt lat="49.95496" lon="2.32763">
        <ele>86</ele>
        <time>2023-12-27T13:43:07Z</time>
      </trkpt>
      <trkpt lat="49.95497" lon="2.32763">
        <ele>86</ele>
        <time>2023-12-27T13:43:08Z</time>
      </trkpt>
      <trkpt lat="49.95498" lon="2.32763">
        <ele>86</ele>
        <time>2023-12-27T13:43:09Z</time>
      </trkpt>
      <trkpt lat="49.95499" lon="2.32762">
        <ele>86.1</ele>
        <time>2023-12-27T13:43:11Z</time>
      </trkpt>
      <trkpt lat="49.95501" lon="2.32761">
        <ele>86.2</ele>
        <time>2023-12-27T13:43:12Z</time>
      </trkpt>
      <trkpt lat="49.95502" lon="2.32761">
        <ele>86.2</ele>
        <time>2023-12-27T13:43:13Z</time>
      </trkpt>
      <trkpt lat="49.95503" lon="2.3276">
        <ele>86.3</ele>
        <time>2023-12-27T13:43:14Z</time>
      </trkpt>
      <trkpt lat="49.95505" lon="2.32759">
        <ele>86.3</ele>
        <time>2023-12-27T13:43:15Z</time>
      </trkpt>
      <trkpt lat="49.95507" lon="2.32758">
        <ele>86.4</ele>
        <time>2023-12-27T13:43:17Z</time>
      </trkpt>
      <trkpt lat="49.95508" lon="2.32757">
        <ele>86.5</ele>
        <time>2023-12-27T13:43:18Z</time>
      </trkpt>
      <trkpt lat="49.95509" lon="2.32757">
        <ele>86.6</ele>
        <time>2023-12-27T13:43:19Z</time>
      </trkpt>
      <trkpt lat="49.95511" lon="2.32756">
        <ele>86.6</ele>
        <time>2023-12-27T13:43:20Z</time>
      </trkpt>
      <trkpt lat="49.95512" lon="2.32756">
        <ele>86.7</ele>
        <time>2023-12-27T13:43:21Z</time>
      </trkpt>
      <trkpt lat="49.95514" lon="2.32755">
        <ele>86.7</ele>
        <time>2023-12-27T13:43:23Z</time>
      </trkpt>
      <trkpt lat="49.95516" lon="2.32754">
        <ele>86.8</ele>
        <time>2023-12-27T13:43:24Z</time>
      </trkpt>
      <trkpt lat="49.95517" lon="2.32753">
        <ele>86.9</ele>
        <time>2023-12-27T13:43:26Z</time>
      </trkpt>
      <trkpt lat="49.95518" lon="2.32752">
        <ele>87</ele>
        <time>2023-12-27T13:43:27Z</time>
      </trkpt>
      <trkpt lat="49.95519" lon="2.32752">
        <ele>87</ele>
        <time>2023-12-27T13:43:28Z</time>
      </trkpt>
      <trkpt lat="49.9552" lon="2.32751">
        <ele>87.1</ele>
        <time>2023-12-27T13:43:29Z</time>
      </trkpt>
      <trkpt lat="49.95522" lon="2.32751">
        <ele>87.2</ele>
        <time>2023-12-27T13:43:30Z</time>
      </trkpt>
      <trkpt lat="49.95523" lon="2.3275">
        <ele>87.2</ele>
        <time>2023-12-27T13:43:31Z</time>
      </trkpt>
      <trkpt lat="49.95524" lon="2.32749">
        <ele>87.3</ele>
        <time>2023-12-27T13:43:33Z</time>
      </trkpt>
      <trkpt lat="49.95525" lon="2.32749">
        <ele>87.4</ele>
        <time>2023-12-27T13:43:34Z</time>
      </trkpt>
      <trkpt lat="49.95526" lon="2.32748">
        <ele>87.4</ele>
        <time>2023-12-27T13:43:35Z</time>
      </trkpt>
      <trkpt lat="49.95527" lon="2.32747">
        <ele>87.5</ele>
        <time>2023-12-27T13:43:36Z</time>
      </trkpt>
      <trkpt lat="49.9553" lon="2.32746">
        <ele>87.6</ele>
        <time>2023-12-27T13:43:37Z</time>
      </trkpt>
      <trkpt lat="49.95531" lon="2.32746">
        <ele>87.7</ele>
        <time>2023-12-27T13:43:39Z</time>
      </trkpt>
      <trkpt lat="49.95532" lon="2.32746">
        <ele>87.7</ele>
        <time>2023-12-27T13:43:40Z</time>
      </trkpt>
      <trkpt lat="49.95533" lon="2.32745">
        <ele>87.8</ele>
        <time>2023-12-27T13:43:41Z</time>
      </trkpt>
      <trkpt lat="49.95534" lon="2.32745">
        <ele>87.8</ele>
        <time>2023-12-27T13:43:42Z</time>
      </trkpt>
      <trkpt lat="49.95535" lon="2.32744">
        <ele>87.9</ele>
        <time>2023-12-27T13:43:44Z</time>
      </trkpt>
      <trkpt lat="49.95536" lon="2.32744">
        <ele>87.9</ele>
        <time>2023-12-27T13:43:45Z</time>
      </trkpt>
      <trkpt lat="49.95537" lon="2.32743">
        <ele>88</ele>
        <time>2023-12-27T13:43:46Z</time>
      </trkpt>
      <trkpt lat="49.95538" lon="2.32743">
        <ele>88</ele>
        <time>2023-12-27T13:43:47Z</time>
      </trkpt>
      <trkpt lat="49.95539" lon="2.32742">
        <ele>88.1</ele>
        <time>2023-12-27T13:43:48Z</time>
      </trkpt>
      <trkpt lat="49.9554" lon="2.32741">
        <ele>88.1</ele>
        <time>2023-12-27T13:43:50Z</time>
      </trkpt>
      <trkpt lat="49.95541" lon="2.32741">
        <ele>88.2</ele>
        <time>2023-12-27T13:43:51Z</time>
      </trkpt>
      <trkpt lat="49.95543" lon="2.3274">
        <ele>88.2</ele>
        <time>2023-12-27T13:43:52Z</time>
      </trkpt>
      <trkpt lat="49.95544" lon="2.32739">
        <ele>88.3</ele>
        <time>2023-12-27T13:43:53Z</time>
      </trkpt>
      <trkpt lat="49.95545" lon="2.32738">
        <ele>88.3</ele>
        <time>2023-12-27T13:43:54Z</time>
      </trkpt>
      <trkpt lat="49.95546" lon="2.32738">
        <ele>88.4</ele>
        <time>2023-12-27T13:43:55Z</time>
      </trkpt>
      <trkpt lat="49.95547" lon="2.32737">
        <ele>88.4</ele>
        <time>2023-12-27T13:43:56Z</time>
      </trkpt>
      <trkpt lat="49.95548" lon="2.32736">
        <ele>88.5</ele>
        <time>2023-12-27T13:43:58Z</time>
      </trkpt>
      <trkpt lat="49.9555" lon="2.32736">
        <ele>88.5</ele>
        <time>2023-12-27T13:43:59Z</time>
      </trkpt>
      <trkpt lat="49.95551" lon="2.32736">
        <ele>88.6</ele>
        <time>2023-12-27T13:44:00Z</time>
      </trkpt>
      <trkpt lat="49.95552" lon="2.32736">
        <ele>88.6</ele>
        <time>2023-12-27T13:44:01Z</time>
      </trkpt>
      <trkpt lat="49.95553" lon="2.32736">
        <ele>88.6</ele>
        <time>2023-12-27T13:44:02Z</time>
      </trkpt>
      <trkpt lat="49.95554" lon="2.32735">
        <ele>88.7</ele>
        <time>2023-12-27T13:44:03Z</time>
      </trkpt>
      <trkpt lat="49.95555" lon="2.32734">
        <ele>88.7</ele>
        <time>2023-12-27T13:44:04Z</time>
      </trkpt>
      <trkpt lat="49.95556" lon="2.32734">
        <ele>88.8</ele>
        <time>2023-12-27T13:44:06Z</time>
      </trkpt>
      <trkpt lat="49.95557" lon="2.32733">
        <ele>88.9</ele>
        <time>2023-12-27T13:44:07Z</time>
      </trkpt>
      <trkpt lat="49.95558" lon="2.32732">
        <ele>88.9</ele>
        <time>2023-12-27T13:44:08Z</time>
      </trkpt>
      <trkpt lat="49.95559" lon="2.32731">
        <ele>88.9</ele>
        <time>2023-12-27T13:44:09Z</time>
      </trkpt>
      <trkpt lat="49.95561" lon="2.32729">
        <ele>89.1</ele>
        <time>2023-12-27T13:44:10Z</time>
      </trkpt>
      <trkpt lat="49.95562" lon="2.32727">
        <ele>89.1</ele>
        <time>2023-12-27T13:44:12Z</time>
      </trkpt>
      <trkpt lat="49.95563" lon="2.32726">
        <ele>89.2</ele>
        <time>2023-12-27T13:44:13Z</time>
      </trkpt>
      <trkpt lat="49.95564" lon="2.32725">
        <ele>89.2</ele>
        <time>2023-12-27T13:44:14Z</time>
      </trkpt>
      <trkpt lat="49.95565" lon="2.32724">
        <ele>89.3</ele>
        <time>2023-12-27T13:44:15Z</time>
      </trkpt>
      <trkpt lat="49.95566" lon="2.32723">
        <ele>89.3</ele>
        <time>2023-12-27T13:44:16Z</time>
      </trkpt>
      <trkpt lat="49.95567" lon="2.32722">
        <ele>89.4</ele>
        <time>2023-12-27T13:44:18Z</time>
      </trkpt>
      <trkpt lat="49.95568" lon="2.32721">
        <ele>89.4</ele>
        <time>2023-12-27T13:44:19Z</time>
      </trkpt>
      <trkpt lat="49.95569" lon="2.3272">
        <ele>89.4</ele>
        <time>2023-12-27T13:44:20Z</time>
      </trkpt>
      <trkpt lat="49.9557" lon="2.32719">
        <ele>89.5</ele>
        <time>2023-12-27T13:44:21Z</time>
      </trkpt>
      <trkpt lat="49.95572" lon="2.32718">
        <ele>89.6</ele>
        <time>2023-12-27T13:44:22Z</time>
      </trkpt>
      <trkpt lat="49.95573" lon="2.32718">
        <ele>89.6</ele>
        <time>2023-12-27T13:44:23Z</time>
      </trkpt>
      <trkpt lat="49.95573" lon="2.32717">
        <ele>89.6</ele>
        <time>2023-12-27T13:44:24Z</time>
      </trkpt>
      <trkpt lat="49.95574" lon="2.32716">
        <ele>89.7</ele>
        <time>2023-12-27T13:44:26Z</time>
      </trkpt>
      <trkpt lat="49.95575" lon="2.32715">
        <ele>89.7</ele>
        <time>2023-12-27T13:44:27Z</time>
      </trkpt>
      <trkpt lat="49.95576" lon="2.32715">
        <ele>89.7</ele>
        <time>2023-12-27T13:44:28Z</time>
      </trkpt>
      <trkpt lat="49.95577" lon="2.32715">
        <ele>89.8</ele>
        <time>2023-12-27T13:44:30Z</time>
      </trkpt>
      <trkpt lat="49.95578" lon="2.32714">
        <ele>89.8</ele>
        <time>2023-12-27T13:44:31Z</time>
      </trkpt>
      <trkpt lat="49.95579" lon="2.32714">
        <ele>89.8</ele>
        <time>2023-12-27T13:44:32Z</time>
      </trkpt>
      <trkpt lat="49.9558" lon="2.32713">
        <ele>89.9</ele>
        <time>2023-12-27T13:44:33Z</time>
      </trkpt>
      <trkpt lat="49.95581" lon="2.32713">
        <ele>89.9</ele>
        <time>2023-12-27T13:44:34Z</time>
      </trkpt>
      <trkpt lat="49.95582" lon="2.32712">
        <ele>90</ele>
        <time>2023-12-27T13:44:35Z</time>
      </trkpt>
      <trkpt lat="49.95583" lon="2.32711">
        <ele>90</ele>
        <time>2023-12-27T13:44:37Z</time>
      </trkpt>
      <trkpt lat="49.95584" lon="2.32711">
        <ele>90.1</ele>
        <time>2023-12-27T13:44:38Z</time>
      </trkpt>
      <trkpt lat="49.95585" lon="2.3271">
        <ele>90.1</ele>
        <time>2023-12-27T13:44:39Z</time>
      </trkpt>
      <trkpt lat="49.95586" lon="2.3271">
        <ele>90.2</ele>
        <time>2023-12-27T13:44:41Z</time>
      </trkpt>
      <trkpt lat="49.95587" lon="2.32709">
        <ele>90.2</ele>
        <time>2023-12-27T13:44:42Z</time>
      </trkpt>
      <trkpt lat="49.95587" lon="2.32709">
        <ele>90.2</ele>
        <time>2023-12-27T13:44:43Z</time>
      </trkpt>
      <trkpt lat="49.95588" lon="2.32708">
        <ele>90.3</ele>
        <time>2023-12-27T13:44:44Z</time>
      </trkpt>
      <trkpt lat="49.95588" lon="2.32708">
        <ele>90.3</ele>
        <time>2023-12-27T13:44:45Z</time>
      </trkpt>
      <trkpt lat="49.95589" lon="2.32708">
        <ele>90.3</ele>
        <time>2023-12-27T13:44:46Z</time>
      </trkpt>
      <trkpt lat="49.9559" lon="2.32708">
        <ele>90.4</ele>
        <time>2023-12-27T13:44:48Z</time>
      </trkpt>
      <trkpt lat="49.95591" lon="2.32709">
        <ele>90.4</ele>
        <time>2023-12-27T13:44:49Z</time>
      </trkpt>
      <trkpt lat="49.95592" lon="2.3271">
        <ele>90.4</ele>
        <time>2023-12-27T13:44:51Z</time>
      </trkpt>
      <trkpt lat="49.95592" lon="2.3271">
        <ele>90.4</ele>
        <time>2023-12-27T13:44:52Z</time>
      </trkpt>
      <trkpt lat="49.95592" lon="2.3271">
        <ele>90.4</ele>
        <time>2023-12-27T13:44:53Z</time>
      </trkpt>
      <trkpt lat="49.95593" lon="2.3271">
        <ele>90.5</ele>
        <time>2023-12-27T13:44:54Z</time>
      </trkpt>
      <trkpt lat="49.95594" lon="2.32709">
        <ele>90.5</ele>
        <time>2023-12-27T13:44:55Z</time>
      </trkpt>
      <trkpt lat="49.95594" lon="2.32708">
        <ele>90.5</ele>
        <time>2023-12-27T13:44:57Z</time>
      </trkpt>
      <trkpt lat="49.95595" lon="2.32707">
        <ele>90.5</ele>
        <time>2023-12-27T13:44:58Z</time>
      </trkpt>
      <trkpt lat="49.95596" lon="2.32706">
        <ele>90.6</ele>
        <time>2023-12-27T13:44:59Z</time>
      </trkpt>
      <trkpt lat="49.95597" lon="2.32705">
        <ele>90.6</ele>
        <time>2023-12-27T13:45:00Z</time>
      </trkpt>
      <trkpt lat="49.95598" lon="2.32705">
        <ele>90.6</ele>
        <time>2023-12-27T13:45:01Z</time>
      </trkpt>
      <trkpt lat="49.95599" lon="2.32704">
        <ele>90.6</ele>
        <time>2023-12-27T13:45:02Z</time>
      </trkpt>
      <trkpt lat="49.956" lon="2.32702">
        <ele>90.7</ele>
        <time>2023-12-27T13:45:04Z</time>
      </trkpt>
      <trkpt lat="49.95601" lon="2.32701">
        <ele>90.7</ele>
        <time>2023-12-27T13:45:06Z</time>
      </trkpt>
      <trkpt lat="49.95602" lon="2.32701">
        <ele>90.7</ele>
        <time>2023-12-27T13:45:07Z</time>
      </trkpt>
      <trkpt lat="49.95603" lon="2.327">
        <ele>90.7</ele>
        <time>2023-12-27T13:45:08Z</time>
      </trkpt>
      <trkpt lat="49.95604" lon="2.32699">
        <ele>90.7</ele>
        <time>2023-12-27T13:45:09Z</time>
      </trkpt>
      <trkpt lat="49.95605" lon="2.32698">
        <ele>90.7</ele>
        <time>2023-12-27T13:45:10Z</time>
      </trkpt>
      <trkpt lat="49.95606" lon="2.32697">
        <ele>90.7</ele>
        <time>2023-12-27T13:45:12Z</time>
      </trkpt>
      <trkpt lat="49.95606" lon="2.32696">
        <ele>90.7</ele>
        <time>2023-12-27T13:45:13Z</time>
      </trkpt>
      <trkpt lat="49.95607" lon="2.32695">
        <ele>90.7</ele>
        <time>2023-12-27T13:45:14Z</time>
      </trkpt>
      <trkpt lat="49.95607" lon="2.32693">
        <ele>90.7</ele>
        <time>2023-12-27T13:45:16Z</time>
      </trkpt>
      <trkpt lat="49.95608" lon="2.32691">
        <ele>90.7</ele>
        <time>2023-12-27T13:45:17Z</time>
      </trkpt>
      <trkpt lat="49.95607" lon="2.3269">
        <ele>90.7</ele>
        <time>2023-12-27T13:45:18Z</time>
      </trkpt>
      <trkpt lat="49.95606" lon="2.32689">
        <ele>90.7</ele>
        <time>2023-12-27T13:45:20Z</time>
      </trkpt>
      <trkpt lat="49.95605" lon="2.3269">
        <ele>90.7</ele>
        <time>2023-12-27T13:45:22Z</time>
      </trkpt>
      <trkpt lat="49.95604" lon="2.32691">
        <ele>90.7</ele>
        <time>2023-12-27T13:45:23Z</time>
      </trkpt>
      <trkpt lat="49.95604" lon="2.32693">
        <ele>90.7</ele>
        <time>2023-12-27T13:45:25Z</time>
      </trkpt>
      <trkpt lat="49.95603" lon="2.32693">
        <ele>90.7</ele>
        <time>2023-12-27T13:45:26Z</time>
      </trkpt>
      <trkpt lat="49.95603" lon="2.32694">
        <ele>90.7</ele>
        <time>2023-12-27T13:45:27Z</time>
      </trkpt>
      <trkpt lat="49.95603" lon="2.32694">
        <ele>90.7</ele>
        <time>2023-12-27T13:45:29Z</time>
      </trkpt>
      <trkpt lat="49.95603" lon="2.32694">
        <ele>90.7</ele>
        <time>2023-12-27T13:45:30Z</time>
      </trkpt>
      <trkpt lat="49.95603" lon="2.32695">
        <ele>90.8</ele>
        <time>2023-12-27T13:45:32Z</time>
      </trkpt>
      <trkpt lat="49.95604" lon="2.32699">
        <ele>90.8</ele>
        <time>2023-12-27T13:47:16Z</time>
      </trkpt>
      <trkpt lat="49.95605" lon="2.327">
        <ele>90.8</ele>
        <time>2023-12-27T13:47:17Z</time>
      </trkpt>
      <trkpt lat="49.95605" lon="2.32701">
        <ele>90.8</ele>
        <time>2023-12-27T13:47:18Z</time>
      </trkpt>
      <trkpt lat="49.95605" lon="2.32701">
        <ele>90.8</ele>
        <time>2023-12-27T13:47:19Z</time>
      </trkpt>
      <trkpt lat="49.95605" lon="2.32701">
        <ele>90.8</ele>
        <time>2023-12-27T13:47:20Z</time>
      </trkpt>
      <trkpt lat="49.95605" lon="2.32701">
        <ele>90.8</ele>
        <time>2023-12-27T13:47:21Z</time>
      </trkpt>
      <trkpt lat="49.95605" lon="2.32701">
        <ele>90.8</ele>
        <time>2023-12-27T13:47:22Z</time>
      </trkpt>
      <trkpt lat="49.95605" lon="2.32701">
        <ele>90.8</ele>
        <time>2023-12-27T13:47:23Z</time>
      </trkpt>
      <trkpt lat="49.95604" lon="2.32701">
        <ele>90.8</ele>
        <time>2023-12-27T13:47:24Z</time>
      </trkpt>
      <trkpt lat="49.95605" lon="2.32701">
        <ele>90.8</ele>
        <time>2023-12-27T13:47:25Z</time>
      </trkpt>
      <trkpt lat="49.95605" lon="2.32701">
        <ele>90.8</ele>
        <time>2023-12-27T13:47:26Z</time>
      </trkpt>
      <trkpt lat="49.95605" lon="2.32701">
        <ele>90.8</ele>
        <time>2023-12-27T13:47:27Z</time>
      </trkpt>
      <trkpt lat="49.95604" lon="2.32701">
        <ele>90.8</ele>
        <time>2023-12-27T13:47:28Z</time>
      </trkpt>
      <trkpt lat="49.95604" lon="2.32701">
        <ele>90.8</ele>
        <time>2023-12-27T13:47:29Z</time>
      </trkpt>
      <trkpt lat="49.95604" lon="2.32701">
        <ele>90.8</ele>
        <time>2023-12-27T13:47:30Z</time>
      </trkpt>
      <trkpt lat="49.95604" lon="2.32701">
        <ele>90.8</ele>
        <time>2023-12-27T13:47:31Z</time>
      </trkpt>
      <trkpt lat="49.95604" lon="2.32701">
        <ele>90.8</ele>
        <time>2023-12-27T13:47:32Z</time>
      </trkpt>
      <trkpt lat="49.95604" lon="2.32701">
        <ele>90.8</ele>
        <time>2023-12-27T13:47:33Z</time>
      </trkpt>
      <trkpt lat="49.95604" lon="2.32701">
        <ele>90.8</ele>
        <time>2023-12-27T13:47:34Z</time>
      </trkpt>
      <trkpt lat="49.95604" lon="2.32701">
        <ele>90.8</ele>
        <time>2023-12-27T13:47:35Z</time>
      </trkpt>
      <trkpt lat="49.95604" lon="2.32701">
        <ele>90.8</ele>
        <time>2023-12-27T13:47:36Z</time>
      </trkpt>
      <trkpt lat="49.95604" lon="2.32701">
        <ele>90.8</ele>
        <time>2023-12-27T13:47:37Z</time>
      </trkpt>
      <trkpt lat="49.95608" lon="2.32699">
        <ele>90.9</ele>
        <time>2023-12-27T13:48:31Z</time>
      </trkpt>
      <trkpt lat="49.95609" lon="2.32698">
        <ele>90.9</ele>
        <time>2023-12-27T13:48:32Z</time>
      </trkpt>
      <trkpt lat="49.95611" lon="2.32697">
        <ele>91</ele>
        <time>2023-12-27T13:48:33Z</time>
      </trkpt>
      <trkpt lat="49.95612" lon="2.32696">
        <ele>91</ele>
        <time>2023-12-27T13:48:34Z</time>
      </trkpt>
      <trkpt lat="49.95614" lon="2.32695">
        <ele>91</ele>
        <time>2023-12-27T13:48:35Z</time>
      </trkpt>
      <trkpt lat="49.95616" lon="2.32695">
        <ele>91</ele>
        <time>2023-12-27T13:48:36Z</time>
      </trkpt>
      <trkpt lat="49.95617" lon="2.32695">
        <ele>91.1</ele>
        <time>2023-12-27T13:48:37Z</time>
      </trkpt>
      <trkpt lat="49.95618" lon="2.32694">
        <ele>91.1</ele>
        <time>2023-12-27T13:48:39Z</time>
      </trkpt>
      <trkpt lat="49.95619" lon="2.32694">
        <ele>91.1</ele>
        <time>2023-12-27T13:48:40Z</time>
      </trkpt>
      <trkpt lat="49.9562" lon="2.32693">
        <ele>91.1</ele>
        <time>2023-12-27T13:48:41Z</time>
      </trkpt>
      <trkpt lat="49.95621" lon="2.32693">
        <ele>91.1</ele>
        <time>2023-12-27T13:48:42Z</time>
      </trkpt>
      <trkpt lat="49.95622" lon="2.32693">
        <ele>91.1</ele>
        <time>2023-12-27T13:48:43Z</time>
      </trkpt>
      <trkpt lat="49.95623" lon="2.32693">
        <ele>91.1</ele>
        <time>2023-12-27T13:48:44Z</time>
      </trkpt>
      <trkpt lat="49.95625" lon="2.32693">
        <ele>91.2</ele>
        <time>2023-12-27T13:48:45Z</time>
      </trkpt>
      <trkpt lat="49.95625" lon="2.32693">
        <ele>91.2</ele>
        <time>2023-12-27T13:48:46Z</time>
      </trkpt>
      <trkpt lat="49.95626" lon="2.32693">
        <ele>91.2</ele>
        <time>2023-12-27T13:48:48Z</time>
      </trkpt>
      <trkpt lat="49.95627" lon="2.32693">
        <ele>91.2</ele>
        <time>2023-12-27T13:48:49Z</time>
      </trkpt>
      <trkpt lat="49.95628" lon="2.32693">
        <ele>91.2</ele>
        <time>2023-12-27T13:48:50Z</time>
      </trkpt>
      <trkpt lat="49.95629" lon="2.32693">
        <ele>91.2</ele>
        <time>2023-12-27T13:48:51Z</time>
      </trkpt>
      <trkpt lat="49.9563" lon="2.32694">
        <ele>91.3</ele>
        <time>2023-12-27T13:48:52Z</time>
      </trkpt>
      <trkpt lat="49.95632" lon="2.32694">
        <ele>91.3</ele>
        <time>2023-12-27T13:48:53Z</time>
      </trkpt>
      <trkpt lat="49.95633" lon="2.32695">
        <ele>91.3</ele>
        <time>2023-12-27T13:48:54Z</time>
      </trkpt>
      <trkpt lat="49.95637" lon="2.32696">
        <ele>91.4</ele>
        <time>2023-12-27T13:48:56Z</time>
      </trkpt>
      <trkpt lat="49.95638" lon="2.32696">
        <ele>91.4</ele>
        <time>2023-12-27T13:48:57Z</time>
      </trkpt>
      <trkpt lat="49.95639" lon="2.32697">
        <ele>91.4</ele>
        <time>2023-12-27T13:48:58Z</time>
      </trkpt>
      <trkpt lat="49.95641" lon="2.32697">
        <ele>91.4</ele>
        <time>2023-12-27T13:48:59Z</time>
      </trkpt>
      <trkpt lat="49.95642" lon="2.32697">
        <ele>91.5</ele>
        <time>2023-12-27T13:49:00Z</time>
      </trkpt>
      <trkpt lat="49.95644" lon="2.32697">
        <ele>91.5</ele>
        <time>2023-12-27T13:49:01Z</time>
      </trkpt>
      <trkpt lat="49.95645" lon="2.32697">
        <ele>91.5</ele>
        <time>2023-12-27T13:49:03Z</time>
      </trkpt>
      <trkpt lat="49.95646" lon="2.32698">
        <ele>91.5</ele>
        <time>2023-12-27T13:49:04Z</time>
      </trkpt>
      <trkpt lat="49.95649" lon="2.32698">
        <ele>91.6</ele>
        <time>2023-12-27T13:49:05Z</time>
      </trkpt>
      <trkpt lat="49.9565" lon="2.32698">
        <ele>91.6</ele>
        <time>2023-12-27T13:49:06Z</time>
      </trkpt>
      <trkpt lat="49.9565" lon="2.32698">
        <ele>91.6</ele>
        <time>2023-12-27T13:49:07Z</time>
      </trkpt>
      <trkpt lat="49.95653" lon="2.32698">
        <ele>91.7</ele>
        <time>2023-12-27T13:49:08Z</time>
      </trkpt>
      <trkpt lat="49.95654" lon="2.32698">
        <ele>91.7</ele>
        <time>2023-12-27T13:49:10Z</time>
      </trkpt>
      <trkpt lat="49.95655" lon="2.32698">
        <ele>91.7</ele>
        <time>2023-12-27T13:49:11Z</time>
      </trkpt>
      <trkpt lat="49.95656" lon="2.32699">
        <ele>91.7</ele>
        <time>2023-12-27T13:49:12Z</time>
      </trkpt>
      <trkpt lat="49.95657" lon="2.32699">
        <ele>91.7</ele>
        <time>2023-12-27T13:49:13Z</time>
      </trkpt>
      <trkpt lat="49.95659" lon="2.32699">
        <ele>91.8</ele>
        <time>2023-12-27T13:49:14Z</time>
      </trkpt>
      <trkpt lat="49.9566" lon="2.32699">
        <ele>91.8</ele>
        <time>2023-12-27T13:49:16Z</time>
      </trkpt>
      <trkpt lat="49.95661" lon="2.32699">
        <ele>91.8</ele>
        <time>2023-12-27T13:49:17Z</time>
      </trkpt>
      <trkpt lat="49.95662" lon="2.32699">
        <ele>91.9</ele>
        <time>2023-12-27T13:49:18Z</time>
      </trkpt>
      <trkpt lat="49.95663" lon="2.327">
        <ele>91.9</ele>
        <time>2023-12-27T13:49:19Z</time>
      </trkpt>
      <trkpt lat="49.95664" lon="2.327">
        <ele>91.9</ele>
        <time>2023-12-27T13:49:20Z</time>
      </trkpt>
      <trkpt lat="49.95665" lon="2.32701">
        <ele>92</ele>
        <time>2023-12-27T13:49:21Z</time>
      </trkpt>
      <trkpt lat="49.95667" lon="2.32701">
        <ele>92</ele>
        <time>2023-12-27T13:49:22Z</time>
      </trkpt>
      <trkpt lat="49.95668" lon="2.32701">
        <ele>92</ele>
        <time>2023-12-27T13:49:24Z</time>
      </trkpt>
      <trkpt lat="49.95669" lon="2.32702">
        <ele>92.1</ele>
        <time>2023-12-27T13:49:25Z</time>
      </trkpt>
      <trkpt lat="49.9567" lon="2.32702">
        <ele>92.1</ele>
        <time>2023-12-27T13:49:26Z</time>
      </trkpt>
      <trkpt lat="49.95671" lon="2.32702">
        <ele>92.1</ele>
        <time>2023-12-27T13:49:27Z</time>
      </trkpt>
      <trkpt lat="49.95672" lon="2.32703">
        <ele>92.2</ele>
        <time>2023-12-27T13:49:28Z</time>
      </trkpt>
      <trkpt lat="49.95674" lon="2.32702">
        <ele>92.2</ele>
        <time>2023-12-27T13:49:29Z</time>
      </trkpt>
      <trkpt lat="49.95675" lon="2.32702">
        <ele>92.2</ele>
        <time>2023-12-27T13:49:30Z</time>
      </trkpt>
      <trkpt lat="49.95676" lon="2.32703">
        <ele>92.3</ele>
        <time>2023-12-27T13:49:31Z</time>
      </trkpt>
      <trkpt lat="49.95678" lon="2.32703">
        <ele>92.3</ele>
        <time>2023-12-27T13:49:32Z</time>
      </trkpt>
      <trkpt lat="49.95679" lon="2.32703">
        <ele>92.4</ele>
        <time>2023-12-27T13:49:34Z</time>
      </trkpt>
      <trkpt lat="49.9568" lon="2.32704">
        <ele>92.4</ele>
        <time>2023-12-27T13:49:35Z</time>
      </trkpt>
      <trkpt lat="49.95681" lon="2.32704">
        <ele>92.4</ele>
        <time>2023-12-27T13:49:36Z</time>
      </trkpt>
      <trkpt lat="49.95682" lon="2.32705">
        <ele>92.5</ele>
        <time>2023-12-27T13:49:37Z</time>
      </trkpt>
      <trkpt lat="49.95683" lon="2.32705">
        <ele>92.5</ele>
        <time>2023-12-27T13:49:38Z</time>
      </trkpt>
      <trkpt lat="49.95684" lon="2.32706">
        <ele>92.6</ele>
        <time>2023-12-27T13:49:39Z</time>
      </trkpt>
      <trkpt lat="49.95685" lon="2.32707">
        <ele>92.6</ele>
        <time>2023-12-27T13:49:40Z</time>
      </trkpt>
      <trkpt lat="49.95686" lon="2.32708">
        <ele>92.6</ele>
        <time>2023-12-27T13:49:42Z</time>
      </trkpt>
      <trkpt lat="49.95687" lon="2.32709">
        <ele>92.7</ele>
        <time>2023-12-27T13:49:43Z</time>
      </trkpt>
      <trkpt lat="49.95688" lon="2.3271">
        <ele>92.7</ele>
        <time>2023-12-27T13:49:44Z</time>
      </trkpt>
      <trkpt lat="49.95689" lon="2.32711">
        <ele>92.8</ele>
        <time>2023-12-27T13:49:45Z</time>
      </trkpt>
      <trkpt lat="49.9569" lon="2.32711">
        <ele>92.8</ele>
        <time>2023-12-27T13:49:46Z</time>
      </trkpt>
      <trkpt lat="49.95691" lon="2.32712">
        <ele>92.8</ele>
        <time>2023-12-27T13:49:47Z</time>
      </trkpt>
      <trkpt lat="49.95692" lon="2.32712">
        <ele>92.9</ele>
        <time>2023-12-27T13:49:48Z</time>
      </trkpt>
      <trkpt lat="49.95693" lon="2.32712">
        <ele>92.9</ele>
        <time>2023-12-27T13:49:49Z</time>
      </trkpt>
      <trkpt lat="49.95694" lon="2.3271">
        <ele>93</ele>
        <time>2023-12-27T13:49:51Z</time>
      </trkpt>
      <trkpt lat="49.95695" lon="2.32709">
        <ele>93</ele>
        <time>2023-12-27T13:49:52Z</time>
      </trkpt>
      <trkpt lat="49.95696" lon="2.32707">
        <ele>93.1</ele>
        <time>2023-12-27T13:49:53Z</time>
      </trkpt>
      <trkpt lat="49.95697" lon="2.32707">
        <ele>93.1</ele>
        <time>2023-12-27T13:49:54Z</time>
      </trkpt>
      <trkpt lat="49.95699" lon="2.32706">
        <ele>93.2</ele>
        <time>2023-12-27T13:49:55Z</time>
      </trkpt>
      <trkpt lat="49.957" lon="2.32706">
        <ele>93.2</ele>
        <time>2023-12-27T13:49:56Z</time>
      </trkpt>
      <trkpt lat="49.95701" lon="2.32706">
        <ele>93.3</ele>
        <time>2023-12-27T13:49:57Z</time>
      </trkpt>
      <trkpt lat="49.95703" lon="2.32705">
        <ele>93.3</ele>
        <time>2023-12-27T13:49:59Z</time>
      </trkpt>
      <trkpt lat="49.95704" lon="2.32705">
        <ele>93.4</ele>
        <time>2023-12-27T13:50:00Z</time>
      </trkpt>
      <trkpt lat="49.95705" lon="2.32705">
        <ele>93.4</ele>
        <time>2023-12-27T13:50:01Z</time>
      </trkpt>
      <trkpt lat="49.95707" lon="2.32706">
        <ele>93.5</ele>
        <time>2023-12-27T13:50:02Z</time>
      </trkpt>
      <trkpt lat="49.95708" lon="2.32706">
        <ele>93.5</ele>
        <time>2023-12-27T13:50:03Z</time>
      </trkpt>
      <trkpt lat="49.95709" lon="2.32706">
        <ele>93.6</ele>
        <time>2023-12-27T13:50:04Z</time>
      </trkpt>
      <trkpt lat="49.95711" lon="2.32707">
        <ele>93.6</ele>
        <time>2023-12-27T13:50:05Z</time>
      </trkpt>
      <trkpt lat="49.95712" lon="2.32707">
        <ele>93.7</ele>
        <time>2023-12-27T13:50:07Z</time>
      </trkpt>
      <trkpt lat="49.95713" lon="2.32707">
        <ele>93.7</ele>
        <time>2023-12-27T13:50:08Z</time>
      </trkpt>
      <trkpt lat="49.95714" lon="2.32707">
        <ele>93.8</ele>
        <time>2023-12-27T13:50:09Z</time>
      </trkpt>
      <trkpt lat="49.95715" lon="2.32708">
        <ele>93.8</ele>
        <time>2023-12-27T13:50:10Z</time>
      </trkpt>
      <trkpt lat="49.95716" lon="2.32708">
        <ele>93.9</ele>
        <time>2023-12-27T13:50:11Z</time>
      </trkpt>
      <trkpt lat="49.95717" lon="2.32708">
        <ele>93.9</ele>
        <time>2023-12-27T13:50:12Z</time>
      </trkpt>
      <trkpt lat="49.95718" lon="2.32708">
        <ele>93.9</ele>
        <time>2023-12-27T13:50:13Z</time>
      </trkpt>
      <trkpt lat="49.9572" lon="2.32709">
        <ele>94</ele>
        <time>2023-12-27T13:50:14Z</time>
      </trkpt>
      <trkpt lat="49.95722" lon="2.32709">
        <ele>94.1</ele>
        <time>2023-12-27T13:50:16Z</time>
      </trkpt>
      <trkpt lat="49.95723" lon="2.32709">
        <ele>94.1</ele>
        <time>2023-12-27T13:50:17Z</time>
      </trkpt>
      <trkpt lat="49.95724" lon="2.32709">
        <ele>94.2</ele>
        <time>2023-12-27T13:50:18Z</time>
      </trkpt>
      <trkpt lat="49.95726" lon="2.32709">
        <ele>94.3</ele>
        <time>2023-12-27T13:50:19Z</time>
      </trkpt>
      <trkpt lat="49.95727" lon="2.32709">
        <ele>94.3</ele>
        <time>2023-12-27T13:50:21Z</time>
      </trkpt>
      <trkpt lat="49.95727" lon="2.32709">
        <ele>94.3</ele>
        <time>2023-12-27T13:50:22Z</time>
      </trkpt>
      <trkpt lat="49.9573" lon="2.32708">
        <ele>94.4</ele>
        <time>2023-12-27T13:50:23Z</time>
      </trkpt>
      <trkpt lat="49.9573" lon="2.32708">
        <ele>94.4</ele>
        <time>2023-12-27T13:50:24Z</time>
      </trkpt>
      <trkpt lat="49.95731" lon="2.32708">
        <ele>94.5</ele>
        <time>2023-12-27T13:50:25Z</time>
      </trkpt>
      <trkpt lat="49.95733" lon="2.32708">
        <ele>94.5</ele>
        <time>2023-12-27T13:50:26Z</time>
      </trkpt>
      <trkpt lat="49.95734" lon="2.32708">
        <ele>94.6</ele>
        <time>2023-12-27T13:50:27Z</time>
      </trkpt>
      <trkpt lat="49.95735" lon="2.32708">
        <ele>94.7</ele>
        <time>2023-12-27T13:50:29Z</time>
      </trkpt>
      <trkpt lat="49.95736" lon="2.32708">
        <ele>94.7</ele>
        <time>2023-12-27T13:50:30Z</time>
      </trkpt>
      <trkpt lat="49.95737" lon="2.32708">
        <ele>94.7</ele>
        <time>2023-12-27T13:50:31Z</time>
      </trkpt>
      <trkpt lat="49.95739" lon="2.32708">
        <ele>94.8</ele>
        <time>2023-12-27T13:50:32Z</time>
      </trkpt>
      <trkpt lat="49.9574" lon="2.32709">
        <ele>94.9</ele>
        <time>2023-12-27T13:50:33Z</time>
      </trkpt>
      <trkpt lat="49.95741" lon="2.32709">
        <ele>94.9</ele>
        <time>2023-12-27T13:50:34Z</time>
      </trkpt>
      <trkpt lat="49.95743" lon="2.3271">
        <ele>95</ele>
        <time>2023-12-27T13:50:35Z</time>
      </trkpt>
      <trkpt lat="49.95744" lon="2.3271">
        <ele>95</ele>
        <time>2023-12-27T13:50:36Z</time>
      </trkpt>
      <trkpt lat="49.95745" lon="2.3271">
        <ele>95.1</ele>
        <time>2023-12-27T13:50:37Z</time>
      </trkpt>
      <trkpt lat="49.95746" lon="2.3271">
        <ele>95.1</ele>
        <time>2023-12-27T13:50:38Z</time>
      </trkpt>
      <trkpt lat="49.95747" lon="2.32711">
        <ele>95.2</ele>
        <time>2023-12-27T13:50:39Z</time>
      </trkpt>
      <trkpt lat="49.95748" lon="2.32711">
        <ele>95.2</ele>
        <time>2023-12-27T13:50:41Z</time>
      </trkpt>
      <trkpt lat="49.95749" lon="2.32711">
        <ele>95.3</ele>
        <time>2023-12-27T13:50:42Z</time>
      </trkpt>
      <trkpt lat="49.95751" lon="2.32712">
        <ele>95.3</ele>
        <time>2023-12-27T13:50:43Z</time>
      </trkpt>
      <trkpt lat="49.95752" lon="2.32712">
        <ele>95.4</ele>
        <time>2023-12-27T13:50:44Z</time>
      </trkpt>
      <trkpt lat="49.95753" lon="2.32712">
        <ele>95.4</ele>
        <time>2023-12-27T13:50:45Z</time>
      </trkpt>
      <trkpt lat="49.95754" lon="2.32712">
        <ele>95.5</ele>
        <time>2023-12-27T13:50:46Z</time>
      </trkpt>
      <trkpt lat="49.95755" lon="2.32713">
        <ele>95.5</ele>
        <time>2023-12-27T13:50:47Z</time>
      </trkpt>
      <trkpt lat="49.95757" lon="2.32713">
        <ele>95.6</ele>
        <time>2023-12-27T13:50:48Z</time>
      </trkpt>
      <trkpt lat="49.95758" lon="2.32713">
        <ele>95.7</ele>
        <time>2023-12-27T13:50:49Z</time>
      </trkpt>
      <trkpt lat="49.95759" lon="2.32713">
        <ele>95.7</ele>
        <time>2023-12-27T13:50:51Z</time>
      </trkpt>
      <trkpt lat="49.9576" lon="2.32713">
        <ele>95.8</ele>
        <time>2023-12-27T13:50:52Z</time>
      </trkpt>
      <trkpt lat="49.95761" lon="2.32713">
        <ele>95.8</ele>
        <time>2023-12-27T13:50:53Z</time>
      </trkpt>
      <trkpt lat="49.95762" lon="2.32713">
        <ele>95.8</ele>
        <time>2023-12-27T13:50:54Z</time>
      </trkpt>
      <trkpt lat="49.95764" lon="2.32713">
        <ele>96</ele>
        <time>2023-12-27T13:50:55Z</time>
      </trkpt>
      <trkpt lat="49.95765" lon="2.32714">
        <ele>96</ele>
        <time>2023-12-27T13:50:56Z</time>
      </trkpt>
      <trkpt lat="49.95766" lon="2.32714">
        <ele>96</ele>
        <time>2023-12-27T13:50:57Z</time>
      </trkpt>
      <trkpt lat="49.95767" lon="2.32714">
        <ele>96.1</ele>
        <time>2023-12-27T13:50:58Z</time>
      </trkpt>
      <trkpt lat="49.95769" lon="2.32715">
        <ele>96.2</ele>
        <time>2023-12-27T13:50:59Z</time>
      </trkpt>
      <trkpt lat="49.9577" lon="2.32716">
        <ele>96.3</ele>
        <time>2023-12-27T13:51:01Z</time>
      </trkpt>
      <trkpt lat="49.95772" lon="2.32716">
        <ele>96.4</ele>
        <time>2023-12-27T13:51:02Z</time>
      </trkpt>
      <trkpt lat="49.95773" lon="2.32716">
        <ele>96.4</ele>
        <time>2023-12-27T13:51:03Z</time>
      </trkpt>
      <trkpt lat="49.95774" lon="2.32716">
        <ele>96.4</ele>
        <time>2023-12-27T13:51:04Z</time>
      </trkpt>
      <trkpt lat="49.95776" lon="2.32717">
        <ele>96.6</ele>
        <time>2023-12-27T13:51:05Z</time>
      </trkpt>
      <trkpt lat="49.95777" lon="2.32717">
        <ele>96.6</ele>
        <time>2023-12-27T13:51:06Z</time>
      </trkpt>
      <trkpt lat="49.95778" lon="2.32717">
        <ele>96.7</ele>
        <time>2023-12-27T13:51:07Z</time>
      </trkpt>
      <trkpt lat="49.95779" lon="2.32718">
        <ele>96.7</ele>
        <time>2023-12-27T13:51:08Z</time>
      </trkpt>
      <trkpt lat="49.9578" lon="2.32718">
        <ele>96.8</ele>
        <time>2023-12-27T13:51:09Z</time>
      </trkpt>
      <trkpt lat="49.95781" lon="2.32719">
        <ele>96.9</ele>
        <time>2023-12-27T13:51:11Z</time>
      </trkpt>
      <trkpt lat="49.95782" lon="2.32719">
        <ele>96.9</ele>
        <time>2023-12-27T13:51:12Z</time>
      </trkpt>
      <trkpt lat="49.95783" lon="2.32719">
        <ele>97</ele>
        <time>2023-12-27T13:51:13Z</time>
      </trkpt>
      <trkpt lat="49.95784" lon="2.32719">
        <ele>97.1</ele>
        <time>2023-12-27T13:51:14Z</time>
      </trkpt>
      <trkpt lat="49.95785" lon="2.32719">
        <ele>97.1</ele>
        <time>2023-12-27T13:51:15Z</time>
      </trkpt>
      <trkpt lat="49.95787" lon="2.32719">
        <ele>97.2</ele>
        <time>2023-12-27T13:51:16Z</time>
      </trkpt>
      <trkpt lat="49.95788" lon="2.3272">
        <ele>97.3</ele>
        <time>2023-12-27T13:51:17Z</time>
      </trkpt>
      <trkpt lat="49.95789" lon="2.3272">
        <ele>97.3</ele>
        <time>2023-12-27T13:51:18Z</time>
      </trkpt>
      <trkpt lat="49.9579" lon="2.3272">
        <ele>97.4</ele>
        <time>2023-12-27T13:51:20Z</time>
      </trkpt>
      <trkpt lat="49.95791" lon="2.3272">
        <ele>97.5</ele>
        <time>2023-12-27T13:51:21Z</time>
      </trkpt>
      <trkpt lat="49.95793" lon="2.32721">
        <ele>97.6</ele>
        <time>2023-12-27T13:51:22Z</time>
      </trkpt>
      <trkpt lat="49.95794" lon="2.32721">
        <ele>97.7</ele>
        <time>2023-12-27T13:51:23Z</time>
      </trkpt>
      <trkpt lat="49.95795" lon="2.32721">
        <ele>97.7</ele>
        <time>2023-12-27T13:51:24Z</time>
      </trkpt>
      <trkpt lat="49.95796" lon="2.32722">
        <ele>97.8</ele>
        <time>2023-12-27T13:51:25Z</time>
      </trkpt>
      <trkpt lat="49.95797" lon="2.32722">
        <ele>97.9</ele>
        <time>2023-12-27T13:51:26Z</time>
      </trkpt>
      <trkpt lat="49.95799" lon="2.32723">
        <ele>98</ele>
        <time>2023-12-27T13:51:28Z</time>
      </trkpt>
      <trkpt lat="49.95799" lon="2.32724">
        <ele>98</ele>
        <time>2023-12-27T13:51:29Z</time>
      </trkpt>
      <trkpt lat="49.95801" lon="2.32725">
        <ele>98.1</ele>
        <time>2023-12-27T13:51:30Z</time>
      </trkpt>
      <trkpt lat="49.95802" lon="2.32726">
        <ele>98.2</ele>
        <time>2023-12-27T13:51:31Z</time>
      </trkpt>
      <trkpt lat="49.95804" lon="2.32727">
        <ele>98.3</ele>
        <time>2023-12-27T13:51:32Z</time>
      </trkpt>
      <trkpt lat="49.95804" lon="2.32728">
        <ele>98.4</ele>
        <time>2023-12-27T13:51:33Z</time>
      </trkpt>
      <trkpt lat="49.95805" lon="2.32728">
        <ele>98.4</ele>
        <time>2023-12-27T13:51:34Z</time>
      </trkpt>
      <trkpt lat="49.95806" lon="2.32729">
        <ele>98.5</ele>
        <time>2023-12-27T13:51:35Z</time>
      </trkpt>
      <trkpt lat="49.95807" lon="2.32729">
        <ele>98.6</ele>
        <time>2023-12-27T13:51:37Z</time>
      </trkpt>
      <trkpt lat="49.95808" lon="2.3273">
        <ele>98.7</ele>
        <time>2023-12-27T13:51:38Z</time>
      </trkpt>
      <trkpt lat="49.9581" lon="2.32731">
        <ele>98.8</ele>
        <time>2023-12-27T13:51:39Z</time>
      </trkpt>
      <trkpt lat="49.95811" lon="2.32731">
        <ele>98.8</ele>
        <time>2023-12-27T13:51:40Z</time>
      </trkpt>
      <trkpt lat="49.95812" lon="2.32731">
        <ele>98.9</ele>
        <time>2023-12-27T13:51:41Z</time>
      </trkpt>
      <trkpt lat="49.95813" lon="2.32732">
        <ele>99</ele>
        <time>2023-12-27T13:51:42Z</time>
      </trkpt>
      <trkpt lat="49.95814" lon="2.32733">
        <ele>99</ele>
        <time>2023-12-27T13:51:44Z</time>
      </trkpt>
      <trkpt lat="49.95815" lon="2.32733">
        <ele>99.1</ele>
        <time>2023-12-27T13:51:45Z</time>
      </trkpt>
      <trkpt lat="49.95817" lon="2.32734">
        <ele>99.2</ele>
        <time>2023-12-27T13:51:46Z</time>
      </trkpt>
      <trkpt lat="49.95818" lon="2.32734">
        <ele>99.2</ele>
        <time>2023-12-27T13:51:47Z</time>
      </trkpt>
      <trkpt lat="49.95819" lon="2.32734">
        <ele>99.3</ele>
        <time>2023-12-27T13:51:48Z</time>
      </trkpt>
      <trkpt lat="49.9582" lon="2.32735">
        <ele>99.4</ele>
        <time>2023-12-27T13:51:49Z</time>
      </trkpt>
      <trkpt lat="49.95821" lon="2.32735">
        <ele>99.5</ele>
        <time>2023-12-27T13:51:50Z</time>
      </trkpt>
      <trkpt lat="49.95822" lon="2.32736">
        <ele>99.5</ele>
        <time>2023-12-27T13:51:51Z</time>
      </trkpt>
      <trkpt lat="49.95823" lon="2.32736">
        <ele>99.6</ele>
        <time>2023-12-27T13:51:53Z</time>
      </trkpt>
      <trkpt lat="49.95824" lon="2.32737">
        <ele>99.7</ele>
        <time>2023-12-27T13:51:54Z</time>
      </trkpt>
      <trkpt lat="49.95825" lon="2.32737">
        <ele>99.7</ele>
        <time>2023-12-27T13:51:55Z</time>
      </trkpt>
      <trkpt lat="49.95826" lon="2.32738">
        <ele>99.8</ele>
        <time>2023-12-27T13:51:56Z</time>
      </trkpt>
      <trkpt lat="49.95827" lon="2.32738">
        <ele>99.9</ele>
        <time>2023-12-27T13:51:57Z</time>
      </trkpt>
      <trkpt lat="49.95828" lon="2.32739">
        <ele>99.9</ele>
        <time>2023-12-27T13:51:58Z</time>
      </trkpt>
      <trkpt lat="49.9583" lon="2.32741">
        <ele>100.1</ele>
        <time>2023-12-27T13:52:00Z</time>
      </trkpt>
      <trkpt lat="49.95831" lon="2.32741">
        <ele>100.1</ele>
        <time>2023-12-27T13:52:01Z</time>
      </trkpt>
      <trkpt lat="49.95832" lon="2.32742">
        <ele>100.2</ele>
        <time>2023-12-27T13:52:02Z</time>
      </trkpt>
      <trkpt lat="49.95833" lon="2.32743">
        <ele>100.3</ele>
        <time>2023-12-27T13:52:03Z</time>
      </trkpt>
      <trkpt lat="49.95834" lon="2.32744">
        <ele>100.3</ele>
        <time>2023-12-27T13:52:04Z</time>
      </trkpt>
      <trkpt lat="49.95835" lon="2.32745">
        <ele>100.4</ele>
        <time>2023-12-27T13:52:05Z</time>
      </trkpt>
      <trkpt lat="49.95837" lon="2.32746">
        <ele>100.5</ele>
        <time>2023-12-27T13:52:06Z</time>
      </trkpt>
      <trkpt lat="49.95838" lon="2.32746">
        <ele>100.6</ele>
        <time>2023-12-27T13:52:08Z</time>
      </trkpt>
      <trkpt lat="49.9584" lon="2.32747">
        <ele>100.7</ele>
        <time>2023-12-27T13:52:09Z</time>
      </trkpt>
      <trkpt lat="49.95841" lon="2.32748">
        <ele>100.7</ele>
        <time>2023-12-27T13:52:10Z</time>
      </trkpt>
      <trkpt lat="49.95842" lon="2.32748">
        <ele>100.8</ele>
        <time>2023-12-27T13:52:11Z</time>
      </trkpt>
      <trkpt lat="49.95843" lon="2.32748">
        <ele>100.9</ele>
        <time>2023-12-27T13:52:12Z</time>
      </trkpt>
      <trkpt lat="49.95844" lon="2.32749">
        <ele>101</ele>
        <time>2023-12-27T13:52:13Z</time>
      </trkpt>
      <trkpt lat="49.95847" lon="2.3275">
        <ele>101.1</ele>
        <time>2023-12-27T13:52:14Z</time>
      </trkpt>
      <trkpt lat="49.95848" lon="2.3275">
        <ele>101.2</ele>
        <time>2023-12-27T13:52:16Z</time>
      </trkpt>
      <trkpt lat="49.95849" lon="2.32751">
        <ele>101.2</ele>
        <time>2023-12-27T13:52:17Z</time>
      </trkpt>
      <trkpt lat="49.9585" lon="2.32751">
        <ele>101.3</ele>
        <time>2023-12-27T13:52:18Z</time>
      </trkpt>
      <trkpt lat="49.95851" lon="2.32752">
        <ele>101.3</ele>
        <time>2023-12-27T13:52:19Z</time>
      </trkpt>
      <trkpt lat="49.95853" lon="2.32753">
        <ele>101.5</ele>
        <time>2023-12-27T13:52:20Z</time>
      </trkpt>
      <trkpt lat="49.95853" lon="2.32754">
        <ele>101.5</ele>
        <time>2023-12-27T13:52:21Z</time>
      </trkpt>
      <trkpt lat="49.95854" lon="2.32754">
        <ele>101.6</ele>
        <time>2023-12-27T13:52:22Z</time>
      </trkpt>
      <trkpt lat="49.95856" lon="2.32756">
        <ele>101.7</ele>
        <time>2023-12-27T13:52:24Z</time>
      </trkpt>
      <trkpt lat="49.95857" lon="2.32756">
        <ele>101.7</ele>
        <time>2023-12-27T13:52:25Z</time>
      </trkpt>
      <trkpt lat="49.95858" lon="2.32757">
        <ele>101.8</ele>
        <time>2023-12-27T13:52:26Z</time>
      </trkpt>
      <trkpt lat="49.9586" lon="2.32758">
        <ele>101.9</ele>
        <time>2023-12-27T13:52:27Z</time>
      </trkpt>
      <trkpt lat="49.9586" lon="2.32759">
        <ele>102</ele>
        <time>2023-12-27T13:52:28Z</time>
      </trkpt>
      <trkpt lat="49.95861" lon="2.32759">
        <ele>102</ele>
        <time>2023-12-27T13:52:29Z</time>
      </trkpt>
      <trkpt lat="49.95862" lon="2.3276">
        <ele>102.1</ele>
        <time>2023-12-27T13:52:31Z</time>
      </trkpt>
      <trkpt lat="49.95863" lon="2.32761">
        <ele>102.2</ele>
        <time>2023-12-27T13:52:32Z</time>
      </trkpt>
      <trkpt lat="49.95864" lon="2.32761">
        <ele>102.2</ele>
        <time>2023-12-27T13:52:33Z</time>
      </trkpt>
      <trkpt lat="49.95865" lon="2.32762">
        <ele>102.3</ele>
        <time>2023-12-27T13:52:34Z</time>
      </trkpt>
      <trkpt lat="49.95866" lon="2.32763">
        <ele>102.4</ele>
        <time>2023-12-27T13:52:35Z</time>
      </trkpt>
      <trkpt lat="49.95867" lon="2.32764">
        <ele>102.5</ele>
        <time>2023-12-27T13:52:36Z</time>
      </trkpt>
      <trkpt lat="49.95868" lon="2.32765">
        <ele>102.5</ele>
        <time>2023-12-27T13:52:37Z</time>
      </trkpt>
      <trkpt lat="49.95869" lon="2.32766">
        <ele>102.6</ele>
        <time>2023-12-27T13:52:39Z</time>
      </trkpt>
      <trkpt lat="49.9587" lon="2.32767">
        <ele>102.7</ele>
        <time>2023-12-27T13:52:40Z</time>
      </trkpt>
      <trkpt lat="49.95872" lon="2.32769">
        <ele>102.8</ele>
        <time>2023-12-27T13:52:41Z</time>
      </trkpt>
      <trkpt lat="49.95872" lon="2.32769">
        <ele>102.9</ele>
        <time>2023-12-27T13:52:42Z</time>
      </trkpt>
      <trkpt lat="49.95873" lon="2.3277">
        <ele>102.9</ele>
        <time>2023-12-27T13:52:43Z</time>
      </trkpt>
      <trkpt lat="49.95874" lon="2.32771">
        <ele>103</ele>
        <time>2023-12-27T13:52:44Z</time>
      </trkpt>
      <trkpt lat="49.95875" lon="2.32772">
        <ele>103.1</ele>
        <time>2023-12-27T13:52:46Z</time>
      </trkpt>
      <trkpt lat="49.95876" lon="2.32773">
        <ele>103.2</ele>
        <time>2023-12-27T13:52:47Z</time>
      </trkpt>
      <trkpt lat="49.95877" lon="2.32774">
        <ele>103.2</ele>
        <time>2023-12-27T13:52:48Z</time>
      </trkpt>
      <trkpt lat="49.95878" lon="2.32774">
        <ele>103.3</ele>
        <time>2023-12-27T13:52:49Z</time>
      </trkpt>
      <trkpt lat="49.95879" lon="2.32775">
        <ele>103.4</ele>
        <time>2023-12-27T13:52:50Z</time>
      </trkpt>
      <trkpt lat="49.9588" lon="2.32776">
        <ele>103.4</ele>
        <time>2023-12-27T13:52:51Z</time>
      </trkpt>
      <trkpt lat="49.9588" lon="2.32777">
        <ele>103.5</ele>
        <time>2023-12-27T13:52:53Z</time>
      </trkpt>
      <trkpt lat="49.95881" lon="2.32778">
        <ele>103.6</ele>
        <time>2023-12-27T13:52:54Z</time>
      </trkpt>
      <trkpt lat="49.95882" lon="2.32778">
        <ele>103.6</ele>
        <time>2023-12-27T13:52:55Z</time>
      </trkpt>
      <trkpt lat="49.95883" lon="2.32779">
        <ele>103.7</ele>
        <time>2023-12-27T13:52:56Z</time>
      </trkpt>
      <trkpt lat="49.95884" lon="2.3278">
        <ele>103.8</ele>
        <time>2023-12-27T13:52:58Z</time>
      </trkpt>
      <trkpt lat="49.95885" lon="2.32782">
        <ele>103.9</ele>
        <time>2023-12-27T13:52:59Z</time>
      </trkpt>
      <trkpt lat="49.95885" lon="2.32783">
        <ele>103.9</ele>
        <time>2023-12-27T13:53:01Z</time>
      </trkpt>
      <trkpt lat="49.95885" lon="2.32783">
        <ele>104</ele>
        <time>2023-12-27T13:53:02Z</time>
      </trkpt>
      <trkpt lat="49.95885" lon="2.32784">
        <ele>104</ele>
        <time>2023-12-27T13:53:04Z</time>
      </trkpt>
      <trkpt lat="49.95885" lon="2.32785">
        <ele>104</ele>
        <time>2023-12-27T13:53:05Z</time>
      </trkpt>
      <trkpt lat="49.95886" lon="2.32786">
        <ele>104.1</ele>
        <time>2023-12-27T13:53:07Z</time>
      </trkpt>
      <trkpt lat="49.95886" lon="2.32786">
        <ele>104.1</ele>
        <time>2023-12-27T13:53:08Z</time>
      </trkpt>
      <trkpt lat="49.95886" lon="2.32787">
        <ele>104.1</ele>
        <time>2023-12-27T13:53:10Z</time>
      </trkpt>
      <trkpt lat="49.95886" lon="2.32788">
        <ele>104.2</ele>
        <time>2023-12-27T13:53:11Z</time>
      </trkpt>
      <trkpt lat="49.95886" lon="2.32788">
        <ele>104.2</ele>
        <time>2023-12-27T13:53:12Z</time>
      </trkpt>
      <trkpt lat="49.95886" lon="2.32789">
        <ele>104.2</ele>
        <time>2023-12-27T13:53:14Z</time>
      </trkpt>
      <trkpt lat="49.95887" lon="2.3279">
        <ele>104.3</ele>
        <time>2023-12-27T13:53:15Z</time>
      </trkpt>
      <trkpt lat="49.95887" lon="2.32791">
        <ele>104.3</ele>
        <time>2023-12-27T13:53:17Z</time>
      </trkpt>
      <trkpt lat="49.95887" lon="2.32791">
        <ele>104.3</ele>
        <time>2023-12-27T13:53:18Z</time>
      </trkpt>
      <trkpt lat="49.95887" lon="2.32792">
        <ele>104.2</ele>
        <time>2023-12-27T13:53:24Z</time>
      </trkpt>
      <trkpt lat="49.95887" lon="2.32793">
        <ele>104.2</ele>
        <time>2023-12-27T13:53:25Z</time>
      </trkpt>
      <trkpt lat="49.95887" lon="2.32794">
        <ele>104.2</ele>
        <time>2023-12-27T13:53:26Z</time>
      </trkpt>
      <trkpt lat="49.95888" lon="2.32796">
        <ele>104.2</ele>
        <time>2023-12-27T13:53:27Z</time>
      </trkpt>
      <trkpt lat="49.95889" lon="2.32797">
        <ele>104.1</ele>
        <time>2023-12-27T13:53:29Z</time>
      </trkpt>
      <trkpt lat="49.95891" lon="2.32799">
        <ele>104.1</ele>
        <time>2023-12-27T13:53:30Z</time>
      </trkpt>
      <trkpt lat="49.95892" lon="2.32801">
        <ele>104</ele>
        <time>2023-12-27T13:53:31Z</time>
      </trkpt>
      <trkpt lat="49.95893" lon="2.32802">
        <ele>104</ele>
        <time>2023-12-27T13:53:32Z</time>
      </trkpt>
      <trkpt lat="49.95895" lon="2.32803">
        <ele>103.9</ele>
        <time>2023-12-27T13:53:33Z</time>
      </trkpt>
      <trkpt lat="49.95896" lon="2.32805">
        <ele>103.9</ele>
        <time>2023-12-27T13:53:34Z</time>
      </trkpt>
      <trkpt lat="49.95897" lon="2.32806">
        <ele>103.8</ele>
        <time>2023-12-27T13:53:36Z</time>
      </trkpt>
      <trkpt lat="49.95898" lon="2.32808">
        <ele>103.8</ele>
        <time>2023-12-27T13:53:37Z</time>
      </trkpt>
      <trkpt lat="49.95898" lon="2.32809">
        <ele>103.7</ele>
        <time>2023-12-27T13:53:38Z</time>
      </trkpt>
      <trkpt lat="49.95898" lon="2.32811">
        <ele>103.7</ele>
        <time>2023-12-27T13:53:39Z</time>
      </trkpt>
      <trkpt lat="49.95898" lon="2.32813">
        <ele>103.7</ele>
        <time>2023-12-27T13:53:40Z</time>
      </trkpt>
      <trkpt lat="49.95898" lon="2.32815">
        <ele>103.6</ele>
        <time>2023-12-27T13:53:42Z</time>
      </trkpt>
      <trkpt lat="49.95897" lon="2.32816">
        <ele>103.6</ele>
        <time>2023-12-27T13:53:43Z</time>
      </trkpt>
      <trkpt lat="49.95897" lon="2.32817">
        <ele>103.6</ele>
        <time>2023-12-27T13:53:44Z</time>
      </trkpt>
      <trkpt lat="49.95896" lon="2.32818">
        <ele>103.6</ele>
        <time>2023-12-27T13:53:45Z</time>
      </trkpt>
      <trkpt lat="49.95896" lon="2.3282">
        <ele>103.5</ele>
        <time>2023-12-27T13:53:46Z</time>
      </trkpt>
      <trkpt lat="49.95896" lon="2.32821">
        <ele>103.5</ele>
        <time>2023-12-27T13:53:48Z</time>
      </trkpt>
      <trkpt lat="49.95895" lon="2.32823">
        <ele>103.5</ele>
        <time>2023-12-27T13:53:49Z</time>
      </trkpt>
      <trkpt lat="49.95895" lon="2.32823">
        <ele>103.5</ele>
        <time>2023-12-27T13:53:50Z</time>
      </trkpt>
      <trkpt lat="49.95894" lon="2.32825">
        <ele>103.4</ele>
        <time>2023-12-27T13:53:51Z</time>
      </trkpt>
      <trkpt lat="49.95893" lon="2.32826">
        <ele>103.4</ele>
        <time>2023-12-27T13:53:52Z</time>
      </trkpt>
      <trkpt lat="49.95892" lon="2.32828">
        <ele>103.4</ele>
        <time>2023-12-27T13:53:54Z</time>
      </trkpt>
      <trkpt lat="49.95891" lon="2.3283">
        <ele>103.3</ele>
        <time>2023-12-27T13:53:55Z</time>
      </trkpt>
      <trkpt lat="49.95891" lon="2.32831">
        <ele>103.3</ele>
        <time>2023-12-27T13:53:56Z</time>
      </trkpt>
      <trkpt lat="49.9589" lon="2.32833">
        <ele>103.3</ele>
        <time>2023-12-27T13:53:57Z</time>
      </trkpt>
      <trkpt lat="49.9589" lon="2.32835">
        <ele>103.2</ele>
        <time>2023-12-27T13:53:58Z</time>
      </trkpt>
      <trkpt lat="49.9589" lon="2.32837">
        <ele>103.2</ele>
        <time>2023-12-27T13:53:59Z</time>
      </trkpt>
      <trkpt lat="49.95889" lon="2.32839">
        <ele>103.2</ele>
        <time>2023-12-27T13:54:01Z</time>
      </trkpt>
      <trkpt lat="49.9589" lon="2.32842">
        <ele>103.1</ele>
        <time>2023-12-27T13:54:02Z</time>
      </trkpt>
      <trkpt lat="49.9589" lon="2.32843">
        <ele>103.1</ele>
        <time>2023-12-27T13:54:03Z</time>
      </trkpt>
      <trkpt lat="49.9589" lon="2.32844">
        <ele>103.1</ele>
        <time>2023-12-27T13:54:04Z</time>
      </trkpt>
      <trkpt lat="49.9589" lon="2.32848">
        <ele>103</ele>
        <time>2023-12-27T13:54:05Z</time>
      </trkpt>
      <trkpt lat="49.95891" lon="2.32849">
        <ele>103</ele>
        <time>2023-12-27T13:54:06Z</time>
      </trkpt>
      <trkpt lat="49.95891" lon="2.3285">
        <ele>103</ele>
        <time>2023-12-27T13:54:07Z</time>
      </trkpt>
      <trkpt lat="49.95891" lon="2.32853">
        <ele>102.9</ele>
        <time>2023-12-27T13:54:09Z</time>
      </trkpt>
      <trkpt lat="49.95891" lon="2.32855">
        <ele>102.9</ele>
        <time>2023-12-27T13:54:10Z</time>
      </trkpt>
      <trkpt lat="49.95891" lon="2.32856">
        <ele>102.9</ele>
        <time>2023-12-27T13:54:11Z</time>
      </trkpt>
      <trkpt lat="49.95891" lon="2.32859">
        <ele>102.9</ele>
        <time>2023-12-27T13:54:12Z</time>
      </trkpt>
      <trkpt lat="49.95891" lon="2.3286">
        <ele>102.8</ele>
        <time>2023-12-27T13:54:13Z</time>
      </trkpt>
      <trkpt lat="49.95891" lon="2.32862">
        <ele>102.8</ele>
        <time>2023-12-27T13:54:14Z</time>
      </trkpt>
      <trkpt lat="49.95891" lon="2.32865">
        <ele>102.8</ele>
        <time>2023-12-27T13:54:15Z</time>
      </trkpt>
      <trkpt lat="49.95891" lon="2.32866">
        <ele>102.8</ele>
        <time>2023-12-27T13:54:17Z</time>
      </trkpt>
      <trkpt lat="49.95891" lon="2.32868">
        <ele>102.8</ele>
        <time>2023-12-27T13:54:18Z</time>
      </trkpt>
      <trkpt lat="49.95892" lon="2.32871">
        <ele>102.7</ele>
        <time>2023-12-27T13:54:19Z</time>
      </trkpt>
      <trkpt lat="49.95892" lon="2.32872">
        <ele>102.7</ele>
        <time>2023-12-27T13:54:20Z</time>
      </trkpt>
      <trkpt lat="49.95892" lon="2.32873">
        <ele>102.7</ele>
        <time>2023-12-27T13:54:21Z</time>
      </trkpt>
      <trkpt lat="49.95892" lon="2.32876">
        <ele>102.6</ele>
        <time>2023-12-27T13:54:22Z</time>
      </trkpt>
      <trkpt lat="49.95892" lon="2.32878">
        <ele>102.6</ele>
        <time>2023-12-27T13:54:23Z</time>
      </trkpt>
      <trkpt lat="49.95892" lon="2.32879">
        <ele>102.6</ele>
        <time>2023-12-27T13:54:24Z</time>
      </trkpt>
      <trkpt lat="49.95893" lon="2.32882">
        <ele>102.6</ele>
        <time>2023-12-27T13:54:26Z</time>
      </trkpt>
      <trkpt lat="49.95893" lon="2.32883">
        <ele>102.5</ele>
        <time>2023-12-27T13:54:27Z</time>
      </trkpt>
      <trkpt lat="49.95893" lon="2.32885">
        <ele>102.5</ele>
        <time>2023-12-27T13:54:28Z</time>
      </trkpt>
      <trkpt lat="49.95893" lon="2.32886">
        <ele>102.5</ele>
        <time>2023-12-27T13:54:29Z</time>
      </trkpt>
      <trkpt lat="49.95893" lon="2.32888">
        <ele>102.5</ele>
        <time>2023-12-27T13:54:30Z</time>
      </trkpt>
      <trkpt lat="49.95892" lon="2.3289">
        <ele>102.5</ele>
        <time>2023-12-27T13:54:31Z</time>
      </trkpt>
      <trkpt lat="49.95892" lon="2.32893">
        <ele>102.4</ele>
        <time>2023-12-27T13:54:32Z</time>
      </trkpt>
      <trkpt lat="49.95892" lon="2.32894">
        <ele>102.4</ele>
        <time>2023-12-27T13:54:33Z</time>
      </trkpt>
      <trkpt lat="49.95892" lon="2.32896">
        <ele>102.4</ele>
        <time>2023-12-27T13:54:34Z</time>
      </trkpt>
      <trkpt lat="49.95891" lon="2.32899">
        <ele>102.3</ele>
        <time>2023-12-27T13:54:35Z</time>
      </trkpt>
      <trkpt lat="49.95891" lon="2.329">
        <ele>102.3</ele>
        <time>2023-12-27T13:54:37Z</time>
      </trkpt>
      <trkpt lat="49.95891" lon="2.32901">
        <ele>102.3</ele>
        <time>2023-12-27T13:54:38Z</time>
      </trkpt>
      <trkpt lat="49.95891" lon="2.32903">
        <ele>102.2</ele>
        <time>2023-12-27T13:54:39Z</time>
      </trkpt>
      <trkpt lat="49.9589" lon="2.32904">
        <ele>102.2</ele>
        <time>2023-12-27T13:54:40Z</time>
      </trkpt>
      <trkpt lat="49.9589" lon="2.32906">
        <ele>102.2</ele>
        <time>2023-12-27T13:54:41Z</time>
      </trkpt>
      <trkpt lat="49.9589" lon="2.32907">
        <ele>102.1</ele>
        <time>2023-12-27T13:54:42Z</time>
      </trkpt>
      <trkpt lat="49.95889" lon="2.32909">
        <ele>102.1</ele>
        <time>2023-12-27T13:54:43Z</time>
      </trkpt>
      <trkpt lat="49.95889" lon="2.3291">
        <ele>102</ele>
        <time>2023-12-27T13:54:45Z</time>
      </trkpt>
      <trkpt lat="49.95888" lon="2.32911">
        <ele>102</ele>
        <time>2023-12-27T13:54:46Z</time>
      </trkpt>
      <trkpt lat="49.95888" lon="2.32913">
        <ele>102</ele>
        <time>2023-12-27T13:54:47Z</time>
      </trkpt>
      <trkpt lat="49.95888" lon="2.32914">
        <ele>101.9</ele>
        <time>2023-12-27T13:54:48Z</time>
      </trkpt>
      <trkpt lat="49.95887" lon="2.32917">
        <ele>101.9</ele>
        <time>2023-12-27T13:54:49Z</time>
      </trkpt>
      <trkpt lat="49.95887" lon="2.32918">
        <ele>101.8</ele>
        <time>2023-12-27T13:54:50Z</time>
      </trkpt>
      <trkpt lat="49.95887" lon="2.32919">
        <ele>101.8</ele>
        <time>2023-12-27T13:54:51Z</time>
      </trkpt>
      <trkpt lat="49.95887" lon="2.32921">
        <ele>101.8</ele>
        <time>2023-12-27T13:54:53Z</time>
      </trkpt>
      <trkpt lat="49.95886" lon="2.32923">
        <ele>101.7</ele>
        <time>2023-12-27T13:54:54Z</time>
      </trkpt>
      <trkpt lat="49.95886" lon="2.32925">
        <ele>101.7</ele>
        <time>2023-12-27T13:54:55Z</time>
      </trkpt>
      <trkpt lat="49.95886" lon="2.32926">
        <ele>101.7</ele>
        <time>2023-12-27T13:54:56Z</time>
      </trkpt>
      <trkpt lat="49.95886" lon="2.32928">
        <ele>101.6</ele>
        <time>2023-12-27T13:54:57Z</time>
      </trkpt>
      <trkpt lat="49.95886" lon="2.32929">
        <ele>101.6</ele>
        <time>2023-12-27T13:54:58Z</time>
      </trkpt>
      <trkpt lat="49.95886" lon="2.32933">
        <ele>101.5</ele>
        <time>2023-12-27T13:54:59Z</time>
      </trkpt>
      <trkpt lat="49.95886" lon="2.32934">
        <ele>101.5</ele>
        <time>2023-12-27T13:55:01Z</time>
      </trkpt>
      <trkpt lat="49.95886" lon="2.32935">
        <ele>101.5</ele>
        <time>2023-12-27T13:55:02Z</time>
      </trkpt>
      <trkpt lat="49.95886" lon="2.32937">
        <ele>101.4</ele>
        <time>2023-12-27T13:55:03Z</time>
      </trkpt>
      <trkpt lat="49.95886" lon="2.32939">
        <ele>101.4</ele>
        <time>2023-12-27T13:55:04Z</time>
      </trkpt>
      <trkpt lat="49.95886" lon="2.32941">
        <ele>101.3</ele>
        <time>2023-12-27T13:55:05Z</time>
      </trkpt>
      <trkpt lat="49.95886" lon="2.32944">
        <ele>101.2</ele>
        <time>2023-12-27T13:55:06Z</time>
      </trkpt>
      <trkpt lat="49.95886" lon="2.32946">
        <ele>101.2</ele>
        <time>2023-12-27T13:55:08Z</time>
      </trkpt>
      <trkpt lat="49.95886" lon="2.32948">
        <ele>101.2</ele>
        <time>2023-12-27T13:55:09Z</time>
      </trkpt>
      <trkpt lat="49.95886" lon="2.32949">
        <ele>101.1</ele>
        <time>2023-12-27T13:55:10Z</time>
      </trkpt>
      <trkpt lat="49.95886" lon="2.32951">
        <ele>101.1</ele>
        <time>2023-12-27T13:55:11Z</time>
      </trkpt>
      <trkpt lat="49.95886" lon="2.32953">
        <ele>101.1</ele>
        <time>2023-12-27T13:55:12Z</time>
      </trkpt>
      <trkpt lat="49.95886" lon="2.32955">
        <ele>101</ele>
        <time>2023-12-27T13:55:13Z</time>
      </trkpt>
      <trkpt lat="49.95886" lon="2.32957">
        <ele>101</ele>
        <time>2023-12-27T13:55:15Z</time>
      </trkpt>
      <trkpt lat="49.95886" lon="2.32959">
        <ele>100.9</ele>
        <time>2023-12-27T13:55:16Z</time>
      </trkpt>
      <trkpt lat="49.95886" lon="2.32961">
        <ele>100.9</ele>
        <time>2023-12-27T13:55:17Z</time>
      </trkpt>
      <trkpt lat="49.95885" lon="2.32962">
        <ele>100.8</ele>
        <time>2023-12-27T13:55:18Z</time>
      </trkpt>
      <trkpt lat="49.95885" lon="2.32964">
        <ele>100.8</ele>
        <time>2023-12-27T13:55:20Z</time>
      </trkpt>
      <trkpt lat="49.95886" lon="2.32966">
        <ele>100.8</ele>
        <time>2023-12-27T13:55:21Z</time>
      </trkpt>
      <trkpt lat="49.95886" lon="2.32967">
        <ele>100.7</ele>
        <time>2023-12-27T13:55:22Z</time>
      </trkpt>
      <trkpt lat="49.95886" lon="2.32969">
        <ele>100.7</ele>
        <time>2023-12-27T13:55:23Z</time>
      </trkpt>
      <trkpt lat="49.95886" lon="2.32971">
        <ele>100.6</ele>
        <time>2023-12-27T13:55:25Z</time>
      </trkpt>
      <trkpt lat="49.95886" lon="2.32972">
        <ele>100.6</ele>
        <time>2023-12-27T13:55:26Z</time>
      </trkpt>
      <trkpt lat="49.95886" lon="2.32974">
        <ele>100.6</ele>
        <time>2023-12-27T13:55:27Z</time>
      </trkpt>
      <trkpt lat="49.95886" lon="2.32976">
        <ele>100.5</ele>
        <time>2023-12-27T13:55:28Z</time>
      </trkpt>
      <trkpt lat="49.95886" lon="2.32977">
        <ele>100.5</ele>
        <time>2023-12-27T13:55:29Z</time>
      </trkpt>
      <trkpt lat="49.95886" lon="2.32979">
        <ele>100.5</ele>
        <time>2023-12-27T13:55:30Z</time>
      </trkpt>
      <trkpt lat="49.95886" lon="2.32981">
        <ele>100.4</ele>
        <time>2023-12-27T13:55:32Z</time>
      </trkpt>
      <trkpt lat="49.95886" lon="2.32982">
        <ele>100.4</ele>
        <time>2023-12-27T13:55:33Z</time>
      </trkpt>
      <trkpt lat="49.95886" lon="2.32984">
        <ele>100.3</ele>
        <time>2023-12-27T13:55:34Z</time>
      </trkpt>
      <trkpt lat="49.95886" lon="2.32985">
        <ele>100.3</ele>
        <time>2023-12-27T13:55:35Z</time>
      </trkpt>
      <trkpt lat="49.95886" lon="2.32987">
        <ele>100.3</ele>
        <time>2023-12-27T13:55:37Z</time>
      </trkpt>
      <trkpt lat="49.95886" lon="2.32989">
        <ele>100.2</ele>
        <time>2023-12-27T13:55:38Z</time>
      </trkpt>
      <trkpt lat="49.95886" lon="2.3299">
        <ele>100.2</ele>
        <time>2023-12-27T13:55:39Z</time>
      </trkpt>
      <trkpt lat="49.95885" lon="2.32992">
        <ele>100.2</ele>
        <time>2023-12-27T13:55:40Z</time>
      </trkpt>
      <trkpt lat="49.95885" lon="2.32994">
        <ele>100.1</ele>
        <time>2023-12-27T13:55:41Z</time>
      </trkpt>
      <trkpt lat="49.95885" lon="2.32995">
        <ele>100.1</ele>
        <time>2023-12-27T13:55:42Z</time>
      </trkpt>
      <trkpt lat="49.95884" lon="2.32997">
        <ele>100</ele>
        <time>2023-12-27T13:55:43Z</time>
      </trkpt>
      <trkpt lat="49.95884" lon="2.32998">
        <ele>100</ele>
        <time>2023-12-27T13:55:44Z</time>
      </trkpt>
      <trkpt lat="49.95883" lon="2.33">
        <ele>99.9</ele>
        <time>2023-12-27T13:55:46Z</time>
      </trkpt>
      <trkpt lat="49.95883" lon="2.33002">
        <ele>99.9</ele>
        <time>2023-12-27T13:55:47Z</time>
      </trkpt>
      <trkpt lat="49.95883" lon="2.33003">
        <ele>99.8</ele>
        <time>2023-12-27T13:55:48Z</time>
      </trkpt>
      <trkpt lat="49.95883" lon="2.33005">
        <ele>99.8</ele>
        <time>2023-12-27T13:55:49Z</time>
      </trkpt>
      <trkpt lat="49.95883" lon="2.33007">
        <ele>99.7</ele>
        <time>2023-12-27T13:55:50Z</time>
      </trkpt>
      <trkpt lat="49.95883" lon="2.33009">
        <ele>99.7</ele>
        <time>2023-12-27T13:55:52Z</time>
      </trkpt>
      <trkpt lat="49.95882" lon="2.3301">
        <ele>99.7</ele>
        <time>2023-12-27T13:55:53Z</time>
      </trkpt>
      <trkpt lat="49.95882" lon="2.33011">
        <ele>99.6</ele>
        <time>2023-12-27T13:55:54Z</time>
      </trkpt>
      <trkpt lat="49.95882" lon="2.33013">
        <ele>99.6</ele>
        <time>2023-12-27T13:55:55Z</time>
      </trkpt>
      <trkpt lat="49.95882" lon="2.33014">
        <ele>99.5</ele>
        <time>2023-12-27T13:55:57Z</time>
      </trkpt>
      <trkpt lat="49.95882" lon="2.33016">
        <ele>99.5</ele>
        <time>2023-12-27T13:55:58Z</time>
      </trkpt>
      <trkpt lat="49.95882" lon="2.33018">
        <ele>99.4</ele>
        <time>2023-12-27T13:55:59Z</time>
      </trkpt>
      <trkpt lat="49.95882" lon="2.33019">
        <ele>99.4</ele>
        <time>2023-12-27T13:56:00Z</time>
      </trkpt>
      <trkpt lat="49.95882" lon="2.3302">
        <ele>99.4</ele>
        <time>2023-12-27T13:56:01Z</time>
      </trkpt>
      <trkpt lat="49.95882" lon="2.33022">
        <ele>99.3</ele>
        <time>2023-12-27T13:56:02Z</time>
      </trkpt>
      <trkpt lat="49.95882" lon="2.33024">
        <ele>99.3</ele>
        <time>2023-12-27T13:56:03Z</time>
      </trkpt>
      <trkpt lat="49.95882" lon="2.33026">
        <ele>99.2</ele>
        <time>2023-12-27T13:56:04Z</time>
      </trkpt>
      <trkpt lat="49.95882" lon="2.33027">
        <ele>99.2</ele>
        <time>2023-12-27T13:56:06Z</time>
      </trkpt>
      <trkpt lat="49.95882" lon="2.33029">
        <ele>99.1</ele>
        <time>2023-12-27T13:56:07Z</time>
      </trkpt>
      <trkpt lat="49.95882" lon="2.3303">
        <ele>99.1</ele>
        <time>2023-12-27T13:56:08Z</time>
      </trkpt>
      <trkpt lat="49.95882" lon="2.33032">
        <ele>99</ele>
        <time>2023-12-27T13:56:09Z</time>
      </trkpt>
      <trkpt lat="49.95882" lon="2.33033">
        <ele>99</ele>
        <time>2023-12-27T13:56:10Z</time>
      </trkpt>
      <trkpt lat="49.95881" lon="2.33035">
        <ele>98.9</ele>
        <time>2023-12-27T13:56:12Z</time>
      </trkpt>
      <trkpt lat="49.95881" lon="2.33036">
        <ele>98.9</ele>
        <time>2023-12-27T13:56:13Z</time>
      </trkpt>
      <trkpt lat="49.95881" lon="2.33038">
        <ele>98.8</ele>
        <time>2023-12-27T13:56:14Z</time>
      </trkpt>
      <trkpt lat="49.95881" lon="2.3304">
        <ele>98.8</ele>
        <time>2023-12-27T13:56:15Z</time>
      </trkpt>
      <trkpt lat="49.95881" lon="2.33041">
        <ele>98.7</ele>
        <time>2023-12-27T13:56:17Z</time>
      </trkpt>
      <trkpt lat="49.95881" lon="2.33043">
        <ele>98.7</ele>
        <time>2023-12-27T13:56:18Z</time>
      </trkpt>
      <trkpt lat="49.9588" lon="2.33044">
        <ele>98.6</ele>
        <time>2023-12-27T13:56:19Z</time>
      </trkpt>
      <trkpt lat="49.9588" lon="2.33046">
        <ele>98.6</ele>
        <time>2023-12-27T13:56:20Z</time>
      </trkpt>
      <trkpt lat="49.9588" lon="2.33048">
        <ele>98.5</ele>
        <time>2023-12-27T13:56:21Z</time>
      </trkpt>
      <trkpt lat="49.95879" lon="2.33049">
        <ele>98.5</ele>
        <time>2023-12-27T13:56:22Z</time>
      </trkpt>
      <trkpt lat="49.95879" lon="2.33051">
        <ele>98.4</ele>
        <time>2023-12-27T13:56:24Z</time>
      </trkpt>
      <trkpt lat="49.95879" lon="2.33053">
        <ele>98.4</ele>
        <time>2023-12-27T13:56:25Z</time>
      </trkpt>
      <trkpt lat="49.95879" lon="2.33054">
        <ele>98.3</ele>
        <time>2023-12-27T13:56:26Z</time>
      </trkpt>
      <trkpt lat="49.95878" lon="2.33057">
        <ele>98.2</ele>
        <time>2023-12-27T13:56:27Z</time>
      </trkpt>
      <trkpt lat="49.95878" lon="2.33059">
        <ele>98.1</ele>
        <time>2023-12-27T13:56:28Z</time>
      </trkpt>
      <trkpt lat="49.95878" lon="2.3306">
        <ele>98.1</ele>
        <time>2023-12-27T13:56:29Z</time>
      </trkpt>
      <trkpt lat="49.95877" lon="2.33062">
        <ele>98</ele>
        <time>2023-12-27T13:56:31Z</time>
      </trkpt>
      <trkpt lat="49.95877" lon="2.33064">
        <ele>98</ele>
        <time>2023-12-27T13:56:32Z</time>
      </trkpt>
      <trkpt lat="49.95877" lon="2.33065">
        <ele>97.9</ele>
        <time>2023-12-27T13:56:33Z</time>
      </trkpt>
      <trkpt lat="49.95877" lon="2.33068">
        <ele>97.8</ele>
        <time>2023-12-27T13:56:34Z</time>
      </trkpt>
      <trkpt lat="49.95877" lon="2.33069">
        <ele>97.8</ele>
        <time>2023-12-27T13:56:35Z</time>
      </trkpt>
      <trkpt lat="49.95877" lon="2.33071">
        <ele>97.7</ele>
        <time>2023-12-27T13:56:36Z</time>
      </trkpt>
      <trkpt lat="49.95877" lon="2.33072">
        <ele>97.6</ele>
        <time>2023-12-27T13:56:37Z</time>
      </trkpt>
      <trkpt lat="49.95877" lon="2.33074">
        <ele>97.6</ele>
        <time>2023-12-27T13:56:39Z</time>
      </trkpt>
      <trkpt lat="49.95877" lon="2.33076">
        <ele>97.5</ele>
        <time>2023-12-27T13:56:40Z</time>
      </trkpt>
      <trkpt lat="49.95877" lon="2.33077">
        <ele>97.5</ele>
        <time>2023-12-27T13:56:41Z</time>
      </trkpt>
      <trkpt lat="49.95876" lon="2.33079">
        <ele>97.4</ele>
        <time>2023-12-27T13:56:42Z</time>
      </trkpt>
      <trkpt lat="49.95875" lon="2.3308">
        <ele>97.3</ele>
        <time>2023-12-27T13:56:43Z</time>
      </trkpt>
      <trkpt lat="49.95874" lon="2.33081">
        <ele>97.2</ele>
        <time>2023-12-27T13:56:44Z</time>
      </trkpt>
      <trkpt lat="49.95873" lon="2.33083">
        <ele>97.2</ele>
        <time>2023-12-27T13:56:45Z</time>
      </trkpt>
      <trkpt lat="49.95872" lon="2.33085">
        <ele>97.1</ele>
        <time>2023-12-27T13:56:47Z</time>
      </trkpt>
      <trkpt lat="49.95871" lon="2.33087">
        <ele>97</ele>
        <time>2023-12-27T13:56:48Z</time>
      </trkpt>
      <trkpt lat="49.9587" lon="2.33089">
        <ele>96.9</ele>
        <time>2023-12-27T13:56:49Z</time>
      </trkpt>
      <trkpt lat="49.95869" lon="2.3309">
        <ele>96.9</ele>
        <time>2023-12-27T13:56:50Z</time>
      </trkpt>
      <trkpt lat="49.95869" lon="2.33092">
        <ele>96.8</ele>
        <time>2023-12-27T13:56:51Z</time>
      </trkpt>
      <trkpt lat="49.95868" lon="2.33093">
        <ele>96.7</ele>
        <time>2023-12-27T13:56:52Z</time>
      </trkpt>
      <trkpt lat="49.95867" lon="2.33095">
        <ele>96.7</ele>
        <time>2023-12-27T13:56:53Z</time>
      </trkpt>
      <trkpt lat="49.95866" lon="2.33096">
        <ele>96.6</ele>
        <time>2023-12-27T13:56:55Z</time>
      </trkpt>
      <trkpt lat="49.95864" lon="2.33099">
        <ele>96.5</ele>
        <time>2023-12-27T13:56:56Z</time>
      </trkpt>
      <trkpt lat="49.95864" lon="2.331">
        <ele>96.4</ele>
        <time>2023-12-27T13:56:57Z</time>
      </trkpt>
      <trkpt lat="49.95863" lon="2.331">
        <ele>96.4</ele>
        <time>2023-12-27T13:56:58Z</time>
      </trkpt>
      <trkpt lat="49.95862" lon="2.33102">
        <ele>96.4</ele>
        <time>2023-12-27T13:56:59Z</time>
      </trkpt>
      <trkpt lat="49.95861" lon="2.33103">
        <ele>96.3</ele>
        <time>2023-12-27T13:57:00Z</time>
      </trkpt>
      <trkpt lat="49.9586" lon="2.33104">
        <ele>96.2</ele>
        <time>2023-12-27T13:57:02Z</time>
      </trkpt>
      <trkpt lat="49.95858" lon="2.33106">
        <ele>96.1</ele>
        <time>2023-12-27T13:57:03Z</time>
      </trkpt>
      <trkpt lat="49.95858" lon="2.33107">
        <ele>96.1</ele>
        <time>2023-12-27T13:57:04Z</time>
      </trkpt>
      <trkpt lat="49.95857" lon="2.33108">
        <ele>96.1</ele>
        <time>2023-12-27T13:57:05Z</time>
      </trkpt>
      <trkpt lat="49.95857" lon="2.33109">
        <ele>96</ele>
        <time>2023-12-27T13:57:06Z</time>
      </trkpt>
      <trkpt lat="49.95856" lon="2.33111">
        <ele>96</ele>
        <time>2023-12-27T13:57:07Z</time>
      </trkpt>
      <trkpt lat="49.95856" lon="2.33113">
        <ele>95.9</ele>
        <time>2023-12-27T13:57:08Z</time>
      </trkpt>
      <trkpt lat="49.95855" lon="2.33115">
        <ele>95.8</ele>
        <time>2023-12-27T13:57:10Z</time>
      </trkpt>
      <trkpt lat="49.95854" lon="2.33117">
        <ele>95.8</ele>
        <time>2023-12-27T13:57:11Z</time>
      </trkpt>
      <trkpt lat="49.95854" lon="2.3312">
        <ele>95.7</ele>
        <time>2023-12-27T13:57:12Z</time>
      </trkpt>
      <trkpt lat="49.95853" lon="2.33122">
        <ele>95.7</ele>
        <time>2023-12-27T13:57:13Z</time>
      </trkpt>
      <trkpt lat="49.95853" lon="2.33123">
        <ele>95.6</ele>
        <time>2023-12-27T13:57:14Z</time>
      </trkpt>
      <trkpt lat="49.95852" lon="2.33125">
        <ele>95.6</ele>
        <time>2023-12-27T13:57:15Z</time>
      </trkpt>
      <trkpt lat="49.95852" lon="2.33128">
        <ele>95.5</ele>
        <time>2023-12-27T13:57:17Z</time>
      </trkpt>
      <trkpt lat="49.95852" lon="2.3313">
        <ele>95.5</ele>
        <time>2023-12-27T13:57:18Z</time>
      </trkpt>
      <trkpt lat="49.95852" lon="2.33132">
        <ele>95.4</ele>
        <time>2023-12-27T13:57:19Z</time>
      </trkpt>
      <trkpt lat="49.95852" lon="2.33135">
        <ele>95.4</ele>
        <time>2023-12-27T13:57:20Z</time>
      </trkpt>
      <trkpt lat="49.95852" lon="2.33137">
        <ele>95.3</ele>
        <time>2023-12-27T13:57:21Z</time>
      </trkpt>
      <trkpt lat="49.95853" lon="2.3314">
        <ele>95.3</ele>
        <time>2023-12-27T13:57:22Z</time>
      </trkpt>
      <trkpt lat="49.95853" lon="2.33142">
        <ele>95.2</ele>
        <time>2023-12-27T13:57:23Z</time>
      </trkpt>
      <trkpt lat="49.95853" lon="2.33144">
        <ele>95.2</ele>
        <time>2023-12-27T13:57:24Z</time>
      </trkpt>
      <trkpt lat="49.95853" lon="2.33147">
        <ele>95.1</ele>
        <time>2023-12-27T13:57:25Z</time>
      </trkpt>
      <trkpt lat="49.95853" lon="2.33149">
        <ele>95.1</ele>
        <time>2023-12-27T13:57:27Z</time>
      </trkpt>
      <trkpt lat="49.95852" lon="2.33151">
        <ele>95.1</ele>
        <time>2023-12-27T13:57:28Z</time>
      </trkpt>
      <trkpt lat="49.95852" lon="2.33153">
        <ele>95</ele>
        <time>2023-12-27T13:57:29Z</time>
      </trkpt>
      <trkpt lat="49.95852" lon="2.33156">
        <ele>95</ele>
        <time>2023-12-27T13:57:30Z</time>
      </trkpt>
      <trkpt lat="49.95852" lon="2.33158">
        <ele>94.9</ele>
        <time>2023-12-27T13:57:31Z</time>
      </trkpt>
      <trkpt lat="49.95852" lon="2.33161">
        <ele>94.9</ele>
        <time>2023-12-27T13:57:32Z</time>
      </trkpt>
      <trkpt lat="49.95852" lon="2.33163">
        <ele>94.8</ele>
        <time>2023-12-27T13:57:33Z</time>
      </trkpt>
      <trkpt lat="49.95852" lon="2.33165">
        <ele>94.8</ele>
        <time>2023-12-27T13:57:34Z</time>
      </trkpt>
      <trkpt lat="49.95852" lon="2.33168">
        <ele>94.8</ele>
        <time>2023-12-27T13:57:35Z</time>
      </trkpt>
      <trkpt lat="49.95852" lon="2.33169">
        <ele>94.7</ele>
        <time>2023-12-27T13:57:37Z</time>
      </trkpt>
      <trkpt lat="49.95852" lon="2.3317">
        <ele>94.7</ele>
        <time>2023-12-27T13:57:38Z</time>
      </trkpt>
      <trkpt lat="49.95853" lon="2.33174">
        <ele>94.6</ele>
        <time>2023-12-27T13:57:39Z</time>
      </trkpt>
      <trkpt lat="49.95853" lon="2.33175">
        <ele>94.6</ele>
        <time>2023-12-27T13:57:40Z</time>
      </trkpt>
      <trkpt lat="49.95853" lon="2.33176">
        <ele>94.6</ele>
        <time>2023-12-27T13:57:41Z</time>
      </trkpt>
      <trkpt lat="49.95853" lon="2.33178">
        <ele>94.6</ele>
        <time>2023-12-27T13:57:42Z</time>
      </trkpt>
      <trkpt lat="49.95853" lon="2.3318">
        <ele>94.5</ele>
        <time>2023-12-27T13:57:43Z</time>
      </trkpt>
      <trkpt lat="49.95853" lon="2.33182">
        <ele>94.5</ele>
        <time>2023-12-27T13:57:44Z</time>
      </trkpt>
      <trkpt lat="49.95853" lon="2.33183">
        <ele>94.5</ele>
        <time>2023-12-27T13:57:46Z</time>
      </trkpt>
      <trkpt lat="49.95853" lon="2.33185">
        <ele>94.4</ele>
        <time>2023-12-27T13:57:47Z</time>
      </trkpt>
      <trkpt lat="49.95853" lon="2.33187">
        <ele>94.4</ele>
        <time>2023-12-27T13:57:48Z</time>
      </trkpt>
      <trkpt lat="49.95853" lon="2.3319">
        <ele>94.3</ele>
        <time>2023-12-27T13:57:49Z</time>
      </trkpt>
      <trkpt lat="49.95852" lon="2.33191">
        <ele>94.3</ele>
        <time>2023-12-27T13:57:50Z</time>
      </trkpt>
      <trkpt lat="49.95852" lon="2.33193">
        <ele>94.3</ele>
        <time>2023-12-27T13:57:51Z</time>
      </trkpt>
      <trkpt lat="49.95852" lon="2.33196">
        <ele>94.2</ele>
        <time>2023-12-27T13:57:52Z</time>
      </trkpt>
      <trkpt lat="49.95852" lon="2.33197">
        <ele>94.2</ele>
        <time>2023-12-27T13:57:53Z</time>
      </trkpt>
      <trkpt lat="49.95852" lon="2.33198">
        <ele>94.2</ele>
        <time>2023-12-27T13:57:54Z</time>
      </trkpt>
      <trkpt lat="49.95851" lon="2.33201">
        <ele>94.1</ele>
        <time>2023-12-27T13:57:55Z</time>
      </trkpt>
      <trkpt lat="49.95851" lon="2.33202">
        <ele>94.1</ele>
        <time>2023-12-27T13:57:57Z</time>
      </trkpt>
      <trkpt lat="49.9585" lon="2.33204">
        <ele>94.1</ele>
        <time>2023-12-27T13:57:58Z</time>
      </trkpt>
      <trkpt lat="49.9585" lon="2.33207">
        <ele>94</ele>
        <time>2023-12-27T13:57:59Z</time>
      </trkpt>
      <trkpt lat="49.95849" lon="2.33208">
        <ele>94</ele>
        <time>2023-12-27T13:58:00Z</time>
      </trkpt>
      <trkpt lat="49.95849" lon="2.33209">
        <ele>93.9</ele>
        <time>2023-12-27T13:58:01Z</time>
      </trkpt>
      <trkpt lat="49.95848" lon="2.3321">
        <ele>93.9</ele>
        <time>2023-12-27T13:58:02Z</time>
      </trkpt>
      <trkpt lat="49.95848" lon="2.33212">
        <ele>93.9</ele>
        <time>2023-12-27T13:58:03Z</time>
      </trkpt>
      <trkpt lat="49.95847" lon="2.33213">
        <ele>93.9</ele>
        <time>2023-12-27T13:58:05Z</time>
      </trkpt>
      <trkpt lat="49.95847" lon="2.33215">
        <ele>93.8</ele>
        <time>2023-12-27T13:58:06Z</time>
      </trkpt>
      <trkpt lat="49.95847" lon="2.33217">
        <ele>93.8</ele>
        <time>2023-12-27T13:58:07Z</time>
      </trkpt>
      <trkpt lat="49.95846" lon="2.33218">
        <ele>93.8</ele>
        <time>2023-12-27T13:58:08Z</time>
      </trkpt>
      <trkpt lat="49.95846" lon="2.3322">
        <ele>93.7</ele>
        <time>2023-12-27T13:58:09Z</time>
      </trkpt>
      <trkpt lat="49.95845" lon="2.33223">
        <ele>93.7</ele>
        <time>2023-12-27T13:58:11Z</time>
      </trkpt>
      <trkpt lat="49.95845" lon="2.33225">
        <ele>93.7</ele>
        <time>2023-12-27T13:58:12Z</time>
      </trkpt>
      <trkpt lat="49.95845" lon="2.33226">
        <ele>93.6</ele>
        <time>2023-12-27T13:58:13Z</time>
      </trkpt>
      <trkpt lat="49.95844" lon="2.33228">
        <ele>93.6</ele>
        <time>2023-12-27T13:58:14Z</time>
      </trkpt>
      <trkpt lat="49.95844" lon="2.3323">
        <ele>93.6</ele>
        <time>2023-12-27T13:58:15Z</time>
      </trkpt>
      <trkpt lat="49.95844" lon="2.33232">
        <ele>93.5</ele>
        <time>2023-12-27T13:58:16Z</time>
      </trkpt>
      <trkpt lat="49.95844" lon="2.33233">
        <ele>93.5</ele>
        <time>2023-12-27T13:58:17Z</time>
      </trkpt>
      <trkpt lat="49.95844" lon="2.33235">
        <ele>93.5</ele>
        <time>2023-12-27T13:58:19Z</time>
      </trkpt>
      <trkpt lat="49.95844" lon="2.33237">
        <ele>93.5</ele>
        <time>2023-12-27T13:58:20Z</time>
      </trkpt>
      <trkpt lat="49.95843" lon="2.33238">
        <ele>93.4</ele>
        <time>2023-12-27T13:58:21Z</time>
      </trkpt>
      <trkpt lat="49.95843" lon="2.3324">
        <ele>93.4</ele>
        <time>2023-12-27T13:58:22Z</time>
      </trkpt>
      <trkpt lat="49.95843" lon="2.33241">
        <ele>93.4</ele>
        <time>2023-12-27T13:58:23Z</time>
      </trkpt>
      <trkpt lat="49.95842" lon="2.33243">
        <ele>93.3</ele>
        <time>2023-12-27T13:58:24Z</time>
      </trkpt>
      <trkpt lat="49.95842" lon="2.33245">
        <ele>93.3</ele>
        <time>2023-12-27T13:58:25Z</time>
      </trkpt>
      <trkpt lat="49.95841" lon="2.33246">
        <ele>93.3</ele>
        <time>2023-12-27T13:58:26Z</time>
      </trkpt>
      <trkpt lat="49.9584" lon="2.33248">
        <ele>93.2</ele>
        <time>2023-12-27T13:58:28Z</time>
      </trkpt>
      <trkpt lat="49.9584" lon="2.3325">
        <ele>93.2</ele>
        <time>2023-12-27T13:58:29Z</time>
      </trkpt>
      <trkpt lat="49.9584" lon="2.33252">
        <ele>93.2</ele>
        <time>2023-12-27T13:58:30Z</time>
      </trkpt>
      <trkpt lat="49.95839" lon="2.33253">
        <ele>93.2</ele>
        <time>2023-12-27T13:58:31Z</time>
      </trkpt>
      <trkpt lat="49.95839" lon="2.33256">
        <ele>93.1</ele>
        <time>2023-12-27T13:58:32Z</time>
      </trkpt>
      <trkpt lat="49.95838" lon="2.33258">
        <ele>93.1</ele>
        <time>2023-12-27T13:58:33Z</time>
      </trkpt>
      <trkpt lat="49.95838" lon="2.33259">
        <ele>93.1</ele>
        <time>2023-12-27T13:58:34Z</time>
      </trkpt>
      <trkpt lat="49.95838" lon="2.33261">
        <ele>93</ele>
        <time>2023-12-27T13:58:35Z</time>
      </trkpt>
      <trkpt lat="49.95838" lon="2.33263">
        <ele>93</ele>
        <time>2023-12-27T13:58:37Z</time>
      </trkpt>
      <trkpt lat="49.95837" lon="2.33265">
        <ele>93</ele>
        <time>2023-12-27T13:58:38Z</time>
      </trkpt>
      <trkpt lat="49.95837" lon="2.33267">
        <ele>92.9</ele>
        <time>2023-12-27T13:58:39Z</time>
      </trkpt>
      <trkpt lat="49.95836" lon="2.33269">
        <ele>92.9</ele>
        <time>2023-12-27T13:58:40Z</time>
      </trkpt>
      <trkpt lat="49.95836" lon="2.33271">
        <ele>92.9</ele>
        <time>2023-12-27T13:58:41Z</time>
      </trkpt>
      <trkpt lat="49.95836" lon="2.33273">
        <ele>92.8</ele>
        <time>2023-12-27T13:58:42Z</time>
      </trkpt>
      <trkpt lat="49.95836" lon="2.33276">
        <ele>92.8</ele>
        <time>2023-12-27T13:58:43Z</time>
      </trkpt>
      <trkpt lat="49.95835" lon="2.33277">
        <ele>92.8</ele>
        <time>2023-12-27T13:58:44Z</time>
      </trkpt>
      <trkpt lat="49.95835" lon="2.33279">
        <ele>92.7</ele>
        <time>2023-12-27T13:58:45Z</time>
      </trkpt>
      <trkpt lat="49.95835" lon="2.33281">
        <ele>92.7</ele>
        <time>2023-12-27T13:58:47Z</time>
      </trkpt>
      <trkpt lat="49.95835" lon="2.33283">
        <ele>92.7</ele>
        <time>2023-12-27T13:58:48Z</time>
      </trkpt>
      <trkpt lat="49.95835" lon="2.33286">
        <ele>92.6</ele>
        <time>2023-12-27T13:58:49Z</time>
      </trkpt>
      <trkpt lat="49.95835" lon="2.33287">
        <ele>92.6</ele>
        <time>2023-12-27T13:58:50Z</time>
      </trkpt>
      <trkpt lat="49.95834" lon="2.33289">
        <ele>92.6</ele>
        <time>2023-12-27T13:58:51Z</time>
      </trkpt>
      <trkpt lat="49.95834" lon="2.33291">
        <ele>92.5</ele>
        <time>2023-12-27T13:58:52Z</time>
      </trkpt>
      <trkpt lat="49.95834" lon="2.33293">
        <ele>92.5</ele>
        <time>2023-12-27T13:58:53Z</time>
      </trkpt>
      <trkpt lat="49.95834" lon="2.33295">
        <ele>92.4</ele>
        <time>2023-12-27T13:58:54Z</time>
      </trkpt>
      <trkpt lat="49.95833" lon="2.33297">
        <ele>92.4</ele>
        <time>2023-12-27T13:58:55Z</time>
      </trkpt>
      <trkpt lat="49.95833" lon="2.333">
        <ele>92.3</ele>
        <time>2023-12-27T13:58:56Z</time>
      </trkpt>
      <trkpt lat="49.95833" lon="2.33302">
        <ele>92.3</ele>
        <time>2023-12-27T13:58:58Z</time>
      </trkpt>
      <trkpt lat="49.95832" lon="2.33303">
        <ele>92.3</ele>
        <time>2023-12-27T13:58:59Z</time>
      </trkpt>
      <trkpt lat="49.95832" lon="2.33305">
        <ele>92.3</ele>
        <time>2023-12-27T13:59:00Z</time>
      </trkpt>
      <trkpt lat="49.95832" lon="2.33306">
        <ele>92.2</ele>
        <time>2023-12-27T13:59:01Z</time>
      </trkpt>
      <trkpt lat="49.95831" lon="2.33309">
        <ele>92.2</ele>
        <time>2023-12-27T13:59:02Z</time>
      </trkpt>
      <trkpt lat="49.95831" lon="2.33311">
        <ele>92.1</ele>
        <time>2023-12-27T13:59:03Z</time>
      </trkpt>
      <trkpt lat="49.9583" lon="2.33312">
        <ele>92.1</ele>
        <time>2023-12-27T13:59:04Z</time>
      </trkpt>
      <trkpt lat="49.9583" lon="2.33313">
        <ele>92.1</ele>
        <time>2023-12-27T13:59:05Z</time>
      </trkpt>
      <trkpt lat="49.95829" lon="2.33315">
        <ele>92.1</ele>
        <time>2023-12-27T13:59:06Z</time>
      </trkpt>
      <trkpt lat="49.95829" lon="2.33317">
        <ele>92</ele>
        <time>2023-12-27T13:59:08Z</time>
      </trkpt>
      <trkpt lat="49.95827" lon="2.3332">
        <ele>92</ele>
        <time>2023-12-27T13:59:09Z</time>
      </trkpt>
      <trkpt lat="49.95827" lon="2.33321">
        <ele>91.9</ele>
        <time>2023-12-27T13:59:10Z</time>
      </trkpt>
      <trkpt lat="49.95826" lon="2.33322">
        <ele>91.9</ele>
        <time>2023-12-27T13:59:11Z</time>
      </trkpt>
      <trkpt lat="49.95826" lon="2.33323">
        <ele>91.9</ele>
        <time>2023-12-27T13:59:12Z</time>
      </trkpt>
      <trkpt lat="49.95825" lon="2.33324">
        <ele>91.8</ele>
        <time>2023-12-27T13:59:13Z</time>
      </trkpt>
      <trkpt lat="49.95824" lon="2.33326">
        <ele>91.8</ele>
        <time>2023-12-27T13:59:14Z</time>
      </trkpt>
      <trkpt lat="49.95823" lon="2.33329">
        <ele>91.8</ele>
        <time>2023-12-27T13:59:15Z</time>
      </trkpt>
      <trkpt lat="49.95822" lon="2.3333">
        <ele>91.7</ele>
        <time>2023-12-27T13:59:16Z</time>
      </trkpt>
      <trkpt lat="49.95822" lon="2.33331">
        <ele>91.7</ele>
        <time>2023-12-27T13:59:17Z</time>
      </trkpt>
      <trkpt lat="49.95821" lon="2.33333">
        <ele>91.7</ele>
        <time>2023-12-27T13:59:19Z</time>
      </trkpt>
      <trkpt lat="49.9582" lon="2.33334">
        <ele>91.6</ele>
        <time>2023-12-27T13:59:20Z</time>
      </trkpt>
      <trkpt lat="49.95819" lon="2.33336">
        <ele>91.6</ele>
        <time>2023-12-27T13:59:21Z</time>
      </trkpt>
      <trkpt lat="49.95818" lon="2.33337">
        <ele>91.5</ele>
        <time>2023-12-27T13:59:22Z</time>
      </trkpt>
      <trkpt lat="49.95816" lon="2.3334">
        <ele>91.5</ele>
        <time>2023-12-27T13:59:23Z</time>
      </trkpt>
      <trkpt lat="49.95816" lon="2.33341">
        <ele>91.5</ele>
        <time>2023-12-27T13:59:24Z</time>
      </trkpt>
      <trkpt lat="49.95815" lon="2.33342">
        <ele>91.5</ele>
        <time>2023-12-27T13:59:25Z</time>
      </trkpt>
      <trkpt lat="49.95815" lon="2.33344">
        <ele>91.4</ele>
        <time>2023-12-27T13:59:26Z</time>
      </trkpt>
      <trkpt lat="49.95814" lon="2.33346">
        <ele>91.4</ele>
        <time>2023-12-27T13:59:27Z</time>
      </trkpt>
      <trkpt lat="49.95812" lon="2.33349">
        <ele>91.3</ele>
        <time>2023-12-27T13:59:28Z</time>
      </trkpt>
      <trkpt lat="49.95812" lon="2.3335">
        <ele>91.3</ele>
        <time>2023-12-27T13:59:30Z</time>
      </trkpt>
      <trkpt lat="49.95811" lon="2.33352">
        <ele>91.3</ele>
        <time>2023-12-27T13:59:31Z</time>
      </trkpt>
      <trkpt lat="49.9581" lon="2.33353">
        <ele>91.3</ele>
        <time>2023-12-27T13:59:32Z</time>
      </trkpt>
      <trkpt lat="49.9581" lon="2.33354">
        <ele>91.2</ele>
        <time>2023-12-27T13:59:33Z</time>
      </trkpt>
      <trkpt lat="49.95809" lon="2.33356">
        <ele>91.2</ele>
        <time>2023-12-27T13:59:34Z</time>
      </trkpt>
      <trkpt lat="49.95808" lon="2.33357">
        <ele>91.2</ele>
        <time>2023-12-27T13:59:35Z</time>
      </trkpt>
      <trkpt lat="49.95807" lon="2.33359">
        <ele>91.1</ele>
        <time>2023-12-27T13:59:37Z</time>
      </trkpt>
      <trkpt lat="49.95806" lon="2.33361">
        <ele>91.1</ele>
        <time>2023-12-27T13:59:38Z</time>
      </trkpt>
      <trkpt lat="49.95805" lon="2.33362">
        <ele>91.1</ele>
        <time>2023-12-27T13:59:39Z</time>
      </trkpt>
      <trkpt lat="49.95804" lon="2.33365">
        <ele>91</ele>
        <time>2023-12-27T13:59:40Z</time>
      </trkpt>
      <trkpt lat="49.95804" lon="2.33366">
        <ele>91</ele>
        <time>2023-12-27T13:59:41Z</time>
      </trkpt>
      <trkpt lat="49.95803" lon="2.33367">
        <ele>91</ele>
        <time>2023-12-27T13:59:42Z</time>
      </trkpt>
      <trkpt lat="49.95802" lon="2.3337">
        <ele>90.9</ele>
        <time>2023-12-27T13:59:43Z</time>
      </trkpt>
      <trkpt lat="49.95801" lon="2.33371">
        <ele>90.9</ele>
        <time>2023-12-27T13:59:44Z</time>
      </trkpt>
      <trkpt lat="49.95801" lon="2.33372">
        <ele>90.9</ele>
        <time>2023-12-27T13:59:45Z</time>
      </trkpt>
      <trkpt lat="49.958" lon="2.33374">
        <ele>90.8</ele>
        <time>2023-12-27T13:59:46Z</time>
      </trkpt>
      <trkpt lat="49.958" lon="2.33376">
        <ele>90.8</ele>
        <time>2023-12-27T13:59:47Z</time>
      </trkpt>
      <trkpt lat="49.95799" lon="2.33377">
        <ele>90.8</ele>
        <time>2023-12-27T13:59:49Z</time>
      </trkpt>
      <trkpt lat="49.95798" lon="2.33379">
        <ele>90.7</ele>
        <time>2023-12-27T13:59:50Z</time>
      </trkpt>
      <trkpt lat="49.95797" lon="2.33381">
        <ele>90.7</ele>
        <time>2023-12-27T13:59:51Z</time>
      </trkpt>
      <trkpt lat="49.95797" lon="2.33383">
        <ele>90.7</ele>
        <time>2023-12-27T13:59:52Z</time>
      </trkpt>
      <trkpt lat="49.95796" lon="2.33384">
        <ele>90.6</ele>
        <time>2023-12-27T13:59:53Z</time>
      </trkpt>
      <trkpt lat="49.95795" lon="2.33386">
        <ele>90.6</ele>
        <time>2023-12-27T13:59:54Z</time>
      </trkpt>
      <trkpt lat="49.95794" lon="2.33388">
        <ele>90.6</ele>
        <time>2023-12-27T13:59:55Z</time>
      </trkpt>
      <trkpt lat="49.95793" lon="2.3339">
        <ele>90.5</ele>
        <time>2023-12-27T13:59:56Z</time>
      </trkpt>
      <trkpt lat="49.95792" lon="2.33391">
        <ele>90.5</ele>
        <time>2023-12-27T13:59:57Z</time>
      </trkpt>
      <trkpt lat="49.95792" lon="2.33392">
        <ele>90.5</ele>
        <time>2023-12-27T13:59:58Z</time>
      </trkpt>
      <trkpt lat="49.9579" lon="2.33394">
        <ele>90.4</ele>
        <time>2023-12-27T13:59:59Z</time>
      </trkpt>
      <trkpt lat="49.9579" lon="2.33395">
        <ele>90.4</ele>
        <time>2023-12-27T14:00:01Z</time>
      </trkpt>
      <trkpt lat="49.95789" lon="2.33396">
        <ele>90.4</ele>
        <time>2023-12-27T14:00:02Z</time>
      </trkpt>
      <trkpt lat="49.95788" lon="2.33399">
        <ele>90.3</ele>
        <time>2023-12-27T14:00:03Z</time>
      </trkpt>
      <trkpt lat="49.95787" lon="2.334">
        <ele>90.3</ele>
        <time>2023-12-27T14:00:04Z</time>
      </trkpt>
      <trkpt lat="49.95786" lon="2.33401">
        <ele>90.3</ele>
        <time>2023-12-27T14:00:05Z</time>
      </trkpt>
      <trkpt lat="49.95785" lon="2.33404">
        <ele>90.2</ele>
        <time>2023-12-27T14:00:06Z</time>
      </trkpt>
      <trkpt lat="49.95785" lon="2.33405">
        <ele>90.2</ele>
        <time>2023-12-27T14:00:07Z</time>
      </trkpt>
      <trkpt lat="49.95784" lon="2.33406">
        <ele>90.2</ele>
        <time>2023-12-27T14:00:08Z</time>
      </trkpt>
      <trkpt lat="49.95783" lon="2.33407">
        <ele>90.2</ele>
        <time>2023-12-27T14:00:09Z</time>
      </trkpt>
      <trkpt lat="49.95783" lon="2.33408">
        <ele>90.1</ele>
        <time>2023-12-27T14:00:10Z</time>
      </trkpt>
      <trkpt lat="49.95782" lon="2.3341">
        <ele>90.1</ele>
        <time>2023-12-27T14:00:11Z</time>
      </trkpt>
      <trkpt lat="49.95781" lon="2.33413">
        <ele>90</ele>
        <time>2023-12-27T14:00:13Z</time>
      </trkpt>
      <trkpt lat="49.9578" lon="2.33414">
        <ele>90</ele>
        <time>2023-12-27T14:00:14Z</time>
      </trkpt>
      <trkpt lat="49.9578" lon="2.33415">
        <ele>90</ele>
        <time>2023-12-27T14:00:15Z</time>
      </trkpt>
      <trkpt lat="49.95779" lon="2.33418">
        <ele>89.9</ele>
        <time>2023-12-27T14:00:16Z</time>
      </trkpt>
      <trkpt lat="49.95778" lon="2.33419">
        <ele>89.9</ele>
        <time>2023-12-27T14:00:17Z</time>
      </trkpt>
      <trkpt lat="49.95778" lon="2.3342">
        <ele>89.9</ele>
        <time>2023-12-27T14:00:18Z</time>
      </trkpt>
      <trkpt lat="49.95777" lon="2.33422">
        <ele>89.9</ele>
        <time>2023-12-27T14:00:19Z</time>
      </trkpt>
      <trkpt lat="49.95776" lon="2.33424">
        <ele>89.8</ele>
        <time>2023-12-27T14:00:21Z</time>
      </trkpt>
      <trkpt lat="49.95775" lon="2.33426">
        <ele>89.8</ele>
        <time>2023-12-27T14:00:22Z</time>
      </trkpt>
      <trkpt lat="49.95775" lon="2.33427">
        <ele>89.7</ele>
        <time>2023-12-27T14:00:23Z</time>
      </trkpt>
      <trkpt lat="49.95774" lon="2.33429">
        <ele>89.7</ele>
        <time>2023-12-27T14:00:24Z</time>
      </trkpt>
      <trkpt lat="49.95773" lon="2.3343">
        <ele>89.7</ele>
        <time>2023-12-27T14:00:25Z</time>
      </trkpt>
      <trkpt lat="49.95773" lon="2.33432">
        <ele>89.7</ele>
        <time>2023-12-27T14:00:26Z</time>
      </trkpt>
      <trkpt lat="49.95771" lon="2.33435">
        <ele>89.6</ele>
        <time>2023-12-27T14:00:28Z</time>
      </trkpt>
      <trkpt lat="49.9577" lon="2.33437">
        <ele>89.6</ele>
        <time>2023-12-27T14:00:29Z</time>
      </trkpt>
      <trkpt lat="49.95769" lon="2.33438">
        <ele>89.5</ele>
        <time>2023-12-27T14:00:30Z</time>
      </trkpt>
      <trkpt lat="49.95769" lon="2.33439">
        <ele>89.5</ele>
        <time>2023-12-27T14:00:31Z</time>
      </trkpt>
      <trkpt lat="49.95768" lon="2.33441">
        <ele>89.5</ele>
        <time>2023-12-27T14:00:32Z</time>
      </trkpt>
      <trkpt lat="49.95767" lon="2.33442">
        <ele>89.4</ele>
        <time>2023-12-27T14:00:33Z</time>
      </trkpt>
      <trkpt lat="49.95767" lon="2.33443">
        <ele>89.4</ele>
        <time>2023-12-27T14:00:34Z</time>
      </trkpt>
      <trkpt lat="49.95766" lon="2.33445">
        <ele>89.4</ele>
        <time>2023-12-27T14:00:35Z</time>
      </trkpt>
      <trkpt lat="49.95765" lon="2.33446">
        <ele>89.4</ele>
        <time>2023-12-27T14:00:36Z</time>
      </trkpt>
      <trkpt lat="49.95765" lon="2.33447">
        <ele>89.3</ele>
        <time>2023-12-27T14:00:37Z</time>
      </trkpt>
      <trkpt lat="49.95764" lon="2.33449">
        <ele>89.3</ele>
        <time>2023-12-27T14:00:39Z</time>
      </trkpt>
      <trkpt lat="49.95763" lon="2.3345">
        <ele>89.3</ele>
        <time>2023-12-27T14:00:40Z</time>
      </trkpt>
      <trkpt lat="49.95762" lon="2.33451">
        <ele>89.3</ele>
        <time>2023-12-27T14:00:41Z</time>
      </trkpt>
      <trkpt lat="49.95762" lon="2.33453">
        <ele>89.2</ele>
        <time>2023-12-27T14:00:42Z</time>
      </trkpt>
      <trkpt lat="49.9576" lon="2.33455">
        <ele>89.2</ele>
        <time>2023-12-27T14:00:43Z</time>
      </trkpt>
      <trkpt lat="49.9576" lon="2.33456">
        <ele>89.2</ele>
        <time>2023-12-27T14:00:44Z</time>
      </trkpt>
      <trkpt lat="49.95758" lon="2.33458">
        <ele>89.1</ele>
        <time>2023-12-27T14:00:45Z</time>
      </trkpt>
      <trkpt lat="49.95757" lon="2.3346">
        <ele>89.1</ele>
        <time>2023-12-27T14:00:47Z</time>
      </trkpt>
      <trkpt lat="49.95756" lon="2.33461">
        <ele>89</ele>
        <time>2023-12-27T14:00:48Z</time>
      </trkpt>
      <trkpt lat="49.95755" lon="2.33463">
        <ele>89</ele>
        <time>2023-12-27T14:00:49Z</time>
      </trkpt>
      <trkpt lat="49.95754" lon="2.33464">
        <ele>88.9</ele>
        <time>2023-12-27T14:00:50Z</time>
      </trkpt>
      <trkpt lat="49.95754" lon="2.33465">
        <ele>88.9</ele>
        <time>2023-12-27T14:00:51Z</time>
      </trkpt>
      <trkpt lat="49.95752" lon="2.33468">
        <ele>88.9</ele>
        <time>2023-12-27T14:00:52Z</time>
      </trkpt>
      <trkpt lat="49.95752" lon="2.33469">
        <ele>88.8</ele>
        <time>2023-12-27T14:00:53Z</time>
      </trkpt>
      <trkpt lat="49.95751" lon="2.3347">
        <ele>88.8</ele>
        <time>2023-12-27T14:00:54Z</time>
      </trkpt>
      <trkpt lat="49.9575" lon="2.33473">
        <ele>88.7</ele>
        <time>2023-12-27T14:00:56Z</time>
      </trkpt>
      <trkpt lat="49.95749" lon="2.33474">
        <ele>88.7</ele>
        <time>2023-12-27T14:00:57Z</time>
      </trkpt>
      <trkpt lat="49.95749" lon="2.33475">
        <ele>88.7</ele>
        <time>2023-12-27T14:00:58Z</time>
      </trkpt>
      <trkpt lat="49.95748" lon="2.33477">
        <ele>88.7</ele>
        <time>2023-12-27T14:00:59Z</time>
      </trkpt>
      <trkpt lat="49.95747" lon="2.33479">
        <ele>88.6</ele>
        <time>2023-12-27T14:01:01Z</time>
      </trkpt>
      <trkpt lat="49.95747" lon="2.33481">
        <ele>88.6</ele>
        <time>2023-12-27T14:01:02Z</time>
      </trkpt>
      <trkpt lat="49.95746" lon="2.33483">
        <ele>88.5</ele>
        <time>2023-12-27T14:01:03Z</time>
      </trkpt>
      <trkpt lat="49.95745" lon="2.33485">
        <ele>88.5</ele>
        <time>2023-12-27T14:01:04Z</time>
      </trkpt>
      <trkpt lat="49.95744" lon="2.33486">
        <ele>88.5</ele>
        <time>2023-12-27T14:01:05Z</time>
      </trkpt>
      <trkpt lat="49.95743" lon="2.33488">
        <ele>88.4</ele>
        <time>2023-12-27T14:01:06Z</time>
      </trkpt>
      <trkpt lat="49.95742" lon="2.33491">
        <ele>88.3</ele>
        <time>2023-12-27T14:01:08Z</time>
      </trkpt>
      <trkpt lat="49.9574" lon="2.33492">
        <ele>88.3</ele>
        <time>2023-12-27T14:01:09Z</time>
      </trkpt>
      <trkpt lat="49.95739" lon="2.33494">
        <ele>88.3</ele>
        <time>2023-12-27T14:01:10Z</time>
      </trkpt>
      <trkpt lat="49.95738" lon="2.33496">
        <ele>88.2</ele>
        <time>2023-12-27T14:01:11Z</time>
      </trkpt>
      <trkpt lat="49.95737" lon="2.33497">
        <ele>88.2</ele>
        <time>2023-12-27T14:01:12Z</time>
      </trkpt>
      <trkpt lat="49.95736" lon="2.33499">
        <ele>88.2</ele>
        <time>2023-12-27T14:01:13Z</time>
      </trkpt>
      <trkpt lat="49.95735" lon="2.335">
        <ele>88.1</ele>
        <time>2023-12-27T14:01:15Z</time>
      </trkpt>
      <trkpt lat="49.95734" lon="2.33502">
        <ele>88.1</ele>
        <time>2023-12-27T14:01:16Z</time>
      </trkpt>
      <trkpt lat="49.95733" lon="2.33504">
        <ele>88</ele>
        <time>2023-12-27T14:01:17Z</time>
      </trkpt>
      <trkpt lat="49.95731" lon="2.33506">
        <ele>88</ele>
        <time>2023-12-27T14:01:18Z</time>
      </trkpt>
      <trkpt lat="49.95731" lon="2.33507">
        <ele>88</ele>
        <time>2023-12-27T14:01:19Z</time>
      </trkpt>
      <trkpt lat="49.9573" lon="2.33508">
        <ele>87.9</ele>
        <time>2023-12-27T14:01:20Z</time>
      </trkpt>
      <trkpt lat="49.95728" lon="2.3351">
        <ele>87.9</ele>
        <time>2023-12-27T14:01:21Z</time>
      </trkpt>
      <trkpt lat="49.95728" lon="2.33511">
        <ele>87.9</ele>
        <time>2023-12-27T14:01:22Z</time>
      </trkpt>
      <trkpt lat="49.95727" lon="2.33512">
        <ele>87.9</ele>
        <time>2023-12-27T14:01:23Z</time>
      </trkpt>
      <trkpt lat="49.95727" lon="2.33513">
        <ele>87.8</ele>
        <time>2023-12-27T14:01:24Z</time>
      </trkpt>
      <trkpt lat="49.95726" lon="2.33515">
        <ele>87.8</ele>
        <time>2023-12-27T14:01:26Z</time>
      </trkpt>
      <trkpt lat="49.95725" lon="2.33516">
        <ele>87.8</ele>
        <time>2023-12-27T14:01:27Z</time>
      </trkpt>
      <trkpt lat="49.95724" lon="2.33518">
        <ele>87.7</ele>
        <time>2023-12-27T14:01:28Z</time>
      </trkpt>
      <trkpt lat="49.95723" lon="2.33519">
        <ele>87.7</ele>
        <time>2023-12-27T14:01:29Z</time>
      </trkpt>
      <trkpt lat="49.95723" lon="2.3352">
        <ele>87.7</ele>
        <time>2023-12-27T14:01:30Z</time>
      </trkpt>
      <trkpt lat="49.95722" lon="2.33521">
        <ele>87.7</ele>
        <time>2023-12-27T14:01:31Z</time>
      </trkpt>
      <trkpt lat="49.95721" lon="2.33522">
        <ele>87.6</ele>
        <time>2023-12-27T14:01:32Z</time>
      </trkpt>
      <trkpt lat="49.9572" lon="2.33524">
        <ele>87.6</ele>
        <time>2023-12-27T14:01:33Z</time>
      </trkpt>
      <trkpt lat="49.9572" lon="2.33525">
        <ele>87.6</ele>
        <time>2023-12-27T14:01:34Z</time>
      </trkpt>
      <trkpt lat="49.95719" lon="2.33526">
        <ele>87.5</ele>
        <time>2023-12-27T14:01:36Z</time>
      </trkpt>
      <trkpt lat="49.95718" lon="2.33527">
        <ele>87.5</ele>
        <time>2023-12-27T14:01:37Z</time>
      </trkpt>
      <trkpt lat="49.95717" lon="2.33528">
        <ele>87.5</ele>
        <time>2023-12-27T14:01:38Z</time>
      </trkpt>
      <trkpt lat="49.95716" lon="2.33529">
        <ele>87.5</ele>
        <time>2023-12-27T14:01:39Z</time>
      </trkpt>
      <trkpt lat="49.95715" lon="2.3353">
        <ele>87.4</ele>
        <time>2023-12-27T14:01:40Z</time>
      </trkpt>
      <trkpt lat="49.95714" lon="2.33532">
        <ele>87.4</ele>
        <time>2023-12-27T14:01:42Z</time>
      </trkpt>
      <trkpt lat="49.95713" lon="2.33533">
        <ele>87.3</ele>
        <time>2023-12-27T14:01:43Z</time>
      </trkpt>
      <trkpt lat="49.95713" lon="2.33534">
        <ele>87.3</ele>
        <time>2023-12-27T14:01:44Z</time>
      </trkpt>
      <trkpt lat="49.95712" lon="2.33536">
        <ele>87.3</ele>
        <time>2023-12-27T14:01:45Z</time>
      </trkpt>
      <trkpt lat="49.95711" lon="2.33537">
        <ele>87.3</ele>
        <time>2023-12-27T14:01:46Z</time>
      </trkpt>
      <trkpt lat="49.9571" lon="2.33538">
        <ele>87.2</ele>
        <time>2023-12-27T14:01:47Z</time>
      </trkpt>
      <trkpt lat="49.95709" lon="2.33541">
        <ele>87.2</ele>
        <time>2023-12-27T14:01:48Z</time>
      </trkpt>
      <trkpt lat="49.95708" lon="2.33542">
        <ele>87.1</ele>
        <time>2023-12-27T14:01:50Z</time>
      </trkpt>
      <trkpt lat="49.95708" lon="2.33543">
        <ele>87.1</ele>
        <time>2023-12-27T14:01:51Z</time>
      </trkpt>
      <trkpt lat="49.95707" lon="2.33544">
        <ele>87.1</ele>
        <time>2023-12-27T14:01:52Z</time>
      </trkpt>
      <trkpt lat="49.95706" lon="2.33545">
        <ele>87.1</ele>
        <time>2023-12-27T14:01:53Z</time>
      </trkpt>
      <trkpt lat="49.95705" lon="2.33547">
        <ele>87</ele>
        <time>2023-12-27T14:01:54Z</time>
      </trkpt>
      <trkpt lat="49.95704" lon="2.33549">
        <ele>87</ele>
        <time>2023-12-27T14:01:55Z</time>
      </trkpt>
      <trkpt lat="49.95703" lon="2.3355">
        <ele>86.9</ele>
        <time>2023-12-27T14:01:56Z</time>
      </trkpt>
      <trkpt lat="49.95702" lon="2.33551">
        <ele>86.9</ele>
        <time>2023-12-27T14:01:57Z</time>
      </trkpt>
      <trkpt lat="49.95701" lon="2.33553">
        <ele>86.9</ele>
        <time>2023-12-27T14:01:58Z</time>
      </trkpt>
      <trkpt lat="49.95701" lon="2.33554">
        <ele>86.8</ele>
        <time>2023-12-27T14:02:00Z</time>
      </trkpt>
      <trkpt lat="49.957" lon="2.33555">
        <ele>86.8</ele>
        <time>2023-12-27T14:02:01Z</time>
      </trkpt>
      <trkpt lat="49.95699" lon="2.33556">
        <ele>86.8</ele>
        <time>2023-12-27T14:02:02Z</time>
      </trkpt>
      <trkpt lat="49.95699" lon="2.33558">
        <ele>86.7</ele>
        <time>2023-12-27T14:02:03Z</time>
      </trkpt>
      <trkpt lat="49.95698" lon="2.33559">
        <ele>86.7</ele>
        <time>2023-12-27T14:02:04Z</time>
      </trkpt>
      <trkpt lat="49.95697" lon="2.33561">
        <ele>86.7</ele>
        <time>2023-12-27T14:02:05Z</time>
      </trkpt>
      <trkpt lat="49.95696" lon="2.33562">
        <ele>86.6</ele>
        <time>2023-12-27T14:02:06Z</time>
      </trkpt>
      <trkpt lat="49.95696" lon="2.33563">
        <ele>86.6</ele>
        <time>2023-12-27T14:02:07Z</time>
      </trkpt>
      <trkpt lat="49.95695" lon="2.33565">
        <ele>86.6</ele>
        <time>2023-12-27T14:02:08Z</time>
      </trkpt>
      <trkpt lat="49.95694" lon="2.33566">
        <ele>86.5</ele>
        <time>2023-12-27T14:02:09Z</time>
      </trkpt>
      <trkpt lat="49.95693" lon="2.33568">
        <ele>86.5</ele>
        <time>2023-12-27T14:02:11Z</time>
      </trkpt>
      <trkpt lat="49.95693" lon="2.33569">
        <ele>86.5</ele>
        <time>2023-12-27T14:02:12Z</time>
      </trkpt>
      <trkpt lat="49.95692" lon="2.33571">
        <ele>86.4</ele>
        <time>2023-12-27T14:02:13Z</time>
      </trkpt>
      <trkpt lat="49.95691" lon="2.33572">
        <ele>86.4</ele>
        <time>2023-12-27T14:02:14Z</time>
      </trkpt>
      <trkpt lat="49.9569" lon="2.33574">
        <ele>86.3</ele>
        <time>2023-12-27T14:02:15Z</time>
      </trkpt>
      <trkpt lat="49.95689" lon="2.33575">
        <ele>86.3</ele>
        <time>2023-12-27T14:02:16Z</time>
      </trkpt>
      <trkpt lat="49.95689" lon="2.33576">
        <ele>86.3</ele>
        <time>2023-12-27T14:02:17Z</time>
      </trkpt>
      <trkpt lat="49.95687" lon="2.33578">
        <ele>86.2</ele>
        <time>2023-12-27T14:02:18Z</time>
      </trkpt>
      <trkpt lat="49.95686" lon="2.33579">
        <ele>86.2</ele>
        <time>2023-12-27T14:02:19Z</time>
      </trkpt>
      <trkpt lat="49.95686" lon="2.3358">
        <ele>86.2</ele>
        <time>2023-12-27T14:02:20Z</time>
      </trkpt>
      <trkpt lat="49.95684" lon="2.33583">
        <ele>86.1</ele>
        <time>2023-12-27T14:02:21Z</time>
      </trkpt>
      <trkpt lat="49.95684" lon="2.33584">
        <ele>86.1</ele>
        <time>2023-12-27T14:02:23Z</time>
      </trkpt>
      <trkpt lat="49.95683" lon="2.33585">
        <ele>86.1</ele>
        <time>2023-12-27T14:02:24Z</time>
      </trkpt>
      <trkpt lat="49.95682" lon="2.33585">
        <ele>86</ele>
        <time>2023-12-27T14:02:25Z</time>
      </trkpt>
      <trkpt lat="49.95681" lon="2.33587">
        <ele>86</ele>
        <time>2023-12-27T14:02:26Z</time>
      </trkpt>
      <trkpt lat="49.95681" lon="2.33588">
        <ele>86</ele>
        <time>2023-12-27T14:02:27Z</time>
      </trkpt>
      <trkpt lat="49.9568" lon="2.3359">
        <ele>86</ele>
        <time>2023-12-27T14:02:28Z</time>
      </trkpt>
      <trkpt lat="49.9568" lon="2.33591">
        <ele>85.9</ele>
        <time>2023-12-27T14:02:29Z</time>
      </trkpt>
      <trkpt lat="49.9568" lon="2.33593">
        <ele>85.9</ele>
        <time>2023-12-27T14:02:30Z</time>
      </trkpt>
      <trkpt lat="49.95679" lon="2.33595">
        <ele>85.9</ele>
        <time>2023-12-27T14:02:31Z</time>
      </trkpt>
      <trkpt lat="49.95678" lon="2.33596">
        <ele>85.8</ele>
        <time>2023-12-27T14:02:32Z</time>
      </trkpt>
      <trkpt lat="49.95677" lon="2.33599">
        <ele>85.8</ele>
        <time>2023-12-27T14:02:34Z</time>
      </trkpt>
      <trkpt lat="49.95676" lon="2.33602">
        <ele>85.7</ele>
        <time>2023-12-27T14:02:35Z</time>
      </trkpt>
      <trkpt lat="49.95676" lon="2.33603">
        <ele>85.7</ele>
        <time>2023-12-27T14:02:37Z</time>
      </trkpt>
      <trkpt lat="49.95675" lon="2.33605">
        <ele>85.7</ele>
        <time>2023-12-27T14:02:38Z</time>
      </trkpt>
      <trkpt lat="49.95675" lon="2.33606">
        <ele>85.6</ele>
        <time>2023-12-27T14:02:39Z</time>
      </trkpt>
      <trkpt lat="49.95674" lon="2.33608">
        <ele>85.6</ele>
        <time>2023-12-27T14:02:40Z</time>
      </trkpt>
      <trkpt lat="49.95673" lon="2.3361">
        <ele>85.6</ele>
        <time>2023-12-27T14:02:41Z</time>
      </trkpt>
      <trkpt lat="49.95673" lon="2.33611">
        <ele>85.6</ele>
        <time>2023-12-27T14:02:42Z</time>
      </trkpt>
      <trkpt lat="49.95672" lon="2.33612">
        <ele>85.5</ele>
        <time>2023-12-27T14:02:43Z</time>
      </trkpt>
      <trkpt lat="49.95671" lon="2.33614">
        <ele>85.5</ele>
        <time>2023-12-27T14:02:44Z</time>
      </trkpt>
      <trkpt lat="49.9567" lon="2.33615">
        <ele>85.5</ele>
        <time>2023-12-27T14:02:45Z</time>
      </trkpt>
      <trkpt lat="49.95669" lon="2.33618">
        <ele>85.4</ele>
        <time>2023-12-27T14:02:46Z</time>
      </trkpt>
      <trkpt lat="49.95669" lon="2.3362">
        <ele>85.4</ele>
        <time>2023-12-27T14:02:47Z</time>
      </trkpt>
      <trkpt lat="49.95668" lon="2.33621">
        <ele>85.4</ele>
        <time>2023-12-27T14:02:48Z</time>
      </trkpt>
      <trkpt lat="49.95668" lon="2.33623">
        <ele>85.4</ele>
        <time>2023-12-27T14:02:49Z</time>
      </trkpt>
      <trkpt lat="49.95668" lon="2.33625">
        <ele>85.3</ele>
        <time>2023-12-27T14:02:50Z</time>
      </trkpt>
      <trkpt lat="49.95668" lon="2.33627">
        <ele>85.3</ele>
        <time>2023-12-27T14:02:52Z</time>
      </trkpt>
      <trkpt lat="49.95668" lon="2.3363">
        <ele>85.3</ele>
        <time>2023-12-27T14:02:53Z</time>
      </trkpt>
      <trkpt lat="49.95667" lon="2.33632">
        <ele>85.3</ele>
        <time>2023-12-27T14:02:54Z</time>
      </trkpt>
      <trkpt lat="49.95667" lon="2.33633">
        <ele>85.2</ele>
        <time>2023-12-27T14:02:55Z</time>
      </trkpt>
      <trkpt lat="49.95666" lon="2.33636">
        <ele>85.2</ele>
        <time>2023-12-27T14:02:56Z</time>
      </trkpt>
      <trkpt lat="49.95666" lon="2.33637">
        <ele>85.2</ele>
        <time>2023-12-27T14:02:57Z</time>
      </trkpt>
      <trkpt lat="49.95666" lon="2.33638">
        <ele>85.2</ele>
        <time>2023-12-27T14:02:58Z</time>
      </trkpt>
      <trkpt lat="49.95664" lon="2.33641">
        <ele>85.1</ele>
        <time>2023-12-27T14:03:00Z</time>
      </trkpt>
      <trkpt lat="49.95664" lon="2.33642">
        <ele>85.1</ele>
        <time>2023-12-27T14:03:01Z</time>
      </trkpt>
      <trkpt lat="49.95663" lon="2.33643">
        <ele>85.1</ele>
        <time>2023-12-27T14:03:02Z</time>
      </trkpt>
      <trkpt lat="49.95662" lon="2.33645">
        <ele>85.1</ele>
        <time>2023-12-27T14:03:03Z</time>
      </trkpt>
      <trkpt lat="49.95661" lon="2.33646">
        <ele>85</ele>
        <time>2023-12-27T14:03:04Z</time>
      </trkpt>
      <trkpt lat="49.95661" lon="2.33647">
        <ele>85</ele>
        <time>2023-12-27T14:03:05Z</time>
      </trkpt>
      <trkpt lat="49.9566" lon="2.3365">
        <ele>85</ele>
        <time>2023-12-27T14:03:06Z</time>
      </trkpt>
      <trkpt lat="49.95659" lon="2.33651">
        <ele>85</ele>
        <time>2023-12-27T14:03:07Z</time>
      </trkpt>
      <trkpt lat="49.95659" lon="2.33652">
        <ele>84.9</ele>
        <time>2023-12-27T14:03:08Z</time>
      </trkpt>
      <trkpt lat="49.95657" lon="2.33655">
        <ele>84.9</ele>
        <time>2023-12-27T14:03:10Z</time>
      </trkpt>
      <trkpt lat="49.95656" lon="2.33656">
        <ele>84.9</ele>
        <time>2023-12-27T14:03:11Z</time>
      </trkpt>
      <trkpt lat="49.95655" lon="2.33658">
        <ele>84.8</ele>
        <time>2023-12-27T14:03:12Z</time>
      </trkpt>
      <trkpt lat="49.95655" lon="2.33659">
        <ele>84.8</ele>
        <time>2023-12-27T14:03:13Z</time>
      </trkpt>
      <trkpt lat="49.95654" lon="2.3366">
        <ele>84.8</ele>
        <time>2023-12-27T14:03:14Z</time>
      </trkpt>
      <trkpt lat="49.95653" lon="2.33662">
        <ele>84.7</ele>
        <time>2023-12-27T14:03:15Z</time>
      </trkpt>
      <trkpt lat="49.95652" lon="2.33663">
        <ele>84.7</ele>
        <time>2023-12-27T14:03:16Z</time>
      </trkpt>
      <trkpt lat="49.95652" lon="2.33664">
        <ele>84.7</ele>
        <time>2023-12-27T14:03:17Z</time>
      </trkpt>
      <trkpt lat="49.9565" lon="2.33667">
        <ele>84.6</ele>
        <time>2023-12-27T14:03:18Z</time>
      </trkpt>
      <trkpt lat="49.9565" lon="2.33668">
        <ele>84.6</ele>
        <time>2023-12-27T14:03:19Z</time>
      </trkpt>
      <trkpt lat="49.95649" lon="2.33668">
        <ele>84.6</ele>
        <time>2023-12-27T14:03:20Z</time>
      </trkpt>
      <trkpt lat="49.95647" lon="2.33671">
        <ele>84.5</ele>
        <time>2023-12-27T14:03:22Z</time>
      </trkpt>
      <trkpt lat="49.95647" lon="2.33672">
        <ele>84.5</ele>
        <time>2023-12-27T14:03:23Z</time>
      </trkpt>
      <trkpt lat="49.95646" lon="2.33672">
        <ele>84.5</ele>
        <time>2023-12-27T14:03:24Z</time>
      </trkpt>
      <trkpt lat="49.95645" lon="2.33674">
        <ele>84.5</ele>
        <time>2023-12-27T14:03:25Z</time>
      </trkpt>
      <trkpt lat="49.95645" lon="2.33675">
        <ele>84.4</ele>
        <time>2023-12-27T14:03:26Z</time>
      </trkpt>
      <trkpt lat="49.95644" lon="2.33677">
        <ele>84.4</ele>
        <time>2023-12-27T14:03:27Z</time>
      </trkpt>
      <trkpt lat="49.95643" lon="2.33679">
        <ele>84.3</ele>
        <time>2023-12-27T14:03:28Z</time>
      </trkpt>
      <trkpt lat="49.95642" lon="2.33681">
        <ele>84.3</ele>
        <time>2023-12-27T14:03:30Z</time>
      </trkpt>
      <trkpt lat="49.95642" lon="2.33683">
        <ele>84.3</ele>
        <time>2023-12-27T14:03:31Z</time>
      </trkpt>
      <trkpt lat="49.95641" lon="2.33684">
        <ele>84.2</ele>
        <time>2023-12-27T14:03:32Z</time>
      </trkpt>
      <trkpt lat="49.9564" lon="2.33686">
        <ele>84.2</ele>
        <time>2023-12-27T14:03:33Z</time>
      </trkpt>
      <trkpt lat="49.95639" lon="2.33688">
        <ele>84.2</ele>
        <time>2023-12-27T14:03:34Z</time>
      </trkpt>
      <trkpt lat="49.95639" lon="2.3369">
        <ele>84.1</ele>
        <time>2023-12-27T14:03:35Z</time>
      </trkpt>
      <trkpt lat="49.95638" lon="2.33692">
        <ele>84.1</ele>
        <time>2023-12-27T14:03:36Z</time>
      </trkpt>
      <trkpt lat="49.95638" lon="2.33694">
        <ele>84.1</ele>
        <time>2023-12-27T14:03:37Z</time>
      </trkpt>
      <trkpt lat="49.95637" lon="2.33696">
        <ele>84</ele>
        <time>2023-12-27T14:03:38Z</time>
      </trkpt>
      <trkpt lat="49.95636" lon="2.33698">
        <ele>84</ele>
        <time>2023-12-27T14:03:40Z</time>
      </trkpt>
      <trkpt lat="49.95635" lon="2.337">
        <ele>84</ele>
        <time>2023-12-27T14:03:41Z</time>
      </trkpt>
      <trkpt lat="49.95634" lon="2.33703">
        <ele>83.9</ele>
        <time>2023-12-27T14:03:42Z</time>
      </trkpt>
      <trkpt lat="49.95634" lon="2.33704">
        <ele>83.9</ele>
        <time>2023-12-27T14:03:43Z</time>
      </trkpt>
      <trkpt lat="49.95633" lon="2.33705">
        <ele>83.9</ele>
        <time>2023-12-27T14:03:44Z</time>
      </trkpt>
      <trkpt lat="49.95632" lon="2.33708">
        <ele>83.9</ele>
        <time>2023-12-27T14:03:45Z</time>
      </trkpt>
      <trkpt lat="49.95631" lon="2.33709">
        <ele>83.9</ele>
        <time>2023-12-27T14:03:47Z</time>
      </trkpt>
      <trkpt lat="49.95631" lon="2.3371">
        <ele>83.9</ele>
        <time>2023-12-27T14:03:48Z</time>
      </trkpt>
      <trkpt lat="49.9563" lon="2.33711">
        <ele>83.8</ele>
        <time>2023-12-27T14:03:49Z</time>
      </trkpt>
      <trkpt lat="49.95629" lon="2.33713">
        <ele>83.8</ele>
        <time>2023-12-27T14:03:50Z</time>
      </trkpt>
      <trkpt lat="49.95628" lon="2.33714">
        <ele>83.8</ele>
        <time>2023-12-27T14:03:51Z</time>
      </trkpt>
      <trkpt lat="49.95626" lon="2.33715">
        <ele>83.8</ele>
        <time>2023-12-27T14:03:52Z</time>
      </trkpt>
      <trkpt lat="49.95625" lon="2.33717">
        <ele>83.7</ele>
        <time>2023-12-27T14:03:54Z</time>
      </trkpt>
      <trkpt lat="49.95624" lon="2.33719">
        <ele>83.7</ele>
        <time>2023-12-27T14:03:55Z</time>
      </trkpt>
      <trkpt lat="49.95622" lon="2.33721">
        <ele>83.7</ele>
        <time>2023-12-27T14:03:56Z</time>
      </trkpt>
      <trkpt lat="49.95622" lon="2.33722">
        <ele>83.7</ele>
        <time>2023-12-27T14:03:57Z</time>
      </trkpt>
      <trkpt lat="49.95621" lon="2.33723">
        <ele>83.7</ele>
        <time>2023-12-27T14:03:58Z</time>
      </trkpt>
      <trkpt lat="49.9562" lon="2.33726">
        <ele>83.6</ele>
        <time>2023-12-27T14:03:59Z</time>
      </trkpt>
      <trkpt lat="49.95619" lon="2.33727">
        <ele>83.6</ele>
        <time>2023-12-27T14:04:00Z</time>
      </trkpt>
      <trkpt lat="49.95619" lon="2.33728">
        <ele>83.6</ele>
        <time>2023-12-27T14:04:01Z</time>
      </trkpt>
      <trkpt lat="49.95617" lon="2.3373">
        <ele>83.6</ele>
        <time>2023-12-27T14:04:02Z</time>
      </trkpt>
      <trkpt lat="49.95617" lon="2.33732">
        <ele>83.5</ele>
        <time>2023-12-27T14:04:04Z</time>
      </trkpt>
      <trkpt lat="49.95616" lon="2.33733">
        <ele>83.5</ele>
        <time>2023-12-27T14:04:05Z</time>
      </trkpt>
      <trkpt lat="49.95615" lon="2.33735">
        <ele>83.5</ele>
        <time>2023-12-27T14:04:06Z</time>
      </trkpt>
      <trkpt lat="49.95614" lon="2.33736">
        <ele>83.5</ele>
        <time>2023-12-27T14:04:07Z</time>
      </trkpt>
      <trkpt lat="49.95612" lon="2.33738">
        <ele>83.5</ele>
        <time>2023-12-27T14:04:08Z</time>
      </trkpt>
      <trkpt lat="49.9561" lon="2.3374">
        <ele>83.4</ele>
        <time>2023-12-27T14:04:09Z</time>
      </trkpt>
      <trkpt lat="49.9561" lon="2.3374">
        <ele>83.4</ele>
        <time>2023-12-27T14:04:10Z</time>
      </trkpt>
      <trkpt lat="49.95609" lon="2.33741">
        <ele>83.4</ele>
        <time>2023-12-27T14:04:11Z</time>
      </trkpt>
      <trkpt lat="49.95608" lon="2.33742">
        <ele>83.4</ele>
        <time>2023-12-27T14:04:12Z</time>
      </trkpt>
      <trkpt lat="49.95607" lon="2.33743">
        <ele>83.4</ele>
        <time>2023-12-27T14:04:13Z</time>
      </trkpt>
      <trkpt lat="49.95606" lon="2.33744">
        <ele>83.4</ele>
        <time>2023-12-27T14:04:14Z</time>
      </trkpt>
      <trkpt lat="49.95606" lon="2.33745">
        <ele>83.3</ele>
        <time>2023-12-27T14:04:15Z</time>
      </trkpt>
      <trkpt lat="49.95605" lon="2.33746">
        <ele>83.3</ele>
        <time>2023-12-27T14:04:16Z</time>
      </trkpt>
      <trkpt lat="49.95604" lon="2.33747">
        <ele>83.3</ele>
        <time>2023-12-27T14:04:18Z</time>
      </trkpt>
      <trkpt lat="49.95603" lon="2.33748">
        <ele>83.3</ele>
        <time>2023-12-27T14:04:19Z</time>
      </trkpt>
      <trkpt lat="49.95602" lon="2.33749">
        <ele>83.3</ele>
        <time>2023-12-27T14:04:20Z</time>
      </trkpt>
      <trkpt lat="49.95601" lon="2.3375">
        <ele>83.3</ele>
        <time>2023-12-27T14:04:21Z</time>
      </trkpt>
      <trkpt lat="49.956" lon="2.33752">
        <ele>83.2</ele>
        <time>2023-12-27T14:04:22Z</time>
      </trkpt>
      <trkpt lat="49.95599" lon="2.33753">
        <ele>83.2</ele>
        <time>2023-12-27T14:04:23Z</time>
      </trkpt>
      <trkpt lat="49.95599" lon="2.33754">
        <ele>83.2</ele>
        <time>2023-12-27T14:04:24Z</time>
      </trkpt>
      <trkpt lat="49.95598" lon="2.33756">
        <ele>83.2</ele>
        <time>2023-12-27T14:04:26Z</time>
      </trkpt>
      <trkpt lat="49.95597" lon="2.33757">
        <ele>83.2</ele>
        <time>2023-12-27T14:04:27Z</time>
      </trkpt>
      <trkpt lat="49.95596" lon="2.33758">
        <ele>83.2</ele>
        <time>2023-12-27T14:04:28Z</time>
      </trkpt>
      <trkpt lat="49.95596" lon="2.33759">
        <ele>83.2</ele>
        <time>2023-12-27T14:04:29Z</time>
      </trkpt>
      <trkpt lat="49.95595" lon="2.3376">
        <ele>83.1</ele>
        <time>2023-12-27T14:04:30Z</time>
      </trkpt>
      <trkpt lat="49.95595" lon="2.33761">
        <ele>83.1</ele>
        <time>2023-12-27T14:04:31Z</time>
      </trkpt>
      <trkpt lat="49.95594" lon="2.33763">
        <ele>83.1</ele>
        <time>2023-12-27T14:04:32Z</time>
      </trkpt>
      <trkpt lat="49.95594" lon="2.33764">
        <ele>83.1</ele>
        <time>2023-12-27T14:04:33Z</time>
      </trkpt>
      <trkpt lat="49.95593" lon="2.33765">
        <ele>83.1</ele>
        <time>2023-12-27T14:04:34Z</time>
      </trkpt>
      <trkpt lat="49.95593" lon="2.33767">
        <ele>83.1</ele>
        <time>2023-12-27T14:04:35Z</time>
      </trkpt>
      <trkpt lat="49.95592" lon="2.33769">
        <ele>83.1</ele>
        <time>2023-12-27T14:04:36Z</time>
      </trkpt>
      <trkpt lat="49.95592" lon="2.33771">
        <ele>83</ele>
        <time>2023-12-27T14:04:37Z</time>
      </trkpt>
      <trkpt lat="49.95592" lon="2.33772">
        <ele>83</ele>
        <time>2023-12-27T14:04:38Z</time>
      </trkpt>
      <trkpt lat="49.95591" lon="2.33775">
        <ele>83</ele>
        <time>2023-12-27T14:04:40Z</time>
      </trkpt>
      <trkpt lat="49.95591" lon="2.33777">
        <ele>83</ele>
        <time>2023-12-27T14:04:41Z</time>
      </trkpt>
      <trkpt lat="49.9559" lon="2.33778">
        <ele>83</ele>
        <time>2023-12-27T14:04:42Z</time>
      </trkpt>
      <trkpt lat="49.9559" lon="2.33779">
        <ele>83</ele>
        <time>2023-12-27T14:04:43Z</time>
      </trkpt>
      <trkpt lat="49.95589" lon="2.33782">
        <ele>83</ele>
        <time>2023-12-27T14:04:44Z</time>
      </trkpt>
      <trkpt lat="49.95588" lon="2.33785">
        <ele>82.9</ele>
        <time>2023-12-27T14:04:45Z</time>
      </trkpt>
      <trkpt lat="49.95587" lon="2.33786">
        <ele>82.9</ele>
        <time>2023-12-27T14:04:47Z</time>
      </trkpt>
      <trkpt lat="49.95587" lon="2.33787">
        <ele>82.9</ele>
        <time>2023-12-27T14:04:48Z</time>
      </trkpt>
      <trkpt lat="49.95586" lon="2.33789">
        <ele>82.9</ele>
        <time>2023-12-27T14:04:49Z</time>
      </trkpt>
      <trkpt lat="49.95586" lon="2.3379">
        <ele>82.9</ele>
        <time>2023-12-27T14:04:50Z</time>
      </trkpt>
      <trkpt lat="49.95587" lon="2.33793">
        <ele>82.9</ele>
        <time>2023-12-27T14:04:51Z</time>
      </trkpt>
      <trkpt lat="49.95588" lon="2.33793">
        <ele>82.9</ele>
        <time>2023-12-27T14:04:53Z</time>
      </trkpt>
      <trkpt lat="49.95588" lon="2.33794">
        <ele>82.8</ele>
        <time>2023-12-27T14:04:54Z</time>
      </trkpt>
      <trkpt lat="49.95589" lon="2.33794">
        <ele>82.8</ele>
        <time>2023-12-27T14:04:55Z</time>
      </trkpt>
      <trkpt lat="49.95591" lon="2.33795">
        <ele>82.8</ele>
        <time>2023-12-27T14:04:56Z</time>
      </trkpt>
      <trkpt lat="49.95592" lon="2.33795">
        <ele>82.8</ele>
        <time>2023-12-27T14:04:57Z</time>
      </trkpt>
      <trkpt lat="49.95593" lon="2.33796">
        <ele>82.8</ele>
        <time>2023-12-27T14:04:58Z</time>
      </trkpt>
      <trkpt lat="49.95594" lon="2.33796">
        <ele>82.7</ele>
        <time>2023-12-27T14:04:59Z</time>
      </trkpt>
      <trkpt lat="49.95595" lon="2.33796">
        <ele>82.7</ele>
        <time>2023-12-27T14:05:00Z</time>
      </trkpt>
      <trkpt lat="49.95596" lon="2.33796">
        <ele>82.7</ele>
        <time>2023-12-27T14:05:02Z</time>
      </trkpt>
      <trkpt lat="49.95597" lon="2.33796">
        <ele>82.7</ele>
        <time>2023-12-27T14:05:03Z</time>
      </trkpt>
      <trkpt lat="49.95597" lon="2.33795">
        <ele>82.7</ele>
        <time>2023-12-27T14:05:04Z</time>
      </trkpt>
      <trkpt lat="49.95598" lon="2.33795">
        <ele>82.7</ele>
        <time>2023-12-27T14:05:06Z</time>
      </trkpt>
      <trkpt lat="49.95598" lon="2.33795">
        <ele>82.7</ele>
        <time>2023-12-27T14:05:07Z</time>
      </trkpt>
      <trkpt lat="49.95599" lon="2.33795">
        <ele>82.7</ele>
        <time>2023-12-27T14:05:08Z</time>
      </trkpt>
      <trkpt lat="49.95599" lon="2.33795">
        <ele>82.7</ele>
        <time>2023-12-27T14:05:09Z</time>
      </trkpt>
      <trkpt lat="49.95599" lon="2.33794">
        <ele>82.6</ele>
        <time>2023-12-27T14:05:11Z</time>
      </trkpt>
      <trkpt lat="49.956" lon="2.33793">
        <ele>82.6</ele>
        <time>2023-12-27T14:05:12Z</time>
      </trkpt>
      <trkpt lat="49.956" lon="2.33792">
        <ele>82.6</ele>
        <time>2023-12-27T14:05:13Z</time>
      </trkpt>
      <trkpt lat="49.95601" lon="2.33791">
        <ele>82.6</ele>
        <time>2023-12-27T14:05:15Z</time>
      </trkpt>
      <trkpt lat="49.95601" lon="2.3379">
        <ele>82.6</ele>
        <time>2023-12-27T14:05:16Z</time>
      </trkpt>
      <trkpt lat="49.95601" lon="2.33789">
        <ele>82.6</ele>
        <time>2023-12-27T14:05:17Z</time>
      </trkpt>
      <trkpt lat="49.95602" lon="2.33788">
        <ele>82.6</ele>
        <time>2023-12-27T14:05:18Z</time>
      </trkpt>
      <trkpt lat="49.95602" lon="2.33788">
        <ele>82.5</ele>
        <time>2023-12-27T14:05:19Z</time>
      </trkpt>
      <trkpt lat="49.95603" lon="2.33787">
        <ele>82.5</ele>
        <time>2023-12-27T14:05:20Z</time>
      </trkpt>
      <trkpt lat="49.95603" lon="2.33787">
        <ele>82.5</ele>
        <time>2023-12-27T14:05:21Z</time>
      </trkpt>
      <trkpt lat="49.95604" lon="2.33786">
        <ele>82.5</ele>
        <time>2023-12-27T14:05:23Z</time>
      </trkpt>
      <trkpt lat="49.95604" lon="2.33786">
        <ele>82.5</ele>
        <time>2023-12-27T14:05:24Z</time>
      </trkpt>
      <trkpt lat="49.95604" lon="2.33786">
        <ele>82.5</ele>
        <time>2023-12-27T14:05:25Z</time>
      </trkpt>
      <trkpt lat="49.95605" lon="2.33786">
        <ele>82.5</ele>
        <time>2023-12-27T14:05:26Z</time>
      </trkpt>
      <trkpt lat="49.95605" lon="2.33785">
        <ele>82.5</ele>
        <time>2023-12-27T14:05:28Z</time>
      </trkpt>
      <trkpt lat="49.95606" lon="2.33785">
        <ele>82.5</ele>
        <time>2023-12-27T14:05:29Z</time>
      </trkpt>
      <trkpt lat="49.95606" lon="2.33785">
        <ele>82.5</ele>
        <time>2023-12-27T14:05:30Z</time>
      </trkpt>
      <trkpt lat="49.95607" lon="2.33785">
        <ele>82.5</ele>
        <time>2023-12-27T14:05:31Z</time>
      </trkpt>
      <trkpt lat="49.95607" lon="2.33784">
        <ele>82.5</ele>
        <time>2023-12-27T14:05:32Z</time>
      </trkpt>
      <trkpt lat="49.95608" lon="2.33785">
        <ele>82.5</ele>
        <time>2023-12-27T14:05:33Z</time>
      </trkpt>
      <trkpt lat="49.95609" lon="2.33784">
        <ele>82.5</ele>
        <time>2023-12-27T14:05:35Z</time>
      </trkpt>
      <trkpt lat="49.9561" lon="2.33784">
        <ele>82.5</ele>
        <time>2023-12-27T14:05:36Z</time>
      </trkpt>
      <trkpt lat="49.95611" lon="2.33784">
        <ele>82.5</ele>
        <time>2023-12-27T14:05:37Z</time>
      </trkpt>
      <trkpt lat="49.95612" lon="2.33784">
        <ele>82.4</ele>
        <time>2023-12-27T14:05:38Z</time>
      </trkpt>
      <trkpt lat="49.95613" lon="2.33783">
        <ele>82.4</ele>
        <time>2023-12-27T14:05:40Z</time>
      </trkpt>
      <trkpt lat="49.95614" lon="2.33783">
        <ele>82.4</ele>
        <time>2023-12-27T14:05:41Z</time>
      </trkpt>
      <trkpt lat="49.95615" lon="2.33783">
        <ele>82.4</ele>
        <time>2023-12-27T14:05:42Z</time>
      </trkpt>
      <trkpt lat="49.95616" lon="2.33785">
        <ele>82.4</ele>
        <time>2023-12-27T14:05:44Z</time>
      </trkpt>
      <trkpt lat="49.95617" lon="2.33786">
        <ele>82.4</ele>
        <time>2023-12-27T14:05:45Z</time>
      </trkpt>
      <trkpt lat="49.95617" lon="2.33786">
        <ele>82.4</ele>
        <time>2023-12-27T14:05:46Z</time>
      </trkpt>
      <trkpt lat="49.95617" lon="2.33787">
        <ele>82.4</ele>
        <time>2023-12-27T14:05:48Z</time>
      </trkpt>
      <trkpt lat="49.95617" lon="2.33787">
        <ele>82.4</ele>
        <time>2023-12-27T14:05:49Z</time>
      </trkpt>
      <trkpt lat="49.95617" lon="2.33788">
        <ele>82.4</ele>
        <time>2023-12-27T14:05:51Z</time>
      </trkpt>
      <trkpt lat="49.95617" lon="2.33788">
        <ele>82.4</ele>
        <time>2023-12-27T14:05:52Z</time>
      </trkpt>
      <trkpt lat="49.95617" lon="2.33788">
        <ele>82.4</ele>
        <time>2023-12-27T14:05:54Z</time>
      </trkpt>
      <trkpt lat="49.95617" lon="2.33788">
        <ele>82.4</ele>
        <time>2023-12-27T14:05:55Z</time>
      </trkpt>
      <trkpt lat="49.95617" lon="2.33788">
        <ele>82.4</ele>
        <time>2023-12-27T14:05:56Z</time>
      </trkpt>
      <trkpt lat="49.95617" lon="2.33788">
        <ele>82.4</ele>
        <time>2023-12-27T14:05:58Z</time>
      </trkpt>
      <trkpt lat="49.95617" lon="2.33788">
        <ele>82.4</ele>
        <time>2023-12-27T14:05:59Z</time>
      </trkpt>
      <trkpt lat="49.95616" lon="2.33788">
        <ele>82.3</ele>
        <time>2023-12-27T14:06:01Z</time>
      </trkpt>
      <trkpt lat="49.95616" lon="2.33788">
        <ele>82.3</ele>
        <time>2023-12-27T14:06:02Z</time>
      </trkpt>
      <trkpt lat="49.95616" lon="2.33788">
        <ele>82.3</ele>
        <time>2023-12-27T14:06:03Z</time>
      </trkpt>
      <trkpt lat="49.95616" lon="2.33788">
        <ele>82.3</ele>
        <time>2023-12-27T14:06:04Z</time>
      </trkpt>
      <trkpt lat="49.95615" lon="2.33789">
        <ele>82.3</ele>
        <time>2023-12-27T14:09:41Z</time>
      </trkpt>
      <trkpt lat="49.95616" lon="2.3379">
        <ele>82.3</ele>
        <time>2023-12-27T14:09:42Z</time>
      </trkpt>
      <trkpt lat="49.95617" lon="2.3379">
        <ele>82.3</ele>
        <time>2023-12-27T14:09:44Z</time>
      </trkpt>
      <trkpt lat="49.95616" lon="2.33791">
        <ele>82.3</ele>
        <time>2023-12-27T14:09:45Z</time>
      </trkpt>
      <trkpt lat="49.95616" lon="2.33793">
        <ele>82.3</ele>
        <time>2023-12-27T14:09:46Z</time>
      </trkpt>
      <trkpt lat="49.95616" lon="2.33794">
        <ele>82.3</ele>
        <time>2023-12-27T14:09:47Z</time>
      </trkpt>
      <trkpt lat="49.95618" lon="2.33798">
        <ele>82.3</ele>
        <time>2023-12-27T14:09:48Z</time>
      </trkpt>
      <trkpt lat="49.95619" lon="2.33798">
        <ele>82.3</ele>
        <time>2023-12-27T14:09:49Z</time>
      </trkpt>
      <trkpt lat="49.95622" lon="2.33799">
        <ele>82.3</ele>
        <time>2023-12-27T14:09:50Z</time>
      </trkpt>
      <trkpt lat="49.95623" lon="2.33799">
        <ele>82.3</ele>
        <time>2023-12-27T14:09:51Z</time>
      </trkpt>
      <trkpt lat="49.95626" lon="2.33799">
        <ele>82.3</ele>
        <time>2023-12-27T14:09:53Z</time>
      </trkpt>
      <trkpt lat="49.95627" lon="2.33798">
        <ele>82.3</ele>
        <time>2023-12-27T14:09:54Z</time>
      </trkpt>
      <trkpt lat="49.95629" lon="2.33796">
        <ele>82.3</ele>
        <time>2023-12-27T14:09:55Z</time>
      </trkpt>
      <trkpt lat="49.9563" lon="2.33794">
        <ele>82.3</ele>
        <time>2023-12-27T14:09:56Z</time>
      </trkpt>
      <trkpt lat="49.95633" lon="2.33793">
        <ele>82.3</ele>
        <time>2023-12-27T14:09:57Z</time>
      </trkpt>
      <trkpt lat="49.95635" lon="2.33792">
        <ele>82.4</ele>
        <time>2023-12-27T14:09:59Z</time>
      </trkpt>
      <trkpt lat="49.95637" lon="2.33791">
        <ele>82.4</ele>
        <time>2023-12-27T14:10:00Z</time>
      </trkpt>
      <trkpt lat="49.95638" lon="2.3379">
        <ele>82.4</ele>
        <time>2023-12-27T14:10:01Z</time>
      </trkpt>
      <trkpt lat="49.95641" lon="2.33791">
        <ele>82.5</ele>
        <time>2023-12-27T14:10:02Z</time>
      </trkpt>
      <trkpt lat="49.95642" lon="2.33791">
        <ele>82.5</ele>
        <time>2023-12-27T14:10:03Z</time>
      </trkpt>
      <trkpt lat="49.95643" lon="2.33791">
        <ele>82.5</ele>
        <time>2023-12-27T14:10:04Z</time>
      </trkpt>
      <trkpt lat="49.95644" lon="2.33791">
        <ele>82.6</ele>
        <time>2023-12-27T14:10:05Z</time>
      </trkpt>
      <trkpt lat="49.95646" lon="2.33791">
        <ele>82.6</ele>
        <time>2023-12-27T14:10:06Z</time>
      </trkpt>
      <trkpt lat="49.95649" lon="2.33791">
        <ele>82.7</ele>
        <time>2023-12-27T14:10:08Z</time>
      </trkpt>
      <trkpt lat="49.9565" lon="2.3379">
        <ele>82.7</ele>
        <time>2023-12-27T14:10:09Z</time>
      </trkpt>
      <trkpt lat="49.95651" lon="2.3379">
        <ele>82.7</ele>
        <time>2023-12-27T14:10:10Z</time>
      </trkpt>
      <trkpt lat="49.95653" lon="2.3379">
        <ele>82.8</ele>
        <time>2023-12-27T14:10:11Z</time>
      </trkpt>
      <trkpt lat="49.95655" lon="2.33791">
        <ele>82.8</ele>
        <time>2023-12-27T14:10:12Z</time>
      </trkpt>
      <trkpt lat="49.95657" lon="2.33791">
        <ele>82.9</ele>
        <time>2023-12-27T14:10:14Z</time>
      </trkpt>
      <trkpt lat="49.95659" lon="2.33791">
        <ele>82.9</ele>
        <time>2023-12-27T14:10:15Z</time>
      </trkpt>
      <trkpt lat="49.9566" lon="2.33791">
        <ele>82.9</ele>
        <time>2023-12-27T14:10:16Z</time>
      </trkpt>
      <trkpt lat="49.95662" lon="2.33791">
        <ele>83</ele>
        <time>2023-12-27T14:10:17Z</time>
      </trkpt>
      <trkpt lat="49.95663" lon="2.33791">
        <ele>83</ele>
        <time>2023-12-27T14:10:18Z</time>
      </trkpt>
      <trkpt lat="49.95665" lon="2.33791">
        <ele>83.1</ele>
        <time>2023-12-27T14:10:20Z</time>
      </trkpt>
      <trkpt lat="49.95666" lon="2.33791">
        <ele>83.1</ele>
        <time>2023-12-27T14:10:21Z</time>
      </trkpt>
      <trkpt lat="49.95667" lon="2.33791">
        <ele>83.1</ele>
        <time>2023-12-27T14:10:22Z</time>
      </trkpt>
      <trkpt lat="49.95668" lon="2.33792">
        <ele>83.1</ele>
        <time>2023-12-27T14:10:23Z</time>
      </trkpt>
      <trkpt lat="49.95669" lon="2.33792">
        <ele>83.2</ele>
        <time>2023-12-27T14:10:24Z</time>
      </trkpt>
      <trkpt lat="49.9567" lon="2.33792">
        <ele>83.2</ele>
        <time>2023-12-27T14:10:26Z</time>
      </trkpt>
      <trkpt lat="49.95671" lon="2.33792">
        <ele>83.2</ele>
        <time>2023-12-27T14:10:27Z</time>
      </trkpt>
      <trkpt lat="49.95672" lon="2.33792">
        <ele>83.3</ele>
        <time>2023-12-27T14:10:28Z</time>
      </trkpt>
      <trkpt lat="49.95673" lon="2.33792">
        <ele>83.3</ele>
        <time>2023-12-27T14:10:29Z</time>
      </trkpt>
      <trkpt lat="49.95675" lon="2.33792">
        <ele>83.3</ele>
        <time>2023-12-27T14:10:30Z</time>
      </trkpt>
      <trkpt lat="49.95676" lon="2.33792">
        <ele>83.4</ele>
        <time>2023-12-27T14:10:31Z</time>
      </trkpt>
      <trkpt lat="49.95678" lon="2.33792">
        <ele>83.4</ele>
        <time>2023-12-27T14:10:32Z</time>
      </trkpt>
      <trkpt lat="49.95679" lon="2.33792">
        <ele>83.5</ele>
        <time>2023-12-27T14:10:34Z</time>
      </trkpt>
      <trkpt lat="49.9568" lon="2.33792">
        <ele>83.5</ele>
        <time>2023-12-27T14:10:35Z</time>
      </trkpt>
      <trkpt lat="49.95681" lon="2.33793">
        <ele>83.6</ele>
        <time>2023-12-27T14:10:36Z</time>
      </trkpt>
      <trkpt lat="49.95683" lon="2.33793">
        <ele>83.6</ele>
        <time>2023-12-27T14:10:37Z</time>
      </trkpt>
      <trkpt lat="49.95684" lon="2.33793">
        <ele>83.7</ele>
        <time>2023-12-27T14:10:38Z</time>
      </trkpt>
      <trkpt lat="49.95685" lon="2.33793">
        <ele>83.7</ele>
        <time>2023-12-27T14:10:40Z</time>
      </trkpt>
      <trkpt lat="49.95687" lon="2.33793">
        <ele>83.8</ele>
        <time>2023-12-27T14:10:41Z</time>
      </trkpt>
      <trkpt lat="49.95688" lon="2.33793">
        <ele>83.9</ele>
        <time>2023-12-27T14:10:42Z</time>
      </trkpt>
      <trkpt lat="49.9569" lon="2.33793">
        <ele>83.9</ele>
        <time>2023-12-27T14:10:43Z</time>
      </trkpt>
      <trkpt lat="49.95691" lon="2.33793">
        <ele>84</ele>
        <time>2023-12-27T14:10:44Z</time>
      </trkpt>
      <trkpt lat="49.95693" lon="2.33793">
        <ele>84.1</ele>
        <time>2023-12-27T14:10:46Z</time>
      </trkpt>
      <trkpt lat="49.95694" lon="2.33794">
        <ele>84.1</ele>
        <time>2023-12-27T14:10:47Z</time>
      </trkpt>
      <trkpt lat="49.95697" lon="2.33794">
        <ele>84.2</ele>
        <time>2023-12-27T14:10:48Z</time>
      </trkpt>
      <trkpt lat="49.95698" lon="2.33794">
        <ele>84.3</ele>
        <time>2023-12-27T14:10:49Z</time>
      </trkpt>
      <trkpt lat="49.95698" lon="2.33794">
        <ele>84.3</ele>
        <time>2023-12-27T14:10:50Z</time>
      </trkpt>
      <trkpt lat="49.95701" lon="2.33793">
        <ele>84.4</ele>
        <time>2023-12-27T14:10:52Z</time>
      </trkpt>
      <trkpt lat="49.95701" lon="2.33793">
        <ele>84.5</ele>
        <time>2023-12-27T14:10:53Z</time>
      </trkpt>
      <trkpt lat="49.95702" lon="2.33793">
        <ele>84.5</ele>
        <time>2023-12-27T14:10:54Z</time>
      </trkpt>
      <trkpt lat="49.95704" lon="2.33793">
        <ele>84.6</ele>
        <time>2023-12-27T14:10:55Z</time>
      </trkpt>
      <trkpt lat="49.95705" lon="2.33793">
        <ele>84.6</ele>
        <time>2023-12-27T14:10:57Z</time>
      </trkpt>
      <trkpt lat="49.95706" lon="2.33793">
        <ele>84.6</ele>
        <time>2023-12-27T14:10:58Z</time>
      </trkpt>
      <trkpt lat="49.95707" lon="2.33793">
        <ele>84.7</ele>
        <time>2023-12-27T14:10:59Z</time>
      </trkpt>
      <trkpt lat="49.95708" lon="2.33793">
        <ele>84.7</ele>
        <time>2023-12-27T14:11:00Z</time>
      </trkpt>
      <trkpt lat="49.95709" lon="2.33793">
        <ele>84.7</ele>
        <time>2023-12-27T14:11:02Z</time>
      </trkpt>
      <trkpt lat="49.95711" lon="2.33793">
        <ele>84.8</ele>
        <time>2023-12-27T14:11:03Z</time>
      </trkpt>
      <trkpt lat="49.95712" lon="2.33793">
        <ele>84.8</ele>
        <time>2023-12-27T14:11:05Z</time>
      </trkpt>
      <trkpt lat="49.95713" lon="2.33793">
        <ele>84.9</ele>
        <time>2023-12-27T14:11:06Z</time>
      </trkpt>
      <trkpt lat="49.95714" lon="2.33793">
        <ele>84.9</ele>
        <time>2023-12-27T14:11:07Z</time>
      </trkpt>
      <trkpt lat="49.95715" lon="2.33793">
        <ele>85</ele>
        <time>2023-12-27T14:11:08Z</time>
      </trkpt>
      <trkpt lat="49.95718" lon="2.33793">
        <ele>85</ele>
        <time>2023-12-27T14:11:09Z</time>
      </trkpt>
      <trkpt lat="49.95718" lon="2.33793">
        <ele>85.1</ele>
        <time>2023-12-27T14:11:11Z</time>
      </trkpt>
      <trkpt lat="49.95719" lon="2.33793">
        <ele>85.1</ele>
        <time>2023-12-27T14:11:12Z</time>
      </trkpt>
      <trkpt lat="49.9572" lon="2.33793">
        <ele>85.1</ele>
        <time>2023-12-27T14:11:13Z</time>
      </trkpt>
      <trkpt lat="49.95722" lon="2.33794">
        <ele>85.2</ele>
        <time>2023-12-27T14:11:14Z</time>
      </trkpt>
      <trkpt lat="49.95723" lon="2.33794">
        <ele>85.2</ele>
        <time>2023-12-27T14:11:16Z</time>
      </trkpt>
      <trkpt lat="49.95724" lon="2.33794">
        <ele>85.3</ele>
        <time>2023-12-27T14:11:17Z</time>
      </trkpt>
      <trkpt lat="49.95726" lon="2.33794">
        <ele>85.3</ele>
        <time>2023-12-27T14:11:18Z</time>
      </trkpt>
      <trkpt lat="49.95727" lon="2.33794">
        <ele>85.3</ele>
        <time>2023-12-27T14:11:19Z</time>
      </trkpt>
      <trkpt lat="49.95728" lon="2.33794">
        <ele>85.4</ele>
        <time>2023-12-27T14:11:20Z</time>
      </trkpt>
      <trkpt lat="49.95729" lon="2.33794">
        <ele>85.4</ele>
        <time>2023-12-27T14:11:21Z</time>
      </trkpt>
      <trkpt lat="49.9573" lon="2.33794">
        <ele>85.5</ele>
        <time>2023-12-27T14:11:22Z</time>
      </trkpt>
      <trkpt lat="49.95731" lon="2.33794">
        <ele>85.5</ele>
        <time>2023-12-27T14:11:24Z</time>
      </trkpt>
      <trkpt lat="49.95733" lon="2.33795">
        <ele>85.6</ele>
        <time>2023-12-27T14:11:25Z</time>
      </trkpt>
      <trkpt lat="49.95734" lon="2.33795">
        <ele>85.6</ele>
        <time>2023-12-27T14:11:26Z</time>
      </trkpt>
      <trkpt lat="49.95736" lon="2.33795">
        <ele>85.7</ele>
        <time>2023-12-27T14:11:27Z</time>
      </trkpt>
      <trkpt lat="49.95737" lon="2.33795">
        <ele>85.8</ele>
        <time>2023-12-27T14:11:29Z</time>
      </trkpt>
      <trkpt lat="49.95738" lon="2.33795">
        <ele>85.8</ele>
        <time>2023-12-27T14:11:30Z</time>
      </trkpt>
      <trkpt lat="49.9574" lon="2.33795">
        <ele>85.9</ele>
        <time>2023-12-27T14:11:31Z</time>
      </trkpt>
      <trkpt lat="49.9574" lon="2.33795">
        <ele>86</ele>
        <time>2023-12-27T14:11:32Z</time>
      </trkpt>
      <trkpt lat="49.95741" lon="2.33795">
        <ele>86</ele>
        <time>2023-12-27T14:11:33Z</time>
      </trkpt>
      <trkpt lat="49.95743" lon="2.33795">
        <ele>86.2</ele>
        <time>2023-12-27T14:11:35Z</time>
      </trkpt>
      <trkpt lat="49.95744" lon="2.33795">
        <ele>86.2</ele>
        <time>2023-12-27T14:11:36Z</time>
      </trkpt>
      <trkpt lat="49.95745" lon="2.33794">
        <ele>86.3</ele>
        <time>2023-12-27T14:11:37Z</time>
      </trkpt>
      <trkpt lat="49.95746" lon="2.33794">
        <ele>86.3</ele>
        <time>2023-12-27T14:11:38Z</time>
      </trkpt>
      <trkpt lat="49.95748" lon="2.33794">
        <ele>86.4</ele>
        <time>2023-12-27T14:11:39Z</time>
      </trkpt>
      <trkpt lat="49.95749" lon="2.33795">
        <ele>86.5</ele>
        <time>2023-12-27T14:11:41Z</time>
      </trkpt>
      <trkpt lat="49.9575" lon="2.33795">
        <ele>86.6</ele>
        <time>2023-12-27T14:11:42Z</time>
      </trkpt>
      <trkpt lat="49.95751" lon="2.33795">
        <ele>86.7</ele>
        <time>2023-12-27T14:11:43Z</time>
      </trkpt>
      <trkpt lat="49.95752" lon="2.33795">
        <ele>86.7</ele>
        <time>2023-12-27T14:11:44Z</time>
      </trkpt>
      <trkpt lat="49.95754" lon="2.33794">
        <ele>86.8</ele>
        <time>2023-12-27T14:11:45Z</time>
      </trkpt>
      <trkpt lat="49.95754" lon="2.33794">
        <ele>86.9</ele>
        <time>2023-12-27T14:11:46Z</time>
      </trkpt>
      <trkpt lat="49.95755" lon="2.33794">
        <ele>86.9</ele>
        <time>2023-12-27T14:11:47Z</time>
      </trkpt>
      <trkpt lat="49.95757" lon="2.33794">
        <ele>87.1</ele>
        <time>2023-12-27T14:11:48Z</time>
      </trkpt>
      <trkpt lat="49.95758" lon="2.33794">
        <ele>87.1</ele>
        <time>2023-12-27T14:11:49Z</time>
      </trkpt>
      <trkpt lat="49.95759" lon="2.33794">
        <ele>87.2</ele>
        <time>2023-12-27T14:11:50Z</time>
      </trkpt>
      <trkpt lat="49.9576" lon="2.33795">
        <ele>87.2</ele>
        <time>2023-12-27T14:11:52Z</time>
      </trkpt>
      <trkpt lat="49.95761" lon="2.33795">
        <ele>87.3</ele>
        <time>2023-12-27T14:11:53Z</time>
      </trkpt>
      <trkpt lat="49.95762" lon="2.33796">
        <ele>87.4</ele>
        <time>2023-12-27T14:11:54Z</time>
      </trkpt>
      <trkpt lat="49.95763" lon="2.33796">
        <ele>87.5</ele>
        <time>2023-12-27T14:11:55Z</time>
      </trkpt>
      <trkpt lat="49.95764" lon="2.33797">
        <ele>87.6</ele>
        <time>2023-12-27T14:11:56Z</time>
      </trkpt>
      <trkpt lat="49.95766" lon="2.33797">
        <ele>87.7</ele>
        <time>2023-12-27T14:11:58Z</time>
      </trkpt>
      <trkpt lat="49.95767" lon="2.33797">
        <ele>87.7</ele>
        <time>2023-12-27T14:11:59Z</time>
      </trkpt>
      <trkpt lat="49.95768" lon="2.33797">
        <ele>87.8</ele>
        <time>2023-12-27T14:12:00Z</time>
      </trkpt>
      <trkpt lat="49.95769" lon="2.33797">
        <ele>87.9</ele>
        <time>2023-12-27T14:12:02Z</time>
      </trkpt>
      <trkpt lat="49.9577" lon="2.33797">
        <ele>88</ele>
        <time>2023-12-27T14:12:03Z</time>
      </trkpt>
      <trkpt lat="49.95771" lon="2.33797">
        <ele>88</ele>
        <time>2023-12-27T14:12:04Z</time>
      </trkpt>
      <trkpt lat="49.95772" lon="2.33797">
        <ele>88.1</ele>
        <time>2023-12-27T14:12:05Z</time>
      </trkpt>
      <trkpt lat="49.95774" lon="2.33797">
        <ele>88.2</ele>
        <time>2023-12-27T14:12:06Z</time>
      </trkpt>
      <trkpt lat="49.95775" lon="2.33797">
        <ele>88.3</ele>
        <time>2023-12-27T14:12:08Z</time>
      </trkpt>
      <trkpt lat="49.95776" lon="2.33797">
        <ele>88.3</ele>
        <time>2023-12-27T14:12:09Z</time>
      </trkpt>
      <trkpt lat="49.95777" lon="2.33797">
        <ele>88.4</ele>
        <time>2023-12-27T14:12:10Z</time>
      </trkpt>
      <trkpt lat="49.95778" lon="2.33797">
        <ele>88.5</ele>
        <time>2023-12-27T14:12:11Z</time>
      </trkpt>
      <trkpt lat="49.95779" lon="2.33797">
        <ele>88.5</ele>
        <time>2023-12-27T14:12:12Z</time>
      </trkpt>
      <trkpt lat="49.95781" lon="2.33797">
        <ele>88.6</ele>
        <time>2023-12-27T14:12:13Z</time>
      </trkpt>
      <trkpt lat="49.95782" lon="2.33797">
        <ele>88.7</ele>
        <time>2023-12-27T14:12:14Z</time>
      </trkpt>
      <trkpt lat="49.95783" lon="2.33797">
        <ele>88.8</ele>
        <time>2023-12-27T14:12:16Z</time>
      </trkpt>
      <trkpt lat="49.95785" lon="2.33797">
        <ele>88.9</ele>
        <time>2023-12-27T14:12:17Z</time>
      </trkpt>
      <trkpt lat="49.95786" lon="2.33796">
        <ele>88.9</ele>
        <time>2023-12-27T14:12:18Z</time>
      </trkpt>
      <trkpt lat="49.95787" lon="2.33796">
        <ele>89</ele>
        <time>2023-12-27T14:12:19Z</time>
      </trkpt>
      <trkpt lat="49.95789" lon="2.33796">
        <ele>89.1</ele>
        <time>2023-12-27T14:12:20Z</time>
      </trkpt>
      <trkpt lat="49.9579" lon="2.33796">
        <ele>89.1</ele>
        <time>2023-12-27T14:12:22Z</time>
      </trkpt>
      <trkpt lat="49.95791" lon="2.33796">
        <ele>89.1</ele>
        <time>2023-12-27T14:12:23Z</time>
      </trkpt>
      <trkpt lat="49.95792" lon="2.33796">
        <ele>89.2</ele>
        <time>2023-12-27T14:12:24Z</time>
      </trkpt>
      <trkpt lat="49.95793" lon="2.33796">
        <ele>89.2</ele>
        <time>2023-12-27T14:12:25Z</time>
      </trkpt>
      <trkpt lat="49.95794" lon="2.33796">
        <ele>89.3</ele>
        <time>2023-12-27T14:12:26Z</time>
      </trkpt>
      <trkpt lat="49.95797" lon="2.33796">
        <ele>89.4</ele>
        <time>2023-12-27T14:12:28Z</time>
      </trkpt>
      <trkpt lat="49.95797" lon="2.33796">
        <ele>89.5</ele>
        <time>2023-12-27T14:12:29Z</time>
      </trkpt>
      <trkpt lat="49.95798" lon="2.33796">
        <ele>89.5</ele>
        <time>2023-12-27T14:12:30Z</time>
      </trkpt>
      <trkpt lat="49.958" lon="2.33797">
        <ele>89.6</ele>
        <time>2023-12-27T14:12:31Z</time>
      </trkpt>
      <trkpt lat="49.95801" lon="2.33797">
        <ele>89.6</ele>
        <time>2023-12-27T14:12:33Z</time>
      </trkpt>
      <trkpt lat="49.95802" lon="2.33797">
        <ele>89.7</ele>
        <time>2023-12-27T14:12:34Z</time>
      </trkpt>
      <trkpt lat="49.95803" lon="2.33797">
        <ele>89.7</ele>
        <time>2023-12-27T14:12:35Z</time>
      </trkpt>
      <trkpt lat="49.95804" lon="2.33797">
        <ele>89.8</ele>
        <time>2023-12-27T14:12:36Z</time>
      </trkpt>
      <trkpt lat="49.95805" lon="2.33798">
        <ele>89.9</ele>
        <time>2023-12-27T14:12:37Z</time>
      </trkpt>
      <trkpt lat="49.95807" lon="2.33798">
        <ele>89.9</ele>
        <time>2023-12-27T14:12:39Z</time>
      </trkpt>
      <trkpt lat="49.95808" lon="2.33798">
        <ele>90</ele>
        <time>2023-12-27T14:12:40Z</time>
      </trkpt>
      <trkpt lat="49.95809" lon="2.33799">
        <ele>90.1</ele>
        <time>2023-12-27T14:12:41Z</time>
      </trkpt>
      <trkpt lat="49.9581" lon="2.33799">
        <ele>90.1</ele>
        <time>2023-12-27T14:12:42Z</time>
      </trkpt>
      <trkpt lat="49.95812" lon="2.33799">
        <ele>90.3</ele>
        <time>2023-12-27T14:12:44Z</time>
      </trkpt>
      <trkpt lat="49.95813" lon="2.33799">
        <ele>90.3</ele>
        <time>2023-12-27T14:12:46Z</time>
      </trkpt>
      <trkpt lat="49.95814" lon="2.33799">
        <ele>90.4</ele>
        <time>2023-12-27T14:12:47Z</time>
      </trkpt>
      <trkpt lat="49.95816" lon="2.33799">
        <ele>90.5</ele>
        <time>2023-12-27T14:12:48Z</time>
      </trkpt>
      <trkpt lat="49.95817" lon="2.33799">
        <ele>90.6</ele>
        <time>2023-12-27T14:12:49Z</time>
      </trkpt>
      <trkpt lat="49.95818" lon="2.33799">
        <ele>90.6</ele>
        <time>2023-12-27T14:12:50Z</time>
      </trkpt>
      <trkpt lat="49.95819" lon="2.33799">
        <ele>90.7</ele>
        <time>2023-12-27T14:12:52Z</time>
      </trkpt>
      <trkpt lat="49.95821" lon="2.33799">
        <ele>90.8</ele>
        <time>2023-12-27T14:12:53Z</time>
      </trkpt>
      <trkpt lat="49.95822" lon="2.33799">
        <ele>90.9</ele>
        <time>2023-12-27T14:12:54Z</time>
      </trkpt>
      <trkpt lat="49.95823" lon="2.33799">
        <ele>91</ele>
        <time>2023-12-27T14:12:55Z</time>
      </trkpt>
      <trkpt lat="49.95824" lon="2.33799">
        <ele>91</ele>
        <time>2023-12-27T14:12:57Z</time>
      </trkpt>
      <trkpt lat="49.95825" lon="2.33799">
        <ele>91.1</ele>
        <time>2023-12-27T14:12:58Z</time>
      </trkpt>
      <trkpt lat="49.95826" lon="2.338">
        <ele>91.2</ele>
        <time>2023-12-27T14:12:59Z</time>
      </trkpt>
      <trkpt lat="49.95827" lon="2.338">
        <ele>91.2</ele>
        <time>2023-12-27T14:13:00Z</time>
      </trkpt>
      <trkpt lat="49.95828" lon="2.338">
        <ele>91.3</ele>
        <time>2023-12-27T14:13:01Z</time>
      </trkpt>
      <trkpt lat="49.95829" lon="2.338">
        <ele>91.4</ele>
        <time>2023-12-27T14:13:02Z</time>
      </trkpt>
      <trkpt lat="49.9583" lon="2.338">
        <ele>91.5</ele>
        <time>2023-12-27T14:13:03Z</time>
      </trkpt>
      <trkpt lat="49.95832" lon="2.338">
        <ele>91.6</ele>
        <time>2023-12-27T14:13:05Z</time>
      </trkpt>
      <trkpt lat="49.95833" lon="2.338">
        <ele>91.6</ele>
        <time>2023-12-27T14:13:06Z</time>
      </trkpt>
      <trkpt lat="49.95834" lon="2.338">
        <ele>91.7</ele>
        <time>2023-12-27T14:13:07Z</time>
      </trkpt>
      <trkpt lat="49.95835" lon="2.338">
        <ele>91.8</ele>
        <time>2023-12-27T14:13:08Z</time>
      </trkpt>
      <trkpt lat="49.95836" lon="2.338">
        <ele>91.9</ele>
        <time>2023-12-27T14:13:09Z</time>
      </trkpt>
      <trkpt lat="49.95838" lon="2.338">
        <ele>92.1</ele>
        <time>2023-12-27T14:13:10Z</time>
      </trkpt>
      <trkpt lat="49.95839" lon="2.338">
        <ele>92.2</ele>
        <time>2023-12-27T14:13:12Z</time>
      </trkpt>
      <trkpt lat="49.9584" lon="2.338">
        <ele>92.2</ele>
        <time>2023-12-27T14:13:13Z</time>
      </trkpt>
      <trkpt lat="49.95841" lon="2.338">
        <ele>92.3</ele>
        <time>2023-12-27T14:13:14Z</time>
      </trkpt>
      <trkpt lat="49.95842" lon="2.338">
        <ele>92.4</ele>
        <time>2023-12-27T14:13:15Z</time>
      </trkpt>
      <trkpt lat="49.95843" lon="2.33801">
        <ele>92.5</ele>
        <time>2023-12-27T14:13:16Z</time>
      </trkpt>
      <trkpt lat="49.95844" lon="2.33801">
        <ele>92.6</ele>
        <time>2023-12-27T14:13:17Z</time>
      </trkpt>
      <trkpt lat="49.95845" lon="2.33801">
        <ele>92.7</ele>
        <time>2023-12-27T14:13:18Z</time>
      </trkpt>
      <trkpt lat="49.95847" lon="2.33801">
        <ele>92.9</ele>
        <time>2023-12-27T14:13:19Z</time>
      </trkpt>
      <trkpt lat="49.95849" lon="2.33801">
        <ele>93.1</ele>
        <time>2023-12-27T14:13:21Z</time>
      </trkpt>
      <trkpt lat="49.9585" lon="2.33801">
        <ele>93.2</ele>
        <time>2023-12-27T14:13:22Z</time>
      </trkpt>
      <trkpt lat="49.95851" lon="2.33801">
        <ele>93.3</ele>
        <time>2023-12-27T14:13:23Z</time>
      </trkpt>
      <trkpt lat="49.95852" lon="2.33801">
        <ele>93.4</ele>
        <time>2023-12-27T14:13:25Z</time>
      </trkpt>
      <trkpt lat="49.95853" lon="2.33801">
        <ele>93.5</ele>
        <time>2023-12-27T14:13:26Z</time>
      </trkpt>
      <trkpt lat="49.95854" lon="2.33801">
        <ele>93.5</ele>
        <time>2023-12-27T14:13:27Z</time>
      </trkpt>
      <trkpt lat="49.95855" lon="2.33801">
        <ele>93.7</ele>
        <time>2023-12-27T14:13:28Z</time>
      </trkpt>
      <trkpt lat="49.95856" lon="2.33801">
        <ele>93.7</ele>
        <time>2023-12-27T14:13:29Z</time>
      </trkpt>
      <trkpt lat="49.95857" lon="2.33802">
        <ele>93.9</ele>
        <time>2023-12-27T14:13:30Z</time>
      </trkpt>
      <trkpt lat="49.95858" lon="2.33803">
        <ele>94</ele>
        <time>2023-12-27T14:13:32Z</time>
      </trkpt>
      <trkpt lat="49.95859" lon="2.33803">
        <ele>94</ele>
        <time>2023-12-27T14:13:33Z</time>
      </trkpt>
      <trkpt lat="49.9586" lon="2.33803">
        <ele>94.1</ele>
        <time>2023-12-27T14:13:34Z</time>
      </trkpt>
      <trkpt lat="49.95861" lon="2.33804">
        <ele>94.2</ele>
        <time>2023-12-27T14:13:35Z</time>
      </trkpt>
      <trkpt lat="49.95862" lon="2.33804">
        <ele>94.3</ele>
        <time>2023-12-27T14:13:37Z</time>
      </trkpt>
      <trkpt lat="49.95863" lon="2.33804">
        <ele>94.4</ele>
        <time>2023-12-27T14:13:38Z</time>
      </trkpt>
      <trkpt lat="49.95864" lon="2.33805">
        <ele>94.5</ele>
        <time>2023-12-27T14:13:39Z</time>
      </trkpt>
      <trkpt lat="49.95865" lon="2.33805">
        <ele>94.6</ele>
        <time>2023-12-27T14:13:40Z</time>
      </trkpt>
      <trkpt lat="49.95866" lon="2.33805">
        <ele>94.7</ele>
        <time>2023-12-27T14:13:42Z</time>
      </trkpt>
      <trkpt lat="49.95868" lon="2.33806">
        <ele>94.9</ele>
        <time>2023-12-27T14:13:43Z</time>
      </trkpt>
      <trkpt lat="49.9587" lon="2.33806">
        <ele>95</ele>
        <time>2023-12-27T14:13:45Z</time>
      </trkpt>
      <trkpt lat="49.95871" lon="2.33806">
        <ele>95</ele>
        <time>2023-12-27T14:13:46Z</time>
      </trkpt>
      <trkpt lat="49.95872" lon="2.33806">
        <ele>95.1</ele>
        <time>2023-12-27T14:13:47Z</time>
      </trkpt>
      <trkpt lat="49.95873" lon="2.33807">
        <ele>95.2</ele>
        <time>2023-12-27T14:13:48Z</time>
      </trkpt>
      <trkpt lat="49.95874" lon="2.33807">
        <ele>95.3</ele>
        <time>2023-12-27T14:13:50Z</time>
      </trkpt>
      <trkpt lat="49.95875" lon="2.33807">
        <ele>95.4</ele>
        <time>2023-12-27T14:13:51Z</time>
      </trkpt>
      <trkpt lat="49.95876" lon="2.33807">
        <ele>95.4</ele>
        <time>2023-12-27T14:13:52Z</time>
      </trkpt>
      <trkpt lat="49.95877" lon="2.33808">
        <ele>95.5</ele>
        <time>2023-12-27T14:13:53Z</time>
      </trkpt>
      <trkpt lat="49.95878" lon="2.33808">
        <ele>95.6</ele>
        <time>2023-12-27T14:13:54Z</time>
      </trkpt>
      <trkpt lat="49.95879" lon="2.33808">
        <ele>95.7</ele>
        <time>2023-12-27T14:13:55Z</time>
      </trkpt>
      <trkpt lat="49.9588" lon="2.33808">
        <ele>95.8</ele>
        <time>2023-12-27T14:13:57Z</time>
      </trkpt>
      <trkpt lat="49.95881" lon="2.33808">
        <ele>95.9</ele>
        <time>2023-12-27T14:13:58Z</time>
      </trkpt>
      <trkpt lat="49.95882" lon="2.33809">
        <ele>95.9</ele>
        <time>2023-12-27T14:13:59Z</time>
      </trkpt>
      <trkpt lat="49.95883" lon="2.33809">
        <ele>96</ele>
        <time>2023-12-27T14:14:00Z</time>
      </trkpt>
      <trkpt lat="49.95884" lon="2.33808">
        <ele>96.1</ele>
        <time>2023-12-27T14:14:01Z</time>
      </trkpt>
      <trkpt lat="49.95885" lon="2.33808">
        <ele>96.2</ele>
        <time>2023-12-27T14:14:02Z</time>
      </trkpt>
      <trkpt lat="49.95887" lon="2.33808">
        <ele>96.3</ele>
        <time>2023-12-27T14:14:04Z</time>
      </trkpt>
      <trkpt lat="49.95888" lon="2.33808">
        <ele>96.4</ele>
        <time>2023-12-27T14:14:06Z</time>
      </trkpt>
      <trkpt lat="49.95889" lon="2.33808">
        <ele>96.5</ele>
        <time>2023-12-27T14:14:07Z</time>
      </trkpt>
      <trkpt lat="49.9589" lon="2.33807">
        <ele>96.6</ele>
        <time>2023-12-27T14:14:08Z</time>
      </trkpt>
      <trkpt lat="49.95891" lon="2.33807">
        <ele>96.6</ele>
        <time>2023-12-27T14:14:09Z</time>
      </trkpt>
      <trkpt lat="49.95892" lon="2.33807">
        <ele>96.7</ele>
        <time>2023-12-27T14:14:10Z</time>
      </trkpt>
      <trkpt lat="49.95893" lon="2.33807">
        <ele>96.8</ele>
        <time>2023-12-27T14:14:12Z</time>
      </trkpt>
      <trkpt lat="49.95895" lon="2.33807">
        <ele>96.9</ele>
        <time>2023-12-27T14:14:13Z</time>
      </trkpt>
      <trkpt lat="49.95896" lon="2.33807">
        <ele>97</ele>
        <time>2023-12-27T14:14:15Z</time>
      </trkpt>
      <trkpt lat="49.95897" lon="2.33806">
        <ele>97.1</ele>
        <time>2023-12-27T14:14:16Z</time>
      </trkpt>
      <trkpt lat="49.95898" lon="2.33807">
        <ele>97.2</ele>
        <time>2023-12-27T14:14:17Z</time>
      </trkpt>
      <trkpt lat="49.95899" lon="2.33807">
        <ele>97.3</ele>
        <time>2023-12-27T14:14:19Z</time>
      </trkpt>
      <trkpt lat="49.959" lon="2.33807">
        <ele>97.3</ele>
        <time>2023-12-27T14:14:20Z</time>
      </trkpt>
      <trkpt lat="49.95901" lon="2.33807">
        <ele>97.4</ele>
        <time>2023-12-27T14:14:21Z</time>
      </trkpt>
      <trkpt lat="49.95902" lon="2.33807">
        <ele>97.5</ele>
        <time>2023-12-27T14:14:22Z</time>
      </trkpt>
      <trkpt lat="49.95903" lon="2.33808">
        <ele>97.5</ele>
        <time>2023-12-27T14:14:23Z</time>
      </trkpt>
      <trkpt lat="49.95904" lon="2.33808">
        <ele>97.6</ele>
        <time>2023-12-27T14:14:24Z</time>
      </trkpt>
      <trkpt lat="49.95905" lon="2.33808">
        <ele>97.7</ele>
        <time>2023-12-27T14:14:26Z</time>
      </trkpt>
      <trkpt lat="49.95906" lon="2.33809">
        <ele>97.8</ele>
        <time>2023-12-27T14:14:27Z</time>
      </trkpt>
      <trkpt lat="49.95907" lon="2.33809">
        <ele>97.9</ele>
        <time>2023-12-27T14:14:28Z</time>
      </trkpt>
      <trkpt lat="49.95908" lon="2.33809">
        <ele>98</ele>
        <time>2023-12-27T14:14:29Z</time>
      </trkpt>
      <trkpt lat="49.95909" lon="2.33809">
        <ele>98.1</ele>
        <time>2023-12-27T14:14:30Z</time>
      </trkpt>
      <trkpt lat="49.9591" lon="2.33809">
        <ele>98.2</ele>
        <time>2023-12-27T14:14:32Z</time>
      </trkpt>
      <trkpt lat="49.95911" lon="2.3381">
        <ele>98.2</ele>
        <time>2023-12-27T14:14:33Z</time>
      </trkpt>
      <trkpt lat="49.95912" lon="2.3381">
        <ele>98.3</ele>
        <time>2023-12-27T14:14:34Z</time>
      </trkpt>
      <trkpt lat="49.95913" lon="2.3381">
        <ele>98.4</ele>
        <time>2023-12-27T14:14:35Z</time>
      </trkpt>
      <trkpt lat="49.95914" lon="2.3381">
        <ele>98.5</ele>
        <time>2023-12-27T14:14:36Z</time>
      </trkpt>
      <trkpt lat="49.95915" lon="2.3381">
        <ele>98.5</ele>
        <time>2023-12-27T14:14:37Z</time>
      </trkpt>
      <trkpt lat="49.95916" lon="2.3381">
        <ele>98.6</ele>
        <time>2023-12-27T14:14:38Z</time>
      </trkpt>
      <trkpt lat="49.95918" lon="2.3381">
        <ele>98.7</ele>
        <time>2023-12-27T14:14:40Z</time>
      </trkpt>
      <trkpt lat="49.95919" lon="2.3381">
        <ele>98.8</ele>
        <time>2023-12-27T14:14:41Z</time>
      </trkpt>
      <trkpt lat="49.9592" lon="2.3381">
        <ele>98.8</ele>
        <time>2023-12-27T14:14:42Z</time>
      </trkpt>
      <trkpt lat="49.95921" lon="2.33811">
        <ele>98.9</ele>
        <time>2023-12-27T14:14:43Z</time>
      </trkpt>
      <trkpt lat="49.95922" lon="2.33811">
        <ele>99</ele>
        <time>2023-12-27T14:14:44Z</time>
      </trkpt>
      <trkpt lat="49.95923" lon="2.33811">
        <ele>99</ele>
        <time>2023-12-27T14:14:46Z</time>
      </trkpt>
      <trkpt lat="49.95924" lon="2.33811">
        <ele>99.1</ele>
        <time>2023-12-27T14:14:47Z</time>
      </trkpt>
      <trkpt lat="49.95925" lon="2.33812">
        <ele>99.2</ele>
        <time>2023-12-27T14:14:48Z</time>
      </trkpt>
      <trkpt lat="49.95926" lon="2.33812">
        <ele>99.2</ele>
        <time>2023-12-27T14:14:49Z</time>
      </trkpt>
      <trkpt lat="49.95927" lon="2.33812">
        <ele>99.3</ele>
        <time>2023-12-27T14:14:50Z</time>
      </trkpt>
      <trkpt lat="49.95928" lon="2.33813">
        <ele>99.3</ele>
        <time>2023-12-27T14:14:51Z</time>
      </trkpt>
      <trkpt lat="49.95929" lon="2.33813">
        <ele>99.4</ele>
        <time>2023-12-27T14:14:53Z</time>
      </trkpt>
      <trkpt lat="49.9593" lon="2.33813">
        <ele>99.5</ele>
        <time>2023-12-27T14:14:54Z</time>
      </trkpt>
      <trkpt lat="49.95931" lon="2.33813">
        <ele>99.5</ele>
        <time>2023-12-27T14:14:55Z</time>
      </trkpt>
      <trkpt lat="49.95932" lon="2.33813">
        <ele>99.6</ele>
        <time>2023-12-27T14:14:56Z</time>
      </trkpt>
      <trkpt lat="49.95933" lon="2.33813">
        <ele>99.6</ele>
        <time>2023-12-27T14:14:57Z</time>
      </trkpt>
      <trkpt lat="49.95934" lon="2.33813">
        <ele>99.7</ele>
        <time>2023-12-27T14:14:59Z</time>
      </trkpt>
      <trkpt lat="49.95936" lon="2.33812">
        <ele>99.8</ele>
        <time>2023-12-27T14:15:00Z</time>
      </trkpt>
      <trkpt lat="49.95936" lon="2.33812">
        <ele>99.8</ele>
        <time>2023-12-27T14:15:01Z</time>
      </trkpt>
      <trkpt lat="49.95937" lon="2.33812">
        <ele>99.9</ele>
        <time>2023-12-27T14:15:02Z</time>
      </trkpt>
      <trkpt lat="49.95939" lon="2.33812">
        <ele>99.9</ele>
        <time>2023-12-27T14:15:03Z</time>
      </trkpt>
      <trkpt lat="49.9594" lon="2.33812">
        <ele>100</ele>
        <time>2023-12-27T14:15:04Z</time>
      </trkpt>
      <trkpt lat="49.95942" lon="2.33811">
        <ele>100.1</ele>
        <time>2023-12-27T14:15:06Z</time>
      </trkpt>
      <trkpt lat="49.95943" lon="2.33811">
        <ele>100.1</ele>
        <time>2023-12-27T14:15:07Z</time>
      </trkpt>
      <trkpt lat="49.95944" lon="2.3381">
        <ele>100.1</ele>
        <time>2023-12-27T14:15:08Z</time>
      </trkpt>
      <trkpt lat="49.95945" lon="2.3381">
        <ele>100.2</ele>
        <time>2023-12-27T14:15:10Z</time>
      </trkpt>
      <trkpt lat="49.95946" lon="2.3381">
        <ele>100.2</ele>
        <time>2023-12-27T14:15:11Z</time>
      </trkpt>
      <trkpt lat="49.95947" lon="2.33809">
        <ele>100.3</ele>
        <time>2023-12-27T14:15:12Z</time>
      </trkpt>
      <trkpt lat="49.95948" lon="2.33809">
        <ele>100.3</ele>
        <time>2023-12-27T14:15:14Z</time>
      </trkpt>
      <trkpt lat="49.95949" lon="2.33808">
        <ele>100.4</ele>
        <time>2023-12-27T14:15:15Z</time>
      </trkpt>
      <trkpt lat="49.9595" lon="2.33808">
        <ele>100.4</ele>
        <time>2023-12-27T14:15:16Z</time>
      </trkpt>
      <trkpt lat="49.95951" lon="2.33807">
        <ele>100.5</ele>
        <time>2023-12-27T14:15:17Z</time>
      </trkpt>
      <trkpt lat="49.95951" lon="2.33807">
        <ele>100.5</ele>
        <time>2023-12-27T14:15:18Z</time>
      </trkpt>
      <trkpt lat="49.95952" lon="2.33807">
        <ele>100.6</ele>
        <time>2023-12-27T14:15:19Z</time>
      </trkpt>
      <trkpt lat="49.95953" lon="2.33806">
        <ele>100.6</ele>
        <time>2023-12-27T14:15:21Z</time>
      </trkpt>
      <trkpt lat="49.95954" lon="2.33806">
        <ele>100.6</ele>
        <time>2023-12-27T14:15:22Z</time>
      </trkpt>
      <trkpt lat="49.95955" lon="2.33805">
        <ele>100.7</ele>
        <time>2023-12-27T14:15:23Z</time>
      </trkpt>
      <trkpt lat="49.95956" lon="2.33805">
        <ele>100.7</ele>
        <time>2023-12-27T14:15:24Z</time>
      </trkpt>
      <trkpt lat="49.95957" lon="2.33804">
        <ele>100.8</ele>
        <time>2023-12-27T14:15:25Z</time>
      </trkpt>
      <trkpt lat="49.95958" lon="2.33804">
        <ele>100.9</ele>
        <time>2023-12-27T14:15:26Z</time>
      </trkpt>
      <trkpt lat="49.95959" lon="2.33803">
        <ele>100.9</ele>
        <time>2023-12-27T14:15:28Z</time>
      </trkpt>
      <trkpt lat="49.9596" lon="2.33803">
        <ele>101</ele>
        <time>2023-12-27T14:15:29Z</time>
      </trkpt>
      <trkpt lat="49.95961" lon="2.33802">
        <ele>101</ele>
        <time>2023-12-27T14:15:30Z</time>
      </trkpt>
      <trkpt lat="49.95962" lon="2.33802">
        <ele>101.1</ele>
        <time>2023-12-27T14:15:31Z</time>
      </trkpt>
      <trkpt lat="49.95964" lon="2.33801">
        <ele>101.2</ele>
        <time>2023-12-27T14:15:32Z</time>
      </trkpt>
      <trkpt lat="49.95965" lon="2.338">
        <ele>101.2</ele>
        <time>2023-12-27T14:15:34Z</time>
      </trkpt>
      <trkpt lat="49.95966" lon="2.338">
        <ele>101.3</ele>
        <time>2023-12-27T14:15:35Z</time>
      </trkpt>
      <trkpt lat="49.95967" lon="2.33799">
        <ele>101.3</ele>
        <time>2023-12-27T14:15:36Z</time>
      </trkpt>
      <trkpt lat="49.95968" lon="2.33799">
        <ele>101.4</ele>
        <time>2023-12-27T14:15:37Z</time>
      </trkpt>
      <trkpt lat="49.9597" lon="2.33798">
        <ele>101.5</ele>
        <time>2023-12-27T14:15:38Z</time>
      </trkpt>
      <trkpt lat="49.95971" lon="2.33798">
        <ele>101.5</ele>
        <time>2023-12-27T14:15:39Z</time>
      </trkpt>
      <trkpt lat="49.95972" lon="2.33797">
        <ele>101.6</ele>
        <time>2023-12-27T14:15:41Z</time>
      </trkpt>
      <trkpt lat="49.95973" lon="2.33797">
        <ele>101.7</ele>
        <time>2023-12-27T14:15:42Z</time>
      </trkpt>
      <trkpt lat="49.95974" lon="2.33797">
        <ele>101.7</ele>
        <time>2023-12-27T14:15:43Z</time>
      </trkpt>
      <trkpt lat="49.95975" lon="2.33796">
        <ele>101.8</ele>
        <time>2023-12-27T14:15:44Z</time>
      </trkpt>
      <trkpt lat="49.95976" lon="2.33796">
        <ele>101.8</ele>
        <time>2023-12-27T14:15:46Z</time>
      </trkpt>
      <trkpt lat="49.95977" lon="2.33796">
        <ele>101.9</ele>
        <time>2023-12-27T14:15:47Z</time>
      </trkpt>
      <trkpt lat="49.95979" lon="2.33796">
        <ele>101.9</ele>
        <time>2023-12-27T14:15:48Z</time>
      </trkpt>
      <trkpt lat="49.9598" lon="2.33795">
        <ele>102</ele>
        <time>2023-12-27T14:15:50Z</time>
      </trkpt>
      <trkpt lat="49.9598" lon="2.33795">
        <ele>102.1</ele>
        <time>2023-12-27T14:15:51Z</time>
      </trkpt>
      <trkpt lat="49.95981" lon="2.33795">
        <ele>102.1</ele>
        <time>2023-12-27T14:15:52Z</time>
      </trkpt>
      <trkpt lat="49.95982" lon="2.33794">
        <ele>102.1</ele>
        <time>2023-12-27T14:15:53Z</time>
      </trkpt>
      <trkpt lat="49.95983" lon="2.33794">
        <ele>102.2</ele>
        <time>2023-12-27T14:15:54Z</time>
      </trkpt>
      <trkpt lat="49.95984" lon="2.33794">
        <ele>102.2</ele>
        <time>2023-12-27T14:15:55Z</time>
      </trkpt>
      <trkpt lat="49.95985" lon="2.33793">
        <ele>102.3</ele>
        <time>2023-12-27T14:15:56Z</time>
      </trkpt>
      <trkpt lat="49.95986" lon="2.33793">
        <ele>102.4</ele>
        <time>2023-12-27T14:15:58Z</time>
      </trkpt>
      <trkpt lat="49.95987" lon="2.33793">
        <ele>102.4</ele>
        <time>2023-12-27T14:15:59Z</time>
      </trkpt>
      <trkpt lat="49.95988" lon="2.33793">
        <ele>102.5</ele>
        <time>2023-12-27T14:16:00Z</time>
      </trkpt>
      <trkpt lat="49.9599" lon="2.33792">
        <ele>102.5</ele>
        <time>2023-12-27T14:16:01Z</time>
      </trkpt>
      <trkpt lat="49.95991" lon="2.33792">
        <ele>102.6</ele>
        <time>2023-12-27T14:16:02Z</time>
      </trkpt>
      <trkpt lat="49.95993" lon="2.33791">
        <ele>102.7</ele>
        <time>2023-12-27T14:16:04Z</time>
      </trkpt>
      <trkpt lat="49.95994" lon="2.33791">
        <ele>102.8</ele>
        <time>2023-12-27T14:16:05Z</time>
      </trkpt>
      <trkpt lat="49.95994" lon="2.3379">
        <ele>102.8</ele>
        <time>2023-12-27T14:16:06Z</time>
      </trkpt>
      <trkpt lat="49.95996" lon="2.3379">
        <ele>102.9</ele>
        <time>2023-12-27T14:16:07Z</time>
      </trkpt>
      <trkpt lat="49.95997" lon="2.3379">
        <ele>102.9</ele>
        <time>2023-12-27T14:16:09Z</time>
      </trkpt>
      <trkpt lat="49.95998" lon="2.33789">
        <ele>103</ele>
        <time>2023-12-27T14:16:10Z</time>
      </trkpt>
      <trkpt lat="49.95999" lon="2.33789">
        <ele>103</ele>
        <time>2023-12-27T14:16:11Z</time>
      </trkpt>
      <trkpt lat="49.96" lon="2.33788">
        <ele>103.1</ele>
        <time>2023-12-27T14:16:12Z</time>
      </trkpt>
      <trkpt lat="49.96001" lon="2.33788">
        <ele>103.1</ele>
        <time>2023-12-27T14:16:13Z</time>
      </trkpt>
      <trkpt lat="49.96003" lon="2.33787">
        <ele>103.2</ele>
        <time>2023-12-27T14:16:14Z</time>
      </trkpt>
      <trkpt lat="49.96003" lon="2.33787">
        <ele>103.2</ele>
        <time>2023-12-27T14:16:16Z</time>
      </trkpt>
      <trkpt lat="49.96004" lon="2.33786">
        <ele>103.3</ele>
        <time>2023-12-27T14:16:17Z</time>
      </trkpt>
      <trkpt lat="49.96006" lon="2.33785">
        <ele>103.4</ele>
        <time>2023-12-27T14:16:18Z</time>
      </trkpt>
      <trkpt lat="49.96007" lon="2.33785">
        <ele>103.4</ele>
        <time>2023-12-27T14:16:19Z</time>
      </trkpt>
      <trkpt lat="49.96008" lon="2.33785">
        <ele>103.5</ele>
        <time>2023-12-27T14:16:20Z</time>
      </trkpt>
      <trkpt lat="49.96009" lon="2.33784">
        <ele>103.5</ele>
        <time>2023-12-27T14:16:22Z</time>
      </trkpt>
      <trkpt lat="49.96011" lon="2.33783">
        <ele>103.6</ele>
        <time>2023-12-27T14:16:23Z</time>
      </trkpt>
      <trkpt lat="49.96012" lon="2.33783">
        <ele>103.6</ele>
        <time>2023-12-27T14:16:24Z</time>
      </trkpt>
      <trkpt lat="49.96013" lon="2.33782">
        <ele>103.7</ele>
        <time>2023-12-27T14:16:25Z</time>
      </trkpt>
      <trkpt lat="49.96014" lon="2.33782">
        <ele>103.7</ele>
        <time>2023-12-27T14:16:27Z</time>
      </trkpt>
      <trkpt lat="49.96015" lon="2.33781">
        <ele>103.8</ele>
        <time>2023-12-27T14:16:28Z</time>
      </trkpt>
      <trkpt lat="49.96016" lon="2.33781">
        <ele>103.8</ele>
        <time>2023-12-27T14:16:29Z</time>
      </trkpt>
      <trkpt lat="49.96017" lon="2.3378">
        <ele>103.8</ele>
        <time>2023-12-27T14:16:31Z</time>
      </trkpt>
      <trkpt lat="49.96018" lon="2.3378">
        <ele>103.9</ele>
        <time>2023-12-27T14:16:32Z</time>
      </trkpt>
      <trkpt lat="49.96019" lon="2.33779">
        <ele>103.9</ele>
        <time>2023-12-27T14:16:33Z</time>
      </trkpt>
      <trkpt lat="49.9602" lon="2.33779">
        <ele>103.9</ele>
        <time>2023-12-27T14:16:34Z</time>
      </trkpt>
      <trkpt lat="49.96021" lon="2.33778">
        <ele>104</ele>
        <time>2023-12-27T14:16:36Z</time>
      </trkpt>
      <trkpt lat="49.96023" lon="2.33778">
        <ele>104</ele>
        <time>2023-12-27T14:16:37Z</time>
      </trkpt>
      <trkpt lat="49.96023" lon="2.33778">
        <ele>104</ele>
        <time>2023-12-27T14:16:38Z</time>
      </trkpt>
      <trkpt lat="49.96024" lon="2.33777">
        <ele>104</ele>
        <time>2023-12-27T14:16:39Z</time>
      </trkpt>
      <trkpt lat="49.96025" lon="2.33777">
        <ele>104.1</ele>
        <time>2023-12-27T14:16:41Z</time>
      </trkpt>
      <trkpt lat="49.96026" lon="2.33777">
        <ele>104.1</ele>
        <time>2023-12-27T14:16:42Z</time>
      </trkpt>
      <trkpt lat="49.96027" lon="2.33776">
        <ele>104.1</ele>
        <time>2023-12-27T14:16:43Z</time>
      </trkpt>
      <trkpt lat="49.96028" lon="2.33776">
        <ele>104.1</ele>
        <time>2023-12-27T14:16:44Z</time>
      </trkpt>
      <trkpt lat="49.96028" lon="2.33776">
        <ele>104.2</ele>
        <time>2023-12-27T14:16:46Z</time>
      </trkpt>
      <trkpt lat="49.96029" lon="2.33776">
        <ele>104.2</ele>
        <time>2023-12-27T14:16:47Z</time>
      </trkpt>
      <trkpt lat="49.9603" lon="2.33776">
        <ele>104.2</ele>
        <time>2023-12-27T14:16:48Z</time>
      </trkpt>
      <trkpt lat="49.96031" lon="2.33775">
        <ele>104.2</ele>
        <time>2023-12-27T14:16:49Z</time>
      </trkpt>
      <trkpt lat="49.96032" lon="2.33775">
        <ele>104.3</ele>
        <time>2023-12-27T14:16:51Z</time>
      </trkpt>
      <trkpt lat="49.96033" lon="2.33775">
        <ele>104.3</ele>
        <time>2023-12-27T14:16:52Z</time>
      </trkpt>
      <trkpt lat="49.96034" lon="2.33775">
        <ele>104.3</ele>
        <time>2023-12-27T14:16:53Z</time>
      </trkpt>
      <trkpt lat="49.96035" lon="2.33774">
        <ele>104.4</ele>
        <time>2023-12-27T14:16:54Z</time>
      </trkpt>
      <trkpt lat="49.96036" lon="2.33774">
        <ele>104.4</ele>
        <time>2023-12-27T14:16:56Z</time>
      </trkpt>
      <trkpt lat="49.96037" lon="2.33774">
        <ele>104.4</ele>
        <time>2023-12-27T14:16:57Z</time>
      </trkpt>
      <trkpt lat="49.96038" lon="2.33773">
        <ele>104.5</ele>
        <time>2023-12-27T14:16:58Z</time>
      </trkpt>
      <trkpt lat="49.96039" lon="2.33773">
        <ele>104.5</ele>
        <time>2023-12-27T14:16:59Z</time>
      </trkpt>
      <trkpt lat="49.9604" lon="2.33773">
        <ele>104.5</ele>
        <time>2023-12-27T14:17:00Z</time>
      </trkpt>
      <trkpt lat="49.96041" lon="2.33772">
        <ele>104.6</ele>
        <time>2023-12-27T14:17:01Z</time>
      </trkpt>
      <trkpt lat="49.96042" lon="2.33772">
        <ele>104.6</ele>
        <time>2023-12-27T14:17:02Z</time>
      </trkpt>
      <trkpt lat="49.96043" lon="2.33771">
        <ele>104.7</ele>
        <time>2023-12-27T14:17:03Z</time>
      </trkpt>
      <trkpt lat="49.96046" lon="2.3377">
        <ele>104.8</ele>
        <time>2023-12-27T14:17:04Z</time>
      </trkpt>
      <trkpt lat="49.96046" lon="2.3377">
        <ele>104.8</ele>
        <time>2023-12-27T14:17:06Z</time>
      </trkpt>
      <trkpt lat="49.96047" lon="2.3377">
        <ele>104.8</ele>
        <time>2023-12-27T14:17:07Z</time>
      </trkpt>
      <trkpt lat="49.96049" lon="2.33769">
        <ele>104.9</ele>
        <time>2023-12-27T14:17:08Z</time>
      </trkpt>
      <trkpt lat="49.9605" lon="2.33769">
        <ele>105</ele>
        <time>2023-12-27T14:17:09Z</time>
      </trkpt>
      <trkpt lat="49.96051" lon="2.33769">
        <ele>105</ele>
        <time>2023-12-27T14:17:10Z</time>
      </trkpt>
      <trkpt lat="49.96053" lon="2.33768">
        <ele>105.1</ele>
        <time>2023-12-27T14:17:12Z</time>
      </trkpt>
      <trkpt lat="49.96054" lon="2.33768">
        <ele>105.2</ele>
        <time>2023-12-27T14:17:13Z</time>
      </trkpt>
      <trkpt lat="49.96055" lon="2.33767">
        <ele>105.2</ele>
        <time>2023-12-27T14:17:14Z</time>
      </trkpt>
      <trkpt lat="49.96056" lon="2.33767">
        <ele>105.3</ele>
        <time>2023-12-27T14:17:15Z</time>
      </trkpt>
      <trkpt lat="49.96058" lon="2.33766">
        <ele>105.3</ele>
        <time>2023-12-27T14:17:17Z</time>
      </trkpt>
      <trkpt lat="49.96059" lon="2.33766">
        <ele>105.4</ele>
        <time>2023-12-27T14:17:18Z</time>
      </trkpt>
      <trkpt lat="49.9606" lon="2.33765">
        <ele>105.5</ele>
        <time>2023-12-27T14:17:19Z</time>
      </trkpt>
      <trkpt lat="49.96063" lon="2.33765">
        <ele>105.6</ele>
        <time>2023-12-27T14:17:20Z</time>
      </trkpt>
      <trkpt lat="49.96063" lon="2.33765">
        <ele>105.6</ele>
        <time>2023-12-27T14:17:21Z</time>
      </trkpt>
      <trkpt lat="49.96064" lon="2.33764">
        <ele>105.6</ele>
        <time>2023-12-27T14:17:22Z</time>
      </trkpt>
      <trkpt lat="49.96066" lon="2.33764">
        <ele>105.7</ele>
        <time>2023-12-27T14:17:23Z</time>
      </trkpt>
      <trkpt lat="49.96067" lon="2.33763">
        <ele>105.8</ele>
        <time>2023-12-27T14:17:24Z</time>
      </trkpt>
      <trkpt lat="49.9607" lon="2.33763">
        <ele>105.9</ele>
        <time>2023-12-27T14:17:25Z</time>
      </trkpt>
      <trkpt lat="49.96071" lon="2.33762">
        <ele>105.9</ele>
        <time>2023-12-27T14:17:27Z</time>
      </trkpt>
      <trkpt lat="49.96072" lon="2.33762">
        <ele>105.9</ele>
        <time>2023-12-27T14:17:28Z</time>
      </trkpt>
      <trkpt lat="49.96073" lon="2.33761">
        <ele>106</ele>
        <time>2023-12-27T14:17:29Z</time>
      </trkpt>
      <trkpt lat="49.96074" lon="2.33761">
        <ele>106</ele>
        <time>2023-12-27T14:17:30Z</time>
      </trkpt>
      <trkpt lat="49.96076" lon="2.3376">
        <ele>106.1</ele>
        <time>2023-12-27T14:17:32Z</time>
      </trkpt>
      <trkpt lat="49.96078" lon="2.3376">
        <ele>106.2</ele>
        <time>2023-12-27T14:17:34Z</time>
      </trkpt>
      <trkpt lat="49.9608" lon="2.33759">
        <ele>106.2</ele>
        <time>2023-12-27T14:17:35Z</time>
      </trkpt>
      <trkpt lat="49.96081" lon="2.33759">
        <ele>106.3</ele>
        <time>2023-12-27T14:17:36Z</time>
      </trkpt>
      <trkpt lat="49.96082" lon="2.33759">
        <ele>106.3</ele>
        <time>2023-12-27T14:17:37Z</time>
      </trkpt>
      <trkpt lat="49.96083" lon="2.33758">
        <ele>106.4</ele>
        <time>2023-12-27T14:17:39Z</time>
      </trkpt>
      <trkpt lat="49.96084" lon="2.33758">
        <ele>106.4</ele>
        <time>2023-12-27T14:17:40Z</time>
      </trkpt>
      <trkpt lat="49.96085" lon="2.33758">
        <ele>106.4</ele>
        <time>2023-12-27T14:17:41Z</time>
      </trkpt>
      <trkpt lat="49.96086" lon="2.33757">
        <ele>106.5</ele>
        <time>2023-12-27T14:17:42Z</time>
      </trkpt>
      <trkpt lat="49.96087" lon="2.33757">
        <ele>106.5</ele>
        <time>2023-12-27T14:17:43Z</time>
      </trkpt>
      <trkpt lat="49.96088" lon="2.33757">
        <ele>106.6</ele>
        <time>2023-12-27T14:17:44Z</time>
      </trkpt>
      <trkpt lat="49.96089" lon="2.33756">
        <ele>106.6</ele>
        <time>2023-12-27T14:17:45Z</time>
      </trkpt>
      <trkpt lat="49.96091" lon="2.33756">
        <ele>106.6</ele>
        <time>2023-12-27T14:17:47Z</time>
      </trkpt>
      <trkpt lat="49.96091" lon="2.33756">
        <ele>106.7</ele>
        <time>2023-12-27T14:17:48Z</time>
      </trkpt>
      <trkpt lat="49.96092" lon="2.33756">
        <ele>106.7</ele>
        <time>2023-12-27T14:17:49Z</time>
      </trkpt>
      <trkpt lat="49.96093" lon="2.33756">
        <ele>106.8</ele>
        <time>2023-12-27T14:17:50Z</time>
      </trkpt>
      <trkpt lat="49.96095" lon="2.33756">
        <ele>106.8</ele>
        <time>2023-12-27T14:17:51Z</time>
      </trkpt>
      <trkpt lat="49.96097" lon="2.33755">
        <ele>106.9</ele>
        <time>2023-12-27T14:17:52Z</time>
      </trkpt>
      <trkpt lat="49.96097" lon="2.33755">
        <ele>106.9</ele>
        <time>2023-12-27T14:17:54Z</time>
      </trkpt>
      <trkpt lat="49.96098" lon="2.33755">
        <ele>106.9</ele>
        <time>2023-12-27T14:17:55Z</time>
      </trkpt>
      <trkpt lat="49.96099" lon="2.33755">
        <ele>107</ele>
        <time>2023-12-27T14:17:56Z</time>
      </trkpt>
      <trkpt lat="49.961" lon="2.33754">
        <ele>107</ele>
        <time>2023-12-27T14:17:57Z</time>
      </trkpt>
      <trkpt lat="49.96102" lon="2.33754">
        <ele>107.1</ele>
        <time>2023-12-27T14:17:59Z</time>
      </trkpt>
      <trkpt lat="49.96103" lon="2.33753">
        <ele>107.1</ele>
        <time>2023-12-27T14:18:00Z</time>
      </trkpt>
      <trkpt lat="49.96104" lon="2.33753">
        <ele>107.2</ele>
        <time>2023-12-27T14:18:01Z</time>
      </trkpt>
      <trkpt lat="49.96105" lon="2.33753">
        <ele>107.2</ele>
        <time>2023-12-27T14:18:02Z</time>
      </trkpt>
      <trkpt lat="49.96107" lon="2.33752">
        <ele>107.3</ele>
        <time>2023-12-27T14:18:03Z</time>
      </trkpt>
      <trkpt lat="49.96108" lon="2.33752">
        <ele>107.3</ele>
        <time>2023-12-27T14:18:05Z</time>
      </trkpt>
      <trkpt lat="49.96109" lon="2.33751">
        <ele>107.4</ele>
        <time>2023-12-27T14:18:06Z</time>
      </trkpt>
      <trkpt lat="49.9611" lon="2.33751">
        <ele>107.4</ele>
        <time>2023-12-27T14:18:07Z</time>
      </trkpt>
      <trkpt lat="49.96111" lon="2.3375">
        <ele>107.5</ele>
        <time>2023-12-27T14:18:08Z</time>
      </trkpt>
      <trkpt lat="49.96112" lon="2.3375">
        <ele>107.5</ele>
        <time>2023-12-27T14:18:09Z</time>
      </trkpt>
      <trkpt lat="49.96113" lon="2.3375">
        <ele>107.5</ele>
        <time>2023-12-27T14:18:11Z</time>
      </trkpt>
      <trkpt lat="49.96114" lon="2.33749">
        <ele>107.6</ele>
        <time>2023-12-27T14:18:12Z</time>
      </trkpt>
      <trkpt lat="49.96115" lon="2.33749">
        <ele>107.6</ele>
        <time>2023-12-27T14:18:13Z</time>
      </trkpt>
      <trkpt lat="49.96117" lon="2.33748">
        <ele>107.7</ele>
        <time>2023-12-27T14:18:14Z</time>
      </trkpt>
      <trkpt lat="49.96118" lon="2.33748">
        <ele>107.7</ele>
        <time>2023-12-27T14:18:16Z</time>
      </trkpt>
      <trkpt lat="49.96119" lon="2.33748">
        <ele>107.8</ele>
        <time>2023-12-27T14:18:17Z</time>
      </trkpt>
      <trkpt lat="49.96121" lon="2.33746">
        <ele>107.8</ele>
        <time>2023-12-27T14:18:18Z</time>
      </trkpt>
      <trkpt lat="49.96122" lon="2.33746">
        <ele>107.9</ele>
        <time>2023-12-27T14:18:19Z</time>
      </trkpt>
      <trkpt lat="49.96123" lon="2.33745">
        <ele>107.9</ele>
        <time>2023-12-27T14:18:20Z</time>
      </trkpt>
      <trkpt lat="49.96125" lon="2.33744">
        <ele>108</ele>
        <time>2023-12-27T14:18:22Z</time>
      </trkpt>
      <trkpt lat="49.96126" lon="2.33744">
        <ele>108</ele>
        <time>2023-12-27T14:18:23Z</time>
      </trkpt>
      <trkpt lat="49.96127" lon="2.33743">
        <ele>108.1</ele>
        <time>2023-12-27T14:18:24Z</time>
      </trkpt>
      <trkpt lat="49.96128" lon="2.33743">
        <ele>108.1</ele>
        <time>2023-12-27T14:18:25Z</time>
      </trkpt>
      <trkpt lat="49.9613" lon="2.33742">
        <ele>108.1</ele>
        <time>2023-12-27T14:18:26Z</time>
      </trkpt>
      <trkpt lat="49.96132" lon="2.33741">
        <ele>108.2</ele>
        <time>2023-12-27T14:18:28Z</time>
      </trkpt>
      <trkpt lat="49.96132" lon="2.33741">
        <ele>108.2</ele>
        <time>2023-12-27T14:18:29Z</time>
      </trkpt>
      <trkpt lat="49.96133" lon="2.33741">
        <ele>108.3</ele>
        <time>2023-12-27T14:18:30Z</time>
      </trkpt>
      <trkpt lat="49.96135" lon="2.3374">
        <ele>108.3</ele>
        <time>2023-12-27T14:18:31Z</time>
      </trkpt>
      <trkpt lat="49.96136" lon="2.3374">
        <ele>108.4</ele>
        <time>2023-12-27T14:18:33Z</time>
      </trkpt>
      <trkpt lat="49.96137" lon="2.33739">
        <ele>108.4</ele>
        <time>2023-12-27T14:18:34Z</time>
      </trkpt>
      <trkpt lat="49.96138" lon="2.33739">
        <ele>108.4</ele>
        <time>2023-12-27T14:18:35Z</time>
      </trkpt>
      <trkpt lat="49.96139" lon="2.33739">
        <ele>108.4</ele>
        <time>2023-12-27T14:18:36Z</time>
      </trkpt>
      <trkpt lat="49.9614" lon="2.33739">
        <ele>108.5</ele>
        <time>2023-12-27T14:18:37Z</time>
      </trkpt>
      <trkpt lat="49.96142" lon="2.33738">
        <ele>108.5</ele>
        <time>2023-12-27T14:18:38Z</time>
      </trkpt>
      <trkpt lat="49.96143" lon="2.33738">
        <ele>108.6</ele>
        <time>2023-12-27T14:18:39Z</time>
      </trkpt>
      <trkpt lat="49.96143" lon="2.33738">
        <ele>108.6</ele>
        <time>2023-12-27T14:18:40Z</time>
      </trkpt>
      <trkpt lat="49.96146" lon="2.33737">
        <ele>108.6</ele>
        <time>2023-12-27T14:18:42Z</time>
      </trkpt>
      <trkpt lat="49.96147" lon="2.33737">
        <ele>108.7</ele>
        <time>2023-12-27T14:18:43Z</time>
      </trkpt>
      <trkpt lat="49.96147" lon="2.33737">
        <ele>108.7</ele>
        <time>2023-12-27T14:18:44Z</time>
      </trkpt>
      <trkpt lat="49.9615" lon="2.33736">
        <ele>108.8</ele>
        <time>2023-12-27T14:18:45Z</time>
      </trkpt>
      <trkpt lat="49.96151" lon="2.33736">
        <ele>108.8</ele>
        <time>2023-12-27T14:18:47Z</time>
      </trkpt>
      <trkpt lat="49.96152" lon="2.33736">
        <ele>108.9</ele>
        <time>2023-12-27T14:18:48Z</time>
      </trkpt>
      <trkpt lat="49.96153" lon="2.33736">
        <ele>108.9</ele>
        <time>2023-12-27T14:18:49Z</time>
      </trkpt>
      <trkpt lat="49.96154" lon="2.33735">
        <ele>108.9</ele>
        <time>2023-12-27T14:18:50Z</time>
      </trkpt>
      <trkpt lat="49.96156" lon="2.33735">
        <ele>109</ele>
        <time>2023-12-27T14:18:51Z</time>
      </trkpt>
      <trkpt lat="49.96157" lon="2.33735">
        <ele>109.1</ele>
        <time>2023-12-27T14:18:52Z</time>
      </trkpt>
      <trkpt lat="49.96158" lon="2.33735">
        <ele>109.1</ele>
        <time>2023-12-27T14:18:53Z</time>
      </trkpt>
      <trkpt lat="49.96159" lon="2.33734">
        <ele>109.2</ele>
        <time>2023-12-27T14:18:55Z</time>
      </trkpt>
      <trkpt lat="49.96162" lon="2.33733">
        <ele>109.2</ele>
        <time>2023-12-27T14:18:56Z</time>
      </trkpt>
      <trkpt lat="49.96163" lon="2.33733">
        <ele>109.3</ele>
        <time>2023-12-27T14:18:58Z</time>
      </trkpt>
      <trkpt lat="49.96164" lon="2.33733">
        <ele>109.4</ele>
        <time>2023-12-27T14:18:59Z</time>
      </trkpt>
      <trkpt lat="49.96165" lon="2.33732">
        <ele>109.4</ele>
        <time>2023-12-27T14:19:00Z</time>
      </trkpt>
      <trkpt lat="49.96166" lon="2.33732">
        <ele>109.5</ele>
        <time>2023-12-27T14:19:01Z</time>
      </trkpt>
      <trkpt lat="49.96168" lon="2.33731">
        <ele>109.6</ele>
        <time>2023-12-27T14:19:03Z</time>
      </trkpt>
      <trkpt lat="49.96169" lon="2.33731">
        <ele>109.6</ele>
        <time>2023-12-27T14:19:05Z</time>
      </trkpt>
      <trkpt lat="49.9617" lon="2.3373">
        <ele>109.7</ele>
        <time>2023-12-27T14:19:06Z</time>
      </trkpt>
      <trkpt lat="49.96171" lon="2.33729">
        <ele>109.7</ele>
        <time>2023-12-27T14:19:07Z</time>
      </trkpt>
      <trkpt lat="49.96172" lon="2.33729">
        <ele>109.8</ele>
        <time>2023-12-27T14:19:08Z</time>
      </trkpt>
      <trkpt lat="49.96173" lon="2.33728">
        <ele>109.9</ele>
        <time>2023-12-27T14:19:09Z</time>
      </trkpt>
      <trkpt lat="49.96174" lon="2.33728">
        <ele>109.9</ele>
        <time>2023-12-27T14:19:11Z</time>
      </trkpt>
      <trkpt lat="49.96175" lon="2.33727">
        <ele>110</ele>
        <time>2023-12-27T14:19:12Z</time>
      </trkpt>
      <trkpt lat="49.96176" lon="2.33727">
        <ele>110</ele>
        <time>2023-12-27T14:19:13Z</time>
      </trkpt>
      <trkpt lat="49.96178" lon="2.33726">
        <ele>110.1</ele>
        <time>2023-12-27T14:19:14Z</time>
      </trkpt>
      <trkpt lat="49.96179" lon="2.33726">
        <ele>110.1</ele>
        <time>2023-12-27T14:19:16Z</time>
      </trkpt>
      <trkpt lat="49.9618" lon="2.33726">
        <ele>110.2</ele>
        <time>2023-12-27T14:19:17Z</time>
      </trkpt>
      <trkpt lat="49.96181" lon="2.33725">
        <ele>110.2</ele>
        <time>2023-12-27T14:19:18Z</time>
      </trkpt>
      <trkpt lat="49.96182" lon="2.33725">
        <ele>110.3</ele>
        <time>2023-12-27T14:19:19Z</time>
      </trkpt>
      <trkpt lat="49.96183" lon="2.33724">
        <ele>110.4</ele>
        <time>2023-12-27T14:19:20Z</time>
      </trkpt>
      <trkpt lat="49.96184" lon="2.33724">
        <ele>110.4</ele>
        <time>2023-12-27T14:19:21Z</time>
      </trkpt>
      <trkpt lat="49.96186" lon="2.33723">
        <ele>110.5</ele>
        <time>2023-12-27T14:19:22Z</time>
      </trkpt>
      <trkpt lat="49.96187" lon="2.33723">
        <ele>110.6</ele>
        <time>2023-12-27T14:19:24Z</time>
      </trkpt>
      <trkpt lat="49.96188" lon="2.33723">
        <ele>110.6</ele>
        <time>2023-12-27T14:19:25Z</time>
      </trkpt>
      <trkpt lat="49.96189" lon="2.33722">
        <ele>110.6</ele>
        <time>2023-12-27T14:19:26Z</time>
      </trkpt>
      <trkpt lat="49.96191" lon="2.33722">
        <ele>110.7</ele>
        <time>2023-12-27T14:19:27Z</time>
      </trkpt>
      <trkpt lat="49.96192" lon="2.33722">
        <ele>110.8</ele>
        <time>2023-12-27T14:19:29Z</time>
      </trkpt>
      <trkpt lat="49.96193" lon="2.33721">
        <ele>110.8</ele>
        <time>2023-12-27T14:19:30Z</time>
      </trkpt>
      <trkpt lat="49.96194" lon="2.33721">
        <ele>110.9</ele>
        <time>2023-12-27T14:19:31Z</time>
      </trkpt>
      <trkpt lat="49.96195" lon="2.33721">
        <ele>110.9</ele>
        <time>2023-12-27T14:19:32Z</time>
      </trkpt>
      <trkpt lat="49.96197" lon="2.3372">
        <ele>111</ele>
        <time>2023-12-27T14:19:33Z</time>
      </trkpt>
      <trkpt lat="49.96198" lon="2.3372">
        <ele>111</ele>
        <time>2023-12-27T14:19:34Z</time>
      </trkpt>
      <trkpt lat="49.96199" lon="2.33719">
        <ele>111.1</ele>
        <time>2023-12-27T14:19:35Z</time>
      </trkpt>
      <trkpt lat="49.962" lon="2.33719">
        <ele>111.1</ele>
        <time>2023-12-27T14:19:37Z</time>
      </trkpt>
      <trkpt lat="49.96202" lon="2.33719">
        <ele>111.1</ele>
        <time>2023-12-27T14:19:38Z</time>
      </trkpt>
      <trkpt lat="49.96203" lon="2.33718">
        <ele>111.2</ele>
        <time>2023-12-27T14:19:39Z</time>
      </trkpt>
      <trkpt lat="49.96204" lon="2.33718">
        <ele>111.2</ele>
        <time>2023-12-27T14:19:40Z</time>
      </trkpt>
      <trkpt lat="49.96205" lon="2.33717">
        <ele>111.3</ele>
        <time>2023-12-27T14:19:42Z</time>
      </trkpt>
      <trkpt lat="49.96206" lon="2.33717">
        <ele>111.3</ele>
        <time>2023-12-27T14:19:43Z</time>
      </trkpt>
      <trkpt lat="49.96207" lon="2.33716">
        <ele>111.4</ele>
        <time>2023-12-27T14:19:44Z</time>
      </trkpt>
      <trkpt lat="49.96208" lon="2.33715">
        <ele>111.4</ele>
        <time>2023-12-27T14:19:45Z</time>
      </trkpt>
      <trkpt lat="49.96209" lon="2.33715">
        <ele>111.4</ele>
        <time>2023-12-27T14:19:47Z</time>
      </trkpt>
      <trkpt lat="49.9621" lon="2.33714">
        <ele>111.5</ele>
        <time>2023-12-27T14:19:48Z</time>
      </trkpt>
      <trkpt lat="49.96211" lon="2.33714">
        <ele>111.5</ele>
        <time>2023-12-27T14:19:49Z</time>
      </trkpt>
      <trkpt lat="49.96212" lon="2.33713">
        <ele>111.5</ele>
        <time>2023-12-27T14:19:50Z</time>
      </trkpt>
      <trkpt lat="49.96213" lon="2.33713">
        <ele>111.5</ele>
        <time>2023-12-27T14:19:51Z</time>
      </trkpt>
      <trkpt lat="49.96214" lon="2.33712">
        <ele>111.6</ele>
        <time>2023-12-27T14:19:53Z</time>
      </trkpt>
      <trkpt lat="49.96215" lon="2.33712">
        <ele>111.6</ele>
        <time>2023-12-27T14:19:54Z</time>
      </trkpt>
      <trkpt lat="49.96216" lon="2.33712">
        <ele>111.6</ele>
        <time>2023-12-27T14:19:55Z</time>
      </trkpt>
      <trkpt lat="49.96218" lon="2.33712">
        <ele>111.7</ele>
        <time>2023-12-27T14:19:57Z</time>
      </trkpt>
      <trkpt lat="49.96219" lon="2.33711">
        <ele>111.7</ele>
        <time>2023-12-27T14:19:58Z</time>
      </trkpt>
      <trkpt lat="49.9622" lon="2.33711">
        <ele>111.7</ele>
        <time>2023-12-27T14:19:59Z</time>
      </trkpt>
      <trkpt lat="49.96221" lon="2.33711">
        <ele>111.7</ele>
        <time>2023-12-27T14:20:00Z</time>
      </trkpt>
      <trkpt lat="49.96222" lon="2.3371">
        <ele>111.8</ele>
        <time>2023-12-27T14:20:01Z</time>
      </trkpt>
      <trkpt lat="49.96223" lon="2.3371">
        <ele>111.8</ele>
        <time>2023-12-27T14:20:02Z</time>
      </trkpt>
      <trkpt lat="49.96224" lon="2.3371">
        <ele>111.8</ele>
        <time>2023-12-27T14:20:03Z</time>
      </trkpt>
      <trkpt lat="49.96226" lon="2.33709">
        <ele>111.9</ele>
        <time>2023-12-27T14:20:04Z</time>
      </trkpt>
      <trkpt lat="49.96227" lon="2.33709">
        <ele>111.9</ele>
        <time>2023-12-27T14:20:05Z</time>
      </trkpt>
      <trkpt lat="49.96228" lon="2.33708">
        <ele>111.9</ele>
        <time>2023-12-27T14:20:06Z</time>
      </trkpt>
      <trkpt lat="49.96229" lon="2.33708">
        <ele>111.9</ele>
        <time>2023-12-27T14:20:08Z</time>
      </trkpt>
      <trkpt lat="49.96231" lon="2.33707">
        <ele>112</ele>
        <time>2023-12-27T14:20:09Z</time>
      </trkpt>
      <trkpt lat="49.96232" lon="2.33707">
        <ele>112</ele>
        <time>2023-12-27T14:20:11Z</time>
      </trkpt>
      <trkpt lat="49.96233" lon="2.33707">
        <ele>112</ele>
        <time>2023-12-27T14:20:12Z</time>
      </trkpt>
      <trkpt lat="49.96234" lon="2.33706">
        <ele>112.1</ele>
        <time>2023-12-27T14:20:13Z</time>
      </trkpt>
      <trkpt lat="49.96235" lon="2.33706">
        <ele>112.1</ele>
        <time>2023-12-27T14:20:14Z</time>
      </trkpt>
      <trkpt lat="49.96236" lon="2.33705">
        <ele>112.1</ele>
        <time>2023-12-27T14:20:16Z</time>
      </trkpt>
      <trkpt lat="49.96237" lon="2.33704">
        <ele>112.1</ele>
        <time>2023-12-27T14:20:17Z</time>
      </trkpt>
      <trkpt lat="49.96239" lon="2.33704">
        <ele>112.2</ele>
        <time>2023-12-27T14:20:18Z</time>
      </trkpt>
      <trkpt lat="49.96239" lon="2.33703">
        <ele>112.2</ele>
        <time>2023-12-27T14:20:19Z</time>
      </trkpt>
      <trkpt lat="49.9624" lon="2.33703">
        <ele>112.2</ele>
        <time>2023-12-27T14:20:20Z</time>
      </trkpt>
      <trkpt lat="49.96241" lon="2.33703">
        <ele>112.2</ele>
        <time>2023-12-27T14:20:21Z</time>
      </trkpt>
      <trkpt lat="49.96242" lon="2.33703">
        <ele>112.3</ele>
        <time>2023-12-27T14:20:22Z</time>
      </trkpt>
      <trkpt lat="49.96243" lon="2.33702">
        <ele>112.3</ele>
        <time>2023-12-27T14:20:24Z</time>
      </trkpt>
      <trkpt lat="49.96244" lon="2.33702">
        <ele>112.3</ele>
        <time>2023-12-27T14:20:25Z</time>
      </trkpt>
      <trkpt lat="49.96244" lon="2.33702">
        <ele>112.3</ele>
        <time>2023-12-27T14:20:26Z</time>
      </trkpt>
      <trkpt lat="49.96246" lon="2.33701">
        <ele>112.4</ele>
        <time>2023-12-27T14:20:27Z</time>
      </trkpt>
      <trkpt lat="49.96247" lon="2.33701">
        <ele>112.4</ele>
        <time>2023-12-27T14:20:29Z</time>
      </trkpt>
      <trkpt lat="49.96249" lon="2.33701">
        <ele>112.4</ele>
        <time>2023-12-27T14:20:30Z</time>
      </trkpt>
      <trkpt lat="49.9625" lon="2.33701">
        <ele>112.5</ele>
        <time>2023-12-27T14:20:31Z</time>
      </trkpt>
      <trkpt lat="49.96251" lon="2.33701">
        <ele>112.5</ele>
        <time>2023-12-27T14:20:32Z</time>
      </trkpt>
      <trkpt lat="49.96252" lon="2.33701">
        <ele>112.5</ele>
        <time>2023-12-27T14:20:33Z</time>
      </trkpt>
      <trkpt lat="49.96254" lon="2.33701">
        <ele>112.5</ele>
        <time>2023-12-27T14:20:34Z</time>
      </trkpt>
      <trkpt lat="49.96255" lon="2.337">
        <ele>112.6</ele>
        <time>2023-12-27T14:20:35Z</time>
      </trkpt>
      <trkpt lat="49.96257" lon="2.337">
        <ele>112.6</ele>
        <time>2023-12-27T14:20:37Z</time>
      </trkpt>
      <trkpt lat="49.96258" lon="2.33699">
        <ele>112.7</ele>
        <time>2023-12-27T14:20:38Z</time>
      </trkpt>
      <trkpt lat="49.9626" lon="2.33699">
        <ele>112.7</ele>
        <time>2023-12-27T14:20:39Z</time>
      </trkpt>
      <trkpt lat="49.96261" lon="2.33698">
        <ele>112.7</ele>
        <time>2023-12-27T14:20:40Z</time>
      </trkpt>
      <trkpt lat="49.96262" lon="2.33697">
        <ele>112.8</ele>
        <time>2023-12-27T14:20:41Z</time>
      </trkpt>
      <trkpt lat="49.96264" lon="2.33696">
        <ele>112.8</ele>
        <time>2023-12-27T14:20:43Z</time>
      </trkpt>
      <trkpt lat="49.96265" lon="2.33696">
        <ele>112.8</ele>
        <time>2023-12-27T14:20:44Z</time>
      </trkpt>
      <trkpt lat="49.96266" lon="2.33696">
        <ele>112.9</ele>
        <time>2023-12-27T14:20:45Z</time>
      </trkpt>
      <trkpt lat="49.96267" lon="2.33695">
        <ele>112.9</ele>
        <time>2023-12-27T14:20:46Z</time>
      </trkpt>
      <trkpt lat="49.96268" lon="2.33695">
        <ele>112.9</ele>
        <time>2023-12-27T14:20:47Z</time>
      </trkpt>
      <trkpt lat="49.96271" lon="2.33693">
        <ele>113</ele>
        <time>2023-12-27T14:20:49Z</time>
      </trkpt>
      <trkpt lat="49.96272" lon="2.33693">
        <ele>113.1</ele>
        <time>2023-12-27T14:20:51Z</time>
      </trkpt>
      <trkpt lat="49.96274" lon="2.33692">
        <ele>113.1</ele>
        <time>2023-12-27T14:20:52Z</time>
      </trkpt>
      <trkpt lat="49.96275" lon="2.33691">
        <ele>113.1</ele>
        <time>2023-12-27T14:20:53Z</time>
      </trkpt>
      <trkpt lat="49.96277" lon="2.3369">
        <ele>113.2</ele>
        <time>2023-12-27T14:20:54Z</time>
      </trkpt>
      <trkpt lat="49.96278" lon="2.3369">
        <ele>113.2</ele>
        <time>2023-12-27T14:20:55Z</time>
      </trkpt>
      <trkpt lat="49.9628" lon="2.33688">
        <ele>113.3</ele>
        <time>2023-12-27T14:20:57Z</time>
      </trkpt>
      <trkpt lat="49.96281" lon="2.33688">
        <ele>113.3</ele>
        <time>2023-12-27T14:20:58Z</time>
      </trkpt>
      <trkpt lat="49.96282" lon="2.33688">
        <ele>113.3</ele>
        <time>2023-12-27T14:20:59Z</time>
      </trkpt>
      <trkpt lat="49.96284" lon="2.33687">
        <ele>113.4</ele>
        <time>2023-12-27T14:21:00Z</time>
      </trkpt>
      <trkpt lat="49.96285" lon="2.33687">
        <ele>113.4</ele>
        <time>2023-12-27T14:21:02Z</time>
      </trkpt>
      <trkpt lat="49.96287" lon="2.33686">
        <ele>113.5</ele>
        <time>2023-12-27T14:21:03Z</time>
      </trkpt>
      <trkpt lat="49.96288" lon="2.33686">
        <ele>113.5</ele>
        <time>2023-12-27T14:21:04Z</time>
      </trkpt>
      <trkpt lat="49.96289" lon="2.33685">
        <ele>113.5</ele>
        <time>2023-12-27T14:21:05Z</time>
      </trkpt>
      <trkpt lat="49.96291" lon="2.33685">
        <ele>113.6</ele>
        <time>2023-12-27T14:21:07Z</time>
      </trkpt>
      <trkpt lat="49.96292" lon="2.33684">
        <ele>113.6</ele>
        <time>2023-12-27T14:21:08Z</time>
      </trkpt>
      <trkpt lat="49.96293" lon="2.33684">
        <ele>113.6</ele>
        <time>2023-12-27T14:21:09Z</time>
      </trkpt>
      <trkpt lat="49.96295" lon="2.33683">
        <ele>113.7</ele>
        <time>2023-12-27T14:21:10Z</time>
      </trkpt>
      <trkpt lat="49.96296" lon="2.33683">
        <ele>113.7</ele>
        <time>2023-12-27T14:21:11Z</time>
      </trkpt>
      <trkpt lat="49.96297" lon="2.33682">
        <ele>113.8</ele>
        <time>2023-12-27T14:21:12Z</time>
      </trkpt>
      <trkpt lat="49.96299" lon="2.33682">
        <ele>113.8</ele>
        <time>2023-12-27T14:21:13Z</time>
      </trkpt>
      <trkpt lat="49.963" lon="2.33681">
        <ele>113.8</ele>
        <time>2023-12-27T14:21:15Z</time>
      </trkpt>
      <trkpt lat="49.96301" lon="2.33681">
        <ele>113.9</ele>
        <time>2023-12-27T14:21:16Z</time>
      </trkpt>
      <trkpt lat="49.96302" lon="2.3368">
        <ele>113.9</ele>
        <time>2023-12-27T14:21:17Z</time>
      </trkpt>
      <trkpt lat="49.96303" lon="2.3368">
        <ele>113.9</ele>
        <time>2023-12-27T14:21:18Z</time>
      </trkpt>
      <trkpt lat="49.96304" lon="2.3368">
        <ele>114</ele>
        <time>2023-12-27T14:21:19Z</time>
      </trkpt>
      <trkpt lat="49.96306" lon="2.33679">
        <ele>114</ele>
        <time>2023-12-27T14:21:21Z</time>
      </trkpt>
      <trkpt lat="49.96307" lon="2.33678">
        <ele>114</ele>
        <time>2023-12-27T14:21:22Z</time>
      </trkpt>
      <trkpt lat="49.96308" lon="2.33678">
        <ele>114.1</ele>
        <time>2023-12-27T14:21:23Z</time>
      </trkpt>
      <trkpt lat="49.96309" lon="2.33677">
        <ele>114.1</ele>
        <time>2023-12-27T14:21:24Z</time>
      </trkpt>
      <trkpt lat="49.9631" lon="2.33676">
        <ele>114.1</ele>
        <time>2023-12-27T14:21:25Z</time>
      </trkpt>
      <trkpt lat="49.96312" lon="2.33676">
        <ele>114.1</ele>
        <time>2023-12-27T14:21:26Z</time>
      </trkpt>
      <trkpt lat="49.96313" lon="2.33675">
        <ele>114.2</ele>
        <time>2023-12-27T14:21:27Z</time>
      </trkpt>
      <trkpt lat="49.96315" lon="2.33674">
        <ele>114.2</ele>
        <time>2023-12-27T14:21:29Z</time>
      </trkpt>
      <trkpt lat="49.96316" lon="2.33674">
        <ele>114.2</ele>
        <time>2023-12-27T14:21:30Z</time>
      </trkpt>
      <trkpt lat="49.96317" lon="2.33674">
        <ele>114.3</ele>
        <time>2023-12-27T14:21:31Z</time>
      </trkpt>
      <trkpt lat="49.96318" lon="2.33673">
        <ele>114.3</ele>
        <time>2023-12-27T14:21:32Z</time>
      </trkpt>
      <trkpt lat="49.96319" lon="2.33673">
        <ele>114.3</ele>
        <time>2023-12-27T14:21:33Z</time>
      </trkpt>
      <trkpt lat="49.9632" lon="2.33673">
        <ele>114.3</ele>
        <time>2023-12-27T14:21:34Z</time>
      </trkpt>
      <trkpt lat="49.96321" lon="2.33672">
        <ele>114.4</ele>
        <time>2023-12-27T14:21:35Z</time>
      </trkpt>
      <trkpt lat="49.96322" lon="2.33672">
        <ele>114.4</ele>
        <time>2023-12-27T14:21:36Z</time>
      </trkpt>
      <trkpt lat="49.96323" lon="2.33672">
        <ele>114.4</ele>
        <time>2023-12-27T14:21:37Z</time>
      </trkpt>
      <trkpt lat="49.96324" lon="2.33672">
        <ele>114.4</ele>
        <time>2023-12-27T14:21:39Z</time>
      </trkpt>
      <trkpt lat="49.96325" lon="2.33672">
        <ele>114.4</ele>
        <time>2023-12-27T14:21:40Z</time>
      </trkpt>
      <trkpt lat="49.96326" lon="2.33672">
        <ele>114.5</ele>
        <time>2023-12-27T14:21:41Z</time>
      </trkpt>
      <trkpt lat="49.96327" lon="2.33673">
        <ele>114.5</ele>
        <time>2023-12-27T14:21:42Z</time>
      </trkpt>
      <trkpt lat="49.96329" lon="2.33672">
        <ele>114.5</ele>
        <time>2023-12-27T14:21:43Z</time>
      </trkpt>
      <trkpt lat="49.96329" lon="2.33672">
        <ele>114.5</ele>
        <time>2023-12-27T14:21:45Z</time>
      </trkpt>
      <trkpt lat="49.9633" lon="2.33672">
        <ele>114.6</ele>
        <time>2023-12-27T14:21:46Z</time>
      </trkpt>
      <trkpt lat="49.96331" lon="2.33672">
        <ele>114.6</ele>
        <time>2023-12-27T14:21:47Z</time>
      </trkpt>
      <trkpt lat="49.96332" lon="2.33671">
        <ele>114.6</ele>
        <time>2023-12-27T14:21:48Z</time>
      </trkpt>
      <trkpt lat="49.96333" lon="2.33671">
        <ele>114.6</ele>
        <time>2023-12-27T14:21:49Z</time>
      </trkpt>
      <trkpt lat="49.96334" lon="2.33671">
        <ele>114.7</ele>
        <time>2023-12-27T14:21:50Z</time>
      </trkpt>
      <trkpt lat="49.96336" lon="2.33671">
        <ele>114.7</ele>
        <time>2023-12-27T14:21:51Z</time>
      </trkpt>
      <trkpt lat="49.96337" lon="2.3367">
        <ele>114.7</ele>
        <time>2023-12-27T14:21:53Z</time>
      </trkpt>
      <trkpt lat="49.96338" lon="2.3367">
        <ele>114.7</ele>
        <time>2023-12-27T14:21:54Z</time>
      </trkpt>
      <trkpt lat="49.96339" lon="2.3367">
        <ele>114.7</ele>
        <time>2023-12-27T14:21:55Z</time>
      </trkpt>
      <trkpt lat="49.9634" lon="2.3367">
        <ele>114.7</ele>
        <time>2023-12-27T14:21:56Z</time>
      </trkpt>
      <trkpt lat="49.96341" lon="2.33669">
        <ele>114.8</ele>
        <time>2023-12-27T14:21:57Z</time>
      </trkpt>
      <trkpt lat="49.96342" lon="2.33668">
        <ele>114.8</ele>
        <time>2023-12-27T14:21:59Z</time>
      </trkpt>
      <trkpt lat="49.96343" lon="2.33668">
        <ele>114.8</ele>
        <time>2023-12-27T14:22:00Z</time>
      </trkpt>
      <trkpt lat="49.96344" lon="2.33668">
        <ele>114.8</ele>
        <time>2023-12-27T14:22:01Z</time>
      </trkpt>
      <trkpt lat="49.96345" lon="2.33667">
        <ele>114.8</ele>
        <time>2023-12-27T14:22:02Z</time>
      </trkpt>
      <trkpt lat="49.96346" lon="2.33666">
        <ele>114.8</ele>
        <time>2023-12-27T14:22:03Z</time>
      </trkpt>
      <trkpt lat="49.96347" lon="2.33666">
        <ele>114.9</ele>
        <time>2023-12-27T14:22:04Z</time>
      </trkpt>
      <trkpt lat="49.96348" lon="2.33665">
        <ele>114.9</ele>
        <time>2023-12-27T14:22:05Z</time>
      </trkpt>
      <trkpt lat="49.96349" lon="2.33665">
        <ele>114.9</ele>
        <time>2023-12-27T14:22:07Z</time>
      </trkpt>
      <trkpt lat="49.9635" lon="2.33664">
        <ele>114.9</ele>
        <time>2023-12-27T14:22:08Z</time>
      </trkpt>
      <trkpt lat="49.96351" lon="2.33664">
        <ele>114.9</ele>
        <time>2023-12-27T14:22:09Z</time>
      </trkpt>
      <trkpt lat="49.96352" lon="2.33663">
        <ele>114.9</ele>
        <time>2023-12-27T14:22:10Z</time>
      </trkpt>
      <trkpt lat="49.96355" lon="2.33662">
        <ele>114.9</ele>
        <time>2023-12-27T14:22:11Z</time>
      </trkpt>
      <trkpt lat="49.96356" lon="2.33662">
        <ele>115</ele>
        <time>2023-12-27T14:22:13Z</time>
      </trkpt>
      <trkpt lat="49.96357" lon="2.33662">
        <ele>115</ele>
        <time>2023-12-27T14:22:14Z</time>
      </trkpt>
      <trkpt lat="49.96358" lon="2.33661">
        <ele>115</ele>
        <time>2023-12-27T14:22:15Z</time>
      </trkpt>
      <trkpt lat="49.96359" lon="2.33661">
        <ele>115</ele>
        <time>2023-12-27T14:22:16Z</time>
      </trkpt>
      <trkpt lat="49.9636" lon="2.3366">
        <ele>115</ele>
        <time>2023-12-27T14:22:18Z</time>
      </trkpt>
      <trkpt lat="49.96361" lon="2.3366">
        <ele>115</ele>
        <time>2023-12-27T14:22:19Z</time>
      </trkpt>
      <trkpt lat="49.96362" lon="2.3366">
        <ele>115</ele>
        <time>2023-12-27T14:22:20Z</time>
      </trkpt>
      <trkpt lat="49.96363" lon="2.3366">
        <ele>115</ele>
        <time>2023-12-27T14:22:21Z</time>
      </trkpt>
      <trkpt lat="49.96365" lon="2.33659">
        <ele>115</ele>
        <time>2023-12-27T14:22:22Z</time>
      </trkpt>
      <trkpt lat="49.96366" lon="2.33659">
        <ele>115.1</ele>
        <time>2023-12-27T14:22:24Z</time>
      </trkpt>
      <trkpt lat="49.96368" lon="2.33658">
        <ele>115.1</ele>
        <time>2023-12-27T14:22:25Z</time>
      </trkpt>
      <trkpt lat="49.96369" lon="2.33658">
        <ele>115.1</ele>
        <time>2023-12-27T14:22:26Z</time>
      </trkpt>
      <trkpt lat="49.9637" lon="2.33658">
        <ele>115.1</ele>
        <time>2023-12-27T14:22:27Z</time>
      </trkpt>
      <trkpt lat="49.96371" lon="2.33657">
        <ele>115.1</ele>
        <time>2023-12-27T14:22:29Z</time>
      </trkpt>
      <trkpt lat="49.96373" lon="2.33656">
        <ele>115.1</ele>
        <time>2023-12-27T14:22:30Z</time>
      </trkpt>
      <trkpt lat="49.96374" lon="2.33656">
        <ele>115.1</ele>
        <time>2023-12-27T14:22:31Z</time>
      </trkpt>
      <trkpt lat="49.96375" lon="2.33655">
        <ele>115.2</ele>
        <time>2023-12-27T14:22:32Z</time>
      </trkpt>
      <trkpt lat="49.96376" lon="2.33655">
        <ele>115.2</ele>
        <time>2023-12-27T14:22:34Z</time>
      </trkpt>
      <trkpt lat="49.96377" lon="2.33655">
        <ele>115.2</ele>
        <time>2023-12-27T14:22:35Z</time>
      </trkpt>
      <trkpt lat="49.96378" lon="2.33654">
        <ele>115.2</ele>
        <time>2023-12-27T14:22:36Z</time>
      </trkpt>
      <trkpt lat="49.96379" lon="2.33653">
        <ele>115.2</ele>
        <time>2023-12-27T14:22:37Z</time>
      </trkpt>
      <trkpt lat="49.9638" lon="2.33653">
        <ele>115.2</ele>
        <time>2023-12-27T14:22:38Z</time>
      </trkpt>
      <trkpt lat="49.96381" lon="2.33653">
        <ele>115.3</ele>
        <time>2023-12-27T14:22:40Z</time>
      </trkpt>
      <trkpt lat="49.96383" lon="2.33653">
        <ele>115.3</ele>
        <time>2023-12-27T14:22:41Z</time>
      </trkpt>
      <trkpt lat="49.96384" lon="2.33652">
        <ele>115.3</ele>
        <time>2023-12-27T14:22:43Z</time>
      </trkpt>
      <trkpt lat="49.96385" lon="2.33652">
        <ele>115.3</ele>
        <time>2023-12-27T14:22:44Z</time>
      </trkpt>
      <trkpt lat="49.96386" lon="2.33652">
        <ele>115.3</ele>
        <time>2023-12-27T14:22:45Z</time>
      </trkpt>
      <trkpt lat="49.96388" lon="2.33651">
        <ele>115.3</ele>
        <time>2023-12-27T14:22:47Z</time>
      </trkpt>
      <trkpt lat="49.96389" lon="2.3365">
        <ele>115.3</ele>
        <time>2023-12-27T14:22:48Z</time>
      </trkpt>
      <trkpt lat="49.9639" lon="2.3365">
        <ele>115.4</ele>
        <time>2023-12-27T14:22:49Z</time>
      </trkpt>
      <trkpt lat="49.96391" lon="2.33649">
        <ele>115.4</ele>
        <time>2023-12-27T14:22:50Z</time>
      </trkpt>
      <trkpt lat="49.96392" lon="2.33649">
        <ele>115.4</ele>
        <time>2023-12-27T14:22:51Z</time>
      </trkpt>
      <trkpt lat="49.96395" lon="2.33648">
        <ele>115.4</ele>
        <time>2023-12-27T14:22:53Z</time>
      </trkpt>
      <trkpt lat="49.96396" lon="2.33648">
        <ele>115.4</ele>
        <time>2023-12-27T14:22:55Z</time>
      </trkpt>
      <trkpt lat="49.96397" lon="2.33648">
        <ele>115.5</ele>
        <time>2023-12-27T14:22:56Z</time>
      </trkpt>
      <trkpt lat="49.96398" lon="2.33649">
        <ele>115.5</ele>
        <time>2023-12-27T14:22:57Z</time>
      </trkpt>
      <trkpt lat="49.96399" lon="2.33649">
        <ele>115.5</ele>
        <time>2023-12-27T14:22:58Z</time>
      </trkpt>
      <trkpt lat="49.964" lon="2.33649">
        <ele>115.5</ele>
        <time>2023-12-27T14:23:00Z</time>
      </trkpt>
      <trkpt lat="49.96401" lon="2.33649">
        <ele>115.5</ele>
        <time>2023-12-27T14:23:01Z</time>
      </trkpt>
      <trkpt lat="49.96402" lon="2.33649">
        <ele>115.5</ele>
        <time>2023-12-27T14:23:02Z</time>
      </trkpt>
      <trkpt lat="49.96403" lon="2.33649">
        <ele>115.6</ele>
        <time>2023-12-27T14:23:03Z</time>
      </trkpt>
      <trkpt lat="49.96404" lon="2.33648">
        <ele>115.6</ele>
        <time>2023-12-27T14:23:04Z</time>
      </trkpt>
      <trkpt lat="49.96405" lon="2.33648">
        <ele>115.6</ele>
        <time>2023-12-27T14:23:05Z</time>
      </trkpt>
      <trkpt lat="49.96406" lon="2.33647">
        <ele>115.6</ele>
        <time>2023-12-27T14:23:06Z</time>
      </trkpt>
      <trkpt lat="49.96407" lon="2.33647">
        <ele>115.6</ele>
        <time>2023-12-27T14:23:07Z</time>
      </trkpt>
      <trkpt lat="49.96408" lon="2.33646">
        <ele>115.7</ele>
        <time>2023-12-27T14:23:09Z</time>
      </trkpt>
      <trkpt lat="49.96409" lon="2.33645">
        <ele>115.7</ele>
        <time>2023-12-27T14:23:10Z</time>
      </trkpt>
      <trkpt lat="49.96409" lon="2.33645">
        <ele>115.7</ele>
        <time>2023-12-27T14:23:11Z</time>
      </trkpt>
      <trkpt lat="49.9641" lon="2.33645">
        <ele>115.7</ele>
        <time>2023-12-27T14:23:12Z</time>
      </trkpt>
      <trkpt lat="49.96411" lon="2.33645">
        <ele>115.7</ele>
        <time>2023-12-27T14:23:13Z</time>
      </trkpt>
      <trkpt lat="49.96412" lon="2.33644">
        <ele>115.7</ele>
        <time>2023-12-27T14:23:14Z</time>
      </trkpt>
      <trkpt lat="49.96412" lon="2.33644">
        <ele>115.8</ele>
        <time>2023-12-27T14:23:15Z</time>
      </trkpt>
      <trkpt lat="49.96413" lon="2.33643">
        <ele>115.8</ele>
        <time>2023-12-27T14:23:16Z</time>
      </trkpt>
      <trkpt lat="49.96414" lon="2.33642">
        <ele>115.8</ele>
        <time>2023-12-27T14:23:18Z</time>
      </trkpt>
      <trkpt lat="49.96414" lon="2.3364">
        <ele>115.8</ele>
        <time>2023-12-27T14:23:19Z</time>
      </trkpt>
      <trkpt lat="49.96415" lon="2.3364">
        <ele>115.8</ele>
        <time>2023-12-27T14:23:20Z</time>
      </trkpt>
      <trkpt lat="49.96416" lon="2.33639">
        <ele>115.8</ele>
        <time>2023-12-27T14:23:21Z</time>
      </trkpt>
      <trkpt lat="49.96416" lon="2.33639">
        <ele>115.8</ele>
        <time>2023-12-27T14:23:22Z</time>
      </trkpt>
      <trkpt lat="49.96416" lon="2.3364">
        <ele>115.8</ele>
        <time>2023-12-27T14:23:23Z</time>
      </trkpt>
      <trkpt lat="49.96416" lon="2.33641">
        <ele>115.8</ele>
        <time>2023-12-27T14:23:24Z</time>
      </trkpt>
      <trkpt lat="49.96416" lon="2.33642">
        <ele>115.8</ele>
        <time>2023-12-27T14:23:26Z</time>
      </trkpt>
      <trkpt lat="49.96416" lon="2.33643">
        <ele>115.8</ele>
        <time>2023-12-27T14:23:27Z</time>
      </trkpt>
      <trkpt lat="49.96416" lon="2.33643">
        <ele>115.8</ele>
        <time>2023-12-27T14:23:28Z</time>
      </trkpt>
      <trkpt lat="49.96416" lon="2.33644">
        <ele>115.8</ele>
        <time>2023-12-27T14:23:29Z</time>
      </trkpt>
      <trkpt lat="49.96416" lon="2.33645">
        <ele>115.9</ele>
        <time>2023-12-27T14:23:31Z</time>
      </trkpt>
      <trkpt lat="49.96416" lon="2.33646">
        <ele>115.9</ele>
        <time>2023-12-27T14:23:33Z</time>
      </trkpt>
      <trkpt lat="49.96416" lon="2.33647">
        <ele>115.9</ele>
        <time>2023-12-27T14:23:34Z</time>
      </trkpt>
      <trkpt lat="49.96416" lon="2.33647">
        <ele>115.9</ele>
        <time>2023-12-27T14:23:36Z</time>
      </trkpt>
      <trkpt lat="49.96416" lon="2.33648">
        <ele>115.9</ele>
        <time>2023-12-27T14:23:37Z</time>
      </trkpt>
      <trkpt lat="49.96416" lon="2.33649">
        <ele>115.9</ele>
        <time>2023-12-27T14:23:38Z</time>
      </trkpt>
      <trkpt lat="49.96416" lon="2.3365">
        <ele>115.9</ele>
        <time>2023-12-27T14:23:40Z</time>
      </trkpt>
      <trkpt lat="49.96416" lon="2.33651">
        <ele>115.9</ele>
        <time>2023-12-27T14:23:41Z</time>
      </trkpt>
      <trkpt lat="49.96416" lon="2.33651">
        <ele>115.9</ele>
        <time>2023-12-27T14:23:43Z</time>
      </trkpt>
      <trkpt lat="49.96415" lon="2.33652">
        <ele>115.9</ele>
        <time>2023-12-27T14:25:32Z</time>
      </trkpt>
      <trkpt lat="49.96415" lon="2.33653">
        <ele>115.9</ele>
        <time>2023-12-27T14:25:33Z</time>
      </trkpt>
      <trkpt lat="49.96415" lon="2.33654">
        <ele>115.9</ele>
        <time>2023-12-27T14:25:34Z</time>
      </trkpt>
      <trkpt lat="49.96415" lon="2.33655">
        <ele>115.9</ele>
        <time>2023-12-27T14:25:36Z</time>
      </trkpt>
      <trkpt lat="49.96415" lon="2.33655">
        <ele>115.9</ele>
        <time>2023-12-27T14:25:37Z</time>
      </trkpt>
      <trkpt lat="49.96415" lon="2.33656">
        <ele>115.9</ele>
        <time>2023-12-27T14:25:38Z</time>
      </trkpt>
      <trkpt lat="49.96415" lon="2.33657">
        <ele>115.9</ele>
        <time>2023-12-27T14:25:39Z</time>
      </trkpt>
      <trkpt lat="49.96417" lon="2.3366">
        <ele>116</ele>
        <time>2023-12-27T14:25:40Z</time>
      </trkpt>
      <trkpt lat="49.96418" lon="2.33661">
        <ele>116</ele>
        <time>2023-12-27T14:25:42Z</time>
      </trkpt>
      <trkpt lat="49.96419" lon="2.33662">
        <ele>116</ele>
        <time>2023-12-27T14:25:43Z</time>
      </trkpt>
      <trkpt lat="49.96419" lon="2.33663">
        <ele>116</ele>
        <time>2023-12-27T14:25:44Z</time>
      </trkpt>
      <trkpt lat="49.9642" lon="2.33664">
        <ele>116</ele>
        <time>2023-12-27T14:25:45Z</time>
      </trkpt>
      <trkpt lat="49.96421" lon="2.33666">
        <ele>116</ele>
        <time>2023-12-27T14:25:46Z</time>
      </trkpt>
      <trkpt lat="49.96422" lon="2.33667">
        <ele>116</ele>
        <time>2023-12-27T14:25:48Z</time>
      </trkpt>
      <trkpt lat="49.96423" lon="2.33668">
        <ele>116</ele>
        <time>2023-12-27T14:25:49Z</time>
      </trkpt>
      <trkpt lat="49.96424" lon="2.33669">
        <ele>116</ele>
        <time>2023-12-27T14:25:50Z</time>
      </trkpt>
      <trkpt lat="49.96424" lon="2.3367">
        <ele>116</ele>
        <time>2023-12-27T14:25:51Z</time>
      </trkpt>
      <trkpt lat="49.96425" lon="2.33672">
        <ele>116.1</ele>
        <time>2023-12-27T14:25:52Z</time>
      </trkpt>
      <trkpt lat="49.96425" lon="2.33673">
        <ele>116.1</ele>
        <time>2023-12-27T14:25:53Z</time>
      </trkpt>
      <trkpt lat="49.96426" lon="2.33674">
        <ele>116.1</ele>
        <time>2023-12-27T14:25:54Z</time>
      </trkpt>
      <trkpt lat="49.96427" lon="2.33675">
        <ele>116.1</ele>
        <time>2023-12-27T14:25:56Z</time>
      </trkpt>
      <trkpt lat="49.96427" lon="2.33676">
        <ele>116.1</ele>
        <time>2023-12-27T14:25:57Z</time>
      </trkpt>
      <trkpt lat="49.96428" lon="2.33677">
        <ele>116.1</ele>
        <time>2023-12-27T14:25:58Z</time>
      </trkpt>
      <trkpt lat="49.96428" lon="2.33678">
        <ele>116.1</ele>
        <time>2023-12-27T14:25:59Z</time>
      </trkpt>
      <trkpt lat="49.96428" lon="2.33679">
        <ele>116.1</ele>
        <time>2023-12-27T14:26:00Z</time>
      </trkpt>
      <trkpt lat="49.96429" lon="2.3368">
        <ele>116.1</ele>
        <time>2023-12-27T14:26:02Z</time>
      </trkpt>
      <trkpt lat="49.9643" lon="2.33682">
        <ele>116.1</ele>
        <time>2023-12-27T14:26:03Z</time>
      </trkpt>
      <trkpt lat="49.9643" lon="2.33684">
        <ele>116.1</ele>
        <time>2023-12-27T14:26:04Z</time>
      </trkpt>
      <trkpt lat="49.96431" lon="2.33685">
        <ele>116.1</ele>
        <time>2023-12-27T14:26:05Z</time>
      </trkpt>
      <trkpt lat="49.96431" lon="2.33686">
        <ele>116.1</ele>
        <time>2023-12-27T14:26:06Z</time>
      </trkpt>
      <trkpt lat="49.96431" lon="2.33687">
        <ele>116.1</ele>
        <time>2023-12-27T14:26:07Z</time>
      </trkpt>
      <trkpt lat="49.96432" lon="2.33688">
        <ele>116.1</ele>
        <time>2023-12-27T14:26:08Z</time>
      </trkpt>
      <trkpt lat="49.96433" lon="2.33689">
        <ele>116.1</ele>
        <time>2023-12-27T14:26:09Z</time>
      </trkpt>
      <trkpt lat="49.96433" lon="2.33691">
        <ele>116.1</ele>
        <time>2023-12-27T14:26:11Z</time>
      </trkpt>
      <trkpt lat="49.96434" lon="2.33693">
        <ele>116.1</ele>
        <time>2023-12-27T14:26:12Z</time>
      </trkpt>
      <trkpt lat="49.96434" lon="2.33694">
        <ele>116.1</ele>
        <time>2023-12-27T14:26:13Z</time>
      </trkpt>
      <trkpt lat="49.96435" lon="2.33696">
        <ele>116.1</ele>
        <time>2023-12-27T14:26:14Z</time>
      </trkpt>
      <trkpt lat="49.96435" lon="2.33697">
        <ele>116.1</ele>
        <time>2023-12-27T14:26:15Z</time>
      </trkpt>
      <trkpt lat="49.96436" lon="2.33699">
        <ele>116.1</ele>
        <time>2023-12-27T14:26:17Z</time>
      </trkpt>
      <trkpt lat="49.96436" lon="2.33701">
        <ele>116</ele>
        <time>2023-12-27T14:26:18Z</time>
      </trkpt>
      <trkpt lat="49.96436" lon="2.33702">
        <ele>116</ele>
        <time>2023-12-27T14:26:19Z</time>
      </trkpt>
      <trkpt lat="49.96437" lon="2.33704">
        <ele>116</ele>
        <time>2023-12-27T14:26:20Z</time>
      </trkpt>
      <trkpt lat="49.96437" lon="2.33706">
        <ele>116</ele>
        <time>2023-12-27T14:26:21Z</time>
      </trkpt>
      <trkpt lat="49.96438" lon="2.33709">
        <ele>116</ele>
        <time>2023-12-27T14:26:22Z</time>
      </trkpt>
      <trkpt lat="49.96438" lon="2.3371">
        <ele>116</ele>
        <time>2023-12-27T14:26:24Z</time>
      </trkpt>
      <trkpt lat="49.96439" lon="2.33711">
        <ele>116</ele>
        <time>2023-12-27T14:26:25Z</time>
      </trkpt>
      <trkpt lat="49.96439" lon="2.33712">
        <ele>116</ele>
        <time>2023-12-27T14:26:26Z</time>
      </trkpt>
      <trkpt lat="49.9644" lon="2.33714">
        <ele>116</ele>
        <time>2023-12-27T14:26:27Z</time>
      </trkpt>
      <trkpt lat="49.96441" lon="2.33716">
        <ele>116</ele>
        <time>2023-12-27T14:26:28Z</time>
      </trkpt>
      <trkpt lat="49.96441" lon="2.33717">
        <ele>116</ele>
        <time>2023-12-27T14:26:29Z</time>
      </trkpt>
      <trkpt lat="49.96442" lon="2.33719">
        <ele>116</ele>
        <time>2023-12-27T14:26:30Z</time>
      </trkpt>
      <trkpt lat="49.96442" lon="2.33721">
        <ele>116</ele>
        <time>2023-12-27T14:26:32Z</time>
      </trkpt>
      <trkpt lat="49.96443" lon="2.33722">
        <ele>116</ele>
        <time>2023-12-27T14:26:33Z</time>
      </trkpt>
      <trkpt lat="49.96443" lon="2.33724">
        <ele>116</ele>
        <time>2023-12-27T14:26:34Z</time>
      </trkpt>
      <trkpt lat="49.96444" lon="2.33725">
        <ele>115.9</ele>
        <time>2023-12-27T14:26:35Z</time>
      </trkpt>
      <trkpt lat="49.96445" lon="2.33727">
        <ele>115.9</ele>
        <time>2023-12-27T14:26:36Z</time>
      </trkpt>
      <trkpt lat="49.96445" lon="2.33728">
        <ele>115.9</ele>
        <time>2023-12-27T14:26:37Z</time>
      </trkpt>
      <trkpt lat="49.96446" lon="2.3373">
        <ele>115.9</ele>
        <time>2023-12-27T14:26:38Z</time>
      </trkpt>
      <trkpt lat="49.96447" lon="2.33733">
        <ele>115.9</ele>
        <time>2023-12-27T14:26:40Z</time>
      </trkpt>
      <trkpt lat="49.96447" lon="2.33734">
        <ele>115.9</ele>
        <time>2023-12-27T14:26:41Z</time>
      </trkpt>
      <trkpt lat="49.96448" lon="2.33736">
        <ele>115.9</ele>
        <time>2023-12-27T14:26:42Z</time>
      </trkpt>
      <trkpt lat="49.96449" lon="2.33738">
        <ele>115.9</ele>
        <time>2023-12-27T14:26:43Z</time>
      </trkpt>
      <trkpt lat="49.9645" lon="2.33739">
        <ele>115.9</ele>
        <time>2023-12-27T14:26:44Z</time>
      </trkpt>
      <trkpt lat="49.9645" lon="2.33741">
        <ele>115.8</ele>
        <time>2023-12-27T14:26:45Z</time>
      </trkpt>
      <trkpt lat="49.96451" lon="2.33743">
        <ele>115.8</ele>
        <time>2023-12-27T14:26:47Z</time>
      </trkpt>
      <trkpt lat="49.96452" lon="2.33744">
        <ele>115.8</ele>
        <time>2023-12-27T14:26:48Z</time>
      </trkpt>
      <trkpt lat="49.96452" lon="2.33746">
        <ele>115.8</ele>
        <time>2023-12-27T14:26:49Z</time>
      </trkpt>
      <trkpt lat="49.96453" lon="2.33748">
        <ele>115.8</ele>
        <time>2023-12-27T14:26:50Z</time>
      </trkpt>
      <trkpt lat="49.96453" lon="2.3375">
        <ele>115.8</ele>
        <time>2023-12-27T14:26:51Z</time>
      </trkpt>
      <trkpt lat="49.96454" lon="2.33752">
        <ele>115.8</ele>
        <time>2023-12-27T14:26:53Z</time>
      </trkpt>
      <trkpt lat="49.96455" lon="2.33754">
        <ele>115.8</ele>
        <time>2023-12-27T14:26:54Z</time>
      </trkpt>
      <trkpt lat="49.96456" lon="2.33755">
        <ele>115.8</ele>
        <time>2023-12-27T14:26:55Z</time>
      </trkpt>
      <trkpt lat="49.96457" lon="2.33756">
        <ele>115.7</ele>
        <time>2023-12-27T14:26:56Z</time>
      </trkpt>
      <trkpt lat="49.96457" lon="2.33758">
        <ele>115.7</ele>
        <time>2023-12-27T14:26:57Z</time>
      </trkpt>
      <trkpt lat="49.96459" lon="2.3376">
        <ele>115.7</ele>
        <time>2023-12-27T14:26:58Z</time>
      </trkpt>
      <trkpt lat="49.96459" lon="2.33761">
        <ele>115.7</ele>
        <time>2023-12-27T14:26:59Z</time>
      </trkpt>
      <trkpt lat="49.9646" lon="2.33762">
        <ele>115.7</ele>
        <time>2023-12-27T14:27:00Z</time>
      </trkpt>
      <trkpt lat="49.96461" lon="2.33763">
        <ele>115.7</ele>
        <time>2023-12-27T14:27:01Z</time>
      </trkpt>
      <trkpt lat="49.96461" lon="2.33765">
        <ele>115.7</ele>
        <time>2023-12-27T14:27:02Z</time>
      </trkpt>
      <trkpt lat="49.96462" lon="2.33767">
        <ele>115.7</ele>
        <time>2023-12-27T14:27:04Z</time>
      </trkpt>
      <trkpt lat="49.96463" lon="2.3377">
        <ele>115.6</ele>
        <time>2023-12-27T14:27:05Z</time>
      </trkpt>
      <trkpt lat="49.96463" lon="2.33771">
        <ele>115.6</ele>
        <time>2023-12-27T14:27:06Z</time>
      </trkpt>
      <trkpt lat="49.96464" lon="2.33772">
        <ele>115.6</ele>
        <time>2023-12-27T14:27:07Z</time>
      </trkpt>
      <trkpt lat="49.96464" lon="2.33774">
        <ele>115.6</ele>
        <time>2023-12-27T14:27:08Z</time>
      </trkpt>
      <trkpt lat="49.96465" lon="2.33775">
        <ele>115.6</ele>
        <time>2023-12-27T14:27:09Z</time>
      </trkpt>
      <trkpt lat="49.96465" lon="2.33777">
        <ele>115.6</ele>
        <time>2023-12-27T14:27:10Z</time>
      </trkpt>
      <trkpt lat="49.96466" lon="2.33779">
        <ele>115.6</ele>
        <time>2023-12-27T14:27:11Z</time>
      </trkpt>
      <trkpt lat="49.96466" lon="2.3378">
        <ele>115.6</ele>
        <time>2023-12-27T14:27:12Z</time>
      </trkpt>
      <trkpt lat="49.96467" lon="2.33782">
        <ele>115.6</ele>
        <time>2023-12-27T14:27:14Z</time>
      </trkpt>
      <trkpt lat="49.96468" lon="2.33784">
        <ele>115.5</ele>
        <time>2023-12-27T14:27:15Z</time>
      </trkpt>
      <trkpt lat="49.96468" lon="2.33786">
        <ele>115.5</ele>
        <time>2023-12-27T14:27:16Z</time>
      </trkpt>
      <trkpt lat="49.96468" lon="2.33787">
        <ele>115.5</ele>
        <time>2023-12-27T14:27:17Z</time>
      </trkpt>
      <trkpt lat="49.96468" lon="2.33789">
        <ele>115.5</ele>
        <time>2023-12-27T14:27:18Z</time>
      </trkpt>
      <trkpt lat="49.96468" lon="2.33791">
        <ele>115.5</ele>
        <time>2023-12-27T14:27:19Z</time>
      </trkpt>
      <trkpt lat="49.96469" lon="2.33793">
        <ele>115.5</ele>
        <time>2023-12-27T14:27:20Z</time>
      </trkpt>
      <trkpt lat="49.96469" lon="2.33794">
        <ele>115.5</ele>
        <time>2023-12-27T14:27:21Z</time>
      </trkpt>
      <trkpt lat="49.9647" lon="2.33796">
        <ele>115.5</ele>
        <time>2023-12-27T14:27:22Z</time>
      </trkpt>
      <trkpt lat="49.96471" lon="2.33798">
        <ele>115.4</ele>
        <time>2023-12-27T14:27:24Z</time>
      </trkpt>
      <trkpt lat="49.96472" lon="2.33799">
        <ele>115.4</ele>
        <time>2023-12-27T14:27:25Z</time>
      </trkpt>
      <trkpt lat="49.96472" lon="2.338">
        <ele>115.4</ele>
        <time>2023-12-27T14:27:26Z</time>
      </trkpt>
      <trkpt lat="49.96474" lon="2.33802">
        <ele>115.4</ele>
        <time>2023-12-27T14:27:28Z</time>
      </trkpt>
      <trkpt lat="49.96475" lon="2.33801">
        <ele>115.4</ele>
        <time>2023-12-27T14:27:29Z</time>
      </trkpt>
      <trkpt lat="49.96476" lon="2.338">
        <ele>115.4</ele>
        <time>2023-12-27T14:27:30Z</time>
      </trkpt>
      <trkpt lat="49.96476" lon="2.33801">
        <ele>115.4</ele>
        <time>2023-12-27T14:27:31Z</time>
      </trkpt>
      <trkpt lat="49.96477" lon="2.33802">
        <ele>115.4</ele>
        <time>2023-12-27T14:27:32Z</time>
      </trkpt>
      <trkpt lat="49.96478" lon="2.33803">
        <ele>115.4</ele>
        <time>2023-12-27T14:27:34Z</time>
      </trkpt>
      <trkpt lat="49.96478" lon="2.33805">
        <ele>115.4</ele>
        <time>2023-12-27T14:27:35Z</time>
      </trkpt>
      <trkpt lat="49.96478" lon="2.33807">
        <ele>115.4</ele>
        <time>2023-12-27T14:27:36Z</time>
      </trkpt>
      <trkpt lat="49.96479" lon="2.33808">
        <ele>115.4</ele>
        <time>2023-12-27T14:27:37Z</time>
      </trkpt>
      <trkpt lat="49.96479" lon="2.3381">
        <ele>115.4</ele>
        <time>2023-12-27T14:27:38Z</time>
      </trkpt>
      <trkpt lat="49.9648" lon="2.33814">
        <ele>115.4</ele>
        <time>2023-12-27T14:27:39Z</time>
      </trkpt>
      <trkpt lat="49.96481" lon="2.33815">
        <ele>115.4</ele>
        <time>2023-12-27T14:27:41Z</time>
      </trkpt>
      <trkpt lat="49.96481" lon="2.33817">
        <ele>115.4</ele>
        <time>2023-12-27T14:27:42Z</time>
      </trkpt>
      <trkpt lat="49.96482" lon="2.33818">
        <ele>115.4</ele>
        <time>2023-12-27T14:27:43Z</time>
      </trkpt>
      <trkpt lat="49.96482" lon="2.3382">
        <ele>115.4</ele>
        <time>2023-12-27T14:27:44Z</time>
      </trkpt>
      <trkpt lat="49.96483" lon="2.33823">
        <ele>115.3</ele>
        <time>2023-12-27T14:27:45Z</time>
      </trkpt>
      <trkpt lat="49.96484" lon="2.33825">
        <ele>115.3</ele>
        <time>2023-12-27T14:27:47Z</time>
      </trkpt>
      <trkpt lat="49.96484" lon="2.33826">
        <ele>115.3</ele>
        <time>2023-12-27T14:27:48Z</time>
      </trkpt>
      <trkpt lat="49.96485" lon="2.33828">
        <ele>115.3</ele>
        <time>2023-12-27T14:27:49Z</time>
      </trkpt>
      <trkpt lat="49.96485" lon="2.33829">
        <ele>115.3</ele>
        <time>2023-12-27T14:27:50Z</time>
      </trkpt>
      <trkpt lat="49.96486" lon="2.33831">
        <ele>115.3</ele>
        <time>2023-12-27T14:27:51Z</time>
      </trkpt>
      <trkpt lat="49.96487" lon="2.33833">
        <ele>115.3</ele>
        <time>2023-12-27T14:27:52Z</time>
      </trkpt>
      <trkpt lat="49.96488" lon="2.33835">
        <ele>115.3</ele>
        <time>2023-12-27T14:27:54Z</time>
      </trkpt>
      <trkpt lat="49.96488" lon="2.33837">
        <ele>115.3</ele>
        <time>2023-12-27T14:27:55Z</time>
      </trkpt>
      <trkpt lat="49.96489" lon="2.33839">
        <ele>115.3</ele>
        <time>2023-12-27T14:27:56Z</time>
      </trkpt>
      <trkpt lat="49.96489" lon="2.3384">
        <ele>115.3</ele>
        <time>2023-12-27T14:27:57Z</time>
      </trkpt>
      <trkpt lat="49.9649" lon="2.33842">
        <ele>115.3</ele>
        <time>2023-12-27T14:27:58Z</time>
      </trkpt>
      <trkpt lat="49.96491" lon="2.33844">
        <ele>115.3</ele>
        <time>2023-12-27T14:27:59Z</time>
      </trkpt>
      <trkpt lat="49.96491" lon="2.33846">
        <ele>115.3</ele>
        <time>2023-12-27T14:28:00Z</time>
      </trkpt>
      <trkpt lat="49.96491" lon="2.33847">
        <ele>115.3</ele>
        <time>2023-12-27T14:28:01Z</time>
      </trkpt>
      <trkpt lat="49.96492" lon="2.33849">
        <ele>115.3</ele>
        <time>2023-12-27T14:28:02Z</time>
      </trkpt>
      <trkpt lat="49.96492" lon="2.3385">
        <ele>115.3</ele>
        <time>2023-12-27T14:28:03Z</time>
      </trkpt>
      <trkpt lat="49.96493" lon="2.33852">
        <ele>115.3</ele>
        <time>2023-12-27T14:28:05Z</time>
      </trkpt>
      <trkpt lat="49.96494" lon="2.33853">
        <ele>115.3</ele>
        <time>2023-12-27T14:28:06Z</time>
      </trkpt>
      <trkpt lat="49.96494" lon="2.33855">
        <ele>115.3</ele>
        <time>2023-12-27T14:28:07Z</time>
      </trkpt>
      <trkpt lat="49.96495" lon="2.33856">
        <ele>115.3</ele>
        <time>2023-12-27T14:28:08Z</time>
      </trkpt>
      <trkpt lat="49.96496" lon="2.33858">
        <ele>115.3</ele>
        <time>2023-12-27T14:28:09Z</time>
      </trkpt>
      <trkpt lat="49.96496" lon="2.33859">
        <ele>115.3</ele>
        <time>2023-12-27T14:28:10Z</time>
      </trkpt>
      <trkpt lat="49.96497" lon="2.33861">
        <ele>115.3</ele>
        <time>2023-12-27T14:28:11Z</time>
      </trkpt>
      <trkpt lat="49.96498" lon="2.33863">
        <ele>115.3</ele>
        <time>2023-12-27T14:28:12Z</time>
      </trkpt>
      <trkpt lat="49.96499" lon="2.33864">
        <ele>115.3</ele>
        <time>2023-12-27T14:28:13Z</time>
      </trkpt>
      <trkpt lat="49.96499" lon="2.33865">
        <ele>115.3</ele>
        <time>2023-12-27T14:28:14Z</time>
      </trkpt>
      <trkpt lat="49.965" lon="2.33868">
        <ele>115.3</ele>
        <time>2023-12-27T14:28:16Z</time>
      </trkpt>
      <trkpt lat="49.965" lon="2.3387">
        <ele>115.3</ele>
        <time>2023-12-27T14:28:17Z</time>
      </trkpt>
      <trkpt lat="49.96501" lon="2.33871">
        <ele>115.3</ele>
        <time>2023-12-27T14:28:18Z</time>
      </trkpt>
      <trkpt lat="49.96502" lon="2.33874">
        <ele>115.3</ele>
        <time>2023-12-27T14:28:19Z</time>
      </trkpt>
      <trkpt lat="49.96502" lon="2.33875">
        <ele>115.3</ele>
        <time>2023-12-27T14:28:20Z</time>
      </trkpt>
      <trkpt lat="49.96503" lon="2.33876">
        <ele>115.3</ele>
        <time>2023-12-27T14:28:21Z</time>
      </trkpt>
      <trkpt lat="49.96504" lon="2.33878">
        <ele>115.3</ele>
        <time>2023-12-27T14:28:23Z</time>
      </trkpt>
      <trkpt lat="49.96504" lon="2.3388">
        <ele>115.3</ele>
        <time>2023-12-27T14:28:24Z</time>
      </trkpt>
      <trkpt lat="49.96505" lon="2.33882">
        <ele>115.3</ele>
        <time>2023-12-27T14:28:25Z</time>
      </trkpt>
      <trkpt lat="49.96506" lon="2.33884">
        <ele>115.3</ele>
        <time>2023-12-27T14:28:26Z</time>
      </trkpt>
      <trkpt lat="49.96506" lon="2.33886">
        <ele>115.3</ele>
        <time>2023-12-27T14:28:27Z</time>
      </trkpt>
      <trkpt lat="49.96507" lon="2.33888">
        <ele>115.3</ele>
        <time>2023-12-27T14:28:28Z</time>
      </trkpt>
      <trkpt lat="49.96507" lon="2.3389">
        <ele>115.3</ele>
        <time>2023-12-27T14:28:29Z</time>
      </trkpt>
      <trkpt lat="49.96508" lon="2.33892">
        <ele>115.3</ele>
        <time>2023-12-27T14:28:30Z</time>
      </trkpt>
      <trkpt lat="49.96509" lon="2.33894">
        <ele>115.3</ele>
        <time>2023-12-27T14:28:31Z</time>
      </trkpt>
      <trkpt lat="49.9651" lon="2.33895">
        <ele>115.3</ele>
        <time>2023-12-27T14:28:32Z</time>
      </trkpt>
      <trkpt lat="49.9651" lon="2.33897">
        <ele>115.3</ele>
        <time>2023-12-27T14:28:33Z</time>
      </trkpt>
      <trkpt lat="49.96511" lon="2.33899">
        <ele>115.3</ele>
        <time>2023-12-27T14:28:35Z</time>
      </trkpt>
      <trkpt lat="49.96512" lon="2.339">
        <ele>115.3</ele>
        <time>2023-12-27T14:28:36Z</time>
      </trkpt>
      <trkpt lat="49.96513" lon="2.33901">
        <ele>115.3</ele>
        <time>2023-12-27T14:28:37Z</time>
      </trkpt>
      <trkpt lat="49.96514" lon="2.33903">
        <ele>115.3</ele>
        <time>2023-12-27T14:28:38Z</time>
      </trkpt>
      <trkpt lat="49.96515" lon="2.33905">
        <ele>115.3</ele>
        <time>2023-12-27T14:28:39Z</time>
      </trkpt>
      <trkpt lat="49.96516" lon="2.33907">
        <ele>115.3</ele>
        <time>2023-12-27T14:28:40Z</time>
      </trkpt>
      <trkpt lat="49.96517" lon="2.33908">
        <ele>115.3</ele>
        <time>2023-12-27T14:28:42Z</time>
      </trkpt>
      <trkpt lat="49.96517" lon="2.3391">
        <ele>115.3</ele>
        <time>2023-12-27T14:28:43Z</time>
      </trkpt>
      <trkpt lat="49.96518" lon="2.33912">
        <ele>115.3</ele>
        <time>2023-12-27T14:28:44Z</time>
      </trkpt>
      <trkpt lat="49.96519" lon="2.33913">
        <ele>115.3</ele>
        <time>2023-12-27T14:28:45Z</time>
      </trkpt>
      <trkpt lat="49.96519" lon="2.33914">
        <ele>115.3</ele>
        <time>2023-12-27T14:28:46Z</time>
      </trkpt>
      <trkpt lat="49.9652" lon="2.33916">
        <ele>115.3</ele>
        <time>2023-12-27T14:28:47Z</time>
      </trkpt>
      <trkpt lat="49.9652" lon="2.33917">
        <ele>115.3</ele>
        <time>2023-12-27T14:28:48Z</time>
      </trkpt>
      <trkpt lat="49.96521" lon="2.33919">
        <ele>115.3</ele>
        <time>2023-12-27T14:28:49Z</time>
      </trkpt>
      <trkpt lat="49.96522" lon="2.33922">
        <ele>115.3</ele>
        <time>2023-12-27T14:28:50Z</time>
      </trkpt>
      <trkpt lat="49.96522" lon="2.33923">
        <ele>115.3</ele>
        <time>2023-12-27T14:28:51Z</time>
      </trkpt>
      <trkpt lat="49.96523" lon="2.33924">
        <ele>115.3</ele>
        <time>2023-12-27T14:28:52Z</time>
      </trkpt>
      <trkpt lat="49.96524" lon="2.33927">
        <ele>115.3</ele>
        <time>2023-12-27T14:28:54Z</time>
      </trkpt>
      <trkpt lat="49.96524" lon="2.33928">
        <ele>115.3</ele>
        <time>2023-12-27T14:28:55Z</time>
      </trkpt>
      <trkpt lat="49.96525" lon="2.3393">
        <ele>115.3</ele>
        <time>2023-12-27T14:28:56Z</time>
      </trkpt>
      <trkpt lat="49.96526" lon="2.33932">
        <ele>115.3</ele>
        <time>2023-12-27T14:28:57Z</time>
      </trkpt>
      <trkpt lat="49.96526" lon="2.33933">
        <ele>115.3</ele>
        <time>2023-12-27T14:28:58Z</time>
      </trkpt>
      <trkpt lat="49.96527" lon="2.33935">
        <ele>115.3</ele>
        <time>2023-12-27T14:28:59Z</time>
      </trkpt>
      <trkpt lat="49.96527" lon="2.33936">
        <ele>115.2</ele>
        <time>2023-12-27T14:29:00Z</time>
      </trkpt>
      <trkpt lat="49.96528" lon="2.33937">
        <ele>115.2</ele>
        <time>2023-12-27T14:29:01Z</time>
      </trkpt>
      <trkpt lat="49.96529" lon="2.33939">
        <ele>115.2</ele>
        <time>2023-12-27T14:29:03Z</time>
      </trkpt>
      <trkpt lat="49.9653" lon="2.33941">
        <ele>115.2</ele>
        <time>2023-12-27T14:29:04Z</time>
      </trkpt>
      <trkpt lat="49.96531" lon="2.33943">
        <ele>115.2</ele>
        <time>2023-12-27T14:29:05Z</time>
      </trkpt>
      <trkpt lat="49.96532" lon="2.33945">
        <ele>115.2</ele>
        <time>2023-12-27T14:29:06Z</time>
      </trkpt>
      <trkpt lat="49.96532" lon="2.33946">
        <ele>115.2</ele>
        <time>2023-12-27T14:29:07Z</time>
      </trkpt>
      <trkpt lat="49.96533" lon="2.33948">
        <ele>115.2</ele>
        <time>2023-12-27T14:29:08Z</time>
      </trkpt>
      <trkpt lat="49.96534" lon="2.3395">
        <ele>115.2</ele>
        <time>2023-12-27T14:29:10Z</time>
      </trkpt>
      <trkpt lat="49.96534" lon="2.33952">
        <ele>115.2</ele>
        <time>2023-12-27T14:29:11Z</time>
      </trkpt>
      <trkpt lat="49.96535" lon="2.33954">
        <ele>115.2</ele>
        <time>2023-12-27T14:29:12Z</time>
      </trkpt>
      <trkpt lat="49.96535" lon="2.33956">
        <ele>115.2</ele>
        <time>2023-12-27T14:29:13Z</time>
      </trkpt>
      <trkpt lat="49.96536" lon="2.33958">
        <ele>115.2</ele>
        <time>2023-12-27T14:29:14Z</time>
      </trkpt>
      <trkpt lat="49.96536" lon="2.33959">
        <ele>115.2</ele>
        <time>2023-12-27T14:29:15Z</time>
      </trkpt>
      <trkpt lat="49.96537" lon="2.33961">
        <ele>115.2</ele>
        <time>2023-12-27T14:29:16Z</time>
      </trkpt>
      <trkpt lat="49.96537" lon="2.33962">
        <ele>115.2</ele>
        <time>2023-12-27T14:29:17Z</time>
      </trkpt>
      <trkpt lat="49.96538" lon="2.33964">
        <ele>115.2</ele>
        <time>2023-12-27T14:29:19Z</time>
      </trkpt>
      <trkpt lat="49.96539" lon="2.33967">
        <ele>115.2</ele>
        <time>2023-12-27T14:29:20Z</time>
      </trkpt>
      <trkpt lat="49.9654" lon="2.33968">
        <ele>115.2</ele>
        <time>2023-12-27T14:29:21Z</time>
      </trkpt>
      <trkpt lat="49.9654" lon="2.33969">
        <ele>115.2</ele>
        <time>2023-12-27T14:29:22Z</time>
      </trkpt>
      <trkpt lat="49.96542" lon="2.33972">
        <ele>115.2</ele>
        <time>2023-12-27T14:29:23Z</time>
      </trkpt>
      <trkpt lat="49.96542" lon="2.33973">
        <ele>115.2</ele>
        <time>2023-12-27T14:29:24Z</time>
      </trkpt>
      <trkpt lat="49.96542" lon="2.33974">
        <ele>115.2</ele>
        <time>2023-12-27T14:29:25Z</time>
      </trkpt>
      <trkpt lat="49.96543" lon="2.33976">
        <ele>115.2</ele>
        <time>2023-12-27T14:29:26Z</time>
      </trkpt>
      <trkpt lat="49.96543" lon="2.33978">
        <ele>115.2</ele>
        <time>2023-12-27T14:29:27Z</time>
      </trkpt>
      <trkpt lat="49.96544" lon="2.33981">
        <ele>115.2</ele>
        <time>2023-12-27T14:29:29Z</time>
      </trkpt>
      <trkpt lat="49.96545" lon="2.33982">
        <ele>115.2</ele>
        <time>2023-12-27T14:29:30Z</time>
      </trkpt>
      <trkpt lat="49.96545" lon="2.33984">
        <ele>115.2</ele>
        <time>2023-12-27T14:29:31Z</time>
      </trkpt>
      <trkpt lat="49.96546" lon="2.33986">
        <ele>115.2</ele>
        <time>2023-12-27T14:29:33Z</time>
      </trkpt>
      <trkpt lat="49.96546" lon="2.33988">
        <ele>115.2</ele>
        <time>2023-12-27T14:29:34Z</time>
      </trkpt>
      <trkpt lat="49.96547" lon="2.3399">
        <ele>115.2</ele>
        <time>2023-12-27T14:29:35Z</time>
      </trkpt>
      <trkpt lat="49.96548" lon="2.33992">
        <ele>115.2</ele>
        <time>2023-12-27T14:29:36Z</time>
      </trkpt>
      <trkpt lat="49.96548" lon="2.33994">
        <ele>115.2</ele>
        <time>2023-12-27T14:29:37Z</time>
      </trkpt>
      <trkpt lat="49.96549" lon="2.33996">
        <ele>115.2</ele>
        <time>2023-12-27T14:29:38Z</time>
      </trkpt>
      <trkpt lat="49.9655" lon="2.33998">
        <ele>115.2</ele>
        <time>2023-12-27T14:29:39Z</time>
      </trkpt>
      <trkpt lat="49.96551" lon="2.34">
        <ele>115.3</ele>
        <time>2023-12-27T14:29:41Z</time>
      </trkpt>
      <trkpt lat="49.96552" lon="2.34002">
        <ele>115.3</ele>
        <time>2023-12-27T14:29:42Z</time>
      </trkpt>
      <trkpt lat="49.96553" lon="2.34005">
        <ele>115.3</ele>
        <time>2023-12-27T14:29:43Z</time>
      </trkpt>
      <trkpt lat="49.96553" lon="2.34006">
        <ele>115.3</ele>
        <time>2023-12-27T14:29:44Z</time>
      </trkpt>
      <trkpt lat="49.96554" lon="2.34007">
        <ele>115.3</ele>
        <time>2023-12-27T14:29:45Z</time>
      </trkpt>
      <trkpt lat="49.96555" lon="2.3401">
        <ele>115.3</ele>
        <time>2023-12-27T14:29:46Z</time>
      </trkpt>
      <trkpt lat="49.96555" lon="2.34011">
        <ele>115.3</ele>
        <time>2023-12-27T14:29:47Z</time>
      </trkpt>
      <trkpt lat="49.96556" lon="2.34012">
        <ele>115.3</ele>
        <time>2023-12-27T14:29:48Z</time>
      </trkpt>
      <trkpt lat="49.96557" lon="2.34015">
        <ele>115.3</ele>
        <time>2023-12-27T14:29:49Z</time>
      </trkpt>
      <trkpt lat="49.96557" lon="2.34016">
        <ele>115.3</ele>
        <time>2023-12-27T14:29:50Z</time>
      </trkpt>
      <trkpt lat="49.96558" lon="2.34017">
        <ele>115.3</ele>
        <time>2023-12-27T14:29:51Z</time>
      </trkpt>
      <trkpt lat="49.96558" lon="2.34019">
        <ele>115.4</ele>
        <time>2023-12-27T14:29:53Z</time>
      </trkpt>
      <trkpt lat="49.96559" lon="2.34021">
        <ele>115.4</ele>
        <time>2023-12-27T14:29:54Z</time>
      </trkpt>
      <trkpt lat="49.9656" lon="2.34023">
        <ele>115.4</ele>
        <time>2023-12-27T14:29:55Z</time>
      </trkpt>
      <trkpt lat="49.9656" lon="2.34025">
        <ele>115.4</ele>
        <time>2023-12-27T14:29:56Z</time>
      </trkpt>
      <trkpt lat="49.96561" lon="2.34026">
        <ele>115.4</ele>
        <time>2023-12-27T14:29:57Z</time>
      </trkpt>
      <trkpt lat="49.96562" lon="2.34028">
        <ele>115.4</ele>
        <time>2023-12-27T14:29:58Z</time>
      </trkpt>
      <trkpt lat="49.96562" lon="2.3403">
        <ele>115.4</ele>
        <time>2023-12-27T14:29:59Z</time>
      </trkpt>
      <trkpt lat="49.96563" lon="2.34031">
        <ele>115.4</ele>
        <time>2023-12-27T14:30:00Z</time>
      </trkpt>
      <trkpt lat="49.96564" lon="2.34032">
        <ele>115.4</ele>
        <time>2023-12-27T14:30:01Z</time>
      </trkpt>
      <trkpt lat="49.96564" lon="2.34034">
        <ele>115.4</ele>
        <time>2023-12-27T14:30:02Z</time>
      </trkpt>
      <trkpt lat="49.96565" lon="2.34036">
        <ele>115.5</ele>
        <time>2023-12-27T14:30:04Z</time>
      </trkpt>
      <trkpt lat="49.96566" lon="2.34038">
        <ele>115.5</ele>
        <time>2023-12-27T14:30:05Z</time>
      </trkpt>
      <trkpt lat="49.96566" lon="2.3404">
        <ele>115.5</ele>
        <time>2023-12-27T14:30:06Z</time>
      </trkpt>
      <trkpt lat="49.96567" lon="2.34043">
        <ele>115.5</ele>
        <time>2023-12-27T14:30:07Z</time>
      </trkpt>
      <trkpt lat="49.96568" lon="2.34044">
        <ele>115.5</ele>
        <time>2023-12-27T14:30:08Z</time>
      </trkpt>
      <trkpt lat="49.96568" lon="2.34045">
        <ele>115.5</ele>
        <time>2023-12-27T14:30:09Z</time>
      </trkpt>
      <trkpt lat="49.96569" lon="2.34048">
        <ele>115.5</ele>
        <time>2023-12-27T14:30:11Z</time>
      </trkpt>
      <trkpt lat="49.9657" lon="2.34049">
        <ele>115.5</ele>
        <time>2023-12-27T14:30:12Z</time>
      </trkpt>
      <trkpt lat="49.9657" lon="2.3405">
        <ele>115.5</ele>
        <time>2023-12-27T14:30:13Z</time>
      </trkpt>
      <trkpt lat="49.96571" lon="2.34053">
        <ele>115.5</ele>
        <time>2023-12-27T14:30:14Z</time>
      </trkpt>
      <trkpt lat="49.96572" lon="2.34054">
        <ele>115.5</ele>
        <time>2023-12-27T14:30:15Z</time>
      </trkpt>
      <trkpt lat="49.96572" lon="2.34056">
        <ele>115.6</ele>
        <time>2023-12-27T14:30:16Z</time>
      </trkpt>
      <trkpt lat="49.96572" lon="2.34057">
        <ele>115.6</ele>
        <time>2023-12-27T14:30:17Z</time>
      </trkpt>
      <trkpt lat="49.96573" lon="2.34058">
        <ele>115.6</ele>
        <time>2023-12-27T14:30:19Z</time>
      </trkpt>
      <trkpt lat="49.96573" lon="2.3406">
        <ele>115.6</ele>
        <time>2023-12-27T14:30:20Z</time>
      </trkpt>
      <trkpt lat="49.96574" lon="2.34061">
        <ele>115.6</ele>
        <time>2023-12-27T14:30:21Z</time>
      </trkpt>
      <trkpt lat="49.96574" lon="2.34063">
        <ele>115.6</ele>
        <time>2023-12-27T14:30:22Z</time>
      </trkpt>
      <trkpt lat="49.96575" lon="2.34065">
        <ele>115.6</ele>
        <time>2023-12-27T14:30:23Z</time>
      </trkpt>
      <trkpt lat="49.96576" lon="2.34066">
        <ele>115.6</ele>
        <time>2023-12-27T14:30:24Z</time>
      </trkpt>
      <trkpt lat="49.96576" lon="2.34067">
        <ele>115.6</ele>
        <time>2023-12-27T14:30:25Z</time>
      </trkpt>
      <trkpt lat="49.96577" lon="2.34069">
        <ele>115.6</ele>
        <time>2023-12-27T14:30:27Z</time>
      </trkpt>
      <trkpt lat="49.96578" lon="2.3407">
        <ele>115.7</ele>
        <time>2023-12-27T14:30:28Z</time>
      </trkpt>
      <trkpt lat="49.96578" lon="2.34072">
        <ele>115.7</ele>
        <time>2023-12-27T14:30:29Z</time>
      </trkpt>
      <trkpt lat="49.96579" lon="2.34073">
        <ele>115.7</ele>
        <time>2023-12-27T14:30:30Z</time>
      </trkpt>
      <trkpt lat="49.9658" lon="2.34076">
        <ele>115.7</ele>
        <time>2023-12-27T14:30:31Z</time>
      </trkpt>
      <trkpt lat="49.9658" lon="2.34077">
        <ele>115.7</ele>
        <time>2023-12-27T14:30:32Z</time>
      </trkpt>
      <trkpt lat="49.96581" lon="2.34078">
        <ele>115.7</ele>
        <time>2023-12-27T14:30:33Z</time>
      </trkpt>
      <trkpt lat="49.96581" lon="2.3408">
        <ele>115.7</ele>
        <time>2023-12-27T14:30:35Z</time>
      </trkpt>
      <trkpt lat="49.96582" lon="2.34081">
        <ele>115.7</ele>
        <time>2023-12-27T14:30:36Z</time>
      </trkpt>
      <trkpt lat="49.96582" lon="2.34083">
        <ele>115.7</ele>
        <time>2023-12-27T14:30:37Z</time>
      </trkpt>
      <trkpt lat="49.96583" lon="2.34085">
        <ele>115.8</ele>
        <time>2023-12-27T14:30:38Z</time>
      </trkpt>
      <trkpt lat="49.96583" lon="2.34086">
        <ele>115.8</ele>
        <time>2023-12-27T14:30:39Z</time>
      </trkpt>
      <trkpt lat="49.96584" lon="2.34087">
        <ele>115.8</ele>
        <time>2023-12-27T14:30:40Z</time>
      </trkpt>
      <trkpt lat="49.96585" lon="2.34089">
        <ele>115.8</ele>
        <time>2023-12-27T14:30:42Z</time>
      </trkpt>
      <trkpt lat="49.96585" lon="2.3409">
        <ele>115.8</ele>
        <time>2023-12-27T14:30:43Z</time>
      </trkpt>
      <trkpt lat="49.96586" lon="2.34091">
        <ele>115.8</ele>
        <time>2023-12-27T14:30:44Z</time>
      </trkpt>
      <trkpt lat="49.96586" lon="2.34093">
        <ele>115.8</ele>
        <time>2023-12-27T14:30:45Z</time>
      </trkpt>
      <trkpt lat="49.96587" lon="2.34094">
        <ele>115.9</ele>
        <time>2023-12-27T14:30:46Z</time>
      </trkpt>
      <trkpt lat="49.96587" lon="2.34096">
        <ele>115.9</ele>
        <time>2023-12-27T14:30:48Z</time>
      </trkpt>
      <trkpt lat="49.96588" lon="2.34097">
        <ele>115.9</ele>
        <time>2023-12-27T14:30:49Z</time>
      </trkpt>
      <trkpt lat="49.96589" lon="2.34098">
        <ele>115.9</ele>
        <time>2023-12-27T14:30:50Z</time>
      </trkpt>
      <trkpt lat="49.96589" lon="2.34098">
        <ele>115.9</ele>
        <time>2023-12-27T14:30:51Z</time>
      </trkpt>
      <trkpt lat="49.96591" lon="2.34098">
        <ele>115.9</ele>
        <time>2023-12-27T14:30:53Z</time>
      </trkpt>
      <trkpt lat="49.96591" lon="2.34098">
        <ele>115.9</ele>
        <time>2023-12-27T14:30:54Z</time>
      </trkpt>
      <trkpt lat="49.96592" lon="2.34098">
        <ele>115.9</ele>
        <time>2023-12-27T14:30:55Z</time>
      </trkpt>
      <trkpt lat="49.96593" lon="2.34099">
        <ele>115.9</ele>
        <time>2023-12-27T14:30:56Z</time>
      </trkpt>
      <trkpt lat="49.96594" lon="2.341">
        <ele>115.9</ele>
        <time>2023-12-27T14:30:58Z</time>
      </trkpt>
      <trkpt lat="49.96594" lon="2.34101">
        <ele>115.9</ele>
        <time>2023-12-27T14:30:59Z</time>
      </trkpt>
      <trkpt lat="49.96595" lon="2.34101">
        <ele>115.9</ele>
        <time>2023-12-27T14:31:00Z</time>
      </trkpt>
      <trkpt lat="49.96596" lon="2.34102">
        <ele>116</ele>
        <time>2023-12-27T14:31:01Z</time>
      </trkpt>
      <trkpt lat="49.96597" lon="2.34103">
        <ele>116</ele>
        <time>2023-12-27T14:31:02Z</time>
      </trkpt>
      <trkpt lat="49.96598" lon="2.34103">
        <ele>116</ele>
        <time>2023-12-27T14:31:03Z</time>
      </trkpt>
      <trkpt lat="49.96599" lon="2.34104">
        <ele>116</ele>
        <time>2023-12-27T14:31:05Z</time>
      </trkpt>
      <trkpt lat="49.966" lon="2.34104">
        <ele>116</ele>
        <time>2023-12-27T14:31:06Z</time>
      </trkpt>
      <trkpt lat="49.96601" lon="2.34104">
        <ele>116</ele>
        <time>2023-12-27T14:31:07Z</time>
      </trkpt>
      <trkpt lat="49.96602" lon="2.34103">
        <ele>116</ele>
        <time>2023-12-27T14:31:08Z</time>
      </trkpt>
      <trkpt lat="49.96603" lon="2.34103">
        <ele>116</ele>
        <time>2023-12-27T14:31:09Z</time>
      </trkpt>
      <trkpt lat="49.96605" lon="2.34102">
        <ele>116</ele>
        <time>2023-12-27T14:31:11Z</time>
      </trkpt>
      <trkpt lat="49.96606" lon="2.34101">
        <ele>116</ele>
        <time>2023-12-27T14:31:13Z</time>
      </trkpt>
      <trkpt lat="49.96606" lon="2.341">
        <ele>116</ele>
        <time>2023-12-27T14:31:14Z</time>
      </trkpt>
      <trkpt lat="49.96607" lon="2.341">
        <ele>116</ele>
        <time>2023-12-27T14:31:15Z</time>
      </trkpt>
      <trkpt lat="49.96607" lon="2.341">
        <ele>116</ele>
        <time>2023-12-27T14:31:16Z</time>
      </trkpt>
      <trkpt lat="49.96609" lon="2.341">
        <ele>116</ele>
        <time>2023-12-27T14:31:17Z</time>
      </trkpt>
      <trkpt lat="49.96609" lon="2.34101">
        <ele>116</ele>
        <time>2023-12-27T14:31:19Z</time>
      </trkpt>
      <trkpt lat="49.9661" lon="2.34101">
        <ele>116</ele>
        <time>2023-12-27T14:31:20Z</time>
      </trkpt>
      <trkpt lat="49.96611" lon="2.34101">
        <ele>116</ele>
        <time>2023-12-27T14:31:21Z</time>
      </trkpt>
      <trkpt lat="49.96612" lon="2.34101">
        <ele>116</ele>
        <time>2023-12-27T14:31:22Z</time>
      </trkpt>
      <trkpt lat="49.96613" lon="2.34101">
        <ele>116</ele>
        <time>2023-12-27T14:31:24Z</time>
      </trkpt>
      <trkpt lat="49.96614" lon="2.34101">
        <ele>116</ele>
        <time>2023-12-27T14:31:25Z</time>
      </trkpt>
      <trkpt lat="49.96616" lon="2.34101">
        <ele>116</ele>
        <time>2023-12-27T14:31:26Z</time>
      </trkpt>
      <trkpt lat="49.96617" lon="2.34101">
        <ele>116</ele>
        <time>2023-12-27T14:31:27Z</time>
      </trkpt>
      <trkpt lat="49.96618" lon="2.341">
        <ele>116</ele>
        <time>2023-12-27T14:31:28Z</time>
      </trkpt>
      <trkpt lat="49.9662" lon="2.341">
        <ele>116</ele>
        <time>2023-12-27T14:31:29Z</time>
      </trkpt>
      <trkpt lat="49.96621" lon="2.341">
        <ele>116</ele>
        <time>2023-12-27T14:31:31Z</time>
      </trkpt>
      <trkpt lat="49.96621" lon="2.341">
        <ele>116</ele>
        <time>2023-12-27T14:31:32Z</time>
      </trkpt>
      <trkpt lat="49.96623" lon="2.341">
        <ele>116.1</ele>
        <time>2023-12-27T14:31:33Z</time>
      </trkpt>
      <trkpt lat="49.96624" lon="2.341">
        <ele>116.1</ele>
        <time>2023-12-27T14:31:34Z</time>
      </trkpt>
      <trkpt lat="49.96625" lon="2.341">
        <ele>116.1</ele>
        <time>2023-12-27T14:31:35Z</time>
      </trkpt>
      <trkpt lat="49.96627" lon="2.341">
        <ele>116.1</ele>
        <time>2023-12-27T14:31:37Z</time>
      </trkpt>
      <trkpt lat="49.96629" lon="2.341">
        <ele>116.1</ele>
        <time>2023-12-27T14:31:38Z</time>
      </trkpt>
      <trkpt lat="49.9663" lon="2.341">
        <ele>116.1</ele>
        <time>2023-12-27T14:31:40Z</time>
      </trkpt>
      <trkpt lat="49.96631" lon="2.341">
        <ele>116.1</ele>
        <time>2023-12-27T14:31:41Z</time>
      </trkpt>
      <trkpt lat="49.96632" lon="2.341">
        <ele>116.1</ele>
        <time>2023-12-27T14:31:42Z</time>
      </trkpt>
      <trkpt lat="49.96633" lon="2.341">
        <ele>116.1</ele>
        <time>2023-12-27T14:31:43Z</time>
      </trkpt>
      <trkpt lat="49.96634" lon="2.341">
        <ele>116.1</ele>
        <time>2023-12-27T14:31:45Z</time>
      </trkpt>
      <trkpt lat="49.96635" lon="2.341">
        <ele>116.1</ele>
        <time>2023-12-27T14:31:46Z</time>
      </trkpt>
      <trkpt lat="49.96636" lon="2.341">
        <ele>116.1</ele>
        <time>2023-12-27T14:31:47Z</time>
      </trkpt>
      <trkpt lat="49.96637" lon="2.341">
        <ele>116.1</ele>
        <time>2023-12-27T14:31:48Z</time>
      </trkpt>
      <trkpt lat="49.96639" lon="2.341">
        <ele>116.1</ele>
        <time>2023-12-27T14:31:50Z</time>
      </trkpt>
      <trkpt lat="49.9664" lon="2.341">
        <ele>116.1</ele>
        <time>2023-12-27T14:31:51Z</time>
      </trkpt>
      <trkpt lat="49.96641" lon="2.341">
        <ele>116.2</ele>
        <time>2023-12-27T14:31:52Z</time>
      </trkpt>
      <trkpt lat="49.96642" lon="2.34101">
        <ele>116.2</ele>
        <time>2023-12-27T14:31:53Z</time>
      </trkpt>
      <trkpt lat="49.96643" lon="2.34101">
        <ele>116.2</ele>
        <time>2023-12-27T14:31:55Z</time>
      </trkpt>
      <trkpt lat="49.96645" lon="2.34101">
        <ele>116.2</ele>
        <time>2023-12-27T14:31:56Z</time>
      </trkpt>
      <trkpt lat="49.96646" lon="2.34102">
        <ele>116.2</ele>
        <time>2023-12-27T14:31:58Z</time>
      </trkpt>
      <trkpt lat="49.96647" lon="2.34102">
        <ele>116.2</ele>
        <time>2023-12-27T14:31:59Z</time>
      </trkpt>
      <trkpt lat="49.96648" lon="2.34102">
        <ele>116.2</ele>
        <time>2023-12-27T14:32:00Z</time>
      </trkpt>
      <trkpt lat="49.96649" lon="2.34102">
        <ele>116.3</ele>
        <time>2023-12-27T14:32:01Z</time>
      </trkpt>
      <trkpt lat="49.9665" lon="2.34102">
        <ele>116.3</ele>
        <time>2023-12-27T14:32:02Z</time>
      </trkpt>
      <trkpt lat="49.96651" lon="2.34102">
        <ele>116.3</ele>
        <time>2023-12-27T14:32:03Z</time>
      </trkpt>
      <trkpt lat="49.96654" lon="2.34102">
        <ele>116.3</ele>
        <time>2023-12-27T14:32:05Z</time>
      </trkpt>
      <trkpt lat="49.96654" lon="2.34102">
        <ele>116.3</ele>
        <time>2023-12-27T14:32:06Z</time>
      </trkpt>
      <trkpt lat="49.96655" lon="2.34102">
        <ele>116.3</ele>
        <time>2023-12-27T14:32:07Z</time>
      </trkpt>
      <trkpt lat="49.96657" lon="2.34102">
        <ele>116.4</ele>
        <time>2023-12-27T14:32:08Z</time>
      </trkpt>
      <trkpt lat="49.96658" lon="2.34102">
        <ele>116.4</ele>
        <time>2023-12-27T14:32:10Z</time>
      </trkpt>
      <trkpt lat="49.96659" lon="2.34102">
        <ele>116.4</ele>
        <time>2023-12-27T14:32:11Z</time>
      </trkpt>
      <trkpt lat="49.9666" lon="2.34102">
        <ele>116.4</ele>
        <time>2023-12-27T14:32:12Z</time>
      </trkpt>
      <trkpt lat="49.96661" lon="2.34102">
        <ele>116.4</ele>
        <time>2023-12-27T14:32:13Z</time>
      </trkpt>
      <trkpt lat="49.96662" lon="2.34102">
        <ele>116.4</ele>
        <time>2023-12-27T14:32:14Z</time>
      </trkpt>
      <trkpt lat="49.96663" lon="2.34101">
        <ele>116.5</ele>
        <time>2023-12-27T14:32:15Z</time>
      </trkpt>
      <trkpt lat="49.96665" lon="2.34101">
        <ele>116.5</ele>
        <time>2023-12-27T14:32:16Z</time>
      </trkpt>
      <trkpt lat="49.96666" lon="2.34101">
        <ele>116.5</ele>
        <time>2023-12-27T14:32:17Z</time>
      </trkpt>
      <trkpt lat="49.96668" lon="2.341">
        <ele>116.6</ele>
        <time>2023-12-27T14:32:19Z</time>
      </trkpt>
      <trkpt lat="49.96669" lon="2.341">
        <ele>116.6</ele>
        <time>2023-12-27T14:32:21Z</time>
      </trkpt>
      <trkpt lat="49.96672" lon="2.341">
        <ele>116.6</ele>
        <time>2023-12-27T14:32:22Z</time>
      </trkpt>
      <trkpt lat="49.96673" lon="2.341">
        <ele>116.6</ele>
        <time>2023-12-27T14:32:23Z</time>
      </trkpt>
      <trkpt lat="49.96673" lon="2.341">
        <ele>116.7</ele>
        <time>2023-12-27T14:32:24Z</time>
      </trkpt>
      <trkpt lat="49.96675" lon="2.341">
        <ele>116.7</ele>
        <time>2023-12-27T14:32:26Z</time>
      </trkpt>
      <trkpt lat="49.96676" lon="2.341">
        <ele>116.7</ele>
        <time>2023-12-27T14:32:27Z</time>
      </trkpt>
      <trkpt lat="49.96677" lon="2.341">
        <ele>116.7</ele>
        <time>2023-12-27T14:32:28Z</time>
      </trkpt>
      <trkpt lat="49.96678" lon="2.34099">
        <ele>116.7</ele>
        <time>2023-12-27T14:32:29Z</time>
      </trkpt>
      <trkpt lat="49.9668" lon="2.34099">
        <ele>116.8</ele>
        <time>2023-12-27T14:32:30Z</time>
      </trkpt>
      <trkpt lat="49.96681" lon="2.34099">
        <ele>116.8</ele>
        <time>2023-12-27T14:32:32Z</time>
      </trkpt>
      <trkpt lat="49.96682" lon="2.34099">
        <ele>116.8</ele>
        <time>2023-12-27T14:32:33Z</time>
      </trkpt>
      <trkpt lat="49.96683" lon="2.34098">
        <ele>116.8</ele>
        <time>2023-12-27T14:32:34Z</time>
      </trkpt>
      <trkpt lat="49.96684" lon="2.34098">
        <ele>116.8</ele>
        <time>2023-12-27T14:32:35Z</time>
      </trkpt>
      <trkpt lat="49.96686" lon="2.34098">
        <ele>116.9</ele>
        <time>2023-12-27T14:32:36Z</time>
      </trkpt>
      <trkpt lat="49.96687" lon="2.34098">
        <ele>116.9</ele>
        <time>2023-12-27T14:32:38Z</time>
      </trkpt>
      <trkpt lat="49.96688" lon="2.34098">
        <ele>116.9</ele>
        <time>2023-12-27T14:32:39Z</time>
      </trkpt>
      <trkpt lat="49.96689" lon="2.34098">
        <ele>116.9</ele>
        <time>2023-12-27T14:32:40Z</time>
      </trkpt>
      <trkpt lat="49.9669" lon="2.34099">
        <ele>116.9</ele>
        <time>2023-12-27T14:32:41Z</time>
      </trkpt>
      <trkpt lat="49.96692" lon="2.34099">
        <ele>117</ele>
        <time>2023-12-27T14:32:42Z</time>
      </trkpt>
      <trkpt lat="49.96693" lon="2.34099">
        <ele>117</ele>
        <time>2023-12-27T14:32:44Z</time>
      </trkpt>
      <trkpt lat="49.96694" lon="2.34099">
        <ele>117</ele>
        <time>2023-12-27T14:32:45Z</time>
      </trkpt>
      <trkpt lat="49.96695" lon="2.34099">
        <ele>117</ele>
        <time>2023-12-27T14:32:46Z</time>
      </trkpt>
      <trkpt lat="49.96696" lon="2.34099">
        <ele>117</ele>
        <time>2023-12-27T14:32:47Z</time>
      </trkpt>
      <trkpt lat="49.96697" lon="2.34099">
        <ele>117.1</ele>
        <time>2023-12-27T14:32:49Z</time>
      </trkpt>
      <trkpt lat="49.96698" lon="2.34099">
        <ele>117.1</ele>
        <time>2023-12-27T14:32:50Z</time>
      </trkpt>
      <trkpt lat="49.96699" lon="2.34099">
        <ele>117.1</ele>
        <time>2023-12-27T14:32:51Z</time>
      </trkpt>
      <trkpt lat="49.96701" lon="2.34099">
        <ele>117.1</ele>
        <time>2023-12-27T14:32:53Z</time>
      </trkpt>
      <trkpt lat="49.96702" lon="2.341">
        <ele>117.2</ele>
        <time>2023-12-27T14:32:54Z</time>
      </trkpt>
      <trkpt lat="49.96703" lon="2.341">
        <ele>117.2</ele>
        <time>2023-12-27T14:32:55Z</time>
      </trkpt>
      <trkpt lat="49.96703" lon="2.34101">
        <ele>117.2</ele>
        <time>2023-12-27T14:32:56Z</time>
      </trkpt>
      <trkpt lat="49.96705" lon="2.34101">
        <ele>117.2</ele>
        <time>2023-12-27T14:32:57Z</time>
      </trkpt>
      <trkpt lat="49.96705" lon="2.34101">
        <ele>117.2</ele>
        <time>2023-12-27T14:32:58Z</time>
      </trkpt>
      <trkpt lat="49.96707" lon="2.34101">
        <ele>117.3</ele>
        <time>2023-12-27T14:32:59Z</time>
      </trkpt>
      <trkpt lat="49.96708" lon="2.341">
        <ele>117.3</ele>
        <time>2023-12-27T14:33:01Z</time>
      </trkpt>
      <trkpt lat="49.96709" lon="2.341">
        <ele>117.3</ele>
        <time>2023-12-27T14:33:02Z</time>
      </trkpt>
      <trkpt lat="49.9671" lon="2.341">
        <ele>117.3</ele>
        <time>2023-12-27T14:33:03Z</time>
      </trkpt>
      <trkpt lat="49.96711" lon="2.341">
        <ele>117.3</ele>
        <time>2023-12-27T14:33:04Z</time>
      </trkpt>
      <trkpt lat="49.96712" lon="2.341">
        <ele>117.4</ele>
        <time>2023-12-27T14:33:05Z</time>
      </trkpt>
      <trkpt lat="49.96713" lon="2.34099">
        <ele>117.4</ele>
        <time>2023-12-27T14:33:07Z</time>
      </trkpt>
      <trkpt lat="49.96714" lon="2.34099">
        <ele>117.4</ele>
        <time>2023-12-27T14:33:08Z</time>
      </trkpt>
      <trkpt lat="49.96715" lon="2.34099">
        <ele>117.4</ele>
        <time>2023-12-27T14:33:09Z</time>
      </trkpt>
      <trkpt lat="49.96716" lon="2.34099">
        <ele>117.4</ele>
        <time>2023-12-27T14:33:10Z</time>
      </trkpt>
      <trkpt lat="49.96717" lon="2.34099">
        <ele>117.4</ele>
        <time>2023-12-27T14:33:11Z</time>
      </trkpt>
      <trkpt lat="49.96718" lon="2.34099">
        <ele>117.5</ele>
        <time>2023-12-27T14:33:12Z</time>
      </trkpt>
      <trkpt lat="49.9672" lon="2.34098">
        <ele>117.5</ele>
        <time>2023-12-27T14:33:14Z</time>
      </trkpt>
      <trkpt lat="49.96721" lon="2.34098">
        <ele>117.5</ele>
        <time>2023-12-27T14:33:15Z</time>
      </trkpt>
      <trkpt lat="49.96721" lon="2.34097">
        <ele>117.5</ele>
        <time>2023-12-27T14:33:16Z</time>
      </trkpt>
      <trkpt lat="49.96722" lon="2.34096">
        <ele>117.5</ele>
        <time>2023-12-27T14:33:17Z</time>
      </trkpt>
      <trkpt lat="49.96723" lon="2.34096">
        <ele>117.5</ele>
        <time>2023-12-27T14:33:19Z</time>
      </trkpt>
      <trkpt lat="49.96724" lon="2.34096">
        <ele>117.5</ele>
        <time>2023-12-27T14:33:20Z</time>
      </trkpt>
      <trkpt lat="49.96725" lon="2.34097">
        <ele>117.5</ele>
        <time>2023-12-27T14:33:21Z</time>
      </trkpt>
      <trkpt lat="49.96726" lon="2.34097">
        <ele>117.6</ele>
        <time>2023-12-27T14:33:22Z</time>
      </trkpt>
      <trkpt lat="49.96727" lon="2.34097">
        <ele>117.6</ele>
        <time>2023-12-27T14:33:23Z</time>
      </trkpt>
      <trkpt lat="49.96728" lon="2.34098">
        <ele>117.6</ele>
        <time>2023-12-27T14:33:24Z</time>
      </trkpt>
      <trkpt lat="49.96729" lon="2.34098">
        <ele>117.6</ele>
        <time>2023-12-27T14:33:25Z</time>
      </trkpt>
      <trkpt lat="49.9673" lon="2.34098">
        <ele>117.6</ele>
        <time>2023-12-27T14:33:26Z</time>
      </trkpt>
      <trkpt lat="49.9673" lon="2.34098">
        <ele>117.6</ele>
        <time>2023-12-27T14:33:27Z</time>
      </trkpt>
      <trkpt lat="49.96732" lon="2.34098">
        <ele>117.6</ele>
        <time>2023-12-27T14:33:28Z</time>
      </trkpt>
      <trkpt lat="49.96733" lon="2.34098">
        <ele>117.7</ele>
        <time>2023-12-27T14:33:30Z</time>
      </trkpt>
      <trkpt lat="49.96734" lon="2.34097">
        <ele>117.7</ele>
        <time>2023-12-27T14:33:31Z</time>
      </trkpt>
      <trkpt lat="49.96735" lon="2.34097">
        <ele>117.7</ele>
        <time>2023-12-27T14:33:32Z</time>
      </trkpt>
      <trkpt lat="49.96736" lon="2.34097">
        <ele>117.7</ele>
        <time>2023-12-27T14:33:33Z</time>
      </trkpt>
      <trkpt lat="49.96737" lon="2.34097">
        <ele>117.7</ele>
        <time>2023-12-27T14:33:34Z</time>
      </trkpt>
      <trkpt lat="49.96738" lon="2.34097">
        <ele>117.8</ele>
        <time>2023-12-27T14:33:35Z</time>
      </trkpt>
      <trkpt lat="49.96739" lon="2.34097">
        <ele>117.8</ele>
        <time>2023-12-27T14:33:37Z</time>
      </trkpt>
      <trkpt lat="49.9674" lon="2.34097">
        <ele>117.8</ele>
        <time>2023-12-27T14:33:38Z</time>
      </trkpt>
      <trkpt lat="49.96741" lon="2.34096">
        <ele>117.8</ele>
        <time>2023-12-27T14:33:39Z</time>
      </trkpt>
      <trkpt lat="49.96742" lon="2.34096">
        <ele>117.8</ele>
        <time>2023-12-27T14:33:40Z</time>
      </trkpt>
      <trkpt lat="49.96744" lon="2.34097">
        <ele>117.9</ele>
        <time>2023-12-27T14:33:41Z</time>
      </trkpt>
      <trkpt lat="49.96745" lon="2.34097">
        <ele>117.9</ele>
        <time>2023-12-27T14:33:43Z</time>
      </trkpt>
      <trkpt lat="49.96746" lon="2.34097">
        <ele>117.9</ele>
        <time>2023-12-27T14:33:44Z</time>
      </trkpt>
      <trkpt lat="49.96746" lon="2.34097">
        <ele>117.9</ele>
        <time>2023-12-27T14:33:45Z</time>
      </trkpt>
      <trkpt lat="49.96747" lon="2.34097">
        <ele>117.9</ele>
        <time>2023-12-27T14:33:46Z</time>
      </trkpt>
      <trkpt lat="49.96749" lon="2.34097">
        <ele>117.9</ele>
        <time>2023-12-27T14:33:47Z</time>
      </trkpt>
      <trkpt lat="49.9675" lon="2.34096">
        <ele>117.9</ele>
        <time>2023-12-27T14:33:48Z</time>
      </trkpt>
      <trkpt lat="49.96751" lon="2.34097">
        <ele>117.9</ele>
        <time>2023-12-27T14:33:50Z</time>
      </trkpt>
      <trkpt lat="49.96752" lon="2.34097">
        <ele>118</ele>
        <time>2023-12-27T14:33:51Z</time>
      </trkpt>
      <trkpt lat="49.96753" lon="2.34096">
        <ele>118</ele>
        <time>2023-12-27T14:33:52Z</time>
      </trkpt>
      <trkpt lat="49.96754" lon="2.34096">
        <ele>118</ele>
        <time>2023-12-27T14:33:53Z</time>
      </trkpt>
      <trkpt lat="49.96756" lon="2.34096">
        <ele>118</ele>
        <time>2023-12-27T14:33:55Z</time>
      </trkpt>
      <trkpt lat="49.96757" lon="2.34096">
        <ele>118</ele>
        <time>2023-12-27T14:33:56Z</time>
      </trkpt>
      <trkpt lat="49.96758" lon="2.34096">
        <ele>118</ele>
        <time>2023-12-27T14:33:57Z</time>
      </trkpt>
      <trkpt lat="49.96759" lon="2.34096">
        <ele>118</ele>
        <time>2023-12-27T14:33:58Z</time>
      </trkpt>
      <trkpt lat="49.9676" lon="2.34095">
        <ele>118</ele>
        <time>2023-12-27T14:33:59Z</time>
      </trkpt>
      <trkpt lat="49.96761" lon="2.34095">
        <ele>118</ele>
        <time>2023-12-27T14:34:00Z</time>
      </trkpt>
      <trkpt lat="49.96762" lon="2.34095">
        <ele>118</ele>
        <time>2023-12-27T14:34:02Z</time>
      </trkpt>
      <trkpt lat="49.96763" lon="2.34095">
        <ele>118</ele>
        <time>2023-12-27T14:34:03Z</time>
      </trkpt>
      <trkpt lat="49.96764" lon="2.34094">
        <ele>118</ele>
        <time>2023-12-27T14:34:04Z</time>
      </trkpt>
      <trkpt lat="49.96765" lon="2.34094">
        <ele>118</ele>
        <time>2023-12-27T14:34:05Z</time>
      </trkpt>
      <trkpt lat="49.96767" lon="2.34094">
        <ele>118</ele>
        <time>2023-12-27T14:34:07Z</time>
      </trkpt>
      <trkpt lat="49.96768" lon="2.34094">
        <ele>118</ele>
        <time>2023-12-27T14:34:09Z</time>
      </trkpt>
      <trkpt lat="49.96769" lon="2.34094">
        <ele>118</ele>
        <time>2023-12-27T14:34:10Z</time>
      </trkpt>
      <trkpt lat="49.9677" lon="2.34095">
        <ele>118</ele>
        <time>2023-12-27T14:34:11Z</time>
      </trkpt>
      <trkpt lat="49.9677" lon="2.34095">
        <ele>118</ele>
        <time>2023-12-27T14:34:12Z</time>
      </trkpt>
      <trkpt lat="49.96772" lon="2.34095">
        <ele>118</ele>
        <time>2023-12-27T14:34:13Z</time>
      </trkpt>
      <trkpt lat="49.96773" lon="2.34095">
        <ele>118</ele>
        <time>2023-12-27T14:34:15Z</time>
      </trkpt>
      <trkpt lat="49.96774" lon="2.34095">
        <ele>118</ele>
        <time>2023-12-27T14:34:16Z</time>
      </trkpt>
      <trkpt lat="49.96775" lon="2.34094">
        <ele>118</ele>
        <time>2023-12-27T14:34:17Z</time>
      </trkpt>
      <trkpt lat="49.96776" lon="2.34094">
        <ele>118</ele>
        <time>2023-12-27T14:34:18Z</time>
      </trkpt>
      <trkpt lat="49.96777" lon="2.34094">
        <ele>118</ele>
        <time>2023-12-27T14:34:20Z</time>
      </trkpt>
      <trkpt lat="49.96778" lon="2.34094">
        <ele>118</ele>
        <time>2023-12-27T14:34:21Z</time>
      </trkpt>
      <trkpt lat="49.96779" lon="2.34094">
        <ele>118</ele>
        <time>2023-12-27T14:34:22Z</time>
      </trkpt>
      <trkpt lat="49.9678" lon="2.34094">
        <ele>118</ele>
        <time>2023-12-27T14:34:23Z</time>
      </trkpt>
      <trkpt lat="49.96782" lon="2.34094">
        <ele>118</ele>
        <time>2023-12-27T14:34:25Z</time>
      </trkpt>
      <trkpt lat="49.96783" lon="2.34094">
        <ele>118</ele>
        <time>2023-12-27T14:34:26Z</time>
      </trkpt>
      <trkpt lat="49.96784" lon="2.34094">
        <ele>118</ele>
        <time>2023-12-27T14:34:27Z</time>
      </trkpt>
      <trkpt lat="49.96786" lon="2.34094">
        <ele>118</ele>
        <time>2023-12-27T14:34:29Z</time>
      </trkpt>
      <trkpt lat="49.96787" lon="2.34094">
        <ele>118</ele>
        <time>2023-12-27T14:34:30Z</time>
      </trkpt>
      <trkpt lat="49.96788" lon="2.34095">
        <ele>118</ele>
        <time>2023-12-27T14:34:31Z</time>
      </trkpt>
      <trkpt lat="49.96789" lon="2.34095">
        <ele>118</ele>
        <time>2023-12-27T14:34:33Z</time>
      </trkpt>
      <trkpt lat="49.9679" lon="2.34095">
        <ele>118</ele>
        <time>2023-12-27T14:34:34Z</time>
      </trkpt>
      <trkpt lat="49.96791" lon="2.34095">
        <ele>118</ele>
        <time>2023-12-27T14:34:35Z</time>
      </trkpt>
      <trkpt lat="49.96792" lon="2.34095">
        <ele>118</ele>
        <time>2023-12-27T14:34:36Z</time>
      </trkpt>
      <trkpt lat="49.96793" lon="2.34095">
        <ele>118</ele>
        <time>2023-12-27T14:34:37Z</time>
      </trkpt>
      <trkpt lat="49.96794" lon="2.34094">
        <ele>118</ele>
        <time>2023-12-27T14:34:38Z</time>
      </trkpt>
      <trkpt lat="49.96795" lon="2.34094">
        <ele>118</ele>
        <time>2023-12-27T14:34:39Z</time>
      </trkpt>
      <trkpt lat="49.96797" lon="2.34094">
        <ele>118.1</ele>
        <time>2023-12-27T14:34:40Z</time>
      </trkpt>
      <trkpt lat="49.96798" lon="2.34094">
        <ele>118.1</ele>
        <time>2023-12-27T14:34:42Z</time>
      </trkpt>
      <trkpt lat="49.96799" lon="2.34094">
        <ele>118.1</ele>
        <time>2023-12-27T14:34:43Z</time>
      </trkpt>
      <trkpt lat="49.968" lon="2.34094">
        <ele>118.1</ele>
        <time>2023-12-27T14:34:44Z</time>
      </trkpt>
      <trkpt lat="49.96801" lon="2.34094">
        <ele>118.1</ele>
        <time>2023-12-27T14:34:45Z</time>
      </trkpt>
      <trkpt lat="49.96803" lon="2.34094">
        <ele>118.1</ele>
        <time>2023-12-27T14:34:47Z</time>
      </trkpt>
      <trkpt lat="49.96805" lon="2.34094">
        <ele>118.2</ele>
        <time>2023-12-27T14:34:48Z</time>
      </trkpt>
      <trkpt lat="49.96806" lon="2.34093">
        <ele>118.2</ele>
        <time>2023-12-27T14:34:50Z</time>
      </trkpt>
      <trkpt lat="49.96808" lon="2.34093">
        <ele>118.2</ele>
        <time>2023-12-27T14:34:51Z</time>
      </trkpt>
      <trkpt lat="49.96809" lon="2.34093">
        <ele>118.2</ele>
        <time>2023-12-27T14:34:52Z</time>
      </trkpt>
      <trkpt lat="49.9681" lon="2.34093">
        <ele>118.2</ele>
        <time>2023-12-27T14:34:53Z</time>
      </trkpt>
      <trkpt lat="49.96811" lon="2.34093">
        <ele>118.3</ele>
        <time>2023-12-27T14:34:55Z</time>
      </trkpt>
      <trkpt lat="49.96812" lon="2.34092">
        <ele>118.3</ele>
        <time>2023-12-27T14:34:56Z</time>
      </trkpt>
      <trkpt lat="49.96814" lon="2.34092">
        <ele>118.3</ele>
        <time>2023-12-27T14:34:57Z</time>
      </trkpt>
      <trkpt lat="49.96816" lon="2.34092">
        <ele>118.3</ele>
        <time>2023-12-27T14:34:58Z</time>
      </trkpt>
      <trkpt lat="49.96816" lon="2.34092">
        <ele>118.4</ele>
        <time>2023-12-27T14:34:59Z</time>
      </trkpt>
      <trkpt lat="49.96817" lon="2.34092">
        <ele>118.4</ele>
        <time>2023-12-27T14:35:00Z</time>
      </trkpt>
      <trkpt lat="49.96819" lon="2.34092">
        <ele>118.4</ele>
        <time>2023-12-27T14:35:02Z</time>
      </trkpt>
      <trkpt lat="49.9682" lon="2.34092">
        <ele>118.4</ele>
        <time>2023-12-27T14:35:03Z</time>
      </trkpt>
      <trkpt lat="49.96821" lon="2.34092">
        <ele>118.4</ele>
        <time>2023-12-27T14:35:04Z</time>
      </trkpt>
      <trkpt lat="49.96822" lon="2.34092">
        <ele>118.5</ele>
        <time>2023-12-27T14:35:05Z</time>
      </trkpt>
      <trkpt lat="49.96823" lon="2.34092">
        <ele>118.5</ele>
        <time>2023-12-27T14:35:07Z</time>
      </trkpt>
      <trkpt lat="49.96825" lon="2.34092">
        <ele>118.5</ele>
        <time>2023-12-27T14:35:08Z</time>
      </trkpt>
      <trkpt lat="49.96826" lon="2.34092">
        <ele>118.5</ele>
        <time>2023-12-27T14:35:10Z</time>
      </trkpt>
      <trkpt lat="49.96828" lon="2.34093">
        <ele>118.5</ele>
        <time>2023-12-27T14:35:11Z</time>
      </trkpt>
      <trkpt lat="49.96829" lon="2.34093">
        <ele>118.6</ele>
        <time>2023-12-27T14:35:12Z</time>
      </trkpt>
      <trkpt lat="49.96831" lon="2.34094">
        <ele>118.6</ele>
        <time>2023-12-27T14:35:14Z</time>
      </trkpt>
      <trkpt lat="49.96832" lon="2.34094">
        <ele>118.6</ele>
        <time>2023-12-27T14:35:16Z</time>
      </trkpt>
      <trkpt lat="49.96833" lon="2.34094">
        <ele>118.6</ele>
        <time>2023-12-27T14:35:17Z</time>
      </trkpt>
      <trkpt lat="49.96834" lon="2.34094">
        <ele>118.6</ele>
        <time>2023-12-27T14:35:18Z</time>
      </trkpt>
      <trkpt lat="49.96835" lon="2.34093">
        <ele>118.7</ele>
        <time>2023-12-27T14:35:19Z</time>
      </trkpt>
      <trkpt lat="49.96836" lon="2.34093">
        <ele>118.7</ele>
        <time>2023-12-27T14:35:20Z</time>
      </trkpt>
      <trkpt lat="49.96838" lon="2.34093">
        <ele>118.7</ele>
        <time>2023-12-27T14:35:21Z</time>
      </trkpt>
      <trkpt lat="49.96839" lon="2.34092">
        <ele>118.7</ele>
        <time>2023-12-27T14:35:23Z</time>
      </trkpt>
      <trkpt lat="49.9684" lon="2.34092">
        <ele>118.7</ele>
        <time>2023-12-27T14:35:24Z</time>
      </trkpt>
      <trkpt lat="49.96841" lon="2.34092">
        <ele>118.7</ele>
        <time>2023-12-27T14:35:25Z</time>
      </trkpt>
      <trkpt lat="49.96842" lon="2.34092">
        <ele>118.7</ele>
        <time>2023-12-27T14:35:26Z</time>
      </trkpt>
      <trkpt lat="49.96843" lon="2.34092">
        <ele>118.7</ele>
        <time>2023-12-27T14:35:27Z</time>
      </trkpt>
      <trkpt lat="49.96844" lon="2.34092">
        <ele>118.8</ele>
        <time>2023-12-27T14:35:29Z</time>
      </trkpt>
      <trkpt lat="49.96846" lon="2.34092">
        <ele>118.8</ele>
        <time>2023-12-27T14:35:30Z</time>
      </trkpt>
      <trkpt lat="49.96847" lon="2.34093">
        <ele>118.8</ele>
        <time>2023-12-27T14:35:31Z</time>
      </trkpt>
      <trkpt lat="49.96848" lon="2.34093">
        <ele>118.8</ele>
        <time>2023-12-27T14:35:32Z</time>
      </trkpt>
      <trkpt lat="49.96849" lon="2.34093">
        <ele>118.8</ele>
        <time>2023-12-27T14:35:33Z</time>
      </trkpt>
      <trkpt lat="49.96851" lon="2.34093">
        <ele>118.8</ele>
        <time>2023-12-27T14:35:35Z</time>
      </trkpt>
      <trkpt lat="49.96852" lon="2.34093">
        <ele>118.8</ele>
        <time>2023-12-27T14:35:36Z</time>
      </trkpt>
      <trkpt lat="49.96853" lon="2.34093">
        <ele>118.9</ele>
        <time>2023-12-27T14:35:38Z</time>
      </trkpt>
      <trkpt lat="49.96854" lon="2.34092">
        <ele>118.9</ele>
        <time>2023-12-27T14:35:39Z</time>
      </trkpt>
      <trkpt lat="49.96855" lon="2.34092">
        <ele>118.9</ele>
        <time>2023-12-27T14:35:40Z</time>
      </trkpt>
      <trkpt lat="49.96856" lon="2.34093">
        <ele>118.9</ele>
        <time>2023-12-27T14:35:41Z</time>
      </trkpt>
      <trkpt lat="49.96858" lon="2.34093">
        <ele>118.9</ele>
        <time>2023-12-27T14:35:43Z</time>
      </trkpt>
      <trkpt lat="49.96859" lon="2.34093">
        <ele>118.9</ele>
        <time>2023-12-27T14:35:44Z</time>
      </trkpt>
      <trkpt lat="49.9686" lon="2.34093">
        <ele>118.9</ele>
        <time>2023-12-27T14:35:45Z</time>
      </trkpt>
      <trkpt lat="49.96861" lon="2.34094">
        <ele>119</ele>
        <time>2023-12-27T14:35:46Z</time>
      </trkpt>
      <trkpt lat="49.96862" lon="2.34094">
        <ele>119</ele>
        <time>2023-12-27T14:35:47Z</time>
      </trkpt>
      <trkpt lat="49.96863" lon="2.34094">
        <ele>119</ele>
        <time>2023-12-27T14:35:49Z</time>
      </trkpt>
      <trkpt lat="49.96864" lon="2.34094">
        <ele>119</ele>
        <time>2023-12-27T14:35:50Z</time>
      </trkpt>
      <trkpt lat="49.96865" lon="2.34094">
        <ele>119</ele>
        <time>2023-12-27T14:35:51Z</time>
      </trkpt>
      <trkpt lat="49.96866" lon="2.34094">
        <ele>119</ele>
        <time>2023-12-27T14:35:52Z</time>
      </trkpt>
      <trkpt lat="49.96869" lon="2.34094">
        <ele>119.1</ele>
        <time>2023-12-27T14:35:53Z</time>
      </trkpt>
      <trkpt lat="49.9687" lon="2.34093">
        <ele>119.1</ele>
        <time>2023-12-27T14:35:55Z</time>
      </trkpt>
      <trkpt lat="49.96871" lon="2.34093">
        <ele>119.1</ele>
        <time>2023-12-27T14:35:56Z</time>
      </trkpt>
      <trkpt lat="49.96872" lon="2.34093">
        <ele>119.1</ele>
        <time>2023-12-27T14:35:57Z</time>
      </trkpt>
      <trkpt lat="49.96873" lon="2.34092">
        <ele>119.1</ele>
        <time>2023-12-27T14:35:58Z</time>
      </trkpt>
      <trkpt lat="49.96874" lon="2.34092">
        <ele>119.1</ele>
        <time>2023-12-27T14:35:59Z</time>
      </trkpt>
      <trkpt lat="49.96875" lon="2.34092">
        <ele>119.1</ele>
        <time>2023-12-27T14:36:01Z</time>
      </trkpt>
      <trkpt lat="49.96877" lon="2.34092">
        <ele>119.2</ele>
        <time>2023-12-27T14:36:02Z</time>
      </trkpt>
      <trkpt lat="49.96878" lon="2.34092">
        <ele>119.2</ele>
        <time>2023-12-27T14:36:03Z</time>
      </trkpt>
      <trkpt lat="49.96879" lon="2.34091">
        <ele>119.2</ele>
        <time>2023-12-27T14:36:04Z</time>
      </trkpt>
      <trkpt lat="49.9688" lon="2.34091">
        <ele>119.2</ele>
        <time>2023-12-27T14:36:06Z</time>
      </trkpt>
      <trkpt lat="49.96881" lon="2.34091">
        <ele>119.2</ele>
        <time>2023-12-27T14:36:07Z</time>
      </trkpt>
      <trkpt lat="49.96882" lon="2.34091">
        <ele>119.2</ele>
        <time>2023-12-27T14:36:08Z</time>
      </trkpt>
      <trkpt lat="49.96883" lon="2.34091">
        <ele>119.2</ele>
        <time>2023-12-27T14:36:09Z</time>
      </trkpt>
      <trkpt lat="49.96885" lon="2.34091">
        <ele>119.2</ele>
        <time>2023-12-27T14:36:10Z</time>
      </trkpt>
      <trkpt lat="49.96885" lon="2.34091">
        <ele>119.2</ele>
        <time>2023-12-27T14:36:11Z</time>
      </trkpt>
      <trkpt lat="49.96886" lon="2.34091">
        <ele>119.3</ele>
        <time>2023-12-27T14:36:12Z</time>
      </trkpt>
      <trkpt lat="49.96887" lon="2.34091">
        <ele>119.3</ele>
        <time>2023-12-27T14:36:13Z</time>
      </trkpt>
      <trkpt lat="49.96888" lon="2.34091">
        <ele>119.3</ele>
        <time>2023-12-27T14:36:14Z</time>
      </trkpt>
      <trkpt lat="49.96889" lon="2.34091">
        <ele>119.3</ele>
        <time>2023-12-27T14:36:16Z</time>
      </trkpt>
      <trkpt lat="49.9689" lon="2.34091">
        <ele>119.3</ele>
        <time>2023-12-27T14:36:17Z</time>
      </trkpt>
      <trkpt lat="49.96891" lon="2.34091">
        <ele>119.3</ele>
        <time>2023-12-27T14:36:18Z</time>
      </trkpt>
      <trkpt lat="49.96892" lon="2.34091">
        <ele>119.3</ele>
        <time>2023-12-27T14:36:19Z</time>
      </trkpt>
      <trkpt lat="49.96893" lon="2.34091">
        <ele>119.3</ele>
        <time>2023-12-27T14:36:21Z</time>
      </trkpt>
      <trkpt lat="49.96894" lon="2.3409">
        <ele>119.4</ele>
        <time>2023-12-27T14:36:23Z</time>
      </trkpt>
      <trkpt lat="49.96895" lon="2.3409">
        <ele>119.4</ele>
        <time>2023-12-27T14:36:24Z</time>
      </trkpt>
      <trkpt lat="49.96896" lon="2.3409">
        <ele>119.4</ele>
        <time>2023-12-27T14:36:25Z</time>
      </trkpt>
      <trkpt lat="49.96896" lon="2.3409">
        <ele>119.4</ele>
        <time>2023-12-27T14:36:26Z</time>
      </trkpt>
      <trkpt lat="49.96897" lon="2.34089">
        <ele>119.4</ele>
        <time>2023-12-27T14:36:27Z</time>
      </trkpt>
      <trkpt lat="49.96898" lon="2.34089">
        <ele>119.4</ele>
        <time>2023-12-27T14:36:29Z</time>
      </trkpt>
      <trkpt lat="49.96899" lon="2.34089">
        <ele>119.4</ele>
        <time>2023-12-27T14:36:30Z</time>
      </trkpt>
      <trkpt lat="49.969" lon="2.34089">
        <ele>119.4</ele>
        <time>2023-12-27T14:36:31Z</time>
      </trkpt>
      <trkpt lat="49.96901" lon="2.34089">
        <ele>119.5</ele>
        <time>2023-12-27T14:36:32Z</time>
      </trkpt>
      <trkpt lat="49.96902" lon="2.34089">
        <ele>119.5</ele>
        <time>2023-12-27T14:36:33Z</time>
      </trkpt>
      <trkpt lat="49.96904" lon="2.34089">
        <ele>119.5</ele>
        <time>2023-12-27T14:36:34Z</time>
      </trkpt>
      <trkpt lat="49.96905" lon="2.34088">
        <ele>119.5</ele>
        <time>2023-12-27T14:36:36Z</time>
      </trkpt>
      <trkpt lat="49.96906" lon="2.34088">
        <ele>119.5</ele>
        <time>2023-12-27T14:36:37Z</time>
      </trkpt>
      <trkpt lat="49.96908" lon="2.34088">
        <ele>119.5</ele>
        <time>2023-12-27T14:36:38Z</time>
      </trkpt>
      <trkpt lat="49.96909" lon="2.34088">
        <ele>119.6</ele>
        <time>2023-12-27T14:36:39Z</time>
      </trkpt>
      <trkpt lat="49.9691" lon="2.34087">
        <ele>119.6</ele>
        <time>2023-12-27T14:36:40Z</time>
      </trkpt>
      <trkpt lat="49.96911" lon="2.34087">
        <ele>119.6</ele>
        <time>2023-12-27T14:36:42Z</time>
      </trkpt>
      <trkpt lat="49.96912" lon="2.34087">
        <ele>119.6</ele>
        <time>2023-12-27T14:36:43Z</time>
      </trkpt>
      <trkpt lat="49.96913" lon="2.34087">
        <ele>119.6</ele>
        <time>2023-12-27T14:36:44Z</time>
      </trkpt>
      <trkpt lat="49.96914" lon="2.34088">
        <ele>119.6</ele>
        <time>2023-12-27T14:36:45Z</time>
      </trkpt>
      <trkpt lat="49.96915" lon="2.34088">
        <ele>119.7</ele>
        <time>2023-12-27T14:36:47Z</time>
      </trkpt>
      <trkpt lat="49.96916" lon="2.34088">
        <ele>119.7</ele>
        <time>2023-12-27T14:36:48Z</time>
      </trkpt>
      <trkpt lat="49.96917" lon="2.34088">
        <ele>119.7</ele>
        <time>2023-12-27T14:36:49Z</time>
      </trkpt>
      <trkpt lat="49.96918" lon="2.34088">
        <ele>119.7</ele>
        <time>2023-12-27T14:36:50Z</time>
      </trkpt>
      <trkpt lat="49.96919" lon="2.34088">
        <ele>119.7</ele>
        <time>2023-12-27T14:36:51Z</time>
      </trkpt>
      <trkpt lat="49.9692" lon="2.34088">
        <ele>119.7</ele>
        <time>2023-12-27T14:36:52Z</time>
      </trkpt>
      <trkpt lat="49.96921" lon="2.34088">
        <ele>119.7</ele>
        <time>2023-12-27T14:36:53Z</time>
      </trkpt>
      <trkpt lat="49.96922" lon="2.34088">
        <ele>119.8</ele>
        <time>2023-12-27T14:36:55Z</time>
      </trkpt>
      <trkpt lat="49.96923" lon="2.34088">
        <ele>119.8</ele>
        <time>2023-12-27T14:36:56Z</time>
      </trkpt>
      <trkpt lat="49.96924" lon="2.34088">
        <ele>119.8</ele>
        <time>2023-12-27T14:36:57Z</time>
      </trkpt>
      <trkpt lat="49.96925" lon="2.34087">
        <ele>119.8</ele>
        <time>2023-12-27T14:36:58Z</time>
      </trkpt>
      <trkpt lat="49.96926" lon="2.34087">
        <ele>119.8</ele>
        <time>2023-12-27T14:36:59Z</time>
      </trkpt>
      <trkpt lat="49.96927" lon="2.34087">
        <ele>119.8</ele>
        <time>2023-12-27T14:37:00Z</time>
      </trkpt>
      <trkpt lat="49.96929" lon="2.34087">
        <ele>119.9</ele>
        <time>2023-12-27T14:37:02Z</time>
      </trkpt>
      <trkpt lat="49.9693" lon="2.34087">
        <ele>119.9</ele>
        <time>2023-12-27T14:37:03Z</time>
      </trkpt>
      <trkpt lat="49.96931" lon="2.34087">
        <ele>119.9</ele>
        <time>2023-12-27T14:37:04Z</time>
      </trkpt>
      <trkpt lat="49.96932" lon="2.34087">
        <ele>119.9</ele>
        <time>2023-12-27T14:37:05Z</time>
      </trkpt>
      <trkpt lat="49.96933" lon="2.34087">
        <ele>119.9</ele>
        <time>2023-12-27T14:37:06Z</time>
      </trkpt>
      <trkpt lat="49.96934" lon="2.34087">
        <ele>119.9</ele>
        <time>2023-12-27T14:37:07Z</time>
      </trkpt>
      <trkpt lat="49.96935" lon="2.34087">
        <ele>119.9</ele>
        <time>2023-12-27T14:37:09Z</time>
      </trkpt>
      <trkpt lat="49.96935" lon="2.34087">
        <ele>119.9</ele>
        <time>2023-12-27T14:37:10Z</time>
      </trkpt>
      <trkpt lat="49.96936" lon="2.34087">
        <ele>119.9</ele>
        <time>2023-12-27T14:37:11Z</time>
      </trkpt>
      <trkpt lat="49.96937" lon="2.34087">
        <ele>119.9</ele>
        <time>2023-12-27T14:37:12Z</time>
      </trkpt>
      <trkpt lat="49.96938" lon="2.34087">
        <ele>119.9</ele>
        <time>2023-12-27T14:37:13Z</time>
      </trkpt>
      <trkpt lat="49.96939" lon="2.34087">
        <ele>120</ele>
        <time>2023-12-27T14:37:14Z</time>
      </trkpt>
      <trkpt lat="49.96939" lon="2.34087">
        <ele>120</ele>
        <time>2023-12-27T14:37:15Z</time>
      </trkpt>
      <trkpt lat="49.9694" lon="2.34087">
        <ele>120</ele>
        <time>2023-12-27T14:37:17Z</time>
      </trkpt>
      <trkpt lat="49.96941" lon="2.34087">
        <ele>120</ele>
        <time>2023-12-27T14:37:18Z</time>
      </trkpt>
      <trkpt lat="49.96942" lon="2.34087">
        <ele>120</ele>
        <time>2023-12-27T14:37:19Z</time>
      </trkpt>
      <trkpt lat="49.96942" lon="2.34087">
        <ele>120</ele>
        <time>2023-12-27T14:37:20Z</time>
      </trkpt>
      <trkpt lat="49.96943" lon="2.34087">
        <ele>120</ele>
        <time>2023-12-27T14:37:21Z</time>
      </trkpt>
      <trkpt lat="49.96944" lon="2.34087">
        <ele>120</ele>
        <time>2023-12-27T14:37:22Z</time>
      </trkpt>
      <trkpt lat="49.96946" lon="2.34087">
        <ele>120</ele>
        <time>2023-12-27T14:37:24Z</time>
      </trkpt>
      <trkpt lat="49.96947" lon="2.34087">
        <ele>120</ele>
        <time>2023-12-27T14:37:25Z</time>
      </trkpt>
      <trkpt lat="49.96948" lon="2.34087">
        <ele>120.1</ele>
        <time>2023-12-27T14:37:26Z</time>
      </trkpt>
      <trkpt lat="49.96949" lon="2.34087">
        <ele>120.1</ele>
        <time>2023-12-27T14:37:27Z</time>
      </trkpt>
      <trkpt lat="49.9695" lon="2.34087">
        <ele>120.1</ele>
        <time>2023-12-27T14:37:28Z</time>
      </trkpt>
      <trkpt lat="49.96951" lon="2.34087">
        <ele>120.1</ele>
        <time>2023-12-27T14:37:29Z</time>
      </trkpt>
      <trkpt lat="49.96952" lon="2.34087">
        <ele>120.1</ele>
        <time>2023-12-27T14:37:31Z</time>
      </trkpt>
      <trkpt lat="49.96953" lon="2.34087">
        <ele>120.1</ele>
        <time>2023-12-27T14:37:32Z</time>
      </trkpt>
      <trkpt lat="49.96954" lon="2.34087">
        <ele>120.1</ele>
        <time>2023-12-27T14:37:33Z</time>
      </trkpt>
      <trkpt lat="49.96956" lon="2.34086">
        <ele>120.2</ele>
        <time>2023-12-27T14:37:34Z</time>
      </trkpt>
      <trkpt lat="49.96957" lon="2.34086">
        <ele>120.2</ele>
        <time>2023-12-27T14:37:35Z</time>
      </trkpt>
      <trkpt lat="49.96958" lon="2.34086">
        <ele>120.2</ele>
        <time>2023-12-27T14:37:36Z</time>
      </trkpt>
      <trkpt lat="49.96959" lon="2.34086">
        <ele>120.2</ele>
        <time>2023-12-27T14:37:38Z</time>
      </trkpt>
      <trkpt lat="49.9696" lon="2.34086">
        <ele>120.2</ele>
        <time>2023-12-27T14:37:39Z</time>
      </trkpt>
      <trkpt lat="49.96961" lon="2.34085">
        <ele>120.2</ele>
        <time>2023-12-27T14:37:40Z</time>
      </trkpt>
      <trkpt lat="49.96962" lon="2.34085">
        <ele>120.3</ele>
        <time>2023-12-27T14:37:41Z</time>
      </trkpt>
      <trkpt lat="49.96964" lon="2.34086">
        <ele>120.3</ele>
        <time>2023-12-27T14:37:42Z</time>
      </trkpt>
      <trkpt lat="49.96965" lon="2.34086">
        <ele>120.3</ele>
        <time>2023-12-27T14:37:44Z</time>
      </trkpt>
      <trkpt lat="49.96966" lon="2.34086">
        <ele>120.3</ele>
        <time>2023-12-27T14:37:45Z</time>
      </trkpt>
      <trkpt lat="49.96967" lon="2.34086">
        <ele>120.3</ele>
        <time>2023-12-27T14:37:46Z</time>
      </trkpt>
      <trkpt lat="49.96968" lon="2.34086">
        <ele>120.3</ele>
        <time>2023-12-27T14:37:48Z</time>
      </trkpt>
      <trkpt lat="49.96969" lon="2.34085">
        <ele>120.4</ele>
        <time>2023-12-27T14:37:49Z</time>
      </trkpt>
      <trkpt lat="49.9697" lon="2.34085">
        <ele>120.4</ele>
        <time>2023-12-27T14:37:50Z</time>
      </trkpt>
      <trkpt lat="49.96971" lon="2.34085">
        <ele>120.4</ele>
        <time>2023-12-27T14:37:51Z</time>
      </trkpt>
      <trkpt lat="49.96972" lon="2.34085">
        <ele>120.4</ele>
        <time>2023-12-27T14:37:52Z</time>
      </trkpt>
      <trkpt lat="49.96973" lon="2.34085">
        <ele>120.4</ele>
        <time>2023-12-27T14:37:53Z</time>
      </trkpt>
      <trkpt lat="49.96975" lon="2.34085">
        <ele>120.4</ele>
        <time>2023-12-27T14:37:55Z</time>
      </trkpt>
      <trkpt lat="49.96976" lon="2.34085">
        <ele>120.4</ele>
        <time>2023-12-27T14:37:56Z</time>
      </trkpt>
      <trkpt lat="49.96977" lon="2.34085">
        <ele>120.4</ele>
        <time>2023-12-27T14:37:57Z</time>
      </trkpt>
      <trkpt lat="49.96978" lon="2.34085">
        <ele>120.4</ele>
        <time>2023-12-27T14:37:58Z</time>
      </trkpt>
      <trkpt lat="49.96979" lon="2.34084">
        <ele>120.4</ele>
        <time>2023-12-27T14:37:59Z</time>
      </trkpt>
      <trkpt lat="49.9698" lon="2.34084">
        <ele>120.4</ele>
        <time>2023-12-27T14:38:00Z</time>
      </trkpt>
      <trkpt lat="49.96981" lon="2.34085">
        <ele>120.4</ele>
        <time>2023-12-27T14:38:01Z</time>
      </trkpt>
      <trkpt lat="49.96982" lon="2.34085">
        <ele>120.4</ele>
        <time>2023-12-27T14:38:02Z</time>
      </trkpt>
      <trkpt lat="49.96984" lon="2.34085">
        <ele>120.4</ele>
        <time>2023-12-27T14:38:03Z</time>
      </trkpt>
      <trkpt lat="49.96985" lon="2.34085">
        <ele>120.4</ele>
        <time>2023-12-27T14:38:05Z</time>
      </trkpt>
      <trkpt lat="49.96986" lon="2.34085">
        <ele>120.4</ele>
        <time>2023-12-27T14:38:06Z</time>
      </trkpt>
      <trkpt lat="49.96987" lon="2.34085">
        <ele>120.4</ele>
        <time>2023-12-27T14:38:07Z</time>
      </trkpt>
      <trkpt lat="49.96989" lon="2.34085">
        <ele>120.4</ele>
        <time>2023-12-27T14:38:08Z</time>
      </trkpt>
      <trkpt lat="49.9699" lon="2.34085">
        <ele>120.4</ele>
        <time>2023-12-27T14:38:10Z</time>
      </trkpt>
      <trkpt lat="49.96991" lon="2.34086">
        <ele>120.4</ele>
        <time>2023-12-27T14:38:11Z</time>
      </trkpt>
      <trkpt lat="49.96992" lon="2.34086">
        <ele>120.4</ele>
        <time>2023-12-27T14:38:12Z</time>
      </trkpt>
      <trkpt lat="49.96993" lon="2.34086">
        <ele>120.4</ele>
        <time>2023-12-27T14:38:14Z</time>
      </trkpt>
      <trkpt lat="49.96995" lon="2.34086">
        <ele>120.4</ele>
        <time>2023-12-27T14:38:15Z</time>
      </trkpt>
      <trkpt lat="49.96996" lon="2.34085">
        <ele>120.4</ele>
        <time>2023-12-27T14:38:17Z</time>
      </trkpt>
      <trkpt lat="49.96997" lon="2.34085">
        <ele>120.4</ele>
        <time>2023-12-27T14:38:18Z</time>
      </trkpt>
      <trkpt lat="49.96998" lon="2.34085">
        <ele>120.4</ele>
        <time>2023-12-27T14:38:19Z</time>
      </trkpt>
      <trkpt lat="49.96999" lon="2.34085">
        <ele>120.4</ele>
        <time>2023-12-27T14:38:20Z</time>
      </trkpt>
      <trkpt lat="49.97001" lon="2.34085">
        <ele>120.4</ele>
        <time>2023-12-27T14:38:21Z</time>
      </trkpt>
      <trkpt lat="49.97002" lon="2.34085">
        <ele>120.4</ele>
        <time>2023-12-27T14:38:22Z</time>
      </trkpt>
      <trkpt lat="49.97003" lon="2.34085">
        <ele>120.4</ele>
        <time>2023-12-27T14:38:24Z</time>
      </trkpt>
      <trkpt lat="49.97004" lon="2.34084">
        <ele>120.4</ele>
        <time>2023-12-27T14:38:26Z</time>
      </trkpt>
      <trkpt lat="49.97006" lon="2.34084">
        <ele>120.4</ele>
        <time>2023-12-27T14:38:27Z</time>
      </trkpt>
      <trkpt lat="49.97006" lon="2.34084">
        <ele>120.4</ele>
        <time>2023-12-27T14:38:28Z</time>
      </trkpt>
      <trkpt lat="49.97007" lon="2.34084">
        <ele>120.4</ele>
        <time>2023-12-27T14:38:29Z</time>
      </trkpt>
      <trkpt lat="49.97008" lon="2.34085">
        <ele>120.4</ele>
        <time>2023-12-27T14:38:30Z</time>
      </trkpt>
      <trkpt lat="49.97011" lon="2.34086">
        <ele>120.4</ele>
        <time>2023-12-27T14:38:31Z</time>
      </trkpt>
      <trkpt lat="49.97012" lon="2.34086">
        <ele>120.4</ele>
        <time>2023-12-27T14:38:33Z</time>
      </trkpt>
      <trkpt lat="49.97013" lon="2.34087">
        <ele>120.4</ele>
        <time>2023-12-27T14:38:34Z</time>
      </trkpt>
      <trkpt lat="49.97014" lon="2.34087">
        <ele>120.4</ele>
        <time>2023-12-27T14:38:35Z</time>
      </trkpt>
      <trkpt lat="49.97015" lon="2.34088">
        <ele>120.4</ele>
        <time>2023-12-27T14:38:36Z</time>
      </trkpt>
      <trkpt lat="49.97016" lon="2.34088">
        <ele>120.4</ele>
        <time>2023-12-27T14:38:38Z</time>
      </trkpt>
      <trkpt lat="49.97017" lon="2.34087">
        <ele>120.4</ele>
        <time>2023-12-27T14:38:39Z</time>
      </trkpt>
      <trkpt lat="49.97018" lon="2.34087">
        <ele>120.4</ele>
        <time>2023-12-27T14:38:40Z</time>
      </trkpt>
      <trkpt lat="49.9702" lon="2.34086">
        <ele>120.4</ele>
        <time>2023-12-27T14:38:41Z</time>
      </trkpt>
      <trkpt lat="49.97021" lon="2.34086">
        <ele>120.4</ele>
        <time>2023-12-27T14:38:43Z</time>
      </trkpt>
      <trkpt lat="49.97022" lon="2.34085">
        <ele>120.4</ele>
        <time>2023-12-27T14:38:44Z</time>
      </trkpt>
      <trkpt lat="49.97023" lon="2.34085">
        <ele>120.4</ele>
        <time>2023-12-27T14:38:45Z</time>
      </trkpt>
      <trkpt lat="49.97024" lon="2.34085">
        <ele>120.4</ele>
        <time>2023-12-27T14:38:46Z</time>
      </trkpt>
      <trkpt lat="49.97025" lon="2.34084">
        <ele>120.4</ele>
        <time>2023-12-27T14:38:47Z</time>
      </trkpt>
      <trkpt lat="49.97027" lon="2.34084">
        <ele>120.4</ele>
        <time>2023-12-27T14:38:49Z</time>
      </trkpt>
      <trkpt lat="49.97028" lon="2.34084">
        <ele>120.4</ele>
        <time>2023-12-27T14:38:50Z</time>
      </trkpt>
      <trkpt lat="49.97029" lon="2.34083">
        <ele>120.4</ele>
        <time>2023-12-27T14:38:51Z</time>
      </trkpt>
      <trkpt lat="49.9703" lon="2.34083">
        <ele>120.4</ele>
        <time>2023-12-27T14:38:52Z</time>
      </trkpt>
      <trkpt lat="49.97032" lon="2.34083">
        <ele>120.3</ele>
        <time>2023-12-27T14:38:54Z</time>
      </trkpt>
      <trkpt lat="49.97033" lon="2.34083">
        <ele>120.3</ele>
        <time>2023-12-27T14:38:55Z</time>
      </trkpt>
      <trkpt lat="49.97033" lon="2.34083">
        <ele>120.3</ele>
        <time>2023-12-27T14:38:56Z</time>
      </trkpt>
      <trkpt lat="49.97034" lon="2.34083">
        <ele>120.3</ele>
        <time>2023-12-27T14:38:57Z</time>
      </trkpt>
      <trkpt lat="49.97035" lon="2.34082">
        <ele>120.3</ele>
        <time>2023-12-27T14:38:58Z</time>
      </trkpt>
      <trkpt lat="49.97036" lon="2.34082">
        <ele>120.3</ele>
        <time>2023-12-27T14:38:59Z</time>
      </trkpt>
      <trkpt lat="49.97037" lon="2.34082">
        <ele>120.3</ele>
        <time>2023-12-27T14:39:00Z</time>
      </trkpt>
      <trkpt lat="49.97038" lon="2.34082">
        <ele>120.3</ele>
        <time>2023-12-27T14:39:02Z</time>
      </trkpt>
      <trkpt lat="49.97039" lon="2.34082">
        <ele>120.3</ele>
        <time>2023-12-27T14:39:03Z</time>
      </trkpt>
      <trkpt lat="49.9704" lon="2.34082">
        <ele>120.3</ele>
        <time>2023-12-27T14:39:04Z</time>
      </trkpt>
      <trkpt lat="49.97041" lon="2.34081">
        <ele>120.3</ele>
        <time>2023-12-27T14:39:05Z</time>
      </trkpt>
      <trkpt lat="49.97042" lon="2.34081">
        <ele>120.2</ele>
        <time>2023-12-27T14:39:06Z</time>
      </trkpt>
      <trkpt lat="49.97043" lon="2.3408">
        <ele>120.2</ele>
        <time>2023-12-27T14:39:07Z</time>
      </trkpt>
      <trkpt lat="49.97044" lon="2.3408">
        <ele>120.2</ele>
        <time>2023-12-27T14:39:08Z</time>
      </trkpt>
      <trkpt lat="49.97045" lon="2.3408">
        <ele>120.2</ele>
        <time>2023-12-27T14:39:10Z</time>
      </trkpt>
      <trkpt lat="49.97046" lon="2.34079">
        <ele>120.2</ele>
        <time>2023-12-27T14:39:11Z</time>
      </trkpt>
      <trkpt lat="49.97047" lon="2.34079">
        <ele>120.2</ele>
        <time>2023-12-27T14:39:12Z</time>
      </trkpt>
      <trkpt lat="49.97048" lon="2.34079">
        <ele>120.2</ele>
        <time>2023-12-27T14:39:13Z</time>
      </trkpt>
      <trkpt lat="49.97049" lon="2.34079">
        <ele>120.2</ele>
        <time>2023-12-27T14:39:14Z</time>
      </trkpt>
      <trkpt lat="49.9705" lon="2.34079">
        <ele>120.2</ele>
        <time>2023-12-27T14:39:15Z</time>
      </trkpt>
      <trkpt lat="49.97051" lon="2.34079">
        <ele>120.2</ele>
        <time>2023-12-27T14:39:16Z</time>
      </trkpt>
      <trkpt lat="49.97052" lon="2.3408">
        <ele>120.2</ele>
        <time>2023-12-27T14:39:17Z</time>
      </trkpt>
      <trkpt lat="49.97053" lon="2.3408">
        <ele>120.1</ele>
        <time>2023-12-27T14:39:19Z</time>
      </trkpt>
      <trkpt lat="49.97054" lon="2.3408">
        <ele>120.1</ele>
        <time>2023-12-27T14:39:20Z</time>
      </trkpt>
      <trkpt lat="49.97055" lon="2.3408">
        <ele>120.1</ele>
        <time>2023-12-27T14:39:21Z</time>
      </trkpt>
      <trkpt lat="49.97056" lon="2.3408">
        <ele>120.1</ele>
        <time>2023-12-27T14:39:22Z</time>
      </trkpt>
      <trkpt lat="49.97058" lon="2.3408">
        <ele>120.1</ele>
        <time>2023-12-27T14:39:24Z</time>
      </trkpt>
      <trkpt lat="49.97059" lon="2.3408">
        <ele>120.1</ele>
        <time>2023-12-27T14:39:25Z</time>
      </trkpt>
      <trkpt lat="49.9706" lon="2.3408">
        <ele>120.1</ele>
        <time>2023-12-27T14:39:26Z</time>
      </trkpt>
      <trkpt lat="49.97061" lon="2.3408">
        <ele>120.1</ele>
        <time>2023-12-27T14:39:27Z</time>
      </trkpt>
      <trkpt lat="49.97063" lon="2.3408">
        <ele>120.1</ele>
        <time>2023-12-27T14:39:28Z</time>
      </trkpt>
      <trkpt lat="49.97064" lon="2.3408">
        <ele>120.1</ele>
        <time>2023-12-27T14:39:30Z</time>
      </trkpt>
      <trkpt lat="49.97064" lon="2.3408">
        <ele>120.1</ele>
        <time>2023-12-27T14:39:31Z</time>
      </trkpt>
      <trkpt lat="49.97066" lon="2.3408">
        <ele>120.1</ele>
        <time>2023-12-27T14:39:32Z</time>
      </trkpt>
      <trkpt lat="49.97067" lon="2.3408">
        <ele>120.1</ele>
        <time>2023-12-27T14:39:33Z</time>
      </trkpt>
      <trkpt lat="49.97068" lon="2.3408">
        <ele>120.1</ele>
        <time>2023-12-27T14:39:35Z</time>
      </trkpt>
      <trkpt lat="49.97069" lon="2.34079">
        <ele>120</ele>
        <time>2023-12-27T14:39:36Z</time>
      </trkpt>
      <trkpt lat="49.9707" lon="2.34079">
        <ele>120</ele>
        <time>2023-12-27T14:39:37Z</time>
      </trkpt>
      <trkpt lat="49.97072" lon="2.34079">
        <ele>120</ele>
        <time>2023-12-27T14:39:38Z</time>
      </trkpt>
      <trkpt lat="49.97074" lon="2.3408">
        <ele>120</ele>
        <time>2023-12-27T14:39:40Z</time>
      </trkpt>
      <trkpt lat="49.97074" lon="2.3408">
        <ele>120</ele>
        <time>2023-12-27T14:39:41Z</time>
      </trkpt>
      <trkpt lat="49.97075" lon="2.3408">
        <ele>120</ele>
        <time>2023-12-27T14:39:42Z</time>
      </trkpt>
      <trkpt lat="49.97076" lon="2.3408">
        <ele>120</ele>
        <time>2023-12-27T14:39:43Z</time>
      </trkpt>
      <trkpt lat="49.97078" lon="2.34081">
        <ele>120</ele>
        <time>2023-12-27T14:39:44Z</time>
      </trkpt>
      <trkpt lat="49.9708" lon="2.34081">
        <ele>120</ele>
        <time>2023-12-27T14:39:46Z</time>
      </trkpt>
      <trkpt lat="49.97082" lon="2.34081">
        <ele>120</ele>
        <time>2023-12-27T14:39:48Z</time>
      </trkpt>
      <trkpt lat="49.97084" lon="2.34081">
        <ele>120</ele>
        <time>2023-12-27T14:39:49Z</time>
      </trkpt>
      <trkpt lat="49.97085" lon="2.34082">
        <ele>120</ele>
        <time>2023-12-27T14:39:50Z</time>
      </trkpt>
      <trkpt lat="49.97086" lon="2.34082">
        <ele>119.9</ele>
        <time>2023-12-27T14:39:51Z</time>
      </trkpt>
      <trkpt lat="49.97088" lon="2.34082">
        <ele>119.9</ele>
        <time>2023-12-27T14:39:53Z</time>
      </trkpt>
      <trkpt lat="49.97089" lon="2.34082">
        <ele>119.9</ele>
        <time>2023-12-27T14:39:54Z</time>
      </trkpt>
      <trkpt lat="49.9709" lon="2.34082">
        <ele>119.9</ele>
        <time>2023-12-27T14:39:55Z</time>
      </trkpt>
      <trkpt lat="49.97091" lon="2.34083">
        <ele>119.9</ele>
        <time>2023-12-27T14:39:56Z</time>
      </trkpt>
      <trkpt lat="49.97092" lon="2.34083">
        <ele>119.9</ele>
        <time>2023-12-27T14:39:57Z</time>
      </trkpt>
      <trkpt lat="49.97094" lon="2.34084">
        <ele>119.9</ele>
        <time>2023-12-27T14:39:59Z</time>
      </trkpt>
      <trkpt lat="49.97096" lon="2.34084">
        <ele>119.9</ele>
        <time>2023-12-27T14:40:00Z</time>
      </trkpt>
      <trkpt lat="49.97097" lon="2.34084">
        <ele>119.9</ele>
        <time>2023-12-27T14:40:01Z</time>
      </trkpt>
      <trkpt lat="49.97098" lon="2.34084">
        <ele>119.9</ele>
        <time>2023-12-27T14:40:02Z</time>
      </trkpt>
      <trkpt lat="49.97099" lon="2.34084">
        <ele>119.9</ele>
        <time>2023-12-27T14:40:03Z</time>
      </trkpt>
      <trkpt lat="49.971" lon="2.34084">
        <ele>119.8</ele>
        <time>2023-12-27T14:40:05Z</time>
      </trkpt>
      <trkpt lat="49.97101" lon="2.34084">
        <ele>119.8</ele>
        <time>2023-12-27T14:40:06Z</time>
      </trkpt>
      <trkpt lat="49.97102" lon="2.34084">
        <ele>119.8</ele>
        <time>2023-12-27T14:40:07Z</time>
      </trkpt>
      <trkpt lat="49.97103" lon="2.34083">
        <ele>119.8</ele>
        <time>2023-12-27T14:40:08Z</time>
      </trkpt>
      <trkpt lat="49.97105" lon="2.34083">
        <ele>119.8</ele>
        <time>2023-12-27T14:40:10Z</time>
      </trkpt>
      <trkpt lat="49.97106" lon="2.34083">
        <ele>119.8</ele>
        <time>2023-12-27T14:40:11Z</time>
      </trkpt>
      <trkpt lat="49.97107" lon="2.34083">
        <ele>119.8</ele>
        <time>2023-12-27T14:40:12Z</time>
      </trkpt>
      <trkpt lat="49.97108" lon="2.34083">
        <ele>119.7</ele>
        <time>2023-12-27T14:40:13Z</time>
      </trkpt>
      <trkpt lat="49.97109" lon="2.34083">
        <ele>119.7</ele>
        <time>2023-12-27T14:40:14Z</time>
      </trkpt>
      <trkpt lat="49.97111" lon="2.34083">
        <ele>119.7</ele>
        <time>2023-12-27T14:40:15Z</time>
      </trkpt>
      <trkpt lat="49.97112" lon="2.34083">
        <ele>119.7</ele>
        <time>2023-12-27T14:40:17Z</time>
      </trkpt>
      <trkpt lat="49.97113" lon="2.34083">
        <ele>119.7</ele>
        <time>2023-12-27T14:40:18Z</time>
      </trkpt>
      <trkpt lat="49.97114" lon="2.34083">
        <ele>119.6</ele>
        <time>2023-12-27T14:40:19Z</time>
      </trkpt>
      <trkpt lat="49.97115" lon="2.34083">
        <ele>119.6</ele>
        <time>2023-12-27T14:40:20Z</time>
      </trkpt>
      <trkpt lat="49.97116" lon="2.34084">
        <ele>119.6</ele>
        <time>2023-12-27T14:40:21Z</time>
      </trkpt>
      <trkpt lat="49.97118" lon="2.34084">
        <ele>119.6</ele>
        <time>2023-12-27T14:40:22Z</time>
      </trkpt>
      <trkpt lat="49.97119" lon="2.34084">
        <ele>119.6</ele>
        <time>2023-12-27T14:40:24Z</time>
      </trkpt>
      <trkpt lat="49.9712" lon="2.34084">
        <ele>119.6</ele>
        <time>2023-12-27T14:40:25Z</time>
      </trkpt>
      <trkpt lat="49.97121" lon="2.34084">
        <ele>119.5</ele>
        <time>2023-12-27T14:40:26Z</time>
      </trkpt>
      <trkpt lat="49.97122" lon="2.34083">
        <ele>119.5</ele>
        <time>2023-12-27T14:40:27Z</time>
      </trkpt>
      <trkpt lat="49.97124" lon="2.34083">
        <ele>119.5</ele>
        <time>2023-12-27T14:40:29Z</time>
      </trkpt>
      <trkpt lat="49.97125" lon="2.34083">
        <ele>119.5</ele>
        <time>2023-12-27T14:40:30Z</time>
      </trkpt>
      <trkpt lat="49.97126" lon="2.34082">
        <ele>119.4</ele>
        <time>2023-12-27T14:40:32Z</time>
      </trkpt>
      <trkpt lat="49.97127" lon="2.34082">
        <ele>119.4</ele>
        <time>2023-12-27T14:40:33Z</time>
      </trkpt>
      <trkpt lat="49.97128" lon="2.34082">
        <ele>119.4</ele>
        <time>2023-12-27T14:40:34Z</time>
      </trkpt>
      <trkpt lat="49.97129" lon="2.34082">
        <ele>119.4</ele>
        <time>2023-12-27T14:40:35Z</time>
      </trkpt>
      <trkpt lat="49.97131" lon="2.34081">
        <ele>119.3</ele>
        <time>2023-12-27T14:40:36Z</time>
      </trkpt>
      <trkpt lat="49.97132" lon="2.34081">
        <ele>119.3</ele>
        <time>2023-12-27T14:40:38Z</time>
      </trkpt>
      <trkpt lat="49.97133" lon="2.34081">
        <ele>119.3</ele>
        <time>2023-12-27T14:40:39Z</time>
      </trkpt>
      <trkpt lat="49.97134" lon="2.3408">
        <ele>119.3</ele>
        <time>2023-12-27T14:40:40Z</time>
      </trkpt>
      <trkpt lat="49.97136" lon="2.3408">
        <ele>119.2</ele>
        <time>2023-12-27T14:40:41Z</time>
      </trkpt>
      <trkpt lat="49.97138" lon="2.34081">
        <ele>119.2</ele>
        <time>2023-12-27T14:40:42Z</time>
      </trkpt>
      <trkpt lat="49.97139" lon="2.34081">
        <ele>119.2</ele>
        <time>2023-12-27T14:40:44Z</time>
      </trkpt>
      <trkpt lat="49.97139" lon="2.34081">
        <ele>119.2</ele>
        <time>2023-12-27T14:40:45Z</time>
      </trkpt>
      <trkpt lat="49.9714" lon="2.34081">
        <ele>119.1</ele>
        <time>2023-12-27T14:40:46Z</time>
      </trkpt>
      <trkpt lat="49.97142" lon="2.34081">
        <ele>119.1</ele>
        <time>2023-12-27T14:40:47Z</time>
      </trkpt>
      <trkpt lat="49.97143" lon="2.34081">
        <ele>119.1</ele>
        <time>2023-12-27T14:40:49Z</time>
      </trkpt>
      <trkpt lat="49.97144" lon="2.34081">
        <ele>119.1</ele>
        <time>2023-12-27T14:40:50Z</time>
      </trkpt>
      <trkpt lat="49.97145" lon="2.34081">
        <ele>119.1</ele>
        <time>2023-12-27T14:40:51Z</time>
      </trkpt>
      <trkpt lat="49.97146" lon="2.34081">
        <ele>119.1</ele>
        <time>2023-12-27T14:40:52Z</time>
      </trkpt>
      <trkpt lat="49.97147" lon="2.34081">
        <ele>119</ele>
        <time>2023-12-27T14:40:53Z</time>
      </trkpt>
      <trkpt lat="49.97149" lon="2.3408">
        <ele>119</ele>
        <time>2023-12-27T14:40:54Z</time>
      </trkpt>
      <trkpt lat="49.9715" lon="2.3408">
        <ele>119</ele>
        <time>2023-12-27T14:40:55Z</time>
      </trkpt>
      <trkpt lat="49.97151" lon="2.3408">
        <ele>119</ele>
        <time>2023-12-27T14:40:56Z</time>
      </trkpt>
      <trkpt lat="49.97153" lon="2.3408">
        <ele>119</ele>
        <time>2023-12-27T14:40:58Z</time>
      </trkpt>
      <trkpt lat="49.97154" lon="2.3408">
        <ele>119</ele>
        <time>2023-12-27T14:40:59Z</time>
      </trkpt>
      <trkpt lat="49.97155" lon="2.3408">
        <ele>119</ele>
        <time>2023-12-27T14:41:00Z</time>
      </trkpt>
      <trkpt lat="49.97156" lon="2.3408">
        <ele>119</ele>
        <time>2023-12-27T14:41:01Z</time>
      </trkpt>
      <trkpt lat="49.97157" lon="2.3408">
        <ele>119</ele>
        <time>2023-12-27T14:41:02Z</time>
      </trkpt>
      <trkpt lat="49.97158" lon="2.3408">
        <ele>119</ele>
        <time>2023-12-27T14:41:03Z</time>
      </trkpt>
      <trkpt lat="49.97159" lon="2.3408">
        <ele>118.9</ele>
        <time>2023-12-27T14:41:05Z</time>
      </trkpt>
      <trkpt lat="49.9716" lon="2.3408">
        <ele>118.9</ele>
        <time>2023-12-27T14:41:06Z</time>
      </trkpt>
      <trkpt lat="49.97161" lon="2.3408">
        <ele>118.9</ele>
        <time>2023-12-27T14:41:07Z</time>
      </trkpt>
      <trkpt lat="49.97162" lon="2.3408">
        <ele>118.9</ele>
        <time>2023-12-27T14:41:08Z</time>
      </trkpt>
      <trkpt lat="49.97163" lon="2.3408">
        <ele>118.9</ele>
        <time>2023-12-27T14:41:09Z</time>
      </trkpt>
      <trkpt lat="49.97165" lon="2.34081">
        <ele>118.9</ele>
        <time>2023-12-27T14:41:11Z</time>
      </trkpt>
      <trkpt lat="49.97165" lon="2.34081">
        <ele>118.9</ele>
        <time>2023-12-27T14:41:12Z</time>
      </trkpt>
      <trkpt lat="49.97166" lon="2.34081">
        <ele>118.9</ele>
        <time>2023-12-27T14:41:13Z</time>
      </trkpt>
      <trkpt lat="49.97167" lon="2.34081">
        <ele>118.9</ele>
        <time>2023-12-27T14:41:14Z</time>
      </trkpt>
      <trkpt lat="49.97169" lon="2.34081">
        <ele>118.9</ele>
        <time>2023-12-27T14:41:15Z</time>
      </trkpt>
      <trkpt lat="49.97171" lon="2.3408">
        <ele>118.8</ele>
        <time>2023-12-27T14:41:16Z</time>
      </trkpt>
      <trkpt lat="49.97171" lon="2.3408">
        <ele>118.8</ele>
        <time>2023-12-27T14:41:17Z</time>
      </trkpt>
      <trkpt lat="49.97172" lon="2.3408">
        <ele>118.8</ele>
        <time>2023-12-27T14:41:18Z</time>
      </trkpt>
      <trkpt lat="49.97173" lon="2.3408">
        <ele>118.8</ele>
        <time>2023-12-27T14:41:20Z</time>
      </trkpt>
      <trkpt lat="49.97174" lon="2.3408">
        <ele>118.8</ele>
        <time>2023-12-27T14:41:21Z</time>
      </trkpt>
      <trkpt lat="49.97176" lon="2.3408">
        <ele>118.7</ele>
        <time>2023-12-27T14:41:22Z</time>
      </trkpt>
      <trkpt lat="49.97177" lon="2.3408">
        <ele>118.7</ele>
        <time>2023-12-27T14:41:23Z</time>
      </trkpt>
      <trkpt lat="49.97178" lon="2.3408">
        <ele>118.7</ele>
        <time>2023-12-27T14:41:24Z</time>
      </trkpt>
      <trkpt lat="49.97179" lon="2.34079">
        <ele>118.6</ele>
        <time>2023-12-27T14:41:26Z</time>
      </trkpt>
      <trkpt lat="49.9718" lon="2.34079">
        <ele>118.6</ele>
        <time>2023-12-27T14:41:27Z</time>
      </trkpt>
      <trkpt lat="49.97182" lon="2.34079">
        <ele>118.6</ele>
        <time>2023-12-27T14:41:28Z</time>
      </trkpt>
      <trkpt lat="49.97183" lon="2.34078">
        <ele>118.5</ele>
        <time>2023-12-27T14:41:29Z</time>
      </trkpt>
      <trkpt lat="49.97184" lon="2.34077">
        <ele>118.5</ele>
        <time>2023-12-27T14:41:31Z</time>
      </trkpt>
      <trkpt lat="49.97185" lon="2.34077">
        <ele>118.5</ele>
        <time>2023-12-27T14:41:33Z</time>
      </trkpt>
      <trkpt lat="49.97186" lon="2.34077">
        <ele>118.4</ele>
        <time>2023-12-27T14:41:34Z</time>
      </trkpt>
      <trkpt lat="49.97187" lon="2.34077">
        <ele>118.4</ele>
        <time>2023-12-27T14:41:35Z</time>
      </trkpt>
      <trkpt lat="49.97188" lon="2.34077">
        <ele>118.4</ele>
        <time>2023-12-27T14:41:36Z</time>
      </trkpt>
      <trkpt lat="49.97189" lon="2.34077">
        <ele>118.4</ele>
        <time>2023-12-27T14:41:37Z</time>
      </trkpt>
      <trkpt lat="49.9719" lon="2.34077">
        <ele>118.3</ele>
        <time>2023-12-27T14:41:38Z</time>
      </trkpt>
      <trkpt lat="49.97191" lon="2.34076">
        <ele>118.3</ele>
        <time>2023-12-27T14:41:40Z</time>
      </trkpt>
      <trkpt lat="49.97192" lon="2.34076">
        <ele>118.3</ele>
        <time>2023-12-27T14:41:41Z</time>
      </trkpt>
      <trkpt lat="49.97193" lon="2.34076">
        <ele>118.3</ele>
        <time>2023-12-27T14:41:42Z</time>
      </trkpt>
      <trkpt lat="49.97194" lon="2.34076">
        <ele>118.3</ele>
        <time>2023-12-27T14:41:43Z</time>
      </trkpt>
      <trkpt lat="49.97195" lon="2.34075">
        <ele>118.2</ele>
        <time>2023-12-27T14:41:45Z</time>
      </trkpt>
      <trkpt lat="49.97197" lon="2.34074">
        <ele>118.2</ele>
        <time>2023-12-27T14:41:46Z</time>
      </trkpt>
      <trkpt lat="49.97198" lon="2.34074">
        <ele>118.2</ele>
        <time>2023-12-27T14:41:48Z</time>
      </trkpt>
      <trkpt lat="49.97199" lon="2.34074">
        <ele>118.1</ele>
        <time>2023-12-27T14:41:49Z</time>
      </trkpt>
      <trkpt lat="49.972" lon="2.34074">
        <ele>118.1</ele>
        <time>2023-12-27T14:41:50Z</time>
      </trkpt>
      <trkpt lat="49.97201" lon="2.34075">
        <ele>118.1</ele>
        <time>2023-12-27T14:41:51Z</time>
      </trkpt>
      <trkpt lat="49.97202" lon="2.34075">
        <ele>118.1</ele>
        <time>2023-12-27T14:41:52Z</time>
      </trkpt>
      <trkpt lat="49.97203" lon="2.34075">
        <ele>118</ele>
        <time>2023-12-27T14:41:53Z</time>
      </trkpt>
      <trkpt lat="49.97205" lon="2.34075">
        <ele>118</ele>
        <time>2023-12-27T14:41:54Z</time>
      </trkpt>
      <trkpt lat="49.97206" lon="2.34075">
        <ele>118</ele>
        <time>2023-12-27T14:41:56Z</time>
      </trkpt>
      <trkpt lat="49.97207" lon="2.34075">
        <ele>117.9</ele>
        <time>2023-12-27T14:41:57Z</time>
      </trkpt>
      <trkpt lat="49.97208" lon="2.34075">
        <ele>117.9</ele>
        <time>2023-12-27T14:41:58Z</time>
      </trkpt>
      <trkpt lat="49.97209" lon="2.34075">
        <ele>117.9</ele>
        <time>2023-12-27T14:41:59Z</time>
      </trkpt>
      <trkpt lat="49.9721" lon="2.34075">
        <ele>117.9</ele>
        <time>2023-12-27T14:42:00Z</time>
      </trkpt>
      <trkpt lat="49.97211" lon="2.34076">
        <ele>117.8</ele>
        <time>2023-12-27T14:42:01Z</time>
      </trkpt>
      <trkpt lat="49.97212" lon="2.34077">
        <ele>117.8</ele>
        <time>2023-12-27T14:42:02Z</time>
      </trkpt>
      <trkpt lat="49.97213" lon="2.34077">
        <ele>117.7</ele>
        <time>2023-12-27T14:42:04Z</time>
      </trkpt>
      <trkpt lat="49.97215" lon="2.34077">
        <ele>117.7</ele>
        <time>2023-12-27T14:42:05Z</time>
      </trkpt>
      <trkpt lat="49.97216" lon="2.34077">
        <ele>117.7</ele>
        <time>2023-12-27T14:42:06Z</time>
      </trkpt>
      <trkpt lat="49.97217" lon="2.34077">
        <ele>117.7</ele>
        <time>2023-12-27T14:42:07Z</time>
      </trkpt>
      <trkpt lat="49.97218" lon="2.34077">
        <ele>117.6</ele>
        <time>2023-12-27T14:42:08Z</time>
      </trkpt>
      <trkpt lat="49.97219" lon="2.34077">
        <ele>117.6</ele>
        <time>2023-12-27T14:42:09Z</time>
      </trkpt>
      <trkpt lat="49.9722" lon="2.34077">
        <ele>117.5</ele>
        <time>2023-12-27T14:42:10Z</time>
      </trkpt>
      <trkpt lat="49.97221" lon="2.34077">
        <ele>117.5</ele>
        <time>2023-12-27T14:42:12Z</time>
      </trkpt>
      <trkpt lat="49.97223" lon="2.34077">
        <ele>117.5</ele>
        <time>2023-12-27T14:42:13Z</time>
      </trkpt>
      <trkpt lat="49.97224" lon="2.34077">
        <ele>117.5</ele>
        <time>2023-12-27T14:42:14Z</time>
      </trkpt>
      <trkpt lat="49.97225" lon="2.34077">
        <ele>117.4</ele>
        <time>2023-12-27T14:42:15Z</time>
      </trkpt>
      <trkpt lat="49.97226" lon="2.34077">
        <ele>117.4</ele>
        <time>2023-12-27T14:42:16Z</time>
      </trkpt>
      <trkpt lat="49.97227" lon="2.34077">
        <ele>117.4</ele>
        <time>2023-12-27T14:42:17Z</time>
      </trkpt>
      <trkpt lat="49.97228" lon="2.34077">
        <ele>117.3</ele>
        <time>2023-12-27T14:42:18Z</time>
      </trkpt>
      <trkpt lat="49.97229" lon="2.34077">
        <ele>117.3</ele>
        <time>2023-12-27T14:42:20Z</time>
      </trkpt>
      <trkpt lat="49.9723" lon="2.34077">
        <ele>117.3</ele>
        <time>2023-12-27T14:42:21Z</time>
      </trkpt>
      <trkpt lat="49.97231" lon="2.34077">
        <ele>117.3</ele>
        <time>2023-12-27T14:42:22Z</time>
      </trkpt>
      <trkpt lat="49.97232" lon="2.34077">
        <ele>117.2</ele>
        <time>2023-12-27T14:42:23Z</time>
      </trkpt>
      <trkpt lat="49.97233" lon="2.34077">
        <ele>117.2</ele>
        <time>2023-12-27T14:42:24Z</time>
      </trkpt>
      <trkpt lat="49.97236" lon="2.34077">
        <ele>117.1</ele>
        <time>2023-12-27T14:42:25Z</time>
      </trkpt>
      <trkpt lat="49.97236" lon="2.34077">
        <ele>117.1</ele>
        <time>2023-12-27T14:42:26Z</time>
      </trkpt>
      <trkpt lat="49.97237" lon="2.34077">
        <ele>117.1</ele>
        <time>2023-12-27T14:42:27Z</time>
      </trkpt>
      <trkpt lat="49.97239" lon="2.34077">
        <ele>117.1</ele>
        <time>2023-12-27T14:42:29Z</time>
      </trkpt>
      <trkpt lat="49.9724" lon="2.34077">
        <ele>117</ele>
        <time>2023-12-27T14:42:30Z</time>
      </trkpt>
      <trkpt lat="49.97241" lon="2.34077">
        <ele>117</ele>
        <time>2023-12-27T14:42:31Z</time>
      </trkpt>
      <trkpt lat="49.97243" lon="2.34077">
        <ele>117</ele>
        <time>2023-12-27T14:42:32Z</time>
      </trkpt>
      <trkpt lat="49.97243" lon="2.34077">
        <ele>117</ele>
        <time>2023-12-27T14:42:33Z</time>
      </trkpt>
      <trkpt lat="49.97244" lon="2.34077">
        <ele>116.9</ele>
        <time>2023-12-27T14:42:34Z</time>
      </trkpt>
      <trkpt lat="49.97245" lon="2.34077">
        <ele>116.9</ele>
        <time>2023-12-27T14:42:35Z</time>
      </trkpt>
      <trkpt lat="49.97246" lon="2.34077">
        <ele>116.9</ele>
        <time>2023-12-27T14:42:36Z</time>
      </trkpt>
      <trkpt lat="49.97247" lon="2.34077">
        <ele>116.9</ele>
        <time>2023-12-27T14:42:37Z</time>
      </trkpt>
      <trkpt lat="49.97248" lon="2.34077">
        <ele>116.8</ele>
        <time>2023-12-27T14:42:39Z</time>
      </trkpt>
      <trkpt lat="49.97249" lon="2.34077">
        <ele>116.8</ele>
        <time>2023-12-27T14:42:40Z</time>
      </trkpt>
      <trkpt lat="49.9725" lon="2.34078">
        <ele>116.8</ele>
        <time>2023-12-27T14:42:41Z</time>
      </trkpt>
      <trkpt lat="49.9725" lon="2.34078">
        <ele>116.8</ele>
        <time>2023-12-27T14:42:42Z</time>
      </trkpt>
      <trkpt lat="49.97251" lon="2.34078">
        <ele>116.8</ele>
        <time>2023-12-27T14:42:43Z</time>
      </trkpt>
      <trkpt lat="49.97252" lon="2.34078">
        <ele>116.7</ele>
        <time>2023-12-27T14:42:44Z</time>
      </trkpt>
      <trkpt lat="49.97254" lon="2.34078">
        <ele>116.7</ele>
        <time>2023-12-27T14:42:46Z</time>
      </trkpt>
      <trkpt lat="49.97254" lon="2.34078">
        <ele>116.7</ele>
        <time>2023-12-27T14:42:47Z</time>
      </trkpt>
      <trkpt lat="49.97256" lon="2.34078">
        <ele>116.6</ele>
        <time>2023-12-27T14:42:48Z</time>
      </trkpt>
      <trkpt lat="49.97257" lon="2.34078">
        <ele>116.6</ele>
        <time>2023-12-27T14:42:49Z</time>
      </trkpt>
      <trkpt lat="49.97257" lon="2.34078">
        <ele>116.6</ele>
        <time>2023-12-27T14:42:50Z</time>
      </trkpt>
      <trkpt lat="49.97258" lon="2.34078">
        <ele>116.6</ele>
        <time>2023-12-27T14:42:51Z</time>
      </trkpt>
      <trkpt lat="49.97259" lon="2.34078">
        <ele>116.5</ele>
        <time>2023-12-27T14:42:53Z</time>
      </trkpt>
      <trkpt lat="49.9726" lon="2.34077">
        <ele>116.5</ele>
        <time>2023-12-27T14:42:54Z</time>
      </trkpt>
      <trkpt lat="49.97261" lon="2.34077">
        <ele>116.5</ele>
        <time>2023-12-27T14:42:55Z</time>
      </trkpt>
      <trkpt lat="49.97263" lon="2.34077">
        <ele>116.5</ele>
        <time>2023-12-27T14:42:56Z</time>
      </trkpt>
      <trkpt lat="49.97264" lon="2.34077">
        <ele>116.4</ele>
        <time>2023-12-27T14:42:57Z</time>
      </trkpt>
      <trkpt lat="49.97266" lon="2.34077">
        <ele>116.4</ele>
        <time>2023-12-27T14:42:59Z</time>
      </trkpt>
      <trkpt lat="49.97267" lon="2.34077">
        <ele>116.4</ele>
        <time>2023-12-27T14:43:00Z</time>
      </trkpt>
      <trkpt lat="49.97268" lon="2.34077">
        <ele>116.4</ele>
        <time>2023-12-27T14:43:01Z</time>
      </trkpt>
      <trkpt lat="49.9727" lon="2.34077">
        <ele>116.3</ele>
        <time>2023-12-27T14:43:02Z</time>
      </trkpt>
      <trkpt lat="49.97271" lon="2.34077">
        <ele>116.3</ele>
        <time>2023-12-27T14:43:03Z</time>
      </trkpt>
      <trkpt lat="49.97272" lon="2.34077">
        <ele>116.3</ele>
        <time>2023-12-27T14:43:04Z</time>
      </trkpt>
      <trkpt lat="49.97273" lon="2.34077">
        <ele>116.3</ele>
        <time>2023-12-27T14:43:06Z</time>
      </trkpt>
      <trkpt lat="49.97274" lon="2.34077">
        <ele>116.3</ele>
        <time>2023-12-27T14:43:07Z</time>
      </trkpt>
      <trkpt lat="49.97274" lon="2.34077">
        <ele>116.3</ele>
        <time>2023-12-27T14:43:08Z</time>
      </trkpt>
      <trkpt lat="49.97275" lon="2.34077">
        <ele>116.3</ele>
        <time>2023-12-27T14:43:09Z</time>
      </trkpt>
      <trkpt lat="49.97276" lon="2.34076">
        <ele>116.3</ele>
        <time>2023-12-27T14:43:11Z</time>
      </trkpt>
      <trkpt lat="49.97277" lon="2.34076">
        <ele>116.3</ele>
        <time>2023-12-27T14:43:12Z</time>
      </trkpt>
      <trkpt lat="49.97278" lon="2.34076">
        <ele>116.3</ele>
        <time>2023-12-27T14:43:13Z</time>
      </trkpt>
      <trkpt lat="49.97279" lon="2.34076">
        <ele>116.2</ele>
        <time>2023-12-27T14:43:14Z</time>
      </trkpt>
      <trkpt lat="49.9728" lon="2.34076">
        <ele>116.2</ele>
        <time>2023-12-27T14:43:15Z</time>
      </trkpt>
      <trkpt lat="49.97281" lon="2.34076">
        <ele>116.2</ele>
        <time>2023-12-27T14:43:17Z</time>
      </trkpt>
      <trkpt lat="49.97281" lon="2.34076">
        <ele>116.2</ele>
        <time>2023-12-27T14:43:18Z</time>
      </trkpt>
      <trkpt lat="49.97282" lon="2.34075">
        <ele>116.2</ele>
        <time>2023-12-27T14:43:20Z</time>
      </trkpt>
      <trkpt lat="49.97282" lon="2.34073">
        <ele>116.2</ele>
        <time>2023-12-27T14:43:22Z</time>
      </trkpt>
      <trkpt lat="49.97282" lon="2.34072">
        <ele>116.2</ele>
        <time>2023-12-27T14:43:23Z</time>
      </trkpt>
      <trkpt lat="49.97281" lon="2.34072">
        <ele>116.2</ele>
        <time>2023-12-27T14:43:24Z</time>
      </trkpt>
      <trkpt lat="49.97281" lon="2.34072">
        <ele>116.2</ele>
        <time>2023-12-27T14:43:26Z</time>
      </trkpt>
      <trkpt lat="49.9728" lon="2.34072">
        <ele>116.2</ele>
        <time>2023-12-27T14:43:27Z</time>
      </trkpt>
      <trkpt lat="49.9728" lon="2.34072">
        <ele>116.2</ele>
        <time>2023-12-27T14:43:29Z</time>
      </trkpt>
      <trkpt lat="49.9728" lon="2.34071">
        <ele>116.1</ele>
        <time>2023-12-27T14:43:30Z</time>
      </trkpt>
      <trkpt lat="49.9728" lon="2.34071">
        <ele>116.1</ele>
        <time>2023-12-27T14:43:32Z</time>
      </trkpt>
      <trkpt lat="49.9728" lon="2.34071">
        <ele>116.1</ele>
        <time>2023-12-27T14:43:33Z</time>
      </trkpt>
      <trkpt lat="49.97278" lon="2.34073">
        <ele>116.1</ele>
        <time>2023-12-27T14:46:35Z</time>
      </trkpt>
      <trkpt lat="49.97277" lon="2.34073">
        <ele>116.1</ele>
        <time>2023-12-27T14:46:36Z</time>
      </trkpt>
      <trkpt lat="49.97276" lon="2.34072">
        <ele>116</ele>
        <time>2023-12-27T14:46:37Z</time>
      </trkpt>
      <trkpt lat="49.97275" lon="2.34072">
        <ele>116</ele>
        <time>2023-12-27T14:46:38Z</time>
      </trkpt>
      <trkpt lat="49.97274" lon="2.34071">
        <ele>116</ele>
        <time>2023-12-27T14:46:39Z</time>
      </trkpt>
      <trkpt lat="49.97274" lon="2.34071">
        <ele>116</ele>
        <time>2023-12-27T14:46:40Z</time>
      </trkpt>
      <trkpt lat="49.97274" lon="2.3407">
        <ele>116</ele>
        <time>2023-12-27T14:46:41Z</time>
      </trkpt>
      <trkpt lat="49.97274" lon="2.34069">
        <ele>116</ele>
        <time>2023-12-27T14:46:42Z</time>
      </trkpt>
      <trkpt lat="49.97274" lon="2.34069">
        <ele>116</ele>
        <time>2023-12-27T14:46:43Z</time>
      </trkpt>
      <trkpt lat="49.97274" lon="2.34068">
        <ele>116</ele>
        <time>2023-12-27T14:46:44Z</time>
      </trkpt>
      <trkpt lat="49.97274" lon="2.34068">
        <ele>116</ele>
        <time>2023-12-27T14:46:45Z</time>
      </trkpt>
      <trkpt lat="49.97274" lon="2.34067">
        <ele>115.9</ele>
        <time>2023-12-27T14:46:46Z</time>
      </trkpt>
      <trkpt lat="49.97274" lon="2.34066">
        <ele>115.9</ele>
        <time>2023-12-27T14:46:47Z</time>
      </trkpt>
      <trkpt lat="49.97274" lon="2.34066">
        <ele>115.9</ele>
        <time>2023-12-27T14:46:48Z</time>
      </trkpt>
      <trkpt lat="49.97274" lon="2.34065">
        <ele>115.9</ele>
        <time>2023-12-27T14:46:49Z</time>
      </trkpt>
      <trkpt lat="49.97274" lon="2.34065">
        <ele>115.9</ele>
        <time>2023-12-27T14:46:50Z</time>
      </trkpt>
      <trkpt lat="49.97274" lon="2.34064">
        <ele>115.9</ele>
        <time>2023-12-27T14:46:51Z</time>
      </trkpt>
      <trkpt lat="49.97274" lon="2.34063">
        <ele>115.9</ele>
        <time>2023-12-27T14:46:52Z</time>
      </trkpt>
      <trkpt lat="49.97274" lon="2.34063">
        <ele>115.9</ele>
        <time>2023-12-27T14:47:00Z</time>
      </trkpt>
      <trkpt lat="49.97274" lon="2.34062">
        <ele>115.9</ele>
        <time>2023-12-27T14:47:01Z</time>
      </trkpt>
      <trkpt lat="49.97274" lon="2.34062">
        <ele>115.9</ele>
        <time>2023-12-27T14:47:02Z</time>
      </trkpt>
      <trkpt lat="49.97273" lon="2.34061">
        <ele>115.9</ele>
        <time>2023-12-27T14:47:03Z</time>
      </trkpt>
      <trkpt lat="49.97273" lon="2.34058">
        <ele>115.8</ele>
        <time>2023-12-27T14:47:04Z</time>
      </trkpt>
      <trkpt lat="49.97273" lon="2.34056">
        <ele>115.8</ele>
        <time>2023-12-27T14:47:05Z</time>
      </trkpt>
      <trkpt lat="49.97273" lon="2.34055">
        <ele>115.8</ele>
        <time>2023-12-27T14:47:06Z</time>
      </trkpt>
      <trkpt lat="49.97273" lon="2.34054">
        <ele>115.8</ele>
        <time>2023-12-27T14:47:07Z</time>
      </trkpt>
      <trkpt lat="49.97272" lon="2.34052">
        <ele>115.7</ele>
        <time>2023-12-27T14:47:08Z</time>
      </trkpt>
      <trkpt lat="49.97272" lon="2.34051">
        <ele>115.7</ele>
        <time>2023-12-27T14:47:09Z</time>
      </trkpt>
      <trkpt lat="49.97272" lon="2.34049">
        <ele>115.7</ele>
        <time>2023-12-27T14:47:10Z</time>
      </trkpt>
      <trkpt lat="49.97272" lon="2.34048">
        <ele>115.7</ele>
        <time>2023-12-27T14:47:11Z</time>
      </trkpt>
      <trkpt lat="49.97272" lon="2.34047">
        <ele>115.7</ele>
        <time>2023-12-27T14:47:12Z</time>
      </trkpt>
      <trkpt lat="49.97271" lon="2.34044">
        <ele>115.6</ele>
        <time>2023-12-27T14:47:13Z</time>
      </trkpt>
      <trkpt lat="49.97271" lon="2.34043">
        <ele>115.6</ele>
        <time>2023-12-27T14:47:14Z</time>
      </trkpt>
      <trkpt lat="49.97271" lon="2.34042">
        <ele>115.6</ele>
        <time>2023-12-27T14:47:15Z</time>
      </trkpt>
      <trkpt lat="49.9727" lon="2.34041">
        <ele>115.6</ele>
        <time>2023-12-27T14:47:16Z</time>
      </trkpt>
      <trkpt lat="49.9727" lon="2.3404">
        <ele>115.6</ele>
        <time>2023-12-27T14:47:17Z</time>
      </trkpt>
      <trkpt lat="49.97269" lon="2.34038">
        <ele>115.5</ele>
        <time>2023-12-27T14:47:18Z</time>
      </trkpt>
      <trkpt lat="49.97269" lon="2.34037">
        <ele>115.5</ele>
        <time>2023-12-27T14:47:19Z</time>
      </trkpt>
      <trkpt lat="49.97269" lon="2.34036">
        <ele>115.5</ele>
        <time>2023-12-27T14:47:20Z</time>
      </trkpt>
      <trkpt lat="49.97269" lon="2.34035">
        <ele>115.5</ele>
        <time>2023-12-27T14:47:21Z</time>
      </trkpt>
      <trkpt lat="49.97268" lon="2.34033">
        <ele>115.4</ele>
        <time>2023-12-27T14:47:22Z</time>
      </trkpt>
      <trkpt lat="49.97269" lon="2.34029">
        <ele>115.4</ele>
        <time>2023-12-27T14:47:24Z</time>
      </trkpt>
      <trkpt lat="49.97269" lon="2.34027">
        <ele>115.3</ele>
        <time>2023-12-27T14:47:25Z</time>
      </trkpt>
      <trkpt lat="49.97269" lon="2.34025">
        <ele>115.3</ele>
        <time>2023-12-27T14:47:26Z</time>
      </trkpt>
      <trkpt lat="49.97269" lon="2.34023">
        <ele>115.3</ele>
        <time>2023-12-27T14:47:27Z</time>
      </trkpt>
      <trkpt lat="49.97269" lon="2.34022">
        <ele>115.2</ele>
        <time>2023-12-27T14:47:28Z</time>
      </trkpt>
      <trkpt lat="49.97268" lon="2.3402">
        <ele>115.2</ele>
        <time>2023-12-27T14:47:29Z</time>
      </trkpt>
      <trkpt lat="49.97268" lon="2.34019">
        <ele>115.2</ele>
        <time>2023-12-27T14:47:30Z</time>
      </trkpt>
      <trkpt lat="49.97268" lon="2.34017">
        <ele>115.2</ele>
        <time>2023-12-27T14:47:32Z</time>
      </trkpt>
      <trkpt lat="49.97267" lon="2.34016">
        <ele>115.1</ele>
        <time>2023-12-27T14:47:33Z</time>
      </trkpt>
      <trkpt lat="49.97267" lon="2.34014">
        <ele>115.1</ele>
        <time>2023-12-27T14:47:34Z</time>
      </trkpt>
      <trkpt lat="49.97267" lon="2.34013">
        <ele>115.1</ele>
        <time>2023-12-27T14:47:35Z</time>
      </trkpt>
      <trkpt lat="49.97267" lon="2.34011">
        <ele>115</ele>
        <time>2023-12-27T14:47:36Z</time>
      </trkpt>
      <trkpt lat="49.97267" lon="2.34009">
        <ele>115</ele>
        <time>2023-12-27T14:47:37Z</time>
      </trkpt>
      <trkpt lat="49.97266" lon="2.34007">
        <ele>115</ele>
        <time>2023-12-27T14:47:39Z</time>
      </trkpt>
      <trkpt lat="49.97266" lon="2.34005">
        <ele>114.9</ele>
        <time>2023-12-27T14:47:40Z</time>
      </trkpt>
      <trkpt lat="49.97266" lon="2.34004">
        <ele>114.9</ele>
        <time>2023-12-27T14:47:41Z</time>
      </trkpt>
      <trkpt lat="49.97266" lon="2.34002">
        <ele>114.9</ele>
        <time>2023-12-27T14:47:42Z</time>
      </trkpt>
      <trkpt lat="49.97266" lon="2.34">
        <ele>114.8</ele>
        <time>2023-12-27T14:47:43Z</time>
      </trkpt>
      <trkpt lat="49.97266" lon="2.33998">
        <ele>114.8</ele>
        <time>2023-12-27T14:47:44Z</time>
      </trkpt>
      <trkpt lat="49.97266" lon="2.33997">
        <ele>114.8</ele>
        <time>2023-12-27T14:47:45Z</time>
      </trkpt>
      <trkpt lat="49.97266" lon="2.33995">
        <ele>114.7</ele>
        <time>2023-12-27T14:47:46Z</time>
      </trkpt>
      <trkpt lat="49.97266" lon="2.33992">
        <ele>114.7</ele>
        <time>2023-12-27T14:47:48Z</time>
      </trkpt>
      <trkpt lat="49.97266" lon="2.3399">
        <ele>114.6</ele>
        <time>2023-12-27T14:47:49Z</time>
      </trkpt>
      <trkpt lat="49.97266" lon="2.33989">
        <ele>114.6</ele>
        <time>2023-12-27T14:47:50Z</time>
      </trkpt>
      <trkpt lat="49.97265" lon="2.33986">
        <ele>114.6</ele>
        <time>2023-12-27T14:47:51Z</time>
      </trkpt>
      <trkpt lat="49.97265" lon="2.33985">
        <ele>114.5</ele>
        <time>2023-12-27T14:47:52Z</time>
      </trkpt>
      <trkpt lat="49.97265" lon="2.33983">
        <ele>114.5</ele>
        <time>2023-12-27T14:47:53Z</time>
      </trkpt>
      <trkpt lat="49.97265" lon="2.33978">
        <ele>114.4</ele>
        <time>2023-12-27T14:47:55Z</time>
      </trkpt>
      <trkpt lat="49.97265" lon="2.33977">
        <ele>114.4</ele>
        <time>2023-12-27T14:47:56Z</time>
      </trkpt>
      <trkpt lat="49.97265" lon="2.33975">
        <ele>114.3</ele>
        <time>2023-12-27T14:47:58Z</time>
      </trkpt>
      <trkpt lat="49.97265" lon="2.33973">
        <ele>114.3</ele>
        <time>2023-12-27T14:47:59Z</time>
      </trkpt>
      <trkpt lat="49.97265" lon="2.3397">
        <ele>114.2</ele>
        <time>2023-12-27T14:48:00Z</time>
      </trkpt>
      <trkpt lat="49.97265" lon="2.33968">
        <ele>114.2</ele>
        <time>2023-12-27T14:48:01Z</time>
      </trkpt>
      <trkpt lat="49.97264" lon="2.33966">
        <ele>114.1</ele>
        <time>2023-12-27T14:48:02Z</time>
      </trkpt>
      <trkpt lat="49.97264" lon="2.33964">
        <ele>114.1</ele>
        <time>2023-12-27T14:48:03Z</time>
      </trkpt>
      <trkpt lat="49.97264" lon="2.3396">
        <ele>114</ele>
        <time>2023-12-27T14:48:05Z</time>
      </trkpt>
      <trkpt lat="49.97264" lon="2.33959">
        <ele>114</ele>
        <time>2023-12-27T14:48:06Z</time>
      </trkpt>
      <trkpt lat="49.97264" lon="2.33958">
        <ele>113.9</ele>
        <time>2023-12-27T14:48:07Z</time>
      </trkpt>
      <trkpt lat="49.97264" lon="2.33955">
        <ele>113.9</ele>
        <time>2023-12-27T14:48:08Z</time>
      </trkpt>
      <trkpt lat="49.97263" lon="2.33953">
        <ele>113.8</ele>
        <time>2023-12-27T14:48:09Z</time>
      </trkpt>
      <trkpt lat="49.97263" lon="2.33951">
        <ele>113.8</ele>
        <time>2023-12-27T14:48:10Z</time>
      </trkpt>
      <trkpt lat="49.97263" lon="2.33949">
        <ele>113.7</ele>
        <time>2023-12-27T14:48:12Z</time>
      </trkpt>
      <trkpt lat="49.97263" lon="2.33947">
        <ele>113.7</ele>
        <time>2023-12-27T14:48:13Z</time>
      </trkpt>
      <trkpt lat="49.97263" lon="2.33944">
        <ele>113.6</ele>
        <time>2023-12-27T14:48:14Z</time>
      </trkpt>
      <trkpt lat="49.97262" lon="2.33941">
        <ele>113.5</ele>
        <time>2023-12-27T14:48:15Z</time>
      </trkpt>
      <trkpt lat="49.97262" lon="2.3394">
        <ele>113.5</ele>
        <time>2023-12-27T14:48:16Z</time>
      </trkpt>
      <trkpt lat="49.97262" lon="2.33939">
        <ele>113.5</ele>
        <time>2023-12-27T14:48:17Z</time>
      </trkpt>
      <trkpt lat="49.97262" lon="2.33935">
        <ele>113.4</ele>
        <time>2023-12-27T14:48:18Z</time>
      </trkpt>
      <trkpt lat="49.97263" lon="2.33934">
        <ele>113.4</ele>
        <time>2023-12-27T14:48:19Z</time>
      </trkpt>
      <trkpt lat="49.97263" lon="2.33933">
        <ele>113.4</ele>
        <time>2023-12-27T14:48:20Z</time>
      </trkpt>
      <trkpt lat="49.97263" lon="2.33931">
        <ele>113.3</ele>
        <time>2023-12-27T14:48:21Z</time>
      </trkpt>
      <trkpt lat="49.97262" lon="2.33928">
        <ele>113.3</ele>
        <time>2023-12-27T14:48:23Z</time>
      </trkpt>
      <trkpt lat="49.97262" lon="2.33926">
        <ele>113.3</ele>
        <time>2023-12-27T14:48:24Z</time>
      </trkpt>
      <trkpt lat="49.97262" lon="2.33924">
        <ele>113.2</ele>
        <time>2023-12-27T14:48:25Z</time>
      </trkpt>
      <trkpt lat="49.97262" lon="2.3392">
        <ele>113.2</ele>
        <time>2023-12-27T14:48:26Z</time>
      </trkpt>
      <trkpt lat="49.97262" lon="2.33919">
        <ele>113.1</ele>
        <time>2023-12-27T14:48:27Z</time>
      </trkpt>
      <trkpt lat="49.97262" lon="2.33918">
        <ele>113.1</ele>
        <time>2023-12-27T14:48:28Z</time>
      </trkpt>
      <trkpt lat="49.97261" lon="2.33914">
        <ele>113</ele>
        <time>2023-12-27T14:48:30Z</time>
      </trkpt>
      <trkpt lat="49.97261" lon="2.33913">
        <ele>113</ele>
        <time>2023-12-27T14:48:31Z</time>
      </trkpt>
      <trkpt lat="49.97261" lon="2.33912">
        <ele>113</ele>
        <time>2023-12-27T14:48:32Z</time>
      </trkpt>
      <trkpt lat="49.97261" lon="2.3391">
        <ele>113</ele>
        <time>2023-12-27T14:48:33Z</time>
      </trkpt>
      <trkpt lat="49.97261" lon="2.33908">
        <ele>112.9</ele>
        <time>2023-12-27T14:48:34Z</time>
      </trkpt>
      <trkpt lat="49.9726" lon="2.33904">
        <ele>112.8</ele>
        <time>2023-12-27T14:48:36Z</time>
      </trkpt>
      <trkpt lat="49.9726" lon="2.33903">
        <ele>112.8</ele>
        <time>2023-12-27T14:48:37Z</time>
      </trkpt>
      <trkpt lat="49.9726" lon="2.33901">
        <ele>112.8</ele>
        <time>2023-12-27T14:48:38Z</time>
      </trkpt>
      <trkpt lat="49.9726" lon="2.33899">
        <ele>112.7</ele>
        <time>2023-12-27T14:48:39Z</time>
      </trkpt>
      <trkpt lat="49.9726" lon="2.33898">
        <ele>112.7</ele>
        <time>2023-12-27T14:48:40Z</time>
      </trkpt>
      <trkpt lat="49.9726" lon="2.33896">
        <ele>112.6</ele>
        <time>2023-12-27T14:48:41Z</time>
      </trkpt>
      <trkpt lat="49.97259" lon="2.33894">
        <ele>112.6</ele>
        <time>2023-12-27T14:48:42Z</time>
      </trkpt>
      <trkpt lat="49.97259" lon="2.33893">
        <ele>112.6</ele>
        <time>2023-12-27T14:48:43Z</time>
      </trkpt>
      <trkpt lat="49.97259" lon="2.33891">
        <ele>112.5</ele>
        <time>2023-12-27T14:48:44Z</time>
      </trkpt>
      <trkpt lat="49.97259" lon="2.33889">
        <ele>112.4</ele>
        <time>2023-12-27T14:48:45Z</time>
      </trkpt>
      <trkpt lat="49.97258" lon="2.33887">
        <ele>112.4</ele>
        <time>2023-12-27T14:48:47Z</time>
      </trkpt>
      <trkpt lat="49.97258" lon="2.33885">
        <ele>112.3</ele>
        <time>2023-12-27T14:48:48Z</time>
      </trkpt>
      <trkpt lat="49.97258" lon="2.33884">
        <ele>112.3</ele>
        <time>2023-12-27T14:48:49Z</time>
      </trkpt>
      <trkpt lat="49.97257" lon="2.33882">
        <ele>112.2</ele>
        <time>2023-12-27T14:48:50Z</time>
      </trkpt>
      <trkpt lat="49.97257" lon="2.3388">
        <ele>112.2</ele>
        <time>2023-12-27T14:48:51Z</time>
      </trkpt>
      <trkpt lat="49.97257" lon="2.33879">
        <ele>112.1</ele>
        <time>2023-12-27T14:48:52Z</time>
      </trkpt>
      <trkpt lat="49.97257" lon="2.33876">
        <ele>112.1</ele>
        <time>2023-12-27T14:48:53Z</time>
      </trkpt>
      <trkpt lat="49.97257" lon="2.33874">
        <ele>112</ele>
        <time>2023-12-27T14:48:54Z</time>
      </trkpt>
      <trkpt lat="49.97257" lon="2.33872">
        <ele>112</ele>
        <time>2023-12-27T14:48:55Z</time>
      </trkpt>
      <trkpt lat="49.97256" lon="2.3387">
        <ele>111.9</ele>
        <time>2023-12-27T14:48:56Z</time>
      </trkpt>
      <trkpt lat="49.97256" lon="2.33868">
        <ele>111.8</ele>
        <time>2023-12-27T14:48:58Z</time>
      </trkpt>
      <trkpt lat="49.97256" lon="2.33866">
        <ele>111.8</ele>
        <time>2023-12-27T14:48:59Z</time>
      </trkpt>
      <trkpt lat="49.97255" lon="2.33864">
        <ele>111.7</ele>
        <time>2023-12-27T14:49:00Z</time>
      </trkpt>
      <trkpt lat="49.97255" lon="2.33861">
        <ele>111.7</ele>
        <time>2023-12-27T14:49:01Z</time>
      </trkpt>
      <trkpt lat="49.97255" lon="2.33858">
        <ele>111.6</ele>
        <time>2023-12-27T14:49:02Z</time>
      </trkpt>
      <trkpt lat="49.97254" lon="2.33857">
        <ele>111.6</ele>
        <time>2023-12-27T14:49:03Z</time>
      </trkpt>
      <trkpt lat="49.97254" lon="2.33856">
        <ele>111.6</ele>
        <time>2023-12-27T14:49:04Z</time>
      </trkpt>
      <trkpt lat="49.97254" lon="2.33852">
        <ele>111.5</ele>
        <time>2023-12-27T14:49:06Z</time>
      </trkpt>
      <trkpt lat="49.97253" lon="2.33851">
        <ele>111.5</ele>
        <time>2023-12-27T14:49:07Z</time>
      </trkpt>
      <trkpt lat="49.97253" lon="2.3385">
        <ele>111.4</ele>
        <time>2023-12-27T14:49:08Z</time>
      </trkpt>
      <trkpt lat="49.97253" lon="2.33847">
        <ele>111.4</ele>
        <time>2023-12-27T14:49:09Z</time>
      </trkpt>
      <trkpt lat="49.97253" lon="2.33846">
        <ele>111.3</ele>
        <time>2023-12-27T14:49:10Z</time>
      </trkpt>
      <trkpt lat="49.97252" lon="2.33844">
        <ele>111.3</ele>
        <time>2023-12-27T14:49:11Z</time>
      </trkpt>
      <trkpt lat="49.97252" lon="2.33843">
        <ele>111.3</ele>
        <time>2023-12-27T14:49:12Z</time>
      </trkpt>
      <trkpt lat="49.97252" lon="2.33841">
        <ele>111.2</ele>
        <time>2023-12-27T14:49:13Z</time>
      </trkpt>
      <trkpt lat="49.97252" lon="2.3384">
        <ele>111.2</ele>
        <time>2023-12-27T14:49:14Z</time>
      </trkpt>
      <trkpt lat="49.97252" lon="2.33838">
        <ele>111.2</ele>
        <time>2023-12-27T14:49:16Z</time>
      </trkpt>
      <trkpt lat="49.97251" lon="2.33836">
        <ele>111.1</ele>
        <time>2023-12-27T14:49:17Z</time>
      </trkpt>
      <trkpt lat="49.97251" lon="2.33834">
        <ele>111.1</ele>
        <time>2023-12-27T14:49:18Z</time>
      </trkpt>
      <trkpt lat="49.97251" lon="2.33832">
        <ele>111</ele>
        <time>2023-12-27T14:49:19Z</time>
      </trkpt>
      <trkpt lat="49.97251" lon="2.33831">
        <ele>111</ele>
        <time>2023-12-27T14:49:20Z</time>
      </trkpt>
      <trkpt lat="49.97251" lon="2.33829">
        <ele>111</ele>
        <time>2023-12-27T14:49:21Z</time>
      </trkpt>
      <trkpt lat="49.9725" lon="2.33825">
        <ele>110.9</ele>
        <time>2023-12-27T14:49:22Z</time>
      </trkpt>
      <trkpt lat="49.9725" lon="2.33824">
        <ele>110.9</ele>
        <time>2023-12-27T14:49:23Z</time>
      </trkpt>
      <trkpt lat="49.9725" lon="2.33823">
        <ele>110.8</ele>
        <time>2023-12-27T14:49:24Z</time>
      </trkpt>
      <trkpt lat="49.9725" lon="2.3382">
        <ele>110.8</ele>
        <time>2023-12-27T14:49:25Z</time>
      </trkpt>
      <trkpt lat="49.9725" lon="2.33818">
        <ele>110.8</ele>
        <time>2023-12-27T14:49:27Z</time>
      </trkpt>
      <trkpt lat="49.97249" lon="2.33817">
        <ele>110.7</ele>
        <time>2023-12-27T14:49:28Z</time>
      </trkpt>
      <trkpt lat="49.97249" lon="2.33815">
        <ele>110.7</ele>
        <time>2023-12-27T14:49:29Z</time>
      </trkpt>
      <trkpt lat="49.97249" lon="2.33813">
        <ele>110.7</ele>
        <time>2023-12-27T14:49:30Z</time>
      </trkpt>
      <trkpt lat="49.97249" lon="2.3381">
        <ele>110.6</ele>
        <time>2023-12-27T14:49:31Z</time>
      </trkpt>
      <trkpt lat="49.97249" lon="2.33808">
        <ele>110.6</ele>
        <time>2023-12-27T14:49:32Z</time>
      </trkpt>
      <trkpt lat="49.97249" lon="2.33806">
        <ele>110.6</ele>
        <time>2023-12-27T14:49:34Z</time>
      </trkpt>
      <trkpt lat="49.97248" lon="2.33804">
        <ele>110.5</ele>
        <time>2023-12-27T14:49:35Z</time>
      </trkpt>
      <trkpt lat="49.97248" lon="2.338">
        <ele>110.5</ele>
        <time>2023-12-27T14:49:36Z</time>
      </trkpt>
      <trkpt lat="49.97248" lon="2.33799">
        <ele>110.5</ele>
        <time>2023-12-27T14:49:37Z</time>
      </trkpt>
      <trkpt lat="49.97248" lon="2.33798">
        <ele>110.4</ele>
        <time>2023-12-27T14:49:38Z</time>
      </trkpt>
      <trkpt lat="49.97248" lon="2.33796">
        <ele>110.4</ele>
        <time>2023-12-27T14:49:39Z</time>
      </trkpt>
      <trkpt lat="49.97247" lon="2.33794">
        <ele>110.4</ele>
        <time>2023-12-27T14:49:40Z</time>
      </trkpt>
      <trkpt lat="49.97247" lon="2.33791">
        <ele>110.3</ele>
        <time>2023-12-27T14:49:42Z</time>
      </trkpt>
      <trkpt lat="49.97246" lon="2.33788">
        <ele>110.3</ele>
        <time>2023-12-27T14:49:43Z</time>
      </trkpt>
      <trkpt lat="49.97246" lon="2.33787">
        <ele>110.3</ele>
        <time>2023-12-27T14:49:44Z</time>
      </trkpt>
      <trkpt lat="49.97246" lon="2.33785">
        <ele>110.2</ele>
        <time>2023-12-27T14:49:45Z</time>
      </trkpt>
      <trkpt lat="49.97245" lon="2.33783">
        <ele>110.2</ele>
        <time>2023-12-27T14:49:46Z</time>
      </trkpt>
      <trkpt lat="49.97245" lon="2.33781">
        <ele>110.1</ele>
        <time>2023-12-27T14:49:47Z</time>
      </trkpt>
      <trkpt lat="49.97244" lon="2.33778">
        <ele>110.1</ele>
        <time>2023-12-27T14:49:48Z</time>
      </trkpt>
      <trkpt lat="49.97244" lon="2.33777">
        <ele>110</ele>
        <time>2023-12-27T14:49:49Z</time>
      </trkpt>
      <trkpt lat="49.97244" lon="2.33775">
        <ele>110</ele>
        <time>2023-12-27T14:49:50Z</time>
      </trkpt>
      <trkpt lat="49.97244" lon="2.33772">
        <ele>109.9</ele>
        <time>2023-12-27T14:49:52Z</time>
      </trkpt>
      <trkpt lat="49.97244" lon="2.33771">
        <ele>109.9</ele>
        <time>2023-12-27T14:49:53Z</time>
      </trkpt>
      <trkpt lat="49.97243" lon="2.3377">
        <ele>109.9</ele>
        <time>2023-12-27T14:49:54Z</time>
      </trkpt>
      <trkpt lat="49.97243" lon="2.33766">
        <ele>109.8</ele>
        <time>2023-12-27T14:49:55Z</time>
      </trkpt>
      <trkpt lat="49.97243" lon="2.33765">
        <ele>109.8</ele>
        <time>2023-12-27T14:49:56Z</time>
      </trkpt>
      <trkpt lat="49.97242" lon="2.33764">
        <ele>109.7</ele>
        <time>2023-12-27T14:49:57Z</time>
      </trkpt>
      <trkpt lat="49.97242" lon="2.33762">
        <ele>109.7</ele>
        <time>2023-12-27T14:49:58Z</time>
      </trkpt>
      <trkpt lat="49.97242" lon="2.3376">
        <ele>109.6</ele>
        <time>2023-12-27T14:49:59Z</time>
      </trkpt>
      <trkpt lat="49.97242" lon="2.33758">
        <ele>109.6</ele>
        <time>2023-12-27T14:50:00Z</time>
      </trkpt>
      <trkpt lat="49.97241" lon="2.33757">
        <ele>109.5</ele>
        <time>2023-12-27T14:50:02Z</time>
      </trkpt>
      <trkpt lat="49.97241" lon="2.33755">
        <ele>109.5</ele>
        <time>2023-12-27T14:50:03Z</time>
      </trkpt>
      <trkpt lat="49.97241" lon="2.33753">
        <ele>109.4</ele>
        <time>2023-12-27T14:50:04Z</time>
      </trkpt>
      <trkpt lat="49.9724" lon="2.33752">
        <ele>109.4</ele>
        <time>2023-12-27T14:50:05Z</time>
      </trkpt>
      <trkpt lat="49.9724" lon="2.3375">
        <ele>109.4</ele>
        <time>2023-12-27T14:50:06Z</time>
      </trkpt>
      <trkpt lat="49.97239" lon="2.33748">
        <ele>109.3</ele>
        <time>2023-12-27T14:50:07Z</time>
      </trkpt>
      <trkpt lat="49.97239" lon="2.33747">
        <ele>109.3</ele>
        <time>2023-12-27T14:50:09Z</time>
      </trkpt>
      <trkpt lat="49.97238" lon="2.33746">
        <ele>109.2</ele>
        <time>2023-12-27T14:50:10Z</time>
      </trkpt>
      <trkpt lat="49.97238" lon="2.33744">
        <ele>109.2</ele>
        <time>2023-12-27T14:50:11Z</time>
      </trkpt>
      <trkpt lat="49.97238" lon="2.33743">
        <ele>109.2</ele>
        <time>2023-12-27T14:50:12Z</time>
      </trkpt>
      <trkpt lat="49.97238" lon="2.33742">
        <ele>109.1</ele>
        <time>2023-12-27T14:50:13Z</time>
      </trkpt>
      <trkpt lat="49.97238" lon="2.3374">
        <ele>109.1</ele>
        <time>2023-12-27T14:50:14Z</time>
      </trkpt>
      <trkpt lat="49.97238" lon="2.33739">
        <ele>109.1</ele>
        <time>2023-12-27T14:50:15Z</time>
      </trkpt>
      <trkpt lat="49.97238" lon="2.33737">
        <ele>109</ele>
        <time>2023-12-27T14:50:17Z</time>
      </trkpt>
      <trkpt lat="49.97238" lon="2.33736">
        <ele>109</ele>
        <time>2023-12-27T14:50:18Z</time>
      </trkpt>
      <trkpt lat="49.97238" lon="2.33735">
        <ele>109</ele>
        <time>2023-12-27T14:50:19Z</time>
      </trkpt>
      <trkpt lat="49.97238" lon="2.33734">
        <ele>108.9</ele>
        <time>2023-12-27T14:50:20Z</time>
      </trkpt>
      <trkpt lat="49.97238" lon="2.33733">
        <ele>108.9</ele>
        <time>2023-12-27T14:50:21Z</time>
      </trkpt>
      <trkpt lat="49.97238" lon="2.33731">
        <ele>108.9</ele>
        <time>2023-12-27T14:50:22Z</time>
      </trkpt>
      <trkpt lat="49.97238" lon="2.33729">
        <ele>108.8</ele>
        <time>2023-12-27T14:50:23Z</time>
      </trkpt>
      <trkpt lat="49.97238" lon="2.33727">
        <ele>108.7</ele>
        <time>2023-12-27T14:50:25Z</time>
      </trkpt>
      <trkpt lat="49.97238" lon="2.33725">
        <ele>108.7</ele>
        <time>2023-12-27T14:50:27Z</time>
      </trkpt>
      <trkpt lat="49.97238" lon="2.33723">
        <ele>108.7</ele>
        <time>2023-12-27T14:50:28Z</time>
      </trkpt>
      <trkpt lat="49.97238" lon="2.33722">
        <ele>108.6</ele>
        <time>2023-12-27T14:50:29Z</time>
      </trkpt>
      <trkpt lat="49.97237" lon="2.33721">
        <ele>108.6</ele>
        <time>2023-12-27T14:50:30Z</time>
      </trkpt>
      <trkpt lat="49.97237" lon="2.33718">
        <ele>108.5</ele>
        <time>2023-12-27T14:50:32Z</time>
      </trkpt>
      <trkpt lat="49.97237" lon="2.33717">
        <ele>108.5</ele>
        <time>2023-12-27T14:50:33Z</time>
      </trkpt>
      <trkpt lat="49.97237" lon="2.33715">
        <ele>108.5</ele>
        <time>2023-12-27T14:50:34Z</time>
      </trkpt>
      <trkpt lat="49.97237" lon="2.33714">
        <ele>108.4</ele>
        <time>2023-12-27T14:50:35Z</time>
      </trkpt>
      <trkpt lat="49.97236" lon="2.33712">
        <ele>108.4</ele>
        <time>2023-12-27T14:50:36Z</time>
      </trkpt>
      <trkpt lat="49.97236" lon="2.3371">
        <ele>108.4</ele>
        <time>2023-12-27T14:50:37Z</time>
      </trkpt>
      <trkpt lat="49.97235" lon="2.33707">
        <ele>108.3</ele>
        <time>2023-12-27T14:50:39Z</time>
      </trkpt>
      <trkpt lat="49.97235" lon="2.33706">
        <ele>108.3</ele>
        <time>2023-12-27T14:50:40Z</time>
      </trkpt>
      <trkpt lat="49.97235" lon="2.33705">
        <ele>108.2</ele>
        <time>2023-12-27T14:50:41Z</time>
      </trkpt>
      <trkpt lat="49.97235" lon="2.33702">
        <ele>108.2</ele>
        <time>2023-12-27T14:50:42Z</time>
      </trkpt>
      <trkpt lat="49.97234" lon="2.337">
        <ele>108.1</ele>
        <time>2023-12-27T14:50:43Z</time>
      </trkpt>
      <trkpt lat="49.97234" lon="2.33698">
        <ele>108.1</ele>
        <time>2023-12-27T14:50:44Z</time>
      </trkpt>
      <trkpt lat="49.97234" lon="2.33696">
        <ele>108.1</ele>
        <time>2023-12-27T14:50:45Z</time>
      </trkpt>
      <trkpt lat="49.97234" lon="2.33695">
        <ele>108</ele>
        <time>2023-12-27T14:50:47Z</time>
      </trkpt>
      <trkpt lat="49.97234" lon="2.33691">
        <ele>108</ele>
        <time>2023-12-27T14:50:48Z</time>
      </trkpt>
      <trkpt lat="49.97234" lon="2.3369">
        <ele>107.9</ele>
        <time>2023-12-27T14:50:49Z</time>
      </trkpt>
      <trkpt lat="49.97234" lon="2.33689">
        <ele>107.9</ele>
        <time>2023-12-27T14:50:50Z</time>
      </trkpt>
      <trkpt lat="49.97234" lon="2.33687">
        <ele>107.9</ele>
        <time>2023-12-27T14:50:51Z</time>
      </trkpt>
      <trkpt lat="49.97234" lon="2.33685">
        <ele>107.9</ele>
        <time>2023-12-27T14:50:52Z</time>
      </trkpt>
      <trkpt lat="49.97233" lon="2.33683">
        <ele>107.8</ele>
        <time>2023-12-27T14:50:54Z</time>
      </trkpt>
      <trkpt lat="49.97233" lon="2.3368">
        <ele>107.8</ele>
        <time>2023-12-27T14:50:55Z</time>
      </trkpt>
      <trkpt lat="49.97233" lon="2.33678">
        <ele>107.7</ele>
        <time>2023-12-27T14:50:56Z</time>
      </trkpt>
      <trkpt lat="49.97233" lon="2.33677">
        <ele>107.7</ele>
        <time>2023-12-27T14:50:57Z</time>
      </trkpt>
      <trkpt lat="49.97232" lon="2.33674">
        <ele>107.7</ele>
        <time>2023-12-27T14:50:58Z</time>
      </trkpt>
      <trkpt lat="49.97232" lon="2.33673">
        <ele>107.6</ele>
        <time>2023-12-27T14:50:59Z</time>
      </trkpt>
      <trkpt lat="49.97232" lon="2.33672">
        <ele>107.6</ele>
        <time>2023-12-27T14:51:01Z</time>
      </trkpt>
      <trkpt lat="49.97232" lon="2.33671">
        <ele>107.6</ele>
        <time>2023-12-27T14:51:02Z</time>
      </trkpt>
      <trkpt lat="49.97232" lon="2.3367">
        <ele>107.6</ele>
        <time>2023-12-27T14:51:03Z</time>
      </trkpt>
      <trkpt lat="49.97232" lon="2.33669">
        <ele>107.6</ele>
        <time>2023-12-27T14:51:04Z</time>
      </trkpt>
      <trkpt lat="49.97231" lon="2.33668">
        <ele>107.5</ele>
        <time>2023-12-27T14:51:06Z</time>
      </trkpt>
      <trkpt lat="49.97231" lon="2.33667">
        <ele>107.5</ele>
        <time>2023-12-27T14:51:07Z</time>
      </trkpt>
      <trkpt lat="49.97231" lon="2.33665">
        <ele>107.5</ele>
        <time>2023-12-27T14:51:08Z</time>
      </trkpt>
      <trkpt lat="49.97231" lon="2.33664">
        <ele>107.5</ele>
        <time>2023-12-27T14:51:09Z</time>
      </trkpt>
      <trkpt lat="49.9723" lon="2.33662">
        <ele>107.4</ele>
        <time>2023-12-27T14:51:10Z</time>
      </trkpt>
      <trkpt lat="49.9723" lon="2.3366">
        <ele>107.4</ele>
        <time>2023-12-27T14:51:11Z</time>
      </trkpt>
      <trkpt lat="49.9723" lon="2.33658">
        <ele>107.4</ele>
        <time>2023-12-27T14:51:12Z</time>
      </trkpt>
      <trkpt lat="49.9723" lon="2.33656">
        <ele>107.4</ele>
        <time>2023-12-27T14:51:14Z</time>
      </trkpt>
      <trkpt lat="49.97229" lon="2.33653">
        <ele>107.3</ele>
        <time>2023-12-27T14:51:15Z</time>
      </trkpt>
      <trkpt lat="49.97228" lon="2.33652">
        <ele>107.3</ele>
        <time>2023-12-27T14:51:16Z</time>
      </trkpt>
      <trkpt lat="49.97228" lon="2.33651">
        <ele>107.3</ele>
        <time>2023-12-27T14:51:17Z</time>
      </trkpt>
      <trkpt lat="49.97227" lon="2.33647">
        <ele>107.2</ele>
        <time>2023-12-27T14:51:18Z</time>
      </trkpt>
      <trkpt lat="49.97227" lon="2.33646">
        <ele>107.2</ele>
        <time>2023-12-27T14:51:19Z</time>
      </trkpt>
      <trkpt lat="49.97227" lon="2.33645">
        <ele>107.2</ele>
        <time>2023-12-27T14:51:20Z</time>
      </trkpt>
      <trkpt lat="49.97227" lon="2.33641">
        <ele>107.2</ele>
        <time>2023-12-27T14:51:21Z</time>
      </trkpt>
      <trkpt lat="49.97226" lon="2.3364">
        <ele>107.2</ele>
        <time>2023-12-27T14:51:22Z</time>
      </trkpt>
      <trkpt lat="49.97226" lon="2.33639">
        <ele>107.1</ele>
        <time>2023-12-27T14:51:23Z</time>
      </trkpt>
      <trkpt lat="49.97226" lon="2.33636">
        <ele>107.1</ele>
        <time>2023-12-27T14:51:25Z</time>
      </trkpt>
      <trkpt lat="49.97226" lon="2.33634">
        <ele>107.1</ele>
        <time>2023-12-27T14:51:26Z</time>
      </trkpt>
      <trkpt lat="49.97225" lon="2.33631">
        <ele>107</ele>
        <time>2023-12-27T14:51:27Z</time>
      </trkpt>
      <trkpt lat="49.97225" lon="2.3363">
        <ele>107</ele>
        <time>2023-12-27T14:51:28Z</time>
      </trkpt>
      <trkpt lat="49.97225" lon="2.33629">
        <ele>107</ele>
        <time>2023-12-27T14:51:29Z</time>
      </trkpt>
      <trkpt lat="49.97225" lon="2.33627">
        <ele>107</ele>
        <time>2023-12-27T14:51:31Z</time>
      </trkpt>
      <trkpt lat="49.97225" lon="2.33625">
        <ele>107</ele>
        <time>2023-12-27T14:51:32Z</time>
      </trkpt>
      <trkpt lat="49.97225" lon="2.33623">
        <ele>107</ele>
        <time>2023-12-27T14:51:33Z</time>
      </trkpt>
      <trkpt lat="49.97225" lon="2.33622">
        <ele>106.9</ele>
        <time>2023-12-27T14:51:34Z</time>
      </trkpt>
      <trkpt lat="49.97225" lon="2.3362">
        <ele>106.9</ele>
        <time>2023-12-27T14:51:35Z</time>
      </trkpt>
      <trkpt lat="49.97224" lon="2.33618">
        <ele>106.9</ele>
        <time>2023-12-27T14:51:36Z</time>
      </trkpt>
      <trkpt lat="49.97224" lon="2.33616">
        <ele>106.9</ele>
        <time>2023-12-27T14:51:38Z</time>
      </trkpt>
      <trkpt lat="49.97224" lon="2.33615">
        <ele>106.8</ele>
        <time>2023-12-27T14:51:39Z</time>
      </trkpt>
      <trkpt lat="49.97224" lon="2.33613">
        <ele>106.8</ele>
        <time>2023-12-27T14:51:40Z</time>
      </trkpt>
      <trkpt lat="49.97223" lon="2.33612">
        <ele>106.8</ele>
        <time>2023-12-27T14:51:41Z</time>
      </trkpt>
      <trkpt lat="49.97223" lon="2.3361">
        <ele>106.8</ele>
        <time>2023-12-27T14:51:42Z</time>
      </trkpt>
      <trkpt lat="49.97223" lon="2.33609">
        <ele>106.7</ele>
        <time>2023-12-27T14:51:44Z</time>
      </trkpt>
      <trkpt lat="49.97222" lon="2.33607">
        <ele>106.7</ele>
        <time>2023-12-27T14:51:45Z</time>
      </trkpt>
      <trkpt lat="49.97222" lon="2.33605">
        <ele>106.7</ele>
        <time>2023-12-27T14:51:46Z</time>
      </trkpt>
      <trkpt lat="49.97222" lon="2.33604">
        <ele>106.6</ele>
        <time>2023-12-27T14:51:47Z</time>
      </trkpt>
      <trkpt lat="49.97222" lon="2.33602">
        <ele>106.6</ele>
        <time>2023-12-27T14:51:48Z</time>
      </trkpt>
      <trkpt lat="49.97222" lon="2.336">
        <ele>106.6</ele>
        <time>2023-12-27T14:51:50Z</time>
      </trkpt>
      <trkpt lat="49.97221" lon="2.33599">
        <ele>106.5</ele>
        <time>2023-12-27T14:51:51Z</time>
      </trkpt>
      <trkpt lat="49.97221" lon="2.33598">
        <ele>106.5</ele>
        <time>2023-12-27T14:51:52Z</time>
      </trkpt>
      <trkpt lat="49.97221" lon="2.33596">
        <ele>106.5</ele>
        <time>2023-12-27T14:51:54Z</time>
      </trkpt>
      <trkpt lat="49.97221" lon="2.33595">
        <ele>106.4</ele>
        <time>2023-12-27T14:51:55Z</time>
      </trkpt>
      <trkpt lat="49.97221" lon="2.33595">
        <ele>106.4</ele>
        <time>2023-12-27T14:51:56Z</time>
      </trkpt>
      <trkpt lat="49.9722" lon="2.33594">
        <ele>106.4</ele>
        <time>2023-12-27T14:51:57Z</time>
      </trkpt>
      <trkpt lat="49.9722" lon="2.33593">
        <ele>106.4</ele>
        <time>2023-12-27T14:51:58Z</time>
      </trkpt>
      <trkpt lat="49.97221" lon="2.33592">
        <ele>106.4</ele>
        <time>2023-12-27T14:52:00Z</time>
      </trkpt>
      <trkpt lat="49.97221" lon="2.33592">
        <ele>106.3</ele>
        <time>2023-12-27T14:52:01Z</time>
      </trkpt>
      <trkpt lat="49.97222" lon="2.33592">
        <ele>106.3</ele>
        <time>2023-12-27T14:52:02Z</time>
      </trkpt>
      <trkpt lat="49.97223" lon="2.33591">
        <ele>106.3</ele>
        <time>2023-12-27T14:52:03Z</time>
      </trkpt>
      <trkpt lat="49.97223" lon="2.3359">
        <ele>106.3</ele>
        <time>2023-12-27T14:52:05Z</time>
      </trkpt>
      <trkpt lat="49.97223" lon="2.33589">
        <ele>106.2</ele>
        <time>2023-12-27T14:52:06Z</time>
      </trkpt>
      <trkpt lat="49.97223" lon="2.33588">
        <ele>106.2</ele>
        <time>2023-12-27T14:52:07Z</time>
      </trkpt>
      <trkpt lat="49.97223" lon="2.33586">
        <ele>106.2</ele>
        <time>2023-12-27T14:52:08Z</time>
      </trkpt>
      <trkpt lat="49.97223" lon="2.33585">
        <ele>106.2</ele>
        <time>2023-12-27T14:52:10Z</time>
      </trkpt>
      <trkpt lat="49.97223" lon="2.33584">
        <ele>106.1</ele>
        <time>2023-12-27T14:52:11Z</time>
      </trkpt>
      <trkpt lat="49.97222" lon="2.33583">
        <ele>106.1</ele>
        <time>2023-12-27T14:52:12Z</time>
      </trkpt>
      <trkpt lat="49.97222" lon="2.33582">
        <ele>106.1</ele>
        <time>2023-12-27T14:52:13Z</time>
      </trkpt>
      <trkpt lat="49.97222" lon="2.33581">
        <ele>106.1</ele>
        <time>2023-12-27T14:52:15Z</time>
      </trkpt>
      <trkpt lat="49.97221" lon="2.3358">
        <ele>106</ele>
        <time>2023-12-27T14:52:16Z</time>
      </trkpt>
      <trkpt lat="49.97221" lon="2.3358">
        <ele>106</ele>
        <time>2023-12-27T14:52:17Z</time>
      </trkpt>
      <trkpt lat="49.9722" lon="2.3358">
        <ele>106</ele>
        <time>2023-12-27T14:52:19Z</time>
      </trkpt>
      <trkpt lat="49.9722" lon="2.33581">
        <ele>106</ele>
        <time>2023-12-27T14:52:20Z</time>
      </trkpt>
      <trkpt lat="49.9722" lon="2.33581">
        <ele>106</ele>
        <time>2023-12-27T14:52:21Z</time>
      </trkpt>
      <trkpt lat="49.9722" lon="2.33581">
        <ele>106</ele>
        <time>2023-12-27T14:52:23Z</time>
      </trkpt>
      <trkpt lat="49.9722" lon="2.33581">
        <ele>106</ele>
        <time>2023-12-27T14:52:24Z</time>
      </trkpt>
      <trkpt lat="49.9722" lon="2.33582">
        <ele>106</ele>
        <time>2023-12-27T14:52:26Z</time>
      </trkpt>
      <trkpt lat="49.9722" lon="2.33582">
        <ele>106</ele>
        <time>2023-12-27T14:52:27Z</time>
      </trkpt>
      <trkpt lat="49.9722" lon="2.33582">
        <ele>106</ele>
        <time>2023-12-27T14:52:29Z</time>
      </trkpt>
      <trkpt lat="49.9722" lon="2.33582">
        <ele>106</ele>
        <time>2023-12-27T14:52:30Z</time>
      </trkpt>
      <trkpt lat="49.9722" lon="2.33577">
        <ele>105.9</ele>
        <time>2023-12-27T14:52:49Z</time>
      </trkpt>
      <trkpt lat="49.9722" lon="2.33576">
        <ele>105.8</ele>
        <time>2023-12-27T14:52:50Z</time>
      </trkpt>
      <trkpt lat="49.9722" lon="2.33574">
        <ele>105.8</ele>
        <time>2023-12-27T14:52:51Z</time>
      </trkpt>
      <trkpt lat="49.97219" lon="2.33572">
        <ele>105.8</ele>
        <time>2023-12-27T14:52:53Z</time>
      </trkpt>
      <trkpt lat="49.97219" lon="2.33571">
        <ele>105.7</ele>
        <time>2023-12-27T14:52:54Z</time>
      </trkpt>
      <trkpt lat="49.97218" lon="2.33569">
        <ele>105.7</ele>
        <time>2023-12-27T14:52:55Z</time>
      </trkpt>
      <trkpt lat="49.97218" lon="2.33567">
        <ele>105.6</ele>
        <time>2023-12-27T14:52:57Z</time>
      </trkpt>
      <trkpt lat="49.97217" lon="2.33566">
        <ele>105.6</ele>
        <time>2023-12-27T14:52:58Z</time>
      </trkpt>
      <trkpt lat="49.97217" lon="2.33565">
        <ele>105.6</ele>
        <time>2023-12-27T14:52:59Z</time>
      </trkpt>
      <trkpt lat="49.97217" lon="2.33563">
        <ele>105.5</ele>
        <time>2023-12-27T14:53:00Z</time>
      </trkpt>
      <trkpt lat="49.97217" lon="2.3356">
        <ele>105.5</ele>
        <time>2023-12-27T14:53:01Z</time>
      </trkpt>
      <trkpt lat="49.97217" lon="2.33559">
        <ele>105.4</ele>
        <time>2023-12-27T14:53:02Z</time>
      </trkpt>
      <trkpt lat="49.97216" lon="2.33558">
        <ele>105.4</ele>
        <time>2023-12-27T14:53:03Z</time>
      </trkpt>
      <trkpt lat="49.97216" lon="2.33557">
        <ele>105.4</ele>
        <time>2023-12-27T14:53:04Z</time>
      </trkpt>
      <trkpt lat="49.97217" lon="2.33556">
        <ele>105.3</ele>
        <time>2023-12-27T14:53:06Z</time>
      </trkpt>
      <trkpt lat="49.97217" lon="2.33555">
        <ele>105.3</ele>
        <time>2023-12-27T14:53:07Z</time>
      </trkpt>
      <trkpt lat="49.97217" lon="2.33553">
        <ele>105.3</ele>
        <time>2023-12-27T14:53:08Z</time>
      </trkpt>
      <trkpt lat="49.97216" lon="2.33552">
        <ele>105.2</ele>
        <time>2023-12-27T14:53:10Z</time>
      </trkpt>
      <trkpt lat="49.97216" lon="2.33551">
        <ele>105.2</ele>
        <time>2023-12-27T14:53:12Z</time>
      </trkpt>
      <trkpt lat="49.97216" lon="2.33551">
        <ele>105.2</ele>
        <time>2023-12-27T14:53:13Z</time>
      </trkpt>
      <trkpt lat="49.97216" lon="2.33551">
        <ele>105.2</ele>
        <time>2023-12-27T14:53:14Z</time>
      </trkpt>
      <trkpt lat="49.97216" lon="2.33551">
        <ele>105.2</ele>
        <time>2023-12-27T14:53:16Z</time>
      </trkpt>
      <trkpt lat="49.97216" lon="2.33551">
        <ele>105.2</ele>
        <time>2023-12-27T14:53:17Z</time>
      </trkpt>
      <trkpt lat="49.97216" lon="2.3355">
        <ele>105.2</ele>
        <time>2023-12-27T14:53:18Z</time>
      </trkpt>
      <trkpt lat="49.97216" lon="2.33548">
        <ele>105.1</ele>
        <time>2023-12-27T14:53:20Z</time>
      </trkpt>
      <trkpt lat="49.97216" lon="2.33547">
        <ele>105.1</ele>
        <time>2023-12-27T14:53:21Z</time>
      </trkpt>
      <trkpt lat="49.97215" lon="2.33545">
        <ele>105</ele>
        <time>2023-12-27T14:53:22Z</time>
      </trkpt>
      <trkpt lat="49.97215" lon="2.33545">
        <ele>105</ele>
        <time>2023-12-27T14:53:24Z</time>
      </trkpt>
      <trkpt lat="49.97215" lon="2.33544">
        <ele>105</ele>
        <time>2023-12-27T14:53:25Z</time>
      </trkpt>
      <trkpt lat="49.97215" lon="2.33544">
        <ele>105</ele>
        <time>2023-12-27T14:53:27Z</time>
      </trkpt>
      <trkpt lat="49.97215" lon="2.33543">
        <ele>105</ele>
        <time>2023-12-27T14:53:28Z</time>
      </trkpt>
      <trkpt lat="49.97215" lon="2.33543">
        <ele>105</ele>
        <time>2023-12-27T14:53:30Z</time>
      </trkpt>
      <trkpt lat="49.97215" lon="2.33542">
        <ele>105</ele>
        <time>2023-12-27T14:53:31Z</time>
      </trkpt>
      <trkpt lat="49.97215" lon="2.33542">
        <ele>105</ele>
        <time>2023-12-27T14:53:32Z</time>
      </trkpt>
      <trkpt lat="49.97215" lon="2.33541">
        <ele>105</ele>
        <time>2023-12-27T14:53:33Z</time>
      </trkpt>
      <trkpt lat="49.97215" lon="2.33541">
        <ele>104.9</ele>
        <time>2023-12-27T14:53:34Z</time>
      </trkpt>
      <trkpt lat="49.97215" lon="2.3354">
        <ele>104.9</ele>
        <time>2023-12-27T14:53:35Z</time>
      </trkpt>
      <trkpt lat="49.97215" lon="2.3354">
        <ele>104.9</ele>
        <time>2023-12-27T14:53:36Z</time>
      </trkpt>
      <trkpt lat="49.97215" lon="2.33539">
        <ele>104.9</ele>
        <time>2023-12-27T14:53:37Z</time>
      </trkpt>
      <trkpt lat="49.97214" lon="2.33539">
        <ele>104.9</ele>
        <time>2023-12-27T14:53:38Z</time>
      </trkpt>
      <trkpt lat="49.97214" lon="2.33538">
        <ele>104.9</ele>
        <time>2023-12-27T14:54:12Z</time>
      </trkpt>
      <trkpt lat="49.97214" lon="2.33538">
        <ele>104.9</ele>
        <time>2023-12-27T14:54:13Z</time>
      </trkpt>
      <trkpt lat="49.97214" lon="2.33537">
        <ele>104.9</ele>
        <time>2023-12-27T14:54:14Z</time>
      </trkpt>
      <trkpt lat="49.97214" lon="2.33537">
        <ele>104.9</ele>
        <time>2023-12-27T14:54:15Z</time>
      </trkpt>
      <trkpt lat="49.97214" lon="2.33536">
        <ele>104.9</ele>
        <time>2023-12-27T14:54:16Z</time>
      </trkpt>
      <trkpt lat="49.97214" lon="2.33533">
        <ele>104.8</ele>
        <time>2023-12-27T14:54:17Z</time>
      </trkpt>
      <trkpt lat="49.97214" lon="2.33532">
        <ele>104.8</ele>
        <time>2023-12-27T14:54:19Z</time>
      </trkpt>
      <trkpt lat="49.97214" lon="2.3353">
        <ele>104.7</ele>
        <time>2023-12-27T14:54:20Z</time>
      </trkpt>
      <trkpt lat="49.97214" lon="2.33529">
        <ele>104.7</ele>
        <time>2023-12-27T14:54:21Z</time>
      </trkpt>
      <trkpt lat="49.97214" lon="2.33527">
        <ele>104.7</ele>
        <time>2023-12-27T14:54:22Z</time>
      </trkpt>
      <trkpt lat="49.97214" lon="2.33525">
        <ele>104.7</ele>
        <time>2023-12-27T14:54:23Z</time>
      </trkpt>
      <trkpt lat="49.97213" lon="2.33523">
        <ele>104.6</ele>
        <time>2023-12-27T14:54:25Z</time>
      </trkpt>
      <trkpt lat="49.97213" lon="2.33522">
        <ele>104.6</ele>
        <time>2023-12-27T14:54:26Z</time>
      </trkpt>
      <trkpt lat="49.97213" lon="2.3352">
        <ele>104.6</ele>
        <time>2023-12-27T14:54:27Z</time>
      </trkpt>
      <trkpt lat="49.97212" lon="2.33518">
        <ele>104.6</ele>
        <time>2023-12-27T14:54:28Z</time>
      </trkpt>
      <trkpt lat="49.97212" lon="2.33517">
        <ele>104.6</ele>
        <time>2023-12-27T14:54:29Z</time>
      </trkpt>
      <trkpt lat="49.97212" lon="2.33515">
        <ele>104.5</ele>
        <time>2023-12-27T14:54:30Z</time>
      </trkpt>
      <trkpt lat="49.97211" lon="2.33513">
        <ele>104.5</ele>
        <time>2023-12-27T14:54:31Z</time>
      </trkpt>
      <trkpt lat="49.97211" lon="2.33511">
        <ele>104.5</ele>
        <time>2023-12-27T14:54:33Z</time>
      </trkpt>
      <trkpt lat="49.97211" lon="2.3351">
        <ele>104.5</ele>
        <time>2023-12-27T14:54:34Z</time>
      </trkpt>
      <trkpt lat="49.9721" lon="2.33508">
        <ele>104.5</ele>
        <time>2023-12-27T14:54:35Z</time>
      </trkpt>
      <trkpt lat="49.9721" lon="2.33507">
        <ele>104.4</ele>
        <time>2023-12-27T14:54:36Z</time>
      </trkpt>
      <trkpt lat="49.9721" lon="2.33505">
        <ele>104.4</ele>
        <time>2023-12-27T14:54:37Z</time>
      </trkpt>
      <trkpt lat="49.97209" lon="2.33502">
        <ele>104.4</ele>
        <time>2023-12-27T14:54:38Z</time>
      </trkpt>
      <trkpt lat="49.97209" lon="2.335">
        <ele>104.4</ele>
        <time>2023-12-27T14:54:39Z</time>
      </trkpt>
      <trkpt lat="49.97209" lon="2.33499">
        <ele>104.4</ele>
        <time>2023-12-27T14:54:40Z</time>
      </trkpt>
      <trkpt lat="49.97209" lon="2.33496">
        <ele>104.3</ele>
        <time>2023-12-27T14:54:42Z</time>
      </trkpt>
      <trkpt lat="49.97208" lon="2.33495">
        <ele>104.3</ele>
        <time>2023-12-27T14:54:43Z</time>
      </trkpt>
      <trkpt lat="49.97208" lon="2.33494">
        <ele>104.3</ele>
        <time>2023-12-27T14:54:44Z</time>
      </trkpt>
      <trkpt lat="49.97208" lon="2.33492">
        <ele>104.3</ele>
        <time>2023-12-27T14:54:45Z</time>
      </trkpt>
      <trkpt lat="49.97208" lon="2.3349">
        <ele>104.3</ele>
        <time>2023-12-27T14:54:46Z</time>
      </trkpt>
      <trkpt lat="49.97208" lon="2.33489">
        <ele>104.3</ele>
        <time>2023-12-27T14:54:47Z</time>
      </trkpt>
      <trkpt lat="49.97208" lon="2.33487">
        <ele>104.2</ele>
        <time>2023-12-27T14:54:48Z</time>
      </trkpt>
      <trkpt lat="49.97208" lon="2.33485">
        <ele>104.2</ele>
        <time>2023-12-27T14:54:49Z</time>
      </trkpt>
      <trkpt lat="49.97208" lon="2.33483">
        <ele>104.2</ele>
        <time>2023-12-27T14:54:51Z</time>
      </trkpt>
      <trkpt lat="49.97208" lon="2.33479">
        <ele>104.2</ele>
        <time>2023-12-27T14:54:52Z</time>
      </trkpt>
      <trkpt lat="49.97208" lon="2.33478">
        <ele>104.2</ele>
        <time>2023-12-27T14:54:53Z</time>
      </trkpt>
      <trkpt lat="49.97208" lon="2.33477">
        <ele>104.1</ele>
        <time>2023-12-27T14:54:54Z</time>
      </trkpt>
      <trkpt lat="49.97208" lon="2.33475">
        <ele>104.1</ele>
        <time>2023-12-27T14:54:55Z</time>
      </trkpt>
      <trkpt lat="49.97208" lon="2.33473">
        <ele>104.1</ele>
        <time>2023-12-27T14:54:56Z</time>
      </trkpt>
      <trkpt lat="49.97208" lon="2.33471">
        <ele>104.1</ele>
        <time>2023-12-27T14:54:58Z</time>
      </trkpt>
      <trkpt lat="49.97208" lon="2.33468">
        <ele>104.1</ele>
        <time>2023-12-27T14:54:59Z</time>
      </trkpt>
      <trkpt lat="49.97207" lon="2.33466">
        <ele>104</ele>
        <time>2023-12-27T14:55:01Z</time>
      </trkpt>
      <trkpt lat="49.97207" lon="2.33464">
        <ele>104</ele>
        <time>2023-12-27T14:55:02Z</time>
      </trkpt>
      <trkpt lat="49.97207" lon="2.33463">
        <ele>104</ele>
        <time>2023-12-27T14:55:03Z</time>
      </trkpt>
      <trkpt lat="49.97207" lon="2.33461">
        <ele>104</ele>
        <time>2023-12-27T14:55:04Z</time>
      </trkpt>
      <trkpt lat="49.97206" lon="2.33458">
        <ele>104</ele>
        <time>2023-12-27T14:55:05Z</time>
      </trkpt>
      <trkpt lat="49.97206" lon="2.33456">
        <ele>104</ele>
        <time>2023-12-27T14:55:06Z</time>
      </trkpt>
      <trkpt lat="49.97206" lon="2.33455">
        <ele>103.9</ele>
        <time>2023-12-27T14:55:07Z</time>
      </trkpt>
      <trkpt lat="49.97205" lon="2.33453">
        <ele>103.9</ele>
        <time>2023-12-27T14:55:08Z</time>
      </trkpt>
      <trkpt lat="49.97205" lon="2.33451">
        <ele>103.9</ele>
        <time>2023-12-27T14:55:09Z</time>
      </trkpt>
      <trkpt lat="49.97204" lon="2.3345">
        <ele>103.9</ele>
        <time>2023-12-27T14:55:11Z</time>
      </trkpt>
      <trkpt lat="49.97203" lon="2.33447">
        <ele>103.9</ele>
        <time>2023-12-27T14:55:12Z</time>
      </trkpt>
      <trkpt lat="49.97203" lon="2.33446">
        <ele>103.9</ele>
        <time>2023-12-27T14:55:13Z</time>
      </trkpt>
      <trkpt lat="49.97202" lon="2.33444">
        <ele>103.9</ele>
        <time>2023-12-27T14:55:14Z</time>
      </trkpt>
      <trkpt lat="49.97202" lon="2.33443">
        <ele>103.8</ele>
        <time>2023-12-27T14:55:15Z</time>
      </trkpt>
      <trkpt lat="49.97202" lon="2.33441">
        <ele>103.8</ele>
        <time>2023-12-27T14:55:16Z</time>
      </trkpt>
      <trkpt lat="49.97201" lon="2.33437">
        <ele>103.8</ele>
        <time>2023-12-27T14:55:18Z</time>
      </trkpt>
      <trkpt lat="49.97201" lon="2.33435">
        <ele>103.8</ele>
        <time>2023-12-27T14:55:20Z</time>
      </trkpt>
      <trkpt lat="49.97201" lon="2.33433">
        <ele>103.8</ele>
        <time>2023-12-27T14:55:21Z</time>
      </trkpt>
      <trkpt lat="49.97201" lon="2.33431">
        <ele>103.8</ele>
        <time>2023-12-27T14:55:22Z</time>
      </trkpt>
      <trkpt lat="49.97202" lon="2.3343">
        <ele>103.7</ele>
        <time>2023-12-27T14:55:23Z</time>
      </trkpt>
      <trkpt lat="49.97202" lon="2.33428">
        <ele>103.7</ele>
        <time>2023-12-27T14:55:24Z</time>
      </trkpt>
      <trkpt lat="49.97202" lon="2.33425">
        <ele>103.7</ele>
        <time>2023-12-27T14:55:25Z</time>
      </trkpt>
      <trkpt lat="49.97203" lon="2.33424">
        <ele>103.7</ele>
        <time>2023-12-27T14:55:26Z</time>
      </trkpt>
      <trkpt lat="49.97203" lon="2.33422">
        <ele>103.7</ele>
        <time>2023-12-27T14:55:27Z</time>
      </trkpt>
      <trkpt lat="49.97203" lon="2.33419">
        <ele>103.7</ele>
        <time>2023-12-27T14:55:29Z</time>
      </trkpt>
      <trkpt lat="49.97203" lon="2.33418">
        <ele>103.7</ele>
        <time>2023-12-27T14:55:30Z</time>
      </trkpt>
      <trkpt lat="49.97203" lon="2.33417">
        <ele>103.6</ele>
        <time>2023-12-27T14:55:31Z</time>
      </trkpt>
      <trkpt lat="49.97204" lon="2.33413">
        <ele>103.6</ele>
        <time>2023-12-27T14:55:32Z</time>
      </trkpt>
      <trkpt lat="49.97204" lon="2.33412">
        <ele>103.6</ele>
        <time>2023-12-27T14:55:33Z</time>
      </trkpt>
      <trkpt lat="49.97204" lon="2.33411">
        <ele>103.6</ele>
        <time>2023-12-27T14:55:34Z</time>
      </trkpt>
      <trkpt lat="49.97204" lon="2.33409">
        <ele>103.6</ele>
        <time>2023-12-27T14:55:35Z</time>
      </trkpt>
      <trkpt lat="49.97204" lon="2.33407">
        <ele>103.5</ele>
        <time>2023-12-27T14:55:36Z</time>
      </trkpt>
      <trkpt lat="49.97204" lon="2.33405">
        <ele>103.5</ele>
        <time>2023-12-27T14:55:38Z</time>
      </trkpt>
      <trkpt lat="49.97204" lon="2.33403">
        <ele>103.5</ele>
        <time>2023-12-27T14:55:39Z</time>
      </trkpt>
      <trkpt lat="49.97204" lon="2.33401">
        <ele>103.5</ele>
        <time>2023-12-27T14:55:40Z</time>
      </trkpt>
      <trkpt lat="49.97203" lon="2.33399">
        <ele>103.5</ele>
        <time>2023-12-27T14:55:41Z</time>
      </trkpt>
      <trkpt lat="49.97203" lon="2.33397">
        <ele>103.5</ele>
        <time>2023-12-27T14:55:42Z</time>
      </trkpt>
      <trkpt lat="49.97202" lon="2.33394">
        <ele>103.4</ele>
        <time>2023-12-27T14:55:44Z</time>
      </trkpt>
      <trkpt lat="49.97202" lon="2.33392">
        <ele>103.4</ele>
        <time>2023-12-27T14:55:45Z</time>
      </trkpt>
      <trkpt lat="49.97201" lon="2.3339">
        <ele>103.4</ele>
        <time>2023-12-27T14:55:46Z</time>
      </trkpt>
      <trkpt lat="49.972" lon="2.33388">
        <ele>103.4</ele>
        <time>2023-12-27T14:55:47Z</time>
      </trkpt>
      <trkpt lat="49.972" lon="2.33386">
        <ele>103.3</ele>
        <time>2023-12-27T14:55:48Z</time>
      </trkpt>
      <trkpt lat="49.97199" lon="2.33384">
        <ele>103.3</ele>
        <time>2023-12-27T14:55:49Z</time>
      </trkpt>
      <trkpt lat="49.97199" lon="2.33382">
        <ele>103.3</ele>
        <time>2023-12-27T14:55:51Z</time>
      </trkpt>
      <trkpt lat="49.97199" lon="2.3338">
        <ele>103.3</ele>
        <time>2023-12-27T14:55:52Z</time>
      </trkpt>
      <trkpt lat="49.97198" lon="2.33378">
        <ele>103.3</ele>
        <time>2023-12-27T14:55:53Z</time>
      </trkpt>
      <trkpt lat="49.97198" lon="2.33377">
        <ele>103.2</ele>
        <time>2023-12-27T14:55:54Z</time>
      </trkpt>
      <trkpt lat="49.97198" lon="2.33375">
        <ele>103.2</ele>
        <time>2023-12-27T14:55:55Z</time>
      </trkpt>
      <trkpt lat="49.97197" lon="2.33373">
        <ele>103.2</ele>
        <time>2023-12-27T14:55:56Z</time>
      </trkpt>
      <trkpt lat="49.97197" lon="2.33372">
        <ele>103.2</ele>
        <time>2023-12-27T14:55:58Z</time>
      </trkpt>
      <trkpt lat="49.97196" lon="2.3337">
        <ele>103.2</ele>
        <time>2023-12-27T14:55:59Z</time>
      </trkpt>
      <trkpt lat="49.97196" lon="2.33369">
        <ele>103.2</ele>
        <time>2023-12-27T14:56:00Z</time>
      </trkpt>
      <trkpt lat="49.97196" lon="2.33367">
        <ele>103.2</ele>
        <time>2023-12-27T14:56:01Z</time>
      </trkpt>
      <trkpt lat="49.97195" lon="2.33366">
        <ele>103.2</ele>
        <time>2023-12-27T14:56:02Z</time>
      </trkpt>
      <trkpt lat="49.97195" lon="2.33364">
        <ele>103.2</ele>
        <time>2023-12-27T14:56:03Z</time>
      </trkpt>
      <trkpt lat="49.97194" lon="2.33363">
        <ele>103.1</ele>
        <time>2023-12-27T14:56:04Z</time>
      </trkpt>
      <trkpt lat="49.97194" lon="2.3336">
        <ele>103.1</ele>
        <time>2023-12-27T14:56:05Z</time>
      </trkpt>
      <trkpt lat="49.97193" lon="2.33358">
        <ele>103.1</ele>
        <time>2023-12-27T14:56:06Z</time>
      </trkpt>
      <trkpt lat="49.97193" lon="2.33357">
        <ele>103.1</ele>
        <time>2023-12-27T14:56:08Z</time>
      </trkpt>
      <trkpt lat="49.97193" lon="2.33355">
        <ele>103.1</ele>
        <time>2023-12-27T14:56:09Z</time>
      </trkpt>
      <trkpt lat="49.97193" lon="2.33354">
        <ele>103.1</ele>
        <time>2023-12-27T14:56:10Z</time>
      </trkpt>
      <trkpt lat="49.97192" lon="2.33352">
        <ele>103.1</ele>
        <time>2023-12-27T14:56:11Z</time>
      </trkpt>
      <trkpt lat="49.97192" lon="2.33349">
        <ele>103.1</ele>
        <time>2023-12-27T14:56:12Z</time>
      </trkpt>
      <trkpt lat="49.97192" lon="2.33348">
        <ele>103.1</ele>
        <time>2023-12-27T14:56:13Z</time>
      </trkpt>
      <trkpt lat="49.97192" lon="2.33347">
        <ele>103.1</ele>
        <time>2023-12-27T14:56:14Z</time>
      </trkpt>
      <trkpt lat="49.97192" lon="2.33343">
        <ele>103.1</ele>
        <time>2023-12-27T14:56:15Z</time>
      </trkpt>
      <trkpt lat="49.97191" lon="2.33342">
        <ele>103</ele>
        <time>2023-12-27T14:56:16Z</time>
      </trkpt>
      <trkpt lat="49.97191" lon="2.3334">
        <ele>103</ele>
        <time>2023-12-27T14:56:17Z</time>
      </trkpt>
      <trkpt lat="49.97191" lon="2.33337">
        <ele>103</ele>
        <time>2023-12-27T14:56:18Z</time>
      </trkpt>
      <trkpt lat="49.97191" lon="2.33336">
        <ele>103</ele>
        <time>2023-12-27T14:56:20Z</time>
      </trkpt>
      <trkpt lat="49.97191" lon="2.33334">
        <ele>103</ele>
        <time>2023-12-27T14:56:21Z</time>
      </trkpt>
      <trkpt lat="49.97191" lon="2.33333">
        <ele>103</ele>
        <time>2023-12-27T14:56:22Z</time>
      </trkpt>
      <trkpt lat="49.97191" lon="2.3333">
        <ele>103</ele>
        <time>2023-12-27T14:56:23Z</time>
      </trkpt>
      <trkpt lat="49.9719" lon="2.33327">
        <ele>103</ele>
        <time>2023-12-27T14:56:25Z</time>
      </trkpt>
      <trkpt lat="49.9719" lon="2.33326">
        <ele>103</ele>
        <time>2023-12-27T14:56:27Z</time>
      </trkpt>
      <trkpt lat="49.9719" lon="2.33324">
        <ele>103</ele>
        <time>2023-12-27T14:56:28Z</time>
      </trkpt>
      <trkpt lat="49.9719" lon="2.33324">
        <ele>103</ele>
        <time>2023-12-27T14:56:29Z</time>
      </trkpt>
      <trkpt lat="49.9719" lon="2.33323">
        <ele>103</ele>
        <time>2023-12-27T14:56:30Z</time>
      </trkpt>
      <trkpt lat="49.97189" lon="2.33323">
        <ele>103</ele>
        <time>2023-12-27T14:56:32Z</time>
      </trkpt>
      <trkpt lat="49.97189" lon="2.33323">
        <ele>103</ele>
        <time>2023-12-27T14:56:33Z</time>
      </trkpt>
      <trkpt lat="49.97189" lon="2.33323">
        <ele>103</ele>
        <time>2023-12-27T14:56:35Z</time>
      </trkpt>
      <trkpt lat="49.97189" lon="2.33323">
        <ele>103</ele>
        <time>2023-12-27T14:56:36Z</time>
      </trkpt>
      <trkpt lat="49.97189" lon="2.33323">
        <ele>103</ele>
        <time>2023-12-27T14:56:38Z</time>
      </trkpt>
      <trkpt lat="49.97189" lon="2.33323">
        <ele>103</ele>
        <time>2023-12-27T14:56:39Z</time>
      </trkpt>
      <trkpt lat="49.97189" lon="2.33323">
        <ele>103</ele>
        <time>2023-12-27T14:56:41Z</time>
      </trkpt>
      <trkpt lat="49.97189" lon="2.33323">
        <ele>103</ele>
        <time>2023-12-27T14:56:42Z</time>
      </trkpt>
      <trkpt lat="49.97189" lon="2.33324">
        <ele>103</ele>
        <time>2023-12-27T14:56:44Z</time>
      </trkpt>
      <trkpt lat="49.97189" lon="2.33324">
        <ele>103</ele>
        <time>2023-12-27T14:56:45Z</time>
      </trkpt>
      <trkpt lat="49.97189" lon="2.33325">
        <ele>103</ele>
        <time>2023-12-27T14:56:46Z</time>
      </trkpt>
      <trkpt lat="49.97189" lon="2.33325">
        <ele>103</ele>
        <time>2023-12-27T14:56:47Z</time>
      </trkpt>
      <trkpt lat="49.9719" lon="2.33325">
        <ele>102.9</ele>
        <time>2023-12-27T14:56:48Z</time>
      </trkpt>
      <trkpt lat="49.9719" lon="2.33325">
        <ele>102.9</ele>
        <time>2023-12-27T14:56:49Z</time>
      </trkpt>
      <trkpt lat="49.9719" lon="2.33325">
        <ele>102.9</ele>
        <time>2023-12-27T14:56:50Z</time>
      </trkpt>
      <trkpt lat="49.9719" lon="2.33325">
        <ele>102.9</ele>
        <time>2023-12-27T14:56:51Z</time>
      </trkpt>
      <trkpt lat="49.9719" lon="2.33325">
        <ele>102.9</ele>
        <time>2023-12-27T14:56:52Z</time>
      </trkpt>
      <trkpt lat="49.97193" lon="2.33326">
        <ele>102.9</ele>
        <time>2023-12-27T14:58:12Z</time>
      </trkpt>
      <trkpt lat="49.97193" lon="2.33325">
        <ele>102.8</ele>
        <time>2023-12-27T14:58:13Z</time>
      </trkpt>
      <trkpt lat="49.97194" lon="2.33325">
        <ele>102.8</ele>
        <time>2023-12-27T14:58:14Z</time>
      </trkpt>
      <trkpt lat="49.97194" lon="2.33325">
        <ele>102.8</ele>
        <time>2023-12-27T14:58:15Z</time>
      </trkpt>
      <trkpt lat="49.97195" lon="2.33324">
        <ele>102.8</ele>
        <time>2023-12-27T14:58:16Z</time>
      </trkpt>
      <trkpt lat="49.97195" lon="2.33324">
        <ele>102.8</ele>
        <time>2023-12-27T14:58:17Z</time>
      </trkpt>
      <trkpt lat="49.97195" lon="2.33324">
        <ele>102.8</ele>
        <time>2023-12-27T14:58:18Z</time>
      </trkpt>
      <trkpt lat="49.97195" lon="2.33323">
        <ele>102.8</ele>
        <time>2023-12-27T14:58:19Z</time>
      </trkpt>
      <trkpt lat="49.97195" lon="2.33323">
        <ele>102.8</ele>
        <time>2023-12-27T14:58:20Z</time>
      </trkpt>
      <trkpt lat="49.97195" lon="2.33323">
        <ele>102.8</ele>
        <time>2023-12-27T14:58:21Z</time>
      </trkpt>
      <trkpt lat="49.97195" lon="2.33322">
        <ele>102.8</ele>
        <time>2023-12-27T14:58:23Z</time>
      </trkpt>
      <trkpt lat="49.97196" lon="2.33321">
        <ele>102.7</ele>
        <time>2023-12-27T14:58:24Z</time>
      </trkpt>
      <trkpt lat="49.97196" lon="2.3332">
        <ele>102.7</ele>
        <time>2023-12-27T14:58:25Z</time>
      </trkpt>
      <trkpt lat="49.97197" lon="2.33318">
        <ele>102.7</ele>
        <time>2023-12-27T14:58:27Z</time>
      </trkpt>
      <trkpt lat="49.97197" lon="2.33317">
        <ele>102.7</ele>
        <time>2023-12-27T14:58:28Z</time>
      </trkpt>
      <trkpt lat="49.97197" lon="2.33316">
        <ele>102.7</ele>
        <time>2023-12-27T14:58:29Z</time>
      </trkpt>
      <trkpt lat="49.97198" lon="2.33315">
        <ele>102.6</ele>
        <time>2023-12-27T14:58:30Z</time>
      </trkpt>
      <trkpt lat="49.97198" lon="2.33315">
        <ele>102.6</ele>
        <time>2023-12-27T14:58:31Z</time>
      </trkpt>
      <trkpt lat="49.97199" lon="2.33315">
        <ele>102.6</ele>
        <time>2023-12-27T14:58:33Z</time>
      </trkpt>
      <trkpt lat="49.972" lon="2.33314">
        <ele>102.6</ele>
        <time>2023-12-27T14:58:35Z</time>
      </trkpt>
      <trkpt lat="49.972" lon="2.33314">
        <ele>102.6</ele>
        <time>2023-12-27T14:58:36Z</time>
      </trkpt>
      <trkpt lat="49.97201" lon="2.33314">
        <ele>102.5</ele>
        <time>2023-12-27T14:58:37Z</time>
      </trkpt>
      <trkpt lat="49.97201" lon="2.33313">
        <ele>102.5</ele>
        <time>2023-12-27T14:58:39Z</time>
      </trkpt>
      <trkpt lat="49.97202" lon="2.33313">
        <ele>102.5</ele>
        <time>2023-12-27T14:58:40Z</time>
      </trkpt>
      <trkpt lat="49.97203" lon="2.33313">
        <ele>102.5</ele>
        <time>2023-12-27T14:58:41Z</time>
      </trkpt>
      <trkpt lat="49.97204" lon="2.33313">
        <ele>102.5</ele>
        <time>2023-12-27T14:58:42Z</time>
      </trkpt>
      <trkpt lat="49.97205" lon="2.33313">
        <ele>102.4</ele>
        <time>2023-12-27T14:58:43Z</time>
      </trkpt>
      <trkpt lat="49.97206" lon="2.33313">
        <ele>102.4</ele>
        <time>2023-12-27T14:58:44Z</time>
      </trkpt>
      <trkpt lat="49.97208" lon="2.33314">
        <ele>102.4</ele>
        <time>2023-12-27T14:58:45Z</time>
      </trkpt>
      <trkpt lat="49.97209" lon="2.33314">
        <ele>102.3</ele>
        <time>2023-12-27T14:58:47Z</time>
      </trkpt>
      <trkpt lat="49.9721" lon="2.33314">
        <ele>102.3</ele>
        <time>2023-12-27T14:58:48Z</time>
      </trkpt>
      <trkpt lat="49.97211" lon="2.33314">
        <ele>102.3</ele>
        <time>2023-12-27T14:58:49Z</time>
      </trkpt>
      <trkpt lat="49.97212" lon="2.33314">
        <ele>102.3</ele>
        <time>2023-12-27T14:58:50Z</time>
      </trkpt>
      <trkpt lat="49.97213" lon="2.33314">
        <ele>102.2</ele>
        <time>2023-12-27T14:58:51Z</time>
      </trkpt>
      <trkpt lat="49.97215" lon="2.33315">
        <ele>102.2</ele>
        <time>2023-12-27T14:58:52Z</time>
      </trkpt>
      <trkpt lat="49.97216" lon="2.33315">
        <ele>102.2</ele>
        <time>2023-12-27T14:58:54Z</time>
      </trkpt>
      <trkpt lat="49.97218" lon="2.33315">
        <ele>102.2</ele>
        <time>2023-12-27T14:58:55Z</time>
      </trkpt>
      <trkpt lat="49.97219" lon="2.33316">
        <ele>102.1</ele>
        <time>2023-12-27T14:58:56Z</time>
      </trkpt>
      <trkpt lat="49.9722" lon="2.33317">
        <ele>102.1</ele>
        <time>2023-12-27T14:58:57Z</time>
      </trkpt>
      <trkpt lat="49.97222" lon="2.33317">
        <ele>102.1</ele>
        <time>2023-12-27T14:58:58Z</time>
      </trkpt>
      <trkpt lat="49.97223" lon="2.33317">
        <ele>102.1</ele>
        <time>2023-12-27T14:59:00Z</time>
      </trkpt>
      <trkpt lat="49.97224" lon="2.33317">
        <ele>102.1</ele>
        <time>2023-12-27T14:59:01Z</time>
      </trkpt>
      <trkpt lat="49.97225" lon="2.33318">
        <ele>102.1</ele>
        <time>2023-12-27T14:59:02Z</time>
      </trkpt>
      <trkpt lat="49.97226" lon="2.33318">
        <ele>102.1</ele>
        <time>2023-12-27T14:59:03Z</time>
      </trkpt>
      <trkpt lat="49.97228" lon="2.33318">
        <ele>102</ele>
        <time>2023-12-27T14:59:04Z</time>
      </trkpt>
      <trkpt lat="49.97229" lon="2.33318">
        <ele>102</ele>
        <time>2023-12-27T14:59:05Z</time>
      </trkpt>
      <trkpt lat="49.97231" lon="2.33318">
        <ele>102</ele>
        <time>2023-12-27T14:59:07Z</time>
      </trkpt>
      <trkpt lat="49.97232" lon="2.33318">
        <ele>102</ele>
        <time>2023-12-27T14:59:08Z</time>
      </trkpt>
      <trkpt lat="49.97233" lon="2.33318">
        <ele>102</ele>
        <time>2023-12-27T14:59:09Z</time>
      </trkpt>
      <trkpt lat="49.97234" lon="2.33318">
        <ele>102</ele>
        <time>2023-12-27T14:59:10Z</time>
      </trkpt>
      <trkpt lat="49.97235" lon="2.33318">
        <ele>102</ele>
        <time>2023-12-27T14:59:11Z</time>
      </trkpt>
      <trkpt lat="49.97237" lon="2.33318">
        <ele>102</ele>
        <time>2023-12-27T14:59:13Z</time>
      </trkpt>
      <trkpt lat="49.97238" lon="2.33318">
        <ele>102</ele>
        <time>2023-12-27T14:59:14Z</time>
      </trkpt>
      <trkpt lat="49.97239" lon="2.33318">
        <ele>102</ele>
        <time>2023-12-27T14:59:15Z</time>
      </trkpt>
      <trkpt lat="49.9724" lon="2.33318">
        <ele>101.9</ele>
        <time>2023-12-27T14:59:16Z</time>
      </trkpt>
      <trkpt lat="49.97241" lon="2.33317">
        <ele>101.9</ele>
        <time>2023-12-27T14:59:17Z</time>
      </trkpt>
      <trkpt lat="49.97243" lon="2.33317">
        <ele>101.9</ele>
        <time>2023-12-27T14:59:19Z</time>
      </trkpt>
      <trkpt lat="49.97245" lon="2.33317">
        <ele>101.9</ele>
        <time>2023-12-27T14:59:20Z</time>
      </trkpt>
      <trkpt lat="49.97246" lon="2.33316">
        <ele>101.9</ele>
        <time>2023-12-27T14:59:22Z</time>
      </trkpt>
      <trkpt lat="49.97247" lon="2.33316">
        <ele>101.9</ele>
        <time>2023-12-27T14:59:23Z</time>
      </trkpt>
      <trkpt lat="49.97248" lon="2.33316">
        <ele>101.9</ele>
        <time>2023-12-27T14:59:24Z</time>
      </trkpt>
      <trkpt lat="49.9725" lon="2.33316">
        <ele>101.9</ele>
        <time>2023-12-27T14:59:25Z</time>
      </trkpt>
      <trkpt lat="49.97251" lon="2.33316">
        <ele>101.9</ele>
        <time>2023-12-27T14:59:26Z</time>
      </trkpt>
      <trkpt lat="49.97252" lon="2.33316">
        <ele>101.8</ele>
        <time>2023-12-27T14:59:28Z</time>
      </trkpt>
      <trkpt lat="49.97253" lon="2.33315">
        <ele>101.8</ele>
        <time>2023-12-27T14:59:29Z</time>
      </trkpt>
      <trkpt lat="49.97256" lon="2.33315">
        <ele>101.8</ele>
        <time>2023-12-27T14:59:30Z</time>
      </trkpt>
      <trkpt lat="49.97256" lon="2.33315">
        <ele>101.8</ele>
        <time>2023-12-27T14:59:31Z</time>
      </trkpt>
      <trkpt lat="49.97257" lon="2.33315">
        <ele>101.8</ele>
        <time>2023-12-27T14:59:32Z</time>
      </trkpt>
      <trkpt lat="49.9726" lon="2.33314">
        <ele>101.8</ele>
        <time>2023-12-27T14:59:33Z</time>
      </trkpt>
      <trkpt lat="49.97261" lon="2.33314">
        <ele>101.8</ele>
        <time>2023-12-27T14:59:35Z</time>
      </trkpt>
      <trkpt lat="49.97262" lon="2.33314">
        <ele>101.8</ele>
        <time>2023-12-27T14:59:36Z</time>
      </trkpt>
      <trkpt lat="49.97263" lon="2.33314">
        <ele>101.8</ele>
        <time>2023-12-27T14:59:37Z</time>
      </trkpt>
      <trkpt lat="49.97264" lon="2.33314">
        <ele>101.8</ele>
        <time>2023-12-27T14:59:38Z</time>
      </trkpt>
      <trkpt lat="49.97266" lon="2.33313">
        <ele>101.8</ele>
        <time>2023-12-27T14:59:39Z</time>
      </trkpt>
      <trkpt lat="49.97267" lon="2.33313">
        <ele>101.8</ele>
        <time>2023-12-27T14:59:41Z</time>
      </trkpt>
      <trkpt lat="49.97268" lon="2.33313">
        <ele>101.8</ele>
        <time>2023-12-27T14:59:42Z</time>
      </trkpt>
      <trkpt lat="49.97269" lon="2.33313">
        <ele>101.8</ele>
        <time>2023-12-27T14:59:43Z</time>
      </trkpt>
      <trkpt lat="49.9727" lon="2.33313">
        <ele>101.8</ele>
        <time>2023-12-27T14:59:44Z</time>
      </trkpt>
      <trkpt lat="49.97271" lon="2.33313">
        <ele>101.8</ele>
        <time>2023-12-27T14:59:45Z</time>
      </trkpt>
      <trkpt lat="49.97272" lon="2.33313">
        <ele>101.8</ele>
        <time>2023-12-27T14:59:46Z</time>
      </trkpt>
      <trkpt lat="49.97274" lon="2.33313">
        <ele>101.8</ele>
        <time>2023-12-27T14:59:47Z</time>
      </trkpt>
      <trkpt lat="49.97276" lon="2.33313">
        <ele>101.8</ele>
        <time>2023-12-27T14:59:49Z</time>
      </trkpt>
      <trkpt lat="49.97277" lon="2.33313">
        <ele>101.8</ele>
        <time>2023-12-27T14:59:51Z</time>
      </trkpt>
      <trkpt lat="49.97278" lon="2.33313">
        <ele>101.8</ele>
        <time>2023-12-27T14:59:52Z</time>
      </trkpt>
      <trkpt lat="49.97279" lon="2.33313">
        <ele>101.8</ele>
        <time>2023-12-27T14:59:53Z</time>
      </trkpt>
      <trkpt lat="49.9728" lon="2.33313">
        <ele>101.8</ele>
        <time>2023-12-27T14:59:54Z</time>
      </trkpt>
      <trkpt lat="49.97281" lon="2.33313">
        <ele>101.8</ele>
        <time>2023-12-27T14:59:56Z</time>
      </trkpt>
      <trkpt lat="49.97282" lon="2.33313">
        <ele>101.9</ele>
        <time>2023-12-27T14:59:57Z</time>
      </trkpt>
      <trkpt lat="49.97283" lon="2.33312">
        <ele>101.9</ele>
        <time>2023-12-27T14:59:58Z</time>
      </trkpt>
      <trkpt lat="49.97284" lon="2.33312">
        <ele>101.9</ele>
        <time>2023-12-27T14:59:59Z</time>
      </trkpt>
      <trkpt lat="49.97285" lon="2.33311">
        <ele>101.9</ele>
        <time>2023-12-27T15:00:00Z</time>
      </trkpt>
      <trkpt lat="49.97285" lon="2.3331">
        <ele>101.9</ele>
        <time>2023-12-27T15:00:01Z</time>
      </trkpt>
      <trkpt lat="49.97286" lon="2.33309">
        <ele>101.9</ele>
        <time>2023-12-27T15:00:03Z</time>
      </trkpt>
      <trkpt lat="49.97286" lon="2.33307">
        <ele>101.9</ele>
        <time>2023-12-27T15:00:04Z</time>
      </trkpt>
      <trkpt lat="49.97287" lon="2.33306">
        <ele>101.8</ele>
        <time>2023-12-27T15:00:05Z</time>
      </trkpt>
      <trkpt lat="49.97287" lon="2.33305">
        <ele>101.8</ele>
        <time>2023-12-27T15:00:06Z</time>
      </trkpt>
      <trkpt lat="49.97288" lon="2.33304">
        <ele>101.8</ele>
        <time>2023-12-27T15:00:07Z</time>
      </trkpt>
      <trkpt lat="49.97288" lon="2.33302">
        <ele>101.8</ele>
        <time>2023-12-27T15:00:09Z</time>
      </trkpt>
      <trkpt lat="49.97288" lon="2.33301">
        <ele>101.8</ele>
        <time>2023-12-27T15:00:10Z</time>
      </trkpt>
      <trkpt lat="49.97288" lon="2.333">
        <ele>101.7</ele>
        <time>2023-12-27T15:00:11Z</time>
      </trkpt>
      <trkpt lat="49.97288" lon="2.33298">
        <ele>101.7</ele>
        <time>2023-12-27T15:00:12Z</time>
      </trkpt>
      <trkpt lat="49.97288" lon="2.33297">
        <ele>101.7</ele>
        <time>2023-12-27T15:00:13Z</time>
      </trkpt>
      <trkpt lat="49.97288" lon="2.33295">
        <ele>101.7</ele>
        <time>2023-12-27T15:00:14Z</time>
      </trkpt>
      <trkpt lat="49.97288" lon="2.33294">
        <ele>101.7</ele>
        <time>2023-12-27T15:00:15Z</time>
      </trkpt>
      <trkpt lat="49.97288" lon="2.33292">
        <ele>101.6</ele>
        <time>2023-12-27T15:00:16Z</time>
      </trkpt>
      <trkpt lat="49.97288" lon="2.33291">
        <ele>101.6</ele>
        <time>2023-12-27T15:00:17Z</time>
      </trkpt>
      <trkpt lat="49.97287" lon="2.33289">
        <ele>101.6</ele>
        <time>2023-12-27T15:00:19Z</time>
      </trkpt>
      <trkpt lat="49.97286" lon="2.33289">
        <ele>101.6</ele>
        <time>2023-12-27T15:00:21Z</time>
      </trkpt>
      <trkpt lat="49.97285" lon="2.33289">
        <ele>101.6</ele>
        <time>2023-12-27T15:00:22Z</time>
      </trkpt>
      <trkpt lat="49.97284" lon="2.33288">
        <ele>101.6</ele>
        <time>2023-12-27T15:00:23Z</time>
      </trkpt>
      <trkpt lat="49.97284" lon="2.33287">
        <ele>101.5</ele>
        <time>2023-12-27T15:00:24Z</time>
      </trkpt>
      <trkpt lat="49.97284" lon="2.33285">
        <ele>101.5</ele>
        <time>2023-12-27T15:00:25Z</time>
      </trkpt>
      <trkpt lat="49.97283" lon="2.33282">
        <ele>101.5</ele>
        <time>2023-12-27T15:00:27Z</time>
      </trkpt>
      <trkpt lat="49.97283" lon="2.3328">
        <ele>101.5</ele>
        <time>2023-12-27T15:00:28Z</time>
      </trkpt>
      <trkpt lat="49.97283" lon="2.33279">
        <ele>101.4</ele>
        <time>2023-12-27T15:00:29Z</time>
      </trkpt>
      <trkpt lat="49.97284" lon="2.33277">
        <ele>101.4</ele>
        <time>2023-12-27T15:00:30Z</time>
      </trkpt>
      <trkpt lat="49.97284" lon="2.33275">
        <ele>101.4</ele>
        <time>2023-12-27T15:00:31Z</time>
      </trkpt>
      <trkpt lat="49.97284" lon="2.33273">
        <ele>101.4</ele>
        <time>2023-12-27T15:00:33Z</time>
      </trkpt>
      <trkpt lat="49.97285" lon="2.33269">
        <ele>101.3</ele>
        <time>2023-12-27T15:00:34Z</time>
      </trkpt>
      <trkpt lat="49.97285" lon="2.33266">
        <ele>101.3</ele>
        <time>2023-12-27T15:00:36Z</time>
      </trkpt>
      <trkpt lat="49.97285" lon="2.33265">
        <ele>101.3</ele>
        <time>2023-12-27T15:00:37Z</time>
      </trkpt>
      <trkpt lat="49.97285" lon="2.33263">
        <ele>101.3</ele>
        <time>2023-12-27T15:00:38Z</time>
      </trkpt>
      <trkpt lat="49.97285" lon="2.3326">
        <ele>101.2</ele>
        <time>2023-12-27T15:00:39Z</time>
      </trkpt>
      <trkpt lat="49.97285" lon="2.33259">
        <ele>101.2</ele>
        <time>2023-12-27T15:00:40Z</time>
      </trkpt>
      <trkpt lat="49.97286" lon="2.33258">
        <ele>101.2</ele>
        <time>2023-12-27T15:00:41Z</time>
      </trkpt>
      <trkpt lat="49.97286" lon="2.33255">
        <ele>101.2</ele>
        <time>2023-12-27T15:00:43Z</time>
      </trkpt>
      <trkpt lat="49.97286" lon="2.33253">
        <ele>101.2</ele>
        <time>2023-12-27T15:00:44Z</time>
      </trkpt>
      <trkpt lat="49.97286" lon="2.33251">
        <ele>101.1</ele>
        <time>2023-12-27T15:00:45Z</time>
      </trkpt>
      <trkpt lat="49.97286" lon="2.33249">
        <ele>101.1</ele>
        <time>2023-12-27T15:00:46Z</time>
      </trkpt>
      <trkpt lat="49.97286" lon="2.33245">
        <ele>101.1</ele>
        <time>2023-12-27T15:00:47Z</time>
      </trkpt>
      <trkpt lat="49.97286" lon="2.33244">
        <ele>101.1</ele>
        <time>2023-12-27T15:00:49Z</time>
      </trkpt>
      <trkpt lat="49.97286" lon="2.33243">
        <ele>101.1</ele>
        <time>2023-12-27T15:00:50Z</time>
      </trkpt>
      <trkpt lat="49.97286" lon="2.33241">
        <ele>101.1</ele>
        <time>2023-12-27T15:00:51Z</time>
      </trkpt>
      <trkpt lat="49.97286" lon="2.3324">
        <ele>101</ele>
        <time>2023-12-27T15:00:52Z</time>
      </trkpt>
      <trkpt lat="49.97286" lon="2.33238">
        <ele>101</ele>
        <time>2023-12-27T15:00:53Z</time>
      </trkpt>
      <trkpt lat="49.97286" lon="2.33234">
        <ele>101</ele>
        <time>2023-12-27T15:00:55Z</time>
      </trkpt>
      <trkpt lat="49.97286" lon="2.33233">
        <ele>101</ele>
        <time>2023-12-27T15:00:56Z</time>
      </trkpt>
      <trkpt lat="49.97286" lon="2.33232">
        <ele>101</ele>
        <time>2023-12-27T15:00:57Z</time>
      </trkpt>
      <trkpt lat="49.97286" lon="2.3323">
        <ele>100.9</ele>
        <time>2023-12-27T15:00:59Z</time>
      </trkpt>
      <trkpt lat="49.97286" lon="2.33229">
        <ele>100.9</ele>
        <time>2023-12-27T15:01:00Z</time>
      </trkpt>
      <trkpt lat="49.97286" lon="2.33228">
        <ele>100.9</ele>
        <time>2023-12-27T15:01:01Z</time>
      </trkpt>
      <trkpt lat="49.97286" lon="2.33226">
        <ele>100.9</ele>
        <time>2023-12-27T15:01:02Z</time>
      </trkpt>
      <trkpt lat="49.97286" lon="2.33224">
        <ele>100.9</ele>
        <time>2023-12-27T15:01:04Z</time>
      </trkpt>
      <trkpt lat="49.97286" lon="2.33222">
        <ele>100.9</ele>
        <time>2023-12-27T15:01:05Z</time>
      </trkpt>
      <trkpt lat="49.97286" lon="2.33221">
        <ele>100.9</ele>
        <time>2023-12-27T15:01:06Z</time>
      </trkpt>
      <trkpt lat="49.97286" lon="2.33219">
        <ele>100.8</ele>
        <time>2023-12-27T15:01:07Z</time>
      </trkpt>
      <trkpt lat="49.97287" lon="2.33217">
        <ele>100.8</ele>
        <time>2023-12-27T15:01:08Z</time>
      </trkpt>
      <trkpt lat="49.97287" lon="2.33215">
        <ele>100.8</ele>
        <time>2023-12-27T15:01:10Z</time>
      </trkpt>
      <trkpt lat="49.97287" lon="2.33213">
        <ele>100.8</ele>
        <time>2023-12-27T15:01:11Z</time>
      </trkpt>
      <trkpt lat="49.97287" lon="2.33212">
        <ele>100.8</ele>
        <time>2023-12-27T15:01:12Z</time>
      </trkpt>
      <trkpt lat="49.97287" lon="2.3321">
        <ele>100.8</ele>
        <time>2023-12-27T15:01:13Z</time>
      </trkpt>
      <trkpt lat="49.97287" lon="2.33209">
        <ele>100.7</ele>
        <time>2023-12-27T15:01:14Z</time>
      </trkpt>
      <trkpt lat="49.97287" lon="2.33207">
        <ele>100.7</ele>
        <time>2023-12-27T15:01:15Z</time>
      </trkpt>
      <trkpt lat="49.97287" lon="2.33204">
        <ele>100.7</ele>
        <time>2023-12-27T15:01:16Z</time>
      </trkpt>
      <trkpt lat="49.97287" lon="2.33203">
        <ele>100.7</ele>
        <time>2023-12-27T15:01:17Z</time>
      </trkpt>
      <trkpt lat="49.97287" lon="2.33202">
        <ele>100.7</ele>
        <time>2023-12-27T15:01:18Z</time>
      </trkpt>
      <trkpt lat="49.97286" lon="2.332">
        <ele>100.7</ele>
        <time>2023-12-27T15:01:20Z</time>
      </trkpt>
      <trkpt lat="49.97286" lon="2.33198">
        <ele>100.6</ele>
        <time>2023-12-27T15:01:21Z</time>
      </trkpt>
      <trkpt lat="49.97286" lon="2.33197">
        <ele>100.6</ele>
        <time>2023-12-27T15:01:22Z</time>
      </trkpt>
      <trkpt lat="49.97286" lon="2.33195">
        <ele>100.6</ele>
        <time>2023-12-27T15:01:23Z</time>
      </trkpt>
      <trkpt lat="49.97286" lon="2.33193">
        <ele>100.6</ele>
        <time>2023-12-27T15:01:24Z</time>
      </trkpt>
      <trkpt lat="49.97286" lon="2.33191">
        <ele>100.6</ele>
        <time>2023-12-27T15:01:25Z</time>
      </trkpt>
      <trkpt lat="49.97286" lon="2.33188">
        <ele>100.6</ele>
        <time>2023-12-27T15:01:26Z</time>
      </trkpt>
      <trkpt lat="49.97286" lon="2.33186">
        <ele>100.6</ele>
        <time>2023-12-27T15:01:27Z</time>
      </trkpt>
      <trkpt lat="49.97286" lon="2.33185">
        <ele>100.5</ele>
        <time>2023-12-27T15:01:28Z</time>
      </trkpt>
      <trkpt lat="49.97286" lon="2.33183">
        <ele>100.5</ele>
        <time>2023-12-27T15:01:30Z</time>
      </trkpt>
      <trkpt lat="49.97286" lon="2.33181">
        <ele>100.5</ele>
        <time>2023-12-27T15:01:31Z</time>
      </trkpt>
      <trkpt lat="49.97286" lon="2.33177">
        <ele>100.5</ele>
        <time>2023-12-27T15:01:32Z</time>
      </trkpt>
      <trkpt lat="49.97287" lon="2.33176">
        <ele>100.5</ele>
        <time>2023-12-27T15:01:33Z</time>
      </trkpt>
      <trkpt lat="49.97287" lon="2.33175">
        <ele>100.5</ele>
        <time>2023-12-27T15:01:34Z</time>
      </trkpt>
      <trkpt lat="49.97287" lon="2.33171">
        <ele>100.4</ele>
        <time>2023-12-27T15:01:36Z</time>
      </trkpt>
      <trkpt lat="49.97287" lon="2.3317">
        <ele>100.4</ele>
        <time>2023-12-27T15:01:37Z</time>
      </trkpt>
      <trkpt lat="49.97287" lon="2.33169">
        <ele>100.4</ele>
        <time>2023-12-27T15:01:38Z</time>
      </trkpt>
      <trkpt lat="49.97287" lon="2.33167">
        <ele>100.4</ele>
        <time>2023-12-27T15:01:39Z</time>
      </trkpt>
      <trkpt lat="49.97287" lon="2.33165">
        <ele>100.4</ele>
        <time>2023-12-27T15:01:40Z</time>
      </trkpt>
      <trkpt lat="49.97288" lon="2.33163">
        <ele>100.3</ele>
        <time>2023-12-27T15:01:42Z</time>
      </trkpt>
      <trkpt lat="49.97288" lon="2.33161">
        <ele>100.3</ele>
        <time>2023-12-27T15:01:43Z</time>
      </trkpt>
      <trkpt lat="49.97288" lon="2.33159">
        <ele>100.3</ele>
        <time>2023-12-27T15:01:44Z</time>
      </trkpt>
      <trkpt lat="49.97288" lon="2.33158">
        <ele>100.3</ele>
        <time>2023-12-27T15:01:45Z</time>
      </trkpt>
      <trkpt lat="49.97288" lon="2.33156">
        <ele>100.3</ele>
        <time>2023-12-27T15:01:46Z</time>
      </trkpt>
      <trkpt lat="49.97289" lon="2.33154">
        <ele>100.3</ele>
        <time>2023-12-27T15:01:48Z</time>
      </trkpt>
      <trkpt lat="49.97289" lon="2.33152">
        <ele>100.2</ele>
        <time>2023-12-27T15:01:49Z</time>
      </trkpt>
      <trkpt lat="49.97289" lon="2.33151">
        <ele>100.2</ele>
        <time>2023-12-27T15:01:50Z</time>
      </trkpt>
      <trkpt lat="49.97289" lon="2.33149">
        <ele>100.2</ele>
        <time>2023-12-27T15:01:51Z</time>
      </trkpt>
      <trkpt lat="49.97289" lon="2.33147">
        <ele>100.2</ele>
        <time>2023-12-27T15:01:52Z</time>
      </trkpt>
      <trkpt lat="49.97289" lon="2.33145">
        <ele>100.2</ele>
        <time>2023-12-27T15:01:54Z</time>
      </trkpt>
      <trkpt lat="49.97289" lon="2.33143">
        <ele>100.1</ele>
        <time>2023-12-27T15:01:55Z</time>
      </trkpt>
      <trkpt lat="49.97289" lon="2.33141">
        <ele>100.1</ele>
        <time>2023-12-27T15:01:56Z</time>
      </trkpt>
      <trkpt lat="49.97289" lon="2.33139">
        <ele>100.1</ele>
        <time>2023-12-27T15:01:57Z</time>
      </trkpt>
      <trkpt lat="49.97289" lon="2.33137">
        <ele>100.1</ele>
        <time>2023-12-27T15:01:58Z</time>
      </trkpt>
      <trkpt lat="49.97288" lon="2.33135">
        <ele>100.1</ele>
        <time>2023-12-27T15:01:59Z</time>
      </trkpt>
      <trkpt lat="49.97288" lon="2.33133">
        <ele>100.1</ele>
        <time>2023-12-27T15:02:00Z</time>
      </trkpt>
      <trkpt lat="49.97288" lon="2.33131">
        <ele>100</ele>
        <time>2023-12-27T15:02:02Z</time>
      </trkpt>
      <trkpt lat="49.97288" lon="2.33129">
        <ele>100</ele>
        <time>2023-12-27T15:02:03Z</time>
      </trkpt>
      <trkpt lat="49.97287" lon="2.33126">
        <ele>100</ele>
        <time>2023-12-27T15:02:04Z</time>
      </trkpt>
      <trkpt lat="49.97287" lon="2.33124">
        <ele>100</ele>
        <time>2023-12-27T15:02:05Z</time>
      </trkpt>
      <trkpt lat="49.97287" lon="2.33123">
        <ele>100</ele>
        <time>2023-12-27T15:02:06Z</time>
      </trkpt>
      <trkpt lat="49.97287" lon="2.33121">
        <ele>99.9</ele>
        <time>2023-12-27T15:02:07Z</time>
      </trkpt>
      <trkpt lat="49.97287" lon="2.33119">
        <ele>99.9</ele>
        <time>2023-12-27T15:02:09Z</time>
      </trkpt>
      <trkpt lat="49.97287" lon="2.33116">
        <ele>99.9</ele>
        <time>2023-12-27T15:02:10Z</time>
      </trkpt>
      <trkpt lat="49.97287" lon="2.33114">
        <ele>99.9</ele>
        <time>2023-12-27T15:02:11Z</time>
      </trkpt>
      <trkpt lat="49.97287" lon="2.33111">
        <ele>99.9</ele>
        <time>2023-12-27T15:02:12Z</time>
      </trkpt>
      <trkpt lat="49.97287" lon="2.3311">
        <ele>99.8</ele>
        <time>2023-12-27T15:02:13Z</time>
      </trkpt>
      <trkpt lat="49.97287" lon="2.33108">
        <ele>99.8</ele>
        <time>2023-12-27T15:02:14Z</time>
      </trkpt>
      <trkpt lat="49.97287" lon="2.33106">
        <ele>99.8</ele>
        <time>2023-12-27T15:02:15Z</time>
      </trkpt>
      <trkpt lat="49.97287" lon="2.33104">
        <ele>99.8</ele>
        <time>2023-12-27T15:02:17Z</time>
      </trkpt>
      <trkpt lat="49.97287" lon="2.33101">
        <ele>99.8</ele>
        <time>2023-12-27T15:02:18Z</time>
      </trkpt>
      <trkpt lat="49.97287" lon="2.331">
        <ele>99.7</ele>
        <time>2023-12-27T15:02:19Z</time>
      </trkpt>
      <trkpt lat="49.97288" lon="2.33096">
        <ele>99.7</ele>
        <time>2023-12-27T15:02:20Z</time>
      </trkpt>
      <trkpt lat="49.97288" lon="2.33095">
        <ele>99.7</ele>
        <time>2023-12-27T15:02:21Z</time>
      </trkpt>
      <trkpt lat="49.97288" lon="2.33094">
        <ele>99.7</ele>
        <time>2023-12-27T15:02:22Z</time>
      </trkpt>
      <trkpt lat="49.97288" lon="2.3309">
        <ele>99.7</ele>
        <time>2023-12-27T15:02:23Z</time>
      </trkpt>
      <trkpt lat="49.97289" lon="2.33088">
        <ele>99.6</ele>
        <time>2023-12-27T15:02:25Z</time>
      </trkpt>
      <trkpt lat="49.97289" lon="2.33087">
        <ele>99.6</ele>
        <time>2023-12-27T15:02:26Z</time>
      </trkpt>
      <trkpt lat="49.97289" lon="2.33085">
        <ele>99.6</ele>
        <time>2023-12-27T15:02:27Z</time>
      </trkpt>
      <trkpt lat="49.97289" lon="2.33084">
        <ele>99.6</ele>
        <time>2023-12-27T15:02:28Z</time>
      </trkpt>
      <trkpt lat="49.97289" lon="2.33081">
        <ele>99.6</ele>
        <time>2023-12-27T15:02:29Z</time>
      </trkpt>
      <trkpt lat="49.9729" lon="2.33079">
        <ele>99.5</ele>
        <time>2023-12-27T15:02:30Z</time>
      </trkpt>
      <trkpt lat="49.9729" lon="2.33076">
        <ele>99.5</ele>
        <time>2023-12-27T15:02:31Z</time>
      </trkpt>
      <trkpt lat="49.9729" lon="2.33074">
        <ele>99.5</ele>
        <time>2023-12-27T15:02:33Z</time>
      </trkpt>
      <trkpt lat="49.9729" lon="2.33072">
        <ele>99.5</ele>
        <time>2023-12-27T15:02:34Z</time>
      </trkpt>
      <trkpt lat="49.9729" lon="2.33071">
        <ele>99.5</ele>
        <time>2023-12-27T15:02:35Z</time>
      </trkpt>
      <trkpt lat="49.9729" lon="2.33069">
        <ele>99.4</ele>
        <time>2023-12-27T15:02:36Z</time>
      </trkpt>
      <trkpt lat="49.97289" lon="2.33067">
        <ele>99.4</ele>
        <time>2023-12-27T15:02:37Z</time>
      </trkpt>
      <trkpt lat="49.97289" lon="2.33065">
        <ele>99.4</ele>
        <time>2023-12-27T15:02:38Z</time>
      </trkpt>
      <trkpt lat="49.97289" lon="2.33062">
        <ele>99.4</ele>
        <time>2023-12-27T15:02:40Z</time>
      </trkpt>
      <trkpt lat="49.97289" lon="2.3306">
        <ele>99.3</ele>
        <time>2023-12-27T15:02:41Z</time>
      </trkpt>
      <trkpt lat="49.97288" lon="2.33057">
        <ele>99.3</ele>
        <time>2023-12-27T15:02:42Z</time>
      </trkpt>
      <trkpt lat="49.97288" lon="2.33056">
        <ele>99.3</ele>
        <time>2023-12-27T15:02:43Z</time>
      </trkpt>
      <trkpt lat="49.97288" lon="2.33055">
        <ele>99.2</ele>
        <time>2023-12-27T15:02:44Z</time>
      </trkpt>
      <trkpt lat="49.97288" lon="2.33053">
        <ele>99.2</ele>
        <time>2023-12-27T15:02:45Z</time>
      </trkpt>
      <trkpt lat="49.97288" lon="2.3305">
        <ele>99.2</ele>
        <time>2023-12-27T15:02:46Z</time>
      </trkpt>
      <trkpt lat="49.97288" lon="2.33047">
        <ele>99.1</ele>
        <time>2023-12-27T15:02:48Z</time>
      </trkpt>
      <trkpt lat="49.97288" lon="2.33046">
        <ele>99.1</ele>
        <time>2023-12-27T15:02:49Z</time>
      </trkpt>
      <trkpt lat="49.97288" lon="2.33045">
        <ele>99.1</ele>
        <time>2023-12-27T15:02:50Z</time>
      </trkpt>
      <trkpt lat="49.97288" lon="2.33042">
        <ele>99.1</ele>
        <time>2023-12-27T15:02:51Z</time>
      </trkpt>
      <trkpt lat="49.97288" lon="2.3304">
        <ele>99</ele>
        <time>2023-12-27T15:02:52Z</time>
      </trkpt>
      <trkpt lat="49.97289" lon="2.33039">
        <ele>99</ele>
        <time>2023-12-27T15:02:53Z</time>
      </trkpt>
      <trkpt lat="49.97289" lon="2.33036">
        <ele>99</ele>
        <time>2023-12-27T15:02:54Z</time>
      </trkpt>
      <trkpt lat="49.97289" lon="2.33035">
        <ele>99</ele>
        <time>2023-12-27T15:02:56Z</time>
      </trkpt>
      <trkpt lat="49.9729" lon="2.33034">
        <ele>98.9</ele>
        <time>2023-12-27T15:02:57Z</time>
      </trkpt>
      <trkpt lat="49.9729" lon="2.33032">
        <ele>98.9</ele>
        <time>2023-12-27T15:02:58Z</time>
      </trkpt>
      <trkpt lat="49.9729" lon="2.3303">
        <ele>98.9</ele>
        <time>2023-12-27T15:02:59Z</time>
      </trkpt>
      <trkpt lat="49.9729" lon="2.33028">
        <ele>98.9</ele>
        <time>2023-12-27T15:03:00Z</time>
      </trkpt>
      <trkpt lat="49.9729" lon="2.33025">
        <ele>98.8</ele>
        <time>2023-12-27T15:03:01Z</time>
      </trkpt>
      <trkpt lat="49.9729" lon="2.33024">
        <ele>98.8</ele>
        <time>2023-12-27T15:03:03Z</time>
      </trkpt>
      <trkpt lat="49.9729" lon="2.33022">
        <ele>98.8</ele>
        <time>2023-12-27T15:03:04Z</time>
      </trkpt>
      <trkpt lat="49.9729" lon="2.33019">
        <ele>98.8</ele>
        <time>2023-12-27T15:03:05Z</time>
      </trkpt>
      <trkpt lat="49.9729" lon="2.33018">
        <ele>98.7</ele>
        <time>2023-12-27T15:03:06Z</time>
      </trkpt>
      <trkpt lat="49.9729" lon="2.33017">
        <ele>98.7</ele>
        <time>2023-12-27T15:03:07Z</time>
      </trkpt>
      <trkpt lat="49.97291" lon="2.33015">
        <ele>98.7</ele>
        <time>2023-12-27T15:03:08Z</time>
      </trkpt>
      <trkpt lat="49.97291" lon="2.33013">
        <ele>98.7</ele>
        <time>2023-12-27T15:03:09Z</time>
      </trkpt>
      <trkpt lat="49.97292" lon="2.33012">
        <ele>98.7</ele>
        <time>2023-12-27T15:03:10Z</time>
      </trkpt>
      <trkpt lat="49.97292" lon="2.33008">
        <ele>98.6</ele>
        <time>2023-12-27T15:03:11Z</time>
      </trkpt>
      <trkpt lat="49.97292" lon="2.33006">
        <ele>98.6</ele>
        <time>2023-12-27T15:03:13Z</time>
      </trkpt>
      <trkpt lat="49.97292" lon="2.33005">
        <ele>98.6</ele>
        <time>2023-12-27T15:03:14Z</time>
      </trkpt>
      <trkpt lat="49.97293" lon="2.33003">
        <ele>98.6</ele>
        <time>2023-12-27T15:03:15Z</time>
      </trkpt>
      <trkpt lat="49.97293" lon="2.33002">
        <ele>98.6</ele>
        <time>2023-12-27T15:03:16Z</time>
      </trkpt>
      <trkpt lat="49.97293" lon="2.32998">
        <ele>98.6</ele>
        <time>2023-12-27T15:03:17Z</time>
      </trkpt>
      <trkpt lat="49.97293" lon="2.32997">
        <ele>98.5</ele>
        <time>2023-12-27T15:03:18Z</time>
      </trkpt>
      <trkpt lat="49.97292" lon="2.32995">
        <ele>98.5</ele>
        <time>2023-12-27T15:03:19Z</time>
      </trkpt>
      <trkpt lat="49.97292" lon="2.32993">
        <ele>98.5</ele>
        <time>2023-12-27T15:03:20Z</time>
      </trkpt>
      <trkpt lat="49.97292" lon="2.32991">
        <ele>98.5</ele>
        <time>2023-12-27T15:03:21Z</time>
      </trkpt>
      <trkpt lat="49.97292" lon="2.32988">
        <ele>98.5</ele>
        <time>2023-12-27T15:03:23Z</time>
      </trkpt>
      <trkpt lat="49.97292" lon="2.32986">
        <ele>98.5</ele>
        <time>2023-12-27T15:03:24Z</time>
      </trkpt>
      <trkpt lat="49.97292" lon="2.32983">
        <ele>98.4</ele>
        <time>2023-12-27T15:03:25Z</time>
      </trkpt>
      <trkpt lat="49.97292" lon="2.32982">
        <ele>98.4</ele>
        <time>2023-12-27T15:03:26Z</time>
      </trkpt>
      <trkpt lat="49.97292" lon="2.3298">
        <ele>98.4</ele>
        <time>2023-12-27T15:03:27Z</time>
      </trkpt>
      <trkpt lat="49.97292" lon="2.32977">
        <ele>98.4</ele>
        <time>2023-12-27T15:03:28Z</time>
      </trkpt>
      <trkpt lat="49.97292" lon="2.32976">
        <ele>98.4</ele>
        <time>2023-12-27T15:03:29Z</time>
      </trkpt>
      <trkpt lat="49.97292" lon="2.32974">
        <ele>98.4</ele>
        <time>2023-12-27T15:03:30Z</time>
      </trkpt>
      <trkpt lat="49.97292" lon="2.32971">
        <ele>98.3</ele>
        <time>2023-12-27T15:03:31Z</time>
      </trkpt>
      <trkpt lat="49.97292" lon="2.3297">
        <ele>98.3</ele>
        <time>2023-12-27T15:03:33Z</time>
      </trkpt>
      <trkpt lat="49.97292" lon="2.32968">
        <ele>98.3</ele>
        <time>2023-12-27T15:03:34Z</time>
      </trkpt>
      <trkpt lat="49.97291" lon="2.32967">
        <ele>98.3</ele>
        <time>2023-12-27T15:03:35Z</time>
      </trkpt>
      <trkpt lat="49.97291" lon="2.32965">
        <ele>98.3</ele>
        <time>2023-12-27T15:03:36Z</time>
      </trkpt>
      <trkpt lat="49.97291" lon="2.32963">
        <ele>98.3</ele>
        <time>2023-12-27T15:03:38Z</time>
      </trkpt>
      <trkpt lat="49.97291" lon="2.32961">
        <ele>98.3</ele>
        <time>2023-12-27T15:03:39Z</time>
      </trkpt>
      <trkpt lat="49.97291" lon="2.3296">
        <ele>98.3</ele>
        <time>2023-12-27T15:03:40Z</time>
      </trkpt>
      <trkpt lat="49.97291" lon="2.32958">
        <ele>98.2</ele>
        <time>2023-12-27T15:03:41Z</time>
      </trkpt>
      <trkpt lat="49.97291" lon="2.32955">
        <ele>98.2</ele>
        <time>2023-12-27T15:03:42Z</time>
      </trkpt>
      <trkpt lat="49.97291" lon="2.32954">
        <ele>98.2</ele>
        <time>2023-12-27T15:03:43Z</time>
      </trkpt>
      <trkpt lat="49.97291" lon="2.32952">
        <ele>98.2</ele>
        <time>2023-12-27T15:03:45Z</time>
      </trkpt>
      <trkpt lat="49.97291" lon="2.32951">
        <ele>98.2</ele>
        <time>2023-12-27T15:03:46Z</time>
      </trkpt>
      <trkpt lat="49.97291" lon="2.3295">
        <ele>98.2</ele>
        <time>2023-12-27T15:03:47Z</time>
      </trkpt>
      <trkpt lat="49.97291" lon="2.32948">
        <ele>98.2</ele>
        <time>2023-12-27T15:03:48Z</time>
      </trkpt>
      <trkpt lat="49.97291" lon="2.32946">
        <ele>98.1</ele>
        <time>2023-12-27T15:03:49Z</time>
      </trkpt>
      <trkpt lat="49.97291" lon="2.32945">
        <ele>98.1</ele>
        <time>2023-12-27T15:03:51Z</time>
      </trkpt>
      <trkpt lat="49.97291" lon="2.32943">
        <ele>98.1</ele>
        <time>2023-12-27T15:03:52Z</time>
      </trkpt>
      <trkpt lat="49.97291" lon="2.32941">
        <ele>98.1</ele>
        <time>2023-12-27T15:03:53Z</time>
      </trkpt>
      <trkpt lat="49.97291" lon="2.3294">
        <ele>98.1</ele>
        <time>2023-12-27T15:03:54Z</time>
      </trkpt>
      <trkpt lat="49.97291" lon="2.32938">
        <ele>98.1</ele>
        <time>2023-12-27T15:03:55Z</time>
      </trkpt>
      <trkpt lat="49.97291" lon="2.32935">
        <ele>98</ele>
        <time>2023-12-27T15:03:56Z</time>
      </trkpt>
      <trkpt lat="49.97291" lon="2.32933">
        <ele>98</ele>
        <time>2023-12-27T15:03:57Z</time>
      </trkpt>
      <trkpt lat="49.97291" lon="2.32931">
        <ele>98</ele>
        <time>2023-12-27T15:03:59Z</time>
      </trkpt>
      <trkpt lat="49.9729" lon="2.3293">
        <ele>98</ele>
        <time>2023-12-27T15:04:00Z</time>
      </trkpt>
      <trkpt lat="49.9729" lon="2.32928">
        <ele>98</ele>
        <time>2023-12-27T15:04:01Z</time>
      </trkpt>
      <trkpt lat="49.9729" lon="2.32927">
        <ele>98</ele>
        <time>2023-12-27T15:04:02Z</time>
      </trkpt>
      <trkpt lat="49.9729" lon="2.32924">
        <ele>98</ele>
        <time>2023-12-27T15:04:03Z</time>
      </trkpt>
      <trkpt lat="49.9729" lon="2.32922">
        <ele>97.9</ele>
        <time>2023-12-27T15:04:04Z</time>
      </trkpt>
      <trkpt lat="49.9729" lon="2.32919">
        <ele>97.9</ele>
        <time>2023-12-27T15:04:06Z</time>
      </trkpt>
      <trkpt lat="49.9729" lon="2.32918">
        <ele>97.9</ele>
        <time>2023-12-27T15:04:07Z</time>
      </trkpt>
      <trkpt lat="49.9729" lon="2.32916">
        <ele>97.9</ele>
        <time>2023-12-27T15:04:08Z</time>
      </trkpt>
      <trkpt lat="49.9729" lon="2.32914">
        <ele>97.9</ele>
        <time>2023-12-27T15:04:09Z</time>
      </trkpt>
      <trkpt lat="49.9729" lon="2.32912">
        <ele>97.8</ele>
        <time>2023-12-27T15:04:10Z</time>
      </trkpt>
      <trkpt lat="49.9729" lon="2.32909">
        <ele>97.8</ele>
        <time>2023-12-27T15:04:11Z</time>
      </trkpt>
      <trkpt lat="49.9729" lon="2.32908">
        <ele>97.8</ele>
        <time>2023-12-27T15:04:13Z</time>
      </trkpt>
      <trkpt lat="49.97291" lon="2.32906">
        <ele>97.8</ele>
        <time>2023-12-27T15:04:14Z</time>
      </trkpt>
      <trkpt lat="49.97291" lon="2.32904">
        <ele>97.8</ele>
        <time>2023-12-27T15:04:15Z</time>
      </trkpt>
      <trkpt lat="49.97291" lon="2.32902">
        <ele>97.7</ele>
        <time>2023-12-27T15:04:16Z</time>
      </trkpt>
      <trkpt lat="49.97291" lon="2.329">
        <ele>97.7</ele>
        <time>2023-12-27T15:04:17Z</time>
      </trkpt>
      <trkpt lat="49.97291" lon="2.32898">
        <ele>97.7</ele>
        <time>2023-12-27T15:04:19Z</time>
      </trkpt>
      <trkpt lat="49.97292" lon="2.32896">
        <ele>97.7</ele>
        <time>2023-12-27T15:04:20Z</time>
      </trkpt>
      <trkpt lat="49.97292" lon="2.32894">
        <ele>97.6</ele>
        <time>2023-12-27T15:04:21Z</time>
      </trkpt>
      <trkpt lat="49.97292" lon="2.32892">
        <ele>97.6</ele>
        <time>2023-12-27T15:04:22Z</time>
      </trkpt>
      <trkpt lat="49.97292" lon="2.32889">
        <ele>97.6</ele>
        <time>2023-12-27T15:04:23Z</time>
      </trkpt>
      <trkpt lat="49.97292" lon="2.32888">
        <ele>97.6</ele>
        <time>2023-12-27T15:04:24Z</time>
      </trkpt>
      <trkpt lat="49.97292" lon="2.32887">
        <ele>97.6</ele>
        <time>2023-12-27T15:04:25Z</time>
      </trkpt>
      <trkpt lat="49.97292" lon="2.32884">
        <ele>97.5</ele>
        <time>2023-12-27T15:04:27Z</time>
      </trkpt>
      <trkpt lat="49.97291" lon="2.32882">
        <ele>97.5</ele>
        <time>2023-12-27T15:04:28Z</time>
      </trkpt>
      <trkpt lat="49.97291" lon="2.32881">
        <ele>97.5</ele>
        <time>2023-12-27T15:04:29Z</time>
      </trkpt>
      <trkpt lat="49.97291" lon="2.32878">
        <ele>97.5</ele>
        <time>2023-12-27T15:04:30Z</time>
      </trkpt>
      <trkpt lat="49.97291" lon="2.32876">
        <ele>97.5</ele>
        <time>2023-12-27T15:04:31Z</time>
      </trkpt>
      <trkpt lat="49.97291" lon="2.32875">
        <ele>97.5</ele>
        <time>2023-12-27T15:04:32Z</time>
      </trkpt>
      <trkpt lat="49.97291" lon="2.32871">
        <ele>97.4</ele>
        <time>2023-12-27T15:04:33Z</time>
      </trkpt>
      <trkpt lat="49.97292" lon="2.3287">
        <ele>97.4</ele>
        <time>2023-12-27T15:04:35Z</time>
      </trkpt>
      <trkpt lat="49.97292" lon="2.32869">
        <ele>97.4</ele>
        <time>2023-12-27T15:04:36Z</time>
      </trkpt>
      <trkpt lat="49.97292" lon="2.32865">
        <ele>97.4</ele>
        <time>2023-12-27T15:04:37Z</time>
      </trkpt>
      <trkpt lat="49.97292" lon="2.32864">
        <ele>97.4</ele>
        <time>2023-12-27T15:04:38Z</time>
      </trkpt>
      <trkpt lat="49.97292" lon="2.32862">
        <ele>97.4</ele>
        <time>2023-12-27T15:04:39Z</time>
      </trkpt>
      <trkpt lat="49.97292" lon="2.32859">
        <ele>97.3</ele>
        <time>2023-12-27T15:04:40Z</time>
      </trkpt>
      <trkpt lat="49.97292" lon="2.32857">
        <ele>97.3</ele>
        <time>2023-12-27T15:04:41Z</time>
      </trkpt>
      <trkpt lat="49.97293" lon="2.32856">
        <ele>97.3</ele>
        <time>2023-12-27T15:04:43Z</time>
      </trkpt>
      <trkpt lat="49.97293" lon="2.32854">
        <ele>97.3</ele>
        <time>2023-12-27T15:04:44Z</time>
      </trkpt>
      <trkpt lat="49.97293" lon="2.32853">
        <ele>97.3</ele>
        <time>2023-12-27T15:04:45Z</time>
      </trkpt>
      <trkpt lat="49.97293" lon="2.32851">
        <ele>97.3</ele>
        <time>2023-12-27T15:04:46Z</time>
      </trkpt>
      <trkpt lat="49.97293" lon="2.32849">
        <ele>97.2</ele>
        <time>2023-12-27T15:04:47Z</time>
      </trkpt>
      <trkpt lat="49.97294" lon="2.32847">
        <ele>97.2</ele>
        <time>2023-12-27T15:04:48Z</time>
      </trkpt>
      <trkpt lat="49.97294" lon="2.32846">
        <ele>97.2</ele>
        <time>2023-12-27T15:04:50Z</time>
      </trkpt>
      <trkpt lat="49.97294" lon="2.32844">
        <ele>97.2</ele>
        <time>2023-12-27T15:04:51Z</time>
      </trkpt>
      <trkpt lat="49.97294" lon="2.32842">
        <ele>97.2</ele>
        <time>2023-12-27T15:04:52Z</time>
      </trkpt>
      <trkpt lat="49.97294" lon="2.3284">
        <ele>97.2</ele>
        <time>2023-12-27T15:04:53Z</time>
      </trkpt>
      <trkpt lat="49.97294" lon="2.32837">
        <ele>97.1</ele>
        <time>2023-12-27T15:04:54Z</time>
      </trkpt>
      <trkpt lat="49.97294" lon="2.32836">
        <ele>97.1</ele>
        <time>2023-12-27T15:04:56Z</time>
      </trkpt>
      <trkpt lat="49.97294" lon="2.32834">
        <ele>97.1</ele>
        <time>2023-12-27T15:04:57Z</time>
      </trkpt>
      <trkpt lat="49.97294" lon="2.32831">
        <ele>97.1</ele>
        <time>2023-12-27T15:04:58Z</time>
      </trkpt>
      <trkpt lat="49.97294" lon="2.3283">
        <ele>97.1</ele>
        <time>2023-12-27T15:04:59Z</time>
      </trkpt>
      <trkpt lat="49.97294" lon="2.32828">
        <ele>97.1</ele>
        <time>2023-12-27T15:05:00Z</time>
      </trkpt>
      <trkpt lat="49.97294" lon="2.32826">
        <ele>97</ele>
        <time>2023-12-27T15:05:01Z</time>
      </trkpt>
      <trkpt lat="49.97294" lon="2.32825">
        <ele>97</ele>
        <time>2023-12-27T15:05:03Z</time>
      </trkpt>
      <trkpt lat="49.97294" lon="2.32823">
        <ele>97</ele>
        <time>2023-12-27T15:05:04Z</time>
      </trkpt>
      <trkpt lat="49.97295" lon="2.32819">
        <ele>97</ele>
        <time>2023-12-27T15:05:05Z</time>
      </trkpt>
      <trkpt lat="49.97295" lon="2.32818">
        <ele>96.9</ele>
        <time>2023-12-27T15:05:06Z</time>
      </trkpt>
      <trkpt lat="49.97294" lon="2.32817">
        <ele>96.9</ele>
        <time>2023-12-27T15:05:07Z</time>
      </trkpt>
      <trkpt lat="49.97294" lon="2.32814">
        <ele>96.9</ele>
        <time>2023-12-27T15:05:08Z</time>
      </trkpt>
      <trkpt lat="49.97294" lon="2.32812">
        <ele>96.9</ele>
        <time>2023-12-27T15:05:10Z</time>
      </trkpt>
      <trkpt lat="49.97294" lon="2.32811">
        <ele>96.9</ele>
        <time>2023-12-27T15:05:11Z</time>
      </trkpt>
      <trkpt lat="49.97293" lon="2.32808">
        <ele>96.8</ele>
        <time>2023-12-27T15:05:12Z</time>
      </trkpt>
      <trkpt lat="49.97293" lon="2.32807">
        <ele>96.8</ele>
        <time>2023-12-27T15:05:13Z</time>
      </trkpt>
      <trkpt lat="49.97293" lon="2.32805">
        <ele>96.8</ele>
        <time>2023-12-27T15:05:14Z</time>
      </trkpt>
      <trkpt lat="49.97293" lon="2.32803">
        <ele>96.8</ele>
        <time>2023-12-27T15:05:15Z</time>
      </trkpt>
      <trkpt lat="49.97294" lon="2.32802">
        <ele>96.8</ele>
        <time>2023-12-27T15:05:17Z</time>
      </trkpt>
      <trkpt lat="49.97294" lon="2.328">
        <ele>96.7</ele>
        <time>2023-12-27T15:05:18Z</time>
      </trkpt>
      <trkpt lat="49.97294" lon="2.32799">
        <ele>96.7</ele>
        <time>2023-12-27T15:05:19Z</time>
      </trkpt>
      <trkpt lat="49.97294" lon="2.32797">
        <ele>96.7</ele>
        <time>2023-12-27T15:05:20Z</time>
      </trkpt>
      <trkpt lat="49.97294" lon="2.32795">
        <ele>96.7</ele>
        <time>2023-12-27T15:05:21Z</time>
      </trkpt>
      <trkpt lat="49.97294" lon="2.32794">
        <ele>96.7</ele>
        <time>2023-12-27T15:05:22Z</time>
      </trkpt>
      <trkpt lat="49.97295" lon="2.32792">
        <ele>96.6</ele>
        <time>2023-12-27T15:05:24Z</time>
      </trkpt>
      <trkpt lat="49.97295" lon="2.3279">
        <ele>96.6</ele>
        <time>2023-12-27T15:05:25Z</time>
      </trkpt>
      <trkpt lat="49.97295" lon="2.32788">
        <ele>96.6</ele>
        <time>2023-12-27T15:05:26Z</time>
      </trkpt>
      <trkpt lat="49.97296" lon="2.32786">
        <ele>96.5</ele>
        <time>2023-12-27T15:05:27Z</time>
      </trkpt>
      <trkpt lat="49.97296" lon="2.32785">
        <ele>96.5</ele>
        <time>2023-12-27T15:05:28Z</time>
      </trkpt>
      <trkpt lat="49.97296" lon="2.32783">
        <ele>96.5</ele>
        <time>2023-12-27T15:05:29Z</time>
      </trkpt>
      <trkpt lat="49.97296" lon="2.32781">
        <ele>96.5</ele>
        <time>2023-12-27T15:05:31Z</time>
      </trkpt>
      <trkpt lat="49.97296" lon="2.3278">
        <ele>96.5</ele>
        <time>2023-12-27T15:05:32Z</time>
      </trkpt>
      <trkpt lat="49.97296" lon="2.32777">
        <ele>96.4</ele>
        <time>2023-12-27T15:05:33Z</time>
      </trkpt>
      <trkpt lat="49.97296" lon="2.32775">
        <ele>96.4</ele>
        <time>2023-12-27T15:05:34Z</time>
      </trkpt>
      <trkpt lat="49.97296" lon="2.32774">
        <ele>96.4</ele>
        <time>2023-12-27T15:05:35Z</time>
      </trkpt>
      <trkpt lat="49.97296" lon="2.32771">
        <ele>96.3</ele>
        <time>2023-12-27T15:05:36Z</time>
      </trkpt>
      <trkpt lat="49.97296" lon="2.32769">
        <ele>96.3</ele>
        <time>2023-12-27T15:05:38Z</time>
      </trkpt>
      <trkpt lat="49.97296" lon="2.32768">
        <ele>96.3</ele>
        <time>2023-12-27T15:05:39Z</time>
      </trkpt>
      <trkpt lat="49.97296" lon="2.32766">
        <ele>96.3</ele>
        <time>2023-12-27T15:05:40Z</time>
      </trkpt>
      <trkpt lat="49.97296" lon="2.32764">
        <ele>96.2</ele>
        <time>2023-12-27T15:05:41Z</time>
      </trkpt>
      <trkpt lat="49.97296" lon="2.32761">
        <ele>96.2</ele>
        <time>2023-12-27T15:05:42Z</time>
      </trkpt>
      <trkpt lat="49.97296" lon="2.32759">
        <ele>96.2</ele>
        <time>2023-12-27T15:05:43Z</time>
      </trkpt>
      <trkpt lat="49.97296" lon="2.32757">
        <ele>96.2</ele>
        <time>2023-12-27T15:05:45Z</time>
      </trkpt>
      <trkpt lat="49.97296" lon="2.32755">
        <ele>96.2</ele>
        <time>2023-12-27T15:05:46Z</time>
      </trkpt>
      <trkpt lat="49.97296" lon="2.32751">
        <ele>96.1</ele>
        <time>2023-12-27T15:05:47Z</time>
      </trkpt>
      <trkpt lat="49.97296" lon="2.3275">
        <ele>96.1</ele>
        <time>2023-12-27T15:05:48Z</time>
      </trkpt>
      <trkpt lat="49.97296" lon="2.32748">
        <ele>96.1</ele>
        <time>2023-12-27T15:05:49Z</time>
      </trkpt>
      <trkpt lat="49.97297" lon="2.32745">
        <ele>96.1</ele>
        <time>2023-12-27T15:05:50Z</time>
      </trkpt>
      <trkpt lat="49.97297" lon="2.32744">
        <ele>96.1</ele>
        <time>2023-12-27T15:05:52Z</time>
      </trkpt>
      <trkpt lat="49.97297" lon="2.32742">
        <ele>96.1</ele>
        <time>2023-12-27T15:05:53Z</time>
      </trkpt>
      <trkpt lat="49.97297" lon="2.32739">
        <ele>96.1</ele>
        <time>2023-12-27T15:05:54Z</time>
      </trkpt>
      <trkpt lat="49.97297" lon="2.32737">
        <ele>96.1</ele>
        <time>2023-12-27T15:05:55Z</time>
      </trkpt>
      <trkpt lat="49.97297" lon="2.32736">
        <ele>96</ele>
        <time>2023-12-27T15:05:56Z</time>
      </trkpt>
      <trkpt lat="49.97297" lon="2.32734">
        <ele>96</ele>
        <time>2023-12-27T15:05:58Z</time>
      </trkpt>
      <trkpt lat="49.97297" lon="2.32732">
        <ele>96</ele>
        <time>2023-12-27T15:05:59Z</time>
      </trkpt>
      <trkpt lat="49.97297" lon="2.32731">
        <ele>96</ele>
        <time>2023-12-27T15:06:00Z</time>
      </trkpt>
      <trkpt lat="49.97297" lon="2.32729">
        <ele>96</ele>
        <time>2023-12-27T15:06:01Z</time>
      </trkpt>
      <trkpt lat="49.97297" lon="2.32727">
        <ele>96</ele>
        <time>2023-12-27T15:06:02Z</time>
      </trkpt>
      <trkpt lat="49.97297" lon="2.32725">
        <ele>96</ele>
        <time>2023-12-27T15:06:04Z</time>
      </trkpt>
      <trkpt lat="49.97297" lon="2.32723">
        <ele>96</ele>
        <time>2023-12-27T15:06:05Z</time>
      </trkpt>
      <trkpt lat="49.97297" lon="2.32721">
        <ele>96</ele>
        <time>2023-12-27T15:06:06Z</time>
      </trkpt>
      <trkpt lat="49.97297" lon="2.32719">
        <ele>96</ele>
        <time>2023-12-27T15:06:07Z</time>
      </trkpt>
      <trkpt lat="49.97297" lon="2.32717">
        <ele>96</ele>
        <time>2023-12-27T15:06:08Z</time>
      </trkpt>
      <trkpt lat="49.97297" lon="2.32715">
        <ele>96</ele>
        <time>2023-12-27T15:06:10Z</time>
      </trkpt>
      <trkpt lat="49.97297" lon="2.32714">
        <ele>95.9</ele>
        <time>2023-12-27T15:06:11Z</time>
      </trkpt>
      <trkpt lat="49.97298" lon="2.32712">
        <ele>95.9</ele>
        <time>2023-12-27T15:06:12Z</time>
      </trkpt>
      <trkpt lat="49.97298" lon="2.3271">
        <ele>95.9</ele>
        <time>2023-12-27T15:06:13Z</time>
      </trkpt>
      <trkpt lat="49.97298" lon="2.32708">
        <ele>95.9</ele>
        <time>2023-12-27T15:06:14Z</time>
      </trkpt>
      <trkpt lat="49.97298" lon="2.32706">
        <ele>95.9</ele>
        <time>2023-12-27T15:06:15Z</time>
      </trkpt>
      <trkpt lat="49.97298" lon="2.32704">
        <ele>95.9</ele>
        <time>2023-12-27T15:06:16Z</time>
      </trkpt>
      <trkpt lat="49.97298" lon="2.32702">
        <ele>95.9</ele>
        <time>2023-12-27T15:06:18Z</time>
      </trkpt>
      <trkpt lat="49.97297" lon="2.32701">
        <ele>95.9</ele>
        <time>2023-12-27T15:06:19Z</time>
      </trkpt>
      <trkpt lat="49.97297" lon="2.32699">
        <ele>95.9</ele>
        <time>2023-12-27T15:06:20Z</time>
      </trkpt>
      <trkpt lat="49.97297" lon="2.32697">
        <ele>95.9</ele>
        <time>2023-12-27T15:06:21Z</time>
      </trkpt>
      <trkpt lat="49.97297" lon="2.32695">
        <ele>95.8</ele>
        <time>2023-12-27T15:06:22Z</time>
      </trkpt>
      <trkpt lat="49.97296" lon="2.32693">
        <ele>95.8</ele>
        <time>2023-12-27T15:06:24Z</time>
      </trkpt>
      <trkpt lat="49.97296" lon="2.32692">
        <ele>95.8</ele>
        <time>2023-12-27T15:06:25Z</time>
      </trkpt>
      <trkpt lat="49.97296" lon="2.3269">
        <ele>95.8</ele>
        <time>2023-12-27T15:06:27Z</time>
      </trkpt>
      <trkpt lat="49.97295" lon="2.32687">
        <ele>95.8</ele>
        <time>2023-12-27T15:06:29Z</time>
      </trkpt>
      <trkpt lat="49.97294" lon="2.32686">
        <ele>95.8</ele>
        <time>2023-12-27T15:06:30Z</time>
      </trkpt>
      <trkpt lat="49.97294" lon="2.32685">
        <ele>95.8</ele>
        <time>2023-12-27T15:06:31Z</time>
      </trkpt>
      <trkpt lat="49.97293" lon="2.32684">
        <ele>95.8</ele>
        <time>2023-12-27T15:06:32Z</time>
      </trkpt>
      <trkpt lat="49.97292" lon="2.32683">
        <ele>95.8</ele>
        <time>2023-12-27T15:06:34Z</time>
      </trkpt>
      <trkpt lat="49.97292" lon="2.32682">
        <ele>95.8</ele>
        <time>2023-12-27T15:06:35Z</time>
      </trkpt>
      <trkpt lat="49.97291" lon="2.32682">
        <ele>95.8</ele>
        <time>2023-12-27T15:06:36Z</time>
      </trkpt>
      <trkpt lat="49.97291" lon="2.32681">
        <ele>95.7</ele>
        <time>2023-12-27T15:06:37Z</time>
      </trkpt>
      <trkpt lat="49.97291" lon="2.3268">
        <ele>95.7</ele>
        <time>2023-12-27T15:06:39Z</time>
      </trkpt>
      <trkpt lat="49.97291" lon="2.3268">
        <ele>95.7</ele>
        <time>2023-12-27T15:06:40Z</time>
      </trkpt>
      <trkpt lat="49.97292" lon="2.32679">
        <ele>95.7</ele>
        <time>2023-12-27T15:06:41Z</time>
      </trkpt>
      <trkpt lat="49.97292" lon="2.32678">
        <ele>95.7</ele>
        <time>2023-12-27T15:06:43Z</time>
      </trkpt>
      <trkpt lat="49.97293" lon="2.32678">
        <ele>95.7</ele>
        <time>2023-12-27T15:06:44Z</time>
      </trkpt>
      <trkpt lat="49.97293" lon="2.32678">
        <ele>95.7</ele>
        <time>2023-12-27T15:06:45Z</time>
      </trkpt>
      <trkpt lat="49.97294" lon="2.32677">
        <ele>95.7</ele>
        <time>2023-12-27T15:06:47Z</time>
      </trkpt>
      <trkpt lat="49.97294" lon="2.32676">
        <ele>95.7</ele>
        <time>2023-12-27T15:06:49Z</time>
      </trkpt>
      <trkpt lat="49.97295" lon="2.32674">
        <ele>95.7</ele>
        <time>2023-12-27T15:06:50Z</time>
      </trkpt>
      <trkpt lat="49.97295" lon="2.32673">
        <ele>95.7</ele>
        <time>2023-12-27T15:06:52Z</time>
      </trkpt>
      <trkpt lat="49.97295" lon="2.32673">
        <ele>95.7</ele>
        <time>2023-12-27T15:06:53Z</time>
      </trkpt>
      <trkpt lat="49.97295" lon="2.32674">
        <ele>95.7</ele>
        <time>2023-12-27T15:06:54Z</time>
      </trkpt>
      <trkpt lat="49.97295" lon="2.32674">
        <ele>95.7</ele>
        <time>2023-12-27T15:06:55Z</time>
      </trkpt>
      <trkpt lat="49.97295" lon="2.32674">
        <ele>95.7</ele>
        <time>2023-12-27T15:06:56Z</time>
      </trkpt>
      <trkpt lat="49.97295" lon="2.32673">
        <ele>95.7</ele>
        <time>2023-12-27T15:06:58Z</time>
      </trkpt>
      <trkpt lat="49.97295" lon="2.32673">
        <ele>95.7</ele>
        <time>2023-12-27T15:06:59Z</time>
      </trkpt>
      <trkpt lat="49.97295" lon="2.32672">
        <ele>95.7</ele>
        <time>2023-12-27T15:07:00Z</time>
      </trkpt>
      <trkpt lat="49.97295" lon="2.32671">
        <ele>95.7</ele>
        <time>2023-12-27T15:07:01Z</time>
      </trkpt>
      <trkpt lat="49.97295" lon="2.3267">
        <ele>95.7</ele>
        <time>2023-12-27T15:07:02Z</time>
      </trkpt>
      <trkpt lat="49.97294" lon="2.32668">
        <ele>95.7</ele>
        <time>2023-12-27T15:07:04Z</time>
      </trkpt>
      <trkpt lat="49.97294" lon="2.32667">
        <ele>95.7</ele>
        <time>2023-12-27T15:07:05Z</time>
      </trkpt>
      <trkpt lat="49.97293" lon="2.32666">
        <ele>95.7</ele>
        <time>2023-12-27T15:07:06Z</time>
      </trkpt>
      <trkpt lat="49.97293" lon="2.32665">
        <ele>95.7</ele>
        <time>2023-12-27T15:07:07Z</time>
      </trkpt>
      <trkpt lat="49.97292" lon="2.32665">
        <ele>95.7</ele>
        <time>2023-12-27T15:07:08Z</time>
      </trkpt>
      <trkpt lat="49.97291" lon="2.32664">
        <ele>95.7</ele>
        <time>2023-12-27T15:07:09Z</time>
      </trkpt>
      <trkpt lat="49.97291" lon="2.32664">
        <ele>95.7</ele>
        <time>2023-12-27T15:07:10Z</time>
      </trkpt>
      <trkpt lat="49.97289" lon="2.32663">
        <ele>95.7</ele>
        <time>2023-12-27T15:07:12Z</time>
      </trkpt>
      <trkpt lat="49.97288" lon="2.32662">
        <ele>95.6</ele>
        <time>2023-12-27T15:07:13Z</time>
      </trkpt>
      <trkpt lat="49.97287" lon="2.3266">
        <ele>95.6</ele>
        <time>2023-12-27T15:07:15Z</time>
      </trkpt>
      <trkpt lat="49.97287" lon="2.32659">
        <ele>95.6</ele>
        <time>2023-12-27T15:07:16Z</time>
      </trkpt>
      <trkpt lat="49.97286" lon="2.32659">
        <ele>95.6</ele>
        <time>2023-12-27T15:07:17Z</time>
      </trkpt>
      <trkpt lat="49.97285" lon="2.32658">
        <ele>95.6</ele>
        <time>2023-12-27T15:07:18Z</time>
      </trkpt>
      <trkpt lat="49.97284" lon="2.32658">
        <ele>95.6</ele>
        <time>2023-12-27T15:07:20Z</time>
      </trkpt>
      <trkpt lat="49.97283" lon="2.32657">
        <ele>95.6</ele>
        <time>2023-12-27T15:07:21Z</time>
      </trkpt>
      <trkpt lat="49.97283" lon="2.32657">
        <ele>95.6</ele>
        <time>2023-12-27T15:07:22Z</time>
      </trkpt>
      <trkpt lat="49.97282" lon="2.32656">
        <ele>95.6</ele>
        <time>2023-12-27T15:07:23Z</time>
      </trkpt>
      <trkpt lat="49.97281" lon="2.32655">
        <ele>95.6</ele>
        <time>2023-12-27T15:07:24Z</time>
      </trkpt>
      <trkpt lat="49.9728" lon="2.32655">
        <ele>95.6</ele>
        <time>2023-12-27T15:07:25Z</time>
      </trkpt>
      <trkpt lat="49.97279" lon="2.32655">
        <ele>95.6</ele>
        <time>2023-12-27T15:07:27Z</time>
      </trkpt>
      <trkpt lat="49.97278" lon="2.32655">
        <ele>95.6</ele>
        <time>2023-12-27T15:07:28Z</time>
      </trkpt>
      <trkpt lat="49.97277" lon="2.32655">
        <ele>95.6</ele>
        <time>2023-12-27T15:07:30Z</time>
      </trkpt>
      <trkpt lat="49.97275" lon="2.32655">
        <ele>95.5</ele>
        <time>2023-12-27T15:07:31Z</time>
      </trkpt>
      <trkpt lat="49.97274" lon="2.32655">
        <ele>95.5</ele>
        <time>2023-12-27T15:07:32Z</time>
      </trkpt>
      <trkpt lat="49.97273" lon="2.32655">
        <ele>95.5</ele>
        <time>2023-12-27T15:07:33Z</time>
      </trkpt>
      <trkpt lat="49.97272" lon="2.32655">
        <ele>95.5</ele>
        <time>2023-12-27T15:07:34Z</time>
      </trkpt>
      <trkpt lat="49.97271" lon="2.32655">
        <ele>95.5</ele>
        <time>2023-12-27T15:07:36Z</time>
      </trkpt>
      <trkpt lat="49.9727" lon="2.32655">
        <ele>95.5</ele>
        <time>2023-12-27T15:07:37Z</time>
      </trkpt>
      <trkpt lat="49.97269" lon="2.32654">
        <ele>95.5</ele>
        <time>2023-12-27T15:07:38Z</time>
      </trkpt>
      <trkpt lat="49.97268" lon="2.32654">
        <ele>95.5</ele>
        <time>2023-12-27T15:07:39Z</time>
      </trkpt>
      <trkpt lat="49.97267" lon="2.32654">
        <ele>95.5</ele>
        <time>2023-12-27T15:07:40Z</time>
      </trkpt>
      <trkpt lat="49.97266" lon="2.32654">
        <ele>95.5</ele>
        <time>2023-12-27T15:07:41Z</time>
      </trkpt>
      <trkpt lat="49.97265" lon="2.32654">
        <ele>95.5</ele>
        <time>2023-12-27T15:07:42Z</time>
      </trkpt>
      <trkpt lat="49.97264" lon="2.32654">
        <ele>95.5</ele>
        <time>2023-12-27T15:07:44Z</time>
      </trkpt>
      <trkpt lat="49.97263" lon="2.32654">
        <ele>95.5</ele>
        <time>2023-12-27T15:07:45Z</time>
      </trkpt>
      <trkpt lat="49.97262" lon="2.32654">
        <ele>95.5</ele>
        <time>2023-12-27T15:07:46Z</time>
      </trkpt>
      <trkpt lat="49.97261" lon="2.32654">
        <ele>95.5</ele>
        <time>2023-12-27T15:07:47Z</time>
      </trkpt>
      <trkpt lat="49.9726" lon="2.32654">
        <ele>95.5</ele>
        <time>2023-12-27T15:07:48Z</time>
      </trkpt>
      <trkpt lat="49.97258" lon="2.32655">
        <ele>95.5</ele>
        <time>2023-12-27T15:07:50Z</time>
      </trkpt>
      <trkpt lat="49.97256" lon="2.32655">
        <ele>95.5</ele>
        <time>2023-12-27T15:07:52Z</time>
      </trkpt>
      <trkpt lat="49.97255" lon="2.32655">
        <ele>95.5</ele>
        <time>2023-12-27T15:07:53Z</time>
      </trkpt>
      <trkpt lat="49.97254" lon="2.32656">
        <ele>95.5</ele>
        <time>2023-12-27T15:07:54Z</time>
      </trkpt>
      <trkpt lat="49.97253" lon="2.32656">
        <ele>95.5</ele>
        <time>2023-12-27T15:07:55Z</time>
      </trkpt>
      <trkpt lat="49.97252" lon="2.32656">
        <ele>95.4</ele>
        <time>2023-12-27T15:07:56Z</time>
      </trkpt>
      <trkpt lat="49.97251" lon="2.32657">
        <ele>95.4</ele>
        <time>2023-12-27T15:07:58Z</time>
      </trkpt>
      <trkpt lat="49.9725" lon="2.32657">
        <ele>95.4</ele>
        <time>2023-12-27T15:07:59Z</time>
      </trkpt>
      <trkpt lat="49.97248" lon="2.32658">
        <ele>95.4</ele>
        <time>2023-12-27T15:08:00Z</time>
      </trkpt>
      <trkpt lat="49.97247" lon="2.32658">
        <ele>95.4</ele>
        <time>2023-12-27T15:08:02Z</time>
      </trkpt>
      <trkpt lat="49.97246" lon="2.32658">
        <ele>95.4</ele>
        <time>2023-12-27T15:08:03Z</time>
      </trkpt>
      <trkpt lat="49.97245" lon="2.32658">
        <ele>95.4</ele>
        <time>2023-12-27T15:08:04Z</time>
      </trkpt>
      <trkpt lat="49.97244" lon="2.32658">
        <ele>95.4</ele>
        <time>2023-12-27T15:08:05Z</time>
      </trkpt>
      <trkpt lat="49.97243" lon="2.32658">
        <ele>95.4</ele>
        <time>2023-12-27T15:08:06Z</time>
      </trkpt>
      <trkpt lat="49.97242" lon="2.32659">
        <ele>95.4</ele>
        <time>2023-12-27T15:08:07Z</time>
      </trkpt>
      <trkpt lat="49.97241" lon="2.32659">
        <ele>95.4</ele>
        <time>2023-12-27T15:08:08Z</time>
      </trkpt>
      <trkpt lat="49.97239" lon="2.32659">
        <ele>95.4</ele>
        <time>2023-12-27T15:08:10Z</time>
      </trkpt>
      <trkpt lat="49.97237" lon="2.32659">
        <ele>95.4</ele>
        <time>2023-12-27T15:08:11Z</time>
      </trkpt>
      <trkpt lat="49.97237" lon="2.32659">
        <ele>95.4</ele>
        <time>2023-12-27T15:08:12Z</time>
      </trkpt>
      <trkpt lat="49.97236" lon="2.32659">
        <ele>95.4</ele>
        <time>2023-12-27T15:08:13Z</time>
      </trkpt>
      <trkpt lat="49.97235" lon="2.32659">
        <ele>95.4</ele>
        <time>2023-12-27T15:08:15Z</time>
      </trkpt>
      <trkpt lat="49.97233" lon="2.32659">
        <ele>95.4</ele>
        <time>2023-12-27T15:08:16Z</time>
      </trkpt>
      <trkpt lat="49.97232" lon="2.32659">
        <ele>95.4</ele>
        <time>2023-12-27T15:08:17Z</time>
      </trkpt>
      <trkpt lat="49.97231" lon="2.32659">
        <ele>95.4</ele>
        <time>2023-12-27T15:08:18Z</time>
      </trkpt>
      <trkpt lat="49.9723" lon="2.32659">
        <ele>95.4</ele>
        <time>2023-12-27T15:08:19Z</time>
      </trkpt>
      <trkpt lat="49.97229" lon="2.32659">
        <ele>95.5</ele>
        <time>2023-12-27T15:08:21Z</time>
      </trkpt>
      <trkpt lat="49.97227" lon="2.32659">
        <ele>95.5</ele>
        <time>2023-12-27T15:08:22Z</time>
      </trkpt>
      <trkpt lat="49.97226" lon="2.32659">
        <ele>95.5</ele>
        <time>2023-12-27T15:08:24Z</time>
      </trkpt>
      <trkpt lat="49.97225" lon="2.32659">
        <ele>95.5</ele>
        <time>2023-12-27T15:08:25Z</time>
      </trkpt>
      <trkpt lat="49.97224" lon="2.3266">
        <ele>95.5</ele>
        <time>2023-12-27T15:08:26Z</time>
      </trkpt>
      <trkpt lat="49.97223" lon="2.3266">
        <ele>95.5</ele>
        <time>2023-12-27T15:08:28Z</time>
      </trkpt>
      <trkpt lat="49.97222" lon="2.3266">
        <ele>95.5</ele>
        <time>2023-12-27T15:08:29Z</time>
      </trkpt>
      <trkpt lat="49.97221" lon="2.32661">
        <ele>95.5</ele>
        <time>2023-12-27T15:08:30Z</time>
      </trkpt>
      <trkpt lat="49.9722" lon="2.32661">
        <ele>95.5</ele>
        <time>2023-12-27T15:08:31Z</time>
      </trkpt>
      <trkpt lat="49.97219" lon="2.32661">
        <ele>95.5</ele>
        <time>2023-12-27T15:08:32Z</time>
      </trkpt>
      <trkpt lat="49.97218" lon="2.32662">
        <ele>95.5</ele>
        <time>2023-12-27T15:08:33Z</time>
      </trkpt>
      <trkpt lat="49.97217" lon="2.32663">
        <ele>95.5</ele>
        <time>2023-12-27T15:08:34Z</time>
      </trkpt>
      <trkpt lat="49.97216" lon="2.32663">
        <ele>95.6</ele>
        <time>2023-12-27T15:08:35Z</time>
      </trkpt>
      <trkpt lat="49.97214" lon="2.32664">
        <ele>95.6</ele>
        <time>2023-12-27T15:08:37Z</time>
      </trkpt>
      <trkpt lat="49.97213" lon="2.32664">
        <ele>95.6</ele>
        <time>2023-12-27T15:08:38Z</time>
      </trkpt>
      <trkpt lat="49.97212" lon="2.32664">
        <ele>95.6</ele>
        <time>2023-12-27T15:08:39Z</time>
      </trkpt>
      <trkpt lat="49.97211" lon="2.32664">
        <ele>95.6</ele>
        <time>2023-12-27T15:08:40Z</time>
      </trkpt>
      <trkpt lat="49.9721" lon="2.32663">
        <ele>95.6</ele>
        <time>2023-12-27T15:08:41Z</time>
      </trkpt>
      <trkpt lat="49.97209" lon="2.32663">
        <ele>95.6</ele>
        <time>2023-12-27T15:08:43Z</time>
      </trkpt>
      <trkpt lat="49.97208" lon="2.32662">
        <ele>95.6</ele>
        <time>2023-12-27T15:08:44Z</time>
      </trkpt>
      <trkpt lat="49.97207" lon="2.32662">
        <ele>95.7</ele>
        <time>2023-12-27T15:08:45Z</time>
      </trkpt>
      <trkpt lat="49.97205" lon="2.32662">
        <ele>95.7</ele>
        <time>2023-12-27T15:08:46Z</time>
      </trkpt>
      <trkpt lat="49.97204" lon="2.32662">
        <ele>95.7</ele>
        <time>2023-12-27T15:08:47Z</time>
      </trkpt>
      <trkpt lat="49.97203" lon="2.32662">
        <ele>95.7</ele>
        <time>2023-12-27T15:08:48Z</time>
      </trkpt>
      <trkpt lat="49.97202" lon="2.32662">
        <ele>95.7</ele>
        <time>2023-12-27T15:08:50Z</time>
      </trkpt>
      <trkpt lat="49.972" lon="2.32662">
        <ele>95.7</ele>
        <time>2023-12-27T15:08:51Z</time>
      </trkpt>
      <trkpt lat="49.97198" lon="2.32662">
        <ele>95.8</ele>
        <time>2023-12-27T15:08:52Z</time>
      </trkpt>
      <trkpt lat="49.97197" lon="2.32662">
        <ele>95.8</ele>
        <time>2023-12-27T15:08:53Z</time>
      </trkpt>
      <trkpt lat="49.97196" lon="2.32662">
        <ele>95.8</ele>
        <time>2023-12-27T15:08:54Z</time>
      </trkpt>
      <trkpt lat="49.97195" lon="2.32663">
        <ele>95.8</ele>
        <time>2023-12-27T15:08:56Z</time>
      </trkpt>
      <trkpt lat="49.97193" lon="2.32663">
        <ele>95.8</ele>
        <time>2023-12-27T15:08:57Z</time>
      </trkpt>
      <trkpt lat="49.97192" lon="2.32663">
        <ele>95.8</ele>
        <time>2023-12-27T15:08:58Z</time>
      </trkpt>
      <trkpt lat="49.97191" lon="2.32663">
        <ele>95.8</ele>
        <time>2023-12-27T15:08:59Z</time>
      </trkpt>
      <trkpt lat="49.9719" lon="2.32663">
        <ele>95.8</ele>
        <time>2023-12-27T15:09:00Z</time>
      </trkpt>
      <trkpt lat="49.97188" lon="2.32663">
        <ele>95.9</ele>
        <time>2023-12-27T15:09:02Z</time>
      </trkpt>
      <trkpt lat="49.97187" lon="2.32663">
        <ele>95.9</ele>
        <time>2023-12-27T15:09:03Z</time>
      </trkpt>
      <trkpt lat="49.97186" lon="2.32663">
        <ele>95.9</ele>
        <time>2023-12-27T15:09:04Z</time>
      </trkpt>
      <trkpt lat="49.97185" lon="2.32663">
        <ele>95.9</ele>
        <time>2023-12-27T15:09:05Z</time>
      </trkpt>
      <trkpt lat="49.97184" lon="2.32663">
        <ele>95.9</ele>
        <time>2023-12-27T15:09:06Z</time>
      </trkpt>
      <trkpt lat="49.97183" lon="2.32663">
        <ele>95.9</ele>
        <time>2023-12-27T15:09:07Z</time>
      </trkpt>
      <trkpt lat="49.97181" lon="2.32663">
        <ele>95.9</ele>
        <time>2023-12-27T15:09:09Z</time>
      </trkpt>
      <trkpt lat="49.9718" lon="2.32663">
        <ele>95.9</ele>
        <time>2023-12-27T15:09:10Z</time>
      </trkpt>
      <trkpt lat="49.97179" lon="2.32663">
        <ele>95.9</ele>
        <time>2023-12-27T15:09:11Z</time>
      </trkpt>
      <trkpt lat="49.97177" lon="2.32662">
        <ele>95.9</ele>
        <time>2023-12-27T15:09:12Z</time>
      </trkpt>
      <trkpt lat="49.97176" lon="2.32662">
        <ele>96</ele>
        <time>2023-12-27T15:09:13Z</time>
      </trkpt>
      <trkpt lat="49.97176" lon="2.32662">
        <ele>96</ele>
        <time>2023-12-27T15:09:14Z</time>
      </trkpt>
      <trkpt lat="49.97173" lon="2.32661">
        <ele>96</ele>
        <time>2023-12-27T15:09:16Z</time>
      </trkpt>
      <trkpt lat="49.97173" lon="2.32661">
        <ele>96</ele>
        <time>2023-12-27T15:09:17Z</time>
      </trkpt>
      <trkpt lat="49.97172" lon="2.32661">
        <ele>96</ele>
        <time>2023-12-27T15:09:18Z</time>
      </trkpt>
      <trkpt lat="49.9717" lon="2.3266">
        <ele>96</ele>
        <time>2023-12-27T15:09:19Z</time>
      </trkpt>
      <trkpt lat="49.97169" lon="2.3266">
        <ele>96</ele>
        <time>2023-12-27T15:09:20Z</time>
      </trkpt>
      <trkpt lat="49.97168" lon="2.3266">
        <ele>96</ele>
        <time>2023-12-27T15:09:21Z</time>
      </trkpt>
      <trkpt lat="49.97166" lon="2.3266">
        <ele>96</ele>
        <time>2023-12-27T15:09:23Z</time>
      </trkpt>
      <trkpt lat="49.97165" lon="2.3266">
        <ele>96.1</ele>
        <time>2023-12-27T15:09:24Z</time>
      </trkpt>
      <trkpt lat="49.97163" lon="2.32661">
        <ele>96.1</ele>
        <time>2023-12-27T15:09:25Z</time>
      </trkpt>
      <trkpt lat="49.97162" lon="2.32661">
        <ele>96.1</ele>
        <time>2023-12-27T15:09:26Z</time>
      </trkpt>
      <trkpt lat="49.97161" lon="2.32661">
        <ele>96.1</ele>
        <time>2023-12-27T15:09:27Z</time>
      </trkpt>
      <trkpt lat="49.97159" lon="2.32662">
        <ele>96.1</ele>
        <time>2023-12-27T15:09:29Z</time>
      </trkpt>
      <trkpt lat="49.97158" lon="2.32662">
        <ele>96.1</ele>
        <time>2023-12-27T15:09:30Z</time>
      </trkpt>
      <trkpt lat="49.97156" lon="2.32662">
        <ele>96.1</ele>
        <time>2023-12-27T15:09:31Z</time>
      </trkpt>
      <trkpt lat="49.97155" lon="2.32662">
        <ele>96.1</ele>
        <time>2023-12-27T15:09:32Z</time>
      </trkpt>
      <trkpt lat="49.97154" lon="2.32661">
        <ele>96.1</ele>
        <time>2023-12-27T15:09:33Z</time>
      </trkpt>
      <trkpt lat="49.97152" lon="2.32661">
        <ele>96.1</ele>
        <time>2023-12-27T15:09:34Z</time>
      </trkpt>
      <trkpt lat="49.97151" lon="2.32661">
        <ele>96.1</ele>
        <time>2023-12-27T15:09:36Z</time>
      </trkpt>
      <trkpt lat="49.9715" lon="2.32661">
        <ele>96.1</ele>
        <time>2023-12-27T15:09:37Z</time>
      </trkpt>
      <trkpt lat="49.97149" lon="2.3266">
        <ele>96.1</ele>
        <time>2023-12-27T15:09:38Z</time>
      </trkpt>
      <trkpt lat="49.97148" lon="2.3266">
        <ele>96.2</ele>
        <time>2023-12-27T15:09:39Z</time>
      </trkpt>
      <trkpt lat="49.97147" lon="2.3266">
        <ele>96.2</ele>
        <time>2023-12-27T15:09:40Z</time>
      </trkpt>
      <trkpt lat="49.97146" lon="2.32659">
        <ele>96.2</ele>
        <time>2023-12-27T15:09:41Z</time>
      </trkpt>
      <trkpt lat="49.97144" lon="2.32658">
        <ele>96.2</ele>
        <time>2023-12-27T15:09:43Z</time>
      </trkpt>
      <trkpt lat="49.97143" lon="2.32658">
        <ele>96.2</ele>
        <time>2023-12-27T15:09:44Z</time>
      </trkpt>
      <trkpt lat="49.97142" lon="2.32657">
        <ele>96.2</ele>
        <time>2023-12-27T15:09:45Z</time>
      </trkpt>
      <trkpt lat="49.97141" lon="2.32657">
        <ele>96.2</ele>
        <time>2023-12-27T15:09:46Z</time>
      </trkpt>
      <trkpt lat="49.9714" lon="2.32656">
        <ele>96.3</ele>
        <time>2023-12-27T15:09:47Z</time>
      </trkpt>
      <trkpt lat="49.97138" lon="2.32656">
        <ele>96.3</ele>
        <time>2023-12-27T15:09:48Z</time>
      </trkpt>
      <trkpt lat="49.97136" lon="2.32656">
        <ele>96.3</ele>
        <time>2023-12-27T15:09:50Z</time>
      </trkpt>
      <trkpt lat="49.97135" lon="2.32656">
        <ele>96.3</ele>
        <time>2023-12-27T15:09:51Z</time>
      </trkpt>
      <trkpt lat="49.97134" lon="2.32656">
        <ele>96.3</ele>
        <time>2023-12-27T15:09:52Z</time>
      </trkpt>
      <trkpt lat="49.97133" lon="2.32656">
        <ele>96.3</ele>
        <time>2023-12-27T15:09:53Z</time>
      </trkpt>
      <trkpt lat="49.97132" lon="2.32656">
        <ele>96.4</ele>
        <time>2023-12-27T15:09:54Z</time>
      </trkpt>
      <trkpt lat="49.97131" lon="2.32655">
        <ele>96.4</ele>
        <time>2023-12-27T15:09:55Z</time>
      </trkpt>
      <trkpt lat="49.97129" lon="2.32655">
        <ele>96.4</ele>
        <time>2023-12-27T15:09:57Z</time>
      </trkpt>
      <trkpt lat="49.97128" lon="2.32655">
        <ele>96.4</ele>
        <time>2023-12-27T15:09:58Z</time>
      </trkpt>
      <trkpt lat="49.97127" lon="2.32655">
        <ele>96.4</ele>
        <time>2023-12-27T15:09:59Z</time>
      </trkpt>
      <trkpt lat="49.97125" lon="2.32655">
        <ele>96.4</ele>
        <time>2023-12-27T15:10:00Z</time>
      </trkpt>
      <trkpt lat="49.97124" lon="2.32655">
        <ele>96.4</ele>
        <time>2023-12-27T15:10:01Z</time>
      </trkpt>
      <trkpt lat="49.97123" lon="2.32655">
        <ele>96.5</ele>
        <time>2023-12-27T15:10:02Z</time>
      </trkpt>
      <trkpt lat="49.97121" lon="2.32655">
        <ele>96.5</ele>
        <time>2023-12-27T15:10:03Z</time>
      </trkpt>
      <trkpt lat="49.9712" lon="2.32655">
        <ele>96.5</ele>
        <time>2023-12-27T15:10:05Z</time>
      </trkpt>
      <trkpt lat="49.97119" lon="2.32655">
        <ele>96.5</ele>
        <time>2023-12-27T15:10:06Z</time>
      </trkpt>
      <trkpt lat="49.97118" lon="2.32655">
        <ele>96.5</ele>
        <time>2023-12-27T15:10:07Z</time>
      </trkpt>
      <trkpt lat="49.97117" lon="2.32655">
        <ele>96.5</ele>
        <time>2023-12-27T15:10:08Z</time>
      </trkpt>
      <trkpt lat="49.97115" lon="2.32655">
        <ele>96.6</ele>
        <time>2023-12-27T15:10:09Z</time>
      </trkpt>
      <trkpt lat="49.97114" lon="2.32655">
        <ele>96.6</ele>
        <time>2023-12-27T15:10:11Z</time>
      </trkpt>
      <trkpt lat="49.97113" lon="2.32655">
        <ele>96.6</ele>
        <time>2023-12-27T15:10:12Z</time>
      </trkpt>
      <trkpt lat="49.97111" lon="2.32655">
        <ele>96.6</ele>
        <time>2023-12-27T15:10:13Z</time>
      </trkpt>
      <trkpt lat="49.97111" lon="2.32655">
        <ele>96.6</ele>
        <time>2023-12-27T15:10:14Z</time>
      </trkpt>
      <trkpt lat="49.9711" lon="2.32655">
        <ele>96.6</ele>
        <time>2023-12-27T15:10:15Z</time>
      </trkpt>
      <trkpt lat="49.97108" lon="2.32655">
        <ele>96.6</ele>
        <time>2023-12-27T15:10:16Z</time>
      </trkpt>
      <trkpt lat="49.97107" lon="2.32655">
        <ele>96.7</ele>
        <time>2023-12-27T15:10:17Z</time>
      </trkpt>
      <trkpt lat="49.97106" lon="2.32655">
        <ele>96.7</ele>
        <time>2023-12-27T15:10:19Z</time>
      </trkpt>
      <trkpt lat="49.97104" lon="2.32655">
        <ele>96.7</ele>
        <time>2023-12-27T15:10:20Z</time>
      </trkpt>
      <trkpt lat="49.97103" lon="2.32655">
        <ele>96.7</ele>
        <time>2023-12-27T15:10:21Z</time>
      </trkpt>
      <trkpt lat="49.97102" lon="2.32655">
        <ele>96.7</ele>
        <time>2023-12-27T15:10:22Z</time>
      </trkpt>
      <trkpt lat="49.97101" lon="2.32654">
        <ele>96.7</ele>
        <time>2023-12-27T15:10:23Z</time>
      </trkpt>
      <trkpt lat="49.97099" lon="2.32654">
        <ele>96.8</ele>
        <time>2023-12-27T15:10:25Z</time>
      </trkpt>
      <trkpt lat="49.97098" lon="2.32654">
        <ele>96.8</ele>
        <time>2023-12-27T15:10:26Z</time>
      </trkpt>
      <trkpt lat="49.97097" lon="2.32654">
        <ele>96.8</ele>
        <time>2023-12-27T15:10:27Z</time>
      </trkpt>
      <trkpt lat="49.97096" lon="2.32655">
        <ele>96.8</ele>
        <time>2023-12-27T15:10:28Z</time>
      </trkpt>
      <trkpt lat="49.97095" lon="2.32655">
        <ele>96.8</ele>
        <time>2023-12-27T15:10:29Z</time>
      </trkpt>
      <trkpt lat="49.97093" lon="2.32655">
        <ele>96.8</ele>
        <time>2023-12-27T15:10:30Z</time>
      </trkpt>
      <trkpt lat="49.97092" lon="2.32655">
        <ele>96.9</ele>
        <time>2023-12-27T15:10:32Z</time>
      </trkpt>
      <trkpt lat="49.97091" lon="2.32654">
        <ele>96.9</ele>
        <time>2023-12-27T15:10:33Z</time>
      </trkpt>
      <trkpt lat="49.9709" lon="2.32654">
        <ele>96.9</ele>
        <time>2023-12-27T15:10:34Z</time>
      </trkpt>
      <trkpt lat="49.97089" lon="2.32653">
        <ele>96.9</ele>
        <time>2023-12-27T15:10:35Z</time>
      </trkpt>
      <trkpt lat="49.97088" lon="2.32653">
        <ele>96.9</ele>
        <time>2023-12-27T15:10:36Z</time>
      </trkpt>
      <trkpt lat="49.97087" lon="2.32653">
        <ele>96.9</ele>
        <time>2023-12-27T15:10:37Z</time>
      </trkpt>
      <trkpt lat="49.97086" lon="2.32652">
        <ele>96.9</ele>
        <time>2023-12-27T15:10:39Z</time>
      </trkpt>
      <trkpt lat="49.97084" lon="2.32652">
        <ele>97</ele>
        <time>2023-12-27T15:10:40Z</time>
      </trkpt>
      <trkpt lat="49.97083" lon="2.32652">
        <ele>97</ele>
        <time>2023-12-27T15:10:41Z</time>
      </trkpt>
      <trkpt lat="49.97082" lon="2.32651">
        <ele>97</ele>
        <time>2023-12-27T15:10:42Z</time>
      </trkpt>
      <trkpt lat="49.97081" lon="2.32651">
        <ele>97</ele>
        <time>2023-12-27T15:10:43Z</time>
      </trkpt>
      <trkpt lat="49.9708" lon="2.32651">
        <ele>97</ele>
        <time>2023-12-27T15:10:44Z</time>
      </trkpt>
      <trkpt lat="49.97079" lon="2.3265">
        <ele>97</ele>
        <time>2023-12-27T15:10:46Z</time>
      </trkpt>
      <trkpt lat="49.97077" lon="2.32648">
        <ele>97.1</ele>
        <time>2023-12-27T15:10:47Z</time>
      </trkpt>
      <trkpt lat="49.97076" lon="2.32648">
        <ele>97.1</ele>
        <time>2023-12-27T15:10:48Z</time>
      </trkpt>
      <trkpt lat="49.97075" lon="2.32648">
        <ele>97.1</ele>
        <time>2023-12-27T15:10:49Z</time>
      </trkpt>
      <trkpt lat="49.97074" lon="2.32647">
        <ele>97.1</ele>
        <time>2023-12-27T15:10:50Z</time>
      </trkpt>
      <trkpt lat="49.97073" lon="2.32647">
        <ele>97.1</ele>
        <time>2023-12-27T15:10:51Z</time>
      </trkpt>
      <trkpt lat="49.97071" lon="2.32647">
        <ele>97.1</ele>
        <time>2023-12-27T15:10:53Z</time>
      </trkpt>
      <trkpt lat="49.97069" lon="2.32647">
        <ele>97.2</ele>
        <time>2023-12-27T15:10:54Z</time>
      </trkpt>
      <trkpt lat="49.97068" lon="2.32647">
        <ele>97.2</ele>
        <time>2023-12-27T15:10:55Z</time>
      </trkpt>
      <trkpt lat="49.97068" lon="2.32647">
        <ele>97.2</ele>
        <time>2023-12-27T15:10:56Z</time>
      </trkpt>
      <trkpt lat="49.97066" lon="2.32646">
        <ele>97.2</ele>
        <time>2023-12-27T15:10:57Z</time>
      </trkpt>
      <trkpt lat="49.97065" lon="2.32646">
        <ele>97.2</ele>
        <time>2023-12-27T15:10:58Z</time>
      </trkpt>
      <trkpt lat="49.97062" lon="2.32646">
        <ele>97.3</ele>
        <time>2023-12-27T15:10:59Z</time>
      </trkpt>
      <trkpt lat="49.97061" lon="2.32646">
        <ele>97.3</ele>
        <time>2023-12-27T15:11:01Z</time>
      </trkpt>
      <trkpt lat="49.9706" lon="2.32646">
        <ele>97.3</ele>
        <time>2023-12-27T15:11:02Z</time>
      </trkpt>
      <trkpt lat="49.97059" lon="2.32646">
        <ele>97.3</ele>
        <time>2023-12-27T15:11:03Z</time>
      </trkpt>
      <trkpt lat="49.97058" lon="2.32646">
        <ele>97.3</ele>
        <time>2023-12-27T15:11:04Z</time>
      </trkpt>
      <trkpt lat="49.97057" lon="2.32646">
        <ele>97.3</ele>
        <time>2023-12-27T15:11:05Z</time>
      </trkpt>
      <trkpt lat="49.97056" lon="2.32646">
        <ele>97.3</ele>
        <time>2023-12-27T15:11:06Z</time>
      </trkpt>
      <trkpt lat="49.97055" lon="2.32647">
        <ele>97.3</ele>
        <time>2023-12-27T15:11:08Z</time>
      </trkpt>
      <trkpt lat="49.97052" lon="2.32647">
        <ele>97.4</ele>
        <time>2023-12-27T15:11:09Z</time>
      </trkpt>
      <trkpt lat="49.97052" lon="2.32647">
        <ele>97.4</ele>
        <time>2023-12-27T15:11:10Z</time>
      </trkpt>
      <trkpt lat="49.97051" lon="2.32647">
        <ele>97.4</ele>
        <time>2023-12-27T15:11:11Z</time>
      </trkpt>
      <trkpt lat="49.97049" lon="2.32647">
        <ele>97.4</ele>
        <time>2023-12-27T15:11:12Z</time>
      </trkpt>
      <trkpt lat="49.97048" lon="2.32647">
        <ele>97.4</ele>
        <time>2023-12-27T15:11:13Z</time>
      </trkpt>
      <trkpt lat="49.97047" lon="2.32647">
        <ele>97.4</ele>
        <time>2023-12-27T15:11:14Z</time>
      </trkpt>
      <trkpt lat="49.97045" lon="2.32647">
        <ele>97.4</ele>
        <time>2023-12-27T15:11:16Z</time>
      </trkpt>
      <trkpt lat="49.97044" lon="2.32647">
        <ele>97.4</ele>
        <time>2023-12-27T15:11:17Z</time>
      </trkpt>
      <trkpt lat="49.97043" lon="2.32647">
        <ele>97.4</ele>
        <time>2023-12-27T15:11:18Z</time>
      </trkpt>
      <trkpt lat="49.97042" lon="2.32646">
        <ele>97.5</ele>
        <time>2023-12-27T15:11:19Z</time>
      </trkpt>
      <trkpt lat="49.97041" lon="2.32646">
        <ele>97.5</ele>
        <time>2023-12-27T15:11:20Z</time>
      </trkpt>
      <trkpt lat="49.97039" lon="2.32646">
        <ele>97.5</ele>
        <time>2023-12-27T15:11:21Z</time>
      </trkpt>
      <trkpt lat="49.97038" lon="2.32646">
        <ele>97.5</ele>
        <time>2023-12-27T15:11:22Z</time>
      </trkpt>
      <trkpt lat="49.97037" lon="2.32646">
        <ele>97.5</ele>
        <time>2023-12-27T15:11:23Z</time>
      </trkpt>
      <trkpt lat="49.97036" lon="2.32646">
        <ele>97.5</ele>
        <time>2023-12-27T15:11:25Z</time>
      </trkpt>
      <trkpt lat="49.97033" lon="2.32646">
        <ele>97.5</ele>
        <time>2023-12-27T15:11:26Z</time>
      </trkpt>
      <trkpt lat="49.97033" lon="2.32646">
        <ele>97.5</ele>
        <time>2023-12-27T15:11:27Z</time>
      </trkpt>
      <trkpt lat="49.97032" lon="2.32646">
        <ele>97.5</ele>
        <time>2023-12-27T15:11:28Z</time>
      </trkpt>
      <trkpt lat="49.9703" lon="2.32647">
        <ele>97.6</ele>
        <time>2023-12-27T15:11:29Z</time>
      </trkpt>
      <trkpt lat="49.97029" lon="2.32647">
        <ele>97.6</ele>
        <time>2023-12-27T15:11:30Z</time>
      </trkpt>
      <trkpt lat="49.97028" lon="2.32647">
        <ele>97.6</ele>
        <time>2023-12-27T15:11:31Z</time>
      </trkpt>
      <trkpt lat="49.97025" lon="2.32647">
        <ele>97.6</ele>
        <time>2023-12-27T15:11:32Z</time>
      </trkpt>
      <trkpt lat="49.97024" lon="2.32647">
        <ele>97.6</ele>
        <time>2023-12-27T15:11:34Z</time>
      </trkpt>
      <trkpt lat="49.97023" lon="2.32647">
        <ele>97.6</ele>
        <time>2023-12-27T15:11:35Z</time>
      </trkpt>
      <trkpt lat="49.97022" lon="2.32647">
        <ele>97.6</ele>
        <time>2023-12-27T15:11:36Z</time>
      </trkpt>
      <trkpt lat="49.97021" lon="2.32647">
        <ele>97.7</ele>
        <time>2023-12-27T15:11:37Z</time>
      </trkpt>
      <trkpt lat="49.9702" lon="2.32647">
        <ele>97.7</ele>
        <time>2023-12-27T15:11:38Z</time>
      </trkpt>
      <trkpt lat="49.97018" lon="2.32646">
        <ele>97.7</ele>
        <time>2023-12-27T15:11:39Z</time>
      </trkpt>
      <trkpt lat="49.97016" lon="2.32646">
        <ele>97.8</ele>
        <time>2023-12-27T15:11:40Z</time>
      </trkpt>
      <trkpt lat="49.97015" lon="2.32646">
        <ele>97.8</ele>
        <time>2023-12-27T15:11:42Z</time>
      </trkpt>
      <trkpt lat="49.97014" lon="2.32646">
        <ele>97.8</ele>
        <time>2023-12-27T15:11:43Z</time>
      </trkpt>
      <trkpt lat="49.97013" lon="2.32646">
        <ele>97.8</ele>
        <time>2023-12-27T15:11:44Z</time>
      </trkpt>
      <trkpt lat="49.97012" lon="2.32646">
        <ele>97.8</ele>
        <time>2023-12-27T15:11:45Z</time>
      </trkpt>
      <trkpt lat="49.9701" lon="2.32646">
        <ele>97.9</ele>
        <time>2023-12-27T15:11:46Z</time>
      </trkpt>
      <trkpt lat="49.97009" lon="2.32646">
        <ele>97.9</ele>
        <time>2023-12-27T15:11:47Z</time>
      </trkpt>
      <trkpt lat="49.97008" lon="2.32646">
        <ele>97.9</ele>
        <time>2023-12-27T15:11:49Z</time>
      </trkpt>
      <trkpt lat="49.97007" lon="2.32646">
        <ele>97.9</ele>
        <time>2023-12-27T15:11:50Z</time>
      </trkpt>
      <trkpt lat="49.97006" lon="2.32646">
        <ele>97.9</ele>
        <time>2023-12-27T15:11:51Z</time>
      </trkpt>
      <trkpt lat="49.97005" lon="2.32645">
        <ele>98</ele>
        <time>2023-12-27T15:11:52Z</time>
      </trkpt>
      <trkpt lat="49.97004" lon="2.32645">
        <ele>98</ele>
        <time>2023-12-27T15:11:53Z</time>
      </trkpt>
      <trkpt lat="49.97003" lon="2.32645">
        <ele>98</ele>
        <time>2023-12-27T15:11:54Z</time>
      </trkpt>
      <trkpt lat="49.97002" lon="2.32645">
        <ele>98</ele>
        <time>2023-12-27T15:11:55Z</time>
      </trkpt>
      <trkpt lat="49.97" lon="2.32644">
        <ele>98</ele>
        <time>2023-12-27T15:11:57Z</time>
      </trkpt>
      <trkpt lat="49.96999" lon="2.32644">
        <ele>98.1</ele>
        <time>2023-12-27T15:11:58Z</time>
      </trkpt>
      <trkpt lat="49.96998" lon="2.32644">
        <ele>98.1</ele>
        <time>2023-12-27T15:11:59Z</time>
      </trkpt>
      <trkpt lat="49.96997" lon="2.32644">
        <ele>98.1</ele>
        <time>2023-12-27T15:12:00Z</time>
      </trkpt>
      <trkpt lat="49.96996" lon="2.32644">
        <ele>98.1</ele>
        <time>2023-12-27T15:12:01Z</time>
      </trkpt>
      <trkpt lat="49.96995" lon="2.32644">
        <ele>98.1</ele>
        <time>2023-12-27T15:12:02Z</time>
      </trkpt>
      <trkpt lat="49.96993" lon="2.32643">
        <ele>98.2</ele>
        <time>2023-12-27T15:12:03Z</time>
      </trkpt>
      <trkpt lat="49.96992" lon="2.32643">
        <ele>98.2</ele>
        <time>2023-12-27T15:12:05Z</time>
      </trkpt>
      <trkpt lat="49.96991" lon="2.32643">
        <ele>98.2</ele>
        <time>2023-12-27T15:12:06Z</time>
      </trkpt>
      <trkpt lat="49.96989" lon="2.32643">
        <ele>98.3</ele>
        <time>2023-12-27T15:12:07Z</time>
      </trkpt>
      <trkpt lat="49.96988" lon="2.32643">
        <ele>98.3</ele>
        <time>2023-12-27T15:12:08Z</time>
      </trkpt>
      <trkpt lat="49.96987" lon="2.32643">
        <ele>98.3</ele>
        <time>2023-12-27T15:12:09Z</time>
      </trkpt>
      <trkpt lat="49.96986" lon="2.32643">
        <ele>98.4</ele>
        <time>2023-12-27T15:12:10Z</time>
      </trkpt>
      <trkpt lat="49.96985" lon="2.32643">
        <ele>98.4</ele>
        <time>2023-12-27T15:12:11Z</time>
      </trkpt>
      <trkpt lat="49.96983" lon="2.32643">
        <ele>98.4</ele>
        <time>2023-12-27T15:12:13Z</time>
      </trkpt>
      <trkpt lat="49.96982" lon="2.32643">
        <ele>98.5</ele>
        <time>2023-12-27T15:12:14Z</time>
      </trkpt>
      <trkpt lat="49.9698" lon="2.32643">
        <ele>98.5</ele>
        <time>2023-12-27T15:12:15Z</time>
      </trkpt>
      <trkpt lat="49.96979" lon="2.32643">
        <ele>98.6</ele>
        <time>2023-12-27T15:12:16Z</time>
      </trkpt>
      <trkpt lat="49.96978" lon="2.32643">
        <ele>98.6</ele>
        <time>2023-12-27T15:12:17Z</time>
      </trkpt>
      <trkpt lat="49.96977" lon="2.32642">
        <ele>98.6</ele>
        <time>2023-12-27T15:12:18Z</time>
      </trkpt>
      <trkpt lat="49.96975" lon="2.32642">
        <ele>98.7</ele>
        <time>2023-12-27T15:12:19Z</time>
      </trkpt>
      <trkpt lat="49.96974" lon="2.32642">
        <ele>98.7</ele>
        <time>2023-12-27T15:12:21Z</time>
      </trkpt>
      <trkpt lat="49.96972" lon="2.32641">
        <ele>98.8</ele>
        <time>2023-12-27T15:12:22Z</time>
      </trkpt>
      <trkpt lat="49.96971" lon="2.32641">
        <ele>98.8</ele>
        <time>2023-12-27T15:12:23Z</time>
      </trkpt>
      <trkpt lat="49.9697" lon="2.32641">
        <ele>98.8</ele>
        <time>2023-12-27T15:12:24Z</time>
      </trkpt>
      <trkpt lat="49.96969" lon="2.32641">
        <ele>98.9</ele>
        <time>2023-12-27T15:12:25Z</time>
      </trkpt>
      <trkpt lat="49.96967" lon="2.3264">
        <ele>98.9</ele>
        <time>2023-12-27T15:12:26Z</time>
      </trkpt>
      <trkpt lat="49.96965" lon="2.32639">
        <ele>99</ele>
        <time>2023-12-27T15:12:28Z</time>
      </trkpt>
      <trkpt lat="49.96965" lon="2.32639">
        <ele>99.1</ele>
        <time>2023-12-27T15:12:29Z</time>
      </trkpt>
      <trkpt lat="49.96964" lon="2.32638">
        <ele>99.1</ele>
        <time>2023-12-27T15:12:30Z</time>
      </trkpt>
      <trkpt lat="49.96962" lon="2.32638">
        <ele>99.2</ele>
        <time>2023-12-27T15:12:31Z</time>
      </trkpt>
      <trkpt lat="49.96961" lon="2.32637">
        <ele>99.2</ele>
        <time>2023-12-27T15:12:32Z</time>
      </trkpt>
      <trkpt lat="49.9696" lon="2.32637">
        <ele>99.2</ele>
        <time>2023-12-27T15:12:33Z</time>
      </trkpt>
      <trkpt lat="49.96959" lon="2.32636">
        <ele>99.3</ele>
        <time>2023-12-27T15:12:35Z</time>
      </trkpt>
      <trkpt lat="49.96958" lon="2.32636">
        <ele>99.3</ele>
        <time>2023-12-27T15:12:36Z</time>
      </trkpt>
      <trkpt lat="49.96957" lon="2.32635">
        <ele>99.4</ele>
        <time>2023-12-27T15:12:37Z</time>
      </trkpt>
      <trkpt lat="49.96956" lon="2.32634">
        <ele>99.4</ele>
        <time>2023-12-27T15:12:38Z</time>
      </trkpt>
      <trkpt lat="49.96955" lon="2.32634">
        <ele>99.4</ele>
        <time>2023-12-27T15:12:39Z</time>
      </trkpt>
      <trkpt lat="49.96954" lon="2.32633">
        <ele>99.5</ele>
        <time>2023-12-27T15:12:40Z</time>
      </trkpt>
      <trkpt lat="49.96952" lon="2.32632">
        <ele>99.6</ele>
        <time>2023-12-27T15:12:42Z</time>
      </trkpt>
      <trkpt lat="49.96951" lon="2.32631">
        <ele>99.6</ele>
        <time>2023-12-27T15:12:43Z</time>
      </trkpt>
      <trkpt lat="49.9695" lon="2.32631">
        <ele>99.6</ele>
        <time>2023-12-27T15:12:44Z</time>
      </trkpt>
      <trkpt lat="49.96949" lon="2.3263">
        <ele>99.7</ele>
        <time>2023-12-27T15:12:45Z</time>
      </trkpt>
      <trkpt lat="49.96948" lon="2.32629">
        <ele>99.7</ele>
        <time>2023-12-27T15:12:46Z</time>
      </trkpt>
      <trkpt lat="49.96947" lon="2.32628">
        <ele>99.8</ele>
        <time>2023-12-27T15:12:47Z</time>
      </trkpt>
      <trkpt lat="49.96945" lon="2.32628">
        <ele>99.8</ele>
        <time>2023-12-27T15:12:48Z</time>
      </trkpt>
      <trkpt lat="49.96944" lon="2.32628">
        <ele>99.9</ele>
        <time>2023-12-27T15:12:50Z</time>
      </trkpt>
      <trkpt lat="49.96943" lon="2.32627">
        <ele>99.9</ele>
        <time>2023-12-27T15:12:51Z</time>
      </trkpt>
      <trkpt lat="49.96942" lon="2.32627">
        <ele>100</ele>
        <time>2023-12-27T15:12:52Z</time>
      </trkpt>
      <trkpt lat="49.96941" lon="2.32627">
        <ele>100</ele>
        <time>2023-12-27T15:12:53Z</time>
      </trkpt>
      <trkpt lat="49.96939" lon="2.32627">
        <ele>100</ele>
        <time>2023-12-27T15:12:54Z</time>
      </trkpt>
      <trkpt lat="49.96938" lon="2.32627">
        <ele>100.1</ele>
        <time>2023-12-27T15:12:55Z</time>
      </trkpt>
      <trkpt lat="49.96936" lon="2.32626">
        <ele>100.1</ele>
        <time>2023-12-27T15:12:57Z</time>
      </trkpt>
      <trkpt lat="49.96935" lon="2.32626">
        <ele>100.2</ele>
        <time>2023-12-27T15:12:58Z</time>
      </trkpt>
      <trkpt lat="49.96933" lon="2.32626">
        <ele>100.3</ele>
        <time>2023-12-27T15:12:59Z</time>
      </trkpt>
      <trkpt lat="49.96932" lon="2.32625">
        <ele>100.3</ele>
        <time>2023-12-27T15:13:00Z</time>
      </trkpt>
      <trkpt lat="49.96931" lon="2.32625">
        <ele>100.3</ele>
        <time>2023-12-27T15:13:01Z</time>
      </trkpt>
      <trkpt lat="49.96929" lon="2.32624">
        <ele>100.4</ele>
        <time>2023-12-27T15:13:02Z</time>
      </trkpt>
      <trkpt lat="49.96928" lon="2.32624">
        <ele>100.5</ele>
        <time>2023-12-27T15:13:04Z</time>
      </trkpt>
      <trkpt lat="49.96927" lon="2.32624">
        <ele>100.5</ele>
        <time>2023-12-27T15:13:05Z</time>
      </trkpt>
      <trkpt lat="49.96926" lon="2.32623">
        <ele>100.5</ele>
        <time>2023-12-27T15:13:06Z</time>
      </trkpt>
      <trkpt lat="49.96925" lon="2.32622">
        <ele>100.6</ele>
        <time>2023-12-27T15:13:07Z</time>
      </trkpt>
      <trkpt lat="49.96924" lon="2.32622">
        <ele>100.6</ele>
        <time>2023-12-27T15:13:08Z</time>
      </trkpt>
      <trkpt lat="49.96923" lon="2.32621">
        <ele>100.7</ele>
        <time>2023-12-27T15:13:10Z</time>
      </trkpt>
      <trkpt lat="49.96922" lon="2.3262">
        <ele>100.7</ele>
        <time>2023-12-27T15:13:11Z</time>
      </trkpt>
      <trkpt lat="49.96921" lon="2.3262">
        <ele>100.7</ele>
        <time>2023-12-27T15:13:12Z</time>
      </trkpt>
      <trkpt lat="49.9692" lon="2.32619">
        <ele>100.8</ele>
        <time>2023-12-27T15:13:13Z</time>
      </trkpt>
      <trkpt lat="49.96919" lon="2.32618">
        <ele>100.8</ele>
        <time>2023-12-27T15:13:14Z</time>
      </trkpt>
      <trkpt lat="49.96918" lon="2.32618">
        <ele>100.9</ele>
        <time>2023-12-27T15:13:15Z</time>
      </trkpt>
      <trkpt lat="49.96916" lon="2.32617">
        <ele>100.9</ele>
        <time>2023-12-27T15:13:17Z</time>
      </trkpt>
      <trkpt lat="49.96915" lon="2.32616">
        <ele>101</ele>
        <time>2023-12-27T15:13:18Z</time>
      </trkpt>
      <trkpt lat="49.96913" lon="2.32614">
        <ele>101</ele>
        <time>2023-12-27T15:13:19Z</time>
      </trkpt>
      <trkpt lat="49.96912" lon="2.32613">
        <ele>101.1</ele>
        <time>2023-12-27T15:13:20Z</time>
      </trkpt>
      <trkpt lat="49.96912" lon="2.32613">
        <ele>101.1</ele>
        <time>2023-12-27T15:13:21Z</time>
      </trkpt>
      <trkpt lat="49.9691" lon="2.32612">
        <ele>101.1</ele>
        <time>2023-12-27T15:13:22Z</time>
      </trkpt>
      <trkpt lat="49.96909" lon="2.32611">
        <ele>101.2</ele>
        <time>2023-12-27T15:13:24Z</time>
      </trkpt>
      <trkpt lat="49.96908" lon="2.32609">
        <ele>101.2</ele>
        <time>2023-12-27T15:13:25Z</time>
      </trkpt>
      <trkpt lat="49.96907" lon="2.32608">
        <ele>101.3</ele>
        <time>2023-12-27T15:13:26Z</time>
      </trkpt>
      <trkpt lat="49.96905" lon="2.32607">
        <ele>101.3</ele>
        <time>2023-12-27T15:13:27Z</time>
      </trkpt>
      <trkpt lat="49.96904" lon="2.32606">
        <ele>101.4</ele>
        <time>2023-12-27T15:13:28Z</time>
      </trkpt>
      <trkpt lat="49.96903" lon="2.32606">
        <ele>101.4</ele>
        <time>2023-12-27T15:13:29Z</time>
      </trkpt>
      <trkpt lat="49.96902" lon="2.32605">
        <ele>101.4</ele>
        <time>2023-12-27T15:13:31Z</time>
      </trkpt>
      <trkpt lat="49.969" lon="2.32604">
        <ele>101.5</ele>
        <time>2023-12-27T15:13:32Z</time>
      </trkpt>
      <trkpt lat="49.96899" lon="2.32603">
        <ele>101.5</ele>
        <time>2023-12-27T15:13:33Z</time>
      </trkpt>
      <trkpt lat="49.96897" lon="2.32602">
        <ele>101.6</ele>
        <time>2023-12-27T15:13:34Z</time>
      </trkpt>
      <trkpt lat="49.96896" lon="2.32601">
        <ele>101.6</ele>
        <time>2023-12-27T15:13:35Z</time>
      </trkpt>
      <trkpt lat="49.96896" lon="2.326">
        <ele>101.6</ele>
        <time>2023-12-27T15:13:36Z</time>
      </trkpt>
      <trkpt lat="49.96894" lon="2.32599">
        <ele>101.7</ele>
        <time>2023-12-27T15:13:38Z</time>
      </trkpt>
      <trkpt lat="49.96893" lon="2.32599">
        <ele>101.7</ele>
        <time>2023-12-27T15:13:39Z</time>
      </trkpt>
      <trkpt lat="49.96892" lon="2.32598">
        <ele>101.8</ele>
        <time>2023-12-27T15:13:40Z</time>
      </trkpt>
      <trkpt lat="49.96891" lon="2.32598">
        <ele>101.8</ele>
        <time>2023-12-27T15:13:41Z</time>
      </trkpt>
      <trkpt lat="49.9689" lon="2.32597">
        <ele>101.8</ele>
        <time>2023-12-27T15:13:42Z</time>
      </trkpt>
      <trkpt lat="49.96889" lon="2.32597">
        <ele>101.9</ele>
        <time>2023-12-27T15:13:43Z</time>
      </trkpt>
      <trkpt lat="49.96887" lon="2.32596">
        <ele>101.9</ele>
        <time>2023-12-27T15:13:45Z</time>
      </trkpt>
      <trkpt lat="49.96886" lon="2.32596">
        <ele>101.9</ele>
        <time>2023-12-27T15:13:46Z</time>
      </trkpt>
      <trkpt lat="49.96885" lon="2.32595">
        <ele>102</ele>
        <time>2023-12-27T15:13:47Z</time>
      </trkpt>
      <trkpt lat="49.96884" lon="2.32595">
        <ele>102</ele>
        <time>2023-12-27T15:13:48Z</time>
      </trkpt>
      <trkpt lat="49.96883" lon="2.32595">
        <ele>102</ele>
        <time>2023-12-27T15:13:49Z</time>
      </trkpt>
      <trkpt lat="49.96882" lon="2.32595">
        <ele>102</ele>
        <time>2023-12-27T15:13:50Z</time>
      </trkpt>
      <trkpt lat="49.9688" lon="2.32594">
        <ele>102.1</ele>
        <time>2023-12-27T15:13:52Z</time>
      </trkpt>
      <trkpt lat="49.9688" lon="2.32594">
        <ele>102.1</ele>
        <time>2023-12-27T15:13:53Z</time>
      </trkpt>
      <trkpt lat="49.96879" lon="2.32593">
        <ele>102.1</ele>
        <time>2023-12-27T15:13:54Z</time>
      </trkpt>
      <trkpt lat="49.96878" lon="2.32592">
        <ele>102.1</ele>
        <time>2023-12-27T15:13:55Z</time>
      </trkpt>
      <trkpt lat="49.96877" lon="2.32592">
        <ele>102.2</ele>
        <time>2023-12-27T15:13:56Z</time>
      </trkpt>
      <trkpt lat="49.96876" lon="2.32591">
        <ele>102.2</ele>
        <time>2023-12-27T15:13:57Z</time>
      </trkpt>
      <trkpt lat="49.96875" lon="2.3259">
        <ele>102.2</ele>
        <time>2023-12-27T15:13:59Z</time>
      </trkpt>
      <trkpt lat="49.96874" lon="2.3259">
        <ele>102.2</ele>
        <time>2023-12-27T15:14:00Z</time>
      </trkpt>
      <trkpt lat="49.96873" lon="2.32589">
        <ele>102.2</ele>
        <time>2023-12-27T15:14:01Z</time>
      </trkpt>
      <trkpt lat="49.96872" lon="2.32588">
        <ele>102.3</ele>
        <time>2023-12-27T15:14:02Z</time>
      </trkpt>
      <trkpt lat="49.96871" lon="2.32588">
        <ele>102.3</ele>
        <time>2023-12-27T15:14:03Z</time>
      </trkpt>
      <trkpt lat="49.96869" lon="2.32587">
        <ele>102.3</ele>
        <time>2023-12-27T15:14:05Z</time>
      </trkpt>
      <trkpt lat="49.96868" lon="2.32586">
        <ele>102.3</ele>
        <time>2023-12-27T15:14:06Z</time>
      </trkpt>
      <trkpt lat="49.96868" lon="2.32585">
        <ele>102.3</ele>
        <time>2023-12-27T15:14:07Z</time>
      </trkpt>
      <trkpt lat="49.96866" lon="2.32584">
        <ele>102.3</ele>
        <time>2023-12-27T15:14:08Z</time>
      </trkpt>
      <trkpt lat="49.96865" lon="2.32583">
        <ele>102.4</ele>
        <time>2023-12-27T15:14:09Z</time>
      </trkpt>
      <trkpt lat="49.96864" lon="2.32582">
        <ele>102.4</ele>
        <time>2023-12-27T15:14:11Z</time>
      </trkpt>
      <trkpt lat="49.96863" lon="2.32582">
        <ele>102.4</ele>
        <time>2023-12-27T15:14:12Z</time>
      </trkpt>
      <trkpt lat="49.96863" lon="2.32581">
        <ele>102.4</ele>
        <time>2023-12-27T15:14:13Z</time>
      </trkpt>
      <trkpt lat="49.96862" lon="2.32581">
        <ele>102.4</ele>
        <time>2023-12-27T15:14:14Z</time>
      </trkpt>
      <trkpt lat="49.96861" lon="2.3258">
        <ele>102.4</ele>
        <time>2023-12-27T15:14:15Z</time>
      </trkpt>
      <trkpt lat="49.96859" lon="2.32578">
        <ele>102.4</ele>
        <time>2023-12-27T15:14:16Z</time>
      </trkpt>
      <trkpt lat="49.96858" lon="2.32577">
        <ele>102.5</ele>
        <time>2023-12-27T15:14:18Z</time>
      </trkpt>
      <trkpt lat="49.96857" lon="2.32576">
        <ele>102.5</ele>
        <time>2023-12-27T15:14:19Z</time>
      </trkpt>
      <trkpt lat="49.96856" lon="2.32575">
        <ele>102.4</ele>
        <time>2023-12-27T15:14:21Z</time>
      </trkpt>
      <trkpt lat="49.96855" lon="2.32574">
        <ele>102.4</ele>
        <time>2023-12-27T15:14:22Z</time>
      </trkpt>
      <trkpt lat="49.96854" lon="2.32573">
        <ele>102.4</ele>
        <time>2023-12-27T15:14:23Z</time>
      </trkpt>
      <trkpt lat="49.96852" lon="2.32573">
        <ele>102.4</ele>
        <time>2023-12-27T15:14:25Z</time>
      </trkpt>
      <trkpt lat="49.96851" lon="2.32573">
        <ele>102.4</ele>
        <time>2023-12-27T15:14:26Z</time>
      </trkpt>
      <trkpt lat="49.9685" lon="2.32574">
        <ele>102.4</ele>
        <time>2023-12-27T15:14:27Z</time>
      </trkpt>
      <trkpt lat="49.96849" lon="2.32574">
        <ele>102.4</ele>
        <time>2023-12-27T15:14:29Z</time>
      </trkpt>
      <trkpt lat="49.96848" lon="2.32575">
        <ele>102.4</ele>
        <time>2023-12-27T15:14:30Z</time>
      </trkpt>
      <trkpt lat="49.96848" lon="2.32576">
        <ele>102.4</ele>
        <time>2023-12-27T15:14:31Z</time>
      </trkpt>
      <trkpt lat="49.96847" lon="2.32576">
        <ele>102.4</ele>
        <time>2023-12-27T15:14:32Z</time>
      </trkpt>
      <trkpt lat="49.96846" lon="2.32576">
        <ele>102.4</ele>
        <time>2023-12-27T15:14:33Z</time>
      </trkpt>
      <trkpt lat="49.96845" lon="2.32575">
        <ele>102.3</ele>
        <time>2023-12-27T15:14:35Z</time>
      </trkpt>
      <trkpt lat="49.96844" lon="2.32573">
        <ele>102.3</ele>
        <time>2023-12-27T15:14:37Z</time>
      </trkpt>
      <trkpt lat="49.96844" lon="2.32573">
        <ele>102.3</ele>
        <time>2023-12-27T15:14:38Z</time>
      </trkpt>
      <trkpt lat="49.96844" lon="2.32572">
        <ele>102.3</ele>
        <time>2023-12-27T15:14:39Z</time>
      </trkpt>
      <trkpt lat="49.96845" lon="2.32571">
        <ele>102.3</ele>
        <time>2023-12-27T15:14:41Z</time>
      </trkpt>
      <trkpt lat="49.96845" lon="2.32571">
        <ele>102.3</ele>
        <time>2023-12-27T15:14:42Z</time>
      </trkpt>
      <trkpt lat="49.96845" lon="2.32571">
        <ele>102.3</ele>
        <time>2023-12-27T15:14:44Z</time>
      </trkpt>
      <trkpt lat="49.96846" lon="2.32571">
        <ele>102.3</ele>
        <time>2023-12-27T15:14:45Z</time>
      </trkpt>
      <trkpt lat="49.96846" lon="2.32571">
        <ele>102.3</ele>
        <time>2023-12-27T15:14:47Z</time>
      </trkpt>
      <trkpt lat="49.96846" lon="2.32571">
        <ele>102.3</ele>
        <time>2023-12-27T15:14:48Z</time>
      </trkpt>
      <trkpt lat="49.96847" lon="2.32571">
        <ele>102.3</ele>
        <time>2023-12-27T15:14:50Z</time>
      </trkpt>
      <trkpt lat="49.96847" lon="2.32571">
        <ele>102.3</ele>
        <time>2023-12-27T15:14:51Z</time>
      </trkpt>
      <trkpt lat="49.96847" lon="2.32571">
        <ele>102.3</ele>
        <time>2023-12-27T15:14:52Z</time>
      </trkpt>
      <trkpt lat="49.9685" lon="2.32573">
        <ele>102.2</ele>
        <time>2023-12-27T15:17:16Z</time>
      </trkpt>
      <trkpt lat="49.96851" lon="2.32573">
        <ele>102.2</ele>
        <time>2023-12-27T15:17:17Z</time>
      </trkpt>
      <trkpt lat="49.96851" lon="2.32572">
        <ele>102.2</ele>
        <time>2023-12-27T15:17:18Z</time>
      </trkpt>
      <trkpt lat="49.9685" lon="2.32571">
        <ele>102.2</ele>
        <time>2023-12-27T15:17:19Z</time>
      </trkpt>
      <trkpt lat="49.96849" lon="2.3257">
        <ele>102.2</ele>
        <time>2023-12-27T15:17:20Z</time>
      </trkpt>
      <trkpt lat="49.96849" lon="2.32568">
        <ele>102.2</ele>
        <time>2023-12-27T15:17:21Z</time>
      </trkpt>
      <trkpt lat="49.96848" lon="2.32568">
        <ele>102.2</ele>
        <time>2023-12-27T15:17:22Z</time>
      </trkpt>
      <trkpt lat="49.96848" lon="2.32567">
        <ele>102.2</ele>
        <time>2023-12-27T15:17:23Z</time>
      </trkpt>
      <trkpt lat="49.96848" lon="2.32566">
        <ele>102.2</ele>
        <time>2023-12-27T15:17:25Z</time>
      </trkpt>
      <trkpt lat="49.96847" lon="2.32565">
        <ele>102.2</ele>
        <time>2023-12-27T15:17:26Z</time>
      </trkpt>
      <trkpt lat="49.96847" lon="2.32565">
        <ele>102.1</ele>
        <time>2023-12-27T15:17:27Z</time>
      </trkpt>
      <trkpt lat="49.96846" lon="2.32564">
        <ele>102.1</ele>
        <time>2023-12-27T15:17:28Z</time>
      </trkpt>
      <trkpt lat="49.96844" lon="2.32562">
        <ele>102.1</ele>
        <time>2023-12-27T15:17:29Z</time>
      </trkpt>
      <trkpt lat="49.96842" lon="2.3256">
        <ele>102</ele>
        <time>2023-12-27T15:17:31Z</time>
      </trkpt>
      <trkpt lat="49.96841" lon="2.32559">
        <ele>102</ele>
        <time>2023-12-27T15:17:32Z</time>
      </trkpt>
      <trkpt lat="49.9684" lon="2.32557">
        <ele>102</ele>
        <time>2023-12-27T15:17:33Z</time>
      </trkpt>
      <trkpt lat="49.96838" lon="2.32556">
        <ele>101.9</ele>
        <time>2023-12-27T15:17:34Z</time>
      </trkpt>
      <trkpt lat="49.96837" lon="2.32556">
        <ele>101.9</ele>
        <time>2023-12-27T15:17:35Z</time>
      </trkpt>
      <trkpt lat="49.96835" lon="2.32555">
        <ele>101.9</ele>
        <time>2023-12-27T15:17:36Z</time>
      </trkpt>
      <trkpt lat="49.96833" lon="2.32554">
        <ele>101.8</ele>
        <time>2023-12-27T15:17:37Z</time>
      </trkpt>
      <trkpt lat="49.96832" lon="2.32553">
        <ele>101.8</ele>
        <time>2023-12-27T15:17:38Z</time>
      </trkpt>
      <trkpt lat="49.96831" lon="2.32552">
        <ele>101.7</ele>
        <time>2023-12-27T15:17:39Z</time>
      </trkpt>
      <trkpt lat="49.9683" lon="2.32551">
        <ele>101.7</ele>
        <time>2023-12-27T15:17:41Z</time>
      </trkpt>
      <trkpt lat="49.96829" lon="2.3255">
        <ele>101.7</ele>
        <time>2023-12-27T15:17:42Z</time>
      </trkpt>
      <trkpt lat="49.96828" lon="2.32549">
        <ele>101.7</ele>
        <time>2023-12-27T15:17:43Z</time>
      </trkpt>
      <trkpt lat="49.96827" lon="2.32549">
        <ele>101.6</ele>
        <time>2023-12-27T15:17:44Z</time>
      </trkpt>
      <trkpt lat="49.96826" lon="2.32548">
        <ele>101.6</ele>
        <time>2023-12-27T15:17:45Z</time>
      </trkpt>
      <trkpt lat="49.96825" lon="2.32547">
        <ele>101.6</ele>
        <time>2023-12-27T15:17:46Z</time>
      </trkpt>
      <trkpt lat="49.96823" lon="2.32546">
        <ele>101.5</ele>
        <time>2023-12-27T15:17:47Z</time>
      </trkpt>
      <trkpt lat="49.96823" lon="2.32545">
        <ele>101.5</ele>
        <time>2023-12-27T15:17:49Z</time>
      </trkpt>
      <trkpt lat="49.96822" lon="2.32544">
        <ele>101.5</ele>
        <time>2023-12-27T15:17:50Z</time>
      </trkpt>
      <trkpt lat="49.96821" lon="2.32542">
        <ele>101.4</ele>
        <time>2023-12-27T15:17:51Z</time>
      </trkpt>
      <trkpt lat="49.9682" lon="2.32541">
        <ele>101.4</ele>
        <time>2023-12-27T15:17:52Z</time>
      </trkpt>
      <trkpt lat="49.96818" lon="2.32539">
        <ele>101.3</ele>
        <time>2023-12-27T15:17:53Z</time>
      </trkpt>
      <trkpt lat="49.96817" lon="2.32538">
        <ele>101.3</ele>
        <time>2023-12-27T15:17:55Z</time>
      </trkpt>
      <trkpt lat="49.96815" lon="2.32537">
        <ele>101.2</ele>
        <time>2023-12-27T15:17:56Z</time>
      </trkpt>
      <trkpt lat="49.96813" lon="2.32534">
        <ele>101.1</ele>
        <time>2023-12-27T15:17:57Z</time>
      </trkpt>
      <trkpt lat="49.96812" lon="2.32533">
        <ele>101.1</ele>
        <time>2023-12-27T15:17:58Z</time>
      </trkpt>
      <trkpt lat="49.96811" lon="2.32532">
        <ele>101</ele>
        <time>2023-12-27T15:17:59Z</time>
      </trkpt>
      <trkpt lat="49.96809" lon="2.32531">
        <ele>101</ele>
        <time>2023-12-27T15:18:00Z</time>
      </trkpt>
      <trkpt lat="49.96808" lon="2.32529">
        <ele>100.9</ele>
        <time>2023-12-27T15:18:01Z</time>
      </trkpt>
      <trkpt lat="49.96807" lon="2.32528">
        <ele>100.9</ele>
        <time>2023-12-27T15:18:02Z</time>
      </trkpt>
      <trkpt lat="49.96806" lon="2.32527">
        <ele>100.8</ele>
        <time>2023-12-27T15:18:03Z</time>
      </trkpt>
      <trkpt lat="49.96805" lon="2.32526">
        <ele>100.8</ele>
        <time>2023-12-27T15:18:04Z</time>
      </trkpt>
      <trkpt lat="49.96803" lon="2.32524">
        <ele>100.7</ele>
        <time>2023-12-27T15:18:06Z</time>
      </trkpt>
      <trkpt lat="49.96802" lon="2.32523">
        <ele>100.6</ele>
        <time>2023-12-27T15:18:07Z</time>
      </trkpt>
      <trkpt lat="49.96801" lon="2.32522">
        <ele>100.6</ele>
        <time>2023-12-27T15:18:08Z</time>
      </trkpt>
      <trkpt lat="49.968" lon="2.32521">
        <ele>100.5</ele>
        <time>2023-12-27T15:18:09Z</time>
      </trkpt>
      <trkpt lat="49.96798" lon="2.3252">
        <ele>100.4</ele>
        <time>2023-12-27T15:18:10Z</time>
      </trkpt>
      <trkpt lat="49.96797" lon="2.32519">
        <ele>100.4</ele>
        <time>2023-12-27T15:18:12Z</time>
      </trkpt>
      <trkpt lat="49.96796" lon="2.32518">
        <ele>100.3</ele>
        <time>2023-12-27T15:18:13Z</time>
      </trkpt>
      <trkpt lat="49.96794" lon="2.32517">
        <ele>100.3</ele>
        <time>2023-12-27T15:18:14Z</time>
      </trkpt>
      <trkpt lat="49.96793" lon="2.32516">
        <ele>100.2</ele>
        <time>2023-12-27T15:18:15Z</time>
      </trkpt>
      <trkpt lat="49.96791" lon="2.32515">
        <ele>100.1</ele>
        <time>2023-12-27T15:18:16Z</time>
      </trkpt>
      <trkpt lat="49.96791" lon="2.32514">
        <ele>100.1</ele>
        <time>2023-12-27T15:18:17Z</time>
      </trkpt>
      <trkpt lat="49.9679" lon="2.32514">
        <ele>100</ele>
        <time>2023-12-27T15:18:18Z</time>
      </trkpt>
      <trkpt lat="49.96788" lon="2.32512">
        <ele>99.9</ele>
        <time>2023-12-27T15:18:19Z</time>
      </trkpt>
      <trkpt lat="49.96787" lon="2.32512">
        <ele>99.9</ele>
        <time>2023-12-27T15:18:20Z</time>
      </trkpt>
      <trkpt lat="49.96787" lon="2.32511">
        <ele>99.8</ele>
        <time>2023-12-27T15:18:21Z</time>
      </trkpt>
      <trkpt lat="49.96785" lon="2.3251">
        <ele>99.7</ele>
        <time>2023-12-27T15:18:22Z</time>
      </trkpt>
      <trkpt lat="49.96784" lon="2.32509">
        <ele>99.7</ele>
        <time>2023-12-27T15:18:24Z</time>
      </trkpt>
      <trkpt lat="49.96783" lon="2.32508">
        <ele>99.7</ele>
        <time>2023-12-27T15:18:25Z</time>
      </trkpt>
      <trkpt lat="49.96781" lon="2.32507">
        <ele>99.6</ele>
        <time>2023-12-27T15:18:26Z</time>
      </trkpt>
      <trkpt lat="49.96781" lon="2.32506">
        <ele>99.5</ele>
        <time>2023-12-27T15:18:27Z</time>
      </trkpt>
      <trkpt lat="49.9678" lon="2.32506">
        <ele>99.5</ele>
        <time>2023-12-27T15:18:28Z</time>
      </trkpt>
      <trkpt lat="49.96778" lon="2.32504">
        <ele>99.4</ele>
        <time>2023-12-27T15:18:29Z</time>
      </trkpt>
      <trkpt lat="49.96777" lon="2.32503">
        <ele>99.4</ele>
        <time>2023-12-27T15:18:31Z</time>
      </trkpt>
      <trkpt lat="49.96777" lon="2.32502">
        <ele>99.3</ele>
        <time>2023-12-27T15:18:32Z</time>
      </trkpt>
      <trkpt lat="49.96775" lon="2.325">
        <ele>99.2</ele>
        <time>2023-12-27T15:18:33Z</time>
      </trkpt>
      <trkpt lat="49.96774" lon="2.32499">
        <ele>99.2</ele>
        <time>2023-12-27T15:18:34Z</time>
      </trkpt>
      <trkpt lat="49.96774" lon="2.32498">
        <ele>99.2</ele>
        <time>2023-12-27T15:18:35Z</time>
      </trkpt>
      <trkpt lat="49.96773" lon="2.32497">
        <ele>99.1</ele>
        <time>2023-12-27T15:18:36Z</time>
      </trkpt>
      <trkpt lat="49.96771" lon="2.32495">
        <ele>99.1</ele>
        <time>2023-12-27T15:18:37Z</time>
      </trkpt>
      <trkpt lat="49.9677" lon="2.32493">
        <ele>99</ele>
        <time>2023-12-27T15:18:39Z</time>
      </trkpt>
      <trkpt lat="49.96769" lon="2.32492">
        <ele>98.9</ele>
        <time>2023-12-27T15:18:40Z</time>
      </trkpt>
      <trkpt lat="49.96769" lon="2.32491">
        <ele>98.9</ele>
        <time>2023-12-27T15:18:41Z</time>
      </trkpt>
      <trkpt lat="49.96767" lon="2.32488">
        <ele>98.8</ele>
        <time>2023-12-27T15:18:42Z</time>
      </trkpt>
      <trkpt lat="49.96767" lon="2.32488">
        <ele>98.8</ele>
        <time>2023-12-27T15:18:43Z</time>
      </trkpt>
      <trkpt lat="49.96766" lon="2.32487">
        <ele>98.8</ele>
        <time>2023-12-27T15:18:44Z</time>
      </trkpt>
      <trkpt lat="49.96764" lon="2.32485">
        <ele>98.7</ele>
        <time>2023-12-27T15:18:46Z</time>
      </trkpt>
      <trkpt lat="49.96764" lon="2.32484">
        <ele>98.6</ele>
        <time>2023-12-27T15:18:47Z</time>
      </trkpt>
      <trkpt lat="49.96763" lon="2.32483">
        <ele>98.6</ele>
        <time>2023-12-27T15:18:48Z</time>
      </trkpt>
      <trkpt lat="49.96761" lon="2.32481">
        <ele>98.5</ele>
        <time>2023-12-27T15:18:49Z</time>
      </trkpt>
      <trkpt lat="49.96761" lon="2.3248">
        <ele>98.5</ele>
        <time>2023-12-27T15:18:50Z</time>
      </trkpt>
      <trkpt lat="49.9676" lon="2.3248">
        <ele>98.4</ele>
        <time>2023-12-27T15:18:51Z</time>
      </trkpt>
      <trkpt lat="49.96758" lon="2.32478">
        <ele>98.4</ele>
        <time>2023-12-27T15:18:52Z</time>
      </trkpt>
      <trkpt lat="49.96758" lon="2.32477">
        <ele>98.3</ele>
        <time>2023-12-27T15:18:53Z</time>
      </trkpt>
      <trkpt lat="49.96757" lon="2.32477">
        <ele>98.3</ele>
        <time>2023-12-27T15:18:54Z</time>
      </trkpt>
      <trkpt lat="49.96756" lon="2.32476">
        <ele>98.2</ele>
        <time>2023-12-27T15:18:55Z</time>
      </trkpt>
      <trkpt lat="49.96755" lon="2.32475">
        <ele>98.2</ele>
        <time>2023-12-27T15:18:56Z</time>
      </trkpt>
      <trkpt lat="49.96754" lon="2.32474">
        <ele>98.1</ele>
        <time>2023-12-27T15:18:57Z</time>
      </trkpt>
      <trkpt lat="49.96753" lon="2.32473">
        <ele>98.1</ele>
        <time>2023-12-27T15:18:58Z</time>
      </trkpt>
      <trkpt lat="49.96753" lon="2.32472">
        <ele>98.1</ele>
        <time>2023-12-27T15:19:00Z</time>
      </trkpt>
      <trkpt lat="49.96752" lon="2.32471">
        <ele>98</ele>
        <time>2023-12-27T15:19:01Z</time>
      </trkpt>
      <trkpt lat="49.96751" lon="2.32471">
        <ele>98</ele>
        <time>2023-12-27T15:19:02Z</time>
      </trkpt>
      <trkpt lat="49.9675" lon="2.3247">
        <ele>97.9</ele>
        <time>2023-12-27T15:19:03Z</time>
      </trkpt>
      <trkpt lat="49.96749" lon="2.32469">
        <ele>97.9</ele>
        <time>2023-12-27T15:19:04Z</time>
      </trkpt>
      <trkpt lat="49.96748" lon="2.32467">
        <ele>97.8</ele>
        <time>2023-12-27T15:19:06Z</time>
      </trkpt>
      <trkpt lat="49.96746" lon="2.32466">
        <ele>97.8</ele>
        <time>2023-12-27T15:19:07Z</time>
      </trkpt>
      <trkpt lat="49.96745" lon="2.32465">
        <ele>97.7</ele>
        <time>2023-12-27T15:19:08Z</time>
      </trkpt>
      <trkpt lat="49.96744" lon="2.32465">
        <ele>97.7</ele>
        <time>2023-12-27T15:19:09Z</time>
      </trkpt>
      <trkpt lat="49.96742" lon="2.32464">
        <ele>97.6</ele>
        <time>2023-12-27T15:19:10Z</time>
      </trkpt>
      <trkpt lat="49.96741" lon="2.32463">
        <ele>97.6</ele>
        <time>2023-12-27T15:19:11Z</time>
      </trkpt>
      <trkpt lat="49.9674" lon="2.32462">
        <ele>97.5</ele>
        <time>2023-12-27T15:19:12Z</time>
      </trkpt>
      <trkpt lat="49.96739" lon="2.32461">
        <ele>97.5</ele>
        <time>2023-12-27T15:19:13Z</time>
      </trkpt>
      <trkpt lat="49.96738" lon="2.3246">
        <ele>97.5</ele>
        <time>2023-12-27T15:19:14Z</time>
      </trkpt>
      <trkpt lat="49.96737" lon="2.32459">
        <ele>97.4</ele>
        <time>2023-12-27T15:19:16Z</time>
      </trkpt>
      <trkpt lat="49.96736" lon="2.32459">
        <ele>97.4</ele>
        <time>2023-12-27T15:19:17Z</time>
      </trkpt>
      <trkpt lat="49.96734" lon="2.32458">
        <ele>97.3</ele>
        <time>2023-12-27T15:19:18Z</time>
      </trkpt>
      <trkpt lat="49.96733" lon="2.32457">
        <ele>97.3</ele>
        <time>2023-12-27T15:19:19Z</time>
      </trkpt>
      <trkpt lat="49.96732" lon="2.32456">
        <ele>97.3</ele>
        <time>2023-12-27T15:19:20Z</time>
      </trkpt>
      <trkpt lat="49.96731" lon="2.32456">
        <ele>97.2</ele>
        <time>2023-12-27T15:19:21Z</time>
      </trkpt>
      <trkpt lat="49.96729" lon="2.32455">
        <ele>97.2</ele>
        <time>2023-12-27T15:19:23Z</time>
      </trkpt>
      <trkpt lat="49.96728" lon="2.32454">
        <ele>97.2</ele>
        <time>2023-12-27T15:19:24Z</time>
      </trkpt>
      <trkpt lat="49.96727" lon="2.32453">
        <ele>97.1</ele>
        <time>2023-12-27T15:19:25Z</time>
      </trkpt>
      <trkpt lat="49.96725" lon="2.32451">
        <ele>97.1</ele>
        <time>2023-12-27T15:19:26Z</time>
      </trkpt>
      <trkpt lat="49.96724" lon="2.32451">
        <ele>97.1</ele>
        <time>2023-12-27T15:19:27Z</time>
      </trkpt>
      <trkpt lat="49.96723" lon="2.3245">
        <ele>97</ele>
        <time>2023-12-27T15:19:28Z</time>
      </trkpt>
      <trkpt lat="49.96721" lon="2.32448">
        <ele>97</ele>
        <time>2023-12-27T15:19:30Z</time>
      </trkpt>
      <trkpt lat="49.9672" lon="2.32448">
        <ele>97</ele>
        <time>2023-12-27T15:19:31Z</time>
      </trkpt>
      <trkpt lat="49.96719" lon="2.32447">
        <ele>96.9</ele>
        <time>2023-12-27T15:19:32Z</time>
      </trkpt>
      <trkpt lat="49.96717" lon="2.32446">
        <ele>96.9</ele>
        <time>2023-12-27T15:19:33Z</time>
      </trkpt>
      <trkpt lat="49.96716" lon="2.32445">
        <ele>96.9</ele>
        <time>2023-12-27T15:19:35Z</time>
      </trkpt>
      <trkpt lat="49.96715" lon="2.32444">
        <ele>96.9</ele>
        <time>2023-12-27T15:19:36Z</time>
      </trkpt>
      <trkpt lat="49.96714" lon="2.32443">
        <ele>96.8</ele>
        <time>2023-12-27T15:19:37Z</time>
      </trkpt>
      <trkpt lat="49.96712" lon="2.32443">
        <ele>96.8</ele>
        <time>2023-12-27T15:19:38Z</time>
      </trkpt>
      <trkpt lat="49.9671" lon="2.32441">
        <ele>96.8</ele>
        <time>2023-12-27T15:19:39Z</time>
      </trkpt>
      <trkpt lat="49.9671" lon="2.32441">
        <ele>96.8</ele>
        <time>2023-12-27T15:19:40Z</time>
      </trkpt>
      <trkpt lat="49.96709" lon="2.3244">
        <ele>96.8</ele>
        <time>2023-12-27T15:19:41Z</time>
      </trkpt>
      <trkpt lat="49.96708" lon="2.32439">
        <ele>96.7</ele>
        <time>2023-12-27T15:19:42Z</time>
      </trkpt>
      <trkpt lat="49.96706" lon="2.32438">
        <ele>96.7</ele>
        <time>2023-12-27T15:19:43Z</time>
      </trkpt>
      <trkpt lat="49.96705" lon="2.32437">
        <ele>96.7</ele>
        <time>2023-12-27T15:19:45Z</time>
      </trkpt>
      <trkpt lat="49.96704" lon="2.32435">
        <ele>96.7</ele>
        <time>2023-12-27T15:19:46Z</time>
      </trkpt>
      <trkpt lat="49.96702" lon="2.32434">
        <ele>96.6</ele>
        <time>2023-12-27T15:19:47Z</time>
      </trkpt>
      <trkpt lat="49.96702" lon="2.32433">
        <ele>96.6</ele>
        <time>2023-12-27T15:19:48Z</time>
      </trkpt>
      <trkpt lat="49.96701" lon="2.32432">
        <ele>96.6</ele>
        <time>2023-12-27T15:19:49Z</time>
      </trkpt>
      <trkpt lat="49.96699" lon="2.3243">
        <ele>96.6</ele>
        <time>2023-12-27T15:19:50Z</time>
      </trkpt>
      <trkpt lat="49.96699" lon="2.32429">
        <ele>96.6</ele>
        <time>2023-12-27T15:19:51Z</time>
      </trkpt>
      <trkpt lat="49.96698" lon="2.32429">
        <ele>96.5</ele>
        <time>2023-12-27T15:19:52Z</time>
      </trkpt>
      <trkpt lat="49.96697" lon="2.32428">
        <ele>96.5</ele>
        <time>2023-12-27T15:19:53Z</time>
      </trkpt>
      <trkpt lat="49.96696" lon="2.32427">
        <ele>96.5</ele>
        <time>2023-12-27T15:19:54Z</time>
      </trkpt>
      <trkpt lat="49.96695" lon="2.32426">
        <ele>96.5</ele>
        <time>2023-12-27T15:19:56Z</time>
      </trkpt>
      <trkpt lat="49.96694" lon="2.32425">
        <ele>96.5</ele>
        <time>2023-12-27T15:19:57Z</time>
      </trkpt>
      <trkpt lat="49.96693" lon="2.32424">
        <ele>96.5</ele>
        <time>2023-12-27T15:19:58Z</time>
      </trkpt>
      <trkpt lat="49.96692" lon="2.32424">
        <ele>96.4</ele>
        <time>2023-12-27T15:19:59Z</time>
      </trkpt>
      <trkpt lat="49.96691" lon="2.32423">
        <ele>96.4</ele>
        <time>2023-12-27T15:20:00Z</time>
      </trkpt>
      <trkpt lat="49.9669" lon="2.32422">
        <ele>96.4</ele>
        <time>2023-12-27T15:20:01Z</time>
      </trkpt>
      <trkpt lat="49.96689" lon="2.32421">
        <ele>96.4</ele>
        <time>2023-12-27T15:20:03Z</time>
      </trkpt>
      <trkpt lat="49.96688" lon="2.3242">
        <ele>96.4</ele>
        <time>2023-12-27T15:20:04Z</time>
      </trkpt>
      <trkpt lat="49.96687" lon="2.3242">
        <ele>96.3</ele>
        <time>2023-12-27T15:20:05Z</time>
      </trkpt>
      <trkpt lat="49.96685" lon="2.32419">
        <ele>96.3</ele>
        <time>2023-12-27T15:20:06Z</time>
      </trkpt>
      <trkpt lat="49.96684" lon="2.32418">
        <ele>96.3</ele>
        <time>2023-12-27T15:20:07Z</time>
      </trkpt>
      <trkpt lat="49.96683" lon="2.32418">
        <ele>96.3</ele>
        <time>2023-12-27T15:20:08Z</time>
      </trkpt>
      <trkpt lat="49.96681" lon="2.32417">
        <ele>96.3</ele>
        <time>2023-12-27T15:20:09Z</time>
      </trkpt>
      <trkpt lat="49.9668" lon="2.32416">
        <ele>96.2</ele>
        <time>2023-12-27T15:20:11Z</time>
      </trkpt>
      <trkpt lat="49.96679" lon="2.32415">
        <ele>96.2</ele>
        <time>2023-12-27T15:20:12Z</time>
      </trkpt>
      <trkpt lat="49.96677" lon="2.32415">
        <ele>96.2</ele>
        <time>2023-12-27T15:20:13Z</time>
      </trkpt>
      <trkpt lat="49.96675" lon="2.32414">
        <ele>96.2</ele>
        <time>2023-12-27T15:20:14Z</time>
      </trkpt>
      <trkpt lat="49.96675" lon="2.32413">
        <ele>96.2</ele>
        <time>2023-12-27T15:20:15Z</time>
      </trkpt>
      <trkpt lat="49.96674" lon="2.32413">
        <ele>96.2</ele>
        <time>2023-12-27T15:20:16Z</time>
      </trkpt>
      <trkpt lat="49.96672" lon="2.32412">
        <ele>96.1</ele>
        <time>2023-12-27T15:20:17Z</time>
      </trkpt>
      <trkpt lat="49.96671" lon="2.32411">
        <ele>96.1</ele>
        <time>2023-12-27T15:20:18Z</time>
      </trkpt>
      <trkpt lat="49.9667" lon="2.32411">
        <ele>96.1</ele>
        <time>2023-12-27T15:20:19Z</time>
      </trkpt>
      <trkpt lat="49.96669" lon="2.3241">
        <ele>96.1</ele>
        <time>2023-12-27T15:20:21Z</time>
      </trkpt>
      <trkpt lat="49.96668" lon="2.32409">
        <ele>96.1</ele>
        <time>2023-12-27T15:20:22Z</time>
      </trkpt>
      <trkpt lat="49.96666" lon="2.32407">
        <ele>96.1</ele>
        <time>2023-12-27T15:20:23Z</time>
      </trkpt>
      <trkpt lat="49.96665" lon="2.32407">
        <ele>96.1</ele>
        <time>2023-12-27T15:20:24Z</time>
      </trkpt>
      <trkpt lat="49.96664" lon="2.32406">
        <ele>96.1</ele>
        <time>2023-12-27T15:20:25Z</time>
      </trkpt>
      <trkpt lat="49.96662" lon="2.32404">
        <ele>96</ele>
        <time>2023-12-27T15:20:26Z</time>
      </trkpt>
      <trkpt lat="49.96661" lon="2.32404">
        <ele>96</ele>
        <time>2023-12-27T15:20:28Z</time>
      </trkpt>
      <trkpt lat="49.9666" lon="2.32403">
        <ele>96</ele>
        <time>2023-12-27T15:20:29Z</time>
      </trkpt>
      <trkpt lat="49.96659" lon="2.32402">
        <ele>96</ele>
        <time>2023-12-27T15:20:30Z</time>
      </trkpt>
      <trkpt lat="49.96658" lon="2.32402">
        <ele>96</ele>
        <time>2023-12-27T15:20:31Z</time>
      </trkpt>
      <trkpt lat="49.96657" lon="2.32401">
        <ele>96</ele>
        <time>2023-12-27T15:20:32Z</time>
      </trkpt>
      <trkpt lat="49.96656" lon="2.324">
        <ele>96</ele>
        <time>2023-12-27T15:20:33Z</time>
      </trkpt>
      <trkpt lat="49.96654" lon="2.32398">
        <ele>96</ele>
        <time>2023-12-27T15:20:35Z</time>
      </trkpt>
      <trkpt lat="49.96653" lon="2.32397">
        <ele>95.9</ele>
        <time>2023-12-27T15:20:36Z</time>
      </trkpt>
      <trkpt lat="49.96652" lon="2.32396">
        <ele>95.9</ele>
        <time>2023-12-27T15:20:37Z</time>
      </trkpt>
      <trkpt lat="49.96651" lon="2.32395">
        <ele>95.9</ele>
        <time>2023-12-27T15:20:38Z</time>
      </trkpt>
      <trkpt lat="49.9665" lon="2.32395">
        <ele>95.9</ele>
        <time>2023-12-27T15:20:39Z</time>
      </trkpt>
      <trkpt lat="49.96648" lon="2.32394">
        <ele>95.9</ele>
        <time>2023-12-27T15:20:40Z</time>
      </trkpt>
      <trkpt lat="49.96647" lon="2.32393">
        <ele>95.9</ele>
        <time>2023-12-27T15:20:41Z</time>
      </trkpt>
      <trkpt lat="49.96645" lon="2.32392">
        <ele>95.9</ele>
        <time>2023-12-27T15:20:42Z</time>
      </trkpt>
      <trkpt lat="49.96644" lon="2.32391">
        <ele>95.9</ele>
        <time>2023-12-27T15:20:43Z</time>
      </trkpt>
      <trkpt lat="49.96643" lon="2.3239">
        <ele>95.8</ele>
        <time>2023-12-27T15:20:44Z</time>
      </trkpt>
      <trkpt lat="49.96641" lon="2.32389">
        <ele>95.8</ele>
        <time>2023-12-27T15:20:45Z</time>
      </trkpt>
      <trkpt lat="49.96641" lon="2.32389">
        <ele>95.8</ele>
        <time>2023-12-27T15:20:47Z</time>
      </trkpt>
      <trkpt lat="49.9664" lon="2.32388">
        <ele>95.8</ele>
        <time>2023-12-27T15:20:48Z</time>
      </trkpt>
      <trkpt lat="49.96638" lon="2.32387">
        <ele>95.8</ele>
        <time>2023-12-27T15:20:49Z</time>
      </trkpt>
      <trkpt lat="49.96637" lon="2.32387">
        <ele>95.8</ele>
        <time>2023-12-27T15:20:50Z</time>
      </trkpt>
      <trkpt lat="49.96636" lon="2.32387">
        <ele>95.8</ele>
        <time>2023-12-27T15:20:51Z</time>
      </trkpt>
      <trkpt lat="49.96634" lon="2.32386">
        <ele>95.8</ele>
        <time>2023-12-27T15:20:52Z</time>
      </trkpt>
      <trkpt lat="49.96633" lon="2.32385">
        <ele>95.7</ele>
        <time>2023-12-27T15:20:53Z</time>
      </trkpt>
      <trkpt lat="49.96632" lon="2.32385">
        <ele>95.7</ele>
        <time>2023-12-27T15:20:54Z</time>
      </trkpt>
      <trkpt lat="49.96631" lon="2.32384">
        <ele>95.7</ele>
        <time>2023-12-27T15:20:56Z</time>
      </trkpt>
      <trkpt lat="49.9663" lon="2.32383">
        <ele>95.7</ele>
        <time>2023-12-27T15:20:57Z</time>
      </trkpt>
      <trkpt lat="49.96629" lon="2.32383">
        <ele>95.7</ele>
        <time>2023-12-27T15:20:58Z</time>
      </trkpt>
      <trkpt lat="49.96627" lon="2.32381">
        <ele>95.7</ele>
        <time>2023-12-27T15:20:59Z</time>
      </trkpt>
      <trkpt lat="49.96626" lon="2.3238">
        <ele>95.7</ele>
        <time>2023-12-27T15:21:00Z</time>
      </trkpt>
      <trkpt lat="49.96625" lon="2.3238">
        <ele>95.7</ele>
        <time>2023-12-27T15:21:01Z</time>
      </trkpt>
      <trkpt lat="49.96624" lon="2.32379">
        <ele>95.7</ele>
        <time>2023-12-27T15:21:02Z</time>
      </trkpt>
      <trkpt lat="49.96623" lon="2.32379">
        <ele>95.7</ele>
        <time>2023-12-27T15:21:03Z</time>
      </trkpt>
      <trkpt lat="49.96622" lon="2.32378">
        <ele>95.7</ele>
        <time>2023-12-27T15:21:05Z</time>
      </trkpt>
      <trkpt lat="49.9662" lon="2.32378">
        <ele>95.7</ele>
        <time>2023-12-27T15:21:06Z</time>
      </trkpt>
      <trkpt lat="49.96619" lon="2.32377">
        <ele>95.6</ele>
        <time>2023-12-27T15:21:07Z</time>
      </trkpt>
      <trkpt lat="49.96617" lon="2.32377">
        <ele>95.6</ele>
        <time>2023-12-27T15:21:08Z</time>
      </trkpt>
      <trkpt lat="49.96616" lon="2.32376">
        <ele>95.6</ele>
        <time>2023-12-27T15:21:09Z</time>
      </trkpt>
      <trkpt lat="49.96615" lon="2.32376">
        <ele>95.6</ele>
        <time>2023-12-27T15:21:10Z</time>
      </trkpt>
      <trkpt lat="49.96613" lon="2.32375">
        <ele>95.6</ele>
        <time>2023-12-27T15:21:11Z</time>
      </trkpt>
      <trkpt lat="49.96612" lon="2.32375">
        <ele>95.6</ele>
        <time>2023-12-27T15:21:12Z</time>
      </trkpt>
      <trkpt lat="49.96611" lon="2.32374">
        <ele>95.6</ele>
        <time>2023-12-27T15:21:13Z</time>
      </trkpt>
      <trkpt lat="49.9661" lon="2.32374">
        <ele>95.6</ele>
        <time>2023-12-27T15:21:15Z</time>
      </trkpt>
      <trkpt lat="49.96609" lon="2.32373">
        <ele>95.6</ele>
        <time>2023-12-27T15:21:16Z</time>
      </trkpt>
      <trkpt lat="49.96608" lon="2.32373">
        <ele>95.6</ele>
        <time>2023-12-27T15:21:17Z</time>
      </trkpt>
      <trkpt lat="49.96606" lon="2.32372">
        <ele>95.6</ele>
        <time>2023-12-27T15:21:18Z</time>
      </trkpt>
      <trkpt lat="49.96606" lon="2.32371">
        <ele>95.6</ele>
        <time>2023-12-27T15:21:19Z</time>
      </trkpt>
      <trkpt lat="49.96605" lon="2.32371">
        <ele>95.6</ele>
        <time>2023-12-27T15:21:20Z</time>
      </trkpt>
      <trkpt lat="49.96603" lon="2.32369">
        <ele>95.6</ele>
        <time>2023-12-27T15:21:21Z</time>
      </trkpt>
      <trkpt lat="49.96602" lon="2.32369">
        <ele>95.6</ele>
        <time>2023-12-27T15:21:22Z</time>
      </trkpt>
      <trkpt lat="49.96601" lon="2.32368">
        <ele>95.5</ele>
        <time>2023-12-27T15:21:23Z</time>
      </trkpt>
      <trkpt lat="49.966" lon="2.32367">
        <ele>95.5</ele>
        <time>2023-12-27T15:21:24Z</time>
      </trkpt>
      <trkpt lat="49.96599" lon="2.32366">
        <ele>95.5</ele>
        <time>2023-12-27T15:21:26Z</time>
      </trkpt>
      <trkpt lat="49.96598" lon="2.32365">
        <ele>95.5</ele>
        <time>2023-12-27T15:21:27Z</time>
      </trkpt>
      <trkpt lat="49.96597" lon="2.32365">
        <ele>95.5</ele>
        <time>2023-12-27T15:21:28Z</time>
      </trkpt>
      <trkpt lat="49.96596" lon="2.32364">
        <ele>95.5</ele>
        <time>2023-12-27T15:21:29Z</time>
      </trkpt>
      <trkpt lat="49.96594" lon="2.32363">
        <ele>95.5</ele>
        <time>2023-12-27T15:21:31Z</time>
      </trkpt>
      <trkpt lat="49.96592" lon="2.32361">
        <ele>95.5</ele>
        <time>2023-12-27T15:21:32Z</time>
      </trkpt>
      <trkpt lat="49.96591" lon="2.32361">
        <ele>95.5</ele>
        <time>2023-12-27T15:21:33Z</time>
      </trkpt>
      <trkpt lat="49.9659" lon="2.3236">
        <ele>95.5</ele>
        <time>2023-12-27T15:21:34Z</time>
      </trkpt>
      <trkpt lat="49.96588" lon="2.32359">
        <ele>95.5</ele>
        <time>2023-12-27T15:21:36Z</time>
      </trkpt>
      <trkpt lat="49.96588" lon="2.32358">
        <ele>95.5</ele>
        <time>2023-12-27T15:21:37Z</time>
      </trkpt>
      <trkpt lat="49.96587" lon="2.32358">
        <ele>95.5</ele>
        <time>2023-12-27T15:21:38Z</time>
      </trkpt>
      <trkpt lat="49.96585" lon="2.32356">
        <ele>95.5</ele>
        <time>2023-12-27T15:21:39Z</time>
      </trkpt>
      <trkpt lat="49.96584" lon="2.32356">
        <ele>95.5</ele>
        <time>2023-12-27T15:21:40Z</time>
      </trkpt>
      <trkpt lat="49.96583" lon="2.32355">
        <ele>95.5</ele>
        <time>2023-12-27T15:21:41Z</time>
      </trkpt>
      <trkpt lat="49.96582" lon="2.32354">
        <ele>95.4</ele>
        <time>2023-12-27T15:21:43Z</time>
      </trkpt>
      <trkpt lat="49.96581" lon="2.32353">
        <ele>95.4</ele>
        <time>2023-12-27T15:21:44Z</time>
      </trkpt>
      <trkpt lat="49.96578" lon="2.32352">
        <ele>95.4</ele>
        <time>2023-12-27T15:21:45Z</time>
      </trkpt>
      <trkpt lat="49.96578" lon="2.32352">
        <ele>95.4</ele>
        <time>2023-12-27T15:21:47Z</time>
      </trkpt>
      <trkpt lat="49.96577" lon="2.32351">
        <ele>95.4</ele>
        <time>2023-12-27T15:21:48Z</time>
      </trkpt>
      <trkpt lat="49.96575" lon="2.3235">
        <ele>95.4</ele>
        <time>2023-12-27T15:21:49Z</time>
      </trkpt>
      <trkpt lat="49.96574" lon="2.3235">
        <ele>95.4</ele>
        <time>2023-12-27T15:21:50Z</time>
      </trkpt>
      <trkpt lat="49.96573" lon="2.32349">
        <ele>95.4</ele>
        <time>2023-12-27T15:21:51Z</time>
      </trkpt>
      <trkpt lat="49.96572" lon="2.32349">
        <ele>95.4</ele>
        <time>2023-12-27T15:21:52Z</time>
      </trkpt>
      <trkpt lat="49.96571" lon="2.32348">
        <ele>95.4</ele>
        <time>2023-12-27T15:21:53Z</time>
      </trkpt>
      <trkpt lat="49.96569" lon="2.32347">
        <ele>95.4</ele>
        <time>2023-12-27T15:21:54Z</time>
      </trkpt>
      <trkpt lat="49.96568" lon="2.32346">
        <ele>95.4</ele>
        <time>2023-12-27T15:21:55Z</time>
      </trkpt>
      <trkpt lat="49.96567" lon="2.32345">
        <ele>95.4</ele>
        <time>2023-12-27T15:21:56Z</time>
      </trkpt>
      <trkpt lat="49.96565" lon="2.32343">
        <ele>95.4</ele>
        <time>2023-12-27T15:21:58Z</time>
      </trkpt>
      <trkpt lat="49.96565" lon="2.32343">
        <ele>95.4</ele>
        <time>2023-12-27T15:21:59Z</time>
      </trkpt>
      <trkpt lat="49.96564" lon="2.32342">
        <ele>95.4</ele>
        <time>2023-12-27T15:22:00Z</time>
      </trkpt>
      <trkpt lat="49.96562" lon="2.32341">
        <ele>95.4</ele>
        <time>2023-12-27T15:22:01Z</time>
      </trkpt>
      <trkpt lat="49.9656" lon="2.32339">
        <ele>95.4</ele>
        <time>2023-12-27T15:22:02Z</time>
      </trkpt>
      <trkpt lat="49.9656" lon="2.32339">
        <ele>95.4</ele>
        <time>2023-12-27T15:22:03Z</time>
      </trkpt>
      <trkpt lat="49.96559" lon="2.32339">
        <ele>95.4</ele>
        <time>2023-12-27T15:22:04Z</time>
      </trkpt>
      <trkpt lat="49.96557" lon="2.32337">
        <ele>95.4</ele>
        <time>2023-12-27T15:22:06Z</time>
      </trkpt>
      <trkpt lat="49.96556" lon="2.32337">
        <ele>95.4</ele>
        <time>2023-12-27T15:22:07Z</time>
      </trkpt>
      <trkpt lat="49.96554" lon="2.32336">
        <ele>95.4</ele>
        <time>2023-12-27T15:22:08Z</time>
      </trkpt>
      <trkpt lat="49.96553" lon="2.32336">
        <ele>95.4</ele>
        <time>2023-12-27T15:22:09Z</time>
      </trkpt>
      <trkpt lat="49.96552" lon="2.32335">
        <ele>95.4</ele>
        <time>2023-12-27T15:22:11Z</time>
      </trkpt>
      <trkpt lat="49.96551" lon="2.32335">
        <ele>95.4</ele>
        <time>2023-12-27T15:22:12Z</time>
      </trkpt>
      <trkpt lat="49.96548" lon="2.32334">
        <ele>95.4</ele>
        <time>2023-12-27T15:22:13Z</time>
      </trkpt>
      <trkpt lat="49.96548" lon="2.32333">
        <ele>95.4</ele>
        <time>2023-12-27T15:22:14Z</time>
      </trkpt>
      <trkpt lat="49.96547" lon="2.32333">
        <ele>95.4</ele>
        <time>2023-12-27T15:22:15Z</time>
      </trkpt>
      <trkpt lat="49.96545" lon="2.32332">
        <ele>95.4</ele>
        <time>2023-12-27T15:22:16Z</time>
      </trkpt>
      <trkpt lat="49.96544" lon="2.32331">
        <ele>95.4</ele>
        <time>2023-12-27T15:22:17Z</time>
      </trkpt>
      <trkpt lat="49.96543" lon="2.3233">
        <ele>95.4</ele>
        <time>2023-12-27T15:22:19Z</time>
      </trkpt>
      <trkpt lat="49.96541" lon="2.32329">
        <ele>95.3</ele>
        <time>2023-12-27T15:22:20Z</time>
      </trkpt>
      <trkpt lat="49.96541" lon="2.32328">
        <ele>95.3</ele>
        <time>2023-12-27T15:22:21Z</time>
      </trkpt>
      <trkpt lat="49.9654" lon="2.32328">
        <ele>95.3</ele>
        <time>2023-12-27T15:22:22Z</time>
      </trkpt>
      <trkpt lat="49.96538" lon="2.32326">
        <ele>95.3</ele>
        <time>2023-12-27T15:22:23Z</time>
      </trkpt>
      <trkpt lat="49.96537" lon="2.32325">
        <ele>95.3</ele>
        <time>2023-12-27T15:22:25Z</time>
      </trkpt>
      <trkpt lat="49.96536" lon="2.32324">
        <ele>95.3</ele>
        <time>2023-12-27T15:22:26Z</time>
      </trkpt>
      <trkpt lat="49.96535" lon="2.32323">
        <ele>95.3</ele>
        <time>2023-12-27T15:22:27Z</time>
      </trkpt>
      <trkpt lat="49.96534" lon="2.32322">
        <ele>95.3</ele>
        <time>2023-12-27T15:22:28Z</time>
      </trkpt>
      <trkpt lat="49.96532" lon="2.32321">
        <ele>95.3</ele>
        <time>2023-12-27T15:22:29Z</time>
      </trkpt>
      <trkpt lat="49.96531" lon="2.3232">
        <ele>95.3</ele>
        <time>2023-12-27T15:22:31Z</time>
      </trkpt>
      <trkpt lat="49.9653" lon="2.3232">
        <ele>95.3</ele>
        <time>2023-12-27T15:22:32Z</time>
      </trkpt>
      <trkpt lat="49.96529" lon="2.32319">
        <ele>95.3</ele>
        <time>2023-12-27T15:22:33Z</time>
      </trkpt>
      <trkpt lat="49.96528" lon="2.32318">
        <ele>95.3</ele>
        <time>2023-12-27T15:22:34Z</time>
      </trkpt>
      <trkpt lat="49.96527" lon="2.32317">
        <ele>95.3</ele>
        <time>2023-12-27T15:22:35Z</time>
      </trkpt>
      <trkpt lat="49.96525" lon="2.32316">
        <ele>95.3</ele>
        <time>2023-12-27T15:22:36Z</time>
      </trkpt>
      <trkpt lat="49.96525" lon="2.32316">
        <ele>95.3</ele>
        <time>2023-12-27T15:22:37Z</time>
      </trkpt>
      <trkpt lat="49.96524" lon="2.32315">
        <ele>95.3</ele>
        <time>2023-12-27T15:22:38Z</time>
      </trkpt>
      <trkpt lat="49.96522" lon="2.32313">
        <ele>95.3</ele>
        <time>2023-12-27T15:22:39Z</time>
      </trkpt>
      <trkpt lat="49.96521" lon="2.32313">
        <ele>95.3</ele>
        <time>2023-12-27T15:22:41Z</time>
      </trkpt>
      <trkpt lat="49.96521" lon="2.32312">
        <ele>95.3</ele>
        <time>2023-12-27T15:22:42Z</time>
      </trkpt>
      <trkpt lat="49.9652" lon="2.32311">
        <ele>95.3</ele>
        <time>2023-12-27T15:22:43Z</time>
      </trkpt>
      <trkpt lat="49.96519" lon="2.3231">
        <ele>95.3</ele>
        <time>2023-12-27T15:22:44Z</time>
      </trkpt>
      <trkpt lat="49.96518" lon="2.32309">
        <ele>95.3</ele>
        <time>2023-12-27T15:22:45Z</time>
      </trkpt>
      <trkpt lat="49.96516" lon="2.32307">
        <ele>95.3</ele>
        <time>2023-12-27T15:22:46Z</time>
      </trkpt>
      <trkpt lat="49.96515" lon="2.32307">
        <ele>95.3</ele>
        <time>2023-12-27T15:22:47Z</time>
      </trkpt>
      <trkpt lat="49.96515" lon="2.32306">
        <ele>95.3</ele>
        <time>2023-12-27T15:22:48Z</time>
      </trkpt>
      <trkpt lat="49.96513" lon="2.32304">
        <ele>95.3</ele>
        <time>2023-12-27T15:22:50Z</time>
      </trkpt>
      <trkpt lat="49.96512" lon="2.32304">
        <ele>95.3</ele>
        <time>2023-12-27T15:22:51Z</time>
      </trkpt>
      <trkpt lat="49.96512" lon="2.32303">
        <ele>95.3</ele>
        <time>2023-12-27T15:22:52Z</time>
      </trkpt>
      <trkpt lat="49.96511" lon="2.32302">
        <ele>95.3</ele>
        <time>2023-12-27T15:22:53Z</time>
      </trkpt>
      <trkpt lat="49.9651" lon="2.32301">
        <ele>95.3</ele>
        <time>2023-12-27T15:22:54Z</time>
      </trkpt>
      <trkpt lat="49.96509" lon="2.32301">
        <ele>95.2</ele>
        <time>2023-12-27T15:22:55Z</time>
      </trkpt>
      <trkpt lat="49.96507" lon="2.323">
        <ele>95.2</ele>
        <time>2023-12-27T15:22:56Z</time>
      </trkpt>
      <trkpt lat="49.96506" lon="2.32299">
        <ele>95.2</ele>
        <time>2023-12-27T15:22:57Z</time>
      </trkpt>
      <trkpt lat="49.96505" lon="2.32298">
        <ele>95.2</ele>
        <time>2023-12-27T15:22:59Z</time>
      </trkpt>
      <trkpt lat="49.96503" lon="2.32297">
        <ele>95.2</ele>
        <time>2023-12-27T15:23:00Z</time>
      </trkpt>
      <trkpt lat="49.96502" lon="2.32297">
        <ele>95.2</ele>
        <time>2023-12-27T15:23:01Z</time>
      </trkpt>
      <trkpt lat="49.96501" lon="2.32296">
        <ele>95.2</ele>
        <time>2023-12-27T15:23:02Z</time>
      </trkpt>
      <trkpt lat="49.965" lon="2.32295">
        <ele>95.2</ele>
        <time>2023-12-27T15:23:03Z</time>
      </trkpt>
      <trkpt lat="49.96499" lon="2.32294">
        <ele>95.2</ele>
        <time>2023-12-27T15:23:04Z</time>
      </trkpt>
      <trkpt lat="49.96498" lon="2.32293">
        <ele>95.2</ele>
        <time>2023-12-27T15:23:05Z</time>
      </trkpt>
      <trkpt lat="49.96497" lon="2.32292">
        <ele>95.2</ele>
        <time>2023-12-27T15:23:06Z</time>
      </trkpt>
      <trkpt lat="49.96496" lon="2.32291">
        <ele>95.2</ele>
        <time>2023-12-27T15:23:07Z</time>
      </trkpt>
      <trkpt lat="49.96495" lon="2.3229">
        <ele>95.2</ele>
        <time>2023-12-27T15:23:09Z</time>
      </trkpt>
      <trkpt lat="49.96494" lon="2.3229">
        <ele>95.2</ele>
        <time>2023-12-27T15:23:10Z</time>
      </trkpt>
      <trkpt lat="49.96492" lon="2.32289">
        <ele>95.2</ele>
        <time>2023-12-27T15:23:11Z</time>
      </trkpt>
      <trkpt lat="49.96491" lon="2.32288">
        <ele>95.2</ele>
        <time>2023-12-27T15:23:12Z</time>
      </trkpt>
      <trkpt lat="49.9649" lon="2.32287">
        <ele>95.2</ele>
        <time>2023-12-27T15:23:13Z</time>
      </trkpt>
      <trkpt lat="49.96488" lon="2.32285">
        <ele>95.2</ele>
        <time>2023-12-27T15:23:15Z</time>
      </trkpt>
      <trkpt lat="49.96487" lon="2.32284">
        <ele>95.2</ele>
        <time>2023-12-27T15:23:16Z</time>
      </trkpt>
      <trkpt lat="49.96486" lon="2.32284">
        <ele>95.2</ele>
        <time>2023-12-27T15:23:17Z</time>
      </trkpt>
      <trkpt lat="49.96484" lon="2.32282">
        <ele>95.2</ele>
        <time>2023-12-27T15:23:18Z</time>
      </trkpt>
      <trkpt lat="49.96484" lon="2.32281">
        <ele>95.2</ele>
        <time>2023-12-27T15:23:19Z</time>
      </trkpt>
      <trkpt lat="49.96483" lon="2.32281">
        <ele>95.2</ele>
        <time>2023-12-27T15:23:20Z</time>
      </trkpt>
      <trkpt lat="49.96482" lon="2.3228">
        <ele>95.2</ele>
        <time>2023-12-27T15:23:21Z</time>
      </trkpt>
      <trkpt lat="49.9648" lon="2.32279">
        <ele>95.2</ele>
        <time>2023-12-27T15:23:23Z</time>
      </trkpt>
      <trkpt lat="49.96479" lon="2.32278">
        <ele>95.2</ele>
        <time>2023-12-27T15:23:24Z</time>
      </trkpt>
      <trkpt lat="49.96478" lon="2.32278">
        <ele>95.2</ele>
        <time>2023-12-27T15:23:25Z</time>
      </trkpt>
      <trkpt lat="49.96477" lon="2.32277">
        <ele>95.2</ele>
        <time>2023-12-27T15:23:26Z</time>
      </trkpt>
      <trkpt lat="49.96475" lon="2.32276">
        <ele>95.2</ele>
        <time>2023-12-27T15:23:27Z</time>
      </trkpt>
      <trkpt lat="49.96474" lon="2.32275">
        <ele>95.2</ele>
        <time>2023-12-27T15:23:29Z</time>
      </trkpt>
      <trkpt lat="49.96473" lon="2.32274">
        <ele>95.2</ele>
        <time>2023-12-27T15:23:30Z</time>
      </trkpt>
      <trkpt lat="49.96472" lon="2.32273">
        <ele>95.2</ele>
        <time>2023-12-27T15:23:31Z</time>
      </trkpt>
      <trkpt lat="49.96471" lon="2.32273">
        <ele>95.2</ele>
        <time>2023-12-27T15:23:32Z</time>
      </trkpt>
      <trkpt lat="49.96469" lon="2.32272">
        <ele>95.2</ele>
        <time>2023-12-27T15:23:33Z</time>
      </trkpt>
      <trkpt lat="49.96467" lon="2.32271">
        <ele>95.2</ele>
        <time>2023-12-27T15:23:34Z</time>
      </trkpt>
      <trkpt lat="49.96466" lon="2.3227">
        <ele>95.2</ele>
        <time>2023-12-27T15:23:35Z</time>
      </trkpt>
      <trkpt lat="49.96466" lon="2.3227">
        <ele>95.2</ele>
        <time>2023-12-27T15:23:36Z</time>
      </trkpt>
      <trkpt lat="49.96464" lon="2.32269">
        <ele>95.2</ele>
        <time>2023-12-27T15:23:38Z</time>
      </trkpt>
      <trkpt lat="49.96463" lon="2.32268">
        <ele>95.2</ele>
        <time>2023-12-27T15:23:39Z</time>
      </trkpt>
      <trkpt lat="49.96462" lon="2.32267">
        <ele>95.2</ele>
        <time>2023-12-27T15:23:40Z</time>
      </trkpt>
      <trkpt lat="49.9646" lon="2.32266">
        <ele>95.2</ele>
        <time>2023-12-27T15:23:41Z</time>
      </trkpt>
      <trkpt lat="49.96459" lon="2.32266">
        <ele>95.2</ele>
        <time>2023-12-27T15:23:42Z</time>
      </trkpt>
      <trkpt lat="49.96459" lon="2.32265">
        <ele>95.2</ele>
        <time>2023-12-27T15:23:43Z</time>
      </trkpt>
      <trkpt lat="49.96457" lon="2.32264">
        <ele>95.2</ele>
        <time>2023-12-27T15:23:45Z</time>
      </trkpt>
      <trkpt lat="49.96456" lon="2.32263">
        <ele>95.2</ele>
        <time>2023-12-27T15:23:46Z</time>
      </trkpt>
      <trkpt lat="49.96455" lon="2.32263">
        <ele>95.2</ele>
        <time>2023-12-27T15:23:47Z</time>
      </trkpt>
      <trkpt lat="49.96454" lon="2.32262">
        <ele>95.2</ele>
        <time>2023-12-27T15:23:48Z</time>
      </trkpt>
      <trkpt lat="49.96453" lon="2.32261">
        <ele>95.2</ele>
        <time>2023-12-27T15:23:49Z</time>
      </trkpt>
      <trkpt lat="49.96452" lon="2.3226">
        <ele>95.1</ele>
        <time>2023-12-27T15:23:50Z</time>
      </trkpt>
      <trkpt lat="49.96451" lon="2.32259">
        <ele>95.1</ele>
        <time>2023-12-27T15:23:51Z</time>
      </trkpt>
      <trkpt lat="49.9645" lon="2.32258">
        <ele>95.1</ele>
        <time>2023-12-27T15:23:52Z</time>
      </trkpt>
      <trkpt lat="49.96449" lon="2.32257">
        <ele>95.1</ele>
        <time>2023-12-27T15:23:54Z</time>
      </trkpt>
      <trkpt lat="49.96448" lon="2.32256">
        <ele>95.1</ele>
        <time>2023-12-27T15:23:55Z</time>
      </trkpt>
      <trkpt lat="49.96447" lon="2.32255">
        <ele>95.1</ele>
        <time>2023-12-27T15:23:56Z</time>
      </trkpt>
      <trkpt lat="49.96446" lon="2.32254">
        <ele>95.1</ele>
        <time>2023-12-27T15:23:57Z</time>
      </trkpt>
      <trkpt lat="49.96444" lon="2.32252">
        <ele>95.1</ele>
        <time>2023-12-27T15:23:58Z</time>
      </trkpt>
      <trkpt lat="49.96444" lon="2.32251">
        <ele>95.1</ele>
        <time>2023-12-27T15:23:59Z</time>
      </trkpt>
      <trkpt lat="49.96443" lon="2.3225">
        <ele>95.1</ele>
        <time>2023-12-27T15:24:00Z</time>
      </trkpt>
      <trkpt lat="49.96441" lon="2.32248">
        <ele>95</ele>
        <time>2023-12-27T15:24:02Z</time>
      </trkpt>
      <trkpt lat="49.96441" lon="2.32247">
        <ele>95</ele>
        <time>2023-12-27T15:24:03Z</time>
      </trkpt>
      <trkpt lat="49.9644" lon="2.32247">
        <ele>95</ele>
        <time>2023-12-27T15:24:04Z</time>
      </trkpt>
      <trkpt lat="49.96439" lon="2.32245">
        <ele>95</ele>
        <time>2023-12-27T15:24:05Z</time>
      </trkpt>
      <trkpt lat="49.96438" lon="2.32244">
        <ele>95</ele>
        <time>2023-12-27T15:24:06Z</time>
      </trkpt>
      <trkpt lat="49.96437" lon="2.32243">
        <ele>95</ele>
        <time>2023-12-27T15:24:07Z</time>
      </trkpt>
      <trkpt lat="49.96436" lon="2.32242">
        <ele>95</ele>
        <time>2023-12-27T15:24:08Z</time>
      </trkpt>
      <trkpt lat="49.96435" lon="2.32241">
        <ele>95</ele>
        <time>2023-12-27T15:24:09Z</time>
      </trkpt>
      <trkpt lat="49.96434" lon="2.3224">
        <ele>95</ele>
        <time>2023-12-27T15:24:10Z</time>
      </trkpt>
      <trkpt lat="49.96433" lon="2.32238">
        <ele>94.9</ele>
        <time>2023-12-27T15:24:12Z</time>
      </trkpt>
      <trkpt lat="49.96432" lon="2.32237">
        <ele>94.9</ele>
        <time>2023-12-27T15:24:13Z</time>
      </trkpt>
      <trkpt lat="49.96431" lon="2.32236">
        <ele>94.9</ele>
        <time>2023-12-27T15:24:14Z</time>
      </trkpt>
      <trkpt lat="49.96431" lon="2.32235">
        <ele>94.9</ele>
        <time>2023-12-27T15:24:15Z</time>
      </trkpt>
      <trkpt lat="49.9643" lon="2.32234">
        <ele>94.9</ele>
        <time>2023-12-27T15:24:16Z</time>
      </trkpt>
      <trkpt lat="49.96429" lon="2.32233">
        <ele>94.9</ele>
        <time>2023-12-27T15:24:17Z</time>
      </trkpt>
      <trkpt lat="49.96427" lon="2.32231">
        <ele>94.9</ele>
        <time>2023-12-27T15:24:18Z</time>
      </trkpt>
      <trkpt lat="49.96427" lon="2.3223">
        <ele>94.9</ele>
        <time>2023-12-27T15:24:19Z</time>
      </trkpt>
      <trkpt lat="49.96426" lon="2.3223">
        <ele>94.8</ele>
        <time>2023-12-27T15:24:20Z</time>
      </trkpt>
      <trkpt lat="49.96425" lon="2.32229">
        <ele>94.8</ele>
        <time>2023-12-27T15:24:21Z</time>
      </trkpt>
      <trkpt lat="49.96424" lon="2.32227">
        <ele>94.8</ele>
        <time>2023-12-27T15:24:23Z</time>
      </trkpt>
      <trkpt lat="49.96423" lon="2.32226">
        <ele>94.8</ele>
        <time>2023-12-27T15:24:24Z</time>
      </trkpt>
      <trkpt lat="49.96422" lon="2.32225">
        <ele>94.8</ele>
        <time>2023-12-27T15:24:25Z</time>
      </trkpt>
      <trkpt lat="49.9642" lon="2.32223">
        <ele>94.8</ele>
        <time>2023-12-27T15:24:26Z</time>
      </trkpt>
      <trkpt lat="49.96419" lon="2.32222">
        <ele>94.8</ele>
        <time>2023-12-27T15:24:27Z</time>
      </trkpt>
      <trkpt lat="49.96418" lon="2.32222">
        <ele>94.7</ele>
        <time>2023-12-27T15:24:28Z</time>
      </trkpt>
      <trkpt lat="49.96416" lon="2.32219">
        <ele>94.7</ele>
        <time>2023-12-27T15:24:29Z</time>
      </trkpt>
      <trkpt lat="49.96416" lon="2.32219">
        <ele>94.7</ele>
        <time>2023-12-27T15:24:30Z</time>
      </trkpt>
      <trkpt lat="49.96415" lon="2.32218">
        <ele>94.7</ele>
        <time>2023-12-27T15:24:31Z</time>
      </trkpt>
      <trkpt lat="49.96413" lon="2.32216">
        <ele>94.7</ele>
        <time>2023-12-27T15:24:33Z</time>
      </trkpt>
      <trkpt lat="49.96412" lon="2.32215">
        <ele>94.6</ele>
        <time>2023-12-27T15:24:34Z</time>
      </trkpt>
      <trkpt lat="49.96412" lon="2.32215">
        <ele>94.6</ele>
        <time>2023-12-27T15:24:35Z</time>
      </trkpt>
      <trkpt lat="49.9641" lon="2.32213">
        <ele>94.6</ele>
        <time>2023-12-27T15:24:36Z</time>
      </trkpt>
      <trkpt lat="49.96409" lon="2.32212">
        <ele>94.6</ele>
        <time>2023-12-27T15:24:37Z</time>
      </trkpt>
      <trkpt lat="49.96408" lon="2.32211">
        <ele>94.6</ele>
        <time>2023-12-27T15:24:39Z</time>
      </trkpt>
      <trkpt lat="49.96407" lon="2.3221">
        <ele>94.5</ele>
        <time>2023-12-27T15:24:40Z</time>
      </trkpt>
      <trkpt lat="49.96406" lon="2.32208">
        <ele>94.5</ele>
        <time>2023-12-27T15:24:41Z</time>
      </trkpt>
      <trkpt lat="49.96405" lon="2.32207">
        <ele>94.5</ele>
        <time>2023-12-27T15:24:42Z</time>
      </trkpt>
      <trkpt lat="49.96404" lon="2.32206">
        <ele>94.5</ele>
        <time>2023-12-27T15:24:43Z</time>
      </trkpt>
      <trkpt lat="49.96402" lon="2.32204">
        <ele>94.4</ele>
        <time>2023-12-27T15:24:44Z</time>
      </trkpt>
      <trkpt lat="49.96401" lon="2.32203">
        <ele>94.4</ele>
        <time>2023-12-27T15:24:45Z</time>
      </trkpt>
      <trkpt lat="49.964" lon="2.32202">
        <ele>94.4</ele>
        <time>2023-12-27T15:24:46Z</time>
      </trkpt>
      <trkpt lat="49.96399" lon="2.32201">
        <ele>94.3</ele>
        <time>2023-12-27T15:24:48Z</time>
      </trkpt>
      <trkpt lat="49.96397" lon="2.32199">
        <ele>94.3</ele>
        <time>2023-12-27T15:24:49Z</time>
      </trkpt>
      <trkpt lat="49.96397" lon="2.32198">
        <ele>94.3</ele>
        <time>2023-12-27T15:24:50Z</time>
      </trkpt>
      <trkpt lat="49.96396" lon="2.32197">
        <ele>94.3</ele>
        <time>2023-12-27T15:24:51Z</time>
      </trkpt>
      <trkpt lat="49.96395" lon="2.32196">
        <ele>94.3</ele>
        <time>2023-12-27T15:24:52Z</time>
      </trkpt>
      <trkpt lat="49.96394" lon="2.32195">
        <ele>94.2</ele>
        <time>2023-12-27T15:24:53Z</time>
      </trkpt>
      <trkpt lat="49.96393" lon="2.32193">
        <ele>94.2</ele>
        <time>2023-12-27T15:24:55Z</time>
      </trkpt>
      <trkpt lat="49.96391" lon="2.32191">
        <ele>94.2</ele>
        <time>2023-12-27T15:24:56Z</time>
      </trkpt>
      <trkpt lat="49.9639" lon="2.32191">
        <ele>94.2</ele>
        <time>2023-12-27T15:24:57Z</time>
      </trkpt>
      <trkpt lat="49.96389" lon="2.3219">
        <ele>94.1</ele>
        <time>2023-12-27T15:24:58Z</time>
      </trkpt>
      <trkpt lat="49.96388" lon="2.32189">
        <ele>94.1</ele>
        <time>2023-12-27T15:24:59Z</time>
      </trkpt>
      <trkpt lat="49.96387" lon="2.32188">
        <ele>94.1</ele>
        <time>2023-12-27T15:25:00Z</time>
      </trkpt>
      <trkpt lat="49.96386" lon="2.32187">
        <ele>94.1</ele>
        <time>2023-12-27T15:25:02Z</time>
      </trkpt>
      <trkpt lat="49.96385" lon="2.32186">
        <ele>94.1</ele>
        <time>2023-12-27T15:25:03Z</time>
      </trkpt>
      <trkpt lat="49.96384" lon="2.32184">
        <ele>94</ele>
        <time>2023-12-27T15:25:04Z</time>
      </trkpt>
      <trkpt lat="49.96383" lon="2.32184">
        <ele>94</ele>
        <time>2023-12-27T15:25:05Z</time>
      </trkpt>
      <trkpt lat="49.96382" lon="2.32182">
        <ele>94</ele>
        <time>2023-12-27T15:25:06Z</time>
      </trkpt>
      <trkpt lat="49.9638" lon="2.32181">
        <ele>94</ele>
        <time>2023-12-27T15:25:08Z</time>
      </trkpt>
      <trkpt lat="49.96379" lon="2.3218">
        <ele>94</ele>
        <time>2023-12-27T15:25:09Z</time>
      </trkpt>
      <trkpt lat="49.96378" lon="2.32179">
        <ele>93.9</ele>
        <time>2023-12-27T15:25:10Z</time>
      </trkpt>
      <trkpt lat="49.96377" lon="2.32178">
        <ele>93.9</ele>
        <time>2023-12-27T15:25:11Z</time>
      </trkpt>
      <trkpt lat="49.96375" lon="2.32176">
        <ele>93.9</ele>
        <time>2023-12-27T15:25:12Z</time>
      </trkpt>
      <trkpt lat="49.96375" lon="2.32175">
        <ele>93.9</ele>
        <time>2023-12-27T15:25:13Z</time>
      </trkpt>
      <trkpt lat="49.96374" lon="2.32174">
        <ele>93.9</ele>
        <time>2023-12-27T15:25:14Z</time>
      </trkpt>
      <trkpt lat="49.96373" lon="2.32173">
        <ele>93.8</ele>
        <time>2023-12-27T15:25:15Z</time>
      </trkpt>
      <trkpt lat="49.96372" lon="2.32172">
        <ele>93.8</ele>
        <time>2023-12-27T15:25:17Z</time>
      </trkpt>
      <trkpt lat="49.9637" lon="2.32171">
        <ele>93.8</ele>
        <time>2023-12-27T15:25:18Z</time>
      </trkpt>
      <trkpt lat="49.96369" lon="2.3217">
        <ele>93.7</ele>
        <time>2023-12-27T15:25:19Z</time>
      </trkpt>
      <trkpt lat="49.96368" lon="2.32169">
        <ele>93.7</ele>
        <time>2023-12-27T15:25:20Z</time>
      </trkpt>
      <trkpt lat="49.96367" lon="2.32168">
        <ele>93.7</ele>
        <time>2023-12-27T15:25:21Z</time>
      </trkpt>
      <trkpt lat="49.96366" lon="2.32167">
        <ele>93.7</ele>
        <time>2023-12-27T15:25:22Z</time>
      </trkpt>
      <trkpt lat="49.96365" lon="2.32166">
        <ele>93.7</ele>
        <time>2023-12-27T15:25:23Z</time>
      </trkpt>
      <trkpt lat="49.96364" lon="2.32165">
        <ele>93.6</ele>
        <time>2023-12-27T15:25:24Z</time>
      </trkpt>
      <trkpt lat="49.96363" lon="2.32164">
        <ele>93.6</ele>
        <time>2023-12-27T15:25:25Z</time>
      </trkpt>
      <trkpt lat="49.96361" lon="2.32163">
        <ele>93.6</ele>
        <time>2023-12-27T15:25:26Z</time>
      </trkpt>
      <trkpt lat="49.9636" lon="2.32162">
        <ele>93.6</ele>
        <time>2023-12-27T15:25:28Z</time>
      </trkpt>
      <trkpt lat="49.96359" lon="2.3216">
        <ele>93.5</ele>
        <time>2023-12-27T15:25:29Z</time>
      </trkpt>
      <trkpt lat="49.96358" lon="2.32159">
        <ele>93.5</ele>
        <time>2023-12-27T15:25:30Z</time>
      </trkpt>
      <trkpt lat="49.96357" lon="2.32159">
        <ele>93.5</ele>
        <time>2023-12-27T15:25:31Z</time>
      </trkpt>
      <trkpt lat="49.96356" lon="2.32158">
        <ele>93.5</ele>
        <time>2023-12-27T15:25:32Z</time>
      </trkpt>
      <trkpt lat="49.96355" lon="2.32157">
        <ele>93.5</ele>
        <time>2023-12-27T15:25:33Z</time>
      </trkpt>
      <trkpt lat="49.96354" lon="2.32156">
        <ele>93.5</ele>
        <time>2023-12-27T15:25:34Z</time>
      </trkpt>
      <trkpt lat="49.96354" lon="2.32155">
        <ele>93.4</ele>
        <time>2023-12-27T15:25:35Z</time>
      </trkpt>
      <trkpt lat="49.96353" lon="2.32154">
        <ele>93.4</ele>
        <time>2023-12-27T15:25:36Z</time>
      </trkpt>
      <trkpt lat="49.96352" lon="2.32153">
        <ele>93.4</ele>
        <time>2023-12-27T15:25:38Z</time>
      </trkpt>
      <trkpt lat="49.96351" lon="2.32152">
        <ele>93.4</ele>
        <time>2023-12-27T15:25:39Z</time>
      </trkpt>
      <trkpt lat="49.9635" lon="2.3215">
        <ele>93.4</ele>
        <time>2023-12-27T15:25:40Z</time>
      </trkpt>
      <trkpt lat="49.96349" lon="2.32149">
        <ele>93.4</ele>
        <time>2023-12-27T15:25:41Z</time>
      </trkpt>
      <trkpt lat="49.96349" lon="2.32148">
        <ele>93.3</ele>
        <time>2023-12-27T15:25:43Z</time>
      </trkpt>
      <trkpt lat="49.96348" lon="2.32146">
        <ele>93.3</ele>
        <time>2023-12-27T15:25:44Z</time>
      </trkpt>
      <trkpt lat="49.96347" lon="2.32145">
        <ele>93.3</ele>
        <time>2023-12-27T15:25:45Z</time>
      </trkpt>
      <trkpt lat="49.96346" lon="2.32143">
        <ele>93.3</ele>
        <time>2023-12-27T15:25:46Z</time>
      </trkpt>
      <trkpt lat="49.96345" lon="2.32142">
        <ele>93.3</ele>
        <time>2023-12-27T15:25:47Z</time>
      </trkpt>
      <trkpt lat="49.96344" lon="2.32141">
        <ele>93.3</ele>
        <time>2023-12-27T15:25:48Z</time>
      </trkpt>
      <trkpt lat="49.96343" lon="2.32139">
        <ele>93.2</ele>
        <time>2023-12-27T15:25:49Z</time>
      </trkpt>
      <trkpt lat="49.96342" lon="2.32138">
        <ele>93.2</ele>
        <time>2023-12-27T15:25:50Z</time>
      </trkpt>
      <trkpt lat="49.96342" lon="2.32137">
        <ele>93.2</ele>
        <time>2023-12-27T15:25:51Z</time>
      </trkpt>
      <trkpt lat="49.9634" lon="2.32135">
        <ele>93.2</ele>
        <time>2023-12-27T15:25:53Z</time>
      </trkpt>
      <trkpt lat="49.9634" lon="2.32134">
        <ele>93.2</ele>
        <time>2023-12-27T15:25:54Z</time>
      </trkpt>
      <trkpt lat="49.96339" lon="2.32133">
        <ele>93.2</ele>
        <time>2023-12-27T15:25:55Z</time>
      </trkpt>
      <trkpt lat="49.96337" lon="2.32131">
        <ele>93.1</ele>
        <time>2023-12-27T15:25:57Z</time>
      </trkpt>
      <trkpt lat="49.96337" lon="2.3213">
        <ele>93.1</ele>
        <time>2023-12-27T15:25:58Z</time>
      </trkpt>
      <trkpt lat="49.96336" lon="2.32129">
        <ele>93.1</ele>
        <time>2023-12-27T15:25:59Z</time>
      </trkpt>
      <trkpt lat="49.96335" lon="2.32127">
        <ele>93.1</ele>
        <time>2023-12-27T15:26:00Z</time>
      </trkpt>
      <trkpt lat="49.96334" lon="2.32126">
        <ele>93.1</ele>
        <time>2023-12-27T15:26:01Z</time>
      </trkpt>
      <trkpt lat="49.96333" lon="2.32126">
        <ele>93.1</ele>
        <time>2023-12-27T15:26:02Z</time>
      </trkpt>
      <trkpt lat="49.96332" lon="2.32124">
        <ele>93.1</ele>
        <time>2023-12-27T15:26:04Z</time>
      </trkpt>
      <trkpt lat="49.96331" lon="2.32123">
        <ele>93.1</ele>
        <time>2023-12-27T15:26:05Z</time>
      </trkpt>
      <trkpt lat="49.9633" lon="2.32121">
        <ele>93</ele>
        <time>2023-12-27T15:26:06Z</time>
      </trkpt>
      <trkpt lat="49.96329" lon="2.3212">
        <ele>93</ele>
        <time>2023-12-27T15:26:07Z</time>
      </trkpt>
      <trkpt lat="49.96328" lon="2.32119">
        <ele>93</ele>
        <time>2023-12-27T15:26:08Z</time>
      </trkpt>
      <trkpt lat="49.96327" lon="2.32118">
        <ele>93</ele>
        <time>2023-12-27T15:26:09Z</time>
      </trkpt>
      <trkpt lat="49.96326" lon="2.32117">
        <ele>93</ele>
        <time>2023-12-27T15:26:11Z</time>
      </trkpt>
      <trkpt lat="49.96325" lon="2.32116">
        <ele>93</ele>
        <time>2023-12-27T15:26:12Z</time>
      </trkpt>
      <trkpt lat="49.96325" lon="2.32116">
        <ele>93</ele>
        <time>2023-12-27T15:26:13Z</time>
      </trkpt>
      <trkpt lat="49.96324" lon="2.32115">
        <ele>93</ele>
        <time>2023-12-27T15:26:14Z</time>
      </trkpt>
      <trkpt lat="49.96323" lon="2.32113">
        <ele>93</ele>
        <time>2023-12-27T15:26:15Z</time>
      </trkpt>
      <trkpt lat="49.96321" lon="2.32112">
        <ele>93</ele>
        <time>2023-12-27T15:26:17Z</time>
      </trkpt>
      <trkpt lat="49.9632" lon="2.32111">
        <ele>93</ele>
        <time>2023-12-27T15:26:19Z</time>
      </trkpt>
      <trkpt lat="49.9632" lon="2.32111">
        <ele>93</ele>
        <time>2023-12-27T15:26:20Z</time>
      </trkpt>
      <trkpt lat="49.96319" lon="2.3211">
        <ele>93</ele>
        <time>2023-12-27T15:26:21Z</time>
      </trkpt>
      <trkpt lat="49.96318" lon="2.3211">
        <ele>92.9</ele>
        <time>2023-12-27T15:26:22Z</time>
      </trkpt>
      <trkpt lat="49.96316" lon="2.32111">
        <ele>92.9</ele>
        <time>2023-12-27T15:26:24Z</time>
      </trkpt>
      <trkpt lat="49.96315" lon="2.32112">
        <ele>92.9</ele>
        <time>2023-12-27T15:26:26Z</time>
      </trkpt>
      <trkpt lat="49.96315" lon="2.32113">
        <ele>92.9</ele>
        <time>2023-12-27T15:26:27Z</time>
      </trkpt>
      <trkpt lat="49.96315" lon="2.32114">
        <ele>92.9</ele>
        <time>2023-12-27T15:26:29Z</time>
      </trkpt>
      <trkpt lat="49.96316" lon="2.32114">
        <ele>92.9</ele>
        <time>2023-12-27T15:26:30Z</time>
      </trkpt>
      <trkpt lat="49.96316" lon="2.32114">
        <ele>92.9</ele>
        <time>2023-12-27T15:26:31Z</time>
      </trkpt>
      <trkpt lat="49.96316" lon="2.32115">
        <ele>92.9</ele>
        <time>2023-12-27T15:26:33Z</time>
      </trkpt>
      <trkpt lat="49.96316" lon="2.32115">
        <ele>92.9</ele>
        <time>2023-12-27T15:26:34Z</time>
      </trkpt>
      <trkpt lat="49.96316" lon="2.32115">
        <ele>92.9</ele>
        <time>2023-12-27T15:26:36Z</time>
      </trkpt>
      <trkpt lat="49.96316" lon="2.32115">
        <ele>92.9</ele>
        <time>2023-12-27T15:26:37Z</time>
      </trkpt>
      <trkpt lat="49.96316" lon="2.32115">
        <ele>92.9</ele>
        <time>2023-12-27T15:26:38Z</time>
      </trkpt>
      <trkpt lat="49.96316" lon="2.32115">
        <ele>92.9</ele>
        <time>2023-12-27T15:26:40Z</time>
      </trkpt>
      <trkpt lat="49.96316" lon="2.32115">
        <ele>92.9</ele>
        <time>2023-12-27T15:26:41Z</time>
      </trkpt>
      <trkpt lat="49.96316" lon="2.32115">
        <ele>92.9</ele>
        <time>2023-12-27T15:26:42Z</time>
      </trkpt>
      <trkpt lat="49.96316" lon="2.32115">
        <ele>92.9</ele>
        <time>2023-12-27T15:26:43Z</time>
      </trkpt>
      <trkpt lat="49.96317" lon="2.32115">
        <ele>92.9</ele>
        <time>2023-12-27T15:26:44Z</time>
      </trkpt>
      <trkpt lat="49.96317" lon="2.32115">
        <ele>92.9</ele>
        <time>2023-12-27T15:26:45Z</time>
      </trkpt>
      <trkpt lat="49.96317" lon="2.32115">
        <ele>92.9</ele>
        <time>2023-12-27T15:26:46Z</time>
      </trkpt>
      <trkpt lat="49.96317" lon="2.32115">
        <ele>92.9</ele>
        <time>2023-12-27T15:26:47Z</time>
      </trkpt>
      <trkpt lat="49.96319" lon="2.32109">
        <ele>92.9</ele>
        <time>2023-12-27T15:27:02Z</time>
      </trkpt>
      <trkpt lat="49.96318" lon="2.32108">
        <ele>92.9</ele>
        <time>2023-12-27T15:27:03Z</time>
      </trkpt>
      <trkpt lat="49.96317" lon="2.32107">
        <ele>92.9</ele>
        <time>2023-12-27T15:27:04Z</time>
      </trkpt>
      <trkpt lat="49.96317" lon="2.32106">
        <ele>92.9</ele>
        <time>2023-12-27T15:27:05Z</time>
      </trkpt>
      <trkpt lat="49.96316" lon="2.32103">
        <ele>92.9</ele>
        <time>2023-12-27T15:27:06Z</time>
      </trkpt>
      <trkpt lat="49.96315" lon="2.32102">
        <ele>92.9</ele>
        <time>2023-12-27T15:27:08Z</time>
      </trkpt>
      <trkpt lat="49.96314" lon="2.32101">
        <ele>92.9</ele>
        <time>2023-12-27T15:27:09Z</time>
      </trkpt>
      <trkpt lat="49.96313" lon="2.32099">
        <ele>92.9</ele>
        <time>2023-12-27T15:27:10Z</time>
      </trkpt>
      <trkpt lat="49.96312" lon="2.32097">
        <ele>92.9</ele>
        <time>2023-12-27T15:27:11Z</time>
      </trkpt>
      <trkpt lat="49.96311" lon="2.32096">
        <ele>92.9</ele>
        <time>2023-12-27T15:27:12Z</time>
      </trkpt>
      <trkpt lat="49.96309" lon="2.32094">
        <ele>92.9</ele>
        <time>2023-12-27T15:27:14Z</time>
      </trkpt>
      <trkpt lat="49.96308" lon="2.32093">
        <ele>92.9</ele>
        <time>2023-12-27T15:27:15Z</time>
      </trkpt>
      <trkpt lat="49.96307" lon="2.32091">
        <ele>92.9</ele>
        <time>2023-12-27T15:27:16Z</time>
      </trkpt>
      <trkpt lat="49.96306" lon="2.3209">
        <ele>92.9</ele>
        <time>2023-12-27T15:27:17Z</time>
      </trkpt>
      <trkpt lat="49.96304" lon="2.32089">
        <ele>92.9</ele>
        <time>2023-12-27T15:27:18Z</time>
      </trkpt>
      <trkpt lat="49.96303" lon="2.32088">
        <ele>92.9</ele>
        <time>2023-12-27T15:27:20Z</time>
      </trkpt>
      <trkpt lat="49.96302" lon="2.32087">
        <ele>92.9</ele>
        <time>2023-12-27T15:27:21Z</time>
      </trkpt>
      <trkpt lat="49.963" lon="2.32085">
        <ele>92.9</ele>
        <time>2023-12-27T15:27:22Z</time>
      </trkpt>
      <trkpt lat="49.963" lon="2.32084">
        <ele>92.8</ele>
        <time>2023-12-27T15:27:23Z</time>
      </trkpt>
      <trkpt lat="49.96299" lon="2.32083">
        <ele>92.8</ele>
        <time>2023-12-27T15:27:24Z</time>
      </trkpt>
      <trkpt lat="49.96298" lon="2.32082">
        <ele>92.8</ele>
        <time>2023-12-27T15:27:25Z</time>
      </trkpt>
      <trkpt lat="49.96297" lon="2.3208">
        <ele>92.8</ele>
        <time>2023-12-27T15:27:26Z</time>
      </trkpt>
      <trkpt lat="49.96296" lon="2.32079">
        <ele>92.8</ele>
        <time>2023-12-27T15:27:27Z</time>
      </trkpt>
      <trkpt lat="49.96295" lon="2.32077">
        <ele>92.8</ele>
        <time>2023-12-27T15:27:29Z</time>
      </trkpt>
      <trkpt lat="49.96294" lon="2.32076">
        <ele>92.8</ele>
        <time>2023-12-27T15:27:30Z</time>
      </trkpt>
      <trkpt lat="49.96293" lon="2.32074">
        <ele>92.8</ele>
        <time>2023-12-27T15:27:31Z</time>
      </trkpt>
      <trkpt lat="49.96291" lon="2.32072">
        <ele>92.8</ele>
        <time>2023-12-27T15:27:32Z</time>
      </trkpt>
      <trkpt lat="49.9629" lon="2.32071">
        <ele>92.8</ele>
        <time>2023-12-27T15:27:33Z</time>
      </trkpt>
      <trkpt lat="49.96289" lon="2.32071">
        <ele>92.8</ele>
        <time>2023-12-27T15:27:34Z</time>
      </trkpt>
      <trkpt lat="49.96288" lon="2.3207">
        <ele>92.8</ele>
        <time>2023-12-27T15:27:35Z</time>
      </trkpt>
      <trkpt lat="49.96287" lon="2.32069">
        <ele>92.7</ele>
        <time>2023-12-27T15:27:36Z</time>
      </trkpt>
      <trkpt lat="49.96286" lon="2.32069">
        <ele>92.7</ele>
        <time>2023-12-27T15:27:38Z</time>
      </trkpt>
      <trkpt lat="49.96284" lon="2.32067">
        <ele>92.7</ele>
        <time>2023-12-27T15:27:39Z</time>
      </trkpt>
      <trkpt lat="49.96283" lon="2.32067">
        <ele>92.7</ele>
        <time>2023-12-27T15:27:40Z</time>
      </trkpt>
      <trkpt lat="49.96282" lon="2.32066">
        <ele>92.7</ele>
        <time>2023-12-27T15:27:41Z</time>
      </trkpt>
      <trkpt lat="49.96281" lon="2.32064">
        <ele>92.7</ele>
        <time>2023-12-27T15:27:42Z</time>
      </trkpt>
      <trkpt lat="49.9628" lon="2.32063">
        <ele>92.7</ele>
        <time>2023-12-27T15:27:43Z</time>
      </trkpt>
      <trkpt lat="49.96279" lon="2.32062">
        <ele>92.7</ele>
        <time>2023-12-27T15:27:44Z</time>
      </trkpt>
      <trkpt lat="49.96278" lon="2.32061">
        <ele>92.7</ele>
        <time>2023-12-27T15:27:45Z</time>
      </trkpt>
      <trkpt lat="49.96277" lon="2.3206">
        <ele>92.7</ele>
        <time>2023-12-27T15:27:46Z</time>
      </trkpt>
      <trkpt lat="49.96276" lon="2.32058">
        <ele>92.7</ele>
        <time>2023-12-27T15:27:48Z</time>
      </trkpt>
      <trkpt lat="49.96275" lon="2.32056">
        <ele>92.7</ele>
        <time>2023-12-27T15:27:49Z</time>
      </trkpt>
      <trkpt lat="49.96274" lon="2.32055">
        <ele>92.7</ele>
        <time>2023-12-27T15:27:50Z</time>
      </trkpt>
      <trkpt lat="49.96274" lon="2.32055">
        <ele>92.7</ele>
        <time>2023-12-27T15:27:51Z</time>
      </trkpt>
      <trkpt lat="49.96272" lon="2.32052">
        <ele>92.7</ele>
        <time>2023-12-27T15:27:52Z</time>
      </trkpt>
      <trkpt lat="49.96271" lon="2.32052">
        <ele>92.7</ele>
        <time>2023-12-27T15:27:53Z</time>
      </trkpt>
      <trkpt lat="49.96271" lon="2.32051">
        <ele>92.7</ele>
        <time>2023-12-27T15:27:54Z</time>
      </trkpt>
      <trkpt lat="49.9627" lon="2.3205">
        <ele>92.7</ele>
        <time>2023-12-27T15:27:55Z</time>
      </trkpt>
      <trkpt lat="49.96269" lon="2.32048">
        <ele>92.7</ele>
        <time>2023-12-27T15:27:57Z</time>
      </trkpt>
      <trkpt lat="49.96268" lon="2.32047">
        <ele>92.7</ele>
        <time>2023-12-27T15:27:58Z</time>
      </trkpt>
      <trkpt lat="49.96268" lon="2.32046">
        <ele>92.7</ele>
        <time>2023-12-27T15:27:59Z</time>
      </trkpt>
      <trkpt lat="49.96267" lon="2.32045">
        <ele>92.7</ele>
        <time>2023-12-27T15:28:00Z</time>
      </trkpt>
      <trkpt lat="49.96266" lon="2.32043">
        <ele>92.7</ele>
        <time>2023-12-27T15:28:01Z</time>
      </trkpt>
      <trkpt lat="49.96265" lon="2.32042">
        <ele>92.7</ele>
        <time>2023-12-27T15:28:02Z</time>
      </trkpt>
      <trkpt lat="49.96264" lon="2.32041">
        <ele>92.7</ele>
        <time>2023-12-27T15:28:03Z</time>
      </trkpt>
      <trkpt lat="49.96263" lon="2.32039">
        <ele>92.7</ele>
        <time>2023-12-27T15:28:05Z</time>
      </trkpt>
      <trkpt lat="49.96261" lon="2.32037">
        <ele>92.7</ele>
        <time>2023-12-27T15:28:06Z</time>
      </trkpt>
      <trkpt lat="49.96261" lon="2.32036">
        <ele>92.7</ele>
        <time>2023-12-27T15:28:07Z</time>
      </trkpt>
      <trkpt lat="49.9626" lon="2.32035">
        <ele>92.7</ele>
        <time>2023-12-27T15:28:08Z</time>
      </trkpt>
      <trkpt lat="49.96259" lon="2.32034">
        <ele>92.7</ele>
        <time>2023-12-27T15:28:09Z</time>
      </trkpt>
      <trkpt lat="49.96258" lon="2.32033">
        <ele>92.7</ele>
        <time>2023-12-27T15:28:10Z</time>
      </trkpt>
      <trkpt lat="49.96257" lon="2.32032">
        <ele>92.7</ele>
        <time>2023-12-27T15:28:11Z</time>
      </trkpt>
      <trkpt lat="49.96256" lon="2.3203">
        <ele>92.7</ele>
        <time>2023-12-27T15:28:12Z</time>
      </trkpt>
      <trkpt lat="49.96255" lon="2.32029">
        <ele>92.7</ele>
        <time>2023-12-27T15:28:14Z</time>
      </trkpt>
      <trkpt lat="49.96254" lon="2.32028">
        <ele>92.7</ele>
        <time>2023-12-27T15:28:15Z</time>
      </trkpt>
      <trkpt lat="49.96253" lon="2.32027">
        <ele>92.7</ele>
        <time>2023-12-27T15:28:16Z</time>
      </trkpt>
      <trkpt lat="49.96252" lon="2.32026">
        <ele>92.7</ele>
        <time>2023-12-27T15:28:17Z</time>
      </trkpt>
      <trkpt lat="49.96252" lon="2.32025">
        <ele>92.7</ele>
        <time>2023-12-27T15:28:18Z</time>
      </trkpt>
      <trkpt lat="49.9625" lon="2.32023">
        <ele>92.6</ele>
        <time>2023-12-27T15:28:19Z</time>
      </trkpt>
      <trkpt lat="49.96249" lon="2.32023">
        <ele>92.6</ele>
        <time>2023-12-27T15:28:20Z</time>
      </trkpt>
      <trkpt lat="49.96249" lon="2.32022">
        <ele>92.6</ele>
        <time>2023-12-27T15:28:21Z</time>
      </trkpt>
      <trkpt lat="49.96248" lon="2.32021">
        <ele>92.6</ele>
        <time>2023-12-27T15:28:23Z</time>
      </trkpt>
      <trkpt lat="49.96247" lon="2.32019">
        <ele>92.6</ele>
        <time>2023-12-27T15:28:24Z</time>
      </trkpt>
      <trkpt lat="49.96246" lon="2.32018">
        <ele>92.6</ele>
        <time>2023-12-27T15:28:25Z</time>
      </trkpt>
      <trkpt lat="49.96245" lon="2.32017">
        <ele>92.6</ele>
        <time>2023-12-27T15:28:26Z</time>
      </trkpt>
      <trkpt lat="49.96244" lon="2.32016">
        <ele>92.6</ele>
        <time>2023-12-27T15:28:27Z</time>
      </trkpt>
      <trkpt lat="49.96243" lon="2.32015">
        <ele>92.6</ele>
        <time>2023-12-27T15:28:28Z</time>
      </trkpt>
      <trkpt lat="49.96242" lon="2.32014">
        <ele>92.6</ele>
        <time>2023-12-27T15:28:29Z</time>
      </trkpt>
      <trkpt lat="49.96241" lon="2.32013">
        <ele>92.6</ele>
        <time>2023-12-27T15:28:31Z</time>
      </trkpt>
      <trkpt lat="49.9624" lon="2.32012">
        <ele>92.6</ele>
        <time>2023-12-27T15:28:32Z</time>
      </trkpt>
      <trkpt lat="49.9624" lon="2.32011">
        <ele>92.6</ele>
        <time>2023-12-27T15:28:33Z</time>
      </trkpt>
      <trkpt lat="49.96239" lon="2.3201">
        <ele>92.6</ele>
        <time>2023-12-27T15:28:34Z</time>
      </trkpt>
      <trkpt lat="49.96238" lon="2.32009">
        <ele>92.6</ele>
        <time>2023-12-27T15:28:35Z</time>
      </trkpt>
      <trkpt lat="49.96237" lon="2.32008">
        <ele>92.6</ele>
        <time>2023-12-27T15:28:36Z</time>
      </trkpt>
      <trkpt lat="49.96236" lon="2.32007">
        <ele>92.6</ele>
        <time>2023-12-27T15:28:37Z</time>
      </trkpt>
      <trkpt lat="49.96236" lon="2.32005">
        <ele>92.6</ele>
        <time>2023-12-27T15:28:39Z</time>
      </trkpt>
      <trkpt lat="49.96235" lon="2.32004">
        <ele>92.6</ele>
        <time>2023-12-27T15:28:40Z</time>
      </trkpt>
      <trkpt lat="49.96234" lon="2.32003">
        <ele>92.6</ele>
        <time>2023-12-27T15:28:41Z</time>
      </trkpt>
      <trkpt lat="49.96233" lon="2.32002">
        <ele>92.6</ele>
        <time>2023-12-27T15:28:42Z</time>
      </trkpt>
      <trkpt lat="49.96231" lon="2.31999">
        <ele>92.6</ele>
        <time>2023-12-27T15:28:43Z</time>
      </trkpt>
      <trkpt lat="49.9623" lon="2.31998">
        <ele>92.6</ele>
        <time>2023-12-27T15:28:45Z</time>
      </trkpt>
      <trkpt lat="49.96229" lon="2.31997">
        <ele>92.6</ele>
        <time>2023-12-27T15:28:46Z</time>
      </trkpt>
      <trkpt lat="49.96228" lon="2.31997">
        <ele>92.6</ele>
        <time>2023-12-27T15:28:47Z</time>
      </trkpt>
      <trkpt lat="49.96227" lon="2.31996">
        <ele>92.6</ele>
        <time>2023-12-27T15:28:48Z</time>
      </trkpt>
      <trkpt lat="49.96226" lon="2.31994">
        <ele>92.6</ele>
        <time>2023-12-27T15:28:49Z</time>
      </trkpt>
      <trkpt lat="49.96225" lon="2.31993">
        <ele>92.6</ele>
        <time>2023-12-27T15:28:50Z</time>
      </trkpt>
      <trkpt lat="49.96224" lon="2.31992">
        <ele>92.6</ele>
        <time>2023-12-27T15:28:52Z</time>
      </trkpt>
      <trkpt lat="49.96222" lon="2.3199">
        <ele>92.6</ele>
        <time>2023-12-27T15:28:53Z</time>
      </trkpt>
      <trkpt lat="49.96222" lon="2.31989">
        <ele>92.6</ele>
        <time>2023-12-27T15:28:54Z</time>
      </trkpt>
      <trkpt lat="49.96221" lon="2.31988">
        <ele>92.6</ele>
        <time>2023-12-27T15:28:55Z</time>
      </trkpt>
      <trkpt lat="49.9622" lon="2.31987">
        <ele>92.6</ele>
        <time>2023-12-27T15:28:56Z</time>
      </trkpt>
      <trkpt lat="49.96219" lon="2.31986">
        <ele>92.7</ele>
        <time>2023-12-27T15:28:57Z</time>
      </trkpt>
      <trkpt lat="49.96218" lon="2.31984">
        <ele>92.7</ele>
        <time>2023-12-27T15:28:58Z</time>
      </trkpt>
      <trkpt lat="49.96217" lon="2.31983">
        <ele>92.7</ele>
        <time>2023-12-27T15:28:59Z</time>
      </trkpt>
      <trkpt lat="49.96216" lon="2.31982">
        <ele>92.7</ele>
        <time>2023-12-27T15:29:01Z</time>
      </trkpt>
      <trkpt lat="49.96215" lon="2.3198">
        <ele>92.7</ele>
        <time>2023-12-27T15:29:02Z</time>
      </trkpt>
      <trkpt lat="49.96214" lon="2.31979">
        <ele>92.7</ele>
        <time>2023-12-27T15:29:03Z</time>
      </trkpt>
      <trkpt lat="49.96213" lon="2.31978">
        <ele>92.7</ele>
        <time>2023-12-27T15:29:04Z</time>
      </trkpt>
      <trkpt lat="49.96211" lon="2.31977">
        <ele>92.7</ele>
        <time>2023-12-27T15:29:05Z</time>
      </trkpt>
      <trkpt lat="49.9621" lon="2.31975">
        <ele>92.7</ele>
        <time>2023-12-27T15:29:06Z</time>
      </trkpt>
      <trkpt lat="49.96209" lon="2.31974">
        <ele>92.7</ele>
        <time>2023-12-27T15:29:07Z</time>
      </trkpt>
      <trkpt lat="49.96208" lon="2.31973">
        <ele>92.7</ele>
        <time>2023-12-27T15:29:09Z</time>
      </trkpt>
      <trkpt lat="49.96206" lon="2.31971">
        <ele>92.7</ele>
        <time>2023-12-27T15:29:10Z</time>
      </trkpt>
      <trkpt lat="49.96206" lon="2.3197">
        <ele>92.7</ele>
        <time>2023-12-27T15:29:11Z</time>
      </trkpt>
      <trkpt lat="49.96205" lon="2.31969">
        <ele>92.7</ele>
        <time>2023-12-27T15:29:12Z</time>
      </trkpt>
      <trkpt lat="49.96204" lon="2.31968">
        <ele>92.7</ele>
        <time>2023-12-27T15:29:13Z</time>
      </trkpt>
      <trkpt lat="49.96203" lon="2.31967">
        <ele>92.7</ele>
        <time>2023-12-27T15:29:14Z</time>
      </trkpt>
      <trkpt lat="49.96202" lon="2.31965">
        <ele>92.7</ele>
        <time>2023-12-27T15:29:15Z</time>
      </trkpt>
      <trkpt lat="49.96201" lon="2.31964">
        <ele>92.7</ele>
        <time>2023-12-27T15:29:16Z</time>
      </trkpt>
      <trkpt lat="49.962" lon="2.31963">
        <ele>92.7</ele>
        <time>2023-12-27T15:29:18Z</time>
      </trkpt>
      <trkpt lat="49.96198" lon="2.31961">
        <ele>92.8</ele>
        <time>2023-12-27T15:29:19Z</time>
      </trkpt>
      <trkpt lat="49.96198" lon="2.31961">
        <ele>92.8</ele>
        <time>2023-12-27T15:29:20Z</time>
      </trkpt>
      <trkpt lat="49.96197" lon="2.3196">
        <ele>92.8</ele>
        <time>2023-12-27T15:29:21Z</time>
      </trkpt>
      <trkpt lat="49.96196" lon="2.31959">
        <ele>92.8</ele>
        <time>2023-12-27T15:29:22Z</time>
      </trkpt>
      <trkpt lat="49.96195" lon="2.31957">
        <ele>92.8</ele>
        <time>2023-12-27T15:29:23Z</time>
      </trkpt>
      <trkpt lat="49.96194" lon="2.31956">
        <ele>92.8</ele>
        <time>2023-12-27T15:29:24Z</time>
      </trkpt>
      <trkpt lat="49.96193" lon="2.31955">
        <ele>92.8</ele>
        <time>2023-12-27T15:29:25Z</time>
      </trkpt>
      <trkpt lat="49.96192" lon="2.31954">
        <ele>92.8</ele>
        <time>2023-12-27T15:29:27Z</time>
      </trkpt>
      <trkpt lat="49.96192" lon="2.31952">
        <ele>92.8</ele>
        <time>2023-12-27T15:29:28Z</time>
      </trkpt>
      <trkpt lat="49.9619" lon="2.3195">
        <ele>92.9</ele>
        <time>2023-12-27T15:29:29Z</time>
      </trkpt>
      <trkpt lat="49.9619" lon="2.31949">
        <ele>92.9</ele>
        <time>2023-12-27T15:29:30Z</time>
      </trkpt>
      <trkpt lat="49.96189" lon="2.31949">
        <ele>92.9</ele>
        <time>2023-12-27T15:29:31Z</time>
      </trkpt>
      <trkpt lat="49.96188" lon="2.31947">
        <ele>92.9</ele>
        <time>2023-12-27T15:29:32Z</time>
      </trkpt>
      <trkpt lat="49.96187" lon="2.31946">
        <ele>92.9</ele>
        <time>2023-12-27T15:29:33Z</time>
      </trkpt>
      <trkpt lat="49.96186" lon="2.31945">
        <ele>92.9</ele>
        <time>2023-12-27T15:29:35Z</time>
      </trkpt>
      <trkpt lat="49.96185" lon="2.31943">
        <ele>92.9</ele>
        <time>2023-12-27T15:29:36Z</time>
      </trkpt>
      <trkpt lat="49.96184" lon="2.31942">
        <ele>92.9</ele>
        <time>2023-12-27T15:29:37Z</time>
      </trkpt>
      <trkpt lat="49.96183" lon="2.3194">
        <ele>93</ele>
        <time>2023-12-27T15:29:38Z</time>
      </trkpt>
      <trkpt lat="49.96182" lon="2.31939">
        <ele>93</ele>
        <time>2023-12-27T15:29:39Z</time>
      </trkpt>
      <trkpt lat="49.96181" lon="2.31937">
        <ele>93</ele>
        <time>2023-12-27T15:29:40Z</time>
      </trkpt>
      <trkpt lat="49.9618" lon="2.31936">
        <ele>93</ele>
        <time>2023-12-27T15:29:41Z</time>
      </trkpt>
      <trkpt lat="49.9618" lon="2.31934">
        <ele>93</ele>
        <time>2023-12-27T15:29:43Z</time>
      </trkpt>
      <trkpt lat="49.96178" lon="2.31932">
        <ele>93.1</ele>
        <time>2023-12-27T15:29:44Z</time>
      </trkpt>
      <trkpt lat="49.96178" lon="2.31931">
        <ele>93.1</ele>
        <time>2023-12-27T15:29:45Z</time>
      </trkpt>
      <trkpt lat="49.96177" lon="2.3193">
        <ele>93.1</ele>
        <time>2023-12-27T15:29:46Z</time>
      </trkpt>
      <trkpt lat="49.96176" lon="2.31928">
        <ele>93.1</ele>
        <time>2023-12-27T15:29:47Z</time>
      </trkpt>
      <trkpt lat="49.96175" lon="2.31927">
        <ele>93.1</ele>
        <time>2023-12-27T15:29:48Z</time>
      </trkpt>
      <trkpt lat="49.96174" lon="2.31925">
        <ele>93.1</ele>
        <time>2023-12-27T15:29:49Z</time>
      </trkpt>
      <trkpt lat="49.96173" lon="2.31924">
        <ele>93.2</ele>
        <time>2023-12-27T15:29:50Z</time>
      </trkpt>
      <trkpt lat="49.96172" lon="2.31921">
        <ele>93.2</ele>
        <time>2023-12-27T15:29:51Z</time>
      </trkpt>
      <trkpt lat="49.96171" lon="2.31921">
        <ele>93.2</ele>
        <time>2023-12-27T15:29:53Z</time>
      </trkpt>
      <trkpt lat="49.96171" lon="2.3192">
        <ele>93.2</ele>
        <time>2023-12-27T15:29:54Z</time>
      </trkpt>
      <trkpt lat="49.96169" lon="2.31918">
        <ele>93.3</ele>
        <time>2023-12-27T15:29:55Z</time>
      </trkpt>
      <trkpt lat="49.96168" lon="2.31917">
        <ele>93.3</ele>
        <time>2023-12-27T15:29:56Z</time>
      </trkpt>
      <trkpt lat="49.96168" lon="2.31916">
        <ele>93.3</ele>
        <time>2023-12-27T15:29:57Z</time>
      </trkpt>
      <trkpt lat="49.96166" lon="2.31915">
        <ele>93.3</ele>
        <time>2023-12-27T15:29:58Z</time>
      </trkpt>
      <trkpt lat="49.96165" lon="2.31914">
        <ele>93.3</ele>
        <time>2023-12-27T15:29:59Z</time>
      </trkpt>
      <trkpt lat="49.96164" lon="2.31912">
        <ele>93.3</ele>
        <time>2023-12-27T15:30:00Z</time>
      </trkpt>
      <trkpt lat="49.96163" lon="2.31911">
        <ele>93.4</ele>
        <time>2023-12-27T15:30:02Z</time>
      </trkpt>
      <trkpt lat="49.96163" lon="2.3191">
        <ele>93.4</ele>
        <time>2023-12-27T15:30:03Z</time>
      </trkpt>
      <trkpt lat="49.96161" lon="2.31908">
        <ele>93.4</ele>
        <time>2023-12-27T15:30:04Z</time>
      </trkpt>
      <trkpt lat="49.9616" lon="2.31907">
        <ele>93.4</ele>
        <time>2023-12-27T15:30:05Z</time>
      </trkpt>
      <trkpt lat="49.9616" lon="2.31906">
        <ele>93.4</ele>
        <time>2023-12-27T15:30:06Z</time>
      </trkpt>
      <trkpt lat="49.96159" lon="2.31905">
        <ele>93.4</ele>
        <time>2023-12-27T15:30:07Z</time>
      </trkpt>
      <trkpt lat="49.96158" lon="2.31903">
        <ele>93.4</ele>
        <time>2023-12-27T15:30:08Z</time>
      </trkpt>
      <trkpt lat="49.96157" lon="2.31902">
        <ele>93.5</ele>
        <time>2023-12-27T15:30:10Z</time>
      </trkpt>
      <trkpt lat="49.96156" lon="2.31901">
        <ele>93.5</ele>
        <time>2023-12-27T15:30:11Z</time>
      </trkpt>
      <trkpt lat="49.96155" lon="2.319">
        <ele>93.5</ele>
        <time>2023-12-27T15:30:12Z</time>
      </trkpt>
      <trkpt lat="49.96154" lon="2.31898">
        <ele>93.5</ele>
        <time>2023-12-27T15:30:13Z</time>
      </trkpt>
      <trkpt lat="49.96153" lon="2.31897">
        <ele>93.5</ele>
        <time>2023-12-27T15:30:14Z</time>
      </trkpt>
      <trkpt lat="49.96152" lon="2.31896">
        <ele>93.5</ele>
        <time>2023-12-27T15:30:15Z</time>
      </trkpt>
      <trkpt lat="49.96151" lon="2.31894">
        <ele>93.6</ele>
        <time>2023-12-27T15:30:17Z</time>
      </trkpt>
      <trkpt lat="49.9615" lon="2.31893">
        <ele>93.6</ele>
        <time>2023-12-27T15:30:18Z</time>
      </trkpt>
      <trkpt lat="49.96149" lon="2.31892">
        <ele>93.6</ele>
        <time>2023-12-27T15:30:19Z</time>
      </trkpt>
      <trkpt lat="49.96148" lon="2.3189">
        <ele>93.6</ele>
        <time>2023-12-27T15:30:20Z</time>
      </trkpt>
      <trkpt lat="49.96148" lon="2.31889">
        <ele>93.6</ele>
        <time>2023-12-27T15:30:21Z</time>
      </trkpt>
      <trkpt lat="49.96147" lon="2.31888">
        <ele>93.6</ele>
        <time>2023-12-27T15:30:22Z</time>
      </trkpt>
      <trkpt lat="49.96146" lon="2.31887">
        <ele>93.6</ele>
        <time>2023-12-27T15:30:23Z</time>
      </trkpt>
      <trkpt lat="49.96145" lon="2.31885">
        <ele>93.6</ele>
        <time>2023-12-27T15:30:24Z</time>
      </trkpt>
      <trkpt lat="49.96144" lon="2.31884">
        <ele>93.7</ele>
        <time>2023-12-27T15:30:26Z</time>
      </trkpt>
      <trkpt lat="49.96142" lon="2.31882">
        <ele>93.7</ele>
        <time>2023-12-27T15:30:27Z</time>
      </trkpt>
      <trkpt lat="49.96142" lon="2.31882">
        <ele>93.7</ele>
        <time>2023-12-27T15:30:28Z</time>
      </trkpt>
      <trkpt lat="49.96141" lon="2.31881">
        <ele>93.7</ele>
        <time>2023-12-27T15:30:29Z</time>
      </trkpt>
      <trkpt lat="49.9614" lon="2.3188">
        <ele>93.7</ele>
        <time>2023-12-27T15:30:30Z</time>
      </trkpt>
      <trkpt lat="49.96139" lon="2.31879">
        <ele>93.7</ele>
        <time>2023-12-27T15:30:31Z</time>
      </trkpt>
      <trkpt lat="49.96137" lon="2.31876">
        <ele>93.8</ele>
        <time>2023-12-27T15:30:33Z</time>
      </trkpt>
      <trkpt lat="49.96136" lon="2.31876">
        <ele>93.8</ele>
        <time>2023-12-27T15:30:34Z</time>
      </trkpt>
      <trkpt lat="49.96136" lon="2.31875">
        <ele>93.8</ele>
        <time>2023-12-27T15:30:35Z</time>
      </trkpt>
      <trkpt lat="49.96135" lon="2.31873">
        <ele>93.8</ele>
        <time>2023-12-27T15:30:36Z</time>
      </trkpt>
      <trkpt lat="49.96134" lon="2.31872">
        <ele>93.8</ele>
        <time>2023-12-27T15:30:37Z</time>
      </trkpt>
      <trkpt lat="49.96133" lon="2.3187">
        <ele>93.8</ele>
        <time>2023-12-27T15:30:38Z</time>
      </trkpt>
      <trkpt lat="49.96132" lon="2.31869">
        <ele>93.8</ele>
        <time>2023-12-27T15:30:39Z</time>
      </trkpt>
      <trkpt lat="49.96131" lon="2.31868">
        <ele>93.9</ele>
        <time>2023-12-27T15:30:41Z</time>
      </trkpt>
      <trkpt lat="49.9613" lon="2.31866">
        <ele>93.9</ele>
        <time>2023-12-27T15:30:42Z</time>
      </trkpt>
      <trkpt lat="49.96129" lon="2.31865">
        <ele>93.9</ele>
        <time>2023-12-27T15:30:43Z</time>
      </trkpt>
      <trkpt lat="49.96128" lon="2.31864">
        <ele>93.9</ele>
        <time>2023-12-27T15:30:44Z</time>
      </trkpt>
      <trkpt lat="49.96127" lon="2.31862">
        <ele>93.9</ele>
        <time>2023-12-27T15:30:45Z</time>
      </trkpt>
      <trkpt lat="49.96127" lon="2.31861">
        <ele>93.9</ele>
        <time>2023-12-27T15:30:46Z</time>
      </trkpt>
      <trkpt lat="49.96126" lon="2.3186">
        <ele>93.9</ele>
        <time>2023-12-27T15:30:48Z</time>
      </trkpt>
      <trkpt lat="49.96125" lon="2.31859">
        <ele>94</ele>
        <time>2023-12-27T15:30:49Z</time>
      </trkpt>
      <trkpt lat="49.96124" lon="2.31858">
        <ele>94</ele>
        <time>2023-12-27T15:30:50Z</time>
      </trkpt>
      <trkpt lat="49.96123" lon="2.31856">
        <ele>94</ele>
        <time>2023-12-27T15:30:51Z</time>
      </trkpt>
      <trkpt lat="49.96121" lon="2.31854">
        <ele>94</ele>
        <time>2023-12-27T15:30:52Z</time>
      </trkpt>
      <trkpt lat="49.96121" lon="2.31853">
        <ele>94</ele>
        <time>2023-12-27T15:30:54Z</time>
      </trkpt>
      <trkpt lat="49.9612" lon="2.31852">
        <ele>94</ele>
        <time>2023-12-27T15:30:55Z</time>
      </trkpt>
      <trkpt lat="49.96118" lon="2.3185">
        <ele>94</ele>
        <time>2023-12-27T15:30:56Z</time>
      </trkpt>
      <trkpt lat="49.96118" lon="2.3185">
        <ele>94.1</ele>
        <time>2023-12-27T15:30:57Z</time>
      </trkpt>
      <trkpt lat="49.96117" lon="2.31849">
        <ele>94.1</ele>
        <time>2023-12-27T15:30:58Z</time>
      </trkpt>
      <trkpt lat="49.96116" lon="2.31847">
        <ele>94.1</ele>
        <time>2023-12-27T15:30:59Z</time>
      </trkpt>
      <trkpt lat="49.96115" lon="2.31846">
        <ele>94.1</ele>
        <time>2023-12-27T15:31:01Z</time>
      </trkpt>
      <trkpt lat="49.96114" lon="2.31845">
        <ele>94.1</ele>
        <time>2023-12-27T15:31:02Z</time>
      </trkpt>
      <trkpt lat="49.96113" lon="2.31844">
        <ele>94.1</ele>
        <time>2023-12-27T15:31:03Z</time>
      </trkpt>
      <trkpt lat="49.96112" lon="2.31843">
        <ele>94.1</ele>
        <time>2023-12-27T15:31:04Z</time>
      </trkpt>
      <trkpt lat="49.96111" lon="2.31842">
        <ele>94.1</ele>
        <time>2023-12-27T15:31:05Z</time>
      </trkpt>
      <trkpt lat="49.9611" lon="2.31841">
        <ele>94.1</ele>
        <time>2023-12-27T15:31:06Z</time>
      </trkpt>
      <trkpt lat="49.96109" lon="2.3184">
        <ele>94.1</ele>
        <time>2023-12-27T15:31:07Z</time>
      </trkpt>
      <trkpt lat="49.96109" lon="2.31839">
        <ele>94.2</ele>
        <time>2023-12-27T15:31:09Z</time>
      </trkpt>
      <trkpt lat="49.96108" lon="2.31838">
        <ele>94.2</ele>
        <time>2023-12-27T15:31:10Z</time>
      </trkpt>
      <trkpt lat="49.96107" lon="2.31837">
        <ele>94.2</ele>
        <time>2023-12-27T15:31:11Z</time>
      </trkpt>
      <trkpt lat="49.96106" lon="2.31836">
        <ele>94.2</ele>
        <time>2023-12-27T15:31:12Z</time>
      </trkpt>
      <trkpt lat="49.96105" lon="2.31834">
        <ele>94.2</ele>
        <time>2023-12-27T15:31:13Z</time>
      </trkpt>
      <trkpt lat="49.96104" lon="2.31833">
        <ele>94.2</ele>
        <time>2023-12-27T15:31:14Z</time>
      </trkpt>
      <trkpt lat="49.96104" lon="2.31832">
        <ele>94.2</ele>
        <time>2023-12-27T15:31:16Z</time>
      </trkpt>
      <trkpt lat="49.96102" lon="2.3183">
        <ele>94.2</ele>
        <time>2023-12-27T15:31:17Z</time>
      </trkpt>
      <trkpt lat="49.96101" lon="2.31829">
        <ele>94.2</ele>
        <time>2023-12-27T15:31:18Z</time>
      </trkpt>
      <trkpt lat="49.96101" lon="2.31828">
        <ele>94.2</ele>
        <time>2023-12-27T15:31:19Z</time>
      </trkpt>
      <trkpt lat="49.961" lon="2.31827">
        <ele>94.2</ele>
        <time>2023-12-27T15:31:20Z</time>
      </trkpt>
      <trkpt lat="49.96099" lon="2.31825">
        <ele>94.2</ele>
        <time>2023-12-27T15:31:21Z</time>
      </trkpt>
      <trkpt lat="49.96097" lon="2.31823">
        <ele>94.2</ele>
        <time>2023-12-27T15:31:23Z</time>
      </trkpt>
      <trkpt lat="49.96096" lon="2.31823">
        <ele>94.2</ele>
        <time>2023-12-27T15:31:24Z</time>
      </trkpt>
      <trkpt lat="49.96096" lon="2.31822">
        <ele>94.2</ele>
        <time>2023-12-27T15:31:25Z</time>
      </trkpt>
      <trkpt lat="49.96094" lon="2.3182">
        <ele>94.3</ele>
        <time>2023-12-27T15:31:26Z</time>
      </trkpt>
      <trkpt lat="49.96093" lon="2.31819">
        <ele>94.3</ele>
        <time>2023-12-27T15:31:27Z</time>
      </trkpt>
      <trkpt lat="49.96093" lon="2.31818">
        <ele>94.3</ele>
        <time>2023-12-27T15:31:28Z</time>
      </trkpt>
      <trkpt lat="49.96091" lon="2.31816">
        <ele>94.3</ele>
        <time>2023-12-27T15:31:30Z</time>
      </trkpt>
      <trkpt lat="49.96091" lon="2.31815">
        <ele>94.3</ele>
        <time>2023-12-27T15:31:31Z</time>
      </trkpt>
      <trkpt lat="49.9609" lon="2.31814">
        <ele>94.3</ele>
        <time>2023-12-27T15:31:32Z</time>
      </trkpt>
      <trkpt lat="49.96089" lon="2.31813">
        <ele>94.3</ele>
        <time>2023-12-27T15:31:33Z</time>
      </trkpt>
      <trkpt lat="49.96089" lon="2.31812">
        <ele>94.3</ele>
        <time>2023-12-27T15:31:34Z</time>
      </trkpt>
      <trkpt lat="49.96088" lon="2.3181">
        <ele>94.3</ele>
        <time>2023-12-27T15:31:35Z</time>
      </trkpt>
      <trkpt lat="49.96086" lon="2.31808">
        <ele>94.3</ele>
        <time>2023-12-27T15:31:36Z</time>
      </trkpt>
      <trkpt lat="49.96085" lon="2.31807">
        <ele>94.3</ele>
        <time>2023-12-27T15:31:38Z</time>
      </trkpt>
      <trkpt lat="49.96084" lon="2.31807">
        <ele>94.3</ele>
        <time>2023-12-27T15:31:39Z</time>
      </trkpt>
      <trkpt lat="49.96084" lon="2.31805">
        <ele>94.3</ele>
        <time>2023-12-27T15:31:40Z</time>
      </trkpt>
      <trkpt lat="49.96083" lon="2.31803">
        <ele>94.3</ele>
        <time>2023-12-27T15:31:41Z</time>
      </trkpt>
      <trkpt lat="49.96081" lon="2.31802">
        <ele>94.3</ele>
        <time>2023-12-27T15:31:42Z</time>
      </trkpt>
      <trkpt lat="49.9608" lon="2.318">
        <ele>94.3</ele>
        <time>2023-12-27T15:31:43Z</time>
      </trkpt>
      <trkpt lat="49.96079" lon="2.31798">
        <ele>94.3</ele>
        <time>2023-12-27T15:31:44Z</time>
      </trkpt>
      <trkpt lat="49.96078" lon="2.31797">
        <ele>94.3</ele>
        <time>2023-12-27T15:31:46Z</time>
      </trkpt>
      <trkpt lat="49.96077" lon="2.31796">
        <ele>94.3</ele>
        <time>2023-12-27T15:31:47Z</time>
      </trkpt>
      <trkpt lat="49.96076" lon="2.31794">
        <ele>94.3</ele>
        <time>2023-12-27T15:31:48Z</time>
      </trkpt>
      <trkpt lat="49.96075" lon="2.31793">
        <ele>94.3</ele>
        <time>2023-12-27T15:31:49Z</time>
      </trkpt>
      <trkpt lat="49.96074" lon="2.31792">
        <ele>94.3</ele>
        <time>2023-12-27T15:31:50Z</time>
      </trkpt>
      <trkpt lat="49.96073" lon="2.31791">
        <ele>94.3</ele>
        <time>2023-12-27T15:31:51Z</time>
      </trkpt>
      <trkpt lat="49.96072" lon="2.3179">
        <ele>94.3</ele>
        <time>2023-12-27T15:31:52Z</time>
      </trkpt>
      <trkpt lat="49.96071" lon="2.3179">
        <ele>94.3</ele>
        <time>2023-12-27T15:31:54Z</time>
      </trkpt>
      <trkpt lat="49.9607" lon="2.31789">
        <ele>94.3</ele>
        <time>2023-12-27T15:31:55Z</time>
      </trkpt>
      <trkpt lat="49.96069" lon="2.31788">
        <ele>94.3</ele>
        <time>2023-12-27T15:31:56Z</time>
      </trkpt>
      <trkpt lat="49.96068" lon="2.31787">
        <ele>94.3</ele>
        <time>2023-12-27T15:31:57Z</time>
      </trkpt>
      <trkpt lat="49.96066" lon="2.31785">
        <ele>94.3</ele>
        <time>2023-12-27T15:31:58Z</time>
      </trkpt>
      <trkpt lat="49.96066" lon="2.31784">
        <ele>94.3</ele>
        <time>2023-12-27T15:31:59Z</time>
      </trkpt>
      <trkpt lat="49.96065" lon="2.31783">
        <ele>94.3</ele>
        <time>2023-12-27T15:32:00Z</time>
      </trkpt>
      <trkpt lat="49.96064" lon="2.31782">
        <ele>94.3</ele>
        <time>2023-12-27T15:32:01Z</time>
      </trkpt>
      <trkpt lat="49.96063" lon="2.31781">
        <ele>94.3</ele>
        <time>2023-12-27T15:32:03Z</time>
      </trkpt>
      <trkpt lat="49.96063" lon="2.3178">
        <ele>94.3</ele>
        <time>2023-12-27T15:32:04Z</time>
      </trkpt>
      <trkpt lat="49.96062" lon="2.31778">
        <ele>94.3</ele>
        <time>2023-12-27T15:32:05Z</time>
      </trkpt>
      <trkpt lat="49.96061" lon="2.31777">
        <ele>94.3</ele>
        <time>2023-12-27T15:32:06Z</time>
      </trkpt>
      <trkpt lat="49.9606" lon="2.31775">
        <ele>94.3</ele>
        <time>2023-12-27T15:32:07Z</time>
      </trkpt>
      <trkpt lat="49.96059" lon="2.31773">
        <ele>94.3</ele>
        <time>2023-12-27T15:32:08Z</time>
      </trkpt>
      <trkpt lat="49.96058" lon="2.31772">
        <ele>94.3</ele>
        <time>2023-12-27T15:32:09Z</time>
      </trkpt>
      <trkpt lat="49.96058" lon="2.31771">
        <ele>94.3</ele>
        <time>2023-12-27T15:32:10Z</time>
      </trkpt>
      <trkpt lat="49.96057" lon="2.3177">
        <ele>94.3</ele>
        <time>2023-12-27T15:32:11Z</time>
      </trkpt>
      <trkpt lat="49.96056" lon="2.31769">
        <ele>94.3</ele>
        <time>2023-12-27T15:32:13Z</time>
      </trkpt>
      <trkpt lat="49.96055" lon="2.31767">
        <ele>94.3</ele>
        <time>2023-12-27T15:32:14Z</time>
      </trkpt>
      <trkpt lat="49.96054" lon="2.31765">
        <ele>94.3</ele>
        <time>2023-12-27T15:32:15Z</time>
      </trkpt>
      <trkpt lat="49.96053" lon="2.31764">
        <ele>94.3</ele>
        <time>2023-12-27T15:32:16Z</time>
      </trkpt>
      <trkpt lat="49.96052" lon="2.31764">
        <ele>94.3</ele>
        <time>2023-12-27T15:32:17Z</time>
      </trkpt>
      <trkpt lat="49.96051" lon="2.31762">
        <ele>94.3</ele>
        <time>2023-12-27T15:32:18Z</time>
      </trkpt>
      <trkpt lat="49.9605" lon="2.3176">
        <ele>94.3</ele>
        <time>2023-12-27T15:32:19Z</time>
      </trkpt>
      <trkpt lat="49.96049" lon="2.31759">
        <ele>94.3</ele>
        <time>2023-12-27T15:32:21Z</time>
      </trkpt>
      <trkpt lat="49.96048" lon="2.31758">
        <ele>94.3</ele>
        <time>2023-12-27T15:32:22Z</time>
      </trkpt>
      <trkpt lat="49.96047" lon="2.31757">
        <ele>94.3</ele>
        <time>2023-12-27T15:32:23Z</time>
      </trkpt>
      <trkpt lat="49.96047" lon="2.31756">
        <ele>94.3</ele>
        <time>2023-12-27T15:32:24Z</time>
      </trkpt>
      <trkpt lat="49.96045" lon="2.31755">
        <ele>94.3</ele>
        <time>2023-12-27T15:32:25Z</time>
      </trkpt>
      <trkpt lat="49.96044" lon="2.31754">
        <ele>94.3</ele>
        <time>2023-12-27T15:32:26Z</time>
      </trkpt>
      <trkpt lat="49.96043" lon="2.31751">
        <ele>94.3</ele>
        <time>2023-12-27T15:32:27Z</time>
      </trkpt>
      <trkpt lat="49.96042" lon="2.31751">
        <ele>94.3</ele>
        <time>2023-12-27T15:32:29Z</time>
      </trkpt>
      <trkpt lat="49.96042" lon="2.3175">
        <ele>94.3</ele>
        <time>2023-12-27T15:32:30Z</time>
      </trkpt>
      <trkpt lat="49.9604" lon="2.31748">
        <ele>94.3</ele>
        <time>2023-12-27T15:32:31Z</time>
      </trkpt>
      <trkpt lat="49.96039" lon="2.31747">
        <ele>94.3</ele>
        <time>2023-12-27T15:32:32Z</time>
      </trkpt>
      <trkpt lat="49.96039" lon="2.31746">
        <ele>94.3</ele>
        <time>2023-12-27T15:32:33Z</time>
      </trkpt>
      <trkpt lat="49.96038" lon="2.31744">
        <ele>94.3</ele>
        <time>2023-12-27T15:32:34Z</time>
      </trkpt>
      <trkpt lat="49.96037" lon="2.31743">
        <ele>94.3</ele>
        <time>2023-12-27T15:32:35Z</time>
      </trkpt>
      <trkpt lat="49.96036" lon="2.31742">
        <ele>94.3</ele>
        <time>2023-12-27T15:32:37Z</time>
      </trkpt>
      <trkpt lat="49.96035" lon="2.31741">
        <ele>94.3</ele>
        <time>2023-12-27T15:32:38Z</time>
      </trkpt>
      <trkpt lat="49.96034" lon="2.3174">
        <ele>94.3</ele>
        <time>2023-12-27T15:32:39Z</time>
      </trkpt>
      <trkpt lat="49.96033" lon="2.31739">
        <ele>94.3</ele>
        <time>2023-12-27T15:32:41Z</time>
      </trkpt>
      <trkpt lat="49.96033" lon="2.31737">
        <ele>94.3</ele>
        <time>2023-12-27T15:32:42Z</time>
      </trkpt>
      <trkpt lat="49.96032" lon="2.31737">
        <ele>94.3</ele>
        <time>2023-12-27T15:32:43Z</time>
      </trkpt>
      <trkpt lat="49.96031" lon="2.31736">
        <ele>94.3</ele>
        <time>2023-12-27T15:32:44Z</time>
      </trkpt>
      <trkpt lat="49.96031" lon="2.31735">
        <ele>94.3</ele>
        <time>2023-12-27T15:32:45Z</time>
      </trkpt>
      <trkpt lat="49.9603" lon="2.31734">
        <ele>94.3</ele>
        <time>2023-12-27T15:32:46Z</time>
      </trkpt>
      <trkpt lat="49.96029" lon="2.31733">
        <ele>94.3</ele>
        <time>2023-12-27T15:32:47Z</time>
      </trkpt>
      <trkpt lat="49.96028" lon="2.31732">
        <ele>94.3</ele>
        <time>2023-12-27T15:32:48Z</time>
      </trkpt>
      <trkpt lat="49.96027" lon="2.3173">
        <ele>94.3</ele>
        <time>2023-12-27T15:32:49Z</time>
      </trkpt>
      <trkpt lat="49.96026" lon="2.31729">
        <ele>94.3</ele>
        <time>2023-12-27T15:32:51Z</time>
      </trkpt>
      <trkpt lat="49.96024" lon="2.31727">
        <ele>94.3</ele>
        <time>2023-12-27T15:32:52Z</time>
      </trkpt>
      <trkpt lat="49.96024" lon="2.31726">
        <ele>94.3</ele>
        <time>2023-12-27T15:32:53Z</time>
      </trkpt>
      <trkpt lat="49.96023" lon="2.31725">
        <ele>94.3</ele>
        <time>2023-12-27T15:32:54Z</time>
      </trkpt>
      <trkpt lat="49.96021" lon="2.31724">
        <ele>94.3</ele>
        <time>2023-12-27T15:32:55Z</time>
      </trkpt>
      <trkpt lat="49.96021" lon="2.31723">
        <ele>94.3</ele>
        <time>2023-12-27T15:32:56Z</time>
      </trkpt>
      <trkpt lat="49.9602" lon="2.31722">
        <ele>94.2</ele>
        <time>2023-12-27T15:32:57Z</time>
      </trkpt>
      <trkpt lat="49.96019" lon="2.31721">
        <ele>94.2</ele>
        <time>2023-12-27T15:32:58Z</time>
      </trkpt>
      <trkpt lat="49.96018" lon="2.31719">
        <ele>94.2</ele>
        <time>2023-12-27T15:33:00Z</time>
      </trkpt>
      <trkpt lat="49.96017" lon="2.31718">
        <ele>94.2</ele>
        <time>2023-12-27T15:33:01Z</time>
      </trkpt>
      <trkpt lat="49.96017" lon="2.31717">
        <ele>94.2</ele>
        <time>2023-12-27T15:33:02Z</time>
      </trkpt>
      <trkpt lat="49.96016" lon="2.31716">
        <ele>94.2</ele>
        <time>2023-12-27T15:33:03Z</time>
      </trkpt>
      <trkpt lat="49.96015" lon="2.31714">
        <ele>94.2</ele>
        <time>2023-12-27T15:33:04Z</time>
      </trkpt>
      <trkpt lat="49.96014" lon="2.31713">
        <ele>94.2</ele>
        <time>2023-12-27T15:33:05Z</time>
      </trkpt>
      <trkpt lat="49.96013" lon="2.31712">
        <ele>94.2</ele>
        <time>2023-12-27T15:33:06Z</time>
      </trkpt>
      <trkpt lat="49.96012" lon="2.3171">
        <ele>94.2</ele>
        <time>2023-12-27T15:33:08Z</time>
      </trkpt>
      <trkpt lat="49.96012" lon="2.31709">
        <ele>94.2</ele>
        <time>2023-12-27T15:33:09Z</time>
      </trkpt>
      <trkpt lat="49.96011" lon="2.31708">
        <ele>94.2</ele>
        <time>2023-12-27T15:33:10Z</time>
      </trkpt>
      <trkpt lat="49.9601" lon="2.31707">
        <ele>94.2</ele>
        <time>2023-12-27T15:33:11Z</time>
      </trkpt>
      <trkpt lat="49.96009" lon="2.31706">
        <ele>94.2</ele>
        <time>2023-12-27T15:33:13Z</time>
      </trkpt>
      <trkpt lat="49.96008" lon="2.31704">
        <ele>94.2</ele>
        <time>2023-12-27T15:33:14Z</time>
      </trkpt>
      <trkpt lat="49.96007" lon="2.31703">
        <ele>94.2</ele>
        <time>2023-12-27T15:33:15Z</time>
      </trkpt>
      <trkpt lat="49.96007" lon="2.31702">
        <ele>94.2</ele>
        <time>2023-12-27T15:33:16Z</time>
      </trkpt>
      <trkpt lat="49.96006" lon="2.31701">
        <ele>94.2</ele>
        <time>2023-12-27T15:33:17Z</time>
      </trkpt>
      <trkpt lat="49.96005" lon="2.31699">
        <ele>94.2</ele>
        <time>2023-12-27T15:33:18Z</time>
      </trkpt>
      <trkpt lat="49.96004" lon="2.31698">
        <ele>94.2</ele>
        <time>2023-12-27T15:33:19Z</time>
      </trkpt>
      <trkpt lat="49.96003" lon="2.31697">
        <ele>94.2</ele>
        <time>2023-12-27T15:33:21Z</time>
      </trkpt>
      <trkpt lat="49.96001" lon="2.31694">
        <ele>94.2</ele>
        <time>2023-12-27T15:33:22Z</time>
      </trkpt>
      <trkpt lat="49.96001" lon="2.31693">
        <ele>94.2</ele>
        <time>2023-12-27T15:33:23Z</time>
      </trkpt>
      <trkpt lat="49.96" lon="2.31692">
        <ele>94.2</ele>
        <time>2023-12-27T15:33:24Z</time>
      </trkpt>
      <trkpt lat="49.95999" lon="2.3169">
        <ele>94.2</ele>
        <time>2023-12-27T15:33:25Z</time>
      </trkpt>
      <trkpt lat="49.95998" lon="2.31689">
        <ele>94.2</ele>
        <time>2023-12-27T15:33:26Z</time>
      </trkpt>
      <trkpt lat="49.95997" lon="2.31688">
        <ele>94.2</ele>
        <time>2023-12-27T15:33:27Z</time>
      </trkpt>
      <trkpt lat="49.95996" lon="2.31686">
        <ele>94.2</ele>
        <time>2023-12-27T15:33:29Z</time>
      </trkpt>
      <trkpt lat="49.95995" lon="2.31685">
        <ele>94.2</ele>
        <time>2023-12-27T15:33:30Z</time>
      </trkpt>
      <trkpt lat="49.95994" lon="2.31685">
        <ele>94.2</ele>
        <time>2023-12-27T15:33:31Z</time>
      </trkpt>
      <trkpt lat="49.95994" lon="2.31684">
        <ele>94.2</ele>
        <time>2023-12-27T15:33:32Z</time>
      </trkpt>
      <trkpt lat="49.95993" lon="2.31683">
        <ele>94.2</ele>
        <time>2023-12-27T15:33:33Z</time>
      </trkpt>
      <trkpt lat="49.95992" lon="2.31682">
        <ele>94.2</ele>
        <time>2023-12-27T15:33:34Z</time>
      </trkpt>
      <trkpt lat="49.9599" lon="2.3168">
        <ele>94.2</ele>
        <time>2023-12-27T15:33:35Z</time>
      </trkpt>
      <trkpt lat="49.9599" lon="2.31679">
        <ele>94.2</ele>
        <time>2023-12-27T15:33:37Z</time>
      </trkpt>
      <trkpt lat="49.95989" lon="2.31678">
        <ele>94.2</ele>
        <time>2023-12-27T15:33:38Z</time>
      </trkpt>
      <trkpt lat="49.95988" lon="2.31677">
        <ele>94.2</ele>
        <time>2023-12-27T15:33:39Z</time>
      </trkpt>
      <trkpt lat="49.95987" lon="2.31676">
        <ele>94.2</ele>
        <time>2023-12-27T15:33:40Z</time>
      </trkpt>
      <trkpt lat="49.95986" lon="2.31674">
        <ele>94.2</ele>
        <time>2023-12-27T15:33:41Z</time>
      </trkpt>
      <trkpt lat="49.95985" lon="2.31673">
        <ele>94.3</ele>
        <time>2023-12-27T15:33:42Z</time>
      </trkpt>
      <trkpt lat="49.95985" lon="2.31672">
        <ele>94.3</ele>
        <time>2023-12-27T15:33:43Z</time>
      </trkpt>
      <trkpt lat="49.95984" lon="2.31671">
        <ele>94.3</ele>
        <time>2023-12-27T15:33:44Z</time>
      </trkpt>
      <trkpt lat="49.95982" lon="2.31669">
        <ele>94.3</ele>
        <time>2023-12-27T15:33:46Z</time>
      </trkpt>
      <trkpt lat="49.95981" lon="2.31668">
        <ele>94.3</ele>
        <time>2023-12-27T15:33:47Z</time>
      </trkpt>
      <trkpt lat="49.95981" lon="2.31667">
        <ele>94.3</ele>
        <time>2023-12-27T15:33:48Z</time>
      </trkpt>
      <trkpt lat="49.9598" lon="2.31666">
        <ele>94.3</ele>
        <time>2023-12-27T15:33:49Z</time>
      </trkpt>
      <trkpt lat="49.95979" lon="2.31665">
        <ele>94.3</ele>
        <time>2023-12-27T15:33:50Z</time>
      </trkpt>
      <trkpt lat="49.95978" lon="2.31664">
        <ele>94.3</ele>
        <time>2023-12-27T15:33:51Z</time>
      </trkpt>
      <trkpt lat="49.95977" lon="2.31661">
        <ele>94.3</ele>
        <time>2023-12-27T15:33:52Z</time>
      </trkpt>
      <trkpt lat="49.95976" lon="2.3166">
        <ele>94.3</ele>
        <time>2023-12-27T15:33:53Z</time>
      </trkpt>
      <trkpt lat="49.95975" lon="2.31659">
        <ele>94.3</ele>
        <time>2023-12-27T15:33:54Z</time>
      </trkpt>
      <trkpt lat="49.95975" lon="2.31657">
        <ele>94.3</ele>
        <time>2023-12-27T15:33:56Z</time>
      </trkpt>
      <trkpt lat="49.95974" lon="2.31656">
        <ele>94.3</ele>
        <time>2023-12-27T15:33:57Z</time>
      </trkpt>
      <trkpt lat="49.95972" lon="2.31654">
        <ele>94.3</ele>
        <time>2023-12-27T15:33:58Z</time>
      </trkpt>
      <trkpt lat="49.95971" lon="2.31653">
        <ele>94.3</ele>
        <time>2023-12-27T15:33:59Z</time>
      </trkpt>
      <trkpt lat="49.95971" lon="2.31652">
        <ele>94.3</ele>
        <time>2023-12-27T15:34:00Z</time>
      </trkpt>
      <trkpt lat="49.95969" lon="2.3165">
        <ele>94.3</ele>
        <time>2023-12-27T15:34:01Z</time>
      </trkpt>
      <trkpt lat="49.95968" lon="2.31649">
        <ele>94.3</ele>
        <time>2023-12-27T15:34:02Z</time>
      </trkpt>
      <trkpt lat="49.95968" lon="2.31648">
        <ele>94.3</ele>
        <time>2023-12-27T15:34:03Z</time>
      </trkpt>
      <trkpt lat="49.95967" lon="2.31647">
        <ele>94.3</ele>
        <time>2023-12-27T15:34:05Z</time>
      </trkpt>
      <trkpt lat="49.95965" lon="2.31646">
        <ele>94.3</ele>
        <time>2023-12-27T15:34:06Z</time>
      </trkpt>
      <trkpt lat="49.95963" lon="2.31644">
        <ele>94.4</ele>
        <time>2023-12-27T15:34:07Z</time>
      </trkpt>
      <trkpt lat="49.95963" lon="2.31643">
        <ele>94.4</ele>
        <time>2023-12-27T15:34:08Z</time>
      </trkpt>
      <trkpt lat="49.95962" lon="2.31643">
        <ele>94.4</ele>
        <time>2023-12-27T15:34:09Z</time>
      </trkpt>
      <trkpt lat="49.9596" lon="2.3164">
        <ele>94.4</ele>
        <time>2023-12-27T15:34:11Z</time>
      </trkpt>
      <trkpt lat="49.95959" lon="2.3164">
        <ele>94.4</ele>
        <time>2023-12-27T15:34:12Z</time>
      </trkpt>
      <trkpt lat="49.95959" lon="2.31639">
        <ele>94.4</ele>
        <time>2023-12-27T15:34:13Z</time>
      </trkpt>
      <trkpt lat="49.95958" lon="2.31637">
        <ele>94.4</ele>
        <time>2023-12-27T15:34:14Z</time>
      </trkpt>
      <trkpt lat="49.95957" lon="2.31636">
        <ele>94.4</ele>
        <time>2023-12-27T15:34:15Z</time>
      </trkpt>
      <trkpt lat="49.95955" lon="2.31634">
        <ele>94.4</ele>
        <time>2023-12-27T15:34:16Z</time>
      </trkpt>
      <trkpt lat="49.95954" lon="2.31633">
        <ele>94.4</ele>
        <time>2023-12-27T15:34:17Z</time>
      </trkpt>
      <trkpt lat="49.95954" lon="2.31632">
        <ele>94.4</ele>
        <time>2023-12-27T15:34:18Z</time>
      </trkpt>
      <trkpt lat="49.95952" lon="2.3163">
        <ele>94.4</ele>
        <time>2023-12-27T15:34:19Z</time>
      </trkpt>
      <trkpt lat="49.95952" lon="2.31629">
        <ele>94.4</ele>
        <time>2023-12-27T15:34:21Z</time>
      </trkpt>
      <trkpt lat="49.95951" lon="2.31628">
        <ele>94.4</ele>
        <time>2023-12-27T15:34:22Z</time>
      </trkpt>
      <trkpt lat="49.9595" lon="2.31627">
        <ele>94.4</ele>
        <time>2023-12-27T15:34:23Z</time>
      </trkpt>
      <trkpt lat="49.95949" lon="2.31626">
        <ele>94.4</ele>
        <time>2023-12-27T15:34:24Z</time>
      </trkpt>
      <trkpt lat="49.95947" lon="2.31623">
        <ele>94.4</ele>
        <time>2023-12-27T15:34:25Z</time>
      </trkpt>
      <trkpt lat="49.95947" lon="2.31622">
        <ele>94.4</ele>
        <time>2023-12-27T15:34:26Z</time>
      </trkpt>
      <trkpt lat="49.95946" lon="2.31621">
        <ele>94.4</ele>
        <time>2023-12-27T15:34:27Z</time>
      </trkpt>
      <trkpt lat="49.95944" lon="2.31619">
        <ele>94.4</ele>
        <time>2023-12-27T15:34:28Z</time>
      </trkpt>
      <trkpt lat="49.95944" lon="2.31618">
        <ele>94.4</ele>
        <time>2023-12-27T15:34:29Z</time>
      </trkpt>
      <trkpt lat="49.95943" lon="2.31617">
        <ele>94.4</ele>
        <time>2023-12-27T15:34:30Z</time>
      </trkpt>
      <trkpt lat="49.95942" lon="2.31615">
        <ele>94.4</ele>
        <time>2023-12-27T15:34:31Z</time>
      </trkpt>
      <trkpt lat="49.95941" lon="2.31614">
        <ele>94.4</ele>
        <time>2023-12-27T15:34:33Z</time>
      </trkpt>
      <trkpt lat="49.9594" lon="2.31613">
        <ele>94.4</ele>
        <time>2023-12-27T15:34:34Z</time>
      </trkpt>
      <trkpt lat="49.95939" lon="2.3161">
        <ele>94.4</ele>
        <time>2023-12-27T15:34:35Z</time>
      </trkpt>
      <trkpt lat="49.95938" lon="2.3161">
        <ele>94.4</ele>
        <time>2023-12-27T15:34:36Z</time>
      </trkpt>
      <trkpt lat="49.95938" lon="2.31609">
        <ele>94.4</ele>
        <time>2023-12-27T15:34:37Z</time>
      </trkpt>
      <trkpt lat="49.95937" lon="2.31607">
        <ele>94.4</ele>
        <time>2023-12-27T15:34:38Z</time>
      </trkpt>
      <trkpt lat="49.95936" lon="2.31606">
        <ele>94.4</ele>
        <time>2023-12-27T15:34:39Z</time>
      </trkpt>
      <trkpt lat="49.95935" lon="2.31605">
        <ele>94.4</ele>
        <time>2023-12-27T15:34:40Z</time>
      </trkpt>
      <trkpt lat="49.95934" lon="2.31604">
        <ele>94.4</ele>
        <time>2023-12-27T15:34:42Z</time>
      </trkpt>
      <trkpt lat="49.95933" lon="2.31602">
        <ele>94.4</ele>
        <time>2023-12-27T15:34:43Z</time>
      </trkpt>
      <trkpt lat="49.95933" lon="2.31601">
        <ele>94.4</ele>
        <time>2023-12-27T15:34:44Z</time>
      </trkpt>
      <trkpt lat="49.95932" lon="2.316">
        <ele>94.4</ele>
        <time>2023-12-27T15:34:45Z</time>
      </trkpt>
      <trkpt lat="49.95931" lon="2.31598">
        <ele>94.3</ele>
        <time>2023-12-27T15:34:46Z</time>
      </trkpt>
      <trkpt lat="49.9593" lon="2.31597">
        <ele>94.3</ele>
        <time>2023-12-27T15:34:47Z</time>
      </trkpt>
      <trkpt lat="49.95929" lon="2.31596">
        <ele>94.3</ele>
        <time>2023-12-27T15:34:48Z</time>
      </trkpt>
      <trkpt lat="49.95928" lon="2.31595">
        <ele>94.3</ele>
        <time>2023-12-27T15:34:49Z</time>
      </trkpt>
      <trkpt lat="49.95928" lon="2.31593">
        <ele>94.3</ele>
        <time>2023-12-27T15:34:50Z</time>
      </trkpt>
      <trkpt lat="49.95927" lon="2.31592">
        <ele>94.3</ele>
        <time>2023-12-27T15:34:52Z</time>
      </trkpt>
      <trkpt lat="49.95926" lon="2.31591">
        <ele>94.3</ele>
        <time>2023-12-27T15:34:53Z</time>
      </trkpt>
      <trkpt lat="49.95925" lon="2.31591">
        <ele>94.3</ele>
        <time>2023-12-27T15:34:54Z</time>
      </trkpt>
      <trkpt lat="49.95924" lon="2.3159">
        <ele>94.3</ele>
        <time>2023-12-27T15:34:55Z</time>
      </trkpt>
      <trkpt lat="49.95923" lon="2.31589">
        <ele>94.3</ele>
        <time>2023-12-27T15:34:56Z</time>
      </trkpt>
      <trkpt lat="49.95922" lon="2.31588">
        <ele>94.3</ele>
        <time>2023-12-27T15:34:57Z</time>
      </trkpt>
      <trkpt lat="49.95922" lon="2.31587">
        <ele>94.3</ele>
        <time>2023-12-27T15:34:58Z</time>
      </trkpt>
      <trkpt lat="49.95921" lon="2.31585">
        <ele>94.3</ele>
        <time>2023-12-27T15:34:59Z</time>
      </trkpt>
      <trkpt lat="49.9592" lon="2.31584">
        <ele>94.3</ele>
        <time>2023-12-27T15:35:00Z</time>
      </trkpt>
      <trkpt lat="49.95918" lon="2.31582">
        <ele>94.2</ele>
        <time>2023-12-27T15:35:02Z</time>
      </trkpt>
      <trkpt lat="49.95918" lon="2.31581">
        <ele>94.2</ele>
        <time>2023-12-27T15:35:03Z</time>
      </trkpt>
      <trkpt lat="49.95917" lon="2.3158">
        <ele>94.2</ele>
        <time>2023-12-27T15:35:04Z</time>
      </trkpt>
      <trkpt lat="49.95916" lon="2.31577">
        <ele>94.2</ele>
        <time>2023-12-27T15:35:05Z</time>
      </trkpt>
      <trkpt lat="49.95916" lon="2.31576">
        <ele>94.2</ele>
        <time>2023-12-27T15:35:06Z</time>
      </trkpt>
      <trkpt lat="49.95915" lon="2.31575">
        <ele>94.2</ele>
        <time>2023-12-27T15:35:07Z</time>
      </trkpt>
      <trkpt lat="49.95914" lon="2.31573">
        <ele>94.2</ele>
        <time>2023-12-27T15:35:08Z</time>
      </trkpt>
      <trkpt lat="49.95913" lon="2.31572">
        <ele>94.2</ele>
        <time>2023-12-27T15:35:09Z</time>
      </trkpt>
      <trkpt lat="49.95912" lon="2.31571">
        <ele>94.2</ele>
        <time>2023-12-27T15:35:10Z</time>
      </trkpt>
      <trkpt lat="49.95911" lon="2.31569">
        <ele>94.2</ele>
        <time>2023-12-27T15:35:12Z</time>
      </trkpt>
      <trkpt lat="49.9591" lon="2.31569">
        <ele>94.2</ele>
        <time>2023-12-27T15:35:13Z</time>
      </trkpt>
      <trkpt lat="49.95909" lon="2.31568">
        <ele>94.1</ele>
        <time>2023-12-27T15:35:14Z</time>
      </trkpt>
      <trkpt lat="49.95908" lon="2.31566">
        <ele>94.1</ele>
        <time>2023-12-27T15:35:15Z</time>
      </trkpt>
      <trkpt lat="49.95907" lon="2.31566">
        <ele>94.1</ele>
        <time>2023-12-27T15:35:16Z</time>
      </trkpt>
      <trkpt lat="49.95906" lon="2.31565">
        <ele>94.1</ele>
        <time>2023-12-27T15:35:17Z</time>
      </trkpt>
      <trkpt lat="49.95906" lon="2.31564">
        <ele>94.1</ele>
        <time>2023-12-27T15:35:18Z</time>
      </trkpt>
      <trkpt lat="49.95905" lon="2.31563">
        <ele>94.1</ele>
        <time>2023-12-27T15:35:19Z</time>
      </trkpt>
      <trkpt lat="49.95904" lon="2.31562">
        <ele>94.1</ele>
        <time>2023-12-27T15:35:20Z</time>
      </trkpt>
      <trkpt lat="49.95903" lon="2.31561">
        <ele>94.1</ele>
        <time>2023-12-27T15:35:22Z</time>
      </trkpt>
      <trkpt lat="49.95902" lon="2.3156">
        <ele>94.1</ele>
        <time>2023-12-27T15:35:23Z</time>
      </trkpt>
      <trkpt lat="49.95901" lon="2.31559">
        <ele>94</ele>
        <time>2023-12-27T15:35:24Z</time>
      </trkpt>
      <trkpt lat="49.959" lon="2.31558">
        <ele>94</ele>
        <time>2023-12-27T15:35:25Z</time>
      </trkpt>
      <trkpt lat="49.95899" lon="2.31557">
        <ele>94</ele>
        <time>2023-12-27T15:35:26Z</time>
      </trkpt>
      <trkpt lat="49.95897" lon="2.31555">
        <ele>94</ele>
        <time>2023-12-27T15:35:28Z</time>
      </trkpt>
      <trkpt lat="49.95896" lon="2.31554">
        <ele>94</ele>
        <time>2023-12-27T15:35:29Z</time>
      </trkpt>
      <trkpt lat="49.95895" lon="2.31553">
        <ele>94</ele>
        <time>2023-12-27T15:35:30Z</time>
      </trkpt>
      <trkpt lat="49.95894" lon="2.31552">
        <ele>94</ele>
        <time>2023-12-27T15:35:31Z</time>
      </trkpt>
      <trkpt lat="49.95892" lon="2.3155">
        <ele>93.9</ele>
        <time>2023-12-27T15:35:32Z</time>
      </trkpt>
      <trkpt lat="49.95891" lon="2.31549">
        <ele>93.9</ele>
        <time>2023-12-27T15:35:33Z</time>
      </trkpt>
      <trkpt lat="49.95891" lon="2.31549">
        <ele>93.9</ele>
        <time>2023-12-27T15:35:34Z</time>
      </trkpt>
      <trkpt lat="49.95889" lon="2.31547">
        <ele>93.9</ele>
        <time>2023-12-27T15:35:36Z</time>
      </trkpt>
      <trkpt lat="49.95888" lon="2.31546">
        <ele>93.9</ele>
        <time>2023-12-27T15:35:37Z</time>
      </trkpt>
      <trkpt lat="49.95887" lon="2.31546">
        <ele>93.9</ele>
        <time>2023-12-27T15:35:38Z</time>
      </trkpt>
      <trkpt lat="49.95885" lon="2.31544">
        <ele>93.9</ele>
        <time>2023-12-27T15:35:39Z</time>
      </trkpt>
      <trkpt lat="49.95885" lon="2.31544">
        <ele>93.8</ele>
        <time>2023-12-27T15:35:40Z</time>
      </trkpt>
      <trkpt lat="49.95884" lon="2.31543">
        <ele>93.8</ele>
        <time>2023-12-27T15:35:41Z</time>
      </trkpt>
      <trkpt lat="49.95882" lon="2.31541">
        <ele>93.8</ele>
        <time>2023-12-27T15:35:42Z</time>
      </trkpt>
      <trkpt lat="49.95881" lon="2.3154">
        <ele>93.8</ele>
        <time>2023-12-27T15:35:43Z</time>
      </trkpt>
      <trkpt lat="49.9588" lon="2.3154">
        <ele>93.8</ele>
        <time>2023-12-27T15:35:44Z</time>
      </trkpt>
      <trkpt lat="49.95879" lon="2.31538">
        <ele>93.8</ele>
        <time>2023-12-27T15:35:46Z</time>
      </trkpt>
      <trkpt lat="49.95878" lon="2.31537">
        <ele>93.7</ele>
        <time>2023-12-27T15:35:47Z</time>
      </trkpt>
      <trkpt lat="49.95877" lon="2.31536">
        <ele>93.7</ele>
        <time>2023-12-27T15:35:48Z</time>
      </trkpt>
      <trkpt lat="49.95876" lon="2.31535">
        <ele>93.7</ele>
        <time>2023-12-27T15:35:49Z</time>
      </trkpt>
      <trkpt lat="49.95875" lon="2.31534">
        <ele>93.7</ele>
        <time>2023-12-27T15:35:50Z</time>
      </trkpt>
      <trkpt lat="49.95874" lon="2.31532">
        <ele>93.7</ele>
        <time>2023-12-27T15:35:52Z</time>
      </trkpt>
      <trkpt lat="49.95872" lon="2.31531">
        <ele>93.7</ele>
        <time>2023-12-27T15:35:53Z</time>
      </trkpt>
      <trkpt lat="49.95871" lon="2.3153">
        <ele>93.7</ele>
        <time>2023-12-27T15:35:54Z</time>
      </trkpt>
      <trkpt lat="49.9587" lon="2.31528">
        <ele>93.6</ele>
        <time>2023-12-27T15:35:56Z</time>
      </trkpt>
      <trkpt lat="49.95868" lon="2.31527">
        <ele>93.6</ele>
        <time>2023-12-27T15:35:57Z</time>
      </trkpt>
      <trkpt lat="49.95867" lon="2.31525">
        <ele>93.6</ele>
        <time>2023-12-27T15:35:58Z</time>
      </trkpt>
      <trkpt lat="49.95866" lon="2.31525">
        <ele>93.6</ele>
        <time>2023-12-27T15:35:59Z</time>
      </trkpt>
      <trkpt lat="49.95865" lon="2.31524">
        <ele>93.6</ele>
        <time>2023-12-27T15:36:00Z</time>
      </trkpt>
      <trkpt lat="49.95864" lon="2.31523">
        <ele>93.6</ele>
        <time>2023-12-27T15:36:01Z</time>
      </trkpt>
      <trkpt lat="49.95863" lon="2.31522">
        <ele>93.5</ele>
        <time>2023-12-27T15:36:02Z</time>
      </trkpt>
      <trkpt lat="49.95862" lon="2.31521">
        <ele>93.5</ele>
        <time>2023-12-27T15:36:03Z</time>
      </trkpt>
      <trkpt lat="49.95861" lon="2.3152">
        <ele>93.5</ele>
        <time>2023-12-27T15:36:04Z</time>
      </trkpt>
      <trkpt lat="49.9586" lon="2.31519">
        <ele>93.5</ele>
        <time>2023-12-27T15:36:06Z</time>
      </trkpt>
      <trkpt lat="49.95858" lon="2.31518">
        <ele>93.5</ele>
        <time>2023-12-27T15:36:07Z</time>
      </trkpt>
      <trkpt lat="49.95857" lon="2.31517">
        <ele>93.5</ele>
        <time>2023-12-27T15:36:08Z</time>
      </trkpt>
      <trkpt lat="49.95856" lon="2.31516">
        <ele>93.4</ele>
        <time>2023-12-27T15:36:09Z</time>
      </trkpt>
      <trkpt lat="49.95856" lon="2.31516">
        <ele>93.4</ele>
        <time>2023-12-27T15:36:10Z</time>
      </trkpt>
      <trkpt lat="49.95855" lon="2.31515">
        <ele>93.4</ele>
        <time>2023-12-27T15:36:11Z</time>
      </trkpt>
      <trkpt lat="49.95854" lon="2.31514">
        <ele>93.4</ele>
        <time>2023-12-27T15:36:12Z</time>
      </trkpt>
      <trkpt lat="49.95853" lon="2.31513">
        <ele>93.4</ele>
        <time>2023-12-27T15:36:13Z</time>
      </trkpt>
      <trkpt lat="49.95851" lon="2.31512">
        <ele>93.4</ele>
        <time>2023-12-27T15:36:14Z</time>
      </trkpt>
      <trkpt lat="49.9585" lon="2.31511">
        <ele>93.4</ele>
        <time>2023-12-27T15:36:16Z</time>
      </trkpt>
      <trkpt lat="49.95849" lon="2.3151">
        <ele>93.3</ele>
        <time>2023-12-27T15:36:17Z</time>
      </trkpt>
      <trkpt lat="49.95848" lon="2.31509">
        <ele>93.3</ele>
        <time>2023-12-27T15:36:18Z</time>
      </trkpt>
      <trkpt lat="49.95847" lon="2.31509">
        <ele>93.3</ele>
        <time>2023-12-27T15:36:19Z</time>
      </trkpt>
      <trkpt lat="49.95846" lon="2.31508">
        <ele>93.3</ele>
        <time>2023-12-27T15:36:20Z</time>
      </trkpt>
      <trkpt lat="49.95845" lon="2.31508">
        <ele>93.3</ele>
        <time>2023-12-27T15:36:21Z</time>
      </trkpt>
      <trkpt lat="49.95844" lon="2.31507">
        <ele>93.3</ele>
        <time>2023-12-27T15:36:22Z</time>
      </trkpt>
      <trkpt lat="49.95843" lon="2.31506">
        <ele>93.2</ele>
        <time>2023-12-27T15:36:23Z</time>
      </trkpt>
      <trkpt lat="49.95842" lon="2.31506">
        <ele>93.2</ele>
        <time>2023-12-27T15:36:24Z</time>
      </trkpt>
      <trkpt lat="49.95841" lon="2.31505">
        <ele>93.2</ele>
        <time>2023-12-27T15:36:26Z</time>
      </trkpt>
      <trkpt lat="49.95839" lon="2.31504">
        <ele>93.2</ele>
        <time>2023-12-27T15:36:27Z</time>
      </trkpt>
      <trkpt lat="49.95838" lon="2.31503">
        <ele>93.2</ele>
        <time>2023-12-27T15:36:28Z</time>
      </trkpt>
      <trkpt lat="49.95837" lon="2.31503">
        <ele>93.2</ele>
        <time>2023-12-27T15:36:29Z</time>
      </trkpt>
      <trkpt lat="49.95836" lon="2.31502">
        <ele>93.1</ele>
        <time>2023-12-27T15:36:30Z</time>
      </trkpt>
      <trkpt lat="49.95835" lon="2.31502">
        <ele>93.1</ele>
        <time>2023-12-27T15:36:31Z</time>
      </trkpt>
      <trkpt lat="49.95834" lon="2.31501">
        <ele>93.1</ele>
        <time>2023-12-27T15:36:32Z</time>
      </trkpt>
      <trkpt lat="49.95833" lon="2.31501">
        <ele>93.1</ele>
        <time>2023-12-27T15:36:33Z</time>
      </trkpt>
      <trkpt lat="49.95832" lon="2.315">
        <ele>93.1</ele>
        <time>2023-12-27T15:36:34Z</time>
      </trkpt>
      <trkpt lat="49.95831" lon="2.315">
        <ele>93.1</ele>
        <time>2023-12-27T15:36:35Z</time>
      </trkpt>
      <trkpt lat="49.9583" lon="2.315">
        <ele>93.1</ele>
        <time>2023-12-27T15:36:37Z</time>
      </trkpt>
      <trkpt lat="49.95828" lon="2.31499">
        <ele>93</ele>
        <time>2023-12-27T15:36:38Z</time>
      </trkpt>
      <trkpt lat="49.95827" lon="2.31498">
        <ele>93</ele>
        <time>2023-12-27T15:36:39Z</time>
      </trkpt>
      <trkpt lat="49.95826" lon="2.31497">
        <ele>93</ele>
        <time>2023-12-27T15:36:40Z</time>
      </trkpt>
      <trkpt lat="49.95826" lon="2.31496">
        <ele>93</ele>
        <time>2023-12-27T15:36:41Z</time>
      </trkpt>
      <trkpt lat="49.95825" lon="2.31495">
        <ele>93</ele>
        <time>2023-12-27T15:36:42Z</time>
      </trkpt>
      <trkpt lat="49.95823" lon="2.31494">
        <ele>93</ele>
        <time>2023-12-27T15:36:43Z</time>
      </trkpt>
      <trkpt lat="49.95822" lon="2.31494">
        <ele>93</ele>
        <time>2023-12-27T15:36:44Z</time>
      </trkpt>
      <trkpt lat="49.95821" lon="2.31493">
        <ele>92.9</ele>
        <time>2023-12-27T15:36:46Z</time>
      </trkpt>
      <trkpt lat="49.95819" lon="2.31492">
        <ele>92.9</ele>
        <time>2023-12-27T15:36:47Z</time>
      </trkpt>
      <trkpt lat="49.95818" lon="2.31492">
        <ele>92.9</ele>
        <time>2023-12-27T15:36:48Z</time>
      </trkpt>
      <trkpt lat="49.95817" lon="2.31492">
        <ele>92.9</ele>
        <time>2023-12-27T15:36:49Z</time>
      </trkpt>
      <trkpt lat="49.95815" lon="2.31492">
        <ele>92.9</ele>
        <time>2023-12-27T15:36:50Z</time>
      </trkpt>
      <trkpt lat="49.95814" lon="2.31492">
        <ele>92.8</ele>
        <time>2023-12-27T15:36:51Z</time>
      </trkpt>
      <trkpt lat="49.95813" lon="2.31491">
        <ele>92.8</ele>
        <time>2023-12-27T15:36:52Z</time>
      </trkpt>
      <trkpt lat="49.95812" lon="2.31491">
        <ele>92.8</ele>
        <time>2023-12-27T15:36:53Z</time>
      </trkpt>
      <trkpt lat="49.95811" lon="2.3149">
        <ele>92.8</ele>
        <time>2023-12-27T15:36:55Z</time>
      </trkpt>
      <trkpt lat="49.95809" lon="2.3149">
        <ele>92.8</ele>
        <time>2023-12-27T15:36:56Z</time>
      </trkpt>
      <trkpt lat="49.95808" lon="2.31489">
        <ele>92.7</ele>
        <time>2023-12-27T15:36:57Z</time>
      </trkpt>
      <trkpt lat="49.95807" lon="2.31489">
        <ele>92.7</ele>
        <time>2023-12-27T15:36:58Z</time>
      </trkpt>
      <trkpt lat="49.95805" lon="2.31488">
        <ele>92.7</ele>
        <time>2023-12-27T15:36:59Z</time>
      </trkpt>
      <trkpt lat="49.95804" lon="2.31488">
        <ele>92.7</ele>
        <time>2023-12-27T15:37:00Z</time>
      </trkpt>
      <trkpt lat="49.95803" lon="2.31488">
        <ele>92.7</ele>
        <time>2023-12-27T15:37:01Z</time>
      </trkpt>
      <trkpt lat="49.95801" lon="2.31487">
        <ele>92.6</ele>
        <time>2023-12-27T15:37:02Z</time>
      </trkpt>
      <trkpt lat="49.95801" lon="2.31487">
        <ele>92.6</ele>
        <time>2023-12-27T15:37:03Z</time>
      </trkpt>
      <trkpt lat="49.958" lon="2.31487">
        <ele>92.6</ele>
        <time>2023-12-27T15:37:04Z</time>
      </trkpt>
      <trkpt lat="49.95799" lon="2.31486">
        <ele>92.6</ele>
        <time>2023-12-27T15:37:06Z</time>
      </trkpt>
      <trkpt lat="49.95798" lon="2.31486">
        <ele>92.6</ele>
        <time>2023-12-27T15:37:07Z</time>
      </trkpt>
      <trkpt lat="49.95796" lon="2.31485">
        <ele>92.6</ele>
        <time>2023-12-27T15:37:08Z</time>
      </trkpt>
      <trkpt lat="49.95795" lon="2.31484">
        <ele>92.5</ele>
        <time>2023-12-27T15:37:09Z</time>
      </trkpt>
      <trkpt lat="49.95794" lon="2.31484">
        <ele>92.5</ele>
        <time>2023-12-27T15:37:10Z</time>
      </trkpt>
      <trkpt lat="49.95793" lon="2.31483">
        <ele>92.5</ele>
        <time>2023-12-27T15:37:11Z</time>
      </trkpt>
      <trkpt lat="49.95792" lon="2.31482">
        <ele>92.5</ele>
        <time>2023-12-27T15:37:12Z</time>
      </trkpt>
      <trkpt lat="49.95791" lon="2.31482">
        <ele>92.5</ele>
        <time>2023-12-27T15:37:14Z</time>
      </trkpt>
      <trkpt lat="49.95791" lon="2.31484">
        <ele>92.5</ele>
        <time>2023-12-27T15:37:16Z</time>
      </trkpt>
      <trkpt lat="49.9579" lon="2.31484">
        <ele>92.5</ele>
        <time>2023-12-27T15:37:17Z</time>
      </trkpt>
      <trkpt lat="49.95789" lon="2.31484">
        <ele>92.4</ele>
        <time>2023-12-27T15:37:18Z</time>
      </trkpt>
      <trkpt lat="49.95789" lon="2.31484">
        <ele>92.4</ele>
        <time>2023-12-27T15:37:19Z</time>
      </trkpt>
      <trkpt lat="49.95788" lon="2.31484">
        <ele>92.4</ele>
        <time>2023-12-27T15:37:20Z</time>
      </trkpt>
      <trkpt lat="49.95787" lon="2.31483">
        <ele>92.4</ele>
        <time>2023-12-27T15:37:21Z</time>
      </trkpt>
      <trkpt lat="49.95786" lon="2.31482">
        <ele>92.4</ele>
        <time>2023-12-27T15:37:23Z</time>
      </trkpt>
      <trkpt lat="49.95785" lon="2.31481">
        <ele>92.4</ele>
        <time>2023-12-27T15:37:24Z</time>
      </trkpt>
      <trkpt lat="49.95783" lon="2.3148">
        <ele>92.4</ele>
        <time>2023-12-27T15:37:25Z</time>
      </trkpt>
      <trkpt lat="49.95782" lon="2.3148">
        <ele>92.4</ele>
        <time>2023-12-27T15:37:26Z</time>
      </trkpt>
      <trkpt lat="49.95781" lon="2.3148">
        <ele>92.3</ele>
        <time>2023-12-27T15:37:27Z</time>
      </trkpt>
      <trkpt lat="49.9578" lon="2.31479">
        <ele>92.3</ele>
        <time>2023-12-27T15:37:28Z</time>
      </trkpt>
      <trkpt lat="49.95778" lon="2.31479">
        <ele>92.3</ele>
        <time>2023-12-27T15:37:29Z</time>
      </trkpt>
      <trkpt lat="49.95777" lon="2.31478">
        <ele>92.3</ele>
        <time>2023-12-27T15:37:31Z</time>
      </trkpt>
      <trkpt lat="49.95775" lon="2.31477">
        <ele>92.3</ele>
        <time>2023-12-27T15:37:32Z</time>
      </trkpt>
      <trkpt lat="49.95774" lon="2.31477">
        <ele>92.3</ele>
        <time>2023-12-27T15:37:33Z</time>
      </trkpt>
      <trkpt lat="49.95774" lon="2.31476">
        <ele>92.3</ele>
        <time>2023-12-27T15:37:34Z</time>
      </trkpt>
      <trkpt lat="49.95772" lon="2.31475">
        <ele>92.3</ele>
        <time>2023-12-27T15:37:35Z</time>
      </trkpt>
      <trkpt lat="49.95771" lon="2.31474">
        <ele>92.3</ele>
        <time>2023-12-27T15:37:36Z</time>
      </trkpt>
      <trkpt lat="49.95769" lon="2.31473">
        <ele>92.3</ele>
        <time>2023-12-27T15:37:37Z</time>
      </trkpt>
      <trkpt lat="49.95768" lon="2.31473">
        <ele>92.3</ele>
        <time>2023-12-27T15:37:39Z</time>
      </trkpt>
      <trkpt lat="49.95768" lon="2.31472">
        <ele>92.3</ele>
        <time>2023-12-27T15:37:40Z</time>
      </trkpt>
      <trkpt lat="49.95766" lon="2.31472">
        <ele>92.3</ele>
        <time>2023-12-27T15:37:41Z</time>
      </trkpt>
      <trkpt lat="49.95765" lon="2.31471">
        <ele>92.3</ele>
        <time>2023-12-27T15:37:42Z</time>
      </trkpt>
      <trkpt lat="49.95764" lon="2.3147">
        <ele>92.3</ele>
        <time>2023-12-27T15:37:43Z</time>
      </trkpt>
      <trkpt lat="49.95762" lon="2.31469">
        <ele>92.3</ele>
        <time>2023-12-27T15:37:44Z</time>
      </trkpt>
      <trkpt lat="49.95762" lon="2.31469">
        <ele>92.3</ele>
        <time>2023-12-27T15:37:45Z</time>
      </trkpt>
      <trkpt lat="49.95761" lon="2.31469">
        <ele>92.3</ele>
        <time>2023-12-27T15:37:46Z</time>
      </trkpt>
      <trkpt lat="49.9576" lon="2.31468">
        <ele>92.3</ele>
        <time>2023-12-27T15:37:48Z</time>
      </trkpt>
      <trkpt lat="49.95759" lon="2.31467">
        <ele>92.3</ele>
        <time>2023-12-27T15:37:49Z</time>
      </trkpt>
      <trkpt lat="49.95757" lon="2.31467">
        <ele>92.3</ele>
        <time>2023-12-27T15:37:50Z</time>
      </trkpt>
      <trkpt lat="49.95757" lon="2.31467">
        <ele>92.3</ele>
        <time>2023-12-27T15:37:51Z</time>
      </trkpt>
      <trkpt lat="49.95756" lon="2.31468">
        <ele>92.3</ele>
        <time>2023-12-27T15:37:52Z</time>
      </trkpt>
      <trkpt lat="49.95754" lon="2.31469">
        <ele>92.3</ele>
        <time>2023-12-27T15:37:53Z</time>
      </trkpt>
      <trkpt lat="49.95754" lon="2.31469">
        <ele>92.3</ele>
        <time>2023-12-27T15:37:54Z</time>
      </trkpt>
      <trkpt lat="49.95752" lon="2.3147">
        <ele>92.3</ele>
        <time>2023-12-27T15:37:56Z</time>
      </trkpt>
      <trkpt lat="49.95752" lon="2.3147">
        <ele>92.3</ele>
        <time>2023-12-27T15:37:57Z</time>
      </trkpt>
      <trkpt lat="49.95752" lon="2.31471">
        <ele>92.3</ele>
        <time>2023-12-27T15:37:58Z</time>
      </trkpt>
      <trkpt lat="49.95752" lon="2.31473">
        <ele>92.3</ele>
        <time>2023-12-27T15:37:59Z</time>
      </trkpt>
      <trkpt lat="49.95751" lon="2.31474">
        <ele>92.3</ele>
        <time>2023-12-27T15:38:00Z</time>
      </trkpt>
      <trkpt lat="49.95751" lon="2.31476">
        <ele>92.3</ele>
        <time>2023-12-27T15:38:01Z</time>
      </trkpt>
      <trkpt lat="49.9575" lon="2.31478">
        <ele>92.3</ele>
        <time>2023-12-27T15:38:03Z</time>
      </trkpt>
      <trkpt lat="49.9575" lon="2.3148">
        <ele>92.3</ele>
        <time>2023-12-27T15:38:04Z</time>
      </trkpt>
      <trkpt lat="49.95751" lon="2.31483">
        <ele>92.3</ele>
        <time>2023-12-27T15:38:05Z</time>
      </trkpt>
      <trkpt lat="49.95751" lon="2.31485">
        <ele>92.3</ele>
        <time>2023-12-27T15:38:07Z</time>
      </trkpt>
      <trkpt lat="49.95751" lon="2.31486">
        <ele>92.3</ele>
        <time>2023-12-27T15:38:08Z</time>
      </trkpt>
      <trkpt lat="49.95751" lon="2.31487">
        <ele>92.3</ele>
        <time>2023-12-27T15:38:09Z</time>
      </trkpt>
      <trkpt lat="49.95751" lon="2.31489">
        <ele>92.3</ele>
        <time>2023-12-27T15:38:10Z</time>
      </trkpt>
      <trkpt lat="49.9575" lon="2.31489">
        <ele>92.3</ele>
        <time>2023-12-27T15:38:11Z</time>
      </trkpt>
      <trkpt lat="49.9575" lon="2.3149">
        <ele>92.3</ele>
        <time>2023-12-27T15:38:12Z</time>
      </trkpt>
      <trkpt lat="49.9575" lon="2.31491">
        <ele>92.3</ele>
        <time>2023-12-27T15:38:13Z</time>
      </trkpt>
      <trkpt lat="49.9575" lon="2.31492">
        <ele>92.3</ele>
        <time>2023-12-27T15:38:15Z</time>
      </trkpt>
      <trkpt lat="49.9575" lon="2.31493">
        <ele>92.3</ele>
        <time>2023-12-27T15:38:16Z</time>
      </trkpt>
      <trkpt lat="49.9575" lon="2.31494">
        <ele>92.3</ele>
        <time>2023-12-27T15:38:17Z</time>
      </trkpt>
      <trkpt lat="49.9575" lon="2.31494">
        <ele>92.3</ele>
        <time>2023-12-27T15:38:18Z</time>
      </trkpt>
      <trkpt lat="49.9575" lon="2.31495">
        <ele>92.3</ele>
        <time>2023-12-27T15:38:19Z</time>
      </trkpt>
      <trkpt lat="49.9575" lon="2.31496">
        <ele>92.3</ele>
        <time>2023-12-27T15:38:20Z</time>
      </trkpt>
      <trkpt lat="49.95749" lon="2.31497">
        <ele>92.3</ele>
        <time>2023-12-27T15:38:22Z</time>
      </trkpt>
      <trkpt lat="49.95749" lon="2.31498">
        <ele>92.3</ele>
        <time>2023-12-27T15:38:23Z</time>
      </trkpt>
      <trkpt lat="49.95749" lon="2.31499">
        <ele>92.3</ele>
        <time>2023-12-27T15:38:24Z</time>
      </trkpt>
      <trkpt lat="49.95749" lon="2.315">
        <ele>92.3</ele>
        <time>2023-12-27T15:38:25Z</time>
      </trkpt>
      <trkpt lat="49.95749" lon="2.31501">
        <ele>92.3</ele>
        <time>2023-12-27T15:38:26Z</time>
      </trkpt>
      <trkpt lat="49.95749" lon="2.31503">
        <ele>92.4</ele>
        <time>2023-12-27T15:38:27Z</time>
      </trkpt>
      <trkpt lat="49.95748" lon="2.31505">
        <ele>92.4</ele>
        <time>2023-12-27T15:38:29Z</time>
      </trkpt>
      <trkpt lat="49.95748" lon="2.31506">
        <ele>92.4</ele>
        <time>2023-12-27T15:38:30Z</time>
      </trkpt>
      <trkpt lat="49.95748" lon="2.31508">
        <ele>92.4</ele>
        <time>2023-12-27T15:38:31Z</time>
      </trkpt>
      <trkpt lat="49.95747" lon="2.3151">
        <ele>92.4</ele>
        <time>2023-12-27T15:38:32Z</time>
      </trkpt>
      <trkpt lat="49.95746" lon="2.31511">
        <ele>92.4</ele>
        <time>2023-12-27T15:38:33Z</time>
      </trkpt>
      <trkpt lat="49.95746" lon="2.31513">
        <ele>92.4</ele>
        <time>2023-12-27T15:38:34Z</time>
      </trkpt>
      <trkpt lat="49.95745" lon="2.31514">
        <ele>92.4</ele>
        <time>2023-12-27T15:38:35Z</time>
      </trkpt>
      <trkpt lat="49.95745" lon="2.31515">
        <ele>92.4</ele>
        <time>2023-12-27T15:38:37Z</time>
      </trkpt>
      <trkpt lat="49.95744" lon="2.31517">
        <ele>92.4</ele>
        <time>2023-12-27T15:38:38Z</time>
      </trkpt>
      <trkpt lat="49.95743" lon="2.31518">
        <ele>92.4</ele>
        <time>2023-12-27T15:38:39Z</time>
      </trkpt>
      <trkpt lat="49.95743" lon="2.3152">
        <ele>92.5</ele>
        <time>2023-12-27T15:38:40Z</time>
      </trkpt>
      <trkpt lat="49.95743" lon="2.31521">
        <ele>92.5</ele>
        <time>2023-12-27T15:38:41Z</time>
      </trkpt>
      <trkpt lat="49.95743" lon="2.31523">
        <ele>92.5</ele>
        <time>2023-12-27T15:38:42Z</time>
      </trkpt>
      <trkpt lat="49.95742" lon="2.31525">
        <ele>92.5</ele>
        <time>2023-12-27T15:38:44Z</time>
      </trkpt>
      <trkpt lat="49.95742" lon="2.31527">
        <ele>92.5</ele>
        <time>2023-12-27T15:38:45Z</time>
      </trkpt>
      <trkpt lat="49.95742" lon="2.31528">
        <ele>92.5</ele>
        <time>2023-12-27T15:38:46Z</time>
      </trkpt>
      <trkpt lat="49.95741" lon="2.3153">
        <ele>92.5</ele>
        <time>2023-12-27T15:38:47Z</time>
      </trkpt>
      <trkpt lat="49.95741" lon="2.31532">
        <ele>92.5</ele>
        <time>2023-12-27T15:38:48Z</time>
      </trkpt>
      <trkpt lat="49.9574" lon="2.31533">
        <ele>92.5</ele>
        <time>2023-12-27T15:38:49Z</time>
      </trkpt>
      <trkpt lat="49.9574" lon="2.31535">
        <ele>92.6</ele>
        <time>2023-12-27T15:38:50Z</time>
      </trkpt>
      <trkpt lat="49.9574" lon="2.31537">
        <ele>92.6</ele>
        <time>2023-12-27T15:38:51Z</time>
      </trkpt>
      <trkpt lat="49.95739" lon="2.31539">
        <ele>92.6</ele>
        <time>2023-12-27T15:38:53Z</time>
      </trkpt>
      <trkpt lat="49.95739" lon="2.3154">
        <ele>92.6</ele>
        <time>2023-12-27T15:38:54Z</time>
      </trkpt>
      <trkpt lat="49.95738" lon="2.31542">
        <ele>92.6</ele>
        <time>2023-12-27T15:38:55Z</time>
      </trkpt>
      <trkpt lat="49.95738" lon="2.31544">
        <ele>92.6</ele>
        <time>2023-12-27T15:38:56Z</time>
      </trkpt>
      <trkpt lat="49.95737" lon="2.31545">
        <ele>92.6</ele>
        <time>2023-12-27T15:38:57Z</time>
      </trkpt>
      <trkpt lat="49.95737" lon="2.31547">
        <ele>92.6</ele>
        <time>2023-12-27T15:38:58Z</time>
      </trkpt>
      <trkpt lat="49.95736" lon="2.31549">
        <ele>92.6</ele>
        <time>2023-12-27T15:38:59Z</time>
      </trkpt>
      <trkpt lat="49.95736" lon="2.3155">
        <ele>92.7</ele>
        <time>2023-12-27T15:39:01Z</time>
      </trkpt>
      <trkpt lat="49.95735" lon="2.31552">
        <ele>92.7</ele>
        <time>2023-12-27T15:39:02Z</time>
      </trkpt>
      <trkpt lat="49.95734" lon="2.31553">
        <ele>92.7</ele>
        <time>2023-12-27T15:39:03Z</time>
      </trkpt>
      <trkpt lat="49.95733" lon="2.31554">
        <ele>92.7</ele>
        <time>2023-12-27T15:39:04Z</time>
      </trkpt>
      <trkpt lat="49.95732" lon="2.31555">
        <ele>92.7</ele>
        <time>2023-12-27T15:39:05Z</time>
      </trkpt>
      <trkpt lat="49.95732" lon="2.31556">
        <ele>92.7</ele>
        <time>2023-12-27T15:39:06Z</time>
      </trkpt>
      <trkpt lat="49.9573" lon="2.31558">
        <ele>92.6</ele>
        <time>2023-12-27T15:39:08Z</time>
      </trkpt>
      <trkpt lat="49.95729" lon="2.31558">
        <ele>92.6</ele>
        <time>2023-12-27T15:39:09Z</time>
      </trkpt>
      <trkpt lat="49.95728" lon="2.31559">
        <ele>92.6</ele>
        <time>2023-12-27T15:39:10Z</time>
      </trkpt>
      <trkpt lat="49.95727" lon="2.31559">
        <ele>92.5</ele>
        <time>2023-12-27T15:39:11Z</time>
      </trkpt>
      <trkpt lat="49.95725" lon="2.3156">
        <ele>92.5</ele>
        <time>2023-12-27T15:39:12Z</time>
      </trkpt>
      <trkpt lat="49.95723" lon="2.3156">
        <ele>92.4</ele>
        <time>2023-12-27T15:39:13Z</time>
      </trkpt>
      <trkpt lat="49.95722" lon="2.3156">
        <ele>92.4</ele>
        <time>2023-12-27T15:39:15Z</time>
      </trkpt>
      <trkpt lat="49.95721" lon="2.3156">
        <ele>92.4</ele>
        <time>2023-12-27T15:39:16Z</time>
      </trkpt>
      <trkpt lat="49.9572" lon="2.3156">
        <ele>92.3</ele>
        <time>2023-12-27T15:39:17Z</time>
      </trkpt>
      <trkpt lat="49.95719" lon="2.3156">
        <ele>92.3</ele>
        <time>2023-12-27T15:39:18Z</time>
      </trkpt>
      <trkpt lat="49.95718" lon="2.3156">
        <ele>92.3</ele>
        <time>2023-12-27T15:39:19Z</time>
      </trkpt>
      <trkpt lat="49.95716" lon="2.3156">
        <ele>92.2</ele>
        <time>2023-12-27T15:39:20Z</time>
      </trkpt>
      <trkpt lat="49.95715" lon="2.3156">
        <ele>92.2</ele>
        <time>2023-12-27T15:39:22Z</time>
      </trkpt>
      <trkpt lat="49.95713" lon="2.31559">
        <ele>92.1</ele>
        <time>2023-12-27T15:39:23Z</time>
      </trkpt>
      <trkpt lat="49.95712" lon="2.31559">
        <ele>92.1</ele>
        <time>2023-12-27T15:39:24Z</time>
      </trkpt>
      <trkpt lat="49.95711" lon="2.31558">
        <ele>92.1</ele>
        <time>2023-12-27T15:39:25Z</time>
      </trkpt>
      <trkpt lat="49.95709" lon="2.31557">
        <ele>92</ele>
        <time>2023-12-27T15:39:26Z</time>
      </trkpt>
      <trkpt lat="49.95708" lon="2.31557">
        <ele>92</ele>
        <time>2023-12-27T15:39:27Z</time>
      </trkpt>
      <trkpt lat="49.95707" lon="2.31557">
        <ele>91.9</ele>
        <time>2023-12-27T15:39:28Z</time>
      </trkpt>
      <trkpt lat="49.95706" lon="2.31557">
        <ele>91.9</ele>
        <time>2023-12-27T15:39:29Z</time>
      </trkpt>
      <trkpt lat="49.95705" lon="2.31557">
        <ele>91.9</ele>
        <time>2023-12-27T15:39:31Z</time>
      </trkpt>
      <trkpt lat="49.95703" lon="2.31557">
        <ele>91.8</ele>
        <time>2023-12-27T15:39:32Z</time>
      </trkpt>
      <trkpt lat="49.95702" lon="2.31557">
        <ele>91.8</ele>
        <time>2023-12-27T15:39:33Z</time>
      </trkpt>
      <trkpt lat="49.957" lon="2.31557">
        <ele>91.7</ele>
        <time>2023-12-27T15:39:34Z</time>
      </trkpt>
      <trkpt lat="49.95699" lon="2.31557">
        <ele>91.7</ele>
        <time>2023-12-27T15:39:35Z</time>
      </trkpt>
      <trkpt lat="49.95698" lon="2.31556">
        <ele>91.6</ele>
        <time>2023-12-27T15:39:36Z</time>
      </trkpt>
      <trkpt lat="49.95696" lon="2.31556">
        <ele>91.6</ele>
        <time>2023-12-27T15:39:37Z</time>
      </trkpt>
      <trkpt lat="49.95695" lon="2.31556">
        <ele>91.6</ele>
        <time>2023-12-27T15:39:38Z</time>
      </trkpt>
      <trkpt lat="49.95693" lon="2.31556">
        <ele>91.5</ele>
        <time>2023-12-27T15:39:39Z</time>
      </trkpt>
      <trkpt lat="49.95691" lon="2.31555">
        <ele>91.5</ele>
        <time>2023-12-27T15:39:40Z</time>
      </trkpt>
      <trkpt lat="49.95691" lon="2.31555">
        <ele>91.4</ele>
        <time>2023-12-27T15:39:42Z</time>
      </trkpt>
      <trkpt lat="49.9569" lon="2.31555">
        <ele>91.4</ele>
        <time>2023-12-27T15:39:43Z</time>
      </trkpt>
      <trkpt lat="49.95688" lon="2.31555">
        <ele>91.4</ele>
        <time>2023-12-27T15:39:44Z</time>
      </trkpt>
      <trkpt lat="49.95687" lon="2.31555">
        <ele>91.3</ele>
        <time>2023-12-27T15:39:45Z</time>
      </trkpt>
      <trkpt lat="49.95686" lon="2.31555">
        <ele>91.3</ele>
        <time>2023-12-27T15:39:46Z</time>
      </trkpt>
      <trkpt lat="49.95685" lon="2.31555">
        <ele>91.2</ele>
        <time>2023-12-27T15:39:47Z</time>
      </trkpt>
      <trkpt lat="49.95684" lon="2.31555">
        <ele>91.2</ele>
        <time>2023-12-27T15:39:48Z</time>
      </trkpt>
      <trkpt lat="49.95683" lon="2.31555">
        <ele>91.2</ele>
        <time>2023-12-27T15:39:49Z</time>
      </trkpt>
      <trkpt lat="49.95681" lon="2.31555">
        <ele>91.1</ele>
        <time>2023-12-27T15:39:50Z</time>
      </trkpt>
      <trkpt lat="49.9568" lon="2.31555">
        <ele>91.1</ele>
        <time>2023-12-27T15:39:52Z</time>
      </trkpt>
      <trkpt lat="49.95679" lon="2.31555">
        <ele>91</ele>
        <time>2023-12-27T15:39:53Z</time>
      </trkpt>
      <trkpt lat="49.95678" lon="2.31555">
        <ele>91</ele>
        <time>2023-12-27T15:39:54Z</time>
      </trkpt>
      <trkpt lat="49.95677" lon="2.31555">
        <ele>90.9</ele>
        <time>2023-12-27T15:39:55Z</time>
      </trkpt>
      <trkpt lat="49.95676" lon="2.31555">
        <ele>90.9</ele>
        <time>2023-12-27T15:39:56Z</time>
      </trkpt>
      <trkpt lat="49.95675" lon="2.31554">
        <ele>90.9</ele>
        <time>2023-12-27T15:39:57Z</time>
      </trkpt>
      <trkpt lat="49.95674" lon="2.31554">
        <ele>90.8</ele>
        <time>2023-12-27T15:39:58Z</time>
      </trkpt>
      <trkpt lat="49.95673" lon="2.31554">
        <ele>90.8</ele>
        <time>2023-12-27T15:39:59Z</time>
      </trkpt>
      <trkpt lat="49.95672" lon="2.31555">
        <ele>90.7</ele>
        <time>2023-12-27T15:40:01Z</time>
      </trkpt>
      <trkpt lat="49.95672" lon="2.31557">
        <ele>90.7</ele>
        <time>2023-12-27T15:40:02Z</time>
      </trkpt>
      <trkpt lat="49.95672" lon="2.31559">
        <ele>90.6</ele>
        <time>2023-12-27T15:40:03Z</time>
      </trkpt>
      <trkpt lat="49.95671" lon="2.31559">
        <ele>90.6</ele>
        <time>2023-12-27T15:40:04Z</time>
      </trkpt>
      <trkpt lat="49.9567" lon="2.31559">
        <ele>90.5</ele>
        <time>2023-12-27T15:40:05Z</time>
      </trkpt>
      <trkpt lat="49.95669" lon="2.31559">
        <ele>90.5</ele>
        <time>2023-12-27T15:40:06Z</time>
      </trkpt>
      <trkpt lat="49.95667" lon="2.31558">
        <ele>90.4</ele>
        <time>2023-12-27T15:40:07Z</time>
      </trkpt>
      <trkpt lat="49.95666" lon="2.31558">
        <ele>90.4</ele>
        <time>2023-12-27T15:40:09Z</time>
      </trkpt>
      <trkpt lat="49.95665" lon="2.31557">
        <ele>90.3</ele>
        <time>2023-12-27T15:40:10Z</time>
      </trkpt>
      <trkpt lat="49.95663" lon="2.31556">
        <ele>90.2</ele>
        <time>2023-12-27T15:40:11Z</time>
      </trkpt>
      <trkpt lat="49.95662" lon="2.31556">
        <ele>90.2</ele>
        <time>2023-12-27T15:40:12Z</time>
      </trkpt>
      <trkpt lat="49.95662" lon="2.31555">
        <ele>90.2</ele>
        <time>2023-12-27T15:40:13Z</time>
      </trkpt>
      <trkpt lat="49.9566" lon="2.31554">
        <ele>90.1</ele>
        <time>2023-12-27T15:40:14Z</time>
      </trkpt>
      <trkpt lat="49.95659" lon="2.31553">
        <ele>90.1</ele>
        <time>2023-12-27T15:40:16Z</time>
      </trkpt>
      <trkpt lat="49.95658" lon="2.31553">
        <ele>90</ele>
        <time>2023-12-27T15:40:17Z</time>
      </trkpt>
      <trkpt lat="49.95656" lon="2.31552">
        <ele>90</ele>
        <time>2023-12-27T15:40:18Z</time>
      </trkpt>
      <trkpt lat="49.95655" lon="2.31552">
        <ele>89.9</ele>
        <time>2023-12-27T15:40:19Z</time>
      </trkpt>
      <trkpt lat="49.95653" lon="2.31551">
        <ele>89.8</ele>
        <time>2023-12-27T15:40:20Z</time>
      </trkpt>
      <trkpt lat="49.95652" lon="2.3155">
        <ele>89.8</ele>
        <time>2023-12-27T15:40:22Z</time>
      </trkpt>
      <trkpt lat="49.9565" lon="2.3155">
        <ele>89.7</ele>
        <time>2023-12-27T15:40:23Z</time>
      </trkpt>
      <trkpt lat="49.95648" lon="2.31549">
        <ele>89.7</ele>
        <time>2023-12-27T15:40:24Z</time>
      </trkpt>
      <trkpt lat="49.95647" lon="2.31549">
        <ele>89.6</ele>
        <time>2023-12-27T15:40:25Z</time>
      </trkpt>
      <trkpt lat="49.95647" lon="2.31548">
        <ele>89.6</ele>
        <time>2023-12-27T15:40:26Z</time>
      </trkpt>
      <trkpt lat="49.95644" lon="2.31548">
        <ele>89.5</ele>
        <time>2023-12-27T15:40:27Z</time>
      </trkpt>
      <trkpt lat="49.95644" lon="2.31548">
        <ele>89.5</ele>
        <time>2023-12-27T15:40:28Z</time>
      </trkpt>
      <trkpt lat="49.95643" lon="2.31548">
        <ele>89.5</ele>
        <time>2023-12-27T15:40:29Z</time>
      </trkpt>
      <trkpt lat="49.95642" lon="2.31548">
        <ele>89.4</ele>
        <time>2023-12-27T15:40:31Z</time>
      </trkpt>
      <trkpt lat="49.9564" lon="2.31547">
        <ele>89.4</ele>
        <time>2023-12-27T15:40:32Z</time>
      </trkpt>
      <trkpt lat="49.95639" lon="2.31547">
        <ele>89.4</ele>
        <time>2023-12-27T15:40:33Z</time>
      </trkpt>
      <trkpt lat="49.95638" lon="2.31547">
        <ele>89.3</ele>
        <time>2023-12-27T15:40:34Z</time>
      </trkpt>
      <trkpt lat="49.95637" lon="2.31547">
        <ele>89.3</ele>
        <time>2023-12-27T15:40:35Z</time>
      </trkpt>
      <trkpt lat="49.95636" lon="2.31547">
        <ele>89.2</ele>
        <time>2023-12-27T15:40:37Z</time>
      </trkpt>
      <trkpt lat="49.95635" lon="2.31546">
        <ele>89.2</ele>
        <time>2023-12-27T15:40:38Z</time>
      </trkpt>
      <trkpt lat="49.95634" lon="2.31546">
        <ele>89.2</ele>
        <time>2023-12-27T15:40:39Z</time>
      </trkpt>
      <trkpt lat="49.95633" lon="2.31546">
        <ele>89.1</ele>
        <time>2023-12-27T15:40:40Z</time>
      </trkpt>
      <trkpt lat="49.95632" lon="2.31546">
        <ele>89.1</ele>
        <time>2023-12-27T15:40:41Z</time>
      </trkpt>
      <trkpt lat="49.95631" lon="2.31545">
        <ele>89.1</ele>
        <time>2023-12-27T15:40:42Z</time>
      </trkpt>
      <trkpt lat="49.9563" lon="2.31545">
        <ele>89</ele>
        <time>2023-12-27T15:40:43Z</time>
      </trkpt>
      <trkpt lat="49.95629" lon="2.31545">
        <ele>89</ele>
        <time>2023-12-27T15:40:44Z</time>
      </trkpt>
      <trkpt lat="49.95628" lon="2.31545">
        <ele>88.9</ele>
        <time>2023-12-27T15:40:45Z</time>
      </trkpt>
      <trkpt lat="49.95627" lon="2.31545">
        <ele>88.9</ele>
        <time>2023-12-27T15:40:46Z</time>
      </trkpt>
      <trkpt lat="49.95626" lon="2.31545">
        <ele>88.9</ele>
        <time>2023-12-27T15:40:47Z</time>
      </trkpt>
      <trkpt lat="49.95625" lon="2.31544">
        <ele>88.8</ele>
        <time>2023-12-27T15:40:49Z</time>
      </trkpt>
      <trkpt lat="49.95624" lon="2.31544">
        <ele>88.8</ele>
        <time>2023-12-27T15:40:50Z</time>
      </trkpt>
      <trkpt lat="49.95622" lon="2.31544">
        <ele>88.7</ele>
        <time>2023-12-27T15:40:51Z</time>
      </trkpt>
      <trkpt lat="49.95621" lon="2.31544">
        <ele>88.7</ele>
        <time>2023-12-27T15:40:52Z</time>
      </trkpt>
      <trkpt lat="49.9562" lon="2.31544">
        <ele>88.7</ele>
        <time>2023-12-27T15:40:53Z</time>
      </trkpt>
      <trkpt lat="49.95618" lon="2.31543">
        <ele>88.6</ele>
        <time>2023-12-27T15:40:54Z</time>
      </trkpt>
      <trkpt lat="49.95617" lon="2.31543">
        <ele>88.6</ele>
        <time>2023-12-27T15:40:55Z</time>
      </trkpt>
      <trkpt lat="49.95616" lon="2.31543">
        <ele>88.5</ele>
        <time>2023-12-27T15:40:56Z</time>
      </trkpt>
      <trkpt lat="49.95614" lon="2.31543">
        <ele>88.5</ele>
        <time>2023-12-27T15:40:57Z</time>
      </trkpt>
      <trkpt lat="49.95613" lon="2.31543">
        <ele>88.4</ele>
        <time>2023-12-27T15:40:58Z</time>
      </trkpt>
      <trkpt lat="49.95611" lon="2.31542">
        <ele>88.3</ele>
        <time>2023-12-27T15:40:59Z</time>
      </trkpt>
      <trkpt lat="49.9561" lon="2.31542">
        <ele>88.3</ele>
        <time>2023-12-27T15:41:01Z</time>
      </trkpt>
      <trkpt lat="49.95609" lon="2.31542">
        <ele>88.3</ele>
        <time>2023-12-27T15:41:02Z</time>
      </trkpt>
      <trkpt lat="49.95607" lon="2.31542">
        <ele>88.2</ele>
        <time>2023-12-27T15:41:03Z</time>
      </trkpt>
      <trkpt lat="49.95606" lon="2.31542">
        <ele>88.1</ele>
        <time>2023-12-27T15:41:04Z</time>
      </trkpt>
      <trkpt lat="49.95605" lon="2.31542">
        <ele>88.1</ele>
        <time>2023-12-27T15:41:05Z</time>
      </trkpt>
      <trkpt lat="49.95603" lon="2.31542">
        <ele>88</ele>
        <time>2023-12-27T15:41:06Z</time>
      </trkpt>
      <trkpt lat="49.95602" lon="2.31542">
        <ele>88</ele>
        <time>2023-12-27T15:41:07Z</time>
      </trkpt>
      <trkpt lat="49.956" lon="2.31542">
        <ele>87.9</ele>
        <time>2023-12-27T15:41:09Z</time>
      </trkpt>
      <trkpt lat="49.95599" lon="2.31542">
        <ele>87.9</ele>
        <time>2023-12-27T15:41:10Z</time>
      </trkpt>
      <trkpt lat="49.95598" lon="2.31542">
        <ele>87.8</ele>
        <time>2023-12-27T15:41:11Z</time>
      </trkpt>
      <trkpt lat="49.95597" lon="2.31542">
        <ele>87.8</ele>
        <time>2023-12-27T15:41:12Z</time>
      </trkpt>
      <trkpt lat="49.95596" lon="2.31542">
        <ele>87.7</ele>
        <time>2023-12-27T15:41:13Z</time>
      </trkpt>
      <trkpt lat="49.95595" lon="2.31542">
        <ele>87.7</ele>
        <time>2023-12-27T15:41:14Z</time>
      </trkpt>
      <trkpt lat="49.95593" lon="2.31542">
        <ele>87.6</ele>
        <time>2023-12-27T15:41:15Z</time>
      </trkpt>
      <trkpt lat="49.95592" lon="2.31542">
        <ele>87.6</ele>
        <time>2023-12-27T15:41:16Z</time>
      </trkpt>
      <trkpt lat="49.95591" lon="2.31541">
        <ele>87.5</ele>
        <time>2023-12-27T15:41:17Z</time>
      </trkpt>
      <trkpt lat="49.95589" lon="2.31541">
        <ele>87.4</ele>
        <time>2023-12-27T15:41:19Z</time>
      </trkpt>
      <trkpt lat="49.95588" lon="2.31541">
        <ele>87.4</ele>
        <time>2023-12-27T15:41:20Z</time>
      </trkpt>
      <trkpt lat="49.95586" lon="2.3154">
        <ele>87.3</ele>
        <time>2023-12-27T15:41:21Z</time>
      </trkpt>
      <trkpt lat="49.95585" lon="2.3154">
        <ele>87.3</ele>
        <time>2023-12-27T15:41:22Z</time>
      </trkpt>
      <trkpt lat="49.95584" lon="2.3154">
        <ele>87.3</ele>
        <time>2023-12-27T15:41:23Z</time>
      </trkpt>
      <trkpt lat="49.95583" lon="2.3154">
        <ele>87.2</ele>
        <time>2023-12-27T15:41:24Z</time>
      </trkpt>
      <trkpt lat="49.95582" lon="2.31539">
        <ele>87.1</ele>
        <time>2023-12-27T15:41:25Z</time>
      </trkpt>
      <trkpt lat="49.9558" lon="2.31539">
        <ele>87.1</ele>
        <time>2023-12-27T15:41:27Z</time>
      </trkpt>
      <trkpt lat="49.95579" lon="2.31539">
        <ele>87</ele>
        <time>2023-12-27T15:41:28Z</time>
      </trkpt>
      <trkpt lat="49.95578" lon="2.31538">
        <ele>87</ele>
        <time>2023-12-27T15:41:29Z</time>
      </trkpt>
      <trkpt lat="49.95576" lon="2.31538">
        <ele>86.9</ele>
        <time>2023-12-27T15:41:30Z</time>
      </trkpt>
      <trkpt lat="49.95575" lon="2.31538">
        <ele>86.9</ele>
        <time>2023-12-27T15:41:31Z</time>
      </trkpt>
      <trkpt lat="49.95574" lon="2.31538">
        <ele>86.8</ele>
        <time>2023-12-27T15:41:32Z</time>
      </trkpt>
      <trkpt lat="49.95573" lon="2.31538">
        <ele>86.8</ele>
        <time>2023-12-27T15:41:34Z</time>
      </trkpt>
      <trkpt lat="49.95572" lon="2.31537">
        <ele>86.8</ele>
        <time>2023-12-27T15:41:35Z</time>
      </trkpt>
      <trkpt lat="49.95571" lon="2.31537">
        <ele>86.7</ele>
        <time>2023-12-27T15:41:36Z</time>
      </trkpt>
      <trkpt lat="49.95569" lon="2.31537">
        <ele>86.6</ele>
        <time>2023-12-27T15:41:37Z</time>
      </trkpt>
      <trkpt lat="49.95568" lon="2.31537">
        <ele>86.6</ele>
        <time>2023-12-27T15:41:38Z</time>
      </trkpt>
      <trkpt lat="49.95567" lon="2.31537">
        <ele>86.6</ele>
        <time>2023-12-27T15:41:39Z</time>
      </trkpt>
      <trkpt lat="49.95565" lon="2.31537">
        <ele>86.5</ele>
        <time>2023-12-27T15:41:40Z</time>
      </trkpt>
      <trkpt lat="49.95564" lon="2.31537">
        <ele>86.5</ele>
        <time>2023-12-27T15:41:41Z</time>
      </trkpt>
      <trkpt lat="49.95563" lon="2.31537">
        <ele>86.4</ele>
        <time>2023-12-27T15:41:42Z</time>
      </trkpt>
      <trkpt lat="49.95561" lon="2.31537">
        <ele>86.3</ele>
        <time>2023-12-27T15:41:43Z</time>
      </trkpt>
      <trkpt lat="49.9556" lon="2.31537">
        <ele>86.3</ele>
        <time>2023-12-27T15:41:45Z</time>
      </trkpt>
      <trkpt lat="49.95558" lon="2.31537">
        <ele>86.2</ele>
        <time>2023-12-27T15:41:46Z</time>
      </trkpt>
      <trkpt lat="49.95557" lon="2.31537">
        <ele>86.2</ele>
        <time>2023-12-27T15:41:47Z</time>
      </trkpt>
      <trkpt lat="49.95556" lon="2.31537">
        <ele>86.1</ele>
        <time>2023-12-27T15:41:48Z</time>
      </trkpt>
      <trkpt lat="49.95554" lon="2.31537">
        <ele>86.1</ele>
        <time>2023-12-27T15:41:49Z</time>
      </trkpt>
      <trkpt lat="49.95553" lon="2.31537">
        <ele>86</ele>
        <time>2023-12-27T15:41:50Z</time>
      </trkpt>
      <trkpt lat="49.95552" lon="2.31537">
        <ele>86</ele>
        <time>2023-12-27T15:41:51Z</time>
      </trkpt>
      <trkpt lat="49.9555" lon="2.31537">
        <ele>85.9</ele>
        <time>2023-12-27T15:41:52Z</time>
      </trkpt>
      <trkpt lat="49.95548" lon="2.31537">
        <ele>85.9</ele>
        <time>2023-12-27T15:41:53Z</time>
      </trkpt>
      <trkpt lat="49.95547" lon="2.31537">
        <ele>85.8</ele>
        <time>2023-12-27T15:41:55Z</time>
      </trkpt>
      <trkpt lat="49.95546" lon="2.31536">
        <ele>85.8</ele>
        <time>2023-12-27T15:41:56Z</time>
      </trkpt>
      <trkpt lat="49.95545" lon="2.31536">
        <ele>85.8</ele>
        <time>2023-12-27T15:41:57Z</time>
      </trkpt>
      <trkpt lat="49.95543" lon="2.31536">
        <ele>85.7</ele>
        <time>2023-12-27T15:41:58Z</time>
      </trkpt>
      <trkpt lat="49.95541" lon="2.31534">
        <ele>85.7</ele>
        <time>2023-12-27T15:41:59Z</time>
      </trkpt>
      <trkpt lat="49.95541" lon="2.31534">
        <ele>85.7</ele>
        <time>2023-12-27T15:42:00Z</time>
      </trkpt>
      <trkpt lat="49.9554" lon="2.31533">
        <ele>85.6</ele>
        <time>2023-12-27T15:42:01Z</time>
      </trkpt>
      <trkpt lat="49.95538" lon="2.31532">
        <ele>85.6</ele>
        <time>2023-12-27T15:42:03Z</time>
      </trkpt>
      <trkpt lat="49.95537" lon="2.31531">
        <ele>85.6</ele>
        <time>2023-12-27T15:42:04Z</time>
      </trkpt>
      <trkpt lat="49.95536" lon="2.31531">
        <ele>85.6</ele>
        <time>2023-12-27T15:42:05Z</time>
      </trkpt>
      <trkpt lat="49.95534" lon="2.31529">
        <ele>85.5</ele>
        <time>2023-12-27T15:42:06Z</time>
      </trkpt>
      <trkpt lat="49.95534" lon="2.31529">
        <ele>85.5</ele>
        <time>2023-12-27T15:42:07Z</time>
      </trkpt>
      <trkpt lat="49.95533" lon="2.31529">
        <ele>85.5</ele>
        <time>2023-12-27T15:42:08Z</time>
      </trkpt>
      <trkpt lat="49.95531" lon="2.31528">
        <ele>85.4</ele>
        <time>2023-12-27T15:42:09Z</time>
      </trkpt>
      <trkpt lat="49.9553" lon="2.31528">
        <ele>85.4</ele>
        <time>2023-12-27T15:42:10Z</time>
      </trkpt>
      <trkpt lat="49.95529" lon="2.31528">
        <ele>85.4</ele>
        <time>2023-12-27T15:42:11Z</time>
      </trkpt>
      <trkpt lat="49.95528" lon="2.31528">
        <ele>85.4</ele>
        <time>2023-12-27T15:42:13Z</time>
      </trkpt>
      <trkpt lat="49.95527" lon="2.31528">
        <ele>85.3</ele>
        <time>2023-12-27T15:42:14Z</time>
      </trkpt>
      <trkpt lat="49.95526" lon="2.31528">
        <ele>85.3</ele>
        <time>2023-12-27T15:42:15Z</time>
      </trkpt>
      <trkpt lat="49.95525" lon="2.31528">
        <ele>85.3</ele>
        <time>2023-12-27T15:42:16Z</time>
      </trkpt>
      <trkpt lat="49.95524" lon="2.31528">
        <ele>85.2</ele>
        <time>2023-12-27T15:42:17Z</time>
      </trkpt>
      <trkpt lat="49.95523" lon="2.31528">
        <ele>85.2</ele>
        <time>2023-12-27T15:42:18Z</time>
      </trkpt>
      <trkpt lat="49.95521" lon="2.31529">
        <ele>85.1</ele>
        <time>2023-12-27T15:42:19Z</time>
      </trkpt>
      <trkpt lat="49.9552" lon="2.31529">
        <ele>85.1</ele>
        <time>2023-12-27T15:42:20Z</time>
      </trkpt>
      <trkpt lat="49.95518" lon="2.31529">
        <ele>85</ele>
        <time>2023-12-27T15:42:22Z</time>
      </trkpt>
      <trkpt lat="49.95517" lon="2.31529">
        <ele>85</ele>
        <time>2023-12-27T15:42:23Z</time>
      </trkpt>
      <trkpt lat="49.95515" lon="2.31529">
        <ele>84.9</ele>
        <time>2023-12-27T15:42:24Z</time>
      </trkpt>
      <trkpt lat="49.95514" lon="2.31529">
        <ele>84.9</ele>
        <time>2023-12-27T15:42:25Z</time>
      </trkpt>
      <trkpt lat="49.95512" lon="2.31529">
        <ele>84.8</ele>
        <time>2023-12-27T15:42:26Z</time>
      </trkpt>
      <trkpt lat="49.95511" lon="2.3153">
        <ele>84.7</ele>
        <time>2023-12-27T15:42:27Z</time>
      </trkpt>
      <trkpt lat="49.9551" lon="2.3153">
        <ele>84.7</ele>
        <time>2023-12-27T15:42:28Z</time>
      </trkpt>
      <trkpt lat="49.95507" lon="2.3153">
        <ele>84.6</ele>
        <time>2023-12-27T15:42:29Z</time>
      </trkpt>
      <trkpt lat="49.95506" lon="2.31529">
        <ele>84.6</ele>
        <time>2023-12-27T15:42:30Z</time>
      </trkpt>
      <trkpt lat="49.95505" lon="2.31529">
        <ele>84.5</ele>
        <time>2023-12-27T15:42:31Z</time>
      </trkpt>
      <trkpt lat="49.95504" lon="2.31529">
        <ele>84.5</ele>
        <time>2023-12-27T15:42:32Z</time>
      </trkpt>
      <trkpt lat="49.95503" lon="2.31529">
        <ele>84.4</ele>
        <time>2023-12-27T15:42:33Z</time>
      </trkpt>
      <trkpt lat="49.95502" lon="2.31529">
        <ele>84.4</ele>
        <time>2023-12-27T15:42:35Z</time>
      </trkpt>
      <trkpt lat="49.955" lon="2.31529">
        <ele>84.4</ele>
        <time>2023-12-27T15:42:36Z</time>
      </trkpt>
      <trkpt lat="49.95499" lon="2.31528">
        <ele>84.3</ele>
        <time>2023-12-27T15:42:37Z</time>
      </trkpt>
      <trkpt lat="49.95497" lon="2.31528">
        <ele>84.2</ele>
        <time>2023-12-27T15:42:38Z</time>
      </trkpt>
      <trkpt lat="49.95496" lon="2.31528">
        <ele>84.2</ele>
        <time>2023-12-27T15:42:39Z</time>
      </trkpt>
      <trkpt lat="49.95495" lon="2.31527">
        <ele>84.2</ele>
        <time>2023-12-27T15:42:40Z</time>
      </trkpt>
      <trkpt lat="49.95493" lon="2.31527">
        <ele>84.1</ele>
        <time>2023-12-27T15:42:41Z</time>
      </trkpt>
      <trkpt lat="49.95493" lon="2.31527">
        <ele>84.1</ele>
        <time>2023-12-27T15:42:42Z</time>
      </trkpt>
      <trkpt lat="49.95492" lon="2.31527">
        <ele>84.1</ele>
        <time>2023-12-27T15:42:43Z</time>
      </trkpt>
      <trkpt lat="49.9549" lon="2.31527">
        <ele>84</ele>
        <time>2023-12-27T15:42:45Z</time>
      </trkpt>
      <trkpt lat="49.95489" lon="2.31527">
        <ele>84</ele>
        <time>2023-12-27T15:42:46Z</time>
      </trkpt>
      <trkpt lat="49.95488" lon="2.31527">
        <ele>83.9</ele>
        <time>2023-12-27T15:42:47Z</time>
      </trkpt>
      <trkpt lat="49.95487" lon="2.31526">
        <ele>83.9</ele>
        <time>2023-12-27T15:42:48Z</time>
      </trkpt>
      <trkpt lat="49.95486" lon="2.31526">
        <ele>83.9</ele>
        <time>2023-12-27T15:42:49Z</time>
      </trkpt>
      <trkpt lat="49.95485" lon="2.31526">
        <ele>83.8</ele>
        <time>2023-12-27T15:42:50Z</time>
      </trkpt>
      <trkpt lat="49.95484" lon="2.31525">
        <ele>83.8</ele>
        <time>2023-12-27T15:42:51Z</time>
      </trkpt>
      <trkpt lat="49.95483" lon="2.31525">
        <ele>83.8</ele>
        <time>2023-12-27T15:42:52Z</time>
      </trkpt>
      <trkpt lat="49.95482" lon="2.31525">
        <ele>83.7</ele>
        <time>2023-12-27T15:42:53Z</time>
      </trkpt>
      <trkpt lat="49.95481" lon="2.31525">
        <ele>83.7</ele>
        <time>2023-12-27T15:42:54Z</time>
      </trkpt>
      <trkpt lat="49.95479" lon="2.31525">
        <ele>83.6</ele>
        <time>2023-12-27T15:42:56Z</time>
      </trkpt>
      <trkpt lat="49.95478" lon="2.31524">
        <ele>83.6</ele>
        <time>2023-12-27T15:42:57Z</time>
      </trkpt>
      <trkpt lat="49.95477" lon="2.31524">
        <ele>83.6</ele>
        <time>2023-12-27T15:42:58Z</time>
      </trkpt>
      <trkpt lat="49.95476" lon="2.31523">
        <ele>83.5</ele>
        <time>2023-12-27T15:42:59Z</time>
      </trkpt>
      <trkpt lat="49.95475" lon="2.31523">
        <ele>83.5</ele>
        <time>2023-12-27T15:43:00Z</time>
      </trkpt>
      <trkpt lat="49.95474" lon="2.31522">
        <ele>83.5</ele>
        <time>2023-12-27T15:43:01Z</time>
      </trkpt>
      <trkpt lat="49.95473" lon="2.31521">
        <ele>83.4</ele>
        <time>2023-12-27T15:43:02Z</time>
      </trkpt>
      <trkpt lat="49.95472" lon="2.31521">
        <ele>83.4</ele>
        <time>2023-12-27T15:43:03Z</time>
      </trkpt>
      <trkpt lat="49.95471" lon="2.3152">
        <ele>83.3</ele>
        <time>2023-12-27T15:43:04Z</time>
      </trkpt>
      <trkpt lat="49.9547" lon="2.3152">
        <ele>83.3</ele>
        <time>2023-12-27T15:43:06Z</time>
      </trkpt>
      <trkpt lat="49.95469" lon="2.3152">
        <ele>83.3</ele>
        <time>2023-12-27T15:43:07Z</time>
      </trkpt>
      <trkpt lat="49.95467" lon="2.31519">
        <ele>83.2</ele>
        <time>2023-12-27T15:43:08Z</time>
      </trkpt>
      <trkpt lat="49.95466" lon="2.31519">
        <ele>83.2</ele>
        <time>2023-12-27T15:43:09Z</time>
      </trkpt>
      <trkpt lat="49.95465" lon="2.31519">
        <ele>83.1</ele>
        <time>2023-12-27T15:43:10Z</time>
      </trkpt>
      <trkpt lat="49.95464" lon="2.31519">
        <ele>83.1</ele>
        <time>2023-12-27T15:43:11Z</time>
      </trkpt>
      <trkpt lat="49.95462" lon="2.31519">
        <ele>83.1</ele>
        <time>2023-12-27T15:43:12Z</time>
      </trkpt>
      <trkpt lat="49.95461" lon="2.31519">
        <ele>83</ele>
        <time>2023-12-27T15:43:13Z</time>
      </trkpt>
      <trkpt lat="49.95459" lon="2.31518">
        <ele>82.9</ele>
        <time>2023-12-27T15:43:15Z</time>
      </trkpt>
      <trkpt lat="49.95458" lon="2.31519">
        <ele>82.9</ele>
        <time>2023-12-27T15:43:16Z</time>
      </trkpt>
      <trkpt lat="49.95458" lon="2.31519">
        <ele>82.9</ele>
        <time>2023-12-27T15:43:17Z</time>
      </trkpt>
      <trkpt lat="49.95456" lon="2.31519">
        <ele>82.8</ele>
        <time>2023-12-27T15:43:18Z</time>
      </trkpt>
      <trkpt lat="49.95455" lon="2.3152">
        <ele>82.8</ele>
        <time>2023-12-27T15:43:19Z</time>
      </trkpt>
      <trkpt lat="49.95454" lon="2.3152">
        <ele>82.8</ele>
        <time>2023-12-27T15:43:20Z</time>
      </trkpt>
      <trkpt lat="49.95452" lon="2.3152">
        <ele>82.7</ele>
        <time>2023-12-27T15:43:22Z</time>
      </trkpt>
      <trkpt lat="49.95451" lon="2.31521">
        <ele>82.7</ele>
        <time>2023-12-27T15:43:23Z</time>
      </trkpt>
      <trkpt lat="49.95449" lon="2.31521">
        <ele>82.6</ele>
        <time>2023-12-27T15:43:24Z</time>
      </trkpt>
      <trkpt lat="49.95448" lon="2.31522">
        <ele>82.6</ele>
        <time>2023-12-27T15:43:25Z</time>
      </trkpt>
      <trkpt lat="49.95447" lon="2.31522">
        <ele>82.5</ele>
        <time>2023-12-27T15:43:26Z</time>
      </trkpt>
      <trkpt lat="49.95445" lon="2.31521">
        <ele>82.5</ele>
        <time>2023-12-27T15:43:27Z</time>
      </trkpt>
      <trkpt lat="49.95444" lon="2.31521">
        <ele>82.4</ele>
        <time>2023-12-27T15:43:28Z</time>
      </trkpt>
      <trkpt lat="49.95443" lon="2.31521">
        <ele>82.4</ele>
        <time>2023-12-27T15:43:29Z</time>
      </trkpt>
      <trkpt lat="49.95441" lon="2.3152">
        <ele>82.3</ele>
        <time>2023-12-27T15:43:31Z</time>
      </trkpt>
      <trkpt lat="49.9544" lon="2.3152">
        <ele>82.3</ele>
        <time>2023-12-27T15:43:32Z</time>
      </trkpt>
      <trkpt lat="49.95439" lon="2.3152">
        <ele>82.3</ele>
        <time>2023-12-27T15:43:33Z</time>
      </trkpt>
      <trkpt lat="49.95437" lon="2.3152">
        <ele>82.2</ele>
        <time>2023-12-27T15:43:34Z</time>
      </trkpt>
      <trkpt lat="49.95436" lon="2.3152">
        <ele>82.1</ele>
        <time>2023-12-27T15:43:35Z</time>
      </trkpt>
      <trkpt lat="49.95434" lon="2.31519">
        <ele>82.1</ele>
        <time>2023-12-27T15:43:36Z</time>
      </trkpt>
      <trkpt lat="49.95433" lon="2.3152">
        <ele>82</ele>
        <time>2023-12-27T15:43:37Z</time>
      </trkpt>
      <trkpt lat="49.95431" lon="2.3152">
        <ele>82</ele>
        <time>2023-12-27T15:43:38Z</time>
      </trkpt>
      <trkpt lat="49.95429" lon="2.3152">
        <ele>81.9</ele>
        <time>2023-12-27T15:43:40Z</time>
      </trkpt>
      <trkpt lat="49.95429" lon="2.3152">
        <ele>81.9</ele>
        <time>2023-12-27T15:43:41Z</time>
      </trkpt>
      <trkpt lat="49.95428" lon="2.3152">
        <ele>81.9</ele>
        <time>2023-12-27T15:43:42Z</time>
      </trkpt>
      <trkpt lat="49.95426" lon="2.31519">
        <ele>81.8</ele>
        <time>2023-12-27T15:43:43Z</time>
      </trkpt>
      <trkpt lat="49.95425" lon="2.31519">
        <ele>81.8</ele>
        <time>2023-12-27T15:43:44Z</time>
      </trkpt>
      <trkpt lat="49.95424" lon="2.31519">
        <ele>81.8</ele>
        <time>2023-12-27T15:43:45Z</time>
      </trkpt>
      <trkpt lat="49.95422" lon="2.31519">
        <ele>81.7</ele>
        <time>2023-12-27T15:43:46Z</time>
      </trkpt>
      <trkpt lat="49.95421" lon="2.31518">
        <ele>81.7</ele>
        <time>2023-12-27T15:43:47Z</time>
      </trkpt>
      <trkpt lat="49.9542" lon="2.31518">
        <ele>81.7</ele>
        <time>2023-12-27T15:43:48Z</time>
      </trkpt>
      <trkpt lat="49.95419" lon="2.31518">
        <ele>81.6</ele>
        <time>2023-12-27T15:43:49Z</time>
      </trkpt>
      <trkpt lat="49.95418" lon="2.31517">
        <ele>81.6</ele>
        <time>2023-12-27T15:43:50Z</time>
      </trkpt>
      <trkpt lat="49.95416" lon="2.31517">
        <ele>81.5</ele>
        <time>2023-12-27T15:43:51Z</time>
      </trkpt>
      <trkpt lat="49.95415" lon="2.31516">
        <ele>81.5</ele>
        <time>2023-12-27T15:43:52Z</time>
      </trkpt>
      <trkpt lat="49.95414" lon="2.31516">
        <ele>81.5</ele>
        <time>2023-12-27T15:43:53Z</time>
      </trkpt>
      <trkpt lat="49.95413" lon="2.31516">
        <ele>81.5</ele>
        <time>2023-12-27T15:43:55Z</time>
      </trkpt>
      <trkpt lat="49.95412" lon="2.31515">
        <ele>81.4</ele>
        <time>2023-12-27T15:43:56Z</time>
      </trkpt>
      <trkpt lat="49.95411" lon="2.31515">
        <ele>81.4</ele>
        <time>2023-12-27T15:43:57Z</time>
      </trkpt>
      <trkpt lat="49.9541" lon="2.31515">
        <ele>81.4</ele>
        <time>2023-12-27T15:43:58Z</time>
      </trkpt>
      <trkpt lat="49.95408" lon="2.31514">
        <ele>81.3</ele>
        <time>2023-12-27T15:43:59Z</time>
      </trkpt>
      <trkpt lat="49.95408" lon="2.31513">
        <ele>81.3</ele>
        <time>2023-12-27T15:44:00Z</time>
      </trkpt>
      <trkpt lat="49.95406" lon="2.31513">
        <ele>81.3</ele>
        <time>2023-12-27T15:44:01Z</time>
      </trkpt>
      <trkpt lat="49.95405" lon="2.31512">
        <ele>81.2</ele>
        <time>2023-12-27T15:44:02Z</time>
      </trkpt>
      <trkpt lat="49.95404" lon="2.31512">
        <ele>81.2</ele>
        <time>2023-12-27T15:44:03Z</time>
      </trkpt>
      <trkpt lat="49.95402" lon="2.31512">
        <ele>81.1</ele>
        <time>2023-12-27T15:44:05Z</time>
      </trkpt>
      <trkpt lat="49.95401" lon="2.31512">
        <ele>81.1</ele>
        <time>2023-12-27T15:44:06Z</time>
      </trkpt>
      <trkpt lat="49.954" lon="2.31512">
        <ele>81.1</ele>
        <time>2023-12-27T15:44:07Z</time>
      </trkpt>
      <trkpt lat="49.95398" lon="2.31512">
        <ele>81.1</ele>
        <time>2023-12-27T15:44:08Z</time>
      </trkpt>
      <trkpt lat="49.95398" lon="2.31512">
        <ele>81</ele>
        <time>2023-12-27T15:44:09Z</time>
      </trkpt>
      <trkpt lat="49.95397" lon="2.31512">
        <ele>81</ele>
        <time>2023-12-27T15:44:10Z</time>
      </trkpt>
      <trkpt lat="49.95396" lon="2.31512">
        <ele>81</ele>
        <time>2023-12-27T15:44:11Z</time>
      </trkpt>
      <trkpt lat="49.95394" lon="2.31512">
        <ele>80.9</ele>
        <time>2023-12-27T15:44:12Z</time>
      </trkpt>
      <trkpt lat="49.95393" lon="2.31512">
        <ele>80.9</ele>
        <time>2023-12-27T15:44:13Z</time>
      </trkpt>
      <trkpt lat="49.95392" lon="2.31512">
        <ele>80.9</ele>
        <time>2023-12-27T15:44:15Z</time>
      </trkpt>
      <trkpt lat="49.95391" lon="2.31512">
        <ele>80.8</ele>
        <time>2023-12-27T15:44:16Z</time>
      </trkpt>
      <trkpt lat="49.9539" lon="2.31512">
        <ele>80.8</ele>
        <time>2023-12-27T15:44:17Z</time>
      </trkpt>
      <trkpt lat="49.95389" lon="2.31512">
        <ele>80.8</ele>
        <time>2023-12-27T15:44:18Z</time>
      </trkpt>
      <trkpt lat="49.95387" lon="2.31511">
        <ele>80.8</ele>
        <time>2023-12-27T15:44:19Z</time>
      </trkpt>
      <trkpt lat="49.95386" lon="2.31511">
        <ele>80.7</ele>
        <time>2023-12-27T15:44:20Z</time>
      </trkpt>
      <trkpt lat="49.95384" lon="2.3151">
        <ele>80.7</ele>
        <time>2023-12-27T15:44:21Z</time>
      </trkpt>
      <trkpt lat="49.95384" lon="2.3151">
        <ele>80.7</ele>
        <time>2023-12-27T15:44:22Z</time>
      </trkpt>
      <trkpt lat="49.95383" lon="2.3151">
        <ele>80.6</ele>
        <time>2023-12-27T15:44:23Z</time>
      </trkpt>
      <trkpt lat="49.95381" lon="2.31509">
        <ele>80.6</ele>
        <time>2023-12-27T15:44:25Z</time>
      </trkpt>
      <trkpt lat="49.9538" lon="2.31509">
        <ele>80.6</ele>
        <time>2023-12-27T15:44:26Z</time>
      </trkpt>
      <trkpt lat="49.95378" lon="2.31508">
        <ele>80.5</ele>
        <time>2023-12-27T15:44:28Z</time>
      </trkpt>
      <trkpt lat="49.95377" lon="2.31508">
        <ele>80.5</ele>
        <time>2023-12-27T15:44:29Z</time>
      </trkpt>
      <trkpt lat="49.95376" lon="2.31507">
        <ele>80.5</ele>
        <time>2023-12-27T15:44:30Z</time>
      </trkpt>
      <trkpt lat="49.95374" lon="2.31507">
        <ele>80.4</ele>
        <time>2023-12-27T15:44:31Z</time>
      </trkpt>
      <trkpt lat="49.95373" lon="2.31506">
        <ele>80.4</ele>
        <time>2023-12-27T15:44:32Z</time>
      </trkpt>
      <trkpt lat="49.95372" lon="2.31506">
        <ele>80.4</ele>
        <time>2023-12-27T15:44:33Z</time>
      </trkpt>
      <trkpt lat="49.95371" lon="2.31506">
        <ele>80.4</ele>
        <time>2023-12-27T15:44:34Z</time>
      </trkpt>
      <trkpt lat="49.9537" lon="2.31505">
        <ele>80.3</ele>
        <time>2023-12-27T15:44:35Z</time>
      </trkpt>
      <trkpt lat="49.95369" lon="2.31505">
        <ele>80.3</ele>
        <time>2023-12-27T15:44:36Z</time>
      </trkpt>
      <trkpt lat="49.95368" lon="2.31504">
        <ele>80.3</ele>
        <time>2023-12-27T15:44:37Z</time>
      </trkpt>
      <trkpt lat="49.95367" lon="2.31504">
        <ele>80.3</ele>
        <time>2023-12-27T15:44:38Z</time>
      </trkpt>
      <trkpt lat="49.95365" lon="2.31504">
        <ele>80.2</ele>
        <time>2023-12-27T15:44:40Z</time>
      </trkpt>
      <trkpt lat="49.95363" lon="2.31503">
        <ele>80.2</ele>
        <time>2023-12-27T15:44:41Z</time>
      </trkpt>
      <trkpt lat="49.95362" lon="2.31503">
        <ele>80.1</ele>
        <time>2023-12-27T15:44:42Z</time>
      </trkpt>
      <trkpt lat="49.95359" lon="2.31503">
        <ele>80.1</ele>
        <time>2023-12-27T15:44:44Z</time>
      </trkpt>
      <trkpt lat="49.95359" lon="2.31503">
        <ele>80</ele>
        <time>2023-12-27T15:44:45Z</time>
      </trkpt>
      <trkpt lat="49.95358" lon="2.31502">
        <ele>80</ele>
        <time>2023-12-27T15:44:46Z</time>
      </trkpt>
      <trkpt lat="49.95357" lon="2.31502">
        <ele>80</ele>
        <time>2023-12-27T15:44:47Z</time>
      </trkpt>
      <trkpt lat="49.95355" lon="2.31502">
        <ele>79.9</ele>
        <time>2023-12-27T15:44:48Z</time>
      </trkpt>
      <trkpt lat="49.95354" lon="2.31502">
        <ele>79.9</ele>
        <time>2023-12-27T15:44:49Z</time>
      </trkpt>
      <trkpt lat="49.95352" lon="2.31502">
        <ele>79.8</ele>
        <time>2023-12-27T15:44:50Z</time>
      </trkpt>
      <trkpt lat="49.95351" lon="2.31502">
        <ele>79.8</ele>
        <time>2023-12-27T15:44:52Z</time>
      </trkpt>
      <trkpt lat="49.9535" lon="2.31502">
        <ele>79.7</ele>
        <time>2023-12-27T15:44:53Z</time>
      </trkpt>
      <trkpt lat="49.95349" lon="2.31502">
        <ele>79.7</ele>
        <time>2023-12-27T15:44:54Z</time>
      </trkpt>
      <trkpt lat="49.95348" lon="2.31502">
        <ele>79.7</ele>
        <time>2023-12-27T15:44:55Z</time>
      </trkpt>
      <trkpt lat="49.95345" lon="2.31502">
        <ele>79.6</ele>
        <time>2023-12-27T15:44:56Z</time>
      </trkpt>
      <trkpt lat="49.95345" lon="2.31502">
        <ele>79.6</ele>
        <time>2023-12-27T15:44:57Z</time>
      </trkpt>
      <trkpt lat="49.95344" lon="2.31502">
        <ele>79.5</ele>
        <time>2023-12-27T15:44:58Z</time>
      </trkpt>
      <trkpt lat="49.95342" lon="2.31502">
        <ele>79.5</ele>
        <time>2023-12-27T15:44:59Z</time>
      </trkpt>
      <trkpt lat="49.95341" lon="2.31501">
        <ele>79.5</ele>
        <time>2023-12-27T15:45:00Z</time>
      </trkpt>
      <trkpt lat="49.9534" lon="2.31501">
        <ele>79.4</ele>
        <time>2023-12-27T15:45:01Z</time>
      </trkpt>
      <trkpt lat="49.95339" lon="2.31501">
        <ele>79.4</ele>
        <time>2023-12-27T15:45:02Z</time>
      </trkpt>
      <trkpt lat="49.95338" lon="2.315">
        <ele>79.4</ele>
        <time>2023-12-27T15:45:04Z</time>
      </trkpt>
      <trkpt lat="49.95337" lon="2.315">
        <ele>79.3</ele>
        <time>2023-12-27T15:45:05Z</time>
      </trkpt>
      <trkpt lat="49.95335" lon="2.31499">
        <ele>79.3</ele>
        <time>2023-12-27T15:45:06Z</time>
      </trkpt>
      <trkpt lat="49.95334" lon="2.31499">
        <ele>79.2</ele>
        <time>2023-12-27T15:45:07Z</time>
      </trkpt>
      <trkpt lat="49.95333" lon="2.31498">
        <ele>79.2</ele>
        <time>2023-12-27T15:45:08Z</time>
      </trkpt>
      <trkpt lat="49.95331" lon="2.31498">
        <ele>79.1</ele>
        <time>2023-12-27T15:45:09Z</time>
      </trkpt>
      <trkpt lat="49.9533" lon="2.31498">
        <ele>79.1</ele>
        <time>2023-12-27T15:45:10Z</time>
      </trkpt>
      <trkpt lat="49.95329" lon="2.31498">
        <ele>79.1</ele>
        <time>2023-12-27T15:45:11Z</time>
      </trkpt>
      <trkpt lat="49.95327" lon="2.31497">
        <ele>79</ele>
        <time>2023-12-27T15:45:13Z</time>
      </trkpt>
      <trkpt lat="49.95326" lon="2.31497">
        <ele>79</ele>
        <time>2023-12-27T15:45:14Z</time>
      </trkpt>
      <trkpt lat="49.95325" lon="2.31497">
        <ele>78.9</ele>
        <time>2023-12-27T15:45:15Z</time>
      </trkpt>
      <trkpt lat="49.95323" lon="2.31496">
        <ele>78.9</ele>
        <time>2023-12-27T15:45:16Z</time>
      </trkpt>
      <trkpt lat="49.95322" lon="2.31496">
        <ele>78.8</ele>
        <time>2023-12-27T15:45:17Z</time>
      </trkpt>
      <trkpt lat="49.95322" lon="2.31496">
        <ele>78.8</ele>
        <time>2023-12-27T15:45:18Z</time>
      </trkpt>
      <trkpt lat="49.9532" lon="2.31495">
        <ele>78.7</ele>
        <time>2023-12-27T15:45:19Z</time>
      </trkpt>
      <trkpt lat="49.95319" lon="2.31495">
        <ele>78.7</ele>
        <time>2023-12-27T15:45:20Z</time>
      </trkpt>
      <trkpt lat="49.95318" lon="2.31495">
        <ele>78.7</ele>
        <time>2023-12-27T15:45:21Z</time>
      </trkpt>
      <trkpt lat="49.95316" lon="2.31495">
        <ele>78.6</ele>
        <time>2023-12-27T15:45:22Z</time>
      </trkpt>
      <trkpt lat="49.95315" lon="2.31495">
        <ele>78.6</ele>
        <time>2023-12-27T15:45:23Z</time>
      </trkpt>
      <trkpt lat="49.95314" lon="2.31496">
        <ele>78.5</ele>
        <time>2023-12-27T15:45:24Z</time>
      </trkpt>
      <trkpt lat="49.95313" lon="2.31496">
        <ele>78.5</ele>
        <time>2023-12-27T15:45:25Z</time>
      </trkpt>
      <trkpt lat="49.95312" lon="2.31496">
        <ele>78.5</ele>
        <time>2023-12-27T15:45:26Z</time>
      </trkpt>
      <trkpt lat="49.9531" lon="2.31496">
        <ele>78.4</ele>
        <time>2023-12-27T15:45:28Z</time>
      </trkpt>
      <trkpt lat="49.95308" lon="2.31496">
        <ele>78.4</ele>
        <time>2023-12-27T15:45:29Z</time>
      </trkpt>
      <trkpt lat="49.95308" lon="2.31496">
        <ele>78.3</ele>
        <time>2023-12-27T15:45:30Z</time>
      </trkpt>
      <trkpt lat="49.95307" lon="2.31496">
        <ele>78.3</ele>
        <time>2023-12-27T15:45:31Z</time>
      </trkpt>
      <trkpt lat="49.95305" lon="2.31496">
        <ele>78.3</ele>
        <time>2023-12-27T15:45:33Z</time>
      </trkpt>
      <trkpt lat="49.95303" lon="2.31496">
        <ele>78.2</ele>
        <time>2023-12-27T15:45:34Z</time>
      </trkpt>
      <trkpt lat="49.95302" lon="2.31496">
        <ele>78.2</ele>
        <time>2023-12-27T15:45:35Z</time>
      </trkpt>
      <trkpt lat="49.95301" lon="2.31496">
        <ele>78.2</ele>
        <time>2023-12-27T15:45:36Z</time>
      </trkpt>
      <trkpt lat="49.953" lon="2.31496">
        <ele>78.1</ele>
        <time>2023-12-27T15:45:37Z</time>
      </trkpt>
      <trkpt lat="49.95298" lon="2.31496">
        <ele>78.1</ele>
        <time>2023-12-27T15:45:38Z</time>
      </trkpt>
      <trkpt lat="49.95297" lon="2.31496">
        <ele>78.1</ele>
        <time>2023-12-27T15:45:39Z</time>
      </trkpt>
      <trkpt lat="49.95296" lon="2.31495">
        <ele>78</ele>
        <time>2023-12-27T15:45:40Z</time>
      </trkpt>
      <trkpt lat="49.95295" lon="2.31495">
        <ele>78</ele>
        <time>2023-12-27T15:45:41Z</time>
      </trkpt>
      <trkpt lat="49.95294" lon="2.31495">
        <ele>78</ele>
        <time>2023-12-27T15:45:42Z</time>
      </trkpt>
      <trkpt lat="49.95293" lon="2.31495">
        <ele>77.9</ele>
        <time>2023-12-27T15:45:44Z</time>
      </trkpt>
      <trkpt lat="49.95291" lon="2.31495">
        <ele>77.9</ele>
        <time>2023-12-27T15:45:45Z</time>
      </trkpt>
      <trkpt lat="49.9529" lon="2.31495">
        <ele>77.9</ele>
        <time>2023-12-27T15:45:46Z</time>
      </trkpt>
      <trkpt lat="49.95289" lon="2.31494">
        <ele>77.9</ele>
        <time>2023-12-27T15:45:47Z</time>
      </trkpt>
      <trkpt lat="49.95288" lon="2.31494">
        <ele>77.8</ele>
        <time>2023-12-27T15:45:48Z</time>
      </trkpt>
      <trkpt lat="49.95287" lon="2.31494">
        <ele>77.8</ele>
        <time>2023-12-27T15:45:49Z</time>
      </trkpt>
      <trkpt lat="49.95286" lon="2.31493">
        <ele>77.8</ele>
        <time>2023-12-27T15:45:50Z</time>
      </trkpt>
      <trkpt lat="49.95284" lon="2.31492">
        <ele>77.7</ele>
        <time>2023-12-27T15:45:51Z</time>
      </trkpt>
      <trkpt lat="49.95283" lon="2.31492">
        <ele>77.7</ele>
        <time>2023-12-27T15:45:52Z</time>
      </trkpt>
      <trkpt lat="49.95282" lon="2.31492">
        <ele>77.7</ele>
        <time>2023-12-27T15:45:53Z</time>
      </trkpt>
      <trkpt lat="49.95281" lon="2.31491">
        <ele>77.6</ele>
        <time>2023-12-27T15:45:54Z</time>
      </trkpt>
      <trkpt lat="49.9528" lon="2.31491">
        <ele>77.6</ele>
        <time>2023-12-27T15:45:56Z</time>
      </trkpt>
      <trkpt lat="49.95279" lon="2.31491">
        <ele>77.6</ele>
        <time>2023-12-27T15:45:57Z</time>
      </trkpt>
      <trkpt lat="49.95277" lon="2.31491">
        <ele>77.5</ele>
        <time>2023-12-27T15:45:58Z</time>
      </trkpt>
      <trkpt lat="49.95276" lon="2.31491">
        <ele>77.5</ele>
        <time>2023-12-27T15:45:59Z</time>
      </trkpt>
      <trkpt lat="49.95275" lon="2.31491">
        <ele>77.5</ele>
        <time>2023-12-27T15:46:00Z</time>
      </trkpt>
      <trkpt lat="49.95273" lon="2.31491">
        <ele>77.4</ele>
        <time>2023-12-27T15:46:01Z</time>
      </trkpt>
      <trkpt lat="49.95272" lon="2.31491">
        <ele>77.4</ele>
        <time>2023-12-27T15:46:02Z</time>
      </trkpt>
      <trkpt lat="49.95272" lon="2.31491">
        <ele>77.4</ele>
        <time>2023-12-27T15:46:03Z</time>
      </trkpt>
      <trkpt lat="49.9527" lon="2.31491">
        <ele>77.4</ele>
        <time>2023-12-27T15:46:04Z</time>
      </trkpt>
      <trkpt lat="49.95269" lon="2.31491">
        <ele>77.3</ele>
        <time>2023-12-27T15:46:05Z</time>
      </trkpt>
      <trkpt lat="49.95268" lon="2.31491">
        <ele>77.3</ele>
        <time>2023-12-27T15:46:07Z</time>
      </trkpt>
      <trkpt lat="49.95267" lon="2.31491">
        <ele>77.3</ele>
        <time>2023-12-27T15:46:08Z</time>
      </trkpt>
      <trkpt lat="49.95266" lon="2.31491">
        <ele>77.2</ele>
        <time>2023-12-27T15:46:09Z</time>
      </trkpt>
      <trkpt lat="49.95264" lon="2.31491">
        <ele>77.2</ele>
        <time>2023-12-27T15:46:10Z</time>
      </trkpt>
      <trkpt lat="49.95263" lon="2.31491">
        <ele>77.2</ele>
        <time>2023-12-27T15:46:11Z</time>
      </trkpt>
      <trkpt lat="49.95262" lon="2.31491">
        <ele>77.2</ele>
        <time>2023-12-27T15:46:13Z</time>
      </trkpt>
      <trkpt lat="49.95261" lon="2.31491">
        <ele>77.1</ele>
        <time>2023-12-27T15:46:14Z</time>
      </trkpt>
      <trkpt lat="49.9526" lon="2.3149">
        <ele>77.1</ele>
        <time>2023-12-27T15:46:15Z</time>
      </trkpt>
      <trkpt lat="49.95259" lon="2.3149">
        <ele>77.1</ele>
        <time>2023-12-27T15:46:16Z</time>
      </trkpt>
      <trkpt lat="49.95257" lon="2.3149">
        <ele>77.1</ele>
        <time>2023-12-27T15:46:17Z</time>
      </trkpt>
      <trkpt lat="49.95256" lon="2.31489">
        <ele>77</ele>
        <time>2023-12-27T15:46:18Z</time>
      </trkpt>
      <trkpt lat="49.95255" lon="2.31489">
        <ele>77</ele>
        <time>2023-12-27T15:46:19Z</time>
      </trkpt>
      <trkpt lat="49.95254" lon="2.31489">
        <ele>77</ele>
        <time>2023-12-27T15:46:20Z</time>
      </trkpt>
      <trkpt lat="49.95252" lon="2.31488">
        <ele>76.9</ele>
        <time>2023-12-27T15:46:21Z</time>
      </trkpt>
      <trkpt lat="49.95251" lon="2.31488">
        <ele>76.9</ele>
        <time>2023-12-27T15:46:22Z</time>
      </trkpt>
      <trkpt lat="49.9525" lon="2.31488">
        <ele>76.9</ele>
        <time>2023-12-27T15:46:23Z</time>
      </trkpt>
      <trkpt lat="49.95248" lon="2.31488">
        <ele>76.9</ele>
        <time>2023-12-27T15:46:25Z</time>
      </trkpt>
      <trkpt lat="49.95247" lon="2.31488">
        <ele>76.8</ele>
        <time>2023-12-27T15:46:26Z</time>
      </trkpt>
      <trkpt lat="49.95246" lon="2.31488">
        <ele>76.8</ele>
        <time>2023-12-27T15:46:27Z</time>
      </trkpt>
      <trkpt lat="49.95245" lon="2.31487">
        <ele>76.8</ele>
        <time>2023-12-27T15:46:28Z</time>
      </trkpt>
      <trkpt lat="49.95244" lon="2.31487">
        <ele>76.7</ele>
        <time>2023-12-27T15:46:29Z</time>
      </trkpt>
      <trkpt lat="49.95243" lon="2.31487">
        <ele>76.7</ele>
        <time>2023-12-27T15:46:30Z</time>
      </trkpt>
      <trkpt lat="49.95241" lon="2.31488">
        <ele>76.7</ele>
        <time>2023-12-27T15:46:31Z</time>
      </trkpt>
      <trkpt lat="49.9524" lon="2.31488">
        <ele>76.6</ele>
        <time>2023-12-27T15:46:32Z</time>
      </trkpt>
      <trkpt lat="49.95239" lon="2.31488">
        <ele>76.6</ele>
        <time>2023-12-27T15:46:33Z</time>
      </trkpt>
      <trkpt lat="49.95238" lon="2.31488">
        <ele>76.6</ele>
        <time>2023-12-27T15:46:34Z</time>
      </trkpt>
      <trkpt lat="49.95237" lon="2.31487">
        <ele>76.5</ele>
        <time>2023-12-27T15:46:36Z</time>
      </trkpt>
      <trkpt lat="49.95235" lon="2.31487">
        <ele>76.5</ele>
        <time>2023-12-27T15:46:37Z</time>
      </trkpt>
      <trkpt lat="49.95234" lon="2.31487">
        <ele>76.5</ele>
        <time>2023-12-27T15:46:38Z</time>
      </trkpt>
      <trkpt lat="49.95233" lon="2.31487">
        <ele>76.4</ele>
        <time>2023-12-27T15:46:39Z</time>
      </trkpt>
      <trkpt lat="49.95231" lon="2.31487">
        <ele>76.3</ele>
        <time>2023-12-27T15:46:41Z</time>
      </trkpt>
      <trkpt lat="49.9523" lon="2.31487">
        <ele>76.3</ele>
        <time>2023-12-27T15:46:42Z</time>
      </trkpt>
      <trkpt lat="49.95229" lon="2.31486">
        <ele>76.3</ele>
        <time>2023-12-27T15:46:43Z</time>
      </trkpt>
      <trkpt lat="49.95228" lon="2.31486">
        <ele>76.2</ele>
        <time>2023-12-27T15:46:44Z</time>
      </trkpt>
      <trkpt lat="49.95227" lon="2.31486">
        <ele>76.2</ele>
        <time>2023-12-27T15:46:45Z</time>
      </trkpt>
      <trkpt lat="49.95226" lon="2.31485">
        <ele>76.2</ele>
        <time>2023-12-27T15:46:46Z</time>
      </trkpt>
      <trkpt lat="49.95225" lon="2.31484">
        <ele>76.1</ele>
        <time>2023-12-27T15:46:47Z</time>
      </trkpt>
      <trkpt lat="49.95223" lon="2.31484">
        <ele>76.1</ele>
        <time>2023-12-27T15:46:48Z</time>
      </trkpt>
      <trkpt lat="49.95222" lon="2.31483">
        <ele>76</ele>
        <time>2023-12-27T15:46:49Z</time>
      </trkpt>
      <trkpt lat="49.95221" lon="2.31482">
        <ele>76</ele>
        <time>2023-12-27T15:46:50Z</time>
      </trkpt>
      <trkpt lat="49.95219" lon="2.31481">
        <ele>75.9</ele>
        <time>2023-12-27T15:46:51Z</time>
      </trkpt>
      <trkpt lat="49.95218" lon="2.3148">
        <ele>75.9</ele>
        <time>2023-12-27T15:46:53Z</time>
      </trkpt>
      <trkpt lat="49.95217" lon="2.3148">
        <ele>75.9</ele>
        <time>2023-12-27T15:46:54Z</time>
      </trkpt>
      <trkpt lat="49.95215" lon="2.31479">
        <ele>75.9</ele>
        <time>2023-12-27T15:46:55Z</time>
      </trkpt>
      <trkpt lat="49.95214" lon="2.31479">
        <ele>75.8</ele>
        <time>2023-12-27T15:46:56Z</time>
      </trkpt>
      <trkpt lat="49.95214" lon="2.31478">
        <ele>75.8</ele>
        <time>2023-12-27T15:46:57Z</time>
      </trkpt>
      <trkpt lat="49.95211" lon="2.31478">
        <ele>75.8</ele>
        <time>2023-12-27T15:46:58Z</time>
      </trkpt>
      <trkpt lat="49.95211" lon="2.31478">
        <ele>75.7</ele>
        <time>2023-12-27T15:46:59Z</time>
      </trkpt>
      <trkpt lat="49.9521" lon="2.31478">
        <ele>75.7</ele>
        <time>2023-12-27T15:47:00Z</time>
      </trkpt>
      <trkpt lat="49.95208" lon="2.31478">
        <ele>75.7</ele>
        <time>2023-12-27T15:47:01Z</time>
      </trkpt>
      <trkpt lat="49.95207" lon="2.31479">
        <ele>75.7</ele>
        <time>2023-12-27T15:47:03Z</time>
      </trkpt>
      <trkpt lat="49.95206" lon="2.31479">
        <ele>75.6</ele>
        <time>2023-12-27T15:47:04Z</time>
      </trkpt>
      <trkpt lat="49.95204" lon="2.31479">
        <ele>75.6</ele>
        <time>2023-12-27T15:47:05Z</time>
      </trkpt>
      <trkpt lat="49.95203" lon="2.31479">
        <ele>75.6</ele>
        <time>2023-12-27T15:47:06Z</time>
      </trkpt>
      <trkpt lat="49.95202" lon="2.31479">
        <ele>75.5</ele>
        <time>2023-12-27T15:47:07Z</time>
      </trkpt>
      <trkpt lat="49.95199" lon="2.3148">
        <ele>75.5</ele>
        <time>2023-12-27T15:47:08Z</time>
      </trkpt>
      <trkpt lat="49.95198" lon="2.3148">
        <ele>75.5</ele>
        <time>2023-12-27T15:47:09Z</time>
      </trkpt>
      <trkpt lat="49.95198" lon="2.3148">
        <ele>75.5</ele>
        <time>2023-12-27T15:47:10Z</time>
      </trkpt>
      <trkpt lat="49.95196" lon="2.3148">
        <ele>75.4</ele>
        <time>2023-12-27T15:47:12Z</time>
      </trkpt>
      <trkpt lat="49.95195" lon="2.3148">
        <ele>75.4</ele>
        <time>2023-12-27T15:47:13Z</time>
      </trkpt>
      <trkpt lat="49.95192" lon="2.3148">
        <ele>75.3</ele>
        <time>2023-12-27T15:47:14Z</time>
      </trkpt>
      <trkpt lat="49.95191" lon="2.3148">
        <ele>75.3</ele>
        <time>2023-12-27T15:47:15Z</time>
      </trkpt>
      <trkpt lat="49.95191" lon="2.3148">
        <ele>75.3</ele>
        <time>2023-12-27T15:47:16Z</time>
      </trkpt>
      <trkpt lat="49.95188" lon="2.3148">
        <ele>75.2</ele>
        <time>2023-12-27T15:47:17Z</time>
      </trkpt>
      <trkpt lat="49.95187" lon="2.3148">
        <ele>75.2</ele>
        <time>2023-12-27T15:47:19Z</time>
      </trkpt>
      <trkpt lat="49.95186" lon="2.31479">
        <ele>75.1</ele>
        <time>2023-12-27T15:47:20Z</time>
      </trkpt>
      <trkpt lat="49.95185" lon="2.31479">
        <ele>75.1</ele>
        <time>2023-12-27T15:47:21Z</time>
      </trkpt>
      <trkpt lat="49.95184" lon="2.31479">
        <ele>75.1</ele>
        <time>2023-12-27T15:47:22Z</time>
      </trkpt>
      <trkpt lat="49.95184" lon="2.31478">
        <ele>75</ele>
        <time>2023-12-27T15:47:23Z</time>
      </trkpt>
      <trkpt lat="49.95183" lon="2.31477">
        <ele>75</ele>
        <time>2023-12-27T15:47:24Z</time>
      </trkpt>
      <trkpt lat="49.95181" lon="2.31476">
        <ele>74.9</ele>
        <time>2023-12-27T15:47:25Z</time>
      </trkpt>
      <trkpt lat="49.9518" lon="2.31475">
        <ele>74.9</ele>
        <time>2023-12-27T15:47:26Z</time>
      </trkpt>
      <trkpt lat="49.95179" lon="2.31475">
        <ele>74.9</ele>
        <time>2023-12-27T15:47:27Z</time>
      </trkpt>
      <trkpt lat="49.95178" lon="2.31475">
        <ele>74.8</ele>
        <time>2023-12-27T15:47:29Z</time>
      </trkpt>
      <trkpt lat="49.95176" lon="2.31474">
        <ele>74.8</ele>
        <time>2023-12-27T15:47:30Z</time>
      </trkpt>
      <trkpt lat="49.95175" lon="2.31474">
        <ele>74.7</ele>
        <time>2023-12-27T15:47:31Z</time>
      </trkpt>
      <trkpt lat="49.95174" lon="2.31474">
        <ele>74.7</ele>
        <time>2023-12-27T15:47:32Z</time>
      </trkpt>
      <trkpt lat="49.95173" lon="2.31474">
        <ele>74.7</ele>
        <time>2023-12-27T15:47:33Z</time>
      </trkpt>
      <trkpt lat="49.95172" lon="2.31474">
        <ele>74.7</ele>
        <time>2023-12-27T15:47:34Z</time>
      </trkpt>
      <trkpt lat="49.95171" lon="2.31474">
        <ele>74.6</ele>
        <time>2023-12-27T15:47:35Z</time>
      </trkpt>
      <trkpt lat="49.9517" lon="2.31474">
        <ele>74.6</ele>
        <time>2023-12-27T15:47:36Z</time>
      </trkpt>
      <trkpt lat="49.95168" lon="2.31474">
        <ele>74.6</ele>
        <time>2023-12-27T15:47:37Z</time>
      </trkpt>
      <trkpt lat="49.95167" lon="2.31474">
        <ele>74.5</ele>
        <time>2023-12-27T15:47:38Z</time>
      </trkpt>
      <trkpt lat="49.95166" lon="2.31475">
        <ele>74.5</ele>
        <time>2023-12-27T15:47:39Z</time>
      </trkpt>
      <trkpt lat="49.95165" lon="2.31475">
        <ele>74.5</ele>
        <time>2023-12-27T15:47:41Z</time>
      </trkpt>
      <trkpt lat="49.95164" lon="2.31475">
        <ele>74.4</ele>
        <time>2023-12-27T15:47:42Z</time>
      </trkpt>
      <trkpt lat="49.95163" lon="2.31475">
        <ele>74.4</ele>
        <time>2023-12-27T15:47:43Z</time>
      </trkpt>
      <trkpt lat="49.95162" lon="2.31475">
        <ele>74.4</ele>
        <time>2023-12-27T15:47:44Z</time>
      </trkpt>
      <trkpt lat="49.95161" lon="2.31475">
        <ele>74.3</ele>
        <time>2023-12-27T15:47:45Z</time>
      </trkpt>
      <trkpt lat="49.95159" lon="2.31474">
        <ele>74.3</ele>
        <time>2023-12-27T15:47:46Z</time>
      </trkpt>
      <trkpt lat="49.95158" lon="2.31474">
        <ele>74.3</ele>
        <time>2023-12-27T15:47:47Z</time>
      </trkpt>
      <trkpt lat="49.95157" lon="2.31473">
        <ele>74.2</ele>
        <time>2023-12-27T15:47:48Z</time>
      </trkpt>
      <trkpt lat="49.95156" lon="2.31473">
        <ele>74.2</ele>
        <time>2023-12-27T15:47:49Z</time>
      </trkpt>
      <trkpt lat="49.95155" lon="2.31472">
        <ele>74.2</ele>
        <time>2023-12-27T15:47:51Z</time>
      </trkpt>
      <trkpt lat="49.95154" lon="2.31471">
        <ele>74.1</ele>
        <time>2023-12-27T15:47:52Z</time>
      </trkpt>
      <trkpt lat="49.95153" lon="2.31471">
        <ele>74.1</ele>
        <time>2023-12-27T15:47:53Z</time>
      </trkpt>
      <trkpt lat="49.95152" lon="2.3147">
        <ele>74.1</ele>
        <time>2023-12-27T15:47:54Z</time>
      </trkpt>
      <trkpt lat="49.95151" lon="2.3147">
        <ele>74.1</ele>
        <time>2023-12-27T15:47:55Z</time>
      </trkpt>
      <trkpt lat="49.95149" lon="2.3147">
        <ele>74</ele>
        <time>2023-12-27T15:47:56Z</time>
      </trkpt>
      <trkpt lat="49.95148" lon="2.31469">
        <ele>74</ele>
        <time>2023-12-27T15:47:57Z</time>
      </trkpt>
      <trkpt lat="49.95147" lon="2.31469">
        <ele>74</ele>
        <time>2023-12-27T15:47:58Z</time>
      </trkpt>
      <trkpt lat="49.95146" lon="2.31468">
        <ele>73.9</ele>
        <time>2023-12-27T15:47:59Z</time>
      </trkpt>
      <trkpt lat="49.95145" lon="2.31468">
        <ele>73.9</ele>
        <time>2023-12-27T15:48:00Z</time>
      </trkpt>
      <trkpt lat="49.95144" lon="2.31467">
        <ele>73.8</ele>
        <time>2023-12-27T15:48:02Z</time>
      </trkpt>
      <trkpt lat="49.95142" lon="2.31467">
        <ele>73.8</ele>
        <time>2023-12-27T15:48:03Z</time>
      </trkpt>
      <trkpt lat="49.95141" lon="2.31467">
        <ele>73.8</ele>
        <time>2023-12-27T15:48:04Z</time>
      </trkpt>
      <trkpt lat="49.9514" lon="2.31467">
        <ele>73.7</ele>
        <time>2023-12-27T15:48:05Z</time>
      </trkpt>
      <trkpt lat="49.95139" lon="2.31467">
        <ele>73.7</ele>
        <time>2023-12-27T15:48:06Z</time>
      </trkpt>
      <trkpt lat="49.95138" lon="2.31467">
        <ele>73.7</ele>
        <time>2023-12-27T15:48:07Z</time>
      </trkpt>
      <trkpt lat="49.95136" lon="2.31467">
        <ele>73.6</ele>
        <time>2023-12-27T15:48:09Z</time>
      </trkpt>
      <trkpt lat="49.95135" lon="2.31467">
        <ele>73.6</ele>
        <time>2023-12-27T15:48:10Z</time>
      </trkpt>
      <trkpt lat="49.95135" lon="2.31467">
        <ele>73.6</ele>
        <time>2023-12-27T15:48:11Z</time>
      </trkpt>
      <trkpt lat="49.95134" lon="2.31466">
        <ele>73.6</ele>
        <time>2023-12-27T15:48:12Z</time>
      </trkpt>
      <trkpt lat="49.95133" lon="2.31466">
        <ele>73.5</ele>
        <time>2023-12-27T15:48:13Z</time>
      </trkpt>
      <trkpt lat="49.95132" lon="2.31466">
        <ele>73.5</ele>
        <time>2023-12-27T15:48:14Z</time>
      </trkpt>
      <trkpt lat="49.95131" lon="2.31465">
        <ele>73.5</ele>
        <time>2023-12-27T15:48:15Z</time>
      </trkpt>
      <trkpt lat="49.9513" lon="2.31465">
        <ele>73.5</ele>
        <time>2023-12-27T15:48:17Z</time>
      </trkpt>
      <trkpt lat="49.95129" lon="2.31465">
        <ele>73.4</ele>
        <time>2023-12-27T15:48:18Z</time>
      </trkpt>
      <trkpt lat="49.95128" lon="2.31465">
        <ele>73.4</ele>
        <time>2023-12-27T15:48:19Z</time>
      </trkpt>
      <trkpt lat="49.95127" lon="2.31464">
        <ele>73.4</ele>
        <time>2023-12-27T15:48:20Z</time>
      </trkpt>
      <trkpt lat="49.95126" lon="2.31464">
        <ele>73.4</ele>
        <time>2023-12-27T15:48:21Z</time>
      </trkpt>
      <trkpt lat="49.95125" lon="2.31464">
        <ele>73.4</ele>
        <time>2023-12-27T15:48:22Z</time>
      </trkpt>
      <trkpt lat="49.95123" lon="2.31465">
        <ele>73.3</ele>
        <time>2023-12-27T15:48:24Z</time>
      </trkpt>
      <trkpt lat="49.95122" lon="2.31465">
        <ele>73.3</ele>
        <time>2023-12-27T15:48:25Z</time>
      </trkpt>
      <trkpt lat="49.95121" lon="2.31466">
        <ele>73.3</ele>
        <time>2023-12-27T15:48:26Z</time>
      </trkpt>
      <trkpt lat="49.9512" lon="2.31466">
        <ele>73.3</ele>
        <time>2023-12-27T15:48:27Z</time>
      </trkpt>
      <trkpt lat="49.95119" lon="2.31466">
        <ele>73.3</ele>
        <time>2023-12-27T15:48:28Z</time>
      </trkpt>
      <trkpt lat="49.95117" lon="2.31466">
        <ele>73.3</ele>
        <time>2023-12-27T15:48:30Z</time>
      </trkpt>
      <trkpt lat="49.95116" lon="2.31466">
        <ele>73.2</ele>
        <time>2023-12-27T15:48:31Z</time>
      </trkpt>
      <trkpt lat="49.95115" lon="2.31466">
        <ele>73.2</ele>
        <time>2023-12-27T15:48:32Z</time>
      </trkpt>
      <trkpt lat="49.95115" lon="2.31466">
        <ele>73.2</ele>
        <time>2023-12-27T15:48:34Z</time>
      </trkpt>
      <trkpt lat="49.95114" lon="2.31466">
        <ele>73.2</ele>
        <time>2023-12-27T15:48:35Z</time>
      </trkpt>
      <trkpt lat="49.95113" lon="2.31466">
        <ele>73.2</ele>
        <time>2023-12-27T15:48:36Z</time>
      </trkpt>
      <trkpt lat="49.95112" lon="2.31466">
        <ele>73.2</ele>
        <time>2023-12-27T15:48:37Z</time>
      </trkpt>
      <trkpt lat="49.95111" lon="2.31466">
        <ele>73.2</ele>
        <time>2023-12-27T15:48:38Z</time>
      </trkpt>
      <trkpt lat="49.9511" lon="2.31467">
        <ele>73.1</ele>
        <time>2023-12-27T15:48:39Z</time>
      </trkpt>
      <trkpt lat="49.95109" lon="2.31467">
        <ele>73.1</ele>
        <time>2023-12-27T15:48:41Z</time>
      </trkpt>
      <trkpt lat="49.95108" lon="2.31466">
        <ele>73.1</ele>
        <time>2023-12-27T15:48:42Z</time>
      </trkpt>
      <trkpt lat="49.95107" lon="2.31466">
        <ele>73.1</ele>
        <time>2023-12-27T15:48:43Z</time>
      </trkpt>
      <trkpt lat="49.95106" lon="2.31466">
        <ele>73.1</ele>
        <time>2023-12-27T15:48:44Z</time>
      </trkpt>
      <trkpt lat="49.95105" lon="2.31465">
        <ele>73.1</ele>
        <time>2023-12-27T15:48:45Z</time>
      </trkpt>
      <trkpt lat="49.95105" lon="2.31465">
        <ele>73.1</ele>
        <time>2023-12-27T15:48:46Z</time>
      </trkpt>
      <trkpt lat="49.95104" lon="2.31465">
        <ele>73.1</ele>
        <time>2023-12-27T15:48:48Z</time>
      </trkpt>
      <trkpt lat="49.95103" lon="2.31465">
        <ele>73</ele>
        <time>2023-12-27T15:48:49Z</time>
      </trkpt>
      <trkpt lat="49.95101" lon="2.31465">
        <ele>73</ele>
        <time>2023-12-27T15:48:50Z</time>
      </trkpt>
      <trkpt lat="49.95101" lon="2.31464">
        <ele>73</ele>
        <time>2023-12-27T15:48:51Z</time>
      </trkpt>
      <trkpt lat="49.95099" lon="2.31464">
        <ele>73</ele>
        <time>2023-12-27T15:48:52Z</time>
      </trkpt>
      <trkpt lat="49.95098" lon="2.31464">
        <ele>73</ele>
        <time>2023-12-27T15:48:53Z</time>
      </trkpt>
      <trkpt lat="49.95097" lon="2.31464">
        <ele>73</ele>
        <time>2023-12-27T15:48:55Z</time>
      </trkpt>
      <trkpt lat="49.95096" lon="2.31464">
        <ele>73</ele>
        <time>2023-12-27T15:48:56Z</time>
      </trkpt>
      <trkpt lat="49.95095" lon="2.31463">
        <ele>72.9</ele>
        <time>2023-12-27T15:48:57Z</time>
      </trkpt>
      <trkpt lat="49.95094" lon="2.31463">
        <ele>72.9</ele>
        <time>2023-12-27T15:48:58Z</time>
      </trkpt>
      <trkpt lat="49.95093" lon="2.31463">
        <ele>72.9</ele>
        <time>2023-12-27T15:48:59Z</time>
      </trkpt>
      <trkpt lat="49.95092" lon="2.31462">
        <ele>72.9</ele>
        <time>2023-12-27T15:49:00Z</time>
      </trkpt>
      <trkpt lat="49.95091" lon="2.31462">
        <ele>72.9</ele>
        <time>2023-12-27T15:49:02Z</time>
      </trkpt>
      <trkpt lat="49.9509" lon="2.31461">
        <ele>72.9</ele>
        <time>2023-12-27T15:49:03Z</time>
      </trkpt>
      <trkpt lat="49.95089" lon="2.31461">
        <ele>72.9</ele>
        <time>2023-12-27T15:49:04Z</time>
      </trkpt>
      <trkpt lat="49.95089" lon="2.3146">
        <ele>72.9</ele>
        <time>2023-12-27T15:49:05Z</time>
      </trkpt>
      <trkpt lat="49.95088" lon="2.3146">
        <ele>72.8</ele>
        <time>2023-12-27T15:49:06Z</time>
      </trkpt>
      <trkpt lat="49.95087" lon="2.31459">
        <ele>72.8</ele>
        <time>2023-12-27T15:49:07Z</time>
      </trkpt>
      <trkpt lat="49.95086" lon="2.31459">
        <ele>72.8</ele>
        <time>2023-12-27T15:49:08Z</time>
      </trkpt>
      <trkpt lat="49.95085" lon="2.31458">
        <ele>72.8</ele>
        <time>2023-12-27T15:49:10Z</time>
      </trkpt>
      <trkpt lat="49.95085" lon="2.31457">
        <ele>72.8</ele>
        <time>2023-12-27T15:49:11Z</time>
      </trkpt>
      <trkpt lat="49.95085" lon="2.31456">
        <ele>72.8</ele>
        <time>2023-12-27T15:49:12Z</time>
      </trkpt>
      <trkpt lat="49.95085" lon="2.31454">
        <ele>72.8</ele>
        <time>2023-12-27T15:49:14Z</time>
      </trkpt>
      <trkpt lat="49.95086" lon="2.31454">
        <ele>72.8</ele>
        <time>2023-12-27T15:49:15Z</time>
      </trkpt>
      <trkpt lat="49.95087" lon="2.31454">
        <ele>72.8</ele>
        <time>2023-12-27T15:49:17Z</time>
      </trkpt>
      <trkpt lat="49.95088" lon="2.31454">
        <ele>72.8</ele>
        <time>2023-12-27T15:49:18Z</time>
      </trkpt>
      <trkpt lat="49.95089" lon="2.31454">
        <ele>72.7</ele>
        <time>2023-12-27T15:49:20Z</time>
      </trkpt>
      <trkpt lat="49.95089" lon="2.31454">
        <ele>72.7</ele>
        <time>2023-12-27T15:49:21Z</time>
      </trkpt>
      <trkpt lat="49.95089" lon="2.31454">
        <ele>72.7</ele>
        <time>2023-12-27T15:49:22Z</time>
      </trkpt>
      <trkpt lat="49.95089" lon="2.31454">
        <ele>72.7</ele>
        <time>2023-12-27T15:49:24Z</time>
      </trkpt>
      <trkpt lat="49.9509" lon="2.31454">
        <ele>72.7</ele>
        <time>2023-12-27T15:49:25Z</time>
      </trkpt>
      <trkpt lat="49.9509" lon="2.31453">
        <ele>72.7</ele>
        <time>2023-12-27T15:49:27Z</time>
      </trkpt>
      <trkpt lat="49.9509" lon="2.31453">
        <ele>72.7</ele>
        <time>2023-12-27T15:49:28Z</time>
      </trkpt>
      <trkpt lat="49.95092" lon="2.31458">
        <ele>72.7</ele>
        <time>2023-12-27T15:54:01Z</time>
      </trkpt>
      <trkpt lat="49.95094" lon="2.31459">
        <ele>72.7</ele>
        <time>2023-12-27T15:54:02Z</time>
      </trkpt>
      <trkpt lat="49.95097" lon="2.3146">
        <ele>72.6</ele>
        <time>2023-12-27T15:54:04Z</time>
      </trkpt>
      <trkpt lat="49.95098" lon="2.31461">
        <ele>72.6</ele>
        <time>2023-12-27T15:54:06Z</time>
      </trkpt>
      <trkpt lat="49.95099" lon="2.31461">
        <ele>72.6</ele>
        <time>2023-12-27T15:54:07Z</time>
      </trkpt>
      <trkpt lat="49.951" lon="2.31461">
        <ele>72.6</ele>
        <time>2023-12-27T15:54:08Z</time>
      </trkpt>
      <trkpt lat="49.95101" lon="2.31461">
        <ele>72.6</ele>
        <time>2023-12-27T15:54:09Z</time>
      </trkpt>
      <trkpt lat="49.95101" lon="2.31461">
        <ele>72.6</ele>
        <time>2023-12-27T15:54:10Z</time>
      </trkpt>
      <trkpt lat="49.95102" lon="2.31462">
        <ele>72.6</ele>
        <time>2023-12-27T15:54:11Z</time>
      </trkpt>
      <trkpt lat="49.95103" lon="2.31462">
        <ele>72.6</ele>
        <time>2023-12-27T15:54:12Z</time>
      </trkpt>
      <trkpt lat="49.95104" lon="2.31463">
        <ele>72.5</ele>
        <time>2023-12-27T15:54:14Z</time>
      </trkpt>
      <trkpt lat="49.95104" lon="2.31464">
        <ele>72.5</ele>
        <time>2023-12-27T15:54:15Z</time>
      </trkpt>
      <trkpt lat="49.95105" lon="2.31464">
        <ele>72.5</ele>
        <time>2023-12-27T15:54:16Z</time>
      </trkpt>
      <trkpt lat="49.95106" lon="2.31464">
        <ele>72.5</ele>
        <time>2023-12-27T15:54:17Z</time>
      </trkpt>
      <trkpt lat="49.95107" lon="2.31464">
        <ele>72.5</ele>
        <time>2023-12-27T15:54:19Z</time>
      </trkpt>
      <trkpt lat="49.95108" lon="2.31463">
        <ele>72.5</ele>
        <time>2023-12-27T15:54:21Z</time>
      </trkpt>
      <trkpt lat="49.95108" lon="2.31462">
        <ele>72.5</ele>
        <time>2023-12-27T15:54:22Z</time>
      </trkpt>
      <trkpt lat="49.95108" lon="2.31462">
        <ele>72.5</ele>
        <time>2023-12-27T15:54:23Z</time>
      </trkpt>
      <trkpt lat="49.95108" lon="2.31462">
        <ele>72.5</ele>
        <time>2023-12-27T15:54:25Z</time>
      </trkpt>
      <trkpt lat="49.95107" lon="2.31462">
        <ele>72.5</ele>
        <time>2023-12-27T15:54:26Z</time>
      </trkpt>
      <trkpt lat="49.95107" lon="2.31462">
        <ele>72.5</ele>
        <time>2023-12-27T15:54:28Z</time>
      </trkpt>
      <trkpt lat="49.95106" lon="2.31462">
        <ele>72.5</ele>
        <time>2023-12-27T15:54:29Z</time>
      </trkpt>
      <trkpt lat="49.95106" lon="2.31462">
        <ele>72.5</ele>
        <time>2023-12-27T15:54:30Z</time>
      </trkpt>
      <trkpt lat="49.95106" lon="2.31462">
        <ele>72.5</ele>
        <time>2023-12-27T15:54:32Z</time>
      </trkpt>
      <trkpt lat="49.95105" lon="2.31462">
        <ele>72.5</ele>
        <time>2023-12-27T15:54:33Z</time>
      </trkpt>
      <trkpt lat="49.95105" lon="2.31462">
        <ele>72.5</ele>
        <time>2023-12-27T15:54:35Z</time>
      </trkpt>
      <trkpt lat="49.95105" lon="2.31462">
        <ele>72.5</ele>
        <time>2023-12-27T15:54:36Z</time>
      </trkpt>
      <trkpt lat="49.95104" lon="2.31462">
        <ele>72.4</ele>
        <time>2023-12-27T15:54:38Z</time>
      </trkpt>
      <trkpt lat="49.95104" lon="2.31463">
        <ele>72.4</ele>
        <time>2023-12-27T15:54:39Z</time>
      </trkpt>
      <trkpt lat="49.95104" lon="2.31463">
        <ele>72.4</ele>
        <time>2023-12-27T15:54:40Z</time>
      </trkpt>
      <trkpt lat="49.95103" lon="2.31463">
        <ele>72.4</ele>
        <time>2023-12-27T15:54:41Z</time>
      </trkpt>
      <trkpt lat="49.95103" lon="2.31463">
        <ele>72.4</ele>
        <time>2023-12-27T15:54:42Z</time>
      </trkpt>
      <trkpt lat="49.95103" lon="2.31463">
        <ele>72.4</ele>
        <time>2023-12-27T15:54:43Z</time>
      </trkpt>
      <trkpt lat="49.95102" lon="2.31463">
        <ele>72.4</ele>
        <time>2023-12-27T16:04:28Z</time>
      </trkpt>
      <trkpt lat="49.95102" lon="2.31463">
        <ele>72.4</ele>
        <time>2023-12-27T16:04:29Z</time>
      </trkpt>
      <trkpt lat="49.95102" lon="2.31463">
        <ele>72.4</ele>
        <time>2023-12-27T16:04:30Z</time>
      </trkpt>
      <trkpt lat="49.95101" lon="2.31463">
        <ele>72.4</ele>
        <time>2023-12-27T16:04:31Z</time>
      </trkpt>
      <trkpt lat="49.951" lon="2.31462">
        <ele>72.4</ele>
        <time>2023-12-27T16:04:32Z</time>
      </trkpt>
      <trkpt lat="49.95099" lon="2.31461">
        <ele>72.4</ele>
        <time>2023-12-27T16:04:33Z</time>
      </trkpt>
      <trkpt lat="49.95098" lon="2.31461">
        <ele>72.4</ele>
        <time>2023-12-27T16:04:34Z</time>
      </trkpt>
      <trkpt lat="49.95097" lon="2.3146">
        <ele>72.4</ele>
        <time>2023-12-27T16:04:35Z</time>
      </trkpt>
      <trkpt lat="49.95097" lon="2.3146">
        <ele>72.4</ele>
        <time>2023-12-27T16:04:36Z</time>
      </trkpt>
      <trkpt lat="49.95096" lon="2.31459">
        <ele>72.4</ele>
        <time>2023-12-27T16:04:37Z</time>
      </trkpt>
      <trkpt lat="49.95096" lon="2.31458">
        <ele>72.4</ele>
        <time>2023-12-27T16:04:38Z</time>
      </trkpt>
      <trkpt lat="49.95095" lon="2.31458">
        <ele>72.3</ele>
        <time>2023-12-27T16:04:39Z</time>
      </trkpt>
      <trkpt lat="49.95095" lon="2.31457">
        <ele>72.3</ele>
        <time>2023-12-27T16:04:40Z</time>
      </trkpt>
      <trkpt lat="49.95094" lon="2.31457">
        <ele>72.3</ele>
        <time>2023-12-27T16:04:41Z</time>
      </trkpt>
      <trkpt lat="49.95094" lon="2.31456">
        <ele>72.3</ele>
        <time>2023-12-27T16:04:42Z</time>
      </trkpt>
      <trkpt lat="49.95093" lon="2.31456">
        <ele>72.3</ele>
        <time>2023-12-27T16:04:43Z</time>
      </trkpt>
      <trkpt lat="49.95092" lon="2.31456">
        <ele>72.3</ele>
        <time>2023-12-27T16:04:44Z</time>
      </trkpt>
      <trkpt lat="49.95091" lon="2.31456">
        <ele>72.3</ele>
        <time>2023-12-27T16:04:45Z</time>
      </trkpt>
      <trkpt lat="49.9509" lon="2.31456">
        <ele>72.3</ele>
        <time>2023-12-27T16:04:46Z</time>
      </trkpt>
      <trkpt lat="49.95089" lon="2.31456">
        <ele>72.3</ele>
        <time>2023-12-27T16:04:47Z</time>
      </trkpt>
      <trkpt lat="49.95088" lon="2.31456">
        <ele>72.3</ele>
        <time>2023-12-27T16:04:48Z</time>
      </trkpt>
      <trkpt lat="49.95087" lon="2.31456">
        <ele>72.3</ele>
        <time>2023-12-27T16:04:49Z</time>
      </trkpt>
      <trkpt lat="49.95087" lon="2.31456">
        <ele>72.3</ele>
        <time>2023-12-27T16:04:50Z</time>
      </trkpt>
      <trkpt lat="49.95086" lon="2.31456">
        <ele>72.3</ele>
        <time>2023-12-27T16:04:51Z</time>
      </trkpt>
      <trkpt lat="49.95085" lon="2.31455">
        <ele>72.3</ele>
        <time>2023-12-27T16:04:52Z</time>
      </trkpt>
      <trkpt lat="49.95084" lon="2.31455">
        <ele>72.2</ele>
        <time>2023-12-27T16:04:53Z</time>
      </trkpt>
      <trkpt lat="49.95083" lon="2.31455">
        <ele>72.2</ele>
        <time>2023-12-27T16:04:54Z</time>
      </trkpt>
      <trkpt lat="49.95082" lon="2.31455">
        <ele>72.2</ele>
        <time>2023-12-27T16:04:55Z</time>
      </trkpt>
      <trkpt lat="49.95081" lon="2.31455">
        <ele>72.2</ele>
        <time>2023-12-27T16:04:56Z</time>
      </trkpt>
      <trkpt lat="49.95081" lon="2.31455">
        <ele>72.2</ele>
        <time>2023-12-27T16:05:40Z</time>
      </trkpt>
      <trkpt lat="49.9508" lon="2.31455">
        <ele>72.2</ele>
        <time>2023-12-27T16:05:41Z</time>
      </trkpt>
      <trkpt lat="49.95079" lon="2.31455">
        <ele>72.2</ele>
        <time>2023-12-27T16:05:42Z</time>
      </trkpt>
      <trkpt lat="49.95078" lon="2.31455">
        <ele>72.2</ele>
        <time>2023-12-27T16:05:43Z</time>
      </trkpt>
      <trkpt lat="49.95077" lon="2.31455">
        <ele>72.2</ele>
        <time>2023-12-27T16:05:44Z</time>
      </trkpt>
      <trkpt lat="49.95076" lon="2.31455">
        <ele>72.2</ele>
        <time>2023-12-27T16:05:45Z</time>
      </trkpt>
      <trkpt lat="49.95076" lon="2.31455">
        <ele>72.2</ele>
        <time>2023-12-27T16:05:46Z</time>
      </trkpt>
      <trkpt lat="49.95075" lon="2.31455">
        <ele>72.2</ele>
        <time>2023-12-27T16:05:47Z</time>
      </trkpt>
      <trkpt lat="49.95074" lon="2.31455">
        <ele>72.2</ele>
        <time>2023-12-27T16:05:48Z</time>
      </trkpt>
      <trkpt lat="49.95073" lon="2.31455">
        <ele>72.2</ele>
        <time>2023-12-27T16:05:49Z</time>
      </trkpt>
      <trkpt lat="49.95072" lon="2.31455">
        <ele>72.2</ele>
        <time>2023-12-27T16:05:50Z</time>
      </trkpt>
      <trkpt lat="49.95071" lon="2.31455">
        <ele>72.2</ele>
        <time>2023-12-27T16:05:51Z</time>
      </trkpt>
      <trkpt lat="49.9507" lon="2.31455">
        <ele>72.2</ele>
        <time>2023-12-27T16:05:52Z</time>
      </trkpt>
      <trkpt lat="49.9507" lon="2.31455">
        <ele>72.2</ele>
        <time>2023-12-27T16:05:53Z</time>
      </trkpt>
      <trkpt lat="49.95069" lon="2.31455">
        <ele>72.2</ele>
        <time>2023-12-27T16:05:54Z</time>
      </trkpt>
      <trkpt lat="49.95068" lon="2.31455">
        <ele>72.1</ele>
        <time>2023-12-27T16:05:55Z</time>
      </trkpt>
      <trkpt lat="49.95067" lon="2.31455">
        <ele>72.1</ele>
        <time>2023-12-27T16:05:56Z</time>
      </trkpt>
      <trkpt lat="49.95066" lon="2.31455">
        <ele>72.1</ele>
        <time>2023-12-27T16:05:57Z</time>
      </trkpt>
      <trkpt lat="49.95065" lon="2.31455">
        <ele>72.1</ele>
        <time>2023-12-27T16:05:58Z</time>
      </trkpt>
      <trkpt lat="49.95064" lon="2.31455">
        <ele>72.1</ele>
        <time>2023-12-27T16:05:59Z</time>
      </trkpt>
      <trkpt lat="49.95064" lon="2.31455">
        <ele>72.1</ele>
        <time>2023-12-27T16:07:49Z</time>
      </trkpt>
      <trkpt lat="49.95063" lon="2.31455">
        <ele>72.1</ele>
        <time>2023-12-27T16:07:50Z</time>
      </trkpt>
      <trkpt lat="49.95059" lon="2.31455">
        <ele>72.1</ele>
        <time>2023-12-27T16:07:51Z</time>
      </trkpt>
      <trkpt lat="49.95056" lon="2.31455">
        <ele>72.1</ele>
        <time>2023-12-27T16:07:52Z</time>
      </trkpt>
      <trkpt lat="49.95049" lon="2.31453">
        <ele>72</ele>
        <time>2023-12-27T16:07:53Z</time>
      </trkpt>
      <trkpt lat="49.95041" lon="2.3145">
        <ele>71.9</ele>
        <time>2023-12-27T16:07:54Z</time>
      </trkpt>
      <trkpt lat="49.95029" lon="2.31445">
        <ele>71.6</ele>
        <time>2023-12-27T16:07:55Z</time>
      </trkpt>
      <trkpt lat="49.95016" lon="2.31438">
        <ele>71.4</ele>
        <time>2023-12-27T16:07:56Z</time>
      </trkpt>
      <trkpt lat="49.95004" lon="2.3143">
        <ele>71.2</ele>
        <time>2023-12-27T16:07:57Z</time>
      </trkpt>
      <trkpt lat="49.94993" lon="2.31422">
        <ele>71</ele>
        <time>2023-12-27T16:07:58Z</time>
      </trkpt>
      <trkpt lat="49.94986" lon="2.31417">
        <ele>70.9</ele>
        <time>2023-12-27T16:07:59Z</time>
      </trkpt>
      <trkpt lat="49.94977" lon="2.31411">
        <ele>70.8</ele>
        <time>2023-12-27T16:08:00Z</time>
      </trkpt>
      <trkpt lat="49.94973" lon="2.3141">
        <ele>70.7</ele>
        <time>2023-12-27T16:08:01Z</time>
      </trkpt>
      <trkpt lat="49.9497" lon="2.31408">
        <ele>70.7</ele>
        <time>2023-12-27T16:08:02Z</time>
      </trkpt>
      <trkpt lat="49.9497" lon="2.31408">
        <ele>70.7</ele>
        <time>2023-12-27T16:08:03Z</time>
      </trkpt>
      <trkpt lat="49.94968" lon="2.31406">
        <ele>70.6</ele>
        <time>2023-12-27T16:08:04Z</time>
      </trkpt>
      <trkpt lat="49.94967" lon="2.31405">
        <ele>70.6</ele>
        <time>2023-12-27T16:08:05Z</time>
      </trkpt>
      <trkpt lat="49.94966" lon="2.31403">
        <ele>70.6</ele>
        <time>2023-12-27T16:08:06Z</time>
      </trkpt>
      <trkpt lat="49.94965" lon="2.31402">
        <ele>70.6</ele>
        <time>2023-12-27T16:08:07Z</time>
      </trkpt>
      <trkpt lat="49.94964" lon="2.31401">
        <ele>70.6</ele>
        <time>2023-12-27T16:08:08Z</time>
      </trkpt>
      <trkpt lat="49.94963" lon="2.31399">
        <ele>70.6</ele>
        <time>2023-12-27T16:08:09Z</time>
      </trkpt>
      <trkpt lat="49.94952" lon="2.31382">
        <ele>70.6</ele>
        <time>2023-12-27T16:08:10Z</time>
      </trkpt>
      <trkpt lat="49.94942" lon="2.31364">
        <ele>70.8</ele>
        <time>2023-12-27T16:08:11Z</time>
      </trkpt>
      <trkpt lat="49.94934" lon="2.31349">
        <ele>70.8</ele>
        <time>2023-12-27T16:08:12Z</time>
      </trkpt>
      <trkpt lat="49.94928" lon="2.31335">
        <ele>70.8</ele>
        <time>2023-12-27T16:08:13Z</time>
      </trkpt>
      <trkpt lat="49.94922" lon="2.31321">
        <ele>70.8</ele>
        <time>2023-12-27T16:08:14Z</time>
      </trkpt>
      <trkpt lat="49.94917" lon="2.3131">
        <ele>70.8</ele>
        <time>2023-12-27T16:08:15Z</time>
      </trkpt>
      <trkpt lat="49.94912" lon="2.31302">
        <ele>70.8</ele>
        <time>2023-12-27T16:08:16Z</time>
      </trkpt>
      <trkpt lat="49.94907" lon="2.31295">
        <ele>70.8</ele>
        <time>2023-12-27T16:08:17Z</time>
      </trkpt>
      <trkpt lat="49.94902" lon="2.3129">
        <ele>70.8</ele>
        <time>2023-12-27T16:08:18Z</time>
      </trkpt>
      <trkpt lat="49.94897" lon="2.31286">
        <ele>70.7</ele>
        <time>2023-12-27T16:08:19Z</time>
      </trkpt>
      <trkpt lat="49.94892" lon="2.31282">
        <ele>70.7</ele>
        <time>2023-12-27T16:08:20Z</time>
      </trkpt>
      <trkpt lat="49.94887" lon="2.31278">
        <ele>70.7</ele>
        <time>2023-12-27T16:08:21Z</time>
      </trkpt>
      <trkpt lat="49.94882" lon="2.31277">
        <ele>70.7</ele>
        <time>2023-12-27T16:08:22Z</time>
      </trkpt>
      <trkpt lat="49.94876" lon="2.31276">
        <ele>70.6</ele>
        <time>2023-12-27T16:08:23Z</time>
      </trkpt>
      <trkpt lat="49.9487" lon="2.31276">
        <ele>70.4</ele>
        <time>2023-12-27T16:08:24Z</time>
      </trkpt>
      <trkpt lat="49.94864" lon="2.31278">
        <ele>70.3</ele>
        <time>2023-12-27T16:08:25Z</time>
      </trkpt>
      <trkpt lat="49.94857" lon="2.31279">
        <ele>70.1</ele>
        <time>2023-12-27T16:08:26Z</time>
      </trkpt>
      <trkpt lat="49.94849" lon="2.31277">
        <ele>69.8</ele>
        <time>2023-12-27T16:08:27Z</time>
      </trkpt>
      <trkpt lat="49.94841" lon="2.31272">
        <ele>69.6</ele>
        <time>2023-12-27T16:08:28Z</time>
      </trkpt>
      <trkpt lat="49.94832" lon="2.31267">
        <ele>69.3</ele>
        <time>2023-12-27T16:08:29Z</time>
      </trkpt>
      <trkpt lat="49.94823" lon="2.31263">
        <ele>69</ele>
        <time>2023-12-27T16:08:30Z</time>
      </trkpt>
      <trkpt lat="49.94814" lon="2.31259">
        <ele>68.7</ele>
        <time>2023-12-27T16:08:31Z</time>
      </trkpt>
      <trkpt lat="49.94806" lon="2.31256">
        <ele>68.5</ele>
        <time>2023-12-27T16:08:32Z</time>
      </trkpt>
      <trkpt lat="49.94798" lon="2.31253">
        <ele>68.3</ele>
        <time>2023-12-27T16:08:33Z</time>
      </trkpt>
      <trkpt lat="49.9479" lon="2.3125">
        <ele>68.1</ele>
        <time>2023-12-27T16:08:34Z</time>
      </trkpt>
      <trkpt lat="49.94783" lon="2.31248">
        <ele>67.9</ele>
        <time>2023-12-27T16:08:35Z</time>
      </trkpt>
      <trkpt lat="49.94776" lon="2.31246">
        <ele>67.8</ele>
        <time>2023-12-27T16:08:36Z</time>
      </trkpt>
      <trkpt lat="49.9477" lon="2.31244">
        <ele>67.7</ele>
        <time>2023-12-27T16:08:37Z</time>
      </trkpt>
      <trkpt lat="49.94765" lon="2.31242">
        <ele>67.7</ele>
        <time>2023-12-27T16:08:38Z</time>
      </trkpt>
      <trkpt lat="49.94761" lon="2.3124">
        <ele>67.6</ele>
        <time>2023-12-27T16:08:39Z</time>
      </trkpt>
      <trkpt lat="49.94757" lon="2.31238">
        <ele>67.5</ele>
        <time>2023-12-27T16:08:40Z</time>
      </trkpt>
      <trkpt lat="49.94752" lon="2.31234">
        <ele>67.4</ele>
        <time>2023-12-27T16:08:41Z</time>
      </trkpt>
      <trkpt lat="49.94746" lon="2.3123">
        <ele>67.3</ele>
        <time>2023-12-27T16:08:42Z</time>
      </trkpt>
      <trkpt lat="49.9474" lon="2.31226">
        <ele>67.2</ele>
        <time>2023-12-27T16:08:43Z</time>
      </trkpt>
      <trkpt lat="49.94734" lon="2.31221">
        <ele>67.1</ele>
        <time>2023-12-27T16:08:44Z</time>
      </trkpt>
      <trkpt lat="49.94727" lon="2.31216">
        <ele>67</ele>
        <time>2023-12-27T16:08:45Z</time>
      </trkpt>
      <trkpt lat="49.94719" lon="2.31212">
        <ele>67</ele>
        <time>2023-12-27T16:08:46Z</time>
      </trkpt>
      <trkpt lat="49.94713" lon="2.31207">
        <ele>66.9</ele>
        <time>2023-12-27T16:08:47Z</time>
      </trkpt>
      <trkpt lat="49.94707" lon="2.31203">
        <ele>66.9</ele>
        <time>2023-12-27T16:08:48Z</time>
      </trkpt>
      <trkpt lat="49.94702" lon="2.31199">
        <ele>66.8</ele>
        <time>2023-12-27T16:08:49Z</time>
      </trkpt>
      <trkpt lat="49.94698" lon="2.31196">
        <ele>66.7</ele>
        <time>2023-12-27T16:08:50Z</time>
      </trkpt>
      <trkpt lat="49.94694" lon="2.31192">
        <ele>66.7</ele>
        <time>2023-12-27T16:08:51Z</time>
      </trkpt>
      <trkpt lat="49.94692" lon="2.31188">
        <ele>66.6</ele>
        <time>2023-12-27T16:08:52Z</time>
      </trkpt>
      <trkpt lat="49.94689" lon="2.31184">
        <ele>66.6</ele>
        <time>2023-12-27T16:08:53Z</time>
      </trkpt>
      <trkpt lat="49.94686" lon="2.31182">
        <ele>66.5</ele>
        <time>2023-12-27T16:08:54Z</time>
      </trkpt>
      <trkpt lat="49.94683" lon="2.31183">
        <ele>66.5</ele>
        <time>2023-12-27T16:08:55Z</time>
      </trkpt>
      <trkpt lat="49.94681" lon="2.31188">
        <ele>66.4</ele>
        <time>2023-12-27T16:08:56Z</time>
      </trkpt>
      <trkpt lat="49.94678" lon="2.31195">
        <ele>66.3</ele>
        <time>2023-12-27T16:08:57Z</time>
      </trkpt>
      <trkpt lat="49.94675" lon="2.31203">
        <ele>66.2</ele>
        <time>2023-12-27T16:08:58Z</time>
      </trkpt>
      <trkpt lat="49.94671" lon="2.3121">
        <ele>66</ele>
        <time>2023-12-27T16:08:59Z</time>
      </trkpt>
      <trkpt lat="49.94667" lon="2.31218">
        <ele>65.9</ele>
        <time>2023-12-27T16:09:00Z</time>
      </trkpt>
      <trkpt lat="49.94663" lon="2.31224">
        <ele>65.8</ele>
        <time>2023-12-27T16:09:01Z</time>
      </trkpt>
      <trkpt lat="49.94658" lon="2.3123">
        <ele>65.7</ele>
        <time>2023-12-27T16:09:02Z</time>
      </trkpt>
      <trkpt lat="49.94653" lon="2.31234">
        <ele>65.6</ele>
        <time>2023-12-27T16:09:03Z</time>
      </trkpt>
      <trkpt lat="49.94649" lon="2.31238">
        <ele>65.4</ele>
        <time>2023-12-27T16:09:04Z</time>
      </trkpt>
      <trkpt lat="49.94646" lon="2.3124">
        <ele>65.4</ele>
        <time>2023-12-27T16:09:05Z</time>
      </trkpt>
      <trkpt lat="49.94643" lon="2.31242">
        <ele>65.3</ele>
        <time>2023-12-27T16:09:06Z</time>
      </trkpt>
      <trkpt lat="49.9464" lon="2.31241">
        <ele>65.2</ele>
        <time>2023-12-27T16:09:07Z</time>
      </trkpt>
      <trkpt lat="49.94639" lon="2.31241">
        <ele>65.2</ele>
        <time>2023-12-27T16:09:08Z</time>
      </trkpt>
      <trkpt lat="49.94636" lon="2.31238">
        <ele>65.2</ele>
        <time>2023-12-27T16:09:09Z</time>
      </trkpt>
      <trkpt lat="49.94632" lon="2.31233">
        <ele>65</ele>
        <time>2023-12-27T16:09:10Z</time>
      </trkpt>
      <trkpt lat="49.94628" lon="2.31226">
        <ele>64.9</ele>
        <time>2023-12-27T16:09:11Z</time>
      </trkpt>
      <trkpt lat="49.94623" lon="2.31219">
        <ele>64.8</ele>
        <time>2023-12-27T16:09:12Z</time>
      </trkpt>
      <trkpt lat="49.94618" lon="2.3121">
        <ele>64.7</ele>
        <time>2023-12-27T16:09:13Z</time>
      </trkpt>
      <trkpt lat="49.94612" lon="2.31202">
        <ele>64.6</ele>
        <time>2023-12-27T16:09:14Z</time>
      </trkpt>
      <trkpt lat="49.94607" lon="2.31195">
        <ele>64.6</ele>
        <time>2023-12-27T16:09:15Z</time>
      </trkpt>
      <trkpt lat="49.94601" lon="2.31188">
        <ele>64.5</ele>
        <time>2023-12-27T16:09:16Z</time>
      </trkpt>
      <trkpt lat="49.94596" lon="2.31181">
        <ele>64.5</ele>
        <time>2023-12-27T16:09:17Z</time>
      </trkpt>
      <trkpt lat="49.9459" lon="2.31175">
        <ele>64.5</ele>
        <time>2023-12-27T16:09:18Z</time>
      </trkpt>
      <trkpt lat="49.94586" lon="2.31169">
        <ele>64.4</ele>
        <time>2023-12-27T16:09:19Z</time>
      </trkpt>
      <trkpt lat="49.94583" lon="2.31163">
        <ele>64.4</ele>
        <time>2023-12-27T16:09:20Z</time>
      </trkpt>
      <trkpt lat="49.9458" lon="2.31155">
        <ele>64.4</ele>
        <time>2023-12-27T16:09:21Z</time>
      </trkpt>
      <trkpt lat="49.9458" lon="2.31144">
        <ele>64.4</ele>
        <time>2023-12-27T16:09:22Z</time>
      </trkpt>
      <trkpt lat="49.94581" lon="2.31132">
        <ele>64.4</ele>
        <time>2023-12-27T16:09:23Z</time>
      </trkpt>
      <trkpt lat="49.94581" lon="2.31119">
        <ele>64.4</ele>
        <time>2023-12-27T16:09:24Z</time>
      </trkpt>
      <trkpt lat="49.94581" lon="2.31107">
        <ele>64.5</ele>
        <time>2023-12-27T16:09:25Z</time>
      </trkpt>
      <trkpt lat="49.94581" lon="2.31096">
        <ele>64.5</ele>
        <time>2023-12-27T16:09:26Z</time>
      </trkpt>
      <trkpt lat="49.94581" lon="2.31084">
        <ele>64.5</ele>
        <time>2023-12-27T16:09:27Z</time>
      </trkpt>
      <trkpt lat="49.9458" lon="2.31072">
        <ele>64.5</ele>
        <time>2023-12-27T16:09:28Z</time>
      </trkpt>
      <trkpt lat="49.9458" lon="2.31061">
        <ele>64.6</ele>
        <time>2023-12-27T16:09:29Z</time>
      </trkpt>
      <trkpt lat="49.94579" lon="2.31052">
        <ele>64.6</ele>
        <time>2023-12-27T16:09:30Z</time>
      </trkpt>
      <trkpt lat="49.94578" lon="2.31043">
        <ele>64.6</ele>
        <time>2023-12-27T16:09:31Z</time>
      </trkpt>
      <trkpt lat="49.94577" lon="2.31034">
        <ele>64.6</ele>
        <time>2023-12-27T16:09:32Z</time>
      </trkpt>
      <trkpt lat="49.94575" lon="2.31026">
        <ele>64.6</ele>
        <time>2023-12-27T16:09:33Z</time>
      </trkpt>
      <trkpt lat="49.94574" lon="2.31019">
        <ele>64.6</ele>
        <time>2023-12-27T16:09:34Z</time>
      </trkpt>
      <trkpt lat="49.94572" lon="2.31012">
        <ele>64.6</ele>
        <time>2023-12-27T16:09:35Z</time>
      </trkpt>
      <trkpt lat="49.94571" lon="2.31005">
        <ele>64.6</ele>
        <time>2023-12-27T16:09:36Z</time>
      </trkpt>
      <trkpt lat="49.94568" lon="2.30997">
        <ele>64.6</ele>
        <time>2023-12-27T16:09:37Z</time>
      </trkpt>
      <trkpt lat="49.94566" lon="2.30991">
        <ele>64.5</ele>
        <time>2023-12-27T16:09:38Z</time>
      </trkpt>
      <trkpt lat="49.94564" lon="2.30984">
        <ele>64.5</ele>
        <time>2023-12-27T16:09:39Z</time>
      </trkpt>
      <trkpt lat="49.94563" lon="2.30977">
        <ele>64.4</ele>
        <time>2023-12-27T16:09:40Z</time>
      </trkpt>
      <trkpt lat="49.94561" lon="2.30972">
        <ele>64.4</ele>
        <time>2023-12-27T16:09:41Z</time>
      </trkpt>
      <trkpt lat="49.94561" lon="2.30968">
        <ele>64.4</ele>
        <time>2023-12-27T16:09:42Z</time>
      </trkpt>
      <trkpt lat="49.94561" lon="2.30967">
        <ele>64.4</ele>
        <time>2023-12-27T16:09:43Z</time>
      </trkpt>
      <trkpt lat="49.94561" lon="2.30968">
        <ele>64.4</ele>
        <time>2023-12-27T16:09:44Z</time>
      </trkpt>
      <trkpt lat="49.94561" lon="2.30968">
        <ele>64.4</ele>
        <time>2023-12-27T16:09:45Z</time>
      </trkpt>
      <trkpt lat="49.94561" lon="2.30968">
        <ele>64.4</ele>
        <time>2023-12-27T16:09:46Z</time>
      </trkpt>
      <trkpt lat="49.94561" lon="2.30968">
        <ele>64.4</ele>
        <time>2023-12-27T16:09:47Z</time>
      </trkpt>
      <trkpt lat="49.94561" lon="2.30968">
        <ele>64.4</ele>
        <time>2023-12-27T16:09:48Z</time>
      </trkpt>
      <trkpt lat="49.94561" lon="2.30968">
        <ele>64.4</ele>
        <time>2023-12-27T16:09:49Z</time>
      </trkpt>
      <trkpt lat="49.94561" lon="2.30968">
        <ele>64.4</ele>
        <time>2023-12-27T16:09:50Z</time>
      </trkpt>
      <trkpt lat="49.94561" lon="2.30968">
        <ele>64.4</ele>
        <time>2023-12-27T16:09:51Z</time>
      </trkpt>
      <trkpt lat="49.94561" lon="2.30968">
        <ele>64.4</ele>
        <time>2023-12-27T16:09:52Z</time>
      </trkpt>
      <trkpt lat="49.94546" lon="2.30919">
        <ele>64.6</ele>
        <time>2023-12-27T16:10:00Z</time>
      </trkpt>
      <trkpt lat="49.94535" lon="2.30919">
        <ele>64.6</ele>
        <time>2023-12-27T16:10:01Z</time>
      </trkpt>
      <trkpt lat="49.94525" lon="2.30922">
        <ele>64.1</ele>
        <time>2023-12-27T16:10:02Z</time>
      </trkpt>
      <trkpt lat="49.94515" lon="2.30925">
        <ele>63.7</ele>
        <time>2023-12-27T16:10:03Z</time>
      </trkpt>
      <trkpt lat="49.94504" lon="2.30925">
        <ele>63.3</ele>
        <time>2023-12-27T16:10:04Z</time>
      </trkpt>
      <trkpt lat="49.94491" lon="2.30923">
        <ele>62.9</ele>
        <time>2023-12-27T16:10:05Z</time>
      </trkpt>
      <trkpt lat="49.94477" lon="2.30919">
        <ele>62.5</ele>
        <time>2023-12-27T16:10:06Z</time>
      </trkpt>
      <trkpt lat="49.94462" lon="2.30915">
        <ele>62</ele>
        <time>2023-12-27T16:10:07Z</time>
      </trkpt>
      <trkpt lat="49.94447" lon="2.30911">
        <ele>61.5</ele>
        <time>2023-12-27T16:10:08Z</time>
      </trkpt>
      <trkpt lat="49.94433" lon="2.30907">
        <ele>60.9</ele>
        <time>2023-12-27T16:10:09Z</time>
      </trkpt>
      <trkpt lat="49.94418" lon="2.30904">
        <ele>60.4</ele>
        <time>2023-12-27T16:10:10Z</time>
      </trkpt>
      <trkpt lat="49.94402" lon="2.30901">
        <ele>59.8</ele>
        <time>2023-12-27T16:10:11Z</time>
      </trkpt>
      <trkpt lat="49.94385" lon="2.30899">
        <ele>59.4</ele>
        <time>2023-12-27T16:10:12Z</time>
      </trkpt>
      <trkpt lat="49.94367" lon="2.30895">
        <ele>58.9</ele>
        <time>2023-12-27T16:10:13Z</time>
      </trkpt>
      <trkpt lat="49.94349" lon="2.30892">
        <ele>58.5</ele>
        <time>2023-12-27T16:10:14Z</time>
      </trkpt>
      <trkpt lat="49.94329" lon="2.30889">
        <ele>57.8</ele>
        <time>2023-12-27T16:10:15Z</time>
      </trkpt>
      <trkpt lat="49.9431" lon="2.30885">
        <ele>57.3</ele>
        <time>2023-12-27T16:10:16Z</time>
      </trkpt>
      <trkpt lat="49.9429" lon="2.30881">
        <ele>56.9</ele>
        <time>2023-12-27T16:10:17Z</time>
      </trkpt>
      <trkpt lat="49.9427" lon="2.30877">
        <ele>56.4</ele>
        <time>2023-12-27T16:10:18Z</time>
      </trkpt>
      <trkpt lat="49.94249" lon="2.30873">
        <ele>55.8</ele>
        <time>2023-12-27T16:10:19Z</time>
      </trkpt>
      <trkpt lat="49.94229" lon="2.30869">
        <ele>55.3</ele>
        <time>2023-12-27T16:10:20Z</time>
      </trkpt>
      <trkpt lat="49.94209" lon="2.30865">
        <ele>54.7</ele>
        <time>2023-12-27T16:10:21Z</time>
      </trkpt>
      <trkpt lat="49.94188" lon="2.30861">
        <ele>54.2</ele>
        <time>2023-12-27T16:10:22Z</time>
      </trkpt>
      <trkpt lat="49.94167" lon="2.30858">
        <ele>53.6</ele>
        <time>2023-12-27T16:10:23Z</time>
      </trkpt>
      <trkpt lat="49.94146" lon="2.30854">
        <ele>53</ele>
        <time>2023-12-27T16:10:24Z</time>
      </trkpt>
      <trkpt lat="49.94125" lon="2.30849">
        <ele>52.5</ele>
        <time>2023-12-27T16:10:25Z</time>
      </trkpt>
      <trkpt lat="49.94104" lon="2.30845">
        <ele>52.4</ele>
        <time>2023-12-27T16:10:26Z</time>
      </trkpt>
      <trkpt lat="49.94082" lon="2.30841">
        <ele>51.9</ele>
        <time>2023-12-27T16:10:27Z</time>
      </trkpt>
      <trkpt lat="49.94061" lon="2.30837">
        <ele>51.3</ele>
        <time>2023-12-27T16:10:28Z</time>
      </trkpt>
      <trkpt lat="49.94038" lon="2.30832">
        <ele>50.6</ele>
        <time>2023-12-27T16:10:29Z</time>
      </trkpt>
      <trkpt lat="49.94016" lon="2.30828">
        <ele>49.9</ele>
        <time>2023-12-27T16:10:30Z</time>
      </trkpt>
      <trkpt lat="49.93993" lon="2.30824">
        <ele>49.3</ele>
        <time>2023-12-27T16:10:31Z</time>
      </trkpt>
      <trkpt lat="49.93971" lon="2.30819">
        <ele>48.6</ele>
        <time>2023-12-27T16:10:32Z</time>
      </trkpt>
      <trkpt lat="49.93949" lon="2.30814">
        <ele>47.9</ele>
        <time>2023-12-27T16:10:33Z</time>
      </trkpt>
      <trkpt lat="49.93926" lon="2.3081">
        <ele>47.4</ele>
        <time>2023-12-27T16:10:34Z</time>
      </trkpt>
      <trkpt lat="49.93904" lon="2.30805">
        <ele>47</ele>
        <time>2023-12-27T16:10:35Z</time>
      </trkpt>
      <trkpt lat="49.93882" lon="2.30801">
        <ele>46.6</ele>
        <time>2023-12-27T16:10:36Z</time>
      </trkpt>
      <trkpt lat="49.9386" lon="2.30796">
        <ele>46.2</ele>
        <time>2023-12-27T16:10:37Z</time>
      </trkpt>
      <trkpt lat="49.93839" lon="2.30792">
        <ele>45.9</ele>
        <time>2023-12-27T16:10:38Z</time>
      </trkpt>
      <trkpt lat="49.93817" lon="2.30787">
        <ele>45.7</ele>
        <time>2023-12-27T16:10:39Z</time>
      </trkpt>
      <trkpt lat="49.93796" lon="2.30784">
        <ele>45.6</ele>
        <time>2023-12-27T16:10:40Z</time>
      </trkpt>
      <trkpt lat="49.93775" lon="2.3078">
        <ele>45.5</ele>
        <time>2023-12-27T16:10:41Z</time>
      </trkpt>
      <trkpt lat="49.93753" lon="2.30776">
        <ele>45.5</ele>
        <time>2023-12-27T16:10:42Z</time>
      </trkpt>
      <trkpt lat="49.9373" lon="2.30773">
        <ele>45.6</ele>
        <time>2023-12-27T16:10:43Z</time>
      </trkpt>
      <trkpt lat="49.93709" lon="2.30769">
        <ele>45.8</ele>
        <time>2023-12-27T16:10:44Z</time>
      </trkpt>
      <trkpt lat="49.93686" lon="2.30766">
        <ele>45.9</ele>
        <time>2023-12-27T16:10:45Z</time>
      </trkpt>
      <trkpt lat="49.93665" lon="2.30762">
        <ele>45.9</ele>
        <time>2023-12-27T16:10:46Z</time>
      </trkpt>
      <trkpt lat="49.93643" lon="2.30758">
        <ele>45.6</ele>
        <time>2023-12-27T16:10:47Z</time>
      </trkpt>
      <trkpt lat="49.93621" lon="2.30753">
        <ele>45.3</ele>
        <time>2023-12-27T16:10:48Z</time>
      </trkpt>
      <trkpt lat="49.936" lon="2.30748">
        <ele>45.1</ele>
        <time>2023-12-27T16:10:49Z</time>
      </trkpt>
      <trkpt lat="49.93578" lon="2.30743">
        <ele>44.8</ele>
        <time>2023-12-27T16:10:50Z</time>
      </trkpt>
      <trkpt lat="49.93557" lon="2.30737">
        <ele>44.8</ele>
        <time>2023-12-27T16:10:51Z</time>
      </trkpt>
      <trkpt lat="49.93536" lon="2.30732">
        <ele>44.7</ele>
        <time>2023-12-27T16:10:52Z</time>
      </trkpt>
      <trkpt lat="49.93514" lon="2.30726">
        <ele>44.4</ele>
        <time>2023-12-27T16:10:53Z</time>
      </trkpt>
      <trkpt lat="49.93492" lon="2.30722">
        <ele>44.1</ele>
        <time>2023-12-27T16:10:54Z</time>
      </trkpt>
      <trkpt lat="49.93471" lon="2.30717">
        <ele>43.6</ele>
        <time>2023-12-27T16:10:55Z</time>
      </trkpt>
      <trkpt lat="49.93449" lon="2.30713">
        <ele>43.2</ele>
        <time>2023-12-27T16:10:56Z</time>
      </trkpt>
      <trkpt lat="49.93428" lon="2.30708">
        <ele>42.8</ele>
        <time>2023-12-27T16:10:57Z</time>
      </trkpt>
      <trkpt lat="49.93406" lon="2.30704">
        <ele>42.3</ele>
        <time>2023-12-27T16:10:58Z</time>
      </trkpt>
      <trkpt lat="49.93385" lon="2.307">
        <ele>42.2</ele>
        <time>2023-12-27T16:10:59Z</time>
      </trkpt>
      <trkpt lat="49.93363" lon="2.30696">
        <ele>42.4</ele>
        <time>2023-12-27T16:11:00Z</time>
      </trkpt>
      <trkpt lat="49.93341" lon="2.30692">
        <ele>42.6</ele>
        <time>2023-12-27T16:11:01Z</time>
      </trkpt>
      <trkpt lat="49.93319" lon="2.30689">
        <ele>42.7</ele>
        <time>2023-12-27T16:11:02Z</time>
      </trkpt>
      <trkpt lat="49.93297" lon="2.30685">
        <ele>42.9</ele>
        <time>2023-12-27T16:11:03Z</time>
      </trkpt>
      <trkpt lat="49.93276" lon="2.30681">
        <ele>43</ele>
        <time>2023-12-27T16:11:04Z</time>
      </trkpt>
      <trkpt lat="49.93254" lon="2.30677">
        <ele>43</ele>
        <time>2023-12-27T16:11:05Z</time>
      </trkpt>
      <trkpt lat="49.93233" lon="2.30674">
        <ele>43</ele>
        <time>2023-12-27T16:11:06Z</time>
      </trkpt>
      <trkpt lat="49.93213" lon="2.3067">
        <ele>43</ele>
        <time>2023-12-27T16:11:07Z</time>
      </trkpt>
      <trkpt lat="49.93192" lon="2.30667">
        <ele>43.1</ele>
        <time>2023-12-27T16:11:08Z</time>
      </trkpt>
      <trkpt lat="49.93173" lon="2.30664">
        <ele>43.1</ele>
        <time>2023-12-27T16:11:09Z</time>
      </trkpt>
      <trkpt lat="49.93153" lon="2.3066">
        <ele>43.3</ele>
        <time>2023-12-27T16:11:10Z</time>
      </trkpt>
      <trkpt lat="49.93133" lon="2.30657">
        <ele>43.7</ele>
        <time>2023-12-27T16:11:11Z</time>
      </trkpt>
      <trkpt lat="49.93113" lon="2.30654">
        <ele>43.6</ele>
        <time>2023-12-27T16:11:12Z</time>
      </trkpt>
      <trkpt lat="49.93092" lon="2.3065">
        <ele>43.6</ele>
        <time>2023-12-27T16:11:13Z</time>
      </trkpt>
      <trkpt lat="49.93072" lon="2.30647">
        <ele>43.6</ele>
        <time>2023-12-27T16:11:14Z</time>
      </trkpt>
      <trkpt lat="49.93053" lon="2.30643">
        <ele>43.6</ele>
        <time>2023-12-27T16:11:15Z</time>
      </trkpt>
      <trkpt lat="49.93032" lon="2.3064">
        <ele>43.6</ele>
        <time>2023-12-27T16:11:16Z</time>
      </trkpt>
      <trkpt lat="49.93014" lon="2.30637">
        <ele>43.6</ele>
        <time>2023-12-27T16:11:17Z</time>
      </trkpt>
      <trkpt lat="49.92995" lon="2.30634">
        <ele>43.4</ele>
        <time>2023-12-27T16:11:18Z</time>
      </trkpt>
      <trkpt lat="49.92978" lon="2.3063">
        <ele>43.2</ele>
        <time>2023-12-27T16:11:19Z</time>
      </trkpt>
      <trkpt lat="49.9296" lon="2.30627">
        <ele>43.1</ele>
        <time>2023-12-27T16:11:20Z</time>
      </trkpt>
      <trkpt lat="49.92944" lon="2.30624">
        <ele>43</ele>
        <time>2023-12-27T16:11:21Z</time>
      </trkpt>
      <trkpt lat="49.92928" lon="2.30621">
        <ele>42.9</ele>
        <time>2023-12-27T16:11:22Z</time>
      </trkpt>
      <trkpt lat="49.92913" lon="2.30618">
        <ele>42.9</ele>
        <time>2023-12-27T16:11:23Z</time>
      </trkpt>
      <trkpt lat="49.92898" lon="2.30616">
        <ele>43</ele>
        <time>2023-12-27T16:11:24Z</time>
      </trkpt>
      <trkpt lat="49.92885" lon="2.30614">
        <ele>43.1</ele>
        <time>2023-12-27T16:11:25Z</time>
      </trkpt>
      <trkpt lat="49.92874" lon="2.30611">
        <ele>43.2</ele>
        <time>2023-12-27T16:11:26Z</time>
      </trkpt>
      <trkpt lat="49.92864" lon="2.30608">
        <ele>43.2</ele>
        <time>2023-12-27T16:11:27Z</time>
      </trkpt>
      <trkpt lat="49.92856" lon="2.30604">
        <ele>43.2</ele>
        <time>2023-12-27T16:11:28Z</time>
      </trkpt>
      <trkpt lat="49.9285" lon="2.306">
        <ele>43.1</ele>
        <time>2023-12-27T16:11:29Z</time>
      </trkpt>
      <trkpt lat="49.92844" lon="2.30595">
        <ele>43.2</ele>
        <time>2023-12-27T16:11:30Z</time>
      </trkpt>
      <trkpt lat="49.92839" lon="2.30588">
        <ele>43.2</ele>
        <time>2023-12-27T16:11:31Z</time>
      </trkpt>
      <trkpt lat="49.92832" lon="2.30582">
        <ele>43.3</ele>
        <time>2023-12-27T16:11:32Z</time>
      </trkpt>
      <trkpt lat="49.92824" lon="2.30577">
        <ele>43.3</ele>
        <time>2023-12-27T16:11:33Z</time>
      </trkpt>
      <trkpt lat="49.92817" lon="2.30577">
        <ele>43.4</ele>
        <time>2023-12-27T16:11:34Z</time>
      </trkpt>
      <trkpt lat="49.92809" lon="2.3058">
        <ele>43.5</ele>
        <time>2023-12-27T16:11:35Z</time>
      </trkpt>
      <trkpt lat="49.92801" lon="2.30584">
        <ele>43.6</ele>
        <time>2023-12-27T16:11:36Z</time>
      </trkpt>
      <trkpt lat="49.92793" lon="2.30588">
        <ele>43.7</ele>
        <time>2023-12-27T16:11:37Z</time>
      </trkpt>
      <trkpt lat="49.92783" lon="2.3059">
        <ele>43.7</ele>
        <time>2023-12-27T16:11:38Z</time>
      </trkpt>
      <trkpt lat="49.92772" lon="2.30591">
        <ele>43.8</ele>
        <time>2023-12-27T16:11:39Z</time>
      </trkpt>
      <trkpt lat="49.92759" lon="2.3059">
        <ele>43.9</ele>
        <time>2023-12-27T16:11:40Z</time>
      </trkpt>
      <trkpt lat="49.92744" lon="2.30588">
        <ele>44.1</ele>
        <time>2023-12-27T16:11:41Z</time>
      </trkpt>
      <trkpt lat="49.9273" lon="2.30586">
        <ele>44.4</ele>
        <time>2023-12-27T16:11:42Z</time>
      </trkpt>
      <trkpt lat="49.92716" lon="2.30585">
        <ele>44.7</ele>
        <time>2023-12-27T16:11:43Z</time>
      </trkpt>
      <trkpt lat="49.92702" lon="2.30584">
        <ele>45.2</ele>
        <time>2023-12-27T16:11:44Z</time>
      </trkpt>
      <trkpt lat="49.92688" lon="2.30583">
        <ele>45.7</ele>
        <time>2023-12-27T16:11:45Z</time>
      </trkpt>
      <trkpt lat="49.92676" lon="2.30581">
        <ele>46.2</ele>
        <time>2023-12-27T16:11:46Z</time>
      </trkpt>
      <trkpt lat="49.92666" lon="2.30579">
        <ele>46.7</ele>
        <time>2023-12-27T16:11:47Z</time>
      </trkpt>
      <trkpt lat="49.92655" lon="2.30577">
        <ele>47.2</ele>
        <time>2023-12-27T16:11:48Z</time>
      </trkpt>
      <trkpt lat="49.92645" lon="2.30575">
        <ele>47.8</ele>
        <time>2023-12-27T16:11:49Z</time>
      </trkpt>
      <trkpt lat="49.92634" lon="2.30573">
        <ele>48.5</ele>
        <time>2023-12-27T16:11:50Z</time>
      </trkpt>
      <trkpt lat="49.92624" lon="2.30569">
        <ele>49.1</ele>
        <time>2023-12-27T16:11:51Z</time>
      </trkpt>
      <trkpt lat="49.92616" lon="2.30565">
        <ele>49.7</ele>
        <time>2023-12-27T16:11:52Z</time>
      </trkpt>
      <trkpt lat="49.92609" lon="2.30561">
        <ele>50.2</ele>
        <time>2023-12-27T16:11:53Z</time>
      </trkpt>
      <trkpt lat="49.92605" lon="2.30555">
        <ele>50.7</ele>
        <time>2023-12-27T16:11:54Z</time>
      </trkpt>
      <trkpt lat="49.92601" lon="2.3055">
        <ele>51.3</ele>
        <time>2023-12-27T16:11:55Z</time>
      </trkpt>
      <trkpt lat="49.92597" lon="2.30543">
        <ele>51.9</ele>
        <time>2023-12-27T16:11:56Z</time>
      </trkpt>
      <trkpt lat="49.92592" lon="2.30537">
        <ele>52.5</ele>
        <time>2023-12-27T16:11:57Z</time>
      </trkpt>
      <trkpt lat="49.92585" lon="2.30533">
        <ele>53.3</ele>
        <time>2023-12-27T16:11:58Z</time>
      </trkpt>
      <trkpt lat="49.92578" lon="2.30531">
        <ele>54</ele>
        <time>2023-12-27T16:11:59Z</time>
      </trkpt>
      <trkpt lat="49.92571" lon="2.30534">
        <ele>54.7</ele>
        <time>2023-12-27T16:12:00Z</time>
      </trkpt>
      <trkpt lat="49.92565" lon="2.30539">
        <ele>55.2</ele>
        <time>2023-12-27T16:12:01Z</time>
      </trkpt>
      <trkpt lat="49.92558" lon="2.30545">
        <ele>55.2</ele>
        <time>2023-12-27T16:12:02Z</time>
      </trkpt>
      <trkpt lat="49.92549" lon="2.30551">
        <ele>55.2</ele>
        <time>2023-12-27T16:12:03Z</time>
      </trkpt>
      <trkpt lat="49.92539" lon="2.30555">
        <ele>55.2</ele>
        <time>2023-12-27T16:12:04Z</time>
      </trkpt>
      <trkpt lat="49.92528" lon="2.30554">
        <ele>55.2</ele>
        <time>2023-12-27T16:12:05Z</time>
      </trkpt>
      <trkpt lat="49.92517" lon="2.30552">
        <ele>55.2</ele>
        <time>2023-12-27T16:12:06Z</time>
      </trkpt>
      <trkpt lat="49.92505" lon="2.3055">
        <ele>55.2</ele>
        <time>2023-12-27T16:12:07Z</time>
      </trkpt>
      <trkpt lat="49.92493" lon="2.30547">
        <ele>55.2</ele>
        <time>2023-12-27T16:12:08Z</time>
      </trkpt>
      <trkpt lat="49.92481" lon="2.30544">
        <ele>55.2</ele>
        <time>2023-12-27T16:12:09Z</time>
      </trkpt>
      <trkpt lat="49.92467" lon="2.30541">
        <ele>55.7</ele>
        <time>2023-12-27T16:12:10Z</time>
      </trkpt>
      <trkpt lat="49.92453" lon="2.30538">
        <ele>56.5</ele>
        <time>2023-12-27T16:12:11Z</time>
      </trkpt>
      <trkpt lat="49.92438" lon="2.30535">
        <ele>57.2</ele>
        <time>2023-12-27T16:12:12Z</time>
      </trkpt>
      <trkpt lat="49.92423" lon="2.30532">
        <ele>57.9</ele>
        <time>2023-12-27T16:12:13Z</time>
      </trkpt>
      <trkpt lat="49.92409" lon="2.3053">
        <ele>58.4</ele>
        <time>2023-12-27T16:12:14Z</time>
      </trkpt>
      <trkpt lat="49.92395" lon="2.30528">
        <ele>58.5</ele>
        <time>2023-12-27T16:12:15Z</time>
      </trkpt>
      <trkpt lat="49.92381" lon="2.30526">
        <ele>58.5</ele>
        <time>2023-12-27T16:12:16Z</time>
      </trkpt>
      <trkpt lat="49.92367" lon="2.30523">
        <ele>58.5</ele>
        <time>2023-12-27T16:12:17Z</time>
      </trkpt>
      <trkpt lat="49.92355" lon="2.30521">
        <ele>58.5</ele>
        <time>2023-12-27T16:12:18Z</time>
      </trkpt>
      <trkpt lat="49.92343" lon="2.30519">
        <ele>58.5</ele>
        <time>2023-12-27T16:12:19Z</time>
      </trkpt>
      <trkpt lat="49.92334" lon="2.30517">
        <ele>58.5</ele>
        <time>2023-12-27T16:12:20Z</time>
      </trkpt>
      <trkpt lat="49.92325" lon="2.30516">
        <ele>58.6</ele>
        <time>2023-12-27T16:12:21Z</time>
      </trkpt>
      <trkpt lat="49.92317" lon="2.30515">
        <ele>58.7</ele>
        <time>2023-12-27T16:12:22Z</time>
      </trkpt>
      <trkpt lat="49.9231" lon="2.30515">
        <ele>58.7</ele>
        <time>2023-12-27T16:12:23Z</time>
      </trkpt>
      <trkpt lat="49.92304" lon="2.30515">
        <ele>58.7</ele>
        <time>2023-12-27T16:12:24Z</time>
      </trkpt>
      <trkpt lat="49.92301" lon="2.30513">
        <ele>58.7</ele>
        <time>2023-12-27T16:12:25Z</time>
      </trkpt>
      <trkpt lat="49.923" lon="2.30511">
        <ele>58.6</ele>
        <time>2023-12-27T16:12:26Z</time>
      </trkpt>
      <trkpt lat="49.923" lon="2.3051">
        <ele>58.6</ele>
        <time>2023-12-27T16:12:27Z</time>
      </trkpt>
      <trkpt lat="49.92301" lon="2.30509">
        <ele>58.6</ele>
        <time>2023-12-27T16:12:28Z</time>
      </trkpt>
      <trkpt lat="49.92302" lon="2.30507">
        <ele>58.6</ele>
        <time>2023-12-27T16:12:29Z</time>
      </trkpt>
      <trkpt lat="49.92301" lon="2.30506">
        <ele>58.5</ele>
        <time>2023-12-27T16:12:30Z</time>
      </trkpt>
      <trkpt lat="49.92301" lon="2.30505">
        <ele>58.5</ele>
        <time>2023-12-27T16:12:31Z</time>
      </trkpt>
      <trkpt lat="49.923" lon="2.30503">
        <ele>58.5</ele>
        <time>2023-12-27T16:12:32Z</time>
      </trkpt>
      <trkpt lat="49.92299" lon="2.30502">
        <ele>58.5</ele>
        <time>2023-12-27T16:12:33Z</time>
      </trkpt>
      <trkpt lat="49.92299" lon="2.30501">
        <ele>58.5</ele>
        <time>2023-12-27T16:12:34Z</time>
      </trkpt>
      <trkpt lat="49.92298" lon="2.305">
        <ele>58.5</ele>
        <time>2023-12-27T16:12:35Z</time>
      </trkpt>
      <trkpt lat="49.92298" lon="2.30499">
        <ele>58.5</ele>
        <time>2023-12-27T16:12:36Z</time>
      </trkpt>
      <trkpt lat="49.92297" lon="2.30498">
        <ele>58.5</ele>
        <time>2023-12-27T16:12:37Z</time>
      </trkpt>
      <trkpt lat="49.92296" lon="2.30497">
        <ele>58.4</ele>
        <time>2023-12-27T16:12:38Z</time>
      </trkpt>
      <trkpt lat="49.92296" lon="2.30495">
        <ele>58.4</ele>
        <time>2023-12-27T16:12:39Z</time>
      </trkpt>
      <trkpt lat="49.92295" lon="2.30494">
        <ele>58.4</ele>
        <time>2023-12-27T16:12:47Z</time>
      </trkpt>
      <trkpt lat="49.92295" lon="2.30493">
        <ele>58.4</ele>
        <time>2023-12-27T16:12:48Z</time>
      </trkpt>
      <trkpt lat="49.9229" lon="2.30485">
        <ele>58.4</ele>
        <time>2023-12-27T16:12:49Z</time>
      </trkpt>
      <trkpt lat="49.92285" lon="2.30479">
        <ele>58.4</ele>
        <time>2023-12-27T16:12:50Z</time>
      </trkpt>
      <trkpt lat="49.92279" lon="2.30474">
        <ele>58.4</ele>
        <time>2023-12-27T16:12:51Z</time>
      </trkpt>
      <trkpt lat="49.92273" lon="2.30472">
        <ele>58.4</ele>
        <time>2023-12-27T16:12:52Z</time>
      </trkpt>
      <trkpt lat="49.92267" lon="2.30474">
        <ele>58.4</ele>
        <time>2023-12-27T16:12:53Z</time>
      </trkpt>
      <trkpt lat="49.9226" lon="2.3048">
        <ele>58.4</ele>
        <time>2023-12-27T16:12:54Z</time>
      </trkpt>
      <trkpt lat="49.92253" lon="2.30487">
        <ele>58.4</ele>
        <time>2023-12-27T16:12:55Z</time>
      </trkpt>
      <trkpt lat="49.92246" lon="2.30494">
        <ele>58.4</ele>
        <time>2023-12-27T16:12:56Z</time>
      </trkpt>
      <trkpt lat="49.92238" lon="2.30498">
        <ele>58.5</ele>
        <time>2023-12-27T16:12:57Z</time>
      </trkpt>
      <trkpt lat="49.9223" lon="2.305">
        <ele>58.5</ele>
        <time>2023-12-27T16:12:58Z</time>
      </trkpt>
      <trkpt lat="49.9222" lon="2.30502">
        <ele>58.5</ele>
        <time>2023-12-27T16:12:59Z</time>
      </trkpt>
      <trkpt lat="49.92209" lon="2.30502">
        <ele>58.5</ele>
        <time>2023-12-27T16:13:00Z</time>
      </trkpt>
      <trkpt lat="49.92198" lon="2.305">
        <ele>58.5</ele>
        <time>2023-12-27T16:13:01Z</time>
      </trkpt>
      <trkpt lat="49.92185" lon="2.30497">
        <ele>58.4</ele>
        <time>2023-12-27T16:13:02Z</time>
      </trkpt>
      <trkpt lat="49.9217" lon="2.30494">
        <ele>58.4</ele>
        <time>2023-12-27T16:13:03Z</time>
      </trkpt>
      <trkpt lat="49.92157" lon="2.30492">
        <ele>58.2</ele>
        <time>2023-12-27T16:13:04Z</time>
      </trkpt>
      <trkpt lat="49.92142" lon="2.30489">
        <ele>58</ele>
        <time>2023-12-27T16:13:05Z</time>
      </trkpt>
      <trkpt lat="49.92128" lon="2.30486">
        <ele>57.8</ele>
        <time>2023-12-27T16:13:06Z</time>
      </trkpt>
      <trkpt lat="49.92113" lon="2.30483">
        <ele>57.5</ele>
        <time>2023-12-27T16:13:07Z</time>
      </trkpt>
      <trkpt lat="49.92098" lon="2.3048">
        <ele>57.2</ele>
        <time>2023-12-27T16:13:08Z</time>
      </trkpt>
      <trkpt lat="49.92084" lon="2.30477">
        <ele>56.5</ele>
        <time>2023-12-27T16:13:09Z</time>
      </trkpt>
      <trkpt lat="49.92069" lon="2.30474">
        <ele>55.9</ele>
        <time>2023-12-27T16:13:10Z</time>
      </trkpt>
      <trkpt lat="49.92054" lon="2.30471">
        <ele>55.2</ele>
        <time>2023-12-27T16:13:11Z</time>
      </trkpt>
      <trkpt lat="49.9204" lon="2.30468">
        <ele>54.5</ele>
        <time>2023-12-27T16:13:12Z</time>
      </trkpt>
      <trkpt lat="49.92025" lon="2.30465">
        <ele>53.8</ele>
        <time>2023-12-27T16:13:13Z</time>
      </trkpt>
      <trkpt lat="49.92011" lon="2.30462">
        <ele>53.2</ele>
        <time>2023-12-27T16:13:14Z</time>
      </trkpt>
      <trkpt lat="49.91996" lon="2.3046">
        <ele>52.6</ele>
        <time>2023-12-27T16:13:15Z</time>
      </trkpt>
      <trkpt lat="49.91982" lon="2.30458">
        <ele>52</ele>
        <time>2023-12-27T16:13:16Z</time>
      </trkpt>
      <trkpt lat="49.91968" lon="2.30457">
        <ele>51.5</ele>
        <time>2023-12-27T16:13:17Z</time>
      </trkpt>
      <trkpt lat="49.91955" lon="2.30456">
        <ele>51</ele>
        <time>2023-12-27T16:13:18Z</time>
      </trkpt>
      <trkpt lat="49.91943" lon="2.30455">
        <ele>50.6</ele>
        <time>2023-12-27T16:13:19Z</time>
      </trkpt>
      <trkpt lat="49.91932" lon="2.30454">
        <ele>50.2</ele>
        <time>2023-12-27T16:13:20Z</time>
      </trkpt>
      <trkpt lat="49.91922" lon="2.30453">
        <ele>49.8</ele>
        <time>2023-12-27T16:13:21Z</time>
      </trkpt>
      <trkpt lat="49.91914" lon="2.30452">
        <ele>49.5</ele>
        <time>2023-12-27T16:13:22Z</time>
      </trkpt>
      <trkpt lat="49.91907" lon="2.3045">
        <ele>49.2</ele>
        <time>2023-12-27T16:13:23Z</time>
      </trkpt>
      <trkpt lat="49.919" lon="2.30447">
        <ele>49.1</ele>
        <time>2023-12-27T16:13:24Z</time>
      </trkpt>
      <trkpt lat="49.91895" lon="2.30442">
        <ele>49.3</ele>
        <time>2023-12-27T16:13:25Z</time>
      </trkpt>
      <trkpt lat="49.9189" lon="2.30436">
        <ele>49.4</ele>
        <time>2023-12-27T16:13:26Z</time>
      </trkpt>
      <trkpt lat="49.91885" lon="2.3043">
        <ele>49.3</ele>
        <time>2023-12-27T16:13:27Z</time>
      </trkpt>
      <trkpt lat="49.91879" lon="2.30424">
        <ele>49.3</ele>
        <time>2023-12-27T16:13:28Z</time>
      </trkpt>
      <trkpt lat="49.91872" lon="2.3042">
        <ele>49.2</ele>
        <time>2023-12-27T16:13:29Z</time>
      </trkpt>
      <trkpt lat="49.91864" lon="2.30419">
        <ele>48.9</ele>
        <time>2023-12-27T16:13:30Z</time>
      </trkpt>
      <trkpt lat="49.91858" lon="2.3042">
        <ele>48.6</ele>
        <time>2023-12-27T16:13:31Z</time>
      </trkpt>
      <trkpt lat="49.91852" lon="2.30422">
        <ele>48.6</ele>
        <time>2023-12-27T16:13:32Z</time>
      </trkpt>
      <trkpt lat="49.91844" lon="2.30424">
        <ele>48.6</ele>
        <time>2023-12-27T16:13:33Z</time>
      </trkpt>
      <trkpt lat="49.91835" lon="2.30425">
        <ele>48.4</ele>
        <time>2023-12-27T16:13:34Z</time>
      </trkpt>
      <trkpt lat="49.91827" lon="2.30425">
        <ele>48.4</ele>
        <time>2023-12-27T16:13:35Z</time>
      </trkpt>
      <trkpt lat="49.91817" lon="2.30424">
        <ele>48.3</ele>
        <time>2023-12-27T16:13:36Z</time>
      </trkpt>
      <trkpt lat="49.91806" lon="2.30423">
        <ele>48.3</ele>
        <time>2023-12-27T16:13:37Z</time>
      </trkpt>
      <trkpt lat="49.91795" lon="2.30424">
        <ele>48.2</ele>
        <time>2023-12-27T16:13:38Z</time>
      </trkpt>
      <trkpt lat="49.91784" lon="2.30427">
        <ele>48.2</ele>
        <time>2023-12-27T16:13:39Z</time>
      </trkpt>
      <trkpt lat="49.91774" lon="2.30431">
        <ele>48.1</ele>
        <time>2023-12-27T16:13:40Z</time>
      </trkpt>
      <trkpt lat="49.91765" lon="2.3044">
        <ele>48.1</ele>
        <time>2023-12-27T16:13:41Z</time>
      </trkpt>
      <trkpt lat="49.91755" lon="2.30454">
        <ele>48.6</ele>
        <time>2023-12-27T16:13:42Z</time>
      </trkpt>
      <trkpt lat="49.91746" lon="2.30468">
        <ele>49.1</ele>
        <time>2023-12-27T16:13:43Z</time>
      </trkpt>
      <trkpt lat="49.91737" lon="2.30483">
        <ele>49.6</ele>
        <time>2023-12-27T16:13:44Z</time>
      </trkpt>
      <trkpt lat="49.91729" lon="2.30501">
        <ele>50</ele>
        <time>2023-12-27T16:13:45Z</time>
      </trkpt>
      <trkpt lat="49.91722" lon="2.30519">
        <ele>50.3</ele>
        <time>2023-12-27T16:13:46Z</time>
      </trkpt>
      <trkpt lat="49.91716" lon="2.30539">
        <ele>50.6</ele>
        <time>2023-12-27T16:13:47Z</time>
      </trkpt>
      <trkpt lat="49.91709" lon="2.30557">
        <ele>50.9</ele>
        <time>2023-12-27T16:13:48Z</time>
      </trkpt>
      <trkpt lat="49.91702" lon="2.30574">
        <ele>51.1</ele>
        <time>2023-12-27T16:13:49Z</time>
      </trkpt>
      <trkpt lat="49.91695" lon="2.3059">
        <ele>51.3</ele>
        <time>2023-12-27T16:13:50Z</time>
      </trkpt>
      <trkpt lat="49.91686" lon="2.30605">
        <ele>51.5</ele>
        <time>2023-12-27T16:13:51Z</time>
      </trkpt>
      <trkpt lat="49.91676" lon="2.30619">
        <ele>51.7</ele>
        <time>2023-12-27T16:13:52Z</time>
      </trkpt>
      <trkpt lat="49.91666" lon="2.30633">
        <ele>52</ele>
        <time>2023-12-27T16:13:53Z</time>
      </trkpt>
      <trkpt lat="49.91655" lon="2.30647">
        <ele>52.3</ele>
        <time>2023-12-27T16:13:54Z</time>
      </trkpt>
      <trkpt lat="49.91644" lon="2.30661">
        <ele>52.8</ele>
        <time>2023-12-27T16:13:55Z</time>
      </trkpt>
      <trkpt lat="49.91633" lon="2.30675">
        <ele>53.3</ele>
        <time>2023-12-27T16:13:56Z</time>
      </trkpt>
      <trkpt lat="49.9162" lon="2.30691">
        <ele>53.9</ele>
        <time>2023-12-27T16:13:57Z</time>
      </trkpt>
      <trkpt lat="49.91608" lon="2.30707">
        <ele>54.4</ele>
        <time>2023-12-27T16:13:58Z</time>
      </trkpt>
      <trkpt lat="49.91597" lon="2.30724">
        <ele>54.9</ele>
        <time>2023-12-27T16:13:59Z</time>
      </trkpt>
      <trkpt lat="49.91584" lon="2.30743">
        <ele>55.6</ele>
        <time>2023-12-27T16:14:00Z</time>
      </trkpt>
      <trkpt lat="49.91572" lon="2.30761">
        <ele>56.2</ele>
        <time>2023-12-27T16:14:01Z</time>
      </trkpt>
      <trkpt lat="49.9156" lon="2.3078">
        <ele>56.9</ele>
        <time>2023-12-27T16:14:02Z</time>
      </trkpt>
      <trkpt lat="49.91549" lon="2.30799">
        <ele>57.4</ele>
        <time>2023-12-27T16:14:03Z</time>
      </trkpt>
      <trkpt lat="49.91539" lon="2.30817">
        <ele>57.9</ele>
        <time>2023-12-27T16:14:04Z</time>
      </trkpt>
      <trkpt lat="49.91529" lon="2.30836">
        <ele>58.5</ele>
        <time>2023-12-27T16:14:05Z</time>
      </trkpt>
      <trkpt lat="49.9152" lon="2.30854">
        <ele>59.1</ele>
        <time>2023-12-27T16:14:06Z</time>
      </trkpt>
      <trkpt lat="49.91512" lon="2.30872">
        <ele>59.6</ele>
        <time>2023-12-27T16:14:07Z</time>
      </trkpt>
      <trkpt lat="49.91504" lon="2.30888">
        <ele>60</ele>
        <time>2023-12-27T16:14:08Z</time>
      </trkpt>
      <trkpt lat="49.91496" lon="2.30904">
        <ele>60.2</ele>
        <time>2023-12-27T16:14:09Z</time>
      </trkpt>
      <trkpt lat="49.9149" lon="2.30918">
        <ele>60.5</ele>
        <time>2023-12-27T16:14:10Z</time>
      </trkpt>
      <trkpt lat="49.91484" lon="2.30932">
        <ele>60.8</ele>
        <time>2023-12-27T16:14:11Z</time>
      </trkpt>
      <trkpt lat="49.9148" lon="2.30944">
        <ele>61.1</ele>
        <time>2023-12-27T16:14:12Z</time>
      </trkpt>
      <trkpt lat="49.91476" lon="2.30955">
        <ele>61.3</ele>
        <time>2023-12-27T16:14:13Z</time>
      </trkpt>
      <trkpt lat="49.91474" lon="2.30963">
        <ele>61.4</ele>
        <time>2023-12-27T16:14:14Z</time>
      </trkpt>
      <trkpt lat="49.91471" lon="2.30969">
        <ele>61.5</ele>
        <time>2023-12-27T16:14:15Z</time>
      </trkpt>
      <trkpt lat="49.91467" lon="2.30977">
        <ele>61.3</ele>
        <time>2023-12-27T16:14:16Z</time>
      </trkpt>
      <trkpt lat="49.91461" lon="2.30982">
        <ele>61.2</ele>
        <time>2023-12-27T16:14:17Z</time>
      </trkpt>
      <trkpt lat="49.91456" lon="2.30986">
        <ele>61.3</ele>
        <time>2023-12-27T16:14:18Z</time>
      </trkpt>
      <trkpt lat="49.91448" lon="2.3099">
        <ele>61.3</ele>
        <time>2023-12-27T16:14:19Z</time>
      </trkpt>
      <trkpt lat="49.91442" lon="2.30996">
        <ele>61.3</ele>
        <time>2023-12-27T16:14:20Z</time>
      </trkpt>
      <trkpt lat="49.91439" lon="2.31004">
        <ele>61.4</ele>
        <time>2023-12-27T16:14:21Z</time>
      </trkpt>
      <trkpt lat="49.91436" lon="2.31014">
        <ele>61.4</ele>
        <time>2023-12-27T16:14:22Z</time>
      </trkpt>
      <trkpt lat="49.91435" lon="2.31022">
        <ele>61.5</ele>
        <time>2023-12-27T16:14:23Z</time>
      </trkpt>
      <trkpt lat="49.91433" lon="2.31034">
        <ele>61.7</ele>
        <time>2023-12-27T16:14:24Z</time>
      </trkpt>
      <trkpt lat="49.9143" lon="2.31047">
        <ele>61.7</ele>
        <time>2023-12-27T16:14:25Z</time>
      </trkpt>
      <trkpt lat="49.91426" lon="2.31058">
        <ele>61.8</ele>
        <time>2023-12-27T16:14:26Z</time>
      </trkpt>
      <trkpt lat="49.91421" lon="2.3107">
        <ele>61.7</ele>
        <time>2023-12-27T16:14:27Z</time>
      </trkpt>
      <trkpt lat="49.91415" lon="2.31082">
        <ele>61.7</ele>
        <time>2023-12-27T16:14:28Z</time>
      </trkpt>
      <trkpt lat="49.91409" lon="2.31096">
        <ele>61.7</ele>
        <time>2023-12-27T16:14:29Z</time>
      </trkpt>
      <trkpt lat="49.91402" lon="2.31111">
        <ele>61.7</ele>
        <time>2023-12-27T16:14:30Z</time>
      </trkpt>
      <trkpt lat="49.91394" lon="2.31126">
        <ele>61.7</ele>
        <time>2023-12-27T16:14:31Z</time>
      </trkpt>
      <trkpt lat="49.91386" lon="2.31143">
        <ele>61.7</ele>
        <time>2023-12-27T16:14:32Z</time>
      </trkpt>
      <trkpt lat="49.91378" lon="2.31159">
        <ele>61.8</ele>
        <time>2023-12-27T16:14:33Z</time>
      </trkpt>
      <trkpt lat="49.91371" lon="2.31176">
        <ele>61.9</ele>
        <time>2023-12-27T16:14:34Z</time>
      </trkpt>
      <trkpt lat="49.91364" lon="2.31192">
        <ele>62</ele>
        <time>2023-12-27T16:14:35Z</time>
      </trkpt>
      <trkpt lat="49.91357" lon="2.31208">
        <ele>62.2</ele>
        <time>2023-12-27T16:14:36Z</time>
      </trkpt>
      <trkpt lat="49.9135" lon="2.31223">
        <ele>62.4</ele>
        <time>2023-12-27T16:14:37Z</time>
      </trkpt>
      <trkpt lat="49.91343" lon="2.31238">
        <ele>62.6</ele>
        <time>2023-12-27T16:14:38Z</time>
      </trkpt>
      <trkpt lat="49.91336" lon="2.31252">
        <ele>62.6</ele>
        <time>2023-12-27T16:14:39Z</time>
      </trkpt>
      <trkpt lat="49.9133" lon="2.31264">
        <ele>62.6</ele>
        <time>2023-12-27T16:14:40Z</time>
      </trkpt>
      <trkpt lat="49.91325" lon="2.31277">
        <ele>62.5</ele>
        <time>2023-12-27T16:14:41Z</time>
      </trkpt>
      <trkpt lat="49.91319" lon="2.31289">
        <ele>62.4</ele>
        <time>2023-12-27T16:14:42Z</time>
      </trkpt>
      <trkpt lat="49.91313" lon="2.313">
        <ele>62.4</ele>
        <time>2023-12-27T16:14:43Z</time>
      </trkpt>
      <trkpt lat="49.91308" lon="2.31312">
        <ele>62.3</ele>
        <time>2023-12-27T16:14:44Z</time>
      </trkpt>
      <trkpt lat="49.91301" lon="2.31325">
        <ele>62.2</ele>
        <time>2023-12-27T16:14:45Z</time>
      </trkpt>
      <trkpt lat="49.91294" lon="2.31339">
        <ele>62</ele>
        <time>2023-12-27T16:14:46Z</time>
      </trkpt>
      <trkpt lat="49.91287" lon="2.31354">
        <ele>61.8</ele>
        <time>2023-12-27T16:14:47Z</time>
      </trkpt>
      <trkpt lat="49.9128" lon="2.31369">
        <ele>61.6</ele>
        <time>2023-12-27T16:14:48Z</time>
      </trkpt>
      <trkpt lat="49.91272" lon="2.31384">
        <ele>61.4</ele>
        <time>2023-12-27T16:14:49Z</time>
      </trkpt>
      <trkpt lat="49.91265" lon="2.31399">
        <ele>61.2</ele>
        <time>2023-12-27T16:14:50Z</time>
      </trkpt>
      <trkpt lat="49.91258" lon="2.31414">
        <ele>61</ele>
        <time>2023-12-27T16:14:51Z</time>
      </trkpt>
      <trkpt lat="49.91251" lon="2.31429">
        <ele>60.9</ele>
        <time>2023-12-27T16:14:52Z</time>
      </trkpt>
      <trkpt lat="49.91244" lon="2.31444">
        <ele>60.7</ele>
        <time>2023-12-27T16:14:53Z</time>
      </trkpt>
      <trkpt lat="49.91237" lon="2.31459">
        <ele>60.5</ele>
        <time>2023-12-27T16:14:54Z</time>
      </trkpt>
      <trkpt lat="49.9123" lon="2.31472">
        <ele>60.2</ele>
        <time>2023-12-27T16:14:55Z</time>
      </trkpt>
      <trkpt lat="49.91222" lon="2.31487">
        <ele>60</ele>
        <time>2023-12-27T16:14:56Z</time>
      </trkpt>
      <trkpt lat="49.91214" lon="2.315">
        <ele>59.7</ele>
        <time>2023-12-27T16:14:57Z</time>
      </trkpt>
      <trkpt lat="49.91206" lon="2.31513">
        <ele>59.5</ele>
        <time>2023-12-27T16:14:58Z</time>
      </trkpt>
      <trkpt lat="49.91197" lon="2.31526">
        <ele>59.3</ele>
        <time>2023-12-27T16:14:59Z</time>
      </trkpt>
      <trkpt lat="49.9119" lon="2.31537">
        <ele>59.1</ele>
        <time>2023-12-27T16:15:00Z</time>
      </trkpt>
      <trkpt lat="49.91182" lon="2.31547">
        <ele>58.9</ele>
        <time>2023-12-27T16:15:01Z</time>
      </trkpt>
      <trkpt lat="49.91175" lon="2.31556">
        <ele>58.8</ele>
        <time>2023-12-27T16:15:02Z</time>
      </trkpt>
      <trkpt lat="49.91169" lon="2.31563">
        <ele>58.7</ele>
        <time>2023-12-27T16:15:03Z</time>
      </trkpt>
      <trkpt lat="49.91164" lon="2.31569">
        <ele>58.8</ele>
        <time>2023-12-27T16:15:04Z</time>
      </trkpt>
      <trkpt lat="49.9116" lon="2.31572">
        <ele>58.8</ele>
        <time>2023-12-27T16:15:05Z</time>
      </trkpt>
      <trkpt lat="49.91157" lon="2.31572">
        <ele>58.8</ele>
        <time>2023-12-27T16:15:06Z</time>
      </trkpt>
      <trkpt lat="49.91156" lon="2.31572">
        <ele>58.8</ele>
        <time>2023-12-27T16:15:07Z</time>
      </trkpt>
      <trkpt lat="49.91154" lon="2.31572">
        <ele>58.8</ele>
        <time>2023-12-27T16:15:08Z</time>
      </trkpt>
      <trkpt lat="49.91153" lon="2.31572">
        <ele>58.8</ele>
        <time>2023-12-27T16:15:09Z</time>
      </trkpt>
      <trkpt lat="49.91152" lon="2.31572">
        <ele>58.8</ele>
        <time>2023-12-27T16:15:10Z</time>
      </trkpt>
      <trkpt lat="49.91152" lon="2.31571">
        <ele>58.8</ele>
        <time>2023-12-27T16:15:11Z</time>
      </trkpt>
      <trkpt lat="49.91151" lon="2.31571">
        <ele>58.9</ele>
        <time>2023-12-27T16:15:12Z</time>
      </trkpt>
      <trkpt lat="49.91147" lon="2.31571">
        <ele>58.7</ele>
        <time>2023-12-27T16:15:13Z</time>
      </trkpt>
      <trkpt lat="49.91142" lon="2.31572">
        <ele>58.6</ele>
        <time>2023-12-27T16:15:14Z</time>
      </trkpt>
      <trkpt lat="49.91136" lon="2.31572">
        <ele>58.4</ele>
        <time>2023-12-27T16:15:15Z</time>
      </trkpt>
      <trkpt lat="49.91128" lon="2.31572">
        <ele>58.3</ele>
        <time>2023-12-27T16:15:16Z</time>
      </trkpt>
      <trkpt lat="49.9112" lon="2.31571">
        <ele>58.1</ele>
        <time>2023-12-27T16:15:17Z</time>
      </trkpt>
      <trkpt lat="49.91111" lon="2.31571">
        <ele>57.9</ele>
        <time>2023-12-27T16:15:18Z</time>
      </trkpt>
      <trkpt lat="49.91103" lon="2.31571">
        <ele>57.8</ele>
        <time>2023-12-27T16:15:19Z</time>
      </trkpt>
      <trkpt lat="49.91095" lon="2.31571">
        <ele>57.8</ele>
        <time>2023-12-27T16:15:20Z</time>
      </trkpt>
      <trkpt lat="49.91089" lon="2.31573">
        <ele>57.6</ele>
        <time>2023-12-27T16:15:21Z</time>
      </trkpt>
      <trkpt lat="49.91084" lon="2.31577">
        <ele>57.5</ele>
        <time>2023-12-27T16:15:22Z</time>
      </trkpt>
      <trkpt lat="49.91081" lon="2.31584">
        <ele>57.4</ele>
        <time>2023-12-27T16:15:23Z</time>
      </trkpt>
      <trkpt lat="49.91079" lon="2.31591">
        <ele>57.3</ele>
        <time>2023-12-27T16:15:24Z</time>
      </trkpt>
      <trkpt lat="49.91078" lon="2.31598">
        <ele>57.3</ele>
        <time>2023-12-27T16:15:25Z</time>
      </trkpt>
      <trkpt lat="49.91078" lon="2.31607">
        <ele>57.2</ele>
        <time>2023-12-27T16:15:26Z</time>
      </trkpt>
      <trkpt lat="49.91078" lon="2.31615">
        <ele>57</ele>
        <time>2023-12-27T16:15:27Z</time>
      </trkpt>
      <trkpt lat="49.91076" lon="2.31623">
        <ele>56.9</ele>
        <time>2023-12-27T16:15:28Z</time>
      </trkpt>
      <trkpt lat="49.91073" lon="2.31632">
        <ele>56.7</ele>
        <time>2023-12-27T16:15:29Z</time>
      </trkpt>
      <trkpt lat="49.91068" lon="2.31639">
        <ele>56.6</ele>
        <time>2023-12-27T16:15:30Z</time>
      </trkpt>
      <trkpt lat="49.91062" lon="2.31644">
        <ele>56.5</ele>
        <time>2023-12-27T16:15:31Z</time>
      </trkpt>
      <trkpt lat="49.91055" lon="2.3165">
        <ele>56.1</ele>
        <time>2023-12-27T16:15:32Z</time>
      </trkpt>
      <trkpt lat="49.91047" lon="2.31655">
        <ele>55.8</ele>
        <time>2023-12-27T16:15:33Z</time>
      </trkpt>
      <trkpt lat="49.91038" lon="2.3166">
        <ele>55.5</ele>
        <time>2023-12-27T16:15:34Z</time>
      </trkpt>
      <trkpt lat="49.91028" lon="2.31664">
        <ele>55.1</ele>
        <time>2023-12-27T16:15:35Z</time>
      </trkpt>
      <trkpt lat="49.91018" lon="2.3167">
        <ele>54.7</ele>
        <time>2023-12-27T16:15:36Z</time>
      </trkpt>
      <trkpt lat="49.91008" lon="2.31675">
        <ele>54.3</ele>
        <time>2023-12-27T16:15:37Z</time>
      </trkpt>
      <trkpt lat="49.90997" lon="2.3168">
        <ele>53.9</ele>
        <time>2023-12-27T16:15:38Z</time>
      </trkpt>
      <trkpt lat="49.90987" lon="2.31684">
        <ele>53.4</ele>
        <time>2023-12-27T16:15:39Z</time>
      </trkpt>
      <trkpt lat="49.90978" lon="2.31689">
        <ele>53</ele>
        <time>2023-12-27T16:15:40Z</time>
      </trkpt>
      <trkpt lat="49.90971" lon="2.31693">
        <ele>52.7</ele>
        <time>2023-12-27T16:15:41Z</time>
      </trkpt>
      <trkpt lat="49.90965" lon="2.31695">
        <ele>52.5</ele>
        <time>2023-12-27T16:15:42Z</time>
      </trkpt>
      <trkpt lat="49.90962" lon="2.31697">
        <ele>52.3</ele>
        <time>2023-12-27T16:15:43Z</time>
      </trkpt>
      <trkpt lat="49.90958" lon="2.31699">
        <ele>52.2</ele>
        <time>2023-12-27T16:15:44Z</time>
      </trkpt>
      <trkpt lat="49.90955" lon="2.317">
        <ele>52</ele>
        <time>2023-12-27T16:15:45Z</time>
      </trkpt>
      <trkpt lat="49.90952" lon="2.31701">
        <ele>51.9</ele>
        <time>2023-12-27T16:15:46Z</time>
      </trkpt>
      <trkpt lat="49.90948" lon="2.31703">
        <ele>51.7</ele>
        <time>2023-12-27T16:15:47Z</time>
      </trkpt>
      <trkpt lat="49.90943" lon="2.31705">
        <ele>51.5</ele>
        <time>2023-12-27T16:15:48Z</time>
      </trkpt>
      <trkpt lat="49.90938" lon="2.31708">
        <ele>51.3</ele>
        <time>2023-12-27T16:15:49Z</time>
      </trkpt>
      <trkpt lat="49.90932" lon="2.31711">
        <ele>51</ele>
        <time>2023-12-27T16:15:50Z</time>
      </trkpt>
      <trkpt lat="49.90924" lon="2.31715">
        <ele>50.7</ele>
        <time>2023-12-27T16:15:51Z</time>
      </trkpt>
      <trkpt lat="49.90916" lon="2.31719">
        <ele>50.4</ele>
        <time>2023-12-27T16:15:52Z</time>
      </trkpt>
      <trkpt lat="49.90908" lon="2.31723">
        <ele>50</ele>
        <time>2023-12-27T16:15:53Z</time>
      </trkpt>
      <trkpt lat="49.90899" lon="2.31728">
        <ele>49.6</ele>
        <time>2023-12-27T16:15:54Z</time>
      </trkpt>
      <trkpt lat="49.9089" lon="2.31733">
        <ele>49.3</ele>
        <time>2023-12-27T16:15:55Z</time>
      </trkpt>
      <trkpt lat="49.9088" lon="2.31738">
        <ele>49</ele>
        <time>2023-12-27T16:15:56Z</time>
      </trkpt>
      <trkpt lat="49.9087" lon="2.31743">
        <ele>48.7</ele>
        <time>2023-12-27T16:15:57Z</time>
      </trkpt>
      <trkpt lat="49.9086" lon="2.31749">
        <ele>48.5</ele>
        <time>2023-12-27T16:15:58Z</time>
      </trkpt>
      <trkpt lat="49.9085" lon="2.31754">
        <ele>48.3</ele>
        <time>2023-12-27T16:15:59Z</time>
      </trkpt>
      <trkpt lat="49.9084" lon="2.31759">
        <ele>48.1</ele>
        <time>2023-12-27T16:16:00Z</time>
      </trkpt>
      <trkpt lat="49.90831" lon="2.31764">
        <ele>47.9</ele>
        <time>2023-12-27T16:16:01Z</time>
      </trkpt>
      <trkpt lat="49.90822" lon="2.31768">
        <ele>47.8</ele>
        <time>2023-12-27T16:16:02Z</time>
      </trkpt>
      <trkpt lat="49.90815" lon="2.31772">
        <ele>47.6</ele>
        <time>2023-12-27T16:16:03Z</time>
      </trkpt>
      <trkpt lat="49.90809" lon="2.31775">
        <ele>47.5</ele>
        <time>2023-12-27T16:16:04Z</time>
      </trkpt>
      <trkpt lat="49.90803" lon="2.31778">
        <ele>47.3</ele>
        <time>2023-12-27T16:16:05Z</time>
      </trkpt>
      <trkpt lat="49.90798" lon="2.3178">
        <ele>47.2</ele>
        <time>2023-12-27T16:16:06Z</time>
      </trkpt>
      <trkpt lat="49.90792" lon="2.31783">
        <ele>47.1</ele>
        <time>2023-12-27T16:16:07Z</time>
      </trkpt>
      <trkpt lat="49.90785" lon="2.31787">
        <ele>46.9</ele>
        <time>2023-12-27T16:16:08Z</time>
      </trkpt>
      <trkpt lat="49.90778" lon="2.3179">
        <ele>46.8</ele>
        <time>2023-12-27T16:16:09Z</time>
      </trkpt>
      <trkpt lat="49.9077" lon="2.31794">
        <ele>46.6</ele>
        <time>2023-12-27T16:16:10Z</time>
      </trkpt>
      <trkpt lat="49.90763" lon="2.31797">
        <ele>46.5</ele>
        <time>2023-12-27T16:16:11Z</time>
      </trkpt>
      <trkpt lat="49.90755" lon="2.31801">
        <ele>46.3</ele>
        <time>2023-12-27T16:16:12Z</time>
      </trkpt>
      <trkpt lat="49.90747" lon="2.31804">
        <ele>46.2</ele>
        <time>2023-12-27T16:16:13Z</time>
      </trkpt>
      <trkpt lat="49.90741" lon="2.31808">
        <ele>46.1</ele>
        <time>2023-12-27T16:16:14Z</time>
      </trkpt>
      <trkpt lat="49.90735" lon="2.3181">
        <ele>46</ele>
        <time>2023-12-27T16:16:15Z</time>
      </trkpt>
      <trkpt lat="49.9073" lon="2.31812">
        <ele>45.9</ele>
        <time>2023-12-27T16:16:16Z</time>
      </trkpt>
      <trkpt lat="49.90726" lon="2.31814">
        <ele>45.9</ele>
        <time>2023-12-27T16:16:17Z</time>
      </trkpt>
      <trkpt lat="49.90723" lon="2.31815">
        <ele>45.8</ele>
        <time>2023-12-27T16:16:18Z</time>
      </trkpt>
      <trkpt lat="49.90721" lon="2.31815">
        <ele>45.8</ele>
        <time>2023-12-27T16:16:19Z</time>
      </trkpt>
      <trkpt lat="49.9072" lon="2.31815">
        <ele>45.8</ele>
        <time>2023-12-27T16:16:20Z</time>
      </trkpt>
      <trkpt lat="49.9072" lon="2.31815">
        <ele>45.8</ele>
        <time>2023-12-27T16:16:21Z</time>
      </trkpt>
      <trkpt lat="49.9072" lon="2.31815">
        <ele>45.8</ele>
        <time>2023-12-27T16:16:22Z</time>
      </trkpt>
      <trkpt lat="49.90719" lon="2.31815">
        <ele>45.8</ele>
        <time>2023-12-27T16:16:23Z</time>
      </trkpt>
      <trkpt lat="49.90719" lon="2.31815">
        <ele>45.8</ele>
        <time>2023-12-27T16:16:24Z</time>
      </trkpt>
      <trkpt lat="49.90719" lon="2.31816">
        <ele>45.8</ele>
        <time>2023-12-27T16:16:25Z</time>
      </trkpt>
      <trkpt lat="49.90718" lon="2.31816">
        <ele>45.8</ele>
        <time>2023-12-27T16:16:26Z</time>
      </trkpt>
      <trkpt lat="49.90718" lon="2.31816">
        <ele>45.8</ele>
        <time>2023-12-27T16:16:27Z</time>
      </trkpt>
      <trkpt lat="49.90716" lon="2.31816">
        <ele>45.8</ele>
        <time>2023-12-27T16:16:28Z</time>
      </trkpt>
      <trkpt lat="49.90715" lon="2.31816">
        <ele>45.7</ele>
        <time>2023-12-27T16:16:29Z</time>
      </trkpt>
      <trkpt lat="49.90714" lon="2.31816">
        <ele>45.7</ele>
        <time>2023-12-27T16:16:30Z</time>
      </trkpt>
      <trkpt lat="49.90712" lon="2.31817">
        <ele>45.7</ele>
        <time>2023-12-27T16:16:31Z</time>
      </trkpt>
      <trkpt lat="49.90708" lon="2.31818">
        <ele>45.7</ele>
        <time>2023-12-27T16:16:32Z</time>
      </trkpt>
      <trkpt lat="49.90707" lon="2.31818">
        <ele>45.7</ele>
        <time>2023-12-27T16:16:33Z</time>
      </trkpt>
      <trkpt lat="49.90703" lon="2.31819">
        <ele>45.7</ele>
        <time>2023-12-27T16:16:34Z</time>
      </trkpt>
      <trkpt lat="49.90702" lon="2.31819">
        <ele>45.7</ele>
        <time>2023-12-27T16:16:35Z</time>
      </trkpt>
      <trkpt lat="49.90698" lon="2.3182">
        <ele>45.8</ele>
        <time>2023-12-27T16:16:36Z</time>
      </trkpt>
      <trkpt lat="49.90696" lon="2.3182">
        <ele>45.8</ele>
        <time>2023-12-27T16:16:37Z</time>
      </trkpt>
      <trkpt lat="49.90691" lon="2.3182">
        <ele>45.9</ele>
        <time>2023-12-27T16:16:38Z</time>
      </trkpt>
      <trkpt lat="49.90686" lon="2.31819">
        <ele>45.9</ele>
        <time>2023-12-27T16:16:39Z</time>
      </trkpt>
      <trkpt lat="49.90681" lon="2.31816">
        <ele>45.8</ele>
        <time>2023-12-27T16:16:40Z</time>
      </trkpt>
      <trkpt lat="49.90675" lon="2.31814">
        <ele>45.7</ele>
        <time>2023-12-27T16:16:41Z</time>
      </trkpt>
      <trkpt lat="49.90668" lon="2.31811">
        <ele>45.6</ele>
        <time>2023-12-27T16:16:42Z</time>
      </trkpt>
      <trkpt lat="49.90661" lon="2.31808">
        <ele>45.5</ele>
        <time>2023-12-27T16:16:43Z</time>
      </trkpt>
      <trkpt lat="49.90652" lon="2.31803">
        <ele>45.4</ele>
        <time>2023-12-27T16:16:44Z</time>
      </trkpt>
      <trkpt lat="49.90644" lon="2.31797">
        <ele>45.2</ele>
        <time>2023-12-27T16:16:45Z</time>
      </trkpt>
      <trkpt lat="49.90634" lon="2.31789">
        <ele>44.8</ele>
        <time>2023-12-27T16:16:46Z</time>
      </trkpt>
      <trkpt lat="49.90623" lon="2.31781">
        <ele>44.5</ele>
        <time>2023-12-27T16:16:47Z</time>
      </trkpt>
      <trkpt lat="49.90612" lon="2.31772">
        <ele>44.1</ele>
        <time>2023-12-27T16:16:48Z</time>
      </trkpt>
      <trkpt lat="49.906" lon="2.31763">
        <ele>43.8</ele>
        <time>2023-12-27T16:16:49Z</time>
      </trkpt>
      <trkpt lat="49.90587" lon="2.31754">
        <ele>43.6</ele>
        <time>2023-12-27T16:16:50Z</time>
      </trkpt>
      <trkpt lat="49.90575" lon="2.31745">
        <ele>43.3</ele>
        <time>2023-12-27T16:16:51Z</time>
      </trkpt>
      <trkpt lat="49.90563" lon="2.31736">
        <ele>43.1</ele>
        <time>2023-12-27T16:16:52Z</time>
      </trkpt>
      <trkpt lat="49.90552" lon="2.31727">
        <ele>42.9</ele>
        <time>2023-12-27T16:16:53Z</time>
      </trkpt>
      <trkpt lat="49.9054" lon="2.31719">
        <ele>42.7</ele>
        <time>2023-12-27T16:16:54Z</time>
      </trkpt>
      <trkpt lat="49.90529" lon="2.3171">
        <ele>42.4</ele>
        <time>2023-12-27T16:16:55Z</time>
      </trkpt>
      <trkpt lat="49.90517" lon="2.31702">
        <ele>42.2</ele>
        <time>2023-12-27T16:16:56Z</time>
      </trkpt>
      <trkpt lat="49.90506" lon="2.31694">
        <ele>42</ele>
        <time>2023-12-27T16:16:57Z</time>
      </trkpt>
      <trkpt lat="49.90496" lon="2.31686">
        <ele>41.9</ele>
        <time>2023-12-27T16:16:58Z</time>
      </trkpt>
      <trkpt lat="49.90485" lon="2.31678">
        <ele>41.8</ele>
        <time>2023-12-27T16:16:59Z</time>
      </trkpt>
      <trkpt lat="49.90475" lon="2.3167">
        <ele>41.6</ele>
        <time>2023-12-27T16:17:00Z</time>
      </trkpt>
      <trkpt lat="49.90465" lon="2.31663">
        <ele>41.5</ele>
        <time>2023-12-27T16:17:01Z</time>
      </trkpt>
      <trkpt lat="49.90456" lon="2.31656">
        <ele>41.4</ele>
        <time>2023-12-27T16:17:02Z</time>
      </trkpt>
      <trkpt lat="49.90446" lon="2.31649">
        <ele>41.2</ele>
        <time>2023-12-27T16:17:03Z</time>
      </trkpt>
      <trkpt lat="49.90437" lon="2.31642">
        <ele>41.2</ele>
        <time>2023-12-27T16:17:04Z</time>
      </trkpt>
      <trkpt lat="49.90427" lon="2.31634">
        <ele>41.1</ele>
        <time>2023-12-27T16:17:05Z</time>
      </trkpt>
      <trkpt lat="49.90416" lon="2.31626">
        <ele>41.1</ele>
        <time>2023-12-27T16:17:06Z</time>
      </trkpt>
      <trkpt lat="49.90406" lon="2.31619">
        <ele>41</ele>
        <time>2023-12-27T16:17:07Z</time>
      </trkpt>
      <trkpt lat="49.90396" lon="2.31612">
        <ele>41</ele>
        <time>2023-12-27T16:17:08Z</time>
      </trkpt>
      <trkpt lat="49.90386" lon="2.31604">
        <ele>41</ele>
        <time>2023-12-27T16:17:09Z</time>
      </trkpt>
      <trkpt lat="49.90377" lon="2.31597">
        <ele>40.9</ele>
        <time>2023-12-27T16:17:10Z</time>
      </trkpt>
      <trkpt lat="49.90369" lon="2.31591">
        <ele>40.8</ele>
        <time>2023-12-27T16:17:11Z</time>
      </trkpt>
      <trkpt lat="49.90362" lon="2.31586">
        <ele>40.9</ele>
        <time>2023-12-27T16:17:12Z</time>
      </trkpt>
      <trkpt lat="49.90356" lon="2.31581">
        <ele>41</ele>
        <time>2023-12-27T16:17:13Z</time>
      </trkpt>
      <trkpt lat="49.90351" lon="2.31577">
        <ele>41</ele>
        <time>2023-12-27T16:17:14Z</time>
      </trkpt>
      <trkpt lat="49.90348" lon="2.31574">
        <ele>41.1</ele>
        <time>2023-12-27T16:17:15Z</time>
      </trkpt>
      <trkpt lat="49.90345" lon="2.31572">
        <ele>41.1</ele>
        <time>2023-12-27T16:17:16Z</time>
      </trkpt>
      <trkpt lat="49.90344" lon="2.31571">
        <ele>41.1</ele>
        <time>2023-12-27T16:17:17Z</time>
      </trkpt>
      <trkpt lat="49.90343" lon="2.3157">
        <ele>41.1</ele>
        <time>2023-12-27T16:17:18Z</time>
      </trkpt>
      <trkpt lat="49.90343" lon="2.31571">
        <ele>41.1</ele>
        <time>2023-12-27T16:17:19Z</time>
      </trkpt>
      <trkpt lat="49.90344" lon="2.31571">
        <ele>41.1</ele>
        <time>2023-12-27T16:17:20Z</time>
      </trkpt>
      <trkpt lat="49.90344" lon="2.31571">
        <ele>41.2</ele>
        <time>2023-12-27T16:17:21Z</time>
      </trkpt>
      <trkpt lat="49.90344" lon="2.31571">
        <ele>41.2</ele>
        <time>2023-12-27T16:17:22Z</time>
      </trkpt>
      <trkpt lat="49.90344" lon="2.31571">
        <ele>41.2</ele>
        <time>2023-12-27T16:17:23Z</time>
      </trkpt>
      <trkpt lat="49.90343" lon="2.3157">
        <ele>41.2</ele>
        <time>2023-12-27T16:17:24Z</time>
      </trkpt>
      <trkpt lat="49.90343" lon="2.31571">
        <ele>41.2</ele>
        <time>2023-12-27T16:17:25Z</time>
      </trkpt>
      <trkpt lat="49.90343" lon="2.31572">
        <ele>41.2</ele>
        <time>2023-12-27T16:17:26Z</time>
      </trkpt>
      <trkpt lat="49.90341" lon="2.3157">
        <ele>41.2</ele>
        <time>2023-12-27T16:17:27Z</time>
      </trkpt>
      <trkpt lat="49.90341" lon="2.31569">
        <ele>41.2</ele>
        <time>2023-12-27T16:17:28Z</time>
      </trkpt>
      <trkpt lat="49.90339" lon="2.31569">
        <ele>41.2</ele>
        <time>2023-12-27T16:17:41Z</time>
      </trkpt>
      <trkpt lat="49.9034" lon="2.3157">
        <ele>41.2</ele>
        <time>2023-12-27T16:17:42Z</time>
      </trkpt>
      <trkpt lat="49.90341" lon="2.31571">
        <ele>41.3</ele>
        <time>2023-12-27T16:17:43Z</time>
      </trkpt>
      <trkpt lat="49.90342" lon="2.31572">
        <ele>41.3</ele>
        <time>2023-12-27T16:17:44Z</time>
      </trkpt>
      <trkpt lat="49.90342" lon="2.31573">
        <ele>41.3</ele>
        <time>2023-12-27T16:17:45Z</time>
      </trkpt>
      <trkpt lat="49.90343" lon="2.31574">
        <ele>41.3</ele>
        <time>2023-12-27T16:17:46Z</time>
      </trkpt>
      <trkpt lat="49.90344" lon="2.31574">
        <ele>41.3</ele>
        <time>2023-12-27T16:17:47Z</time>
      </trkpt>
      <trkpt lat="49.90344" lon="2.31575">
        <ele>41.3</ele>
        <time>2023-12-27T16:17:48Z</time>
      </trkpt>
      <trkpt lat="49.90344" lon="2.31575">
        <ele>41.3</ele>
        <time>2023-12-27T16:17:49Z</time>
      </trkpt>
      <trkpt lat="49.90343" lon="2.31574">
        <ele>41.3</ele>
        <time>2023-12-27T16:17:50Z</time>
      </trkpt>
      <trkpt lat="49.90343" lon="2.31574">
        <ele>41.3</ele>
        <time>2023-12-27T16:17:51Z</time>
      </trkpt>
      <trkpt lat="49.90342" lon="2.31573">
        <ele>41.3</ele>
        <time>2023-12-27T16:17:52Z</time>
      </trkpt>
      <trkpt lat="49.90341" lon="2.31573">
        <ele>41.3</ele>
        <time>2023-12-27T16:17:53Z</time>
      </trkpt>
      <trkpt lat="49.90341" lon="2.31572">
        <ele>41.3</ele>
        <time>2023-12-27T16:17:54Z</time>
      </trkpt>
      <trkpt lat="49.9034" lon="2.31571">
        <ele>41.3</ele>
        <time>2023-12-27T16:17:55Z</time>
      </trkpt>
      <trkpt lat="49.9034" lon="2.31571">
        <ele>41.3</ele>
        <time>2023-12-27T16:17:56Z</time>
      </trkpt>
      <trkpt lat="49.90339" lon="2.3157">
        <ele>41.4</ele>
        <time>2023-12-27T16:17:57Z</time>
      </trkpt>
      <trkpt lat="49.90339" lon="2.3157">
        <ele>41.4</ele>
        <time>2023-12-27T16:17:58Z</time>
      </trkpt>
      <trkpt lat="49.90338" lon="2.31569">
        <ele>41.4</ele>
        <time>2023-12-27T16:17:59Z</time>
      </trkpt>
      <trkpt lat="49.90337" lon="2.31569">
        <ele>41.4</ele>
        <time>2023-12-27T16:18:08Z</time>
      </trkpt>
      <trkpt lat="49.90337" lon="2.31568">
        <ele>41.4</ele>
        <time>2023-12-27T16:18:09Z</time>
      </trkpt>
      <trkpt lat="49.90333" lon="2.31564">
        <ele>41.4</ele>
        <time>2023-12-27T16:18:10Z</time>
      </trkpt>
      <trkpt lat="49.90328" lon="2.3156">
        <ele>41.3</ele>
        <time>2023-12-27T16:18:11Z</time>
      </trkpt>
      <trkpt lat="49.90322" lon="2.31555">
        <ele>41.3</ele>
        <time>2023-12-27T16:18:12Z</time>
      </trkpt>
      <trkpt lat="49.90317" lon="2.3155">
        <ele>41.2</ele>
        <time>2023-12-27T16:18:13Z</time>
      </trkpt>
      <trkpt lat="49.9031" lon="2.31544">
        <ele>41.1</ele>
        <time>2023-12-27T16:18:14Z</time>
      </trkpt>
      <trkpt lat="49.90303" lon="2.31538">
        <ele>41</ele>
        <time>2023-12-27T16:18:15Z</time>
      </trkpt>
      <trkpt lat="49.90294" lon="2.31531">
        <ele>41</ele>
        <time>2023-12-27T16:18:16Z</time>
      </trkpt>
      <trkpt lat="49.90285" lon="2.31524">
        <ele>40.9</ele>
        <time>2023-12-27T16:18:17Z</time>
      </trkpt>
      <trkpt lat="49.90277" lon="2.31517">
        <ele>40.8</ele>
        <time>2023-12-27T16:18:18Z</time>
      </trkpt>
      <trkpt lat="49.90269" lon="2.31511">
        <ele>40.6</ele>
        <time>2023-12-27T16:18:19Z</time>
      </trkpt>
      <trkpt lat="49.9026" lon="2.31503">
        <ele>40.5</ele>
        <time>2023-12-27T16:18:20Z</time>
      </trkpt>
      <trkpt lat="49.9025" lon="2.31495">
        <ele>40.3</ele>
        <time>2023-12-27T16:18:21Z</time>
      </trkpt>
      <trkpt lat="49.90239" lon="2.31486">
        <ele>40.1</ele>
        <time>2023-12-27T16:18:22Z</time>
      </trkpt>
      <trkpt lat="49.90227" lon="2.31477">
        <ele>40</ele>
        <time>2023-12-27T16:18:23Z</time>
      </trkpt>
      <trkpt lat="49.90215" lon="2.31468">
        <ele>39.8</ele>
        <time>2023-12-27T16:18:24Z</time>
      </trkpt>
      <trkpt lat="49.90203" lon="2.31459">
        <ele>39.7</ele>
        <time>2023-12-27T16:18:25Z</time>
      </trkpt>
      <trkpt lat="49.90192" lon="2.31451">
        <ele>39.5</ele>
        <time>2023-12-27T16:18:26Z</time>
      </trkpt>
      <trkpt lat="49.9018" lon="2.31442">
        <ele>39.3</ele>
        <time>2023-12-27T16:18:27Z</time>
      </trkpt>
      <trkpt lat="49.90169" lon="2.31434">
        <ele>39.1</ele>
        <time>2023-12-27T16:18:28Z</time>
      </trkpt>
      <trkpt lat="49.90158" lon="2.31425">
        <ele>38.9</ele>
        <time>2023-12-27T16:18:29Z</time>
      </trkpt>
      <trkpt lat="49.90147" lon="2.31417">
        <ele>38.7</ele>
        <time>2023-12-27T16:18:30Z</time>
      </trkpt>
      <trkpt lat="49.90136" lon="2.31408">
        <ele>38.6</ele>
        <time>2023-12-27T16:18:31Z</time>
      </trkpt>
      <trkpt lat="49.90124" lon="2.314">
        <ele>38.4</ele>
        <time>2023-12-27T16:18:32Z</time>
      </trkpt>
      <trkpt lat="49.90113" lon="2.31391">
        <ele>38.2</ele>
        <time>2023-12-27T16:18:33Z</time>
      </trkpt>
      <trkpt lat="49.90102" lon="2.31383">
        <ele>38.1</ele>
        <time>2023-12-27T16:18:34Z</time>
      </trkpt>
      <trkpt lat="49.9009" lon="2.31375">
        <ele>37.9</ele>
        <time>2023-12-27T16:18:35Z</time>
      </trkpt>
      <trkpt lat="49.90079" lon="2.31366">
        <ele>37.6</ele>
        <time>2023-12-27T16:18:36Z</time>
      </trkpt>
      <trkpt lat="49.90068" lon="2.31358">
        <ele>37.4</ele>
        <time>2023-12-27T16:18:37Z</time>
      </trkpt>
      <trkpt lat="49.90056" lon="2.31349">
        <ele>37.2</ele>
        <time>2023-12-27T16:18:38Z</time>
      </trkpt>
      <trkpt lat="49.90045" lon="2.31341">
        <ele>36.9</ele>
        <time>2023-12-27T16:18:39Z</time>
      </trkpt>
      <trkpt lat="49.90034" lon="2.31332">
        <ele>36.7</ele>
        <time>2023-12-27T16:18:40Z</time>
      </trkpt>
      <trkpt lat="49.90022" lon="2.31324">
        <ele>36.5</ele>
        <time>2023-12-27T16:18:41Z</time>
      </trkpt>
      <trkpt lat="49.90011" lon="2.31317">
        <ele>36.4</ele>
        <time>2023-12-27T16:18:42Z</time>
      </trkpt>
      <trkpt lat="49.90001" lon="2.3131">
        <ele>36.2</ele>
        <time>2023-12-27T16:18:43Z</time>
      </trkpt>
      <trkpt lat="49.89991" lon="2.31303">
        <ele>36.1</ele>
        <time>2023-12-27T16:18:44Z</time>
      </trkpt>
      <trkpt lat="49.89983" lon="2.31297">
        <ele>36</ele>
        <time>2023-12-27T16:18:45Z</time>
      </trkpt>
      <trkpt lat="49.89974" lon="2.3129">
        <ele>35.8</ele>
        <time>2023-12-27T16:18:46Z</time>
      </trkpt>
      <trkpt lat="49.89966" lon="2.31285">
        <ele>35.7</ele>
        <time>2023-12-27T16:18:47Z</time>
      </trkpt>
      <trkpt lat="49.89959" lon="2.3128">
        <ele>35.6</ele>
        <time>2023-12-27T16:18:48Z</time>
      </trkpt>
      <trkpt lat="49.89954" lon="2.31277">
        <ele>35.5</ele>
        <time>2023-12-27T16:18:49Z</time>
      </trkpt>
      <trkpt lat="49.89951" lon="2.31275">
        <ele>35.5</ele>
        <time>2023-12-27T16:18:50Z</time>
      </trkpt>
      <trkpt lat="49.8995" lon="2.31275">
        <ele>35.4</ele>
        <time>2023-12-27T16:18:51Z</time>
      </trkpt>
      <trkpt lat="49.89949" lon="2.31274">
        <ele>35.4</ele>
        <time>2023-12-27T16:18:52Z</time>
      </trkpt>
      <trkpt lat="49.89948" lon="2.31274">
        <ele>35.4</ele>
        <time>2023-12-27T16:18:53Z</time>
      </trkpt>
      <trkpt lat="49.89948" lon="2.31273">
        <ele>35.4</ele>
        <time>2023-12-27T16:18:54Z</time>
      </trkpt>
      <trkpt lat="49.89947" lon="2.31273">
        <ele>35.4</ele>
        <time>2023-12-27T16:18:55Z</time>
      </trkpt>
      <trkpt lat="49.89946" lon="2.31272">
        <ele>35.4</ele>
        <time>2023-12-27T16:18:56Z</time>
      </trkpt>
      <trkpt lat="49.89946" lon="2.31272">
        <ele>35.4</ele>
        <time>2023-12-27T16:18:57Z</time>
      </trkpt>
      <trkpt lat="49.89945" lon="2.31271">
        <ele>35.4</ele>
        <time>2023-12-27T16:18:58Z</time>
      </trkpt>
      <trkpt lat="49.89944" lon="2.31271">
        <ele>35.4</ele>
        <time>2023-12-27T16:18:59Z</time>
      </trkpt>
      <trkpt lat="49.89944" lon="2.3127">
        <ele>35.4</ele>
        <time>2023-12-27T16:19:00Z</time>
      </trkpt>
      <trkpt lat="49.89943" lon="2.3127">
        <ele>35.3</ele>
        <time>2023-12-27T16:19:16Z</time>
      </trkpt>
      <trkpt lat="49.89942" lon="2.31269">
        <ele>35.3</ele>
        <time>2023-12-27T16:19:17Z</time>
      </trkpt>
      <trkpt lat="49.89937" lon="2.31266">
        <ele>35.2</ele>
        <time>2023-12-27T16:19:18Z</time>
      </trkpt>
      <trkpt lat="49.89931" lon="2.31261">
        <ele>35.1</ele>
        <time>2023-12-27T16:19:19Z</time>
      </trkpt>
      <trkpt lat="49.89925" lon="2.31257">
        <ele>35</ele>
        <time>2023-12-27T16:19:20Z</time>
      </trkpt>
      <trkpt lat="49.89919" lon="2.31252">
        <ele>34.9</ele>
        <time>2023-12-27T16:19:21Z</time>
      </trkpt>
      <trkpt lat="49.89912" lon="2.31248">
        <ele>34.8</ele>
        <time>2023-12-27T16:19:22Z</time>
      </trkpt>
      <trkpt lat="49.89905" lon="2.31243">
        <ele>34.7</ele>
        <time>2023-12-27T16:19:23Z</time>
      </trkpt>
      <trkpt lat="49.89898" lon="2.31237">
        <ele>34.6</ele>
        <time>2023-12-27T16:19:24Z</time>
      </trkpt>
      <trkpt lat="49.89891" lon="2.31232">
        <ele>34.5</ele>
        <time>2023-12-27T16:19:25Z</time>
      </trkpt>
      <trkpt lat="49.89883" lon="2.31226">
        <ele>34.4</ele>
        <time>2023-12-27T16:19:26Z</time>
      </trkpt>
      <trkpt lat="49.89875" lon="2.31221">
        <ele>34.3</ele>
        <time>2023-12-27T16:19:27Z</time>
      </trkpt>
      <trkpt lat="49.89868" lon="2.31215">
        <ele>34.2</ele>
        <time>2023-12-27T16:19:28Z</time>
      </trkpt>
      <trkpt lat="49.8986" lon="2.31209">
        <ele>34.1</ele>
        <time>2023-12-27T16:19:29Z</time>
      </trkpt>
      <trkpt lat="49.89851" lon="2.31204">
        <ele>34</ele>
        <time>2023-12-27T16:19:30Z</time>
      </trkpt>
      <trkpt lat="49.89843" lon="2.31198">
        <ele>33.8</ele>
        <time>2023-12-27T16:19:31Z</time>
      </trkpt>
      <trkpt lat="49.89835" lon="2.31192">
        <ele>33.6</ele>
        <time>2023-12-27T16:19:32Z</time>
      </trkpt>
      <trkpt lat="49.89826" lon="2.31186">
        <ele>33.5</ele>
        <time>2023-12-27T16:19:33Z</time>
      </trkpt>
      <trkpt lat="49.89817" lon="2.3118">
        <ele>33.3</ele>
        <time>2023-12-27T16:19:34Z</time>
      </trkpt>
      <trkpt lat="49.89809" lon="2.31175">
        <ele>33.2</ele>
        <time>2023-12-27T16:19:35Z</time>
      </trkpt>
      <trkpt lat="49.898" lon="2.31169">
        <ele>33</ele>
        <time>2023-12-27T16:19:36Z</time>
      </trkpt>
      <trkpt lat="49.89791" lon="2.31163">
        <ele>32.9</ele>
        <time>2023-12-27T16:19:37Z</time>
      </trkpt>
      <trkpt lat="49.89782" lon="2.31157">
        <ele>32.7</ele>
        <time>2023-12-27T16:19:38Z</time>
      </trkpt>
      <trkpt lat="49.89773" lon="2.31151">
        <ele>32.5</ele>
        <time>2023-12-27T16:19:39Z</time>
      </trkpt>
      <trkpt lat="49.89763" lon="2.31144">
        <ele>32.3</ele>
        <time>2023-12-27T16:19:40Z</time>
      </trkpt>
      <trkpt lat="49.89754" lon="2.31138">
        <ele>32.2</ele>
        <time>2023-12-27T16:19:41Z</time>
      </trkpt>
      <trkpt lat="49.89745" lon="2.31132">
        <ele>32</ele>
        <time>2023-12-27T16:19:42Z</time>
      </trkpt>
      <trkpt lat="49.89737" lon="2.31126">
        <ele>31.9</ele>
        <time>2023-12-27T16:19:43Z</time>
      </trkpt>
      <trkpt lat="49.8973" lon="2.3112">
        <ele>31.7</ele>
        <time>2023-12-27T16:19:44Z</time>
      </trkpt>
      <trkpt lat="49.89723" lon="2.31115">
        <ele>31.6</ele>
        <time>2023-12-27T16:19:45Z</time>
      </trkpt>
      <trkpt lat="49.89716" lon="2.3111">
        <ele>31.5</ele>
        <time>2023-12-27T16:19:46Z</time>
      </trkpt>
      <trkpt lat="49.89709" lon="2.31105">
        <ele>31.4</ele>
        <time>2023-12-27T16:19:47Z</time>
      </trkpt>
      <trkpt lat="49.89702" lon="2.311">
        <ele>31.3</ele>
        <time>2023-12-27T16:19:48Z</time>
      </trkpt>
      <trkpt lat="49.89695" lon="2.31095">
        <ele>31.2</ele>
        <time>2023-12-27T16:19:49Z</time>
      </trkpt>
      <trkpt lat="49.89687" lon="2.31089">
        <ele>31.2</ele>
        <time>2023-12-27T16:19:50Z</time>
      </trkpt>
      <trkpt lat="49.89679" lon="2.31083">
        <ele>31.2</ele>
        <time>2023-12-27T16:19:51Z</time>
      </trkpt>
      <trkpt lat="49.8967" lon="2.31077">
        <ele>31.1</ele>
        <time>2023-12-27T16:19:52Z</time>
      </trkpt>
      <trkpt lat="49.89662" lon="2.31071">
        <ele>31.1</ele>
        <time>2023-12-27T16:19:53Z</time>
      </trkpt>
      <trkpt lat="49.89653" lon="2.31065">
        <ele>31</ele>
        <time>2023-12-27T16:19:54Z</time>
      </trkpt>
      <trkpt lat="49.89645" lon="2.31059">
        <ele>30.9</ele>
        <time>2023-12-27T16:19:55Z</time>
      </trkpt>
      <trkpt lat="49.89637" lon="2.31053">
        <ele>30.8</ele>
        <time>2023-12-27T16:19:56Z</time>
      </trkpt>
      <trkpt lat="49.89629" lon="2.31047">
        <ele>30.7</ele>
        <time>2023-12-27T16:19:57Z</time>
      </trkpt>
      <trkpt lat="49.89621" lon="2.31042">
        <ele>30.5</ele>
        <time>2023-12-27T16:19:58Z</time>
      </trkpt>
      <trkpt lat="49.89614" lon="2.31037">
        <ele>30.5</ele>
        <time>2023-12-27T16:19:59Z</time>
      </trkpt>
      <trkpt lat="49.89607" lon="2.31032">
        <ele>30.4</ele>
        <time>2023-12-27T16:20:00Z</time>
      </trkpt>
      <trkpt lat="49.896" lon="2.31027">
        <ele>30.3</ele>
        <time>2023-12-27T16:20:01Z</time>
      </trkpt>
      <trkpt lat="49.89593" lon="2.31022">
        <ele>30.2</ele>
        <time>2023-12-27T16:20:02Z</time>
      </trkpt>
      <trkpt lat="49.89586" lon="2.31017">
        <ele>30.1</ele>
        <time>2023-12-27T16:20:03Z</time>
      </trkpt>
      <trkpt lat="49.8958" lon="2.31012">
        <ele>30.1</ele>
        <time>2023-12-27T16:20:04Z</time>
      </trkpt>
      <trkpt lat="49.89573" lon="2.31007">
        <ele>30</ele>
        <time>2023-12-27T16:20:05Z</time>
      </trkpt>
      <trkpt lat="49.89567" lon="2.31003">
        <ele>30</ele>
        <time>2023-12-27T16:20:06Z</time>
      </trkpt>
      <trkpt lat="49.89563" lon="2.30999">
        <ele>30</ele>
        <time>2023-12-27T16:20:07Z</time>
      </trkpt>
      <trkpt lat="49.8956" lon="2.30997">
        <ele>30</ele>
        <time>2023-12-27T16:20:08Z</time>
      </trkpt>
      <trkpt lat="49.89557" lon="2.30995">
        <ele>30</ele>
        <time>2023-12-27T16:20:09Z</time>
      </trkpt>
      <trkpt lat="49.89554" lon="2.30992">
        <ele>30</ele>
        <time>2023-12-27T16:20:10Z</time>
      </trkpt>
      <trkpt lat="49.89553" lon="2.30992">
        <ele>30</ele>
        <time>2023-12-27T16:20:11Z</time>
      </trkpt>
      <trkpt lat="49.8955" lon="2.3099">
        <ele>30</ele>
        <time>2023-12-27T16:20:12Z</time>
      </trkpt>
      <trkpt lat="49.89549" lon="2.30989">
        <ele>30</ele>
        <time>2023-12-27T16:20:13Z</time>
      </trkpt>
      <trkpt lat="49.89547" lon="2.30987">
        <ele>30</ele>
        <time>2023-12-27T16:20:14Z</time>
      </trkpt>
      <trkpt lat="49.89543" lon="2.30984">
        <ele>29.9</ele>
        <time>2023-12-27T16:20:15Z</time>
      </trkpt>
      <trkpt lat="49.89538" lon="2.30981">
        <ele>29.9</ele>
        <time>2023-12-27T16:20:16Z</time>
      </trkpt>
      <trkpt lat="49.89533" lon="2.30977">
        <ele>29.9</ele>
        <time>2023-12-27T16:20:17Z</time>
      </trkpt>
      <trkpt lat="49.89526" lon="2.30971">
        <ele>29.8</ele>
        <time>2023-12-27T16:20:18Z</time>
      </trkpt>
      <trkpt lat="49.89519" lon="2.30966">
        <ele>29.8</ele>
        <time>2023-12-27T16:20:19Z</time>
      </trkpt>
      <trkpt lat="49.89512" lon="2.30961">
        <ele>29.7</ele>
        <time>2023-12-27T16:20:20Z</time>
      </trkpt>
      <trkpt lat="49.89506" lon="2.30957">
        <ele>29.7</ele>
        <time>2023-12-27T16:20:21Z</time>
      </trkpt>
      <trkpt lat="49.89501" lon="2.30953">
        <ele>29.6</ele>
        <time>2023-12-27T16:20:22Z</time>
      </trkpt>
      <trkpt lat="49.89498" lon="2.30951">
        <ele>29.5</ele>
        <time>2023-12-27T16:20:23Z</time>
      </trkpt>
      <trkpt lat="49.89496" lon="2.30949">
        <ele>29.5</ele>
        <time>2023-12-27T16:20:24Z</time>
      </trkpt>
      <trkpt lat="49.89496" lon="2.30949">
        <ele>29.5</ele>
        <time>2023-12-27T16:20:25Z</time>
      </trkpt>
      <trkpt lat="49.89495" lon="2.30949">
        <ele>29.5</ele>
        <time>2023-12-27T16:20:26Z</time>
      </trkpt>
      <trkpt lat="49.89495" lon="2.30948">
        <ele>29.4</ele>
        <time>2023-12-27T16:20:27Z</time>
      </trkpt>
      <trkpt lat="49.89494" lon="2.30948">
        <ele>29.4</ele>
        <time>2023-12-27T16:20:28Z</time>
      </trkpt>
      <trkpt lat="49.89494" lon="2.30947">
        <ele>29.4</ele>
        <time>2023-12-27T16:20:29Z</time>
      </trkpt>
      <trkpt lat="49.89493" lon="2.30947">
        <ele>29.4</ele>
        <time>2023-12-27T16:20:30Z</time>
      </trkpt>
      <trkpt lat="49.89493" lon="2.30947">
        <ele>29.4</ele>
        <time>2023-12-27T16:20:31Z</time>
      </trkpt>
      <trkpt lat="49.89492" lon="2.30946">
        <ele>29.4</ele>
        <time>2023-12-27T16:20:32Z</time>
      </trkpt>
      <trkpt lat="49.89492" lon="2.30946">
        <ele>29.4</ele>
        <time>2023-12-27T16:20:33Z</time>
      </trkpt>
      <trkpt lat="49.89491" lon="2.30945">
        <ele>29.3</ele>
        <time>2023-12-27T16:20:34Z</time>
      </trkpt>
      <trkpt lat="49.89491" lon="2.30945">
        <ele>29.3</ele>
        <time>2023-12-27T16:20:35Z</time>
      </trkpt>
      <trkpt lat="49.8949" lon="2.30944">
        <ele>29.3</ele>
        <time>2023-12-27T16:21:54Z</time>
      </trkpt>
      <trkpt lat="49.8949" lon="2.30944">
        <ele>29.3</ele>
        <time>2023-12-27T16:21:55Z</time>
      </trkpt>
      <trkpt lat="49.89486" lon="2.30941">
        <ele>29.2</ele>
        <time>2023-12-27T16:21:56Z</time>
      </trkpt>
      <trkpt lat="49.89481" lon="2.30938">
        <ele>29</ele>
        <time>2023-12-27T16:21:57Z</time>
      </trkpt>
      <trkpt lat="49.89477" lon="2.30935">
        <ele>28.8</ele>
        <time>2023-12-27T16:21:58Z</time>
      </trkpt>
      <trkpt lat="49.89472" lon="2.30931">
        <ele>28.6</ele>
        <time>2023-12-27T16:21:59Z</time>
      </trkpt>
      <trkpt lat="49.89466" lon="2.30926">
        <ele>28.4</ele>
        <time>2023-12-27T16:22:00Z</time>
      </trkpt>
      <trkpt lat="49.89459" lon="2.3092">
        <ele>28.2</ele>
        <time>2023-12-27T16:22:01Z</time>
      </trkpt>
      <trkpt lat="49.89452" lon="2.30915">
        <ele>28.2</ele>
        <time>2023-12-27T16:22:02Z</time>
      </trkpt>
      <trkpt lat="49.89444" lon="2.30909">
        <ele>28.4</ele>
        <time>2023-12-27T16:22:03Z</time>
      </trkpt>
      <trkpt lat="49.89437" lon="2.30904">
        <ele>28.4</ele>
        <time>2023-12-27T16:22:04Z</time>
      </trkpt>
      <trkpt lat="49.89429" lon="2.30898">
        <ele>28.4</ele>
        <time>2023-12-27T16:22:05Z</time>
      </trkpt>
      <trkpt lat="49.8942" lon="2.30894">
        <ele>28.5</ele>
        <time>2023-12-27T16:22:06Z</time>
      </trkpt>
      <trkpt lat="49.89412" lon="2.3089">
        <ele>28.6</ele>
        <time>2023-12-27T16:22:07Z</time>
      </trkpt>
      <trkpt lat="49.89402" lon="2.30885">
        <ele>28.8</ele>
        <time>2023-12-27T16:22:08Z</time>
      </trkpt>
      <trkpt lat="49.89394" lon="2.30879">
        <ele>28.9</ele>
        <time>2023-12-27T16:22:09Z</time>
      </trkpt>
      <trkpt lat="49.89385" lon="2.30873">
        <ele>29.1</ele>
        <time>2023-12-27T16:22:10Z</time>
      </trkpt>
      <trkpt lat="49.89376" lon="2.30867">
        <ele>29.3</ele>
        <time>2023-12-27T16:22:11Z</time>
      </trkpt>
      <trkpt lat="49.89367" lon="2.30861">
        <ele>29.6</ele>
        <time>2023-12-27T16:22:12Z</time>
      </trkpt>
      <trkpt lat="49.89357" lon="2.30855">
        <ele>29.9</ele>
        <time>2023-12-27T16:22:13Z</time>
      </trkpt>
      <trkpt lat="49.89347" lon="2.30848">
        <ele>30.2</ele>
        <time>2023-12-27T16:22:14Z</time>
      </trkpt>
      <trkpt lat="49.89337" lon="2.30842">
        <ele>30.5</ele>
        <time>2023-12-27T16:22:15Z</time>
      </trkpt>
      <trkpt lat="49.89328" lon="2.30836">
        <ele>30.7</ele>
        <time>2023-12-27T16:22:16Z</time>
      </trkpt>
      <trkpt lat="49.89318" lon="2.3083">
        <ele>31</ele>
        <time>2023-12-27T16:22:17Z</time>
      </trkpt>
      <trkpt lat="49.8931" lon="2.30824">
        <ele>31.2</ele>
        <time>2023-12-27T16:22:18Z</time>
      </trkpt>
      <trkpt lat="49.89302" lon="2.30818">
        <ele>31.4</ele>
        <time>2023-12-27T16:22:19Z</time>
      </trkpt>
      <trkpt lat="49.89294" lon="2.30812">
        <ele>31.6</ele>
        <time>2023-12-27T16:22:20Z</time>
      </trkpt>
      <trkpt lat="49.89286" lon="2.30805">
        <ele>31.9</ele>
        <time>2023-12-27T16:22:21Z</time>
      </trkpt>
      <trkpt lat="49.89278" lon="2.30799">
        <ele>32.1</ele>
        <time>2023-12-27T16:22:22Z</time>
      </trkpt>
      <trkpt lat="49.89271" lon="2.30792">
        <ele>32.3</ele>
        <time>2023-12-27T16:22:23Z</time>
      </trkpt>
      <trkpt lat="49.89264" lon="2.30786">
        <ele>32.5</ele>
        <time>2023-12-27T16:22:24Z</time>
      </trkpt>
      <trkpt lat="49.89257" lon="2.30781">
        <ele>32.6</ele>
        <time>2023-12-27T16:22:25Z</time>
      </trkpt>
      <trkpt lat="49.89252" lon="2.30776">
        <ele>32.8</ele>
        <time>2023-12-27T16:22:26Z</time>
      </trkpt>
      <trkpt lat="49.89247" lon="2.30772">
        <ele>32.9</ele>
        <time>2023-12-27T16:22:27Z</time>
      </trkpt>
      <trkpt lat="49.89242" lon="2.30768">
        <ele>32.9</ele>
        <time>2023-12-27T16:22:28Z</time>
      </trkpt>
      <trkpt lat="49.89236" lon="2.30762">
        <ele>32.9</ele>
        <time>2023-12-27T16:22:29Z</time>
      </trkpt>
      <trkpt lat="49.8923" lon="2.30756">
        <ele>33.1</ele>
        <time>2023-12-27T16:22:30Z</time>
      </trkpt>
      <trkpt lat="49.89222" lon="2.30749">
        <ele>33.2</ele>
        <time>2023-12-27T16:22:31Z</time>
      </trkpt>
      <trkpt lat="49.89214" lon="2.30743">
        <ele>33.3</ele>
        <time>2023-12-27T16:22:32Z</time>
      </trkpt>
      <trkpt lat="49.89205" lon="2.30736">
        <ele>33.5</ele>
        <time>2023-12-27T16:22:33Z</time>
      </trkpt>
      <trkpt lat="49.89195" lon="2.30729">
        <ele>33.6</ele>
        <time>2023-12-27T16:22:34Z</time>
      </trkpt>
      <trkpt lat="49.89185" lon="2.30721">
        <ele>33.8</ele>
        <time>2023-12-27T16:22:35Z</time>
      </trkpt>
      <trkpt lat="49.89175" lon="2.30713">
        <ele>34</ele>
        <time>2023-12-27T16:22:36Z</time>
      </trkpt>
      <trkpt lat="49.89166" lon="2.30706">
        <ele>34.2</ele>
        <time>2023-12-27T16:22:37Z</time>
      </trkpt>
      <trkpt lat="49.89157" lon="2.307">
        <ele>34.5</ele>
        <time>2023-12-27T16:22:38Z</time>
      </trkpt>
      <trkpt lat="49.89147" lon="2.30692">
        <ele>34.8</ele>
        <time>2023-12-27T16:22:39Z</time>
      </trkpt>
      <trkpt lat="49.89138" lon="2.30686">
        <ele>35</ele>
        <time>2023-12-27T16:22:40Z</time>
      </trkpt>
      <trkpt lat="49.89129" lon="2.30679">
        <ele>35.3</ele>
        <time>2023-12-27T16:22:41Z</time>
      </trkpt>
      <trkpt lat="49.8912" lon="2.30672">
        <ele>35.6</ele>
        <time>2023-12-27T16:22:42Z</time>
      </trkpt>
      <trkpt lat="49.8911" lon="2.30665">
        <ele>35.9</ele>
        <time>2023-12-27T16:22:43Z</time>
      </trkpt>
      <trkpt lat="49.89102" lon="2.30659">
        <ele>36.2</ele>
        <time>2023-12-27T16:22:44Z</time>
      </trkpt>
      <trkpt lat="49.89094" lon="2.30654">
        <ele>36.5</ele>
        <time>2023-12-27T16:22:45Z</time>
      </trkpt>
      <trkpt lat="49.89087" lon="2.30649">
        <ele>36.7</ele>
        <time>2023-12-27T16:22:46Z</time>
      </trkpt>
      <trkpt lat="49.89081" lon="2.30645">
        <ele>36.9</ele>
        <time>2023-12-27T16:22:47Z</time>
      </trkpt>
      <trkpt lat="49.89075" lon="2.30641">
        <ele>36.9</ele>
        <time>2023-12-27T16:22:48Z</time>
      </trkpt>
      <trkpt lat="49.8907" lon="2.30638">
        <ele>36.9</ele>
        <time>2023-12-27T16:22:49Z</time>
      </trkpt>
      <trkpt lat="49.89065" lon="2.30635">
        <ele>36.9</ele>
        <time>2023-12-27T16:22:50Z</time>
      </trkpt>
      <trkpt lat="49.8906" lon="2.30632">
        <ele>37.1</ele>
        <time>2023-12-27T16:22:51Z</time>
      </trkpt>
      <trkpt lat="49.89055" lon="2.30629">
        <ele>37.3</ele>
        <time>2023-12-27T16:22:52Z</time>
      </trkpt>
      <trkpt lat="49.89049" lon="2.30625">
        <ele>37.5</ele>
        <time>2023-12-27T16:22:53Z</time>
      </trkpt>
      <trkpt lat="49.89043" lon="2.30621">
        <ele>37.5</ele>
        <time>2023-12-27T16:22:54Z</time>
      </trkpt>
      <trkpt lat="49.89036" lon="2.30617">
        <ele>37.6</ele>
        <time>2023-12-27T16:22:55Z</time>
      </trkpt>
      <trkpt lat="49.89028" lon="2.30612">
        <ele>37.6</ele>
        <time>2023-12-27T16:22:56Z</time>
      </trkpt>
      <trkpt lat="49.89021" lon="2.30607">
        <ele>37.7</ele>
        <time>2023-12-27T16:22:57Z</time>
      </trkpt>
      <trkpt lat="49.89015" lon="2.30602">
        <ele>37.9</ele>
        <time>2023-12-27T16:22:58Z</time>
      </trkpt>
      <trkpt lat="49.89008" lon="2.30598">
        <ele>38</ele>
        <time>2023-12-27T16:22:59Z</time>
      </trkpt>
      <trkpt lat="49.89003" lon="2.30594">
        <ele>38.1</ele>
        <time>2023-12-27T16:23:00Z</time>
      </trkpt>
      <trkpt lat="49.88999" lon="2.30591">
        <ele>38.3</ele>
        <time>2023-12-27T16:23:01Z</time>
      </trkpt>
      <trkpt lat="49.88995" lon="2.30588">
        <ele>38.4</ele>
        <time>2023-12-27T16:23:02Z</time>
      </trkpt>
      <trkpt lat="49.88992" lon="2.30587">
        <ele>38.5</ele>
        <time>2023-12-27T16:23:03Z</time>
      </trkpt>
      <trkpt lat="49.8899" lon="2.30585">
        <ele>38.6</ele>
        <time>2023-12-27T16:23:04Z</time>
      </trkpt>
      <trkpt lat="49.88989" lon="2.30585">
        <ele>38.6</ele>
        <time>2023-12-27T16:23:05Z</time>
      </trkpt>
      <trkpt lat="49.88988" lon="2.30584">
        <ele>38.6</ele>
        <time>2023-12-27T16:23:06Z</time>
      </trkpt>
      <trkpt lat="49.88987" lon="2.30583">
        <ele>38.7</ele>
        <time>2023-12-27T16:23:07Z</time>
      </trkpt>
      <trkpt lat="49.88985" lon="2.30583">
        <ele>38.7</ele>
        <time>2023-12-27T16:23:08Z</time>
      </trkpt>
      <trkpt lat="49.88984" lon="2.30582">
        <ele>38.8</ele>
        <time>2023-12-27T16:23:09Z</time>
      </trkpt>
      <trkpt lat="49.88983" lon="2.30581">
        <ele>38.8</ele>
        <time>2023-12-27T16:23:10Z</time>
      </trkpt>
      <trkpt lat="49.8898" lon="2.30579">
        <ele>38.9</ele>
        <time>2023-12-27T16:23:11Z</time>
      </trkpt>
      <trkpt lat="49.88978" lon="2.30579">
        <ele>39</ele>
        <time>2023-12-27T16:23:12Z</time>
      </trkpt>
      <trkpt lat="49.88976" lon="2.30577">
        <ele>39.1</ele>
        <time>2023-12-27T16:23:13Z</time>
      </trkpt>
      <trkpt lat="49.88975" lon="2.30576">
        <ele>39.1</ele>
        <time>2023-12-27T16:23:14Z</time>
      </trkpt>
      <trkpt lat="49.88971" lon="2.30574">
        <ele>39.2</ele>
        <time>2023-12-27T16:23:15Z</time>
      </trkpt>
      <trkpt lat="49.8897" lon="2.30574">
        <ele>39.3</ele>
        <time>2023-12-27T16:23:16Z</time>
      </trkpt>
      <trkpt lat="49.88967" lon="2.30572">
        <ele>39.4</ele>
        <time>2023-12-27T16:23:17Z</time>
      </trkpt>
      <trkpt lat="49.88966" lon="2.30571">
        <ele>39.4</ele>
        <time>2023-12-27T16:23:18Z</time>
      </trkpt>
      <trkpt lat="49.88963" lon="2.30569">
        <ele>39.5</ele>
        <time>2023-12-27T16:23:19Z</time>
      </trkpt>
      <trkpt lat="49.88962" lon="2.30569">
        <ele>39.6</ele>
        <time>2023-12-27T16:23:20Z</time>
      </trkpt>
      <trkpt lat="49.88959" lon="2.30567">
        <ele>39.7</ele>
        <time>2023-12-27T16:23:21Z</time>
      </trkpt>
      <trkpt lat="49.88956" lon="2.30565">
        <ele>39.8</ele>
        <time>2023-12-27T16:23:22Z</time>
      </trkpt>
      <trkpt lat="49.88952" lon="2.30562">
        <ele>39.9</ele>
        <time>2023-12-27T16:23:23Z</time>
      </trkpt>
      <trkpt lat="49.88948" lon="2.3056">
        <ele>40</ele>
        <time>2023-12-27T16:23:24Z</time>
      </trkpt>
      <trkpt lat="49.88944" lon="2.30557">
        <ele>40.1</ele>
        <time>2023-12-27T16:23:25Z</time>
      </trkpt>
      <trkpt lat="49.8894" lon="2.30554">
        <ele>40.3</ele>
        <time>2023-12-27T16:23:26Z</time>
      </trkpt>
      <trkpt lat="49.88936" lon="2.30553">
        <ele>40.4</ele>
        <time>2023-12-27T16:23:27Z</time>
      </trkpt>
      <trkpt lat="49.88933" lon="2.30552">
        <ele>40.5</ele>
        <time>2023-12-27T16:23:28Z</time>
      </trkpt>
      <trkpt lat="49.88929" lon="2.3055">
        <ele>40.7</ele>
        <time>2023-12-27T16:23:29Z</time>
      </trkpt>
      <trkpt lat="49.88928" lon="2.3055">
        <ele>40.8</ele>
        <time>2023-12-27T16:23:30Z</time>
      </trkpt>
      <trkpt lat="49.88925" lon="2.30549">
        <ele>41</ele>
        <time>2023-12-27T16:23:31Z</time>
      </trkpt>
      <trkpt lat="49.88925" lon="2.30548">
        <ele>41</ele>
        <time>2023-12-27T16:23:32Z</time>
      </trkpt>
      <trkpt lat="49.88924" lon="2.30548">
        <ele>41</ele>
        <time>2023-12-27T16:23:33Z</time>
      </trkpt>
      <trkpt lat="49.88925" lon="2.30549">
        <ele>41</ele>
        <time>2023-12-27T16:23:34Z</time>
      </trkpt>
      <trkpt lat="49.88926" lon="2.30549">
        <ele>41</ele>
        <time>2023-12-27T16:23:35Z</time>
      </trkpt>
      <trkpt lat="49.88925" lon="2.30549">
        <ele>41</ele>
        <time>2023-12-27T16:23:36Z</time>
      </trkpt>
      <trkpt lat="49.88925" lon="2.30549">
        <ele>41.1</ele>
        <time>2023-12-27T16:23:37Z</time>
      </trkpt>
      <trkpt lat="49.88924" lon="2.30549">
        <ele>41.1</ele>
        <time>2023-12-27T16:23:38Z</time>
      </trkpt>
      <trkpt lat="49.88921" lon="2.3055">
        <ele>41.1</ele>
        <time>2023-12-27T16:23:39Z</time>
      </trkpt>
      <trkpt lat="49.8892" lon="2.30553">
        <ele>41.1</ele>
        <time>2023-12-27T16:23:40Z</time>
      </trkpt>
      <trkpt lat="49.88919" lon="2.30558">
        <ele>41.2</ele>
        <time>2023-12-27T16:23:41Z</time>
      </trkpt>
      <trkpt lat="49.88918" lon="2.30562">
        <ele>41.1</ele>
        <time>2023-12-27T16:23:42Z</time>
      </trkpt>
      <trkpt lat="49.88917" lon="2.30566">
        <ele>41</ele>
        <time>2023-12-27T16:23:43Z</time>
      </trkpt>
      <trkpt lat="49.88916" lon="2.30572">
        <ele>40.9</ele>
        <time>2023-12-27T16:23:44Z</time>
      </trkpt>
      <trkpt lat="49.88914" lon="2.30579">
        <ele>40.7</ele>
        <time>2023-12-27T16:23:45Z</time>
      </trkpt>
      <trkpt lat="49.88912" lon="2.30587">
        <ele>40.6</ele>
        <time>2023-12-27T16:23:46Z</time>
      </trkpt>
      <trkpt lat="49.88911" lon="2.30598">
        <ele>40.3</ele>
        <time>2023-12-27T16:23:47Z</time>
      </trkpt>
      <trkpt lat="49.8891" lon="2.30609">
        <ele>40.1</ele>
        <time>2023-12-27T16:23:48Z</time>
      </trkpt>
      <trkpt lat="49.88911" lon="2.3062">
        <ele>39.8</ele>
        <time>2023-12-27T16:23:49Z</time>
      </trkpt>
      <trkpt lat="49.88913" lon="2.30632">
        <ele>39.6</ele>
        <time>2023-12-27T16:23:50Z</time>
      </trkpt>
      <trkpt lat="49.88915" lon="2.30642">
        <ele>39.3</ele>
        <time>2023-12-27T16:23:51Z</time>
      </trkpt>
      <trkpt lat="49.88918" lon="2.30653">
        <ele>39</ele>
        <time>2023-12-27T16:23:52Z</time>
      </trkpt>
      <trkpt lat="49.88921" lon="2.30662">
        <ele>38.8</ele>
        <time>2023-12-27T16:23:53Z</time>
      </trkpt>
      <trkpt lat="49.88924" lon="2.30671">
        <ele>38.6</ele>
        <time>2023-12-27T16:23:54Z</time>
      </trkpt>
      <trkpt lat="49.88927" lon="2.30678">
        <ele>38.6</ele>
        <time>2023-12-27T16:23:55Z</time>
      </trkpt>
      <trkpt lat="49.8893" lon="2.30686">
        <ele>38.5</ele>
        <time>2023-12-27T16:23:56Z</time>
      </trkpt>
      <trkpt lat="49.88933" lon="2.30695">
        <ele>38.4</ele>
        <time>2023-12-27T16:23:57Z</time>
      </trkpt>
      <trkpt lat="49.88935" lon="2.30703">
        <ele>38.4</ele>
        <time>2023-12-27T16:23:58Z</time>
      </trkpt>
      <trkpt lat="49.88933" lon="2.30708">
        <ele>38.4</ele>
        <time>2023-12-27T16:23:59Z</time>
      </trkpt>
      <trkpt lat="49.88931" lon="2.30711">
        <ele>38.4</ele>
        <time>2023-12-27T16:24:00Z</time>
      </trkpt>
      <trkpt lat="49.88929" lon="2.30714">
        <ele>38.4</ele>
        <time>2023-12-27T16:24:01Z</time>
      </trkpt>
      <trkpt lat="49.88925" lon="2.30714">
        <ele>38.5</ele>
        <time>2023-12-27T16:24:02Z</time>
      </trkpt>
      <trkpt lat="49.88922" lon="2.30714">
        <ele>38.5</ele>
        <time>2023-12-27T16:24:03Z</time>
      </trkpt>
      <trkpt lat="49.88919" lon="2.30713">
        <ele>38.6</ele>
        <time>2023-12-27T16:24:04Z</time>
      </trkpt>
      <trkpt lat="49.88915" lon="2.30712">
        <ele>38.7</ele>
        <time>2023-12-27T16:24:05Z</time>
      </trkpt>
      <trkpt lat="49.88909" lon="2.30711">
        <ele>38.8</ele>
        <time>2023-12-27T16:24:06Z</time>
      </trkpt>
      <trkpt lat="49.88903" lon="2.3071">
        <ele>38.9</ele>
        <time>2023-12-27T16:24:07Z</time>
      </trkpt>
      <trkpt lat="49.88895" lon="2.3071">
        <ele>39.1</ele>
        <time>2023-12-27T16:24:08Z</time>
      </trkpt>
      <trkpt lat="49.88888" lon="2.30709">
        <ele>39.3</ele>
        <time>2023-12-27T16:24:09Z</time>
      </trkpt>
      <trkpt lat="49.88882" lon="2.30709">
        <ele>39.5</ele>
        <time>2023-12-27T16:24:10Z</time>
      </trkpt>
      <trkpt lat="49.88875" lon="2.30708">
        <ele>39.7</ele>
        <time>2023-12-27T16:24:11Z</time>
      </trkpt>
      <trkpt lat="49.88868" lon="2.30707">
        <ele>39.9</ele>
        <time>2023-12-27T16:24:12Z</time>
      </trkpt>
      <trkpt lat="49.8886" lon="2.30707">
        <ele>40</ele>
        <time>2023-12-27T16:24:13Z</time>
      </trkpt>
      <trkpt lat="49.88853" lon="2.30706">
        <ele>40.3</ele>
        <time>2023-12-27T16:24:14Z</time>
      </trkpt>
      <trkpt lat="49.88846" lon="2.30706">
        <ele>40.7</ele>
        <time>2023-12-27T16:24:15Z</time>
      </trkpt>
      <trkpt lat="49.88838" lon="2.30705">
        <ele>41.2</ele>
        <time>2023-12-27T16:24:16Z</time>
      </trkpt>
      <trkpt lat="49.8883" lon="2.30705">
        <ele>41.7</ele>
        <time>2023-12-27T16:24:17Z</time>
      </trkpt>
      <trkpt lat="49.88823" lon="2.30704">
        <ele>42.2</ele>
        <time>2023-12-27T16:24:18Z</time>
      </trkpt>
      <trkpt lat="49.88816" lon="2.30704">
        <ele>42.7</ele>
        <time>2023-12-27T16:24:19Z</time>
      </trkpt>
      <trkpt lat="49.88809" lon="2.30703">
        <ele>43.1</ele>
        <time>2023-12-27T16:24:20Z</time>
      </trkpt>
      <trkpt lat="49.88802" lon="2.30703">
        <ele>43.4</ele>
        <time>2023-12-27T16:24:21Z</time>
      </trkpt>
      <trkpt lat="49.88795" lon="2.30702">
        <ele>43.8</ele>
        <time>2023-12-27T16:24:22Z</time>
      </trkpt>
      <trkpt lat="49.88787" lon="2.30702">
        <ele>44.1</ele>
        <time>2023-12-27T16:24:23Z</time>
      </trkpt>
      <trkpt lat="49.8878" lon="2.30702">
        <ele>44.5</ele>
        <time>2023-12-27T16:24:24Z</time>
      </trkpt>
      <trkpt lat="49.88772" lon="2.30702">
        <ele>44.8</ele>
        <time>2023-12-27T16:24:25Z</time>
      </trkpt>
      <trkpt lat="49.88765" lon="2.30702">
        <ele>45.1</ele>
        <time>2023-12-27T16:24:26Z</time>
      </trkpt>
      <trkpt lat="49.88759" lon="2.30702">
        <ele>45.4</ele>
        <time>2023-12-27T16:24:27Z</time>
      </trkpt>
      <trkpt lat="49.88755" lon="2.30702">
        <ele>45.5</ele>
        <time>2023-12-27T16:24:28Z</time>
      </trkpt>
      <trkpt lat="49.88752" lon="2.30702">
        <ele>45.7</ele>
        <time>2023-12-27T16:24:29Z</time>
      </trkpt>
      <trkpt lat="49.88751" lon="2.30702">
        <ele>45.7</ele>
        <time>2023-12-27T16:24:30Z</time>
      </trkpt>
      <trkpt lat="49.88748" lon="2.30702">
        <ele>45.8</ele>
        <time>2023-12-27T16:24:31Z</time>
      </trkpt>
      <trkpt lat="49.88747" lon="2.30702">
        <ele>45.9</ele>
        <time>2023-12-27T16:24:32Z</time>
      </trkpt>
      <trkpt lat="49.88745" lon="2.30703">
        <ele>45.9</ele>
        <time>2023-12-27T16:24:33Z</time>
      </trkpt>
      <trkpt lat="49.88743" lon="2.30703">
        <ele>46</ele>
        <time>2023-12-27T16:24:34Z</time>
      </trkpt>
      <trkpt lat="49.8874" lon="2.30703">
        <ele>46.1</ele>
        <time>2023-12-27T16:24:35Z</time>
      </trkpt>
      <trkpt lat="49.88738" lon="2.30703">
        <ele>46.2</ele>
        <time>2023-12-27T16:24:36Z</time>
      </trkpt>
      <trkpt lat="49.88734" lon="2.30703">
        <ele>46.3</ele>
        <time>2023-12-27T16:24:37Z</time>
      </trkpt>
      <trkpt lat="49.88729" lon="2.30704">
        <ele>46.4</ele>
        <time>2023-12-27T16:24:38Z</time>
      </trkpt>
      <trkpt lat="49.88725" lon="2.30704">
        <ele>46.6</ele>
        <time>2023-12-27T16:24:39Z</time>
      </trkpt>
      <trkpt lat="49.88719" lon="2.30705">
        <ele>46.8</ele>
        <time>2023-12-27T16:24:40Z</time>
      </trkpt>
      <trkpt lat="49.88713" lon="2.30706">
        <ele>47</ele>
        <time>2023-12-27T16:24:41Z</time>
      </trkpt>
      <trkpt lat="49.88706" lon="2.30706">
        <ele>47.2</ele>
        <time>2023-12-27T16:24:42Z</time>
      </trkpt>
      <trkpt lat="49.887" lon="2.30707">
        <ele>47.4</ele>
        <time>2023-12-27T16:24:43Z</time>
      </trkpt>
      <trkpt lat="49.88693" lon="2.30708">
        <ele>47.7</ele>
        <time>2023-12-27T16:24:44Z</time>
      </trkpt>
      <trkpt lat="49.88687" lon="2.30708">
        <ele>47.9</ele>
        <time>2023-12-27T16:24:45Z</time>
      </trkpt>
      <trkpt lat="49.8868" lon="2.30709">
        <ele>48.1</ele>
        <time>2023-12-27T16:24:46Z</time>
      </trkpt>
      <trkpt lat="49.88672" lon="2.3071">
        <ele>48.4</ele>
        <time>2023-12-27T16:24:47Z</time>
      </trkpt>
      <trkpt lat="49.88666" lon="2.3071">
        <ele>48.6</ele>
        <time>2023-12-27T16:24:48Z</time>
      </trkpt>
      <trkpt lat="49.88659" lon="2.30711">
        <ele>48.9</ele>
        <time>2023-12-27T16:24:49Z</time>
      </trkpt>
      <trkpt lat="49.88652" lon="2.30712">
        <ele>49.1</ele>
        <time>2023-12-27T16:24:50Z</time>
      </trkpt>
      <trkpt lat="49.88646" lon="2.30713">
        <ele>49.4</ele>
        <time>2023-12-27T16:24:51Z</time>
      </trkpt>
      <trkpt lat="49.8864" lon="2.30714">
        <ele>49.6</ele>
        <time>2023-12-27T16:24:52Z</time>
      </trkpt>
      <trkpt lat="49.88635" lon="2.30715">
        <ele>49.9</ele>
        <time>2023-12-27T16:24:53Z</time>
      </trkpt>
      <trkpt lat="49.88629" lon="2.30715">
        <ele>50.1</ele>
        <time>2023-12-27T16:24:54Z</time>
      </trkpt>
      <trkpt lat="49.88623" lon="2.30715">
        <ele>50.4</ele>
        <time>2023-12-27T16:24:55Z</time>
      </trkpt>
      <trkpt lat="49.88616" lon="2.30715">
        <ele>50.8</ele>
        <time>2023-12-27T16:24:56Z</time>
      </trkpt>
      <trkpt lat="49.8861" lon="2.30715">
        <ele>51.1</ele>
        <time>2023-12-27T16:24:57Z</time>
      </trkpt>
      <trkpt lat="49.88604" lon="2.30715">
        <ele>51.4</ele>
        <time>2023-12-27T16:24:58Z</time>
      </trkpt>
      <trkpt lat="49.88599" lon="2.30715">
        <ele>51.7</ele>
        <time>2023-12-27T16:24:59Z</time>
      </trkpt>
      <trkpt lat="49.88595" lon="2.30714">
        <ele>51.9</ele>
        <time>2023-12-27T16:25:00Z</time>
      </trkpt>
      <trkpt lat="49.88593" lon="2.30714">
        <ele>52</ele>
        <time>2023-12-27T16:25:01Z</time>
      </trkpt>
      <trkpt lat="49.88588" lon="2.30715">
        <ele>52.3</ele>
        <time>2023-12-27T16:25:02Z</time>
      </trkpt>
      <trkpt lat="49.88583" lon="2.30717">
        <ele>52.4</ele>
        <time>2023-12-27T16:25:03Z</time>
      </trkpt>
      <trkpt lat="49.88581" lon="2.3072">
        <ele>52.5</ele>
        <time>2023-12-27T16:25:04Z</time>
      </trkpt>
      <trkpt lat="49.8858" lon="2.30724">
        <ele>52.5</ele>
        <time>2023-12-27T16:25:05Z</time>
      </trkpt>
      <trkpt lat="49.8858" lon="2.30726">
        <ele>52.5</ele>
        <time>2023-12-27T16:25:06Z</time>
      </trkpt>
      <trkpt lat="49.88579" lon="2.30733">
        <ele>52.5</ele>
        <time>2023-12-27T16:25:07Z</time>
      </trkpt>
      <trkpt lat="49.88579" lon="2.30736">
        <ele>52.5</ele>
        <time>2023-12-27T16:25:08Z</time>
      </trkpt>
      <trkpt lat="49.88579" lon="2.30743">
        <ele>52.5</ele>
        <time>2023-12-27T16:25:09Z</time>
      </trkpt>
      <trkpt lat="49.88578" lon="2.30751">
        <ele>52.5</ele>
        <time>2023-12-27T16:25:10Z</time>
      </trkpt>
      <trkpt lat="49.88577" lon="2.3076">
        <ele>52.5</ele>
        <time>2023-12-27T16:25:11Z</time>
      </trkpt>
      <trkpt lat="49.88576" lon="2.3077">
        <ele>52.5</ele>
        <time>2023-12-27T16:25:12Z</time>
      </trkpt>
      <trkpt lat="49.88574" lon="2.30781">
        <ele>52.4</ele>
        <time>2023-12-27T16:25:13Z</time>
      </trkpt>
      <trkpt lat="49.88573" lon="2.30793">
        <ele>52.4</ele>
        <time>2023-12-27T16:25:14Z</time>
      </trkpt>
      <trkpt lat="49.88571" lon="2.30805">
        <ele>52.3</ele>
        <time>2023-12-27T16:25:15Z</time>
      </trkpt>
      <trkpt lat="49.8857" lon="2.30816">
        <ele>52.1</ele>
        <time>2023-12-27T16:25:16Z</time>
      </trkpt>
      <trkpt lat="49.88568" lon="2.30828">
        <ele>52</ele>
        <time>2023-12-27T16:25:17Z</time>
      </trkpt>
      <trkpt lat="49.88567" lon="2.30839">
        <ele>51.9</ele>
        <time>2023-12-27T16:25:18Z</time>
      </trkpt>
      <trkpt lat="49.88565" lon="2.3085">
        <ele>51.8</ele>
        <time>2023-12-27T16:25:19Z</time>
      </trkpt>
      <trkpt lat="49.88564" lon="2.30862">
        <ele>51.6</ele>
        <time>2023-12-27T16:25:20Z</time>
      </trkpt>
      <trkpt lat="49.88563" lon="2.30874">
        <ele>51.5</ele>
        <time>2023-12-27T16:25:21Z</time>
      </trkpt>
      <trkpt lat="49.88562" lon="2.30886">
        <ele>51.3</ele>
        <time>2023-12-27T16:25:22Z</time>
      </trkpt>
      <trkpt lat="49.8856" lon="2.30898">
        <ele>51.2</ele>
        <time>2023-12-27T16:25:23Z</time>
      </trkpt>
      <trkpt lat="49.88559" lon="2.3091">
        <ele>51</ele>
        <time>2023-12-27T16:25:24Z</time>
      </trkpt>
      <trkpt lat="49.88558" lon="2.30922">
        <ele>50.9</ele>
        <time>2023-12-27T16:25:25Z</time>
      </trkpt>
      <trkpt lat="49.88557" lon="2.30934">
        <ele>50.7</ele>
        <time>2023-12-27T16:25:26Z</time>
      </trkpt>
      <trkpt lat="49.88556" lon="2.30945">
        <ele>50.6</ele>
        <time>2023-12-27T16:25:27Z</time>
      </trkpt>
      <trkpt lat="49.88555" lon="2.30956">
        <ele>50.4</ele>
        <time>2023-12-27T16:25:28Z</time>
      </trkpt>
      <trkpt lat="49.88554" lon="2.30967">
        <ele>50.3</ele>
        <time>2023-12-27T16:25:29Z</time>
      </trkpt>
      <trkpt lat="49.88553" lon="2.30978">
        <ele>50.2</ele>
        <time>2023-12-27T16:25:30Z</time>
      </trkpt>
      <trkpt lat="49.88552" lon="2.3099">
        <ele>50.1</ele>
        <time>2023-12-27T16:25:31Z</time>
      </trkpt>
      <trkpt lat="49.88551" lon="2.31001">
        <ele>49.9</ele>
        <time>2023-12-27T16:25:32Z</time>
      </trkpt>
      <trkpt lat="49.88549" lon="2.31013">
        <ele>49.8</ele>
        <time>2023-12-27T16:25:33Z</time>
      </trkpt>
      <trkpt lat="49.88548" lon="2.31024">
        <ele>49.6</ele>
        <time>2023-12-27T16:25:34Z</time>
      </trkpt>
      <trkpt lat="49.88548" lon="2.31035">
        <ele>49.4</ele>
        <time>2023-12-27T16:25:35Z</time>
      </trkpt>
      <trkpt lat="49.88547" lon="2.31046">
        <ele>49.1</ele>
        <time>2023-12-27T16:25:36Z</time>
      </trkpt>
      <trkpt lat="49.88546" lon="2.31059">
        <ele>48.8</ele>
        <time>2023-12-27T16:25:37Z</time>
      </trkpt>
      <trkpt lat="49.88545" lon="2.3107">
        <ele>48.5</ele>
        <time>2023-12-27T16:25:38Z</time>
      </trkpt>
      <trkpt lat="49.88544" lon="2.31082">
        <ele>48.2</ele>
        <time>2023-12-27T16:25:39Z</time>
      </trkpt>
      <trkpt lat="49.88543" lon="2.31094">
        <ele>47.8</ele>
        <time>2023-12-27T16:25:40Z</time>
      </trkpt>
      <trkpt lat="49.88542" lon="2.31104">
        <ele>47.5</ele>
        <time>2023-12-27T16:25:41Z</time>
      </trkpt>
      <trkpt lat="49.88542" lon="2.31113">
        <ele>47.3</ele>
        <time>2023-12-27T16:25:42Z</time>
      </trkpt>
      <trkpt lat="49.88541" lon="2.31121">
        <ele>47</ele>
        <time>2023-12-27T16:25:43Z</time>
      </trkpt>
      <trkpt lat="49.8854" lon="2.31128">
        <ele>46.8</ele>
        <time>2023-12-27T16:25:44Z</time>
      </trkpt>
      <trkpt lat="49.8854" lon="2.31134">
        <ele>46.6</ele>
        <time>2023-12-27T16:25:45Z</time>
      </trkpt>
      <trkpt lat="49.88539" lon="2.31141">
        <ele>46.5</ele>
        <time>2023-12-27T16:25:46Z</time>
      </trkpt>
      <trkpt lat="49.88539" lon="2.31148">
        <ele>46.3</ele>
        <time>2023-12-27T16:25:47Z</time>
      </trkpt>
      <trkpt lat="49.88538" lon="2.31157">
        <ele>46.1</ele>
        <time>2023-12-27T16:25:48Z</time>
      </trkpt>
      <trkpt lat="49.88538" lon="2.31165">
        <ele>45.9</ele>
        <time>2023-12-27T16:25:49Z</time>
      </trkpt>
      <trkpt lat="49.88537" lon="2.31173">
        <ele>45.7</ele>
        <time>2023-12-27T16:25:50Z</time>
      </trkpt>
      <trkpt lat="49.88537" lon="2.31181">
        <ele>45.5</ele>
        <time>2023-12-27T16:25:51Z</time>
      </trkpt>
      <trkpt lat="49.88537" lon="2.31187">
        <ele>45.4</ele>
        <time>2023-12-27T16:25:52Z</time>
      </trkpt>
      <trkpt lat="49.88537" lon="2.31192">
        <ele>45.3</ele>
        <time>2023-12-27T16:25:53Z</time>
      </trkpt>
      <trkpt lat="49.88537" lon="2.31194">
        <ele>45.3</ele>
        <time>2023-12-27T16:25:54Z</time>
      </trkpt>
      <trkpt lat="49.88537" lon="2.31195">
        <ele>45.3</ele>
        <time>2023-12-27T16:25:55Z</time>
      </trkpt>
      <trkpt lat="49.88537" lon="2.31196">
        <ele>45.2</ele>
        <time>2023-12-27T16:25:56Z</time>
      </trkpt>
      <trkpt lat="49.88537" lon="2.31199">
        <ele>45.2</ele>
        <time>2023-12-27T16:25:57Z</time>
      </trkpt>
      <trkpt lat="49.88536" lon="2.31201">
        <ele>45.2</ele>
        <time>2023-12-27T16:25:58Z</time>
      </trkpt>
      <trkpt lat="49.88536" lon="2.31203">
        <ele>45.1</ele>
        <time>2023-12-27T16:25:59Z</time>
      </trkpt>
      <trkpt lat="49.88536" lon="2.31205">
        <ele>45.1</ele>
        <time>2023-12-27T16:26:00Z</time>
      </trkpt>
      <trkpt lat="49.88536" lon="2.31206">
        <ele>45.1</ele>
        <time>2023-12-27T16:26:01Z</time>
      </trkpt>
      <trkpt lat="49.88536" lon="2.31207">
        <ele>45.1</ele>
        <time>2023-12-27T16:26:02Z</time>
      </trkpt>
      <trkpt lat="49.88536" lon="2.31208">
        <ele>45</ele>
        <time>2023-12-27T16:26:03Z</time>
      </trkpt>
      <trkpt lat="49.88537" lon="2.31209">
        <ele>45</ele>
        <time>2023-12-27T16:26:04Z</time>
      </trkpt>
      <trkpt lat="49.88537" lon="2.31209">
        <ele>45</ele>
        <time>2023-12-27T16:26:05Z</time>
      </trkpt>
      <trkpt lat="49.88537" lon="2.31208">
        <ele>45</ele>
        <time>2023-12-27T16:26:06Z</time>
      </trkpt>
      <trkpt lat="49.88537" lon="2.31209">
        <ele>45</ele>
        <time>2023-12-27T16:26:07Z</time>
      </trkpt>
      <trkpt lat="49.88538" lon="2.31207">
        <ele>44.9</ele>
        <time>2023-12-27T16:26:08Z</time>
      </trkpt>
      <trkpt lat="49.88539" lon="2.31206">
        <ele>44.9</ele>
        <time>2023-12-27T16:26:09Z</time>
      </trkpt>
      <trkpt lat="49.8854" lon="2.31205">
        <ele>44.9</ele>
        <time>2023-12-27T16:26:10Z</time>
      </trkpt>
      <trkpt lat="49.8854" lon="2.31205">
        <ele>44.9</ele>
        <time>2023-12-27T16:26:11Z</time>
      </trkpt>
      <trkpt lat="49.88541" lon="2.31204">
        <ele>44.9</ele>
        <time>2023-12-27T16:26:12Z</time>
      </trkpt>
      <trkpt lat="49.88541" lon="2.31204">
        <ele>44.8</ele>
        <time>2023-12-27T16:26:13Z</time>
      </trkpt>
      <trkpt lat="49.88541" lon="2.31204">
        <ele>44.8</ele>
        <time>2023-12-27T16:26:14Z</time>
      </trkpt>
      <trkpt lat="49.88539" lon="2.31209">
        <ele>44.7</ele>
        <time>2023-12-27T16:26:57Z</time>
      </trkpt>
      <trkpt lat="49.88537" lon="2.31213">
        <ele>44.6</ele>
        <time>2023-12-27T16:26:58Z</time>
      </trkpt>
      <trkpt lat="49.88535" lon="2.31217">
        <ele>44.6</ele>
        <time>2023-12-27T16:26:59Z</time>
      </trkpt>
      <trkpt lat="49.88533" lon="2.3122">
        <ele>44.6</ele>
        <time>2023-12-27T16:27:00Z</time>
      </trkpt>
      <trkpt lat="49.8853" lon="2.31221">
        <ele>44.5</ele>
        <time>2023-12-27T16:27:01Z</time>
      </trkpt>
      <trkpt lat="49.88527" lon="2.31223">
        <ele>44.5</ele>
        <time>2023-12-27T16:27:02Z</time>
      </trkpt>
      <trkpt lat="49.88524" lon="2.31224">
        <ele>44.5</ele>
        <time>2023-12-27T16:27:03Z</time>
      </trkpt>
      <trkpt lat="49.88519" lon="2.31224">
        <ele>44.4</ele>
        <time>2023-12-27T16:27:04Z</time>
      </trkpt>
      <trkpt lat="49.88514" lon="2.31224">
        <ele>44.4</ele>
        <time>2023-12-27T16:27:05Z</time>
      </trkpt>
      <trkpt lat="49.88507" lon="2.31224">
        <ele>44.3</ele>
        <time>2023-12-27T16:27:06Z</time>
      </trkpt>
      <trkpt lat="49.885" lon="2.31224">
        <ele>44.3</ele>
        <time>2023-12-27T16:27:07Z</time>
      </trkpt>
      <trkpt lat="49.88492" lon="2.31224">
        <ele>44.2</ele>
        <time>2023-12-27T16:27:08Z</time>
      </trkpt>
      <trkpt lat="49.88485" lon="2.31223">
        <ele>44.2</ele>
        <time>2023-12-27T16:27:09Z</time>
      </trkpt>
      <trkpt lat="49.88477" lon="2.31223">
        <ele>44.1</ele>
        <time>2023-12-27T16:27:10Z</time>
      </trkpt>
      <trkpt lat="49.8847" lon="2.31222">
        <ele>44.1</ele>
        <time>2023-12-27T16:27:11Z</time>
      </trkpt>
      <trkpt lat="49.88463" lon="2.31221">
        <ele>44.1</ele>
        <time>2023-12-27T16:27:12Z</time>
      </trkpt>
      <trkpt lat="49.88456" lon="2.31221">
        <ele>44.1</ele>
        <time>2023-12-27T16:27:13Z</time>
      </trkpt>
      <trkpt lat="49.8845" lon="2.3122">
        <ele>44.1</ele>
        <time>2023-12-27T16:27:14Z</time>
      </trkpt>
      <trkpt lat="49.88445" lon="2.31219">
        <ele>44.1</ele>
        <time>2023-12-27T16:27:15Z</time>
      </trkpt>
      <trkpt lat="49.8844" lon="2.31219">
        <ele>44.1</ele>
        <time>2023-12-27T16:27:16Z</time>
      </trkpt>
      <trkpt lat="49.88435" lon="2.31217">
        <ele>44.1</ele>
        <time>2023-12-27T16:27:17Z</time>
      </trkpt>
      <trkpt lat="49.8843" lon="2.31215">
        <ele>44.2</ele>
        <time>2023-12-27T16:27:18Z</time>
      </trkpt>
      <trkpt lat="49.88424" lon="2.31213">
        <ele>44.2</ele>
        <time>2023-12-27T16:27:19Z</time>
      </trkpt>
      <trkpt lat="49.88418" lon="2.31211">
        <ele>44.2</ele>
        <time>2023-12-27T16:27:20Z</time>
      </trkpt>
      <trkpt lat="49.88412" lon="2.31209">
        <ele>44.3</ele>
        <time>2023-12-27T16:27:21Z</time>
      </trkpt>
      <trkpt lat="49.88404" lon="2.31207">
        <ele>44.4</ele>
        <time>2023-12-27T16:27:22Z</time>
      </trkpt>
      <trkpt lat="49.88396" lon="2.31204">
        <ele>44.6</ele>
        <time>2023-12-27T16:27:23Z</time>
      </trkpt>
      <trkpt lat="49.88388" lon="2.31202">
        <ele>44.8</ele>
        <time>2023-12-27T16:27:24Z</time>
      </trkpt>
      <trkpt lat="49.8838" lon="2.312">
        <ele>45</ele>
        <time>2023-12-27T16:27:25Z</time>
      </trkpt>
      <trkpt lat="49.88373" lon="2.31197">
        <ele>45.3</ele>
        <time>2023-12-27T16:27:26Z</time>
      </trkpt>
      <trkpt lat="49.88365" lon="2.31195">
        <ele>45.5</ele>
        <time>2023-12-27T16:27:27Z</time>
      </trkpt>
      <trkpt lat="49.88359" lon="2.31193">
        <ele>45.8</ele>
        <time>2023-12-27T16:27:28Z</time>
      </trkpt>
      <trkpt lat="49.88353" lon="2.31191">
        <ele>46</ele>
        <time>2023-12-27T16:27:29Z</time>
      </trkpt>
      <trkpt lat="49.88345" lon="2.3119">
        <ele>46.3</ele>
        <time>2023-12-27T16:27:30Z</time>
      </trkpt>
      <trkpt lat="49.88338" lon="2.3119">
        <ele>46.6</ele>
        <time>2023-12-27T16:27:31Z</time>
      </trkpt>
      <trkpt lat="49.88331" lon="2.31192">
        <ele>46.9</ele>
        <time>2023-12-27T16:27:32Z</time>
      </trkpt>
      <trkpt lat="49.88323" lon="2.31193">
        <ele>47.2</ele>
        <time>2023-12-27T16:27:33Z</time>
      </trkpt>
      <trkpt lat="49.88315" lon="2.31195">
        <ele>47.5</ele>
        <time>2023-12-27T16:27:34Z</time>
      </trkpt>
      <trkpt lat="49.88307" lon="2.31197">
        <ele>47.8</ele>
        <time>2023-12-27T16:27:35Z</time>
      </trkpt>
      <trkpt lat="49.88298" lon="2.31198">
        <ele>48.2</ele>
        <time>2023-12-27T16:27:36Z</time>
      </trkpt>
      <trkpt lat="49.88289" lon="2.312">
        <ele>48.7</ele>
        <time>2023-12-27T16:27:37Z</time>
      </trkpt>
      <trkpt lat="49.88281" lon="2.31202">
        <ele>49.1</ele>
        <time>2023-12-27T16:27:38Z</time>
      </trkpt>
      <trkpt lat="49.88274" lon="2.31205">
        <ele>49.5</ele>
        <time>2023-12-27T16:27:39Z</time>
      </trkpt>
      <trkpt lat="49.88267" lon="2.31207">
        <ele>49.8</ele>
        <time>2023-12-27T16:27:40Z</time>
      </trkpt>
      <trkpt lat="49.88259" lon="2.3121">
        <ele>50.2</ele>
        <time>2023-12-27T16:27:41Z</time>
      </trkpt>
      <trkpt lat="49.88251" lon="2.31212">
        <ele>50.6</ele>
        <time>2023-12-27T16:27:42Z</time>
      </trkpt>
      <trkpt lat="49.88243" lon="2.31215">
        <ele>51</ele>
        <time>2023-12-27T16:27:43Z</time>
      </trkpt>
      <trkpt lat="49.88234" lon="2.31218">
        <ele>51.5</ele>
        <time>2023-12-27T16:27:44Z</time>
      </trkpt>
      <trkpt lat="49.88225" lon="2.31221">
        <ele>51.8</ele>
        <time>2023-12-27T16:27:45Z</time>
      </trkpt>
      <trkpt lat="49.88215" lon="2.31225">
        <ele>52.2</ele>
        <time>2023-12-27T16:27:46Z</time>
      </trkpt>
      <trkpt lat="49.88206" lon="2.31229">
        <ele>52.6</ele>
        <time>2023-12-27T16:27:47Z</time>
      </trkpt>
      <trkpt lat="49.88197" lon="2.31234">
        <ele>53</ele>
        <time>2023-12-27T16:27:48Z</time>
      </trkpt>
      <trkpt lat="49.88188" lon="2.31239">
        <ele>53.3</ele>
        <time>2023-12-27T16:27:49Z</time>
      </trkpt>
      <trkpt lat="49.88181" lon="2.31243">
        <ele>53.7</ele>
        <time>2023-12-27T16:27:50Z</time>
      </trkpt>
      <trkpt lat="49.88174" lon="2.31247">
        <ele>54</ele>
        <time>2023-12-27T16:27:51Z</time>
      </trkpt>
      <trkpt lat="49.88167" lon="2.3125">
        <ele>54.3</ele>
        <time>2023-12-27T16:27:52Z</time>
      </trkpt>
      <trkpt lat="49.88161" lon="2.31255">
        <ele>54.6</ele>
        <time>2023-12-27T16:27:53Z</time>
      </trkpt>
      <trkpt lat="49.88154" lon="2.3126">
        <ele>54.9</ele>
        <time>2023-12-27T16:27:54Z</time>
      </trkpt>
      <trkpt lat="49.88149" lon="2.31264">
        <ele>55.2</ele>
        <time>2023-12-27T16:27:55Z</time>
      </trkpt>
      <trkpt lat="49.88143" lon="2.31269">
        <ele>55.5</ele>
        <time>2023-12-27T16:27:56Z</time>
      </trkpt>
      <trkpt lat="49.88137" lon="2.31274">
        <ele>55.7</ele>
        <time>2023-12-27T16:27:57Z</time>
      </trkpt>
      <trkpt lat="49.88131" lon="2.31279">
        <ele>55.9</ele>
        <time>2023-12-27T16:27:58Z</time>
      </trkpt>
      <trkpt lat="49.88126" lon="2.31283">
        <ele>56.1</ele>
        <time>2023-12-27T16:27:59Z</time>
      </trkpt>
      <trkpt lat="49.88121" lon="2.31288">
        <ele>56.3</ele>
        <time>2023-12-27T16:28:00Z</time>
      </trkpt>
      <trkpt lat="49.88118" lon="2.31291">
        <ele>56.5</ele>
        <time>2023-12-27T16:28:01Z</time>
      </trkpt>
      <trkpt lat="49.88115" lon="2.31295">
        <ele>56.6</ele>
        <time>2023-12-27T16:28:02Z</time>
      </trkpt>
      <trkpt lat="49.88115" lon="2.31295">
        <ele>56.7</ele>
        <time>2023-12-27T16:28:03Z</time>
      </trkpt>
      <trkpt lat="49.88114" lon="2.31297">
        <ele>56.7</ele>
        <time>2023-12-27T16:28:04Z</time>
      </trkpt>
      <trkpt lat="49.88114" lon="2.31298">
        <ele>56.8</ele>
        <time>2023-12-27T16:28:05Z</time>
      </trkpt>
      <trkpt lat="49.88114" lon="2.31299">
        <ele>56.8</ele>
        <time>2023-12-27T16:28:06Z</time>
      </trkpt>
      <trkpt lat="49.88113" lon="2.313">
        <ele>56.8</ele>
        <time>2023-12-27T16:28:07Z</time>
      </trkpt>
      <trkpt lat="49.88113" lon="2.313">
        <ele>56.8</ele>
        <time>2023-12-27T16:28:08Z</time>
      </trkpt>
      <trkpt lat="49.88113" lon="2.31301">
        <ele>56.9</ele>
        <time>2023-12-27T16:28:09Z</time>
      </trkpt>
      <trkpt lat="49.88112" lon="2.31302">
        <ele>56.9</ele>
        <time>2023-12-27T16:28:10Z</time>
      </trkpt>
      <trkpt lat="49.88112" lon="2.31303">
        <ele>56.9</ele>
        <time>2023-12-27T16:28:11Z</time>
      </trkpt>
      <trkpt lat="49.88111" lon="2.31304">
        <ele>57</ele>
        <time>2023-12-27T16:28:12Z</time>
      </trkpt>
      <trkpt lat="49.88111" lon="2.31304">
        <ele>57</ele>
        <time>2023-12-27T16:28:13Z</time>
      </trkpt>
      <trkpt lat="49.88111" lon="2.31305">
        <ele>57</ele>
        <time>2023-12-27T16:28:40Z</time>
      </trkpt>
      <trkpt lat="49.8811" lon="2.31306">
        <ele>57</ele>
        <time>2023-12-27T16:28:41Z</time>
      </trkpt>
      <trkpt lat="49.88106" lon="2.31309">
        <ele>57.3</ele>
        <time>2023-12-27T16:28:42Z</time>
      </trkpt>
      <trkpt lat="49.88102" lon="2.31311">
        <ele>57.3</ele>
        <time>2023-12-27T16:28:43Z</time>
      </trkpt>
      <trkpt lat="49.88097" lon="2.31312">
        <ele>57.4</ele>
        <time>2023-12-27T16:28:44Z</time>
      </trkpt>
      <trkpt lat="49.88092" lon="2.31309">
        <ele>57.5</ele>
        <time>2023-12-27T16:28:45Z</time>
      </trkpt>
      <trkpt lat="49.88088" lon="2.31304">
        <ele>57.5</ele>
        <time>2023-12-27T16:28:46Z</time>
      </trkpt>
      <trkpt lat="49.88085" lon="2.31296">
        <ele>57.6</ele>
        <time>2023-12-27T16:28:47Z</time>
      </trkpt>
      <trkpt lat="49.88082" lon="2.31287">
        <ele>57.7</ele>
        <time>2023-12-27T16:28:48Z</time>
      </trkpt>
      <trkpt lat="49.8808" lon="2.31275">
        <ele>57.8</ele>
        <time>2023-12-27T16:28:49Z</time>
      </trkpt>
      <trkpt lat="49.88078" lon="2.31263">
        <ele>57.9</ele>
        <time>2023-12-27T16:28:50Z</time>
      </trkpt>
      <trkpt lat="49.88075" lon="2.31251">
        <ele>58.1</ele>
        <time>2023-12-27T16:28:51Z</time>
      </trkpt>
      <trkpt lat="49.88071" lon="2.31237">
        <ele>58.2</ele>
        <time>2023-12-27T16:28:52Z</time>
      </trkpt>
      <trkpt lat="49.88068" lon="2.31223">
        <ele>58.3</ele>
        <time>2023-12-27T16:28:53Z</time>
      </trkpt>
      <trkpt lat="49.88064" lon="2.3121">
        <ele>58.4</ele>
        <time>2023-12-27T16:28:54Z</time>
      </trkpt>
      <trkpt lat="49.8806" lon="2.31197">
        <ele>58.5</ele>
        <time>2023-12-27T16:28:55Z</time>
      </trkpt>
      <trkpt lat="49.88057" lon="2.31184">
        <ele>58.6</ele>
        <time>2023-12-27T16:28:56Z</time>
      </trkpt>
      <trkpt lat="49.88054" lon="2.31173">
        <ele>58.7</ele>
        <time>2023-12-27T16:28:57Z</time>
      </trkpt>
      <trkpt lat="49.88051" lon="2.31163">
        <ele>58.8</ele>
        <time>2023-12-27T16:28:58Z</time>
      </trkpt>
      <trkpt lat="49.88048" lon="2.31153">
        <ele>59</ele>
        <time>2023-12-27T16:28:59Z</time>
      </trkpt>
      <trkpt lat="49.88045" lon="2.31145">
        <ele>59.1</ele>
        <time>2023-12-27T16:29:00Z</time>
      </trkpt>
      <trkpt lat="49.88044" lon="2.31138">
        <ele>59.2</ele>
        <time>2023-12-27T16:29:01Z</time>
      </trkpt>
      <trkpt lat="49.88042" lon="2.31132">
        <ele>59.3</ele>
        <time>2023-12-27T16:29:02Z</time>
      </trkpt>
      <trkpt lat="49.88041" lon="2.31124">
        <ele>59.4</ele>
        <time>2023-12-27T16:29:03Z</time>
      </trkpt>
      <trkpt lat="49.88041" lon="2.31117">
        <ele>59.3</ele>
        <time>2023-12-27T16:29:04Z</time>
      </trkpt>
      <trkpt lat="49.88042" lon="2.31107">
        <ele>59.4</ele>
        <time>2023-12-27T16:29:05Z</time>
      </trkpt>
      <trkpt lat="49.88041" lon="2.31098">
        <ele>59.5</ele>
        <time>2023-12-27T16:29:06Z</time>
      </trkpt>
      <trkpt lat="49.88039" lon="2.31093">
        <ele>59.5</ele>
        <time>2023-12-27T16:29:07Z</time>
      </trkpt>
      <trkpt lat="49.88037" lon="2.31086">
        <ele>59.6</ele>
        <time>2023-12-27T16:29:08Z</time>
      </trkpt>
      <trkpt lat="49.88034" lon="2.31076">
        <ele>59.7</ele>
        <time>2023-12-27T16:29:09Z</time>
      </trkpt>
      <trkpt lat="49.8803" lon="2.31065">
        <ele>59.7</ele>
        <time>2023-12-27T16:29:10Z</time>
      </trkpt>
      <trkpt lat="49.88027" lon="2.31052">
        <ele>59.8</ele>
        <time>2023-12-27T16:29:11Z</time>
      </trkpt>
      <trkpt lat="49.88022" lon="2.31037">
        <ele>59.9</ele>
        <time>2023-12-27T16:29:12Z</time>
      </trkpt>
      <trkpt lat="49.88018" lon="2.3102">
        <ele>60</ele>
        <time>2023-12-27T16:29:13Z</time>
      </trkpt>
      <trkpt lat="49.88014" lon="2.31003">
        <ele>60.2</ele>
        <time>2023-12-27T16:29:14Z</time>
      </trkpt>
      <trkpt lat="49.88009" lon="2.30984">
        <ele>60.5</ele>
        <time>2023-12-27T16:29:15Z</time>
      </trkpt>
      <trkpt lat="49.88004" lon="2.30966">
        <ele>60.7</ele>
        <time>2023-12-27T16:29:16Z</time>
      </trkpt>
      <trkpt lat="49.87999" lon="2.30948">
        <ele>60.9</ele>
        <time>2023-12-27T16:29:17Z</time>
      </trkpt>
      <trkpt lat="49.87994" lon="2.30929">
        <ele>61.1</ele>
        <time>2023-12-27T16:29:18Z</time>
      </trkpt>
      <trkpt lat="49.8799" lon="2.3091">
        <ele>61.3</ele>
        <time>2023-12-27T16:29:19Z</time>
      </trkpt>
      <trkpt lat="49.87985" lon="2.30892">
        <ele>61.5</ele>
        <time>2023-12-27T16:29:20Z</time>
      </trkpt>
      <trkpt lat="49.8798" lon="2.30873">
        <ele>61.8</ele>
        <time>2023-12-27T16:29:21Z</time>
      </trkpt>
      <trkpt lat="49.87975" lon="2.30855">
        <ele>62</ele>
        <time>2023-12-27T16:29:22Z</time>
      </trkpt>
      <trkpt lat="49.87971" lon="2.30837">
        <ele>62.2</ele>
        <time>2023-12-27T16:29:23Z</time>
      </trkpt>
      <trkpt lat="49.87966" lon="2.30819">
        <ele>62.4</ele>
        <time>2023-12-27T16:29:24Z</time>
      </trkpt>
      <trkpt lat="49.87961" lon="2.30802">
        <ele>62.6</ele>
        <time>2023-12-27T16:29:25Z</time>
      </trkpt>
      <trkpt lat="49.87957" lon="2.30785">
        <ele>62.8</ele>
        <time>2023-12-27T16:29:26Z</time>
      </trkpt>
      <trkpt lat="49.87953" lon="2.30768">
        <ele>63</ele>
        <time>2023-12-27T16:29:27Z</time>
      </trkpt>
      <trkpt lat="49.87948" lon="2.30751">
        <ele>63.1</ele>
        <time>2023-12-27T16:29:28Z</time>
      </trkpt>
      <trkpt lat="49.87944" lon="2.30734">
        <ele>63.3</ele>
        <time>2023-12-27T16:29:29Z</time>
      </trkpt>
      <trkpt lat="49.8794" lon="2.30718">
        <ele>63.5</ele>
        <time>2023-12-27T16:29:30Z</time>
      </trkpt>
      <trkpt lat="49.87936" lon="2.30702">
        <ele>63.8</ele>
        <time>2023-12-27T16:29:31Z</time>
      </trkpt>
      <trkpt lat="49.87931" lon="2.30687">
        <ele>64</ele>
        <time>2023-12-27T16:29:32Z</time>
      </trkpt>
      <trkpt lat="49.87928" lon="2.30672">
        <ele>64.1</ele>
        <time>2023-12-27T16:29:33Z</time>
      </trkpt>
      <trkpt lat="49.87924" lon="2.30659">
        <ele>64.2</ele>
        <time>2023-12-27T16:29:34Z</time>
      </trkpt>
      <trkpt lat="49.8792" lon="2.30645">
        <ele>64.3</ele>
        <time>2023-12-27T16:29:35Z</time>
      </trkpt>
      <trkpt lat="49.87917" lon="2.30633">
        <ele>64.5</ele>
        <time>2023-12-27T16:29:36Z</time>
      </trkpt>
      <trkpt lat="49.87914" lon="2.3062">
        <ele>64.6</ele>
        <time>2023-12-27T16:29:37Z</time>
      </trkpt>
      <trkpt lat="49.87911" lon="2.30609">
        <ele>64.7</ele>
        <time>2023-12-27T16:29:38Z</time>
      </trkpt>
      <trkpt lat="49.87908" lon="2.30598">
        <ele>64.9</ele>
        <time>2023-12-27T16:29:39Z</time>
      </trkpt>
      <trkpt lat="49.87906" lon="2.30588">
        <ele>65</ele>
        <time>2023-12-27T16:29:40Z</time>
      </trkpt>
      <trkpt lat="49.87904" lon="2.3058">
        <ele>65.1</ele>
        <time>2023-12-27T16:29:41Z</time>
      </trkpt>
      <trkpt lat="49.87902" lon="2.30573">
        <ele>65.2</ele>
        <time>2023-12-27T16:29:42Z</time>
      </trkpt>
      <trkpt lat="49.87901" lon="2.30567">
        <ele>65.3</ele>
        <time>2023-12-27T16:29:43Z</time>
      </trkpt>
      <trkpt lat="49.87899" lon="2.30562">
        <ele>65.3</ele>
        <time>2023-12-27T16:29:44Z</time>
      </trkpt>
      <trkpt lat="49.87899" lon="2.30559">
        <ele>65.4</ele>
        <time>2023-12-27T16:29:45Z</time>
      </trkpt>
      <trkpt lat="49.87898" lon="2.30558">
        <ele>65.4</ele>
        <time>2023-12-27T16:29:46Z</time>
      </trkpt>
      <trkpt lat="49.87898" lon="2.30557">
        <ele>65.4</ele>
        <time>2023-12-27T16:29:47Z</time>
      </trkpt>
      <trkpt lat="49.87898" lon="2.30556">
        <ele>65.4</ele>
        <time>2023-12-27T16:29:48Z</time>
      </trkpt>
      <trkpt lat="49.87898" lon="2.30556">
        <ele>65.4</ele>
        <time>2023-12-27T16:29:49Z</time>
      </trkpt>
      <trkpt lat="49.87898" lon="2.30555">
        <ele>65.4</ele>
        <time>2023-12-27T16:29:50Z</time>
      </trkpt>
      <trkpt lat="49.87898" lon="2.30554">
        <ele>65.4</ele>
        <time>2023-12-27T16:29:51Z</time>
      </trkpt>
      <trkpt lat="49.87897" lon="2.30553">
        <ele>65.4</ele>
        <time>2023-12-27T16:29:52Z</time>
      </trkpt>
      <trkpt lat="49.87897" lon="2.30552">
        <ele>65.4</ele>
        <time>2023-12-27T16:29:53Z</time>
      </trkpt>
      <trkpt lat="49.87897" lon="2.30551">
        <ele>65.4</ele>
        <time>2023-12-27T16:29:54Z</time>
      </trkpt>
      <trkpt lat="49.87897" lon="2.30551">
        <ele>65.5</ele>
        <time>2023-12-27T16:30:19Z</time>
      </trkpt>
      <trkpt lat="49.87897" lon="2.3055">
        <ele>65.5</ele>
        <time>2023-12-27T16:30:20Z</time>
      </trkpt>
      <trkpt lat="49.87897" lon="2.30549">
        <ele>65.5</ele>
        <time>2023-12-27T16:30:21Z</time>
      </trkpt>
      <trkpt lat="49.87894" lon="2.30542">
        <ele>65.5</ele>
        <time>2023-12-27T16:30:22Z</time>
      </trkpt>
      <trkpt lat="49.87892" lon="2.30536">
        <ele>65.5</ele>
        <time>2023-12-27T16:30:23Z</time>
      </trkpt>
      <trkpt lat="49.87888" lon="2.30533">
        <ele>65.4</ele>
        <time>2023-12-27T16:30:24Z</time>
      </trkpt>
      <trkpt lat="49.87885" lon="2.30533">
        <ele>65.4</ele>
        <time>2023-12-27T16:30:25Z</time>
      </trkpt>
      <trkpt lat="49.87882" lon="2.30537">
        <ele>65.4</ele>
        <time>2023-12-27T16:30:26Z</time>
      </trkpt>
      <trkpt lat="49.87882" lon="2.30539">
        <ele>65.4</ele>
        <time>2023-12-27T16:30:27Z</time>
      </trkpt>
      <trkpt lat="49.87881" lon="2.30544">
        <ele>65.4</ele>
        <time>2023-12-27T16:30:28Z</time>
      </trkpt>
      <trkpt lat="49.87882" lon="2.30549">
        <ele>65.4</ele>
        <time>2023-12-27T16:30:29Z</time>
      </trkpt>
      <trkpt lat="49.87883" lon="2.30558">
        <ele>65.4</ele>
        <time>2023-12-27T16:30:30Z</time>
      </trkpt>
      <trkpt lat="49.87885" lon="2.30567">
        <ele>65.3</ele>
        <time>2023-12-27T16:30:31Z</time>
      </trkpt>
      <trkpt lat="49.87887" lon="2.30576">
        <ele>65.2</ele>
        <time>2023-12-27T16:30:32Z</time>
      </trkpt>
      <trkpt lat="49.8789" lon="2.30586">
        <ele>65.1</ele>
        <time>2023-12-27T16:30:33Z</time>
      </trkpt>
      <trkpt lat="49.87892" lon="2.30596">
        <ele>65</ele>
        <time>2023-12-27T16:30:34Z</time>
      </trkpt>
      <trkpt lat="49.87894" lon="2.30606">
        <ele>64.9</ele>
        <time>2023-12-27T16:30:35Z</time>
      </trkpt>
      <trkpt lat="49.87896" lon="2.30617">
        <ele>64.8</ele>
        <time>2023-12-27T16:30:36Z</time>
      </trkpt>
      <trkpt lat="49.87898" lon="2.30627">
        <ele>64.7</ele>
        <time>2023-12-27T16:30:37Z</time>
      </trkpt>
      <trkpt lat="49.879" lon="2.30638">
        <ele>64.6</ele>
        <time>2023-12-27T16:30:38Z</time>
      </trkpt>
      <trkpt lat="49.87902" lon="2.30648">
        <ele>64.5</ele>
        <time>2023-12-27T16:30:39Z</time>
      </trkpt>
      <trkpt lat="49.87905" lon="2.30659">
        <ele>64.3</ele>
        <time>2023-12-27T16:30:40Z</time>
      </trkpt>
      <trkpt lat="49.87907" lon="2.30671">
        <ele>64.2</ele>
        <time>2023-12-27T16:30:41Z</time>
      </trkpt>
      <trkpt lat="49.8791" lon="2.30683">
        <ele>64</ele>
        <time>2023-12-27T16:30:42Z</time>
      </trkpt>
      <trkpt lat="49.87912" lon="2.30695">
        <ele>63.9</ele>
        <time>2023-12-27T16:30:43Z</time>
      </trkpt>
      <trkpt lat="49.87915" lon="2.30707">
        <ele>63.8</ele>
        <time>2023-12-27T16:30:44Z</time>
      </trkpt>
      <trkpt lat="49.87917" lon="2.3072">
        <ele>63.6</ele>
        <time>2023-12-27T16:30:45Z</time>
      </trkpt>
      <trkpt lat="49.8792" lon="2.30733">
        <ele>63.5</ele>
        <time>2023-12-27T16:30:46Z</time>
      </trkpt>
      <trkpt lat="49.87923" lon="2.30746">
        <ele>63.4</ele>
        <time>2023-12-27T16:30:47Z</time>
      </trkpt>
      <trkpt lat="49.87926" lon="2.3076">
        <ele>63.2</ele>
        <time>2023-12-27T16:30:48Z</time>
      </trkpt>
      <trkpt lat="49.87929" lon="2.30775">
        <ele>63.1</ele>
        <time>2023-12-27T16:30:49Z</time>
      </trkpt>
      <trkpt lat="49.87933" lon="2.30789">
        <ele>63</ele>
        <time>2023-12-27T16:30:50Z</time>
      </trkpt>
      <trkpt lat="49.87936" lon="2.30802">
        <ele>62.9</ele>
        <time>2023-12-27T16:30:51Z</time>
      </trkpt>
      <trkpt lat="49.8794" lon="2.30815">
        <ele>62.8</ele>
        <time>2023-12-27T16:30:52Z</time>
      </trkpt>
      <trkpt lat="49.87943" lon="2.30829">
        <ele>62.7</ele>
        <time>2023-12-27T16:30:53Z</time>
      </trkpt>
      <trkpt lat="49.87946" lon="2.30842">
        <ele>62.5</ele>
        <time>2023-12-27T16:30:54Z</time>
      </trkpt>
      <trkpt lat="49.8795" lon="2.30856">
        <ele>62.4</ele>
        <time>2023-12-27T16:30:55Z</time>
      </trkpt>
      <trkpt lat="49.87953" lon="2.30869">
        <ele>62.2</ele>
        <time>2023-12-27T16:30:56Z</time>
      </trkpt>
      <trkpt lat="49.87956" lon="2.30883">
        <ele>62.1</ele>
        <time>2023-12-27T16:30:57Z</time>
      </trkpt>
      <trkpt lat="49.8796" lon="2.30896">
        <ele>61.9</ele>
        <time>2023-12-27T16:30:58Z</time>
      </trkpt>
      <trkpt lat="49.87963" lon="2.30909">
        <ele>61.8</ele>
        <time>2023-12-27T16:30:59Z</time>
      </trkpt>
      <trkpt lat="49.87967" lon="2.30923">
        <ele>61.7</ele>
        <time>2023-12-27T16:31:00Z</time>
      </trkpt>
      <trkpt lat="49.8797" lon="2.30937">
        <ele>61.5</ele>
        <time>2023-12-27T16:31:01Z</time>
      </trkpt>
      <trkpt lat="49.87974" lon="2.3095">
        <ele>61.4</ele>
        <time>2023-12-27T16:31:02Z</time>
      </trkpt>
      <trkpt lat="49.87977" lon="2.30963">
        <ele>61.2</ele>
        <time>2023-12-27T16:31:03Z</time>
      </trkpt>
      <trkpt lat="49.87981" lon="2.30975">
        <ele>61.1</ele>
        <time>2023-12-27T16:31:04Z</time>
      </trkpt>
      <trkpt lat="49.87984" lon="2.30987">
        <ele>61</ele>
        <time>2023-12-27T16:31:05Z</time>
      </trkpt>
      <trkpt lat="49.87987" lon="2.30999">
        <ele>60.9</ele>
        <time>2023-12-27T16:31:06Z</time>
      </trkpt>
      <trkpt lat="49.8799" lon="2.3101">
        <ele>60.8</ele>
        <time>2023-12-27T16:31:07Z</time>
      </trkpt>
      <trkpt lat="49.87992" lon="2.3102">
        <ele>60.7</ele>
        <time>2023-12-27T16:31:08Z</time>
      </trkpt>
      <trkpt lat="49.87995" lon="2.31031">
        <ele>60.6</ele>
        <time>2023-12-27T16:31:09Z</time>
      </trkpt>
      <trkpt lat="49.87997" lon="2.31041">
        <ele>60.5</ele>
        <time>2023-12-27T16:31:10Z</time>
      </trkpt>
      <trkpt lat="49.88" lon="2.31049">
        <ele>60.5</ele>
        <time>2023-12-27T16:31:11Z</time>
      </trkpt>
      <trkpt lat="49.88001" lon="2.31057">
        <ele>60.4</ele>
        <time>2023-12-27T16:31:12Z</time>
      </trkpt>
      <trkpt lat="49.88002" lon="2.31062">
        <ele>60.5</ele>
        <time>2023-12-27T16:31:13Z</time>
      </trkpt>
      <trkpt lat="49.88001" lon="2.31067">
        <ele>60.6</ele>
        <time>2023-12-27T16:31:14Z</time>
      </trkpt>
      <trkpt lat="49.87998" lon="2.3107">
        <ele>60.6</ele>
        <time>2023-12-27T16:31:15Z</time>
      </trkpt>
      <trkpt lat="49.87995" lon="2.31072">
        <ele>60.6</ele>
        <time>2023-12-27T16:31:16Z</time>
      </trkpt>
      <trkpt lat="49.87994" lon="2.31073">
        <ele>60.6</ele>
        <time>2023-12-27T16:31:17Z</time>
      </trkpt>
      <trkpt lat="49.87991" lon="2.31075">
        <ele>60.6</ele>
        <time>2023-12-27T16:31:18Z</time>
      </trkpt>
      <trkpt lat="49.87988" lon="2.31076">
        <ele>60.6</ele>
        <time>2023-12-27T16:31:19Z</time>
      </trkpt>
      <trkpt lat="49.87984" lon="2.31078">
        <ele>60.6</ele>
        <time>2023-12-27T16:31:20Z</time>
      </trkpt>
      <trkpt lat="49.8798" lon="2.31079">
        <ele>60.6</ele>
        <time>2023-12-27T16:31:21Z</time>
      </trkpt>
      <trkpt lat="49.87974" lon="2.31079">
        <ele>60.5</ele>
        <time>2023-12-27T16:31:22Z</time>
      </trkpt>
      <trkpt lat="49.8797" lon="2.31077">
        <ele>60.5</ele>
        <time>2023-12-27T16:31:23Z</time>
      </trkpt>
      <trkpt lat="49.87965" lon="2.31073">
        <ele>60.4</ele>
        <time>2023-12-27T16:31:24Z</time>
      </trkpt>
      <trkpt lat="49.87961" lon="2.31068">
        <ele>60.4</ele>
        <time>2023-12-27T16:31:25Z</time>
      </trkpt>
      <trkpt lat="49.87956" lon="2.31064">
        <ele>60.3</ele>
        <time>2023-12-27T16:31:26Z</time>
      </trkpt>
      <trkpt lat="49.87951" lon="2.31062">
        <ele>60.2</ele>
        <time>2023-12-27T16:31:27Z</time>
      </trkpt>
      <trkpt lat="49.87947" lon="2.3106">
        <ele>60.2</ele>
        <time>2023-12-27T16:31:28Z</time>
      </trkpt>
      <trkpt lat="49.87941" lon="2.31059">
        <ele>60.1</ele>
        <time>2023-12-27T16:31:29Z</time>
      </trkpt>
      <trkpt lat="49.87936" lon="2.31057">
        <ele>60</ele>
        <time>2023-12-27T16:31:30Z</time>
      </trkpt>
      <trkpt lat="49.87932" lon="2.31054">
        <ele>60</ele>
        <time>2023-12-27T16:31:31Z</time>
      </trkpt>
      <trkpt lat="49.87928" lon="2.31049">
        <ele>60.1</ele>
        <time>2023-12-27T16:31:32Z</time>
      </trkpt>
      <trkpt lat="49.87925" lon="2.31043">
        <ele>60</ele>
        <time>2023-12-27T16:31:33Z</time>
      </trkpt>
      <trkpt lat="49.87922" lon="2.31036">
        <ele>60</ele>
        <time>2023-12-27T16:31:34Z</time>
      </trkpt>
      <trkpt lat="49.87919" lon="2.3103">
        <ele>59.9</ele>
        <time>2023-12-27T16:31:35Z</time>
      </trkpt>
      <trkpt lat="49.87918" lon="2.31024">
        <ele>59.9</ele>
        <time>2023-12-27T16:31:36Z</time>
      </trkpt>
      <trkpt lat="49.87917" lon="2.31018">
        <ele>59.9</ele>
        <time>2023-12-27T16:31:37Z</time>
      </trkpt>
      <trkpt lat="49.87916" lon="2.31013">
        <ele>59.9</ele>
        <time>2023-12-27T16:31:38Z</time>
      </trkpt>
      <trkpt lat="49.87916" lon="2.31009">
        <ele>59.9</ele>
        <time>2023-12-27T16:31:39Z</time>
      </trkpt>
      <trkpt lat="49.87915" lon="2.31004">
        <ele>59.9</ele>
        <time>2023-12-27T16:31:40Z</time>
      </trkpt>
      <trkpt lat="49.87914" lon="2.30999">
        <ele>59.9</ele>
        <time>2023-12-27T16:31:41Z</time>
      </trkpt>
      <trkpt lat="49.87914" lon="2.30997">
        <ele>59.9</ele>
        <time>2023-12-27T16:31:42Z</time>
      </trkpt>
      <trkpt lat="49.87915" lon="2.30992">
        <ele>59.9</ele>
        <time>2023-12-27T16:31:43Z</time>
      </trkpt>
      <trkpt lat="49.87915" lon="2.30991">
        <ele>59.9</ele>
        <time>2023-12-27T16:31:44Z</time>
      </trkpt>
      <trkpt lat="49.87916" lon="2.3099">
        <ele>59.9</ele>
        <time>2023-12-27T16:31:45Z</time>
      </trkpt>
      <trkpt lat="49.87918" lon="2.30991">
        <ele>59.9</ele>
        <time>2023-12-27T16:31:46Z</time>
      </trkpt>
      <trkpt lat="49.87918" lon="2.30991">
        <ele>59.9</ele>
        <time>2023-12-27T16:31:47Z</time>
      </trkpt>
      <trkpt lat="49.87917" lon="2.3099">
        <ele>59.9</ele>
        <time>2023-12-27T16:31:48Z</time>
      </trkpt>
      <trkpt lat="49.87917" lon="2.3099">
        <ele>59.9</ele>
        <time>2023-12-27T16:31:49Z</time>
      </trkpt>
      <trkpt lat="49.87916" lon="2.3099">
        <ele>59.9</ele>
        <time>2023-12-27T16:31:50Z</time>
      </trkpt>
      <trkpt lat="49.87916" lon="2.3099">
        <ele>59.9</ele>
        <time>2023-12-27T16:31:51Z</time>
      </trkpt>
      <trkpt lat="49.87916" lon="2.3099">
        <ele>59.9</ele>
        <time>2023-12-27T16:31:52Z</time>
      </trkpt>
      <trkpt lat="49.87915" lon="2.3099">
        <ele>59.9</ele>
        <time>2023-12-27T16:31:53Z</time>
      </trkpt>
      <trkpt lat="49.87915" lon="2.30989">
        <ele>59.9</ele>
        <time>2023-12-27T16:31:54Z</time>
      </trkpt>
      <trkpt lat="49.87915" lon="2.30989">
        <ele>59.9</ele>
        <time>2023-12-27T16:31:55Z</time>
      </trkpt>
      <trkpt lat="49.87914" lon="2.30989">
        <ele>59.9</ele>
        <time>2023-12-27T16:32:36Z</time>
      </trkpt>
      <trkpt lat="49.87914" lon="2.30989">
        <ele>59.9</ele>
        <time>2023-12-27T16:32:37Z</time>
      </trkpt>
      <trkpt lat="49.87914" lon="2.30989">
        <ele>59.9</ele>
        <time>2023-12-27T16:32:38Z</time>
      </trkpt>
      <trkpt lat="49.87913" lon="2.30988">
        <ele>59.9</ele>
        <time>2023-12-27T16:32:39Z</time>
      </trkpt>
      <trkpt lat="49.87909" lon="2.30983">
        <ele>60</ele>
        <time>2023-12-27T16:32:40Z</time>
      </trkpt>
      <trkpt lat="49.87906" lon="2.30981">
        <ele>60</ele>
        <time>2023-12-27T16:32:41Z</time>
      </trkpt>
      <trkpt lat="49.87902" lon="2.30981">
        <ele>59.9</ele>
        <time>2023-12-27T16:32:42Z</time>
      </trkpt>
      <trkpt lat="49.87898" lon="2.30984">
        <ele>59.9</ele>
        <time>2023-12-27T16:32:43Z</time>
      </trkpt>
      <trkpt lat="49.87897" lon="2.30985">
        <ele>59.9</ele>
        <time>2023-12-27T16:32:44Z</time>
      </trkpt>
      <trkpt lat="49.87893" lon="2.30988">
        <ele>59.9</ele>
        <time>2023-12-27T16:32:45Z</time>
      </trkpt>
      <trkpt lat="49.87889" lon="2.30991">
        <ele>59.9</ele>
        <time>2023-12-27T16:32:46Z</time>
      </trkpt>
      <trkpt lat="49.87885" lon="2.30994">
        <ele>60</ele>
        <time>2023-12-27T16:32:47Z</time>
      </trkpt>
      <trkpt lat="49.87882" lon="2.30997">
        <ele>60</ele>
        <time>2023-12-27T16:32:48Z</time>
      </trkpt>
      <trkpt lat="49.87879" lon="2.31">
        <ele>60.1</ele>
        <time>2023-12-27T16:32:49Z</time>
      </trkpt>
      <trkpt lat="49.87875" lon="2.31003">
        <ele>60.2</ele>
        <time>2023-12-27T16:32:50Z</time>
      </trkpt>
      <trkpt lat="49.87871" lon="2.31005">
        <ele>60.2</ele>
        <time>2023-12-27T16:32:51Z</time>
      </trkpt>
      <trkpt lat="49.87868" lon="2.31005">
        <ele>60.3</ele>
        <time>2023-12-27T16:32:52Z</time>
      </trkpt>
      <trkpt lat="49.87865" lon="2.31003">
        <ele>60.4</ele>
        <time>2023-12-27T16:32:53Z</time>
      </trkpt>
      <trkpt lat="49.87863" lon="2.30999">
        <ele>60.5</ele>
        <time>2023-12-27T16:32:54Z</time>
      </trkpt>
      <trkpt lat="49.87861" lon="2.30994">
        <ele>60.5</ele>
        <time>2023-12-27T16:32:55Z</time>
      </trkpt>
      <trkpt lat="49.87859" lon="2.30989">
        <ele>60.6</ele>
        <time>2023-12-27T16:32:56Z</time>
      </trkpt>
      <trkpt lat="49.87858" lon="2.30983">
        <ele>60.6</ele>
        <time>2023-12-27T16:32:57Z</time>
      </trkpt>
      <trkpt lat="49.87856" lon="2.30976">
        <ele>60.6</ele>
        <time>2023-12-27T16:32:58Z</time>
      </trkpt>
      <trkpt lat="49.87854" lon="2.30968">
        <ele>60.6</ele>
        <time>2023-12-27T16:32:59Z</time>
      </trkpt>
      <trkpt lat="49.87852" lon="2.30961">
        <ele>60.7</ele>
        <time>2023-12-27T16:33:00Z</time>
      </trkpt>
      <trkpt lat="49.8785" lon="2.30953">
        <ele>60.8</ele>
        <time>2023-12-27T16:33:01Z</time>
      </trkpt>
      <trkpt lat="49.87848" lon="2.30941">
        <ele>60.9</ele>
        <time>2023-12-27T16:33:02Z</time>
      </trkpt>
      <trkpt lat="49.87845" lon="2.30931">
        <ele>61.1</ele>
        <time>2023-12-27T16:33:03Z</time>
      </trkpt>
      <trkpt lat="49.87841" lon="2.30921">
        <ele>61.2</ele>
        <time>2023-12-27T16:33:04Z</time>
      </trkpt>
      <trkpt lat="49.87838" lon="2.30914">
        <ele>61.3</ele>
        <time>2023-12-27T16:33:05Z</time>
      </trkpt>
      <trkpt lat="49.87835" lon="2.30911">
        <ele>61.4</ele>
        <time>2023-12-27T16:33:06Z</time>
      </trkpt>
      <trkpt lat="49.87832" lon="2.30909">
        <ele>61.4</ele>
        <time>2023-12-27T16:33:07Z</time>
      </trkpt>
      <trkpt lat="49.87829" lon="2.30907">
        <ele>61.5</ele>
        <time>2023-12-27T16:33:08Z</time>
      </trkpt>
      <trkpt lat="49.87826" lon="2.30905">
        <ele>61.5</ele>
        <time>2023-12-27T16:33:09Z</time>
      </trkpt>
      <trkpt lat="49.87823" lon="2.30903">
        <ele>61.6</ele>
        <time>2023-12-27T16:33:10Z</time>
      </trkpt>
      <trkpt lat="49.8782" lon="2.309">
        <ele>61.6</ele>
        <time>2023-12-27T16:33:11Z</time>
      </trkpt>
      <trkpt lat="49.87817" lon="2.30897">
        <ele>61.7</ele>
        <time>2023-12-27T16:33:12Z</time>
      </trkpt>
      <trkpt lat="49.87814" lon="2.30894">
        <ele>61.7</ele>
        <time>2023-12-27T16:33:13Z</time>
      </trkpt>
      <trkpt lat="49.87814" lon="2.30894">
        <ele>61.7</ele>
        <time>2023-12-27T16:33:14Z</time>
      </trkpt>
      <trkpt lat="49.87812" lon="2.30892">
        <ele>61.7</ele>
        <time>2023-12-27T16:33:15Z</time>
      </trkpt>
      <trkpt lat="49.87811" lon="2.30891">
        <ele>61.7</ele>
        <time>2023-12-27T16:33:16Z</time>
      </trkpt>
      <trkpt lat="49.87811" lon="2.3089">
        <ele>61.8</ele>
        <time>2023-12-27T16:33:17Z</time>
      </trkpt>
      <trkpt lat="49.8781" lon="2.30889">
        <ele>61.8</ele>
        <time>2023-12-27T16:33:18Z</time>
      </trkpt>
      <trkpt lat="49.87809" lon="2.30888">
        <ele>61.8</ele>
        <time>2023-12-27T16:33:19Z</time>
      </trkpt>
      <trkpt lat="49.87808" lon="2.30888">
        <ele>61.8</ele>
        <time>2023-12-27T16:33:20Z</time>
      </trkpt>
      <trkpt lat="49.87806" lon="2.30888">
        <ele>61.8</ele>
        <time>2023-12-27T16:33:21Z</time>
      </trkpt>
      <trkpt lat="49.87804" lon="2.30888">
        <ele>61.8</ele>
        <time>2023-12-27T16:33:22Z</time>
      </trkpt>
      <trkpt lat="49.87803" lon="2.30888">
        <ele>61.9</ele>
        <time>2023-12-27T16:33:23Z</time>
      </trkpt>
      <trkpt lat="49.87802" lon="2.30888">
        <ele>61.9</ele>
        <time>2023-12-27T16:33:25Z</time>
      </trkpt>
      <trkpt lat="49.87799" lon="2.3089">
        <ele>61.9</ele>
        <time>2023-12-27T16:33:28Z</time>
      </trkpt>
      <trkpt lat="49.87799" lon="2.30891">
        <ele>61.9</ele>
        <time>2023-12-27T16:33:29Z</time>
      </trkpt>
      <trkpt lat="49.87799" lon="2.30891">
        <ele>61.9</ele>
        <time>2023-12-27T16:33:30Z</time>
      </trkpt>
      <trkpt lat="49.87799" lon="2.30891">
        <ele>61.9</ele>
        <time>2023-12-27T16:33:31Z</time>
      </trkpt>
      <trkpt lat="49.87799" lon="2.30891">
        <ele>61.9</ele>
        <time>2023-12-27T16:33:32Z</time>
      </trkpt>
      <trkpt lat="49.87799" lon="2.30899">
        <ele>61.9</ele>
        <time>2023-12-27T16:34:39Z</time>
      </trkpt>
      <trkpt lat="49.87799" lon="2.30899">
        <ele>61.9</ele>
        <time>2023-12-27T16:34:40Z</time>
      </trkpt>
      <trkpt lat="49.87799" lon="2.30899">
        <ele>61.9</ele>
        <time>2023-12-27T16:34:41Z</time>
      </trkpt>
      <trkpt lat="49.87799" lon="2.30899">
        <ele>61.9</ele>
        <time>2023-12-27T16:34:42Z</time>
      </trkpt>
      <trkpt lat="49.87799" lon="2.30899">
        <ele>61.9</ele>
        <time>2023-12-27T16:34:43Z</time>
      </trkpt>
      <trkpt lat="49.87799" lon="2.309">
        <ele>61.9</ele>
        <time>2023-12-27T16:34:44Z</time>
      </trkpt>
      <trkpt lat="49.87799" lon="2.309">
        <ele>61.9</ele>
        <time>2023-12-27T16:34:45Z</time>
      </trkpt>
      <trkpt lat="49.87799" lon="2.309">
        <ele>61.9</ele>
        <time>2023-12-27T16:34:46Z</time>
      </trkpt>
      <trkpt lat="49.87799" lon="2.309">
        <ele>61.9</ele>
        <time>2023-12-27T16:34:47Z</time>
      </trkpt>
      <trkpt lat="49.87799" lon="2.309">
        <ele>61.9</ele>
        <time>2023-12-27T16:34:48Z</time>
      </trkpt>
      <trkpt lat="49.878" lon="2.309">
        <ele>61.9</ele>
        <time>2023-12-27T16:34:49Z</time>
      </trkpt>
      <trkpt lat="49.87801" lon="2.309">
        <ele>61.9</ele>
        <time>2023-12-27T16:34:50Z</time>
      </trkpt>
      <trkpt lat="49.87802" lon="2.30899">
        <ele>61.9</ele>
        <time>2023-12-27T16:34:51Z</time>
      </trkpt>
      <trkpt lat="49.87806" lon="2.30906">
        <ele>61.8</ele>
        <time>2023-12-27T16:34:52Z</time>
      </trkpt>
      <trkpt lat="49.87808" lon="2.30911">
        <ele>61.8</ele>
        <time>2023-12-27T16:34:54Z</time>
      </trkpt>
      <trkpt lat="49.8781" lon="2.30917">
        <ele>61.8</ele>
        <time>2023-12-27T16:34:55Z</time>
      </trkpt>
      <trkpt lat="49.87811" lon="2.30919">
        <ele>61.8</ele>
        <time>2023-12-27T16:34:56Z</time>
      </trkpt>
      <trkpt lat="49.87812" lon="2.30919">
        <ele>61.8</ele>
        <time>2023-12-27T16:34:57Z</time>
      </trkpt>
      <trkpt lat="49.87812" lon="2.30919">
        <ele>61.8</ele>
        <time>2023-12-27T16:34:58Z</time>
      </trkpt>
      <trkpt lat="49.87812" lon="2.30919">
        <ele>61.8</ele>
        <time>2023-12-27T16:34:59Z</time>
      </trkpt>
      <trkpt lat="49.87812" lon="2.30915">
        <ele>61.8</ele>
        <time>2023-12-27T16:35:00Z</time>
      </trkpt>
      <trkpt lat="49.87812" lon="2.30917">
        <ele>61.8</ele>
        <time>2023-12-27T16:35:02Z</time>
      </trkpt>
      <trkpt lat="49.87812" lon="2.30917">
        <ele>61.8</ele>
        <time>2023-12-27T16:35:03Z</time>
      </trkpt>
      <trkpt lat="49.87812" lon="2.30917">
        <ele>61.8</ele>
        <time>2023-12-27T16:35:04Z</time>
      </trkpt>
      <trkpt lat="49.87812" lon="2.30917">
        <ele>61.8</ele>
        <time>2023-12-27T16:35:05Z</time>
      </trkpt>
      <trkpt lat="49.87812" lon="2.30916">
        <ele>61.8</ele>
        <time>2023-12-27T16:35:06Z</time>
      </trkpt>
      <trkpt lat="49.87812" lon="2.30916">
        <ele>61.8</ele>
        <time>2023-12-27T16:35:08Z</time>
      </trkpt>
      <trkpt lat="49.87812" lon="2.30916">
        <ele>61.8</ele>
        <time>2023-12-27T16:35:10Z</time>
      </trkpt>
      <trkpt lat="49.87812" lon="2.30917">
        <ele>61.8</ele>
        <time>2023-12-27T16:35:11Z</time>
      </trkpt>
      <trkpt lat="49.87813" lon="2.30918">
        <ele>61.8</ele>
        <time>2023-12-27T16:35:12Z</time>
      </trkpt>
      <trkpt lat="49.87813" lon="2.3092">
        <ele>61.8</ele>
        <time>2023-12-27T16:35:14Z</time>
      </trkpt>
      <trkpt lat="49.87814" lon="2.30921">
        <ele>61.8</ele>
        <time>2023-12-27T16:35:15Z</time>
      </trkpt>
      <trkpt lat="49.87814" lon="2.30923">
        <ele>61.8</ele>
        <time>2023-12-27T16:35:18Z</time>
      </trkpt>
      <trkpt lat="49.87816" lon="2.30923">
        <ele>61.7</ele>
        <time>2023-12-27T16:35:19Z</time>
      </trkpt>
      <trkpt lat="49.87817" lon="2.30923">
        <ele>61.7</ele>
        <time>2023-12-27T16:35:21Z</time>
      </trkpt>
      <trkpt lat="49.87827" lon="2.30923">
        <ele>61.7</ele>
        <time>2023-12-27T16:36:05Z</time>
      </trkpt>
      <trkpt lat="49.87828" lon="2.30921">
        <ele>61.7</ele>
        <time>2023-12-27T16:36:06Z</time>
      </trkpt>
      <trkpt lat="49.87828" lon="2.30921">
        <ele>61.7</ele>
        <time>2023-12-27T16:36:08Z</time>
      </trkpt>
      <trkpt lat="49.87825" lon="2.30926">
        <ele>61.7</ele>
        <time>2023-12-27T16:36:18Z</time>
      </trkpt>
      <trkpt lat="49.87824" lon="2.30928">
        <ele>61.7</ele>
        <time>2023-12-27T16:36:23Z</time>
      </trkpt>
      <trkpt lat="49.87825" lon="2.30928">
        <ele>61.7</ele>
        <time>2023-12-27T16:36:28Z</time>
      </trkpt>
      <trkpt lat="49.87822" lon="2.30928">
        <ele>61.7</ele>
        <time>2023-12-27T16:36:33Z</time>
      </trkpt>
      <trkpt lat="49.8782" lon="2.30927">
        <ele>61.6</ele>
        <time>2023-12-27T16:36:38Z</time>
      </trkpt>
      <trkpt lat="49.87818" lon="2.30927">
        <ele>61.6</ele>
        <time>2023-12-27T16:36:43Z</time>
      </trkpt>
      <trkpt lat="49.87819" lon="2.30926">
        <ele>61.6</ele>
        <time>2023-12-27T16:36:48Z</time>
      </trkpt>
      <trkpt lat="49.87818" lon="2.30925">
        <ele>61.6</ele>
        <time>2023-12-27T16:36:53Z</time>
      </trkpt>
      <trkpt lat="49.87825" lon="2.30926">
        <ele>61.6</ele>
        <time>2023-12-27T16:37:00Z</time>
      </trkpt>
      <trkpt lat="49.87825" lon="2.30926">
        <ele>61.6</ele>
        <time>2023-12-27T16:37:08Z</time>
      </trkpt>
      <trkpt lat="49.87824" lon="2.30926">
        <ele>61.6</ele>
        <time>2023-12-27T16:37:13Z</time>
      </trkpt>
      <trkpt lat="49.87824" lon="2.30927">
        <ele>61.6</ele>
        <time>2023-12-27T16:37:18Z</time>
      </trkpt>
      <trkpt lat="49.87821" lon="2.30929">
        <ele>61.6</ele>
        <time>2023-12-27T16:37:23Z</time>
      </trkpt>
      <trkpt lat="49.87818" lon="2.30926">
        <ele>61.6</ele>
        <time>2023-12-27T16:37:28Z</time>
      </trkpt>
      <trkpt lat="49.8782" lon="2.30928">
        <ele>61.6</ele>
        <time>2023-12-27T16:37:33Z</time>
      </trkpt>
      <trkpt lat="49.8782" lon="2.30929">
        <ele>61.6</ele>
        <time>2023-12-27T16:37:38Z</time>
      </trkpt>
      <trkpt lat="49.87817" lon="2.30927">
        <ele>61.5</ele>
        <time>2023-12-27T16:38:24Z</time>
      </trkpt>
      <trkpt lat="49.8782" lon="2.30927">
        <ele>61.5</ele>
        <time>2023-12-27T16:38:29Z</time>
      </trkpt>
      <trkpt lat="49.87821" lon="2.30928">
        <ele>61.5</ele>
        <time>2023-12-27T16:38:34Z</time>
      </trkpt>
      <trkpt lat="49.87821" lon="2.30928">
        <ele>61.5</ele>
        <time>2023-12-27T16:38:39Z</time>
      </trkpt>
      <trkpt lat="49.87818" lon="2.30924">
        <ele>61.5</ele>
        <time>2023-12-27T16:45:32Z</time>
      </trkpt>
      <trkpt lat="49.87817" lon="2.30924">
        <ele>61.5</ele>
        <time>2023-12-27T16:45:37Z</time>
      </trkpt>
      <trkpt lat="49.8782" lon="2.30927">
        <ele>61.5</ele>
        <time>2023-12-27T16:45:42Z</time>
      </trkpt>
      <trkpt lat="49.8782" lon="2.30927">
        <ele>61.5</ele>
        <time>2023-12-27T16:45:47Z</time>
      </trkpt>
      <trkpt lat="49.87821" lon="2.30928">
        <ele>61.5</ele>
        <time>2023-12-27T16:45:52Z</time>
      </trkpt>
      <trkpt lat="49.87822" lon="2.30929">
        <ele>61.5</ele>
        <time>2023-12-27T16:46:03Z</time>
      </trkpt>
      <trkpt lat="49.87823" lon="2.30928">
        <ele>61.5</ele>
        <time>2023-12-27T16:46:04Z</time>
      </trkpt>
      <trkpt lat="49.87867" lon="2.30987">
        <ele>60.6</ele>
        <time>2023-12-27T16:46:05Z</time>
      </trkpt>
      <trkpt lat="49.87871" lon="2.30992">
        <ele>60.6</ele>
        <time>2023-12-27T16:46:06Z</time>
      </trkpt>
      <trkpt lat="49.87872" lon="2.30993">
        <ele>60.6</ele>
        <time>2023-12-27T16:46:07Z</time>
      </trkpt>
      <trkpt lat="49.87869" lon="2.30989">
        <ele>60.6</ele>
        <time>2023-12-27T16:46:08Z</time>
      </trkpt>
      <trkpt lat="49.87865" lon="2.30984">
        <ele>60.6</ele>
        <time>2023-12-27T16:46:09Z</time>
      </trkpt>
      <trkpt lat="49.87861" lon="2.30979">
        <ele>60.6</ele>
        <time>2023-12-27T16:46:10Z</time>
      </trkpt>
      <trkpt lat="49.87858" lon="2.30974">
        <ele>60.6</ele>
        <time>2023-12-27T16:46:11Z</time>
      </trkpt>
      <trkpt lat="49.87854" lon="2.3097">
        <ele>60.6</ele>
        <time>2023-12-27T16:46:12Z</time>
      </trkpt>
      <trkpt lat="49.87845" lon="2.30958">
        <ele>60.6</ele>
        <time>2023-12-27T16:46:13Z</time>
      </trkpt>
      <trkpt lat="49.87864" lon="2.30982">
        <ele>60.6</ele>
        <time>2023-12-27T16:46:14Z</time>
      </trkpt>
      <trkpt lat="49.8786" lon="2.30976">
        <ele>60.6</ele>
        <time>2023-12-27T16:46:15Z</time>
      </trkpt>
      <trkpt lat="49.8785" lon="2.30964">
        <ele>60.7</ele>
        <time>2023-12-27T16:46:16Z</time>
      </trkpt>
      <trkpt lat="49.87845" lon="2.30958">
        <ele>60.8</ele>
        <time>2023-12-27T16:46:17Z</time>
      </trkpt>
      <trkpt lat="49.8784" lon="2.30951">
        <ele>61</ele>
        <time>2023-12-27T16:46:18Z</time>
      </trkpt>
      <trkpt lat="49.87834" lon="2.30944">
        <ele>61.2</ele>
        <time>2023-12-27T16:46:19Z</time>
      </trkpt>
      <trkpt lat="49.87869" lon="2.30989">
        <ele>60.6</ele>
        <time>2023-12-27T16:46:20Z</time>
      </trkpt>
      <trkpt lat="49.87871" lon="2.30992">
        <ele>60.6</ele>
        <time>2023-12-27T16:46:21Z</time>
      </trkpt>
      <trkpt lat="49.87869" lon="2.30993">
        <ele>60.6</ele>
        <time>2023-12-27T16:46:22Z</time>
      </trkpt>
      <trkpt lat="49.87866" lon="2.30993">
        <ele>60.6</ele>
        <time>2023-12-27T16:46:23Z</time>
      </trkpt>
      <trkpt lat="49.87863" lon="2.30993">
        <ele>60.6</ele>
        <time>2023-12-27T16:46:24Z</time>
      </trkpt>
      <trkpt lat="49.8786" lon="2.30993">
        <ele>60.6</ele>
        <time>2023-12-27T16:46:25Z</time>
      </trkpt>
      <trkpt lat="49.87857" lon="2.30993">
        <ele>60.6</ele>
        <time>2023-12-27T16:46:26Z</time>
      </trkpt>
      <trkpt lat="49.87854" lon="2.3099">
        <ele>60.6</ele>
        <time>2023-12-27T16:46:27Z</time>
      </trkpt>
      <trkpt lat="49.87852" lon="2.30988">
        <ele>60.6</ele>
        <time>2023-12-27T16:46:28Z</time>
      </trkpt>
      <trkpt lat="49.87851" lon="2.30985">
        <ele>60.6</ele>
        <time>2023-12-27T16:46:29Z</time>
      </trkpt>
      <trkpt lat="49.8785" lon="2.30983">
        <ele>60.6</ele>
        <time>2023-12-27T16:46:30Z</time>
      </trkpt>
      <trkpt lat="49.87844" lon="2.3097">
        <ele>60.6</ele>
        <time>2023-12-27T16:46:31Z</time>
      </trkpt>
      <trkpt lat="49.87852" lon="2.30989">
        <ele>60.6</ele>
        <time>2023-12-27T16:46:32Z</time>
      </trkpt>
      <trkpt lat="49.87854" lon="2.30992">
        <ele>60.6</ele>
        <time>2023-12-27T16:46:33Z</time>
      </trkpt>
      <trkpt lat="49.87854" lon="2.30993">
        <ele>60.6</ele>
        <time>2023-12-27T16:46:34Z</time>
      </trkpt>
      <trkpt lat="49.87854" lon="2.30992">
        <ele>60.6</ele>
        <time>2023-12-27T16:46:35Z</time>
      </trkpt>
      <trkpt lat="49.87854" lon="2.30992">
        <ele>60.6</ele>
        <time>2023-12-27T16:46:36Z</time>
      </trkpt>
      <trkpt lat="49.87854" lon="2.30991">
        <ele>60.6</ele>
        <time>2023-12-27T16:46:37Z</time>
      </trkpt>
      <trkpt lat="49.87853" lon="2.30991">
        <ele>60.6</ele>
        <time>2023-12-27T16:46:38Z</time>
      </trkpt>
      <trkpt lat="49.87853" lon="2.3099">
        <ele>60.6</ele>
        <time>2023-12-27T16:46:39Z</time>
      </trkpt>
      <trkpt lat="49.87853" lon="2.30989">
        <ele>60.6</ele>
        <time>2023-12-27T16:46:40Z</time>
      </trkpt>
      <trkpt lat="49.87852" lon="2.30989">
        <ele>60.6</ele>
        <time>2023-12-27T16:46:41Z</time>
      </trkpt>
      <trkpt lat="49.87852" lon="2.30988">
        <ele>60.6</ele>
        <time>2023-12-27T16:46:42Z</time>
      </trkpt>
      <trkpt lat="49.87852" lon="2.30988">
        <ele>60.6</ele>
        <time>2023-12-27T16:46:43Z</time>
      </trkpt>
      <trkpt lat="49.87851" lon="2.30987">
        <ele>60.6</ele>
        <time>2023-12-27T16:46:44Z</time>
      </trkpt>
      <trkpt lat="49.87851" lon="2.30986">
        <ele>60.6</ele>
        <time>2023-12-27T16:46:45Z</time>
      </trkpt>
      <trkpt lat="49.87851" lon="2.30986">
        <ele>60.6</ele>
        <time>2023-12-27T16:46:46Z</time>
      </trkpt>
      <trkpt lat="49.87851" lon="2.30985">
        <ele>60.6</ele>
        <time>2023-12-27T16:46:47Z</time>
      </trkpt>
      <trkpt lat="49.8785" lon="2.30985">
        <ele>60.6</ele>
        <time>2023-12-27T16:46:48Z</time>
      </trkpt>
      <trkpt lat="49.8785" lon="2.30984">
        <ele>60.6</ele>
        <time>2023-12-27T16:46:49Z</time>
      </trkpt>
      <trkpt lat="49.8785" lon="2.30983">
        <ele>60.6</ele>
        <time>2023-12-27T16:46:50Z</time>
      </trkpt>
      <trkpt lat="49.87849" lon="2.30983">
        <ele>60.6</ele>
        <time>2023-12-27T16:46:51Z</time>
      </trkpt>
      <trkpt lat="49.87843" lon="2.3097">
        <ele>60.7</ele>
        <time>2023-12-27T16:46:52Z</time>
      </trkpt>
      <trkpt lat="49.87837" lon="2.3096">
        <ele>60.7</ele>
        <time>2023-12-27T16:46:53Z</time>
      </trkpt>
      <trkpt lat="49.87849" lon="2.30983">
        <ele>60.7</ele>
        <time>2023-12-27T16:46:54Z</time>
      </trkpt>
      <trkpt lat="49.87847" lon="2.30978">
        <ele>60.7</ele>
        <time>2023-12-27T16:46:55Z</time>
      </trkpt>
      <trkpt lat="49.87841" lon="2.30967">
        <ele>60.7</ele>
        <time>2023-12-27T16:46:56Z</time>
      </trkpt>
      <trkpt lat="49.87835" lon="2.30957">
        <ele>60.8</ele>
        <time>2023-12-27T16:46:57Z</time>
      </trkpt>
      <trkpt lat="49.87849" lon="2.30982">
        <ele>60.8</ele>
        <time>2023-12-27T16:46:58Z</time>
      </trkpt>
      <trkpt lat="49.87847" lon="2.30978">
        <ele>60.9</ele>
        <time>2023-12-27T16:46:59Z</time>
      </trkpt>
      <trkpt lat="49.87841" lon="2.30967">
        <ele>60.9</ele>
        <time>2023-12-27T16:47:00Z</time>
      </trkpt>
      <trkpt lat="49.87836" lon="2.30957">
        <ele>60.9</ele>
        <time>2023-12-27T16:47:01Z</time>
      </trkpt>
      <trkpt lat="49.87843" lon="2.30966">
        <ele>61</ele>
        <time>2023-12-27T16:47:02Z</time>
      </trkpt>
      <trkpt lat="49.87839" lon="2.3096">
        <ele>61</ele>
        <time>2023-12-27T16:47:03Z</time>
      </trkpt>
      <trkpt lat="49.87835" lon="2.30953">
        <ele>61</ele>
        <time>2023-12-27T16:47:04Z</time>
      </trkpt>
      <trkpt lat="49.87831" lon="2.30946">
        <ele>61</ele>
        <time>2023-12-27T16:47:05Z</time>
      </trkpt>
      <trkpt lat="49.87835" lon="2.3094">
        <ele>61</ele>
        <time>2023-12-27T16:47:06Z</time>
      </trkpt>
      <trkpt lat="49.87836" lon="2.30939">
        <ele>61</ele>
        <time>2023-12-27T16:47:07Z</time>
      </trkpt>
      <trkpt lat="49.87836" lon="2.30939">
        <ele>61</ele>
        <time>2023-12-27T16:47:08Z</time>
      </trkpt>
      <trkpt lat="49.87836" lon="2.30938">
        <ele>61</ele>
        <time>2023-12-27T16:47:09Z</time>
      </trkpt>
      <trkpt lat="49.87836" lon="2.30938">
        <ele>61</ele>
        <time>2023-12-27T16:47:10Z</time>
      </trkpt>
      <trkpt lat="49.87836" lon="2.30938">
        <ele>61</ele>
        <time>2023-12-27T16:47:11Z</time>
      </trkpt>
      <trkpt lat="49.87833" lon="2.30936">
        <ele>61.1</ele>
        <time>2023-12-27T16:47:12Z</time>
      </trkpt>
      <trkpt lat="49.8783" lon="2.30933">
        <ele>61.1</ele>
        <time>2023-12-27T16:47:13Z</time>
      </trkpt>
      <trkpt lat="49.87826" lon="2.3093">
        <ele>61.1</ele>
        <time>2023-12-27T16:47:14Z</time>
      </trkpt>
      <trkpt lat="49.87823" lon="2.30928">
        <ele>61.1</ele>
        <time>2023-12-27T16:47:15Z</time>
      </trkpt>
    </trkseg>
  </trk>
</gpx>